<?xml version="1.0" encoding="UTF-8" standalone="no" ?>
<gpx xmlns="http://www.topografix.com/GPX/1/1" xmlns:xsi="http://www.w3.org/2001/XMLSchema-instance" xsi:schemaLocation="http://www.topografix.com/GPX/1/1 http://www.topografix.com/GPX/1/1/gpx.xsd" version="1.1" creator="VisuGPX - https://www.visugpx.com">
  <metadata>
    <name>Barcilonnette - col de d'Espréaux - col de Faye</name>
    <desc><![CDATA[Très belle boucle dans les Hautes-Alpes avec un dénivelé positif de 1282 m. Au départ de Laragne nous partons en direction Lazer, puis Barcilonnette et nous allons monter 3 cols (col d'Espréaux 1164 m - col des Verniers 1050 m - col de Faye 931 m).]]></desc>
  </metadata>
  <trk>
    <name><![CDATA[Barcilonnette - col de Fay]]></name>
    <trkseg>
      <trkpt lat="44.316" lon="5.82948">
        <ele>574</ele>
        <time>2019-06-12T11:26:28Z</time>
      </trkpt>
      <trkpt lat="44.31575" lon="5.82931">
        <ele>575</ele>
        <time>2019-06-12T11:26:44Z</time>
      </trkpt>
      <trkpt lat="44.31572" lon="5.82927">
        <ele>575</ele>
        <time>2019-06-12T11:26:45Z</time>
      </trkpt>
      <trkpt lat="44.31568" lon="5.82925">
        <ele>574</ele>
        <time>2019-06-12T11:26:46Z</time>
      </trkpt>
      <trkpt lat="44.31564" lon="5.82923">
        <ele>574</ele>
        <time>2019-06-12T11:26:47Z</time>
      </trkpt>
      <trkpt lat="44.31559" lon="5.82921">
        <ele>574</ele>
        <time>2019-06-12T11:26:48Z</time>
      </trkpt>
      <trkpt lat="44.31556" lon="5.82918">
        <ele>573</ele>
        <time>2019-06-12T11:26:49Z</time>
      </trkpt>
      <trkpt lat="44.31553" lon="5.82915">
        <ele>573</ele>
        <time>2019-06-12T11:26:50Z</time>
      </trkpt>
      <trkpt lat="44.31551" lon="5.82913">
        <ele>572</ele>
        <time>2019-06-12T11:26:51Z</time>
      </trkpt>
      <trkpt lat="44.31548" lon="5.82911">
        <ele>571</ele>
        <time>2019-06-12T11:26:52Z</time>
      </trkpt>
      <trkpt lat="44.31545" lon="5.82909">
        <ele>570</ele>
        <time>2019-06-12T11:26:53Z</time>
      </trkpt>
      <trkpt lat="44.31542" lon="5.82906">
        <ele>569</ele>
        <time>2019-06-12T11:26:54Z</time>
      </trkpt>
      <trkpt lat="44.31538" lon="5.82902">
        <ele>568</ele>
        <time>2019-06-12T11:26:55Z</time>
      </trkpt>
      <trkpt lat="44.31535" lon="5.82899">
        <ele>568</ele>
        <time>2019-06-12T11:26:56Z</time>
      </trkpt>
      <trkpt lat="44.31532" lon="5.82895">
        <ele>567</ele>
        <time>2019-06-12T11:26:57Z</time>
      </trkpt>
      <trkpt lat="44.31529" lon="5.82892">
        <ele>567</ele>
        <time>2019-06-12T11:26:58Z</time>
      </trkpt>
      <trkpt lat="44.31525" lon="5.82888">
        <ele>566</ele>
        <time>2019-06-12T11:26:59Z</time>
      </trkpt>
      <trkpt lat="44.31522" lon="5.82885">
        <ele>566</ele>
        <time>2019-06-12T11:27:00Z</time>
      </trkpt>
      <trkpt lat="44.31519" lon="5.82882">
        <ele>566</ele>
        <time>2019-06-12T11:27:01Z</time>
      </trkpt>
      <trkpt lat="44.31516" lon="5.82879">
        <ele>565</ele>
        <time>2019-06-12T11:27:02Z</time>
      </trkpt>
      <trkpt lat="44.31513" lon="5.82876">
        <ele>564</ele>
        <time>2019-06-12T11:27:03Z</time>
      </trkpt>
      <trkpt lat="44.31509" lon="5.82872">
        <ele>564</ele>
        <time>2019-06-12T11:27:04Z</time>
      </trkpt>
      <trkpt lat="44.31506" lon="5.8287">
        <ele>563</ele>
        <time>2019-06-12T11:27:05Z</time>
      </trkpt>
      <trkpt lat="44.31502" lon="5.82871">
        <ele>563</ele>
        <time>2019-06-12T11:27:06Z</time>
      </trkpt>
      <trkpt lat="44.31499" lon="5.82872">
        <ele>563</ele>
        <time>2019-06-12T11:27:07Z</time>
      </trkpt>
      <trkpt lat="44.31496" lon="5.82876">
        <ele>563</ele>
        <time>2019-06-12T11:27:08Z</time>
      </trkpt>
      <trkpt lat="44.31493" lon="5.82879">
        <ele>563</ele>
        <time>2019-06-12T11:27:09Z</time>
      </trkpt>
      <trkpt lat="44.3149" lon="5.82884">
        <ele>563</ele>
        <time>2019-06-12T11:27:10Z</time>
      </trkpt>
      <trkpt lat="44.31487" lon="5.82888">
        <ele>563</ele>
        <time>2019-06-12T11:27:11Z</time>
      </trkpt>
      <trkpt lat="44.31485" lon="5.82893">
        <ele>563</ele>
        <time>2019-06-12T11:27:12Z</time>
      </trkpt>
      <trkpt lat="44.31482" lon="5.82897">
        <ele>563</ele>
        <time>2019-06-12T11:27:13Z</time>
      </trkpt>
      <trkpt lat="44.31479" lon="5.82901">
        <ele>563</ele>
        <time>2019-06-12T11:27:14Z</time>
      </trkpt>
      <trkpt lat="44.31477" lon="5.82905">
        <ele>563</ele>
        <time>2019-06-12T11:27:15Z</time>
      </trkpt>
      <trkpt lat="44.31475" lon="5.8291">
        <ele>563</ele>
        <time>2019-06-12T11:27:16Z</time>
      </trkpt>
      <trkpt lat="44.31473" lon="5.82914">
        <ele>563</ele>
        <time>2019-06-12T11:27:17Z</time>
      </trkpt>
      <trkpt lat="44.31471" lon="5.82917">
        <ele>563</ele>
        <time>2019-06-12T11:27:18Z</time>
      </trkpt>
      <trkpt lat="44.31469" lon="5.82921">
        <ele>563</ele>
        <time>2019-06-12T11:27:19Z</time>
      </trkpt>
      <trkpt lat="44.31467" lon="5.82924">
        <ele>563</ele>
        <time>2019-06-12T11:27:20Z</time>
      </trkpt>
      <trkpt lat="44.31464" lon="5.82927">
        <ele>564</ele>
        <time>2019-06-12T11:27:21Z</time>
      </trkpt>
      <trkpt lat="44.31462" lon="5.82931">
        <ele>564</ele>
        <time>2019-06-12T11:27:22Z</time>
      </trkpt>
      <trkpt lat="44.31459" lon="5.82934">
        <ele>564</ele>
        <time>2019-06-12T11:27:23Z</time>
      </trkpt>
      <trkpt lat="44.31456" lon="5.82938">
        <ele>564</ele>
        <time>2019-06-12T11:27:24Z</time>
      </trkpt>
      <trkpt lat="44.31454" lon="5.82942">
        <ele>565</ele>
        <time>2019-06-12T11:27:25Z</time>
      </trkpt>
      <trkpt lat="44.31451" lon="5.82946">
        <ele>565</ele>
        <time>2019-06-12T11:27:26Z</time>
      </trkpt>
      <trkpt lat="44.31448" lon="5.8295">
        <ele>565</ele>
        <time>2019-06-12T11:27:27Z</time>
      </trkpt>
      <trkpt lat="44.31445" lon="5.82954">
        <ele>565</ele>
        <time>2019-06-12T11:27:28Z</time>
      </trkpt>
      <trkpt lat="44.31442" lon="5.82959">
        <ele>565</ele>
        <time>2019-06-12T11:27:29Z</time>
      </trkpt>
      <trkpt lat="44.31439" lon="5.82963">
        <ele>565</ele>
        <time>2019-06-12T11:27:30Z</time>
      </trkpt>
      <trkpt lat="44.31437" lon="5.82967">
        <ele>565</ele>
        <time>2019-06-12T11:27:31Z</time>
      </trkpt>
      <trkpt lat="44.31433" lon="5.82972">
        <ele>565</ele>
        <time>2019-06-12T11:27:32Z</time>
      </trkpt>
      <trkpt lat="44.3143" lon="5.82976">
        <ele>565</ele>
        <time>2019-06-12T11:27:33Z</time>
      </trkpt>
      <trkpt lat="44.31427" lon="5.82981">
        <ele>565</ele>
        <time>2019-06-12T11:27:34Z</time>
      </trkpt>
      <trkpt lat="44.31424" lon="5.82985">
        <ele>565</ele>
        <time>2019-06-12T11:27:35Z</time>
      </trkpt>
      <trkpt lat="44.31421" lon="5.8299">
        <ele>565</ele>
        <time>2019-06-12T11:27:36Z</time>
      </trkpt>
      <trkpt lat="44.31418" lon="5.82995">
        <ele>565</ele>
        <time>2019-06-12T11:27:37Z</time>
      </trkpt>
      <trkpt lat="44.31415" lon="5.83">
        <ele>565</ele>
        <time>2019-06-12T11:27:38Z</time>
      </trkpt>
      <trkpt lat="44.31412" lon="5.83004">
        <ele>566</ele>
        <time>2019-06-12T11:27:39Z</time>
      </trkpt>
      <trkpt lat="44.31408" lon="5.83009">
        <ele>566</ele>
        <time>2019-06-12T11:27:40Z</time>
      </trkpt>
      <trkpt lat="44.31405" lon="5.83014">
        <ele>566</ele>
        <time>2019-06-12T11:27:41Z</time>
      </trkpt>
      <trkpt lat="44.31402" lon="5.83019">
        <ele>566</ele>
        <time>2019-06-12T11:27:42Z</time>
      </trkpt>
      <trkpt lat="44.31398" lon="5.83024">
        <ele>566</ele>
        <time>2019-06-12T11:27:43Z</time>
      </trkpt>
      <trkpt lat="44.31395" lon="5.83028">
        <ele>566</ele>
        <time>2019-06-12T11:27:44Z</time>
      </trkpt>
      <trkpt lat="44.31392" lon="5.83033">
        <ele>566</ele>
        <time>2019-06-12T11:27:45Z</time>
      </trkpt>
      <trkpt lat="44.31389" lon="5.83037">
        <ele>566</ele>
        <time>2019-06-12T11:27:46Z</time>
      </trkpt>
      <trkpt lat="44.31385" lon="5.83042">
        <ele>566</ele>
        <time>2019-06-12T11:27:47Z</time>
      </trkpt>
      <trkpt lat="44.31382" lon="5.83046">
        <ele>566</ele>
        <time>2019-06-12T11:27:48Z</time>
      </trkpt>
      <trkpt lat="44.31379" lon="5.8305">
        <ele>566</ele>
        <time>2019-06-12T11:27:49Z</time>
      </trkpt>
      <trkpt lat="44.31377" lon="5.83055">
        <ele>566</ele>
        <time>2019-06-12T11:27:50Z</time>
      </trkpt>
      <trkpt lat="44.31374" lon="5.8306">
        <ele>566</ele>
        <time>2019-06-12T11:27:51Z</time>
      </trkpt>
      <trkpt lat="44.31372" lon="5.83065">
        <ele>566</ele>
        <time>2019-06-12T11:27:52Z</time>
      </trkpt>
      <trkpt lat="44.3137" lon="5.83069">
        <ele>566</ele>
        <time>2019-06-12T11:27:53Z</time>
      </trkpt>
      <trkpt lat="44.31368" lon="5.83074">
        <ele>566</ele>
        <time>2019-06-12T11:27:54Z</time>
      </trkpt>
      <trkpt lat="44.31366" lon="5.83079">
        <ele>566</ele>
        <time>2019-06-12T11:27:55Z</time>
      </trkpt>
      <trkpt lat="44.31364" lon="5.83084">
        <ele>566</ele>
        <time>2019-06-12T11:27:56Z</time>
      </trkpt>
      <trkpt lat="44.31362" lon="5.8309">
        <ele>566</ele>
        <time>2019-06-12T11:27:57Z</time>
      </trkpt>
      <trkpt lat="44.31359" lon="5.83095">
        <ele>566</ele>
        <time>2019-06-12T11:27:58Z</time>
      </trkpt>
      <trkpt lat="44.31357" lon="5.831">
        <ele>566</ele>
        <time>2019-06-12T11:27:59Z</time>
      </trkpt>
      <trkpt lat="44.31355" lon="5.83104">
        <ele>567</ele>
        <time>2019-06-12T11:28:00Z</time>
      </trkpt>
      <trkpt lat="44.31352" lon="5.83105">
        <ele>567</ele>
        <time>2019-06-12T11:28:01Z</time>
      </trkpt>
      <trkpt lat="44.31349" lon="5.83104">
        <ele>567</ele>
        <time>2019-06-12T11:28:02Z</time>
      </trkpt>
      <trkpt lat="44.31347" lon="5.83101">
        <ele>567</ele>
        <time>2019-06-12T11:28:03Z</time>
      </trkpt>
      <trkpt lat="44.31345" lon="5.83096">
        <ele>567</ele>
        <time>2019-06-12T11:28:04Z</time>
      </trkpt>
      <trkpt lat="44.31345" lon="5.8309">
        <ele>567</ele>
        <time>2019-06-12T11:28:05Z</time>
      </trkpt>
      <trkpt lat="44.31345" lon="5.83083">
        <ele>567</ele>
        <time>2019-06-12T11:28:06Z</time>
      </trkpt>
      <trkpt lat="44.31345" lon="5.83076">
        <ele>567</ele>
        <time>2019-06-12T11:28:07Z</time>
      </trkpt>
      <trkpt lat="44.31346" lon="5.83069">
        <ele>567</ele>
        <time>2019-06-12T11:28:08Z</time>
      </trkpt>
      <trkpt lat="44.31348" lon="5.83062">
        <ele>567</ele>
        <time>2019-06-12T11:28:09Z</time>
      </trkpt>
      <trkpt lat="44.31349" lon="5.83055">
        <ele>567</ele>
        <time>2019-06-12T11:28:10Z</time>
      </trkpt>
      <trkpt lat="44.3135" lon="5.83047">
        <ele>566</ele>
        <time>2019-06-12T11:28:11Z</time>
      </trkpt>
      <trkpt lat="44.31351" lon="5.8304">
        <ele>565</ele>
        <time>2019-06-12T11:28:12Z</time>
      </trkpt>
      <trkpt lat="44.31352" lon="5.83033">
        <ele>564</ele>
        <time>2019-06-12T11:28:13Z</time>
      </trkpt>
      <trkpt lat="44.31353" lon="5.83025">
        <ele>563</ele>
        <time>2019-06-12T11:28:14Z</time>
      </trkpt>
      <trkpt lat="44.31354" lon="5.83017">
        <ele>562</ele>
        <time>2019-06-12T11:28:15Z</time>
      </trkpt>
      <trkpt lat="44.31355" lon="5.83009">
        <ele>561</ele>
        <time>2019-06-12T11:28:16Z</time>
      </trkpt>
      <trkpt lat="44.31356" lon="5.83001">
        <ele>560</ele>
        <time>2019-06-12T11:28:17Z</time>
      </trkpt>
      <trkpt lat="44.31357" lon="5.82992">
        <ele>559</ele>
        <time>2019-06-12T11:28:18Z</time>
      </trkpt>
      <trkpt lat="44.31358" lon="5.82984">
        <ele>558</ele>
        <time>2019-06-12T11:28:19Z</time>
      </trkpt>
      <trkpt lat="44.31359" lon="5.82975">
        <ele>557</ele>
        <time>2019-06-12T11:28:20Z</time>
      </trkpt>
      <trkpt lat="44.3136" lon="5.82966">
        <ele>557</ele>
        <time>2019-06-12T11:28:21Z</time>
      </trkpt>
      <trkpt lat="44.31361" lon="5.82956">
        <ele>556</ele>
        <time>2019-06-12T11:28:22Z</time>
      </trkpt>
      <trkpt lat="44.31362" lon="5.82947">
        <ele>556</ele>
        <time>2019-06-12T11:28:23Z</time>
      </trkpt>
      <trkpt lat="44.31363" lon="5.82937">
        <ele>556</ele>
        <time>2019-06-12T11:28:24Z</time>
      </trkpt>
      <trkpt lat="44.31365" lon="5.82928">
        <ele>556</ele>
        <time>2019-06-12T11:28:25Z</time>
      </trkpt>
      <trkpt lat="44.31366" lon="5.82919">
        <ele>556</ele>
        <time>2019-06-12T11:28:26Z</time>
      </trkpt>
      <trkpt lat="44.31367" lon="5.82909">
        <ele>556</ele>
        <time>2019-06-12T11:28:27Z</time>
      </trkpt>
      <trkpt lat="44.31368" lon="5.829">
        <ele>556</ele>
        <time>2019-06-12T11:28:28Z</time>
      </trkpt>
      <trkpt lat="44.31369" lon="5.8289">
        <ele>556</ele>
        <time>2019-06-12T11:28:29Z</time>
      </trkpt>
      <trkpt lat="44.31369" lon="5.8288">
        <ele>556</ele>
        <time>2019-06-12T11:28:30Z</time>
      </trkpt>
      <trkpt lat="44.3137" lon="5.82871">
        <ele>555</ele>
        <time>2019-06-12T11:28:31Z</time>
      </trkpt>
      <trkpt lat="44.31371" lon="5.82862">
        <ele>555</ele>
        <time>2019-06-12T11:28:32Z</time>
      </trkpt>
      <trkpt lat="44.31372" lon="5.82853">
        <ele>554</ele>
        <time>2019-06-12T11:28:33Z</time>
      </trkpt>
      <trkpt lat="44.31373" lon="5.82844">
        <ele>554</ele>
        <time>2019-06-12T11:28:34Z</time>
      </trkpt>
      <trkpt lat="44.31374" lon="5.82835">
        <ele>554</ele>
        <time>2019-06-12T11:28:35Z</time>
      </trkpt>
      <trkpt lat="44.31375" lon="5.82826">
        <ele>554</ele>
        <time>2019-06-12T11:28:36Z</time>
      </trkpt>
      <trkpt lat="44.31375" lon="5.82817">
        <ele>554</ele>
        <time>2019-06-12T11:28:37Z</time>
      </trkpt>
      <trkpt lat="44.31376" lon="5.82808">
        <ele>554</ele>
        <time>2019-06-12T11:28:38Z</time>
      </trkpt>
      <trkpt lat="44.31376" lon="5.82799">
        <ele>554</ele>
        <time>2019-06-12T11:28:39Z</time>
      </trkpt>
      <trkpt lat="44.31376" lon="5.82791">
        <ele>554</ele>
        <time>2019-06-12T11:28:40Z</time>
      </trkpt>
      <trkpt lat="44.31376" lon="5.82782">
        <ele>554</ele>
        <time>2019-06-12T11:28:41Z</time>
      </trkpt>
      <trkpt lat="44.31377" lon="5.82774">
        <ele>554</ele>
        <time>2019-06-12T11:28:42Z</time>
      </trkpt>
      <trkpt lat="44.31376" lon="5.82765">
        <ele>554</ele>
        <time>2019-06-12T11:28:43Z</time>
      </trkpt>
      <trkpt lat="44.31376" lon="5.82757">
        <ele>554</ele>
        <time>2019-06-12T11:28:44Z</time>
      </trkpt>
      <trkpt lat="44.31376" lon="5.8275">
        <ele>554</ele>
        <time>2019-06-12T11:28:45Z</time>
      </trkpt>
      <trkpt lat="44.31376" lon="5.82742">
        <ele>554</ele>
        <time>2019-06-12T11:28:46Z</time>
      </trkpt>
      <trkpt lat="44.31375" lon="5.82733">
        <ele>554</ele>
        <time>2019-06-12T11:28:47Z</time>
      </trkpt>
      <trkpt lat="44.31375" lon="5.82725">
        <ele>554</ele>
        <time>2019-06-12T11:28:48Z</time>
      </trkpt>
      <trkpt lat="44.31374" lon="5.82718">
        <ele>554</ele>
        <time>2019-06-12T11:28:49Z</time>
      </trkpt>
      <trkpt lat="44.31374" lon="5.8271">
        <ele>554</ele>
        <time>2019-06-12T11:28:50Z</time>
      </trkpt>
      <trkpt lat="44.31373" lon="5.82703">
        <ele>554</ele>
        <time>2019-06-12T11:28:51Z</time>
      </trkpt>
      <trkpt lat="44.31373" lon="5.82695">
        <ele>554</ele>
        <time>2019-06-12T11:28:52Z</time>
      </trkpt>
      <trkpt lat="44.31374" lon="5.82687">
        <ele>554</ele>
        <time>2019-06-12T11:28:53Z</time>
      </trkpt>
      <trkpt lat="44.31374" lon="5.82679">
        <ele>554</ele>
        <time>2019-06-12T11:28:54Z</time>
      </trkpt>
      <trkpt lat="44.31376" lon="5.82672">
        <ele>554</ele>
        <time>2019-06-12T11:28:55Z</time>
      </trkpt>
      <trkpt lat="44.31379" lon="5.82664">
        <ele>554</ele>
        <time>2019-06-12T11:28:56Z</time>
      </trkpt>
      <trkpt lat="44.31382" lon="5.82657">
        <ele>554</ele>
        <time>2019-06-12T11:28:57Z</time>
      </trkpt>
      <trkpt lat="44.31386" lon="5.82651">
        <ele>554</ele>
        <time>2019-06-12T11:28:58Z</time>
      </trkpt>
      <trkpt lat="44.31389" lon="5.82645">
        <ele>555</ele>
        <time>2019-06-12T11:28:59Z</time>
      </trkpt>
      <trkpt lat="44.31392" lon="5.82638">
        <ele>556</ele>
        <time>2019-06-12T11:29:00Z</time>
      </trkpt>
      <trkpt lat="44.31395" lon="5.82631">
        <ele>557</ele>
        <time>2019-06-12T11:29:01Z</time>
      </trkpt>
      <trkpt lat="44.31397" lon="5.82624">
        <ele>558</ele>
        <time>2019-06-12T11:29:02Z</time>
      </trkpt>
      <trkpt lat="44.31399" lon="5.82616">
        <ele>559</ele>
        <time>2019-06-12T11:29:03Z</time>
      </trkpt>
      <trkpt lat="44.31401" lon="5.82608">
        <ele>559</ele>
        <time>2019-06-12T11:29:04Z</time>
      </trkpt>
      <trkpt lat="44.31403" lon="5.826">
        <ele>559</ele>
        <time>2019-06-12T11:29:05Z</time>
      </trkpt>
      <trkpt lat="44.31404" lon="5.82592">
        <ele>559</ele>
        <time>2019-06-12T11:29:06Z</time>
      </trkpt>
      <trkpt lat="44.31406" lon="5.82584">
        <ele>559</ele>
        <time>2019-06-12T11:29:07Z</time>
      </trkpt>
      <trkpt lat="44.31408" lon="5.82577">
        <ele>559</ele>
        <time>2019-06-12T11:29:08Z</time>
      </trkpt>
      <trkpt lat="44.3141" lon="5.82569">
        <ele>559</ele>
        <time>2019-06-12T11:29:09Z</time>
      </trkpt>
      <trkpt lat="44.31411" lon="5.8256">
        <ele>559</ele>
        <time>2019-06-12T11:29:10Z</time>
      </trkpt>
      <trkpt lat="44.31413" lon="5.82552">
        <ele>559</ele>
        <time>2019-06-12T11:29:11Z</time>
      </trkpt>
      <trkpt lat="44.31415" lon="5.82544">
        <ele>559</ele>
        <time>2019-06-12T11:29:12Z</time>
      </trkpt>
      <trkpt lat="44.31417" lon="5.82536">
        <ele>559</ele>
        <time>2019-06-12T11:29:13Z</time>
      </trkpt>
      <trkpt lat="44.31418" lon="5.82528">
        <ele>559</ele>
        <time>2019-06-12T11:29:14Z</time>
      </trkpt>
      <trkpt lat="44.3142" lon="5.82521">
        <ele>559</ele>
        <time>2019-06-12T11:29:15Z</time>
      </trkpt>
      <trkpt lat="44.31422" lon="5.82513">
        <ele>559</ele>
        <time>2019-06-12T11:29:16Z</time>
      </trkpt>
      <trkpt lat="44.31423" lon="5.82505">
        <ele>559</ele>
        <time>2019-06-12T11:29:17Z</time>
      </trkpt>
      <trkpt lat="44.31424" lon="5.82497">
        <ele>559</ele>
        <time>2019-06-12T11:29:18Z</time>
      </trkpt>
      <trkpt lat="44.31425" lon="5.82488">
        <ele>559</ele>
        <time>2019-06-12T11:29:19Z</time>
      </trkpt>
      <trkpt lat="44.31426" lon="5.8248">
        <ele>559</ele>
        <time>2019-06-12T11:29:20Z</time>
      </trkpt>
      <trkpt lat="44.31428" lon="5.82473">
        <ele>558</ele>
        <time>2019-06-12T11:29:21Z</time>
      </trkpt>
      <trkpt lat="44.31429" lon="5.82465">
        <ele>557</ele>
        <time>2019-06-12T11:29:22Z</time>
      </trkpt>
      <trkpt lat="44.3143" lon="5.82457">
        <ele>556</ele>
        <time>2019-06-12T11:29:23Z</time>
      </trkpt>
      <trkpt lat="44.31431" lon="5.82449">
        <ele>555</ele>
        <time>2019-06-12T11:29:24Z</time>
      </trkpt>
      <trkpt lat="44.31432" lon="5.82442">
        <ele>554</ele>
        <time>2019-06-12T11:29:25Z</time>
      </trkpt>
      <trkpt lat="44.31434" lon="5.82435">
        <ele>552</ele>
        <time>2019-06-12T11:29:26Z</time>
      </trkpt>
      <trkpt lat="44.31436" lon="5.82429">
        <ele>551</ele>
        <time>2019-06-12T11:29:27Z</time>
      </trkpt>
      <trkpt lat="44.31437" lon="5.82422">
        <ele>550</ele>
        <time>2019-06-12T11:29:28Z</time>
      </trkpt>
      <trkpt lat="44.31437" lon="5.82414">
        <ele>549</ele>
        <time>2019-06-12T11:29:29Z</time>
      </trkpt>
      <trkpt lat="44.31437" lon="5.82407">
        <ele>548</ele>
        <time>2019-06-12T11:29:30Z</time>
      </trkpt>
      <trkpt lat="44.31437" lon="5.824">
        <ele>547</ele>
        <time>2019-06-12T11:29:31Z</time>
      </trkpt>
      <trkpt lat="44.31437" lon="5.82393">
        <ele>546</ele>
        <time>2019-06-12T11:29:32Z</time>
      </trkpt>
      <trkpt lat="44.31438" lon="5.82387">
        <ele>545</ele>
        <time>2019-06-12T11:29:33Z</time>
      </trkpt>
      <trkpt lat="44.31437" lon="5.8238">
        <ele>544</ele>
        <time>2019-06-12T11:29:34Z</time>
      </trkpt>
      <trkpt lat="44.31436" lon="5.82374">
        <ele>542</ele>
        <time>2019-06-12T11:29:35Z</time>
      </trkpt>
      <trkpt lat="44.31435" lon="5.82367">
        <ele>541</ele>
        <time>2019-06-12T11:29:36Z</time>
      </trkpt>
      <trkpt lat="44.31435" lon="5.82362">
        <ele>540</ele>
        <time>2019-06-12T11:29:37Z</time>
      </trkpt>
      <trkpt lat="44.31435" lon="5.82357">
        <ele>539</ele>
        <time>2019-06-12T11:29:38Z</time>
      </trkpt>
      <trkpt lat="44.31438" lon="5.82355">
        <ele>538</ele>
        <time>2019-06-12T11:29:39Z</time>
      </trkpt>
      <trkpt lat="44.31442" lon="5.82357">
        <ele>538</ele>
        <time>2019-06-12T11:29:40Z</time>
      </trkpt>
      <trkpt lat="44.31445" lon="5.82361">
        <ele>538</ele>
        <time>2019-06-12T11:29:41Z</time>
      </trkpt>
      <trkpt lat="44.31448" lon="5.82365">
        <ele>538</ele>
        <time>2019-06-12T11:29:42Z</time>
      </trkpt>
      <trkpt lat="44.31452" lon="5.82369">
        <ele>539</ele>
        <time>2019-06-12T11:29:43Z</time>
      </trkpt>
      <trkpt lat="44.31456" lon="5.82373">
        <ele>540</ele>
        <time>2019-06-12T11:29:44Z</time>
      </trkpt>
      <trkpt lat="44.31461" lon="5.82378">
        <ele>542</ele>
        <time>2019-06-12T11:29:45Z</time>
      </trkpt>
      <trkpt lat="44.31464" lon="5.82384">
        <ele>544</ele>
        <time>2019-06-12T11:29:46Z</time>
      </trkpt>
      <trkpt lat="44.31468" lon="5.8239">
        <ele>546</ele>
        <time>2019-06-12T11:29:47Z</time>
      </trkpt>
      <trkpt lat="44.31473" lon="5.82396">
        <ele>548</ele>
        <time>2019-06-12T11:29:48Z</time>
      </trkpt>
      <trkpt lat="44.31477" lon="5.82402">
        <ele>551</ele>
        <time>2019-06-12T11:29:49Z</time>
      </trkpt>
      <trkpt lat="44.31483" lon="5.82408">
        <ele>553</ele>
        <time>2019-06-12T11:29:50Z</time>
      </trkpt>
      <trkpt lat="44.31488" lon="5.82414">
        <ele>555</ele>
        <time>2019-06-12T11:29:51Z</time>
      </trkpt>
      <trkpt lat="44.31494" lon="5.8242">
        <ele>557</ele>
        <time>2019-06-12T11:29:52Z</time>
      </trkpt>
      <trkpt lat="44.315" lon="5.82426">
        <ele>559</ele>
        <time>2019-06-12T11:29:53Z</time>
      </trkpt>
      <trkpt lat="44.31506" lon="5.82432">
        <ele>561</ele>
        <time>2019-06-12T11:29:54Z</time>
      </trkpt>
      <trkpt lat="44.31512" lon="5.82438">
        <ele>563</ele>
        <time>2019-06-12T11:29:55Z</time>
      </trkpt>
      <trkpt lat="44.31517" lon="5.82444">
        <ele>565</ele>
        <time>2019-06-12T11:29:56Z</time>
      </trkpt>
      <trkpt lat="44.31523" lon="5.82451">
        <ele>567</ele>
        <time>2019-06-12T11:29:57Z</time>
      </trkpt>
      <trkpt lat="44.31529" lon="5.82456">
        <ele>569</ele>
        <time>2019-06-12T11:29:58Z</time>
      </trkpt>
      <trkpt lat="44.31535" lon="5.82462">
        <ele>571</ele>
        <time>2019-06-12T11:29:59Z</time>
      </trkpt>
      <trkpt lat="44.3154" lon="5.82467">
        <ele>573</ele>
        <time>2019-06-12T11:30:00Z</time>
      </trkpt>
      <trkpt lat="44.31546" lon="5.82472">
        <ele>575</ele>
        <time>2019-06-12T11:30:01Z</time>
      </trkpt>
      <trkpt lat="44.31551" lon="5.82478">
        <ele>577</ele>
        <time>2019-06-12T11:30:02Z</time>
      </trkpt>
      <trkpt lat="44.31556" lon="5.82483">
        <ele>579</ele>
        <time>2019-06-12T11:30:03Z</time>
      </trkpt>
      <trkpt lat="44.31561" lon="5.82488">
        <ele>581</ele>
        <time>2019-06-12T11:30:04Z</time>
      </trkpt>
      <trkpt lat="44.31566" lon="5.82493">
        <ele>583</ele>
        <time>2019-06-12T11:30:05Z</time>
      </trkpt>
      <trkpt lat="44.31572" lon="5.82498">
        <ele>585</ele>
        <time>2019-06-12T11:30:06Z</time>
      </trkpt>
      <trkpt lat="44.31578" lon="5.82502">
        <ele>587</ele>
        <time>2019-06-12T11:30:07Z</time>
      </trkpt>
      <trkpt lat="44.31584" lon="5.82507">
        <ele>589</ele>
        <time>2019-06-12T11:30:08Z</time>
      </trkpt>
      <trkpt lat="44.31589" lon="5.82512">
        <ele>591</ele>
        <time>2019-06-12T11:30:09Z</time>
      </trkpt>
      <trkpt lat="44.31593" lon="5.82517">
        <ele>592</ele>
        <time>2019-06-12T11:30:10Z</time>
      </trkpt>
      <trkpt lat="44.31598" lon="5.82521">
        <ele>593</ele>
        <time>2019-06-12T11:30:11Z</time>
      </trkpt>
      <trkpt lat="44.31602" lon="5.82525">
        <ele>594</ele>
        <time>2019-06-12T11:30:12Z</time>
      </trkpt>
      <trkpt lat="44.31607" lon="5.82529">
        <ele>595</ele>
        <time>2019-06-12T11:30:13Z</time>
      </trkpt>
      <trkpt lat="44.31611" lon="5.82534">
        <ele>596</ele>
        <time>2019-06-12T11:30:14Z</time>
      </trkpt>
      <trkpt lat="44.31614" lon="5.82538">
        <ele>597</ele>
        <time>2019-06-12T11:30:15Z</time>
      </trkpt>
      <trkpt lat="44.31618" lon="5.82542">
        <ele>598</ele>
        <time>2019-06-12T11:30:16Z</time>
      </trkpt>
      <trkpt lat="44.31622" lon="5.82546">
        <ele>599</ele>
        <time>2019-06-12T11:30:17Z</time>
      </trkpt>
      <trkpt lat="44.31631" lon="5.82554">
        <ele>599</ele>
        <time>2019-06-12T11:30:19Z</time>
      </trkpt>
      <trkpt lat="44.31636" lon="5.82559">
        <ele>599</ele>
        <time>2019-06-12T11:30:20Z</time>
      </trkpt>
      <trkpt lat="44.3164" lon="5.82564">
        <ele>598</ele>
        <time>2019-06-12T11:30:21Z</time>
      </trkpt>
      <trkpt lat="44.31644" lon="5.82569">
        <ele>597</ele>
        <time>2019-06-12T11:30:22Z</time>
      </trkpt>
      <trkpt lat="44.31649" lon="5.82573">
        <ele>595</ele>
        <time>2019-06-12T11:30:23Z</time>
      </trkpt>
      <trkpt lat="44.31653" lon="5.82577">
        <ele>593</ele>
        <time>2019-06-12T11:30:24Z</time>
      </trkpt>
      <trkpt lat="44.31657" lon="5.82581">
        <ele>591</ele>
        <time>2019-06-12T11:30:25Z</time>
      </trkpt>
      <trkpt lat="44.31661" lon="5.82585">
        <ele>590</ele>
        <time>2019-06-12T11:30:26Z</time>
      </trkpt>
      <trkpt lat="44.31665" lon="5.8259">
        <ele>589</ele>
        <time>2019-06-12T11:30:27Z</time>
      </trkpt>
      <trkpt lat="44.31669" lon="5.82594">
        <ele>588</ele>
        <time>2019-06-12T11:30:28Z</time>
      </trkpt>
      <trkpt lat="44.31673" lon="5.82598">
        <ele>587</ele>
        <time>2019-06-12T11:30:29Z</time>
      </trkpt>
      <trkpt lat="44.31677" lon="5.82603">
        <ele>586</ele>
        <time>2019-06-12T11:30:30Z</time>
      </trkpt>
      <trkpt lat="44.31682" lon="5.82607">
        <ele>585</ele>
        <time>2019-06-12T11:30:31Z</time>
      </trkpt>
      <trkpt lat="44.31686" lon="5.82611">
        <ele>584</ele>
        <time>2019-06-12T11:30:32Z</time>
      </trkpt>
      <trkpt lat="44.3169" lon="5.82615">
        <ele>583</ele>
        <time>2019-06-12T11:30:33Z</time>
      </trkpt>
      <trkpt lat="44.31694" lon="5.82619">
        <ele>582</ele>
        <time>2019-06-12T11:30:34Z</time>
      </trkpt>
      <trkpt lat="44.31697" lon="5.82623">
        <ele>581</ele>
        <time>2019-06-12T11:30:35Z</time>
      </trkpt>
      <trkpt lat="44.31701" lon="5.82627">
        <ele>580</ele>
        <time>2019-06-12T11:30:36Z</time>
      </trkpt>
      <trkpt lat="44.31705" lon="5.82631">
        <ele>579</ele>
        <time>2019-06-12T11:30:37Z</time>
      </trkpt>
      <trkpt lat="44.31709" lon="5.82635">
        <ele>579</ele>
        <time>2019-06-12T11:30:38Z</time>
      </trkpt>
      <trkpt lat="44.31712" lon="5.82639">
        <ele>578</ele>
        <time>2019-06-12T11:30:39Z</time>
      </trkpt>
      <trkpt lat="44.31716" lon="5.82644">
        <ele>577</ele>
        <time>2019-06-12T11:30:40Z</time>
      </trkpt>
      <trkpt lat="44.3172" lon="5.82648">
        <ele>576</ele>
        <time>2019-06-12T11:30:41Z</time>
      </trkpt>
      <trkpt lat="44.31724" lon="5.82651">
        <ele>576</ele>
        <time>2019-06-12T11:30:42Z</time>
      </trkpt>
      <trkpt lat="44.31727" lon="5.82655">
        <ele>576</ele>
        <time>2019-06-12T11:30:43Z</time>
      </trkpt>
      <trkpt lat="44.31729" lon="5.82657">
        <ele>576</ele>
        <time>2019-06-12T11:30:44Z</time>
      </trkpt>
      <trkpt lat="44.31731" lon="5.82659">
        <ele>576</ele>
        <time>2019-06-12T11:30:45Z</time>
      </trkpt>
      <trkpt lat="44.31732" lon="5.82661">
        <ele>576</ele>
        <time>2019-06-12T11:30:47Z</time>
      </trkpt>
      <trkpt lat="44.31733" lon="5.82661">
        <ele>570</ele>
        <time>2019-06-12T11:30:59Z</time>
      </trkpt>
      <trkpt lat="44.31734" lon="5.8266">
        <ele>570</ele>
        <time>2019-06-12T11:31:05Z</time>
      </trkpt>
      <trkpt lat="44.31734" lon="5.82661">
        <ele>570</ele>
        <time>2019-06-12T11:31:08Z</time>
      </trkpt>
      <trkpt lat="44.31735" lon="5.82663">
        <ele>570</ele>
        <time>2019-06-12T11:31:11Z</time>
      </trkpt>
      <trkpt lat="44.31735" lon="5.82664">
        <ele>570</ele>
        <time>2019-06-12T11:31:14Z</time>
      </trkpt>
      <trkpt lat="44.31734" lon="5.82667">
        <ele>572</ele>
        <time>2019-06-12T11:31:16Z</time>
      </trkpt>
      <trkpt lat="44.31733" lon="5.82665">
        <ele>578</ele>
        <time>2019-06-12T11:31:35Z</time>
      </trkpt>
      <trkpt lat="44.31734" lon="5.82665">
        <ele>578</ele>
        <time>2019-06-12T11:31:41Z</time>
      </trkpt>
      <trkpt lat="44.31734" lon="5.82664">
        <ele>578</ele>
        <time>2019-06-12T11:31:45Z</time>
      </trkpt>
      <trkpt lat="44.31736" lon="5.82664">
        <ele>578</ele>
        <time>2019-06-12T11:31:50Z</time>
      </trkpt>
      <trkpt lat="44.31737" lon="5.82664">
        <ele>579</ele>
        <time>2019-06-12T11:31:53Z</time>
      </trkpt>
      <trkpt lat="44.31739" lon="5.82664">
        <ele>579</ele>
        <time>2019-06-12T11:31:56Z</time>
      </trkpt>
      <trkpt lat="44.3174" lon="5.82664">
        <ele>579</ele>
        <time>2019-06-12T11:32:01Z</time>
      </trkpt>
      <trkpt lat="44.31741" lon="5.82666">
        <ele>576</ele>
        <time>2019-06-12T11:32:19Z</time>
      </trkpt>
      <trkpt lat="44.31742" lon="5.82668">
        <ele>576</ele>
        <time>2019-06-12T11:32:20Z</time>
      </trkpt>
      <trkpt lat="44.31743" lon="5.8267">
        <ele>576</ele>
        <time>2019-06-12T11:32:22Z</time>
      </trkpt>
      <trkpt lat="44.31745" lon="5.82673">
        <ele>576</ele>
        <time>2019-06-12T11:32:24Z</time>
      </trkpt>
      <trkpt lat="44.31747" lon="5.82674">
        <ele>576</ele>
        <time>2019-06-12T11:32:25Z</time>
      </trkpt>
      <trkpt lat="44.31748" lon="5.82676">
        <ele>576</ele>
        <time>2019-06-12T11:32:26Z</time>
      </trkpt>
      <trkpt lat="44.31749" lon="5.82678">
        <ele>576</ele>
        <time>2019-06-12T11:32:27Z</time>
      </trkpt>
      <trkpt lat="44.31751" lon="5.8268">
        <ele>576</ele>
        <time>2019-06-12T11:32:28Z</time>
      </trkpt>
      <trkpt lat="44.31754" lon="5.82682">
        <ele>576</ele>
        <time>2019-06-12T11:32:29Z</time>
      </trkpt>
      <trkpt lat="44.31756" lon="5.82685">
        <ele>576</ele>
        <time>2019-06-12T11:32:30Z</time>
      </trkpt>
      <trkpt lat="44.31758" lon="5.82687">
        <ele>576</ele>
        <time>2019-06-12T11:32:31Z</time>
      </trkpt>
      <trkpt lat="44.3176" lon="5.82689">
        <ele>576</ele>
        <time>2019-06-12T11:32:32Z</time>
      </trkpt>
      <trkpt lat="44.31763" lon="5.82691">
        <ele>576</ele>
        <time>2019-06-12T11:32:33Z</time>
      </trkpt>
      <trkpt lat="44.31766" lon="5.82694">
        <ele>577</ele>
        <time>2019-06-12T11:32:34Z</time>
      </trkpt>
      <trkpt lat="44.31769" lon="5.82697">
        <ele>578</ele>
        <time>2019-06-12T11:32:35Z</time>
      </trkpt>
      <trkpt lat="44.31772" lon="5.82699">
        <ele>578</ele>
        <time>2019-06-12T11:32:36Z</time>
      </trkpt>
      <trkpt lat="44.31774" lon="5.82701">
        <ele>578</ele>
        <time>2019-06-12T11:32:37Z</time>
      </trkpt>
      <trkpt lat="44.31777" lon="5.82704">
        <ele>578</ele>
        <time>2019-06-12T11:32:38Z</time>
      </trkpt>
      <trkpt lat="44.31779" lon="5.82707">
        <ele>578</ele>
        <time>2019-06-12T11:32:39Z</time>
      </trkpt>
      <trkpt lat="44.31782" lon="5.8271">
        <ele>578</ele>
        <time>2019-06-12T11:32:40Z</time>
      </trkpt>
      <trkpt lat="44.31785" lon="5.82713">
        <ele>578</ele>
        <time>2019-06-12T11:32:41Z</time>
      </trkpt>
      <trkpt lat="44.31788" lon="5.82716">
        <ele>578</ele>
        <time>2019-06-12T11:32:42Z</time>
      </trkpt>
      <trkpt lat="44.31791" lon="5.82719">
        <ele>578</ele>
        <time>2019-06-12T11:32:43Z</time>
      </trkpt>
      <trkpt lat="44.31794" lon="5.82721">
        <ele>578</ele>
        <time>2019-06-12T11:32:44Z</time>
      </trkpt>
      <trkpt lat="44.31797" lon="5.82724">
        <ele>578</ele>
        <time>2019-06-12T11:32:45Z</time>
      </trkpt>
      <trkpt lat="44.31799" lon="5.82727">
        <ele>578</ele>
        <time>2019-06-12T11:32:46Z</time>
      </trkpt>
      <trkpt lat="44.31802" lon="5.8273">
        <ele>578</ele>
        <time>2019-06-12T11:32:47Z</time>
      </trkpt>
      <trkpt lat="44.31806" lon="5.82734">
        <ele>579</ele>
        <time>2019-06-12T11:32:48Z</time>
      </trkpt>
      <trkpt lat="44.31809" lon="5.82737">
        <ele>580</ele>
        <time>2019-06-12T11:32:49Z</time>
      </trkpt>
      <trkpt lat="44.31812" lon="5.8274">
        <ele>581</ele>
        <time>2019-06-12T11:32:50Z</time>
      </trkpt>
      <trkpt lat="44.31815" lon="5.82743">
        <ele>582</ele>
        <time>2019-06-12T11:32:51Z</time>
      </trkpt>
      <trkpt lat="44.31818" lon="5.82746">
        <ele>583</ele>
        <time>2019-06-12T11:32:52Z</time>
      </trkpt>
      <trkpt lat="44.31821" lon="5.82749">
        <ele>584</ele>
        <time>2019-06-12T11:32:53Z</time>
      </trkpt>
      <trkpt lat="44.31825" lon="5.82752">
        <ele>585</ele>
        <time>2019-06-12T11:32:54Z</time>
      </trkpt>
      <trkpt lat="44.31828" lon="5.82754">
        <ele>586</ele>
        <time>2019-06-12T11:32:55Z</time>
      </trkpt>
      <trkpt lat="44.31832" lon="5.82757">
        <ele>587</ele>
        <time>2019-06-12T11:32:56Z</time>
      </trkpt>
      <trkpt lat="44.31835" lon="5.82759">
        <ele>588</ele>
        <time>2019-06-12T11:32:57Z</time>
      </trkpt>
      <trkpt lat="44.31839" lon="5.82761">
        <ele>589</ele>
        <time>2019-06-12T11:32:58Z</time>
      </trkpt>
      <trkpt lat="44.31843" lon="5.82763">
        <ele>590</ele>
        <time>2019-06-12T11:32:59Z</time>
      </trkpt>
      <trkpt lat="44.31847" lon="5.82765">
        <ele>591</ele>
        <time>2019-06-12T11:33:00Z</time>
      </trkpt>
      <trkpt lat="44.3185" lon="5.82767">
        <ele>592</ele>
        <time>2019-06-12T11:33:01Z</time>
      </trkpt>
      <trkpt lat="44.31854" lon="5.82768">
        <ele>593</ele>
        <time>2019-06-12T11:33:02Z</time>
      </trkpt>
      <trkpt lat="44.31859" lon="5.8277">
        <ele>594</ele>
        <time>2019-06-12T11:33:03Z</time>
      </trkpt>
      <trkpt lat="44.31863" lon="5.82771">
        <ele>595</ele>
        <time>2019-06-12T11:33:04Z</time>
      </trkpt>
      <trkpt lat="44.31867" lon="5.82772">
        <ele>596</ele>
        <time>2019-06-12T11:33:05Z</time>
      </trkpt>
      <trkpt lat="44.31871" lon="5.82773">
        <ele>596</ele>
        <time>2019-06-12T11:33:06Z</time>
      </trkpt>
      <trkpt lat="44.31875" lon="5.82774">
        <ele>596</ele>
        <time>2019-06-12T11:33:07Z</time>
      </trkpt>
      <trkpt lat="44.31879" lon="5.82774">
        <ele>596</ele>
        <time>2019-06-12T11:33:08Z</time>
      </trkpt>
      <trkpt lat="44.31884" lon="5.82775">
        <ele>596</ele>
        <time>2019-06-12T11:33:09Z</time>
      </trkpt>
      <trkpt lat="44.31888" lon="5.82775">
        <ele>596</ele>
        <time>2019-06-12T11:33:10Z</time>
      </trkpt>
      <trkpt lat="44.31892" lon="5.82775">
        <ele>596</ele>
        <time>2019-06-12T11:33:11Z</time>
      </trkpt>
      <trkpt lat="44.31897" lon="5.82776">
        <ele>596</ele>
        <time>2019-06-12T11:33:12Z</time>
      </trkpt>
      <trkpt lat="44.31901" lon="5.82776">
        <ele>596</ele>
        <time>2019-06-12T11:33:13Z</time>
      </trkpt>
      <trkpt lat="44.31905" lon="5.82776">
        <ele>596</ele>
        <time>2019-06-12T11:33:14Z</time>
      </trkpt>
      <trkpt lat="44.3191" lon="5.82777">
        <ele>596</ele>
        <time>2019-06-12T11:33:15Z</time>
      </trkpt>
      <trkpt lat="44.31914" lon="5.82777">
        <ele>596</ele>
        <time>2019-06-12T11:33:16Z</time>
      </trkpt>
      <trkpt lat="44.31919" lon="5.82777">
        <ele>596</ele>
        <time>2019-06-12T11:33:17Z</time>
      </trkpt>
      <trkpt lat="44.31923" lon="5.82778">
        <ele>596</ele>
        <time>2019-06-12T11:33:18Z</time>
      </trkpt>
      <trkpt lat="44.31928" lon="5.82778">
        <ele>596</ele>
        <time>2019-06-12T11:33:19Z</time>
      </trkpt>
      <trkpt lat="44.31932" lon="5.82779">
        <ele>596</ele>
        <time>2019-06-12T11:33:20Z</time>
      </trkpt>
      <trkpt lat="44.31936" lon="5.8278">
        <ele>596</ele>
        <time>2019-06-12T11:33:21Z</time>
      </trkpt>
      <trkpt lat="44.3194" lon="5.82781">
        <ele>596</ele>
        <time>2019-06-12T11:33:22Z</time>
      </trkpt>
      <trkpt lat="44.31945" lon="5.82782">
        <ele>596</ele>
        <time>2019-06-12T11:33:23Z</time>
      </trkpt>
      <trkpt lat="44.31949" lon="5.82784">
        <ele>596</ele>
        <time>2019-06-12T11:33:24Z</time>
      </trkpt>
      <trkpt lat="44.31953" lon="5.82785">
        <ele>596</ele>
        <time>2019-06-12T11:33:25Z</time>
      </trkpt>
      <trkpt lat="44.31957" lon="5.82787">
        <ele>596</ele>
        <time>2019-06-12T11:33:26Z</time>
      </trkpt>
      <trkpt lat="44.31961" lon="5.82789">
        <ele>596</ele>
        <time>2019-06-12T11:33:27Z</time>
      </trkpt>
      <trkpt lat="44.31966" lon="5.8279">
        <ele>596</ele>
        <time>2019-06-12T11:33:28Z</time>
      </trkpt>
      <trkpt lat="44.3197" lon="5.82792">
        <ele>596</ele>
        <time>2019-06-12T11:33:29Z</time>
      </trkpt>
      <trkpt lat="44.31974" lon="5.82794">
        <ele>596</ele>
        <time>2019-06-12T11:33:30Z</time>
      </trkpt>
      <trkpt lat="44.31979" lon="5.82795">
        <ele>596</ele>
        <time>2019-06-12T11:33:31Z</time>
      </trkpt>
      <trkpt lat="44.31983" lon="5.82797">
        <ele>596</ele>
        <time>2019-06-12T11:33:32Z</time>
      </trkpt>
      <trkpt lat="44.31987" lon="5.82798">
        <ele>595</ele>
        <time>2019-06-12T11:33:33Z</time>
      </trkpt>
      <trkpt lat="44.31991" lon="5.828">
        <ele>595</ele>
        <time>2019-06-12T11:33:34Z</time>
      </trkpt>
      <trkpt lat="44.31995" lon="5.82802">
        <ele>595</ele>
        <time>2019-06-12T11:33:35Z</time>
      </trkpt>
      <trkpt lat="44.32" lon="5.82803">
        <ele>595</ele>
        <time>2019-06-12T11:33:36Z</time>
      </trkpt>
      <trkpt lat="44.32004" lon="5.82805">
        <ele>594</ele>
        <time>2019-06-12T11:33:37Z</time>
      </trkpt>
      <trkpt lat="44.32008" lon="5.82807">
        <ele>594</ele>
        <time>2019-06-12T11:33:38Z</time>
      </trkpt>
      <trkpt lat="44.32012" lon="5.82809">
        <ele>594</ele>
        <time>2019-06-12T11:33:39Z</time>
      </trkpt>
      <trkpt lat="44.32016" lon="5.82811">
        <ele>594</ele>
        <time>2019-06-12T11:33:40Z</time>
      </trkpt>
      <trkpt lat="44.32019" lon="5.82814">
        <ele>594</ele>
        <time>2019-06-12T11:33:41Z</time>
      </trkpt>
      <trkpt lat="44.32023" lon="5.82816">
        <ele>594</ele>
        <time>2019-06-12T11:33:42Z</time>
      </trkpt>
      <trkpt lat="44.32027" lon="5.82818">
        <ele>594</ele>
        <time>2019-06-12T11:33:43Z</time>
      </trkpt>
      <trkpt lat="44.32031" lon="5.82821">
        <ele>594</ele>
        <time>2019-06-12T11:33:44Z</time>
      </trkpt>
      <trkpt lat="44.32035" lon="5.82823">
        <ele>594</ele>
        <time>2019-06-12T11:33:45Z</time>
      </trkpt>
      <trkpt lat="44.32038" lon="5.82826">
        <ele>594</ele>
        <time>2019-06-12T11:33:46Z</time>
      </trkpt>
      <trkpt lat="44.32042" lon="5.82828">
        <ele>594</ele>
        <time>2019-06-12T11:33:47Z</time>
      </trkpt>
      <trkpt lat="44.32046" lon="5.82831">
        <ele>594</ele>
        <time>2019-06-12T11:33:48Z</time>
      </trkpt>
      <trkpt lat="44.32049" lon="5.82833">
        <ele>594</ele>
        <time>2019-06-12T11:33:49Z</time>
      </trkpt>
      <trkpt lat="44.32053" lon="5.82836">
        <ele>594</ele>
        <time>2019-06-12T11:33:50Z</time>
      </trkpt>
      <trkpt lat="44.32056" lon="5.82838">
        <ele>594</ele>
        <time>2019-06-12T11:33:51Z</time>
      </trkpt>
      <trkpt lat="44.32059" lon="5.82841">
        <ele>594</ele>
        <time>2019-06-12T11:33:52Z</time>
      </trkpt>
      <trkpt lat="44.32063" lon="5.82844">
        <ele>594</ele>
        <time>2019-06-12T11:33:53Z</time>
      </trkpt>
      <trkpt lat="44.32067" lon="5.82846">
        <ele>594</ele>
        <time>2019-06-12T11:33:54Z</time>
      </trkpt>
      <trkpt lat="44.32071" lon="5.82848">
        <ele>594</ele>
        <time>2019-06-12T11:33:55Z</time>
      </trkpt>
      <trkpt lat="44.32074" lon="5.8285">
        <ele>594</ele>
        <time>2019-06-12T11:33:56Z</time>
      </trkpt>
      <trkpt lat="44.32078" lon="5.82852">
        <ele>594</ele>
        <time>2019-06-12T11:33:57Z</time>
      </trkpt>
      <trkpt lat="44.32082" lon="5.82854">
        <ele>594</ele>
        <time>2019-06-12T11:33:58Z</time>
      </trkpt>
      <trkpt lat="44.32085" lon="5.82856">
        <ele>594</ele>
        <time>2019-06-12T11:33:59Z</time>
      </trkpt>
      <trkpt lat="44.32089" lon="5.82857">
        <ele>594</ele>
        <time>2019-06-12T11:34:00Z</time>
      </trkpt>
      <trkpt lat="44.32093" lon="5.82858">
        <ele>594</ele>
        <time>2019-06-12T11:34:01Z</time>
      </trkpt>
      <trkpt lat="44.32096" lon="5.82859">
        <ele>594</ele>
        <time>2019-06-12T11:34:02Z</time>
      </trkpt>
      <trkpt lat="44.321" lon="5.8286">
        <ele>594</ele>
        <time>2019-06-12T11:34:03Z</time>
      </trkpt>
      <trkpt lat="44.32104" lon="5.82861">
        <ele>594</ele>
        <time>2019-06-12T11:34:04Z</time>
      </trkpt>
      <trkpt lat="44.32108" lon="5.82862">
        <ele>594</ele>
        <time>2019-06-12T11:34:05Z</time>
      </trkpt>
      <trkpt lat="44.32112" lon="5.82863">
        <ele>594</ele>
        <time>2019-06-12T11:34:06Z</time>
      </trkpt>
      <trkpt lat="44.32116" lon="5.82864">
        <ele>594</ele>
        <time>2019-06-12T11:34:07Z</time>
      </trkpt>
      <trkpt lat="44.3212" lon="5.82865">
        <ele>594</ele>
        <time>2019-06-12T11:34:08Z</time>
      </trkpt>
      <trkpt lat="44.32124" lon="5.82866">
        <ele>594</ele>
        <time>2019-06-12T11:34:09Z</time>
      </trkpt>
      <trkpt lat="44.32129" lon="5.82867">
        <ele>594</ele>
        <time>2019-06-12T11:34:10Z</time>
      </trkpt>
      <trkpt lat="44.32133" lon="5.82868">
        <ele>594</ele>
        <time>2019-06-12T11:34:11Z</time>
      </trkpt>
      <trkpt lat="44.32138" lon="5.82869">
        <ele>594</ele>
        <time>2019-06-12T11:34:12Z</time>
      </trkpt>
      <trkpt lat="44.32142" lon="5.82871">
        <ele>595</ele>
        <time>2019-06-12T11:34:13Z</time>
      </trkpt>
      <trkpt lat="44.32147" lon="5.82873">
        <ele>595</ele>
        <time>2019-06-12T11:34:14Z</time>
      </trkpt>
      <trkpt lat="44.32151" lon="5.82874">
        <ele>596</ele>
        <time>2019-06-12T11:34:15Z</time>
      </trkpt>
      <trkpt lat="44.32156" lon="5.82876">
        <ele>596</ele>
        <time>2019-06-12T11:34:16Z</time>
      </trkpt>
      <trkpt lat="44.3216" lon="5.82878">
        <ele>596</ele>
        <time>2019-06-12T11:34:17Z</time>
      </trkpt>
      <trkpt lat="44.32164" lon="5.82881">
        <ele>596</ele>
        <time>2019-06-12T11:34:18Z</time>
      </trkpt>
      <trkpt lat="44.32169" lon="5.82883">
        <ele>597</ele>
        <time>2019-06-12T11:34:19Z</time>
      </trkpt>
      <trkpt lat="44.32173" lon="5.82885">
        <ele>597</ele>
        <time>2019-06-12T11:34:20Z</time>
      </trkpt>
      <trkpt lat="44.32178" lon="5.82887">
        <ele>598</ele>
        <time>2019-06-12T11:34:21Z</time>
      </trkpt>
      <trkpt lat="44.32182" lon="5.82889">
        <ele>599</ele>
        <time>2019-06-12T11:34:22Z</time>
      </trkpt>
      <trkpt lat="44.32187" lon="5.82892">
        <ele>600</ele>
        <time>2019-06-12T11:34:23Z</time>
      </trkpt>
      <trkpt lat="44.32191" lon="5.82894">
        <ele>601</ele>
        <time>2019-06-12T11:34:24Z</time>
      </trkpt>
      <trkpt lat="44.32195" lon="5.82896">
        <ele>602</ele>
        <time>2019-06-12T11:34:25Z</time>
      </trkpt>
      <trkpt lat="44.322" lon="5.82898">
        <ele>603</ele>
        <time>2019-06-12T11:34:26Z</time>
      </trkpt>
      <trkpt lat="44.32204" lon="5.829">
        <ele>604</ele>
        <time>2019-06-12T11:34:27Z</time>
      </trkpt>
      <trkpt lat="44.32208" lon="5.82903">
        <ele>605</ele>
        <time>2019-06-12T11:34:28Z</time>
      </trkpt>
      <trkpt lat="44.32213" lon="5.82905">
        <ele>606</ele>
        <time>2019-06-12T11:34:29Z</time>
      </trkpt>
      <trkpt lat="44.32217" lon="5.82907">
        <ele>606</ele>
        <time>2019-06-12T11:34:30Z</time>
      </trkpt>
      <trkpt lat="44.32221" lon="5.82909">
        <ele>606</ele>
        <time>2019-06-12T11:34:31Z</time>
      </trkpt>
      <trkpt lat="44.32226" lon="5.82912">
        <ele>606</ele>
        <time>2019-06-12T11:34:32Z</time>
      </trkpt>
      <trkpt lat="44.3223" lon="5.82914">
        <ele>606</ele>
        <time>2019-06-12T11:34:33Z</time>
      </trkpt>
      <trkpt lat="44.32235" lon="5.82916">
        <ele>606</ele>
        <time>2019-06-12T11:34:34Z</time>
      </trkpt>
      <trkpt lat="44.32239" lon="5.82919">
        <ele>606</ele>
        <time>2019-06-12T11:34:35Z</time>
      </trkpt>
      <trkpt lat="44.32243" lon="5.82921">
        <ele>606</ele>
        <time>2019-06-12T11:34:36Z</time>
      </trkpt>
      <trkpt lat="44.32248" lon="5.82923">
        <ele>606</ele>
        <time>2019-06-12T11:34:37Z</time>
      </trkpt>
      <trkpt lat="44.32252" lon="5.82925">
        <ele>606</ele>
        <time>2019-06-12T11:34:38Z</time>
      </trkpt>
      <trkpt lat="44.32256" lon="5.82927">
        <ele>605</ele>
        <time>2019-06-12T11:34:39Z</time>
      </trkpt>
      <trkpt lat="44.3226" lon="5.82929">
        <ele>604</ele>
        <time>2019-06-12T11:34:40Z</time>
      </trkpt>
      <trkpt lat="44.32264" lon="5.82931">
        <ele>603</ele>
        <time>2019-06-12T11:34:41Z</time>
      </trkpt>
      <trkpt lat="44.32269" lon="5.82933">
        <ele>602</ele>
        <time>2019-06-12T11:34:42Z</time>
      </trkpt>
      <trkpt lat="44.32273" lon="5.82935">
        <ele>601</ele>
        <time>2019-06-12T11:34:43Z</time>
      </trkpt>
      <trkpt lat="44.32277" lon="5.82938">
        <ele>600</ele>
        <time>2019-06-12T11:34:44Z</time>
      </trkpt>
      <trkpt lat="44.32282" lon="5.8294">
        <ele>599</ele>
        <time>2019-06-12T11:34:45Z</time>
      </trkpt>
      <trkpt lat="44.32286" lon="5.82942">
        <ele>598</ele>
        <time>2019-06-12T11:34:46Z</time>
      </trkpt>
      <trkpt lat="44.3229" lon="5.82944">
        <ele>598</ele>
        <time>2019-06-12T11:34:47Z</time>
      </trkpt>
      <trkpt lat="44.32294" lon="5.82946">
        <ele>598</ele>
        <time>2019-06-12T11:34:48Z</time>
      </trkpt>
      <trkpt lat="44.32298" lon="5.82948">
        <ele>598</ele>
        <time>2019-06-12T11:34:49Z</time>
      </trkpt>
      <trkpt lat="44.32302" lon="5.8295">
        <ele>598</ele>
        <time>2019-06-12T11:34:50Z</time>
      </trkpt>
      <trkpt lat="44.32307" lon="5.82953">
        <ele>598</ele>
        <time>2019-06-12T11:34:51Z</time>
      </trkpt>
      <trkpt lat="44.32311" lon="5.82955">
        <ele>598</ele>
        <time>2019-06-12T11:34:52Z</time>
      </trkpt>
      <trkpt lat="44.32315" lon="5.82957">
        <ele>598</ele>
        <time>2019-06-12T11:34:53Z</time>
      </trkpt>
      <trkpt lat="44.3232" lon="5.82959">
        <ele>598</ele>
        <time>2019-06-12T11:34:54Z</time>
      </trkpt>
      <trkpt lat="44.32324" lon="5.82962">
        <ele>597</ele>
        <time>2019-06-12T11:34:55Z</time>
      </trkpt>
      <trkpt lat="44.32328" lon="5.82964">
        <ele>597</ele>
        <time>2019-06-12T11:34:56Z</time>
      </trkpt>
      <trkpt lat="44.32332" lon="5.82967">
        <ele>596</ele>
        <time>2019-06-12T11:34:57Z</time>
      </trkpt>
      <trkpt lat="44.32336" lon="5.8297">
        <ele>595</ele>
        <time>2019-06-12T11:34:58Z</time>
      </trkpt>
      <trkpt lat="44.32341" lon="5.82973">
        <ele>594</ele>
        <time>2019-06-12T11:34:59Z</time>
      </trkpt>
      <trkpt lat="44.32344" lon="5.82976">
        <ele>593</ele>
        <time>2019-06-12T11:35:00Z</time>
      </trkpt>
      <trkpt lat="44.32348" lon="5.8298">
        <ele>593</ele>
        <time>2019-06-12T11:35:01Z</time>
      </trkpt>
      <trkpt lat="44.32352" lon="5.82984">
        <ele>593</ele>
        <time>2019-06-12T11:35:02Z</time>
      </trkpt>
      <trkpt lat="44.32355" lon="5.82989">
        <ele>593</ele>
        <time>2019-06-12T11:35:03Z</time>
      </trkpt>
      <trkpt lat="44.32358" lon="5.82994">
        <ele>593</ele>
        <time>2019-06-12T11:35:04Z</time>
      </trkpt>
      <trkpt lat="44.32362" lon="5.82999">
        <ele>593</ele>
        <time>2019-06-12T11:35:05Z</time>
      </trkpt>
      <trkpt lat="44.32364" lon="5.83004">
        <ele>593</ele>
        <time>2019-06-12T11:35:06Z</time>
      </trkpt>
      <trkpt lat="44.32367" lon="5.8301">
        <ele>592</ele>
        <time>2019-06-12T11:35:07Z</time>
      </trkpt>
      <trkpt lat="44.32369" lon="5.83016">
        <ele>592</ele>
        <time>2019-06-12T11:35:08Z</time>
      </trkpt>
      <trkpt lat="44.32371" lon="5.83022">
        <ele>592</ele>
        <time>2019-06-12T11:35:09Z</time>
      </trkpt>
      <trkpt lat="44.32373" lon="5.83029">
        <ele>591</ele>
        <time>2019-06-12T11:35:10Z</time>
      </trkpt>
      <trkpt lat="44.32375" lon="5.83036">
        <ele>591</ele>
        <time>2019-06-12T11:35:11Z</time>
      </trkpt>
      <trkpt lat="44.32377" lon="5.83042">
        <ele>591</ele>
        <time>2019-06-12T11:35:12Z</time>
      </trkpt>
      <trkpt lat="44.32379" lon="5.83049">
        <ele>590</ele>
        <time>2019-06-12T11:35:13Z</time>
      </trkpt>
      <trkpt lat="44.32382" lon="5.83056">
        <ele>590</ele>
        <time>2019-06-12T11:35:14Z</time>
      </trkpt>
      <trkpt lat="44.32385" lon="5.83063">
        <ele>589</ele>
        <time>2019-06-12T11:35:15Z</time>
      </trkpt>
      <trkpt lat="44.32388" lon="5.83071">
        <ele>589</ele>
        <time>2019-06-12T11:35:16Z</time>
      </trkpt>
      <trkpt lat="44.32391" lon="5.83078">
        <ele>589</ele>
        <time>2019-06-12T11:35:17Z</time>
      </trkpt>
      <trkpt lat="44.32395" lon="5.83085">
        <ele>588</ele>
        <time>2019-06-12T11:35:18Z</time>
      </trkpt>
      <trkpt lat="44.32399" lon="5.83092">
        <ele>588</ele>
        <time>2019-06-12T11:35:19Z</time>
      </trkpt>
      <trkpt lat="44.32403" lon="5.83099">
        <ele>588</ele>
        <time>2019-06-12T11:35:20Z</time>
      </trkpt>
      <trkpt lat="44.32407" lon="5.83105">
        <ele>587</ele>
        <time>2019-06-12T11:35:21Z</time>
      </trkpt>
      <trkpt lat="44.32412" lon="5.83111">
        <ele>587</ele>
        <time>2019-06-12T11:35:22Z</time>
      </trkpt>
      <trkpt lat="44.32416" lon="5.83117">
        <ele>586</ele>
        <time>2019-06-12T11:35:23Z</time>
      </trkpt>
      <trkpt lat="44.32421" lon="5.83123">
        <ele>586</ele>
        <time>2019-06-12T11:35:24Z</time>
      </trkpt>
      <trkpt lat="44.32426" lon="5.83128">
        <ele>586</ele>
        <time>2019-06-12T11:35:25Z</time>
      </trkpt>
      <trkpt lat="44.32431" lon="5.83133">
        <ele>585</ele>
        <time>2019-06-12T11:35:26Z</time>
      </trkpt>
      <trkpt lat="44.32436" lon="5.83137">
        <ele>585</ele>
        <time>2019-06-12T11:35:27Z</time>
      </trkpt>
      <trkpt lat="44.32441" lon="5.83142">
        <ele>585</ele>
        <time>2019-06-12T11:35:28Z</time>
      </trkpt>
      <trkpt lat="44.32446" lon="5.83146">
        <ele>585</ele>
        <time>2019-06-12T11:35:29Z</time>
      </trkpt>
      <trkpt lat="44.3245" lon="5.8315">
        <ele>585</ele>
        <time>2019-06-12T11:35:30Z</time>
      </trkpt>
      <trkpt lat="44.32455" lon="5.83155">
        <ele>585</ele>
        <time>2019-06-12T11:35:31Z</time>
      </trkpt>
      <trkpt lat="44.3246" lon="5.83159">
        <ele>584</ele>
        <time>2019-06-12T11:35:32Z</time>
      </trkpt>
      <trkpt lat="44.32465" lon="5.83163">
        <ele>584</ele>
        <time>2019-06-12T11:35:33Z</time>
      </trkpt>
      <trkpt lat="44.32469" lon="5.83167">
        <ele>584</ele>
        <time>2019-06-12T11:35:34Z</time>
      </trkpt>
      <trkpt lat="44.32474" lon="5.83171">
        <ele>584</ele>
        <time>2019-06-12T11:35:35Z</time>
      </trkpt>
      <trkpt lat="44.32479" lon="5.83175">
        <ele>584</ele>
        <time>2019-06-12T11:35:36Z</time>
      </trkpt>
      <trkpt lat="44.32484" lon="5.83179">
        <ele>584</ele>
        <time>2019-06-12T11:35:37Z</time>
      </trkpt>
      <trkpt lat="44.32489" lon="5.83182">
        <ele>584</ele>
        <time>2019-06-12T11:35:38Z</time>
      </trkpt>
      <trkpt lat="44.32495" lon="5.83186">
        <ele>583</ele>
        <time>2019-06-12T11:35:39Z</time>
      </trkpt>
      <trkpt lat="44.32502" lon="5.83189">
        <ele>583</ele>
        <time>2019-06-12T11:35:40Z</time>
      </trkpt>
      <trkpt lat="44.32507" lon="5.83191">
        <ele>583</ele>
        <time>2019-06-12T11:35:41Z</time>
      </trkpt>
      <trkpt lat="44.32513" lon="5.83194">
        <ele>583</ele>
        <time>2019-06-12T11:35:42Z</time>
      </trkpt>
      <trkpt lat="44.32519" lon="5.83197">
        <ele>583</ele>
        <time>2019-06-12T11:35:43Z</time>
      </trkpt>
      <trkpt lat="44.32525" lon="5.83199">
        <ele>583</ele>
        <time>2019-06-12T11:35:44Z</time>
      </trkpt>
      <trkpt lat="44.32531" lon="5.83202">
        <ele>583</ele>
        <time>2019-06-12T11:35:45Z</time>
      </trkpt>
      <trkpt lat="44.32537" lon="5.83204">
        <ele>583</ele>
        <time>2019-06-12T11:35:46Z</time>
      </trkpt>
      <trkpt lat="44.32542" lon="5.83207">
        <ele>583</ele>
        <time>2019-06-12T11:35:47Z</time>
      </trkpt>
      <trkpt lat="44.32548" lon="5.83209">
        <ele>583</ele>
        <time>2019-06-12T11:35:48Z</time>
      </trkpt>
      <trkpt lat="44.32554" lon="5.83211">
        <ele>583</ele>
        <time>2019-06-12T11:35:49Z</time>
      </trkpt>
      <trkpt lat="44.32559" lon="5.83214">
        <ele>583</ele>
        <time>2019-06-12T11:35:50Z</time>
      </trkpt>
      <trkpt lat="44.32565" lon="5.83216">
        <ele>583</ele>
        <time>2019-06-12T11:35:51Z</time>
      </trkpt>
      <trkpt lat="44.3257" lon="5.83218">
        <ele>584</ele>
        <time>2019-06-12T11:35:52Z</time>
      </trkpt>
      <trkpt lat="44.32576" lon="5.8322">
        <ele>584</ele>
        <time>2019-06-12T11:35:53Z</time>
      </trkpt>
      <trkpt lat="44.32581" lon="5.83222">
        <ele>585</ele>
        <time>2019-06-12T11:35:54Z</time>
      </trkpt>
      <trkpt lat="44.32586" lon="5.83225">
        <ele>585</ele>
        <time>2019-06-12T11:35:55Z</time>
      </trkpt>
      <trkpt lat="44.32591" lon="5.83228">
        <ele>585</ele>
        <time>2019-06-12T11:35:56Z</time>
      </trkpt>
      <trkpt lat="44.32597" lon="5.8323">
        <ele>585</ele>
        <time>2019-06-12T11:35:57Z</time>
      </trkpt>
      <trkpt lat="44.32602" lon="5.83234">
        <ele>585</ele>
        <time>2019-06-12T11:35:58Z</time>
      </trkpt>
      <trkpt lat="44.32607" lon="5.83237">
        <ele>585</ele>
        <time>2019-06-12T11:35:59Z</time>
      </trkpt>
      <trkpt lat="44.32612" lon="5.83241">
        <ele>585</ele>
        <time>2019-06-12T11:36:00Z</time>
      </trkpt>
      <trkpt lat="44.32617" lon="5.83244">
        <ele>585</ele>
        <time>2019-06-12T11:36:01Z</time>
      </trkpt>
      <trkpt lat="44.32622" lon="5.83248">
        <ele>585</ele>
        <time>2019-06-12T11:36:02Z</time>
      </trkpt>
      <trkpt lat="44.32626" lon="5.83251">
        <ele>585</ele>
        <time>2019-06-12T11:36:03Z</time>
      </trkpt>
      <trkpt lat="44.32631" lon="5.83255">
        <ele>585</ele>
        <time>2019-06-12T11:36:04Z</time>
      </trkpt>
      <trkpt lat="44.32636" lon="5.83258">
        <ele>585</ele>
        <time>2019-06-12T11:36:05Z</time>
      </trkpt>
      <trkpt lat="44.32641" lon="5.83261">
        <ele>585</ele>
        <time>2019-06-12T11:36:06Z</time>
      </trkpt>
      <trkpt lat="44.32646" lon="5.83264">
        <ele>585</ele>
        <time>2019-06-12T11:36:07Z</time>
      </trkpt>
      <trkpt lat="44.3265" lon="5.83268">
        <ele>585</ele>
        <time>2019-06-12T11:36:08Z</time>
      </trkpt>
      <trkpt lat="44.32655" lon="5.83271">
        <ele>585</ele>
        <time>2019-06-12T11:36:09Z</time>
      </trkpt>
      <trkpt lat="44.3266" lon="5.83274">
        <ele>585</ele>
        <time>2019-06-12T11:36:10Z</time>
      </trkpt>
      <trkpt lat="44.32664" lon="5.83278">
        <ele>585</ele>
        <time>2019-06-12T11:36:11Z</time>
      </trkpt>
      <trkpt lat="44.32669" lon="5.83281">
        <ele>585</ele>
        <time>2019-06-12T11:36:12Z</time>
      </trkpt>
      <trkpt lat="44.32674" lon="5.83284">
        <ele>585</ele>
        <time>2019-06-12T11:36:13Z</time>
      </trkpt>
      <trkpt lat="44.32679" lon="5.83287">
        <ele>585</ele>
        <time>2019-06-12T11:36:14Z</time>
      </trkpt>
      <trkpt lat="44.32683" lon="5.8329">
        <ele>585</ele>
        <time>2019-06-12T11:36:15Z</time>
      </trkpt>
      <trkpt lat="44.32688" lon="5.83294">
        <ele>585</ele>
        <time>2019-06-12T11:36:16Z</time>
      </trkpt>
      <trkpt lat="44.32693" lon="5.83297">
        <ele>585</ele>
        <time>2019-06-12T11:36:17Z</time>
      </trkpt>
      <trkpt lat="44.32698" lon="5.833">
        <ele>585</ele>
        <time>2019-06-12T11:36:18Z</time>
      </trkpt>
      <trkpt lat="44.32703" lon="5.83304">
        <ele>585</ele>
        <time>2019-06-12T11:36:19Z</time>
      </trkpt>
      <trkpt lat="44.32708" lon="5.83308">
        <ele>585</ele>
        <time>2019-06-12T11:36:20Z</time>
      </trkpt>
      <trkpt lat="44.32713" lon="5.83311">
        <ele>585</ele>
        <time>2019-06-12T11:36:21Z</time>
      </trkpt>
      <trkpt lat="44.32718" lon="5.83315">
        <ele>585</ele>
        <time>2019-06-12T11:36:22Z</time>
      </trkpt>
      <trkpt lat="44.32723" lon="5.83319">
        <ele>585</ele>
        <time>2019-06-12T11:36:23Z</time>
      </trkpt>
      <trkpt lat="44.32728" lon="5.83322">
        <ele>585</ele>
        <time>2019-06-12T11:36:24Z</time>
      </trkpt>
      <trkpt lat="44.32733" lon="5.83326">
        <ele>585</ele>
        <time>2019-06-12T11:36:25Z</time>
      </trkpt>
      <trkpt lat="44.32738" lon="5.83329">
        <ele>585</ele>
        <time>2019-06-12T11:36:26Z</time>
      </trkpt>
      <trkpt lat="44.32742" lon="5.83333">
        <ele>585</ele>
        <time>2019-06-12T11:36:27Z</time>
      </trkpt>
      <trkpt lat="44.32748" lon="5.83337">
        <ele>585</ele>
        <time>2019-06-12T11:36:28Z</time>
      </trkpt>
      <trkpt lat="44.32753" lon="5.8334">
        <ele>585</ele>
        <time>2019-06-12T11:36:29Z</time>
      </trkpt>
      <trkpt lat="44.32757" lon="5.83344">
        <ele>585</ele>
        <time>2019-06-12T11:36:30Z</time>
      </trkpt>
      <trkpt lat="44.32762" lon="5.83347">
        <ele>585</ele>
        <time>2019-06-12T11:36:31Z</time>
      </trkpt>
      <trkpt lat="44.32767" lon="5.83351">
        <ele>585</ele>
        <time>2019-06-12T11:36:32Z</time>
      </trkpt>
      <trkpt lat="44.32772" lon="5.83354">
        <ele>585</ele>
        <time>2019-06-12T11:36:33Z</time>
      </trkpt>
      <trkpt lat="44.32777" lon="5.83358">
        <ele>585</ele>
        <time>2019-06-12T11:36:34Z</time>
      </trkpt>
      <trkpt lat="44.32781" lon="5.83361">
        <ele>585</ele>
        <time>2019-06-12T11:36:35Z</time>
      </trkpt>
      <trkpt lat="44.32786" lon="5.83364">
        <ele>585</ele>
        <time>2019-06-12T11:36:36Z</time>
      </trkpt>
      <trkpt lat="44.32791" lon="5.83368">
        <ele>585</ele>
        <time>2019-06-12T11:36:37Z</time>
      </trkpt>
      <trkpt lat="44.32795" lon="5.83371">
        <ele>585</ele>
        <time>2019-06-12T11:36:38Z</time>
      </trkpt>
      <trkpt lat="44.328" lon="5.83374">
        <ele>585</ele>
        <time>2019-06-12T11:36:39Z</time>
      </trkpt>
      <trkpt lat="44.32805" lon="5.83377">
        <ele>585</ele>
        <time>2019-06-12T11:36:40Z</time>
      </trkpt>
      <trkpt lat="44.32809" lon="5.83379">
        <ele>585</ele>
        <time>2019-06-12T11:36:41Z</time>
      </trkpt>
      <trkpt lat="44.32814" lon="5.83382">
        <ele>585</ele>
        <time>2019-06-12T11:36:42Z</time>
      </trkpt>
      <trkpt lat="44.32819" lon="5.83383">
        <ele>585</ele>
        <time>2019-06-12T11:36:43Z</time>
      </trkpt>
      <trkpt lat="44.32824" lon="5.83385">
        <ele>585</ele>
        <time>2019-06-12T11:36:44Z</time>
      </trkpt>
      <trkpt lat="44.32828" lon="5.83386">
        <ele>585</ele>
        <time>2019-06-12T11:36:45Z</time>
      </trkpt>
      <trkpt lat="44.32833" lon="5.83388">
        <ele>585</ele>
        <time>2019-06-12T11:36:46Z</time>
      </trkpt>
      <trkpt lat="44.32838" lon="5.83389">
        <ele>585</ele>
        <time>2019-06-12T11:36:47Z</time>
      </trkpt>
      <trkpt lat="44.32843" lon="5.83389">
        <ele>586</ele>
        <time>2019-06-12T11:36:48Z</time>
      </trkpt>
      <trkpt lat="44.32848" lon="5.83389">
        <ele>586</ele>
        <time>2019-06-12T11:36:49Z</time>
      </trkpt>
      <trkpt lat="44.32853" lon="5.83389">
        <ele>587</ele>
        <time>2019-06-12T11:36:50Z</time>
      </trkpt>
      <trkpt lat="44.32858" lon="5.83389">
        <ele>587</ele>
        <time>2019-06-12T11:36:51Z</time>
      </trkpt>
      <trkpt lat="44.32862" lon="5.8339">
        <ele>588</ele>
        <time>2019-06-12T11:36:52Z</time>
      </trkpt>
      <trkpt lat="44.32867" lon="5.8339">
        <ele>588</ele>
        <time>2019-06-12T11:36:53Z</time>
      </trkpt>
      <trkpt lat="44.32872" lon="5.83391">
        <ele>589</ele>
        <time>2019-06-12T11:36:54Z</time>
      </trkpt>
      <trkpt lat="44.32877" lon="5.83391">
        <ele>589</ele>
        <time>2019-06-12T11:36:55Z</time>
      </trkpt>
      <trkpt lat="44.32882" lon="5.83391">
        <ele>589</ele>
        <time>2019-06-12T11:36:56Z</time>
      </trkpt>
      <trkpt lat="44.32886" lon="5.83391">
        <ele>590</ele>
        <time>2019-06-12T11:36:57Z</time>
      </trkpt>
      <trkpt lat="44.32891" lon="5.83391">
        <ele>590</ele>
        <time>2019-06-12T11:36:58Z</time>
      </trkpt>
      <trkpt lat="44.32896" lon="5.83392">
        <ele>590</ele>
        <time>2019-06-12T11:36:59Z</time>
      </trkpt>
      <trkpt lat="44.329" lon="5.83392">
        <ele>590</ele>
        <time>2019-06-12T11:37:00Z</time>
      </trkpt>
      <trkpt lat="44.32904" lon="5.83392">
        <ele>591</ele>
        <time>2019-06-12T11:37:01Z</time>
      </trkpt>
      <trkpt lat="44.32909" lon="5.83392">
        <ele>591</ele>
        <time>2019-06-12T11:37:02Z</time>
      </trkpt>
      <trkpt lat="44.32913" lon="5.83392">
        <ele>591</ele>
        <time>2019-06-12T11:37:03Z</time>
      </trkpt>
      <trkpt lat="44.32917" lon="5.83393">
        <ele>591</ele>
        <time>2019-06-12T11:37:04Z</time>
      </trkpt>
      <trkpt lat="44.32922" lon="5.83393">
        <ele>592</ele>
        <time>2019-06-12T11:37:05Z</time>
      </trkpt>
      <trkpt lat="44.32926" lon="5.83393">
        <ele>592</ele>
        <time>2019-06-12T11:37:06Z</time>
      </trkpt>
      <trkpt lat="44.32931" lon="5.83394">
        <ele>592</ele>
        <time>2019-06-12T11:37:07Z</time>
      </trkpt>
      <trkpt lat="44.32935" lon="5.83394">
        <ele>592</ele>
        <time>2019-06-12T11:37:08Z</time>
      </trkpt>
      <trkpt lat="44.3294" lon="5.83395">
        <ele>592</ele>
        <time>2019-06-12T11:37:09Z</time>
      </trkpt>
      <trkpt lat="44.32944" lon="5.83395">
        <ele>593</ele>
        <time>2019-06-12T11:37:10Z</time>
      </trkpt>
      <trkpt lat="44.32949" lon="5.83395">
        <ele>593</ele>
        <time>2019-06-12T11:37:11Z</time>
      </trkpt>
      <trkpt lat="44.32953" lon="5.83395">
        <ele>593</ele>
        <time>2019-06-12T11:37:12Z</time>
      </trkpt>
      <trkpt lat="44.32958" lon="5.83396">
        <ele>593</ele>
        <time>2019-06-12T11:37:13Z</time>
      </trkpt>
      <trkpt lat="44.32962" lon="5.83396">
        <ele>593</ele>
        <time>2019-06-12T11:37:14Z</time>
      </trkpt>
      <trkpt lat="44.32967" lon="5.83396">
        <ele>594</ele>
        <time>2019-06-12T11:37:15Z</time>
      </trkpt>
      <trkpt lat="44.32972" lon="5.83396">
        <ele>594</ele>
        <time>2019-06-12T11:37:16Z</time>
      </trkpt>
      <trkpt lat="44.32977" lon="5.83397">
        <ele>594</ele>
        <time>2019-06-12T11:37:17Z</time>
      </trkpt>
      <trkpt lat="44.32982" lon="5.83397">
        <ele>594</ele>
        <time>2019-06-12T11:37:18Z</time>
      </trkpt>
      <trkpt lat="44.32987" lon="5.83397">
        <ele>594</ele>
        <time>2019-06-12T11:37:19Z</time>
      </trkpt>
      <trkpt lat="44.32992" lon="5.83397">
        <ele>594</ele>
        <time>2019-06-12T11:37:20Z</time>
      </trkpt>
      <trkpt lat="44.32997" lon="5.83397">
        <ele>594</ele>
        <time>2019-06-12T11:37:21Z</time>
      </trkpt>
      <trkpt lat="44.33002" lon="5.83397">
        <ele>594</ele>
        <time>2019-06-12T11:37:22Z</time>
      </trkpt>
      <trkpt lat="44.33007" lon="5.83398">
        <ele>594</ele>
        <time>2019-06-12T11:37:23Z</time>
      </trkpt>
      <trkpt lat="44.33012" lon="5.83398">
        <ele>594</ele>
        <time>2019-06-12T11:37:24Z</time>
      </trkpt>
      <trkpt lat="44.33017" lon="5.83398">
        <ele>595</ele>
        <time>2019-06-12T11:37:25Z</time>
      </trkpt>
      <trkpt lat="44.33022" lon="5.83399">
        <ele>595</ele>
        <time>2019-06-12T11:37:26Z</time>
      </trkpt>
      <trkpt lat="44.33028" lon="5.83399">
        <ele>595</ele>
        <time>2019-06-12T11:37:27Z</time>
      </trkpt>
      <trkpt lat="44.33033" lon="5.83399">
        <ele>595</ele>
        <time>2019-06-12T11:37:28Z</time>
      </trkpt>
      <trkpt lat="44.33038" lon="5.834">
        <ele>595</ele>
        <time>2019-06-12T11:37:29Z</time>
      </trkpt>
      <trkpt lat="44.33044" lon="5.834">
        <ele>595</ele>
        <time>2019-06-12T11:37:30Z</time>
      </trkpt>
      <trkpt lat="44.3305" lon="5.83401">
        <ele>595</ele>
        <time>2019-06-12T11:37:31Z</time>
      </trkpt>
      <trkpt lat="44.33056" lon="5.83401">
        <ele>595</ele>
        <time>2019-06-12T11:37:32Z</time>
      </trkpt>
      <trkpt lat="44.33062" lon="5.83401">
        <ele>595</ele>
        <time>2019-06-12T11:37:33Z</time>
      </trkpt>
      <trkpt lat="44.33067" lon="5.83401">
        <ele>595</ele>
        <time>2019-06-12T11:37:34Z</time>
      </trkpt>
      <trkpt lat="44.33073" lon="5.83401">
        <ele>595</ele>
        <time>2019-06-12T11:37:35Z</time>
      </trkpt>
      <trkpt lat="44.33079" lon="5.83401">
        <ele>595</ele>
        <time>2019-06-12T11:37:36Z</time>
      </trkpt>
      <trkpt lat="44.33085" lon="5.83401">
        <ele>595</ele>
        <time>2019-06-12T11:37:37Z</time>
      </trkpt>
      <trkpt lat="44.33091" lon="5.834">
        <ele>595</ele>
        <time>2019-06-12T11:37:38Z</time>
      </trkpt>
      <trkpt lat="44.33096" lon="5.834">
        <ele>595</ele>
        <time>2019-06-12T11:37:39Z</time>
      </trkpt>
      <trkpt lat="44.33102" lon="5.83399">
        <ele>595</ele>
        <time>2019-06-12T11:37:40Z</time>
      </trkpt>
      <trkpt lat="44.33108" lon="5.83399">
        <ele>595</ele>
        <time>2019-06-12T11:37:41Z</time>
      </trkpt>
      <trkpt lat="44.33114" lon="5.83398">
        <ele>595</ele>
        <time>2019-06-12T11:37:42Z</time>
      </trkpt>
      <trkpt lat="44.3312" lon="5.83397">
        <ele>595</ele>
        <time>2019-06-12T11:37:43Z</time>
      </trkpt>
      <trkpt lat="44.33126" lon="5.83396">
        <ele>595</ele>
        <time>2019-06-12T11:37:44Z</time>
      </trkpt>
      <trkpt lat="44.33131" lon="5.83396">
        <ele>595</ele>
        <time>2019-06-12T11:37:45Z</time>
      </trkpt>
      <trkpt lat="44.33137" lon="5.83395">
        <ele>595</ele>
        <time>2019-06-12T11:37:46Z</time>
      </trkpt>
      <trkpt lat="44.33143" lon="5.83394">
        <ele>595</ele>
        <time>2019-06-12T11:37:47Z</time>
      </trkpt>
      <trkpt lat="44.33149" lon="5.83393">
        <ele>595</ele>
        <time>2019-06-12T11:37:48Z</time>
      </trkpt>
      <trkpt lat="44.33155" lon="5.83392">
        <ele>595</ele>
        <time>2019-06-12T11:37:49Z</time>
      </trkpt>
      <trkpt lat="44.3316" lon="5.83392">
        <ele>595</ele>
        <time>2019-06-12T11:37:50Z</time>
      </trkpt>
      <trkpt lat="44.33166" lon="5.83391">
        <ele>595</ele>
        <time>2019-06-12T11:37:51Z</time>
      </trkpt>
      <trkpt lat="44.33171" lon="5.8339">
        <ele>595</ele>
        <time>2019-06-12T11:37:52Z</time>
      </trkpt>
      <trkpt lat="44.33177" lon="5.83389">
        <ele>595</ele>
        <time>2019-06-12T11:37:53Z</time>
      </trkpt>
      <trkpt lat="44.33182" lon="5.83388">
        <ele>595</ele>
        <time>2019-06-12T11:37:54Z</time>
      </trkpt>
      <trkpt lat="44.33188" lon="5.83387">
        <ele>595</ele>
        <time>2019-06-12T11:37:55Z</time>
      </trkpt>
      <trkpt lat="44.33193" lon="5.83387">
        <ele>595</ele>
        <time>2019-06-12T11:37:56Z</time>
      </trkpt>
      <trkpt lat="44.33199" lon="5.83386">
        <ele>595</ele>
        <time>2019-06-12T11:37:57Z</time>
      </trkpt>
      <trkpt lat="44.33204" lon="5.83385">
        <ele>595</ele>
        <time>2019-06-12T11:37:58Z</time>
      </trkpt>
      <trkpt lat="44.3321" lon="5.83384">
        <ele>595</ele>
        <time>2019-06-12T11:37:59Z</time>
      </trkpt>
      <trkpt lat="44.33215" lon="5.83384">
        <ele>595</ele>
        <time>2019-06-12T11:38:00Z</time>
      </trkpt>
      <trkpt lat="44.3322" lon="5.83383">
        <ele>595</ele>
        <time>2019-06-12T11:38:01Z</time>
      </trkpt>
      <trkpt lat="44.33226" lon="5.83382">
        <ele>595</ele>
        <time>2019-06-12T11:38:02Z</time>
      </trkpt>
      <trkpt lat="44.33231" lon="5.83381">
        <ele>595</ele>
        <time>2019-06-12T11:38:03Z</time>
      </trkpt>
      <trkpt lat="44.33236" lon="5.83381">
        <ele>595</ele>
        <time>2019-06-12T11:38:04Z</time>
      </trkpt>
      <trkpt lat="44.33242" lon="5.8338">
        <ele>595</ele>
        <time>2019-06-12T11:38:05Z</time>
      </trkpt>
      <trkpt lat="44.33247" lon="5.83379">
        <ele>595</ele>
        <time>2019-06-12T11:38:06Z</time>
      </trkpt>
      <trkpt lat="44.33252" lon="5.83378">
        <ele>595</ele>
        <time>2019-06-12T11:38:07Z</time>
      </trkpt>
      <trkpt lat="44.33258" lon="5.83377">
        <ele>595</ele>
        <time>2019-06-12T11:38:08Z</time>
      </trkpt>
      <trkpt lat="44.33263" lon="5.83377">
        <ele>595</ele>
        <time>2019-06-12T11:38:09Z</time>
      </trkpt>
      <trkpt lat="44.33269" lon="5.83376">
        <ele>595</ele>
        <time>2019-06-12T11:38:10Z</time>
      </trkpt>
      <trkpt lat="44.33274" lon="5.83375">
        <ele>595</ele>
        <time>2019-06-12T11:38:11Z</time>
      </trkpt>
      <trkpt lat="44.3328" lon="5.83374">
        <ele>595</ele>
        <time>2019-06-12T11:38:12Z</time>
      </trkpt>
      <trkpt lat="44.33285" lon="5.83373">
        <ele>595</ele>
        <time>2019-06-12T11:38:13Z</time>
      </trkpt>
      <trkpt lat="44.33291" lon="5.83372">
        <ele>595</ele>
        <time>2019-06-12T11:38:14Z</time>
      </trkpt>
      <trkpt lat="44.33296" lon="5.83371">
        <ele>595</ele>
        <time>2019-06-12T11:38:15Z</time>
      </trkpt>
      <trkpt lat="44.33302" lon="5.83371">
        <ele>595</ele>
        <time>2019-06-12T11:38:16Z</time>
      </trkpt>
      <trkpt lat="44.33307" lon="5.8337">
        <ele>595</ele>
        <time>2019-06-12T11:38:17Z</time>
      </trkpt>
      <trkpt lat="44.33313" lon="5.83369">
        <ele>595</ele>
        <time>2019-06-12T11:38:18Z</time>
      </trkpt>
      <trkpt lat="44.33318" lon="5.83368">
        <ele>595</ele>
        <time>2019-06-12T11:38:19Z</time>
      </trkpt>
      <trkpt lat="44.33324" lon="5.83367">
        <ele>595</ele>
        <time>2019-06-12T11:38:20Z</time>
      </trkpt>
      <trkpt lat="44.33329" lon="5.83367">
        <ele>595</ele>
        <time>2019-06-12T11:38:21Z</time>
      </trkpt>
      <trkpt lat="44.33335" lon="5.83366">
        <ele>595</ele>
        <time>2019-06-12T11:38:22Z</time>
      </trkpt>
      <trkpt lat="44.3334" lon="5.83365">
        <ele>595</ele>
        <time>2019-06-12T11:38:23Z</time>
      </trkpt>
      <trkpt lat="44.33346" lon="5.83364">
        <ele>595</ele>
        <time>2019-06-12T11:38:24Z</time>
      </trkpt>
      <trkpt lat="44.33352" lon="5.83364">
        <ele>595</ele>
        <time>2019-06-12T11:38:25Z</time>
      </trkpt>
      <trkpt lat="44.33357" lon="5.83363">
        <ele>595</ele>
        <time>2019-06-12T11:38:26Z</time>
      </trkpt>
      <trkpt lat="44.33363" lon="5.83362">
        <ele>595</ele>
        <time>2019-06-12T11:38:27Z</time>
      </trkpt>
      <trkpt lat="44.33368" lon="5.83361">
        <ele>595</ele>
        <time>2019-06-12T11:38:28Z</time>
      </trkpt>
      <trkpt lat="44.33373" lon="5.8336">
        <ele>595</ele>
        <time>2019-06-12T11:38:29Z</time>
      </trkpt>
      <trkpt lat="44.33379" lon="5.83359">
        <ele>595</ele>
        <time>2019-06-12T11:38:30Z</time>
      </trkpt>
      <trkpt lat="44.3339" lon="5.83358">
        <ele>595</ele>
        <time>2019-06-12T11:38:32Z</time>
      </trkpt>
      <trkpt lat="44.33395" lon="5.83357">
        <ele>595</ele>
        <time>2019-06-12T11:38:33Z</time>
      </trkpt>
      <trkpt lat="44.334" lon="5.83356">
        <ele>595</ele>
        <time>2019-06-12T11:38:34Z</time>
      </trkpt>
      <trkpt lat="44.33406" lon="5.83356">
        <ele>595</ele>
        <time>2019-06-12T11:38:35Z</time>
      </trkpt>
      <trkpt lat="44.33411" lon="5.83355">
        <ele>595</ele>
        <time>2019-06-12T11:38:36Z</time>
      </trkpt>
      <trkpt lat="44.33416" lon="5.83354">
        <ele>595</ele>
        <time>2019-06-12T11:38:37Z</time>
      </trkpt>
      <trkpt lat="44.33422" lon="5.83353">
        <ele>595</ele>
        <time>2019-06-12T11:38:38Z</time>
      </trkpt>
      <trkpt lat="44.33427" lon="5.83352">
        <ele>595</ele>
        <time>2019-06-12T11:38:39Z</time>
      </trkpt>
      <trkpt lat="44.33432" lon="5.83352">
        <ele>595</ele>
        <time>2019-06-12T11:38:40Z</time>
      </trkpt>
      <trkpt lat="44.33438" lon="5.83351">
        <ele>595</ele>
        <time>2019-06-12T11:38:41Z</time>
      </trkpt>
      <trkpt lat="44.33443" lon="5.8335">
        <ele>595</ele>
        <time>2019-06-12T11:38:42Z</time>
      </trkpt>
      <trkpt lat="44.33449" lon="5.8335">
        <ele>595</ele>
        <time>2019-06-12T11:38:43Z</time>
      </trkpt>
      <trkpt lat="44.33454" lon="5.83349">
        <ele>595</ele>
        <time>2019-06-12T11:38:44Z</time>
      </trkpt>
      <trkpt lat="44.33459" lon="5.83349">
        <ele>595</ele>
        <time>2019-06-12T11:38:45Z</time>
      </trkpt>
      <trkpt lat="44.33465" lon="5.83349">
        <ele>595</ele>
        <time>2019-06-12T11:38:46Z</time>
      </trkpt>
      <trkpt lat="44.3347" lon="5.83349">
        <ele>595</ele>
        <time>2019-06-12T11:38:47Z</time>
      </trkpt>
      <trkpt lat="44.33475" lon="5.83349">
        <ele>595</ele>
        <time>2019-06-12T11:38:48Z</time>
      </trkpt>
      <trkpt lat="44.33481" lon="5.83349">
        <ele>595</ele>
        <time>2019-06-12T11:38:49Z</time>
      </trkpt>
      <trkpt lat="44.33486" lon="5.83349">
        <ele>595</ele>
        <time>2019-06-12T11:38:50Z</time>
      </trkpt>
      <trkpt lat="44.33491" lon="5.8335">
        <ele>595</ele>
        <time>2019-06-12T11:38:51Z</time>
      </trkpt>
      <trkpt lat="44.33496" lon="5.8335">
        <ele>595</ele>
        <time>2019-06-12T11:38:52Z</time>
      </trkpt>
      <trkpt lat="44.33501" lon="5.83351">
        <ele>595</ele>
        <time>2019-06-12T11:38:53Z</time>
      </trkpt>
      <trkpt lat="44.33507" lon="5.83352">
        <ele>595</ele>
        <time>2019-06-12T11:38:54Z</time>
      </trkpt>
      <trkpt lat="44.33512" lon="5.83352">
        <ele>595</ele>
        <time>2019-06-12T11:38:55Z</time>
      </trkpt>
      <trkpt lat="44.33517" lon="5.83353">
        <ele>596</ele>
        <time>2019-06-12T11:38:56Z</time>
      </trkpt>
      <trkpt lat="44.33522" lon="5.83353">
        <ele>596</ele>
        <time>2019-06-12T11:38:57Z</time>
      </trkpt>
      <trkpt lat="44.33527" lon="5.83354">
        <ele>596</ele>
        <time>2019-06-12T11:38:58Z</time>
      </trkpt>
      <trkpt lat="44.33532" lon="5.83354">
        <ele>596</ele>
        <time>2019-06-12T11:38:59Z</time>
      </trkpt>
      <trkpt lat="44.33537" lon="5.83354">
        <ele>597</ele>
        <time>2019-06-12T11:39:00Z</time>
      </trkpt>
      <trkpt lat="44.33542" lon="5.83355">
        <ele>597</ele>
        <time>2019-06-12T11:39:01Z</time>
      </trkpt>
      <trkpt lat="44.33547" lon="5.83355">
        <ele>597</ele>
        <time>2019-06-12T11:39:02Z</time>
      </trkpt>
      <trkpt lat="44.33552" lon="5.83356">
        <ele>598</ele>
        <time>2019-06-12T11:39:03Z</time>
      </trkpt>
      <trkpt lat="44.33556" lon="5.83356">
        <ele>598</ele>
        <time>2019-06-12T11:39:04Z</time>
      </trkpt>
      <trkpt lat="44.33561" lon="5.83356">
        <ele>599</ele>
        <time>2019-06-12T11:39:05Z</time>
      </trkpt>
      <trkpt lat="44.33566" lon="5.83356">
        <ele>599</ele>
        <time>2019-06-12T11:39:06Z</time>
      </trkpt>
      <trkpt lat="44.33571" lon="5.83357">
        <ele>599</ele>
        <time>2019-06-12T11:39:07Z</time>
      </trkpt>
      <trkpt lat="44.33576" lon="5.83357">
        <ele>600</ele>
        <time>2019-06-12T11:39:08Z</time>
      </trkpt>
      <trkpt lat="44.33581" lon="5.83358">
        <ele>600</ele>
        <time>2019-06-12T11:39:09Z</time>
      </trkpt>
      <trkpt lat="44.33585" lon="5.83359">
        <ele>600</ele>
        <time>2019-06-12T11:39:10Z</time>
      </trkpt>
      <trkpt lat="44.3359" lon="5.83359">
        <ele>600</ele>
        <time>2019-06-12T11:39:11Z</time>
      </trkpt>
      <trkpt lat="44.33595" lon="5.83359">
        <ele>600</ele>
        <time>2019-06-12T11:39:12Z</time>
      </trkpt>
      <trkpt lat="44.336" lon="5.8336">
        <ele>600</ele>
        <time>2019-06-12T11:39:13Z</time>
      </trkpt>
      <trkpt lat="44.33605" lon="5.83361">
        <ele>600</ele>
        <time>2019-06-12T11:39:14Z</time>
      </trkpt>
      <trkpt lat="44.3361" lon="5.83361">
        <ele>600</ele>
        <time>2019-06-12T11:39:15Z</time>
      </trkpt>
      <trkpt lat="44.33614" lon="5.83362">
        <ele>600</ele>
        <time>2019-06-12T11:39:16Z</time>
      </trkpt>
      <trkpt lat="44.33619" lon="5.83363">
        <ele>600</ele>
        <time>2019-06-12T11:39:17Z</time>
      </trkpt>
      <trkpt lat="44.33624" lon="5.83363">
        <ele>600</ele>
        <time>2019-06-12T11:39:18Z</time>
      </trkpt>
      <trkpt lat="44.33629" lon="5.83364">
        <ele>600</ele>
        <time>2019-06-12T11:39:19Z</time>
      </trkpt>
      <trkpt lat="44.33633" lon="5.83364">
        <ele>600</ele>
        <time>2019-06-12T11:39:20Z</time>
      </trkpt>
      <trkpt lat="44.33638" lon="5.83365">
        <ele>600</ele>
        <time>2019-06-12T11:39:21Z</time>
      </trkpt>
      <trkpt lat="44.33643" lon="5.83366">
        <ele>600</ele>
        <time>2019-06-12T11:39:22Z</time>
      </trkpt>
      <trkpt lat="44.33648" lon="5.83366">
        <ele>600</ele>
        <time>2019-06-12T11:39:23Z</time>
      </trkpt>
      <trkpt lat="44.33652" lon="5.83366">
        <ele>600</ele>
        <time>2019-06-12T11:39:24Z</time>
      </trkpt>
      <trkpt lat="44.33657" lon="5.83367">
        <ele>600</ele>
        <time>2019-06-12T11:39:25Z</time>
      </trkpt>
      <trkpt lat="44.33662" lon="5.83367">
        <ele>600</ele>
        <time>2019-06-12T11:39:26Z</time>
      </trkpt>
      <trkpt lat="44.33667" lon="5.83368">
        <ele>600</ele>
        <time>2019-06-12T11:39:27Z</time>
      </trkpt>
      <trkpt lat="44.33672" lon="5.83369">
        <ele>601</ele>
        <time>2019-06-12T11:39:28Z</time>
      </trkpt>
      <trkpt lat="44.33677" lon="5.83369">
        <ele>601</ele>
        <time>2019-06-12T11:39:29Z</time>
      </trkpt>
      <trkpt lat="44.33681" lon="5.8337">
        <ele>601</ele>
        <time>2019-06-12T11:39:30Z</time>
      </trkpt>
      <trkpt lat="44.33686" lon="5.8337">
        <ele>601</ele>
        <time>2019-06-12T11:39:31Z</time>
      </trkpt>
      <trkpt lat="44.33691" lon="5.83371">
        <ele>601</ele>
        <time>2019-06-12T11:39:32Z</time>
      </trkpt>
      <trkpt lat="44.33696" lon="5.83371">
        <ele>601</ele>
        <time>2019-06-12T11:39:33Z</time>
      </trkpt>
      <trkpt lat="44.33701" lon="5.83372">
        <ele>602</ele>
        <time>2019-06-12T11:39:34Z</time>
      </trkpt>
      <trkpt lat="44.33706" lon="5.83372">
        <ele>602</ele>
        <time>2019-06-12T11:39:35Z</time>
      </trkpt>
      <trkpt lat="44.3371" lon="5.83373">
        <ele>602</ele>
        <time>2019-06-12T11:39:36Z</time>
      </trkpt>
      <trkpt lat="44.33715" lon="5.83374">
        <ele>602</ele>
        <time>2019-06-12T11:39:37Z</time>
      </trkpt>
      <trkpt lat="44.3372" lon="5.83374">
        <ele>602</ele>
        <time>2019-06-12T11:39:38Z</time>
      </trkpt>
      <trkpt lat="44.33725" lon="5.83375">
        <ele>602</ele>
        <time>2019-06-12T11:39:39Z</time>
      </trkpt>
      <trkpt lat="44.3373" lon="5.83375">
        <ele>602</ele>
        <time>2019-06-12T11:39:40Z</time>
      </trkpt>
      <trkpt lat="44.33735" lon="5.83376">
        <ele>603</ele>
        <time>2019-06-12T11:39:41Z</time>
      </trkpt>
      <trkpt lat="44.3374" lon="5.83376">
        <ele>603</ele>
        <time>2019-06-12T11:39:42Z</time>
      </trkpt>
      <trkpt lat="44.33745" lon="5.83377">
        <ele>603</ele>
        <time>2019-06-12T11:39:43Z</time>
      </trkpt>
      <trkpt lat="44.3375" lon="5.83377">
        <ele>603</ele>
        <time>2019-06-12T11:39:44Z</time>
      </trkpt>
      <trkpt lat="44.33755" lon="5.83378">
        <ele>603</ele>
        <time>2019-06-12T11:39:45Z</time>
      </trkpt>
      <trkpt lat="44.3376" lon="5.83379">
        <ele>603</ele>
        <time>2019-06-12T11:39:46Z</time>
      </trkpt>
      <trkpt lat="44.33765" lon="5.8338">
        <ele>603</ele>
        <time>2019-06-12T11:39:47Z</time>
      </trkpt>
      <trkpt lat="44.3377" lon="5.8338">
        <ele>604</ele>
        <time>2019-06-12T11:39:48Z</time>
      </trkpt>
      <trkpt lat="44.33775" lon="5.83381">
        <ele>604</ele>
        <time>2019-06-12T11:39:49Z</time>
      </trkpt>
      <trkpt lat="44.3378" lon="5.83382">
        <ele>604</ele>
        <time>2019-06-12T11:39:50Z</time>
      </trkpt>
      <trkpt lat="44.33785" lon="5.83383">
        <ele>604</ele>
        <time>2019-06-12T11:39:51Z</time>
      </trkpt>
      <trkpt lat="44.3379" lon="5.83384">
        <ele>604</ele>
        <time>2019-06-12T11:39:52Z</time>
      </trkpt>
      <trkpt lat="44.33795" lon="5.83385">
        <ele>604</ele>
        <time>2019-06-12T11:39:53Z</time>
      </trkpt>
      <trkpt lat="44.338" lon="5.83386">
        <ele>604</ele>
        <time>2019-06-12T11:39:54Z</time>
      </trkpt>
      <trkpt lat="44.33805" lon="5.83387">
        <ele>604</ele>
        <time>2019-06-12T11:39:55Z</time>
      </trkpt>
      <trkpt lat="44.3381" lon="5.83388">
        <ele>604</ele>
        <time>2019-06-12T11:39:56Z</time>
      </trkpt>
      <trkpt lat="44.33815" lon="5.83389">
        <ele>604</ele>
        <time>2019-06-12T11:39:57Z</time>
      </trkpt>
      <trkpt lat="44.3382" lon="5.8339">
        <ele>604</ele>
        <time>2019-06-12T11:39:58Z</time>
      </trkpt>
      <trkpt lat="44.33825" lon="5.83391">
        <ele>604</ele>
        <time>2019-06-12T11:39:59Z</time>
      </trkpt>
      <trkpt lat="44.3383" lon="5.83392">
        <ele>605</ele>
        <time>2019-06-12T11:40:00Z</time>
      </trkpt>
      <trkpt lat="44.33835" lon="5.83393">
        <ele>605</ele>
        <time>2019-06-12T11:40:01Z</time>
      </trkpt>
      <trkpt lat="44.3384" lon="5.83394">
        <ele>605</ele>
        <time>2019-06-12T11:40:02Z</time>
      </trkpt>
      <trkpt lat="44.33845" lon="5.83395">
        <ele>605</ele>
        <time>2019-06-12T11:40:03Z</time>
      </trkpt>
      <trkpt lat="44.3385" lon="5.83396">
        <ele>605</ele>
        <time>2019-06-12T11:40:04Z</time>
      </trkpt>
      <trkpt lat="44.33855" lon="5.83397">
        <ele>605</ele>
        <time>2019-06-12T11:40:05Z</time>
      </trkpt>
      <trkpt lat="44.3386" lon="5.83398">
        <ele>605</ele>
        <time>2019-06-12T11:40:06Z</time>
      </trkpt>
      <trkpt lat="44.33865" lon="5.83399">
        <ele>606</ele>
        <time>2019-06-12T11:40:07Z</time>
      </trkpt>
      <trkpt lat="44.3387" lon="5.83401">
        <ele>606</ele>
        <time>2019-06-12T11:40:08Z</time>
      </trkpt>
      <trkpt lat="44.33875" lon="5.83402">
        <ele>606</ele>
        <time>2019-06-12T11:40:09Z</time>
      </trkpt>
      <trkpt lat="44.3388" lon="5.83403">
        <ele>606</ele>
        <time>2019-06-12T11:40:10Z</time>
      </trkpt>
      <trkpt lat="44.33885" lon="5.83404">
        <ele>606</ele>
        <time>2019-06-12T11:40:11Z</time>
      </trkpt>
      <trkpt lat="44.3389" lon="5.83405">
        <ele>606</ele>
        <time>2019-06-12T11:40:12Z</time>
      </trkpt>
      <trkpt lat="44.33895" lon="5.83406">
        <ele>606</ele>
        <time>2019-06-12T11:40:13Z</time>
      </trkpt>
      <trkpt lat="44.339" lon="5.83407">
        <ele>606</ele>
        <time>2019-06-12T11:40:14Z</time>
      </trkpt>
      <trkpt lat="44.33905" lon="5.83408">
        <ele>606</ele>
        <time>2019-06-12T11:40:15Z</time>
      </trkpt>
      <trkpt lat="44.3391" lon="5.83409">
        <ele>607</ele>
        <time>2019-06-12T11:40:16Z</time>
      </trkpt>
      <trkpt lat="44.33915" lon="5.8341">
        <ele>607</ele>
        <time>2019-06-12T11:40:17Z</time>
      </trkpt>
      <trkpt lat="44.33921" lon="5.83412">
        <ele>607</ele>
        <time>2019-06-12T11:40:18Z</time>
      </trkpt>
      <trkpt lat="44.33926" lon="5.83413">
        <ele>607</ele>
        <time>2019-06-12T11:40:19Z</time>
      </trkpt>
      <trkpt lat="44.33931" lon="5.83414">
        <ele>607</ele>
        <time>2019-06-12T11:40:20Z</time>
      </trkpt>
      <trkpt lat="44.33936" lon="5.83416">
        <ele>607</ele>
        <time>2019-06-12T11:40:21Z</time>
      </trkpt>
      <trkpt lat="44.33941" lon="5.83417">
        <ele>607</ele>
        <time>2019-06-12T11:40:22Z</time>
      </trkpt>
      <trkpt lat="44.33945" lon="5.83419">
        <ele>607</ele>
        <time>2019-06-12T11:40:23Z</time>
      </trkpt>
      <trkpt lat="44.3395" lon="5.83422">
        <ele>608</ele>
        <time>2019-06-12T11:40:24Z</time>
      </trkpt>
      <trkpt lat="44.33955" lon="5.83425">
        <ele>608</ele>
        <time>2019-06-12T11:40:25Z</time>
      </trkpt>
      <trkpt lat="44.3396" lon="5.83428">
        <ele>608</ele>
        <time>2019-06-12T11:40:26Z</time>
      </trkpt>
      <trkpt lat="44.33964" lon="5.83431">
        <ele>608</ele>
        <time>2019-06-12T11:40:27Z</time>
      </trkpt>
      <trkpt lat="44.33968" lon="5.83434">
        <ele>608</ele>
        <time>2019-06-12T11:40:28Z</time>
      </trkpt>
      <trkpt lat="44.33972" lon="5.83438">
        <ele>608</ele>
        <time>2019-06-12T11:40:29Z</time>
      </trkpt>
      <trkpt lat="44.33976" lon="5.83442">
        <ele>609</ele>
        <time>2019-06-12T11:40:30Z</time>
      </trkpt>
      <trkpt lat="44.33981" lon="5.83446">
        <ele>609</ele>
        <time>2019-06-12T11:40:31Z</time>
      </trkpt>
      <trkpt lat="44.33985" lon="5.8345">
        <ele>609</ele>
        <time>2019-06-12T11:40:32Z</time>
      </trkpt>
      <trkpt lat="44.33989" lon="5.83454">
        <ele>609</ele>
        <time>2019-06-12T11:40:33Z</time>
      </trkpt>
      <trkpt lat="44.33993" lon="5.83458">
        <ele>609</ele>
        <time>2019-06-12T11:40:34Z</time>
      </trkpt>
      <trkpt lat="44.33997" lon="5.83462">
        <ele>609</ele>
        <time>2019-06-12T11:40:35Z</time>
      </trkpt>
      <trkpt lat="44.34001" lon="5.83466">
        <ele>609</ele>
        <time>2019-06-12T11:40:36Z</time>
      </trkpt>
      <trkpt lat="44.34005" lon="5.8347">
        <ele>609</ele>
        <time>2019-06-12T11:40:37Z</time>
      </trkpt>
      <trkpt lat="44.3401" lon="5.83474">
        <ele>609</ele>
        <time>2019-06-12T11:40:38Z</time>
      </trkpt>
      <trkpt lat="44.34014" lon="5.83479">
        <ele>609</ele>
        <time>2019-06-12T11:40:39Z</time>
      </trkpt>
      <trkpt lat="44.34018" lon="5.83483">
        <ele>609</ele>
        <time>2019-06-12T11:40:40Z</time>
      </trkpt>
      <trkpt lat="44.34022" lon="5.83487">
        <ele>609</ele>
        <time>2019-06-12T11:40:41Z</time>
      </trkpt>
      <trkpt lat="44.34026" lon="5.83491">
        <ele>609</ele>
        <time>2019-06-12T11:40:42Z</time>
      </trkpt>
      <trkpt lat="44.3403" lon="5.83496">
        <ele>609</ele>
        <time>2019-06-12T11:40:43Z</time>
      </trkpt>
      <trkpt lat="44.34034" lon="5.835">
        <ele>609</ele>
        <time>2019-06-12T11:40:44Z</time>
      </trkpt>
      <trkpt lat="44.34038" lon="5.83504">
        <ele>609</ele>
        <time>2019-06-12T11:40:45Z</time>
      </trkpt>
      <trkpt lat="44.34042" lon="5.83508">
        <ele>609</ele>
        <time>2019-06-12T11:40:46Z</time>
      </trkpt>
      <trkpt lat="44.34046" lon="5.83512">
        <ele>609</ele>
        <time>2019-06-12T11:40:47Z</time>
      </trkpt>
      <trkpt lat="44.3405" lon="5.83516">
        <ele>609</ele>
        <time>2019-06-12T11:40:48Z</time>
      </trkpt>
      <trkpt lat="44.34054" lon="5.8352">
        <ele>609</ele>
        <time>2019-06-12T11:40:49Z</time>
      </trkpt>
      <trkpt lat="44.34058" lon="5.83524">
        <ele>609</ele>
        <time>2019-06-12T11:40:50Z</time>
      </trkpt>
      <trkpt lat="44.34062" lon="5.83528">
        <ele>609</ele>
        <time>2019-06-12T11:40:51Z</time>
      </trkpt>
      <trkpt lat="44.34066" lon="5.83532">
        <ele>609</ele>
        <time>2019-06-12T11:40:52Z</time>
      </trkpt>
      <trkpt lat="44.3407" lon="5.83536">
        <ele>609</ele>
        <time>2019-06-12T11:40:53Z</time>
      </trkpt>
      <trkpt lat="44.34074" lon="5.8354">
        <ele>609</ele>
        <time>2019-06-12T11:40:54Z</time>
      </trkpt>
      <trkpt lat="44.34078" lon="5.83544">
        <ele>609</ele>
        <time>2019-06-12T11:40:55Z</time>
      </trkpt>
      <trkpt lat="44.34082" lon="5.83548">
        <ele>609</ele>
        <time>2019-06-12T11:40:56Z</time>
      </trkpt>
      <trkpt lat="44.34086" lon="5.83552">
        <ele>609</ele>
        <time>2019-06-12T11:40:57Z</time>
      </trkpt>
      <trkpt lat="44.34091" lon="5.83556">
        <ele>609</ele>
        <time>2019-06-12T11:40:58Z</time>
      </trkpt>
      <trkpt lat="44.34095" lon="5.8356">
        <ele>609</ele>
        <time>2019-06-12T11:40:59Z</time>
      </trkpt>
      <trkpt lat="44.34099" lon="5.83564">
        <ele>609</ele>
        <time>2019-06-12T11:41:00Z</time>
      </trkpt>
      <trkpt lat="44.34103" lon="5.83568">
        <ele>610</ele>
        <time>2019-06-12T11:41:01Z</time>
      </trkpt>
      <trkpt lat="44.34107" lon="5.83573">
        <ele>610</ele>
        <time>2019-06-12T11:41:02Z</time>
      </trkpt>
      <trkpt lat="44.34111" lon="5.83577">
        <ele>610</ele>
        <time>2019-06-12T11:41:03Z</time>
      </trkpt>
      <trkpt lat="44.34116" lon="5.83581">
        <ele>610</ele>
        <time>2019-06-12T11:41:04Z</time>
      </trkpt>
      <trkpt lat="44.34121" lon="5.83585">
        <ele>610</ele>
        <time>2019-06-12T11:41:05Z</time>
      </trkpt>
      <trkpt lat="44.34125" lon="5.8359">
        <ele>610</ele>
        <time>2019-06-12T11:41:06Z</time>
      </trkpt>
      <trkpt lat="44.3413" lon="5.83594">
        <ele>610</ele>
        <time>2019-06-12T11:41:07Z</time>
      </trkpt>
      <trkpt lat="44.34135" lon="5.83599">
        <ele>610</ele>
        <time>2019-06-12T11:41:08Z</time>
      </trkpt>
      <trkpt lat="44.3414" lon="5.83604">
        <ele>610</ele>
        <time>2019-06-12T11:41:09Z</time>
      </trkpt>
      <trkpt lat="44.34145" lon="5.83609">
        <ele>610</ele>
        <time>2019-06-12T11:41:10Z</time>
      </trkpt>
      <trkpt lat="44.3415" lon="5.83614">
        <ele>610</ele>
        <time>2019-06-12T11:41:11Z</time>
      </trkpt>
      <trkpt lat="44.34155" lon="5.83619">
        <ele>610</ele>
        <time>2019-06-12T11:41:12Z</time>
      </trkpt>
      <trkpt lat="44.34161" lon="5.83625">
        <ele>610</ele>
        <time>2019-06-12T11:41:13Z</time>
      </trkpt>
      <trkpt lat="44.34166" lon="5.8363">
        <ele>610</ele>
        <time>2019-06-12T11:41:14Z</time>
      </trkpt>
      <trkpt lat="44.34171" lon="5.83635">
        <ele>610</ele>
        <time>2019-06-12T11:41:15Z</time>
      </trkpt>
      <trkpt lat="44.34177" lon="5.83641">
        <ele>610</ele>
        <time>2019-06-12T11:41:16Z</time>
      </trkpt>
      <trkpt lat="44.34182" lon="5.83646">
        <ele>610</ele>
        <time>2019-06-12T11:41:17Z</time>
      </trkpt>
      <trkpt lat="44.34188" lon="5.83652">
        <ele>610</ele>
        <time>2019-06-12T11:41:18Z</time>
      </trkpt>
      <trkpt lat="44.34193" lon="5.83658">
        <ele>610</ele>
        <time>2019-06-12T11:41:19Z</time>
      </trkpt>
      <trkpt lat="44.34199" lon="5.83664">
        <ele>610</ele>
        <time>2019-06-12T11:41:20Z</time>
      </trkpt>
      <trkpt lat="44.34204" lon="5.8367">
        <ele>610</ele>
        <time>2019-06-12T11:41:21Z</time>
      </trkpt>
      <trkpt lat="44.34208" lon="5.83676">
        <ele>610</ele>
        <time>2019-06-12T11:41:22Z</time>
      </trkpt>
      <trkpt lat="44.34213" lon="5.83682">
        <ele>610</ele>
        <time>2019-06-12T11:41:23Z</time>
      </trkpt>
      <trkpt lat="44.34218" lon="5.83688">
        <ele>610</ele>
        <time>2019-06-12T11:41:24Z</time>
      </trkpt>
      <trkpt lat="44.34222" lon="5.83694">
        <ele>610</ele>
        <time>2019-06-12T11:41:25Z</time>
      </trkpt>
      <trkpt lat="44.34227" lon="5.837">
        <ele>610</ele>
        <time>2019-06-12T11:41:26Z</time>
      </trkpt>
      <trkpt lat="44.34232" lon="5.83706">
        <ele>610</ele>
        <time>2019-06-12T11:41:27Z</time>
      </trkpt>
      <trkpt lat="44.34236" lon="5.83712">
        <ele>610</ele>
        <time>2019-06-12T11:41:28Z</time>
      </trkpt>
      <trkpt lat="44.3424" lon="5.83717">
        <ele>610</ele>
        <time>2019-06-12T11:41:29Z</time>
      </trkpt>
      <trkpt lat="44.34245" lon="5.83723">
        <ele>610</ele>
        <time>2019-06-12T11:41:30Z</time>
      </trkpt>
      <trkpt lat="44.34249" lon="5.83729">
        <ele>610</ele>
        <time>2019-06-12T11:41:31Z</time>
      </trkpt>
      <trkpt lat="44.34254" lon="5.83734">
        <ele>610</ele>
        <time>2019-06-12T11:41:32Z</time>
      </trkpt>
      <trkpt lat="44.34258" lon="5.8374">
        <ele>610</ele>
        <time>2019-06-12T11:41:33Z</time>
      </trkpt>
      <trkpt lat="44.34262" lon="5.83746">
        <ele>610</ele>
        <time>2019-06-12T11:41:34Z</time>
      </trkpt>
      <trkpt lat="44.34267" lon="5.83751">
        <ele>610</ele>
        <time>2019-06-12T11:41:35Z</time>
      </trkpt>
      <trkpt lat="44.34271" lon="5.83757">
        <ele>610</ele>
        <time>2019-06-12T11:41:36Z</time>
      </trkpt>
      <trkpt lat="44.34275" lon="5.83763">
        <ele>610</ele>
        <time>2019-06-12T11:41:37Z</time>
      </trkpt>
      <trkpt lat="44.3428" lon="5.83768">
        <ele>610</ele>
        <time>2019-06-12T11:41:38Z</time>
      </trkpt>
      <trkpt lat="44.34284" lon="5.83774">
        <ele>610</ele>
        <time>2019-06-12T11:41:39Z</time>
      </trkpt>
      <trkpt lat="44.34288" lon="5.83779">
        <ele>610</ele>
        <time>2019-06-12T11:41:40Z</time>
      </trkpt>
      <trkpt lat="44.34292" lon="5.83784">
        <ele>610</ele>
        <time>2019-06-12T11:41:41Z</time>
      </trkpt>
      <trkpt lat="44.34296" lon="5.8379">
        <ele>610</ele>
        <time>2019-06-12T11:41:42Z</time>
      </trkpt>
      <trkpt lat="44.34301" lon="5.83795">
        <ele>610</ele>
        <time>2019-06-12T11:41:43Z</time>
      </trkpt>
      <trkpt lat="44.34305" lon="5.83801">
        <ele>610</ele>
        <time>2019-06-12T11:41:44Z</time>
      </trkpt>
      <trkpt lat="44.34309" lon="5.83806">
        <ele>610</ele>
        <time>2019-06-12T11:41:45Z</time>
      </trkpt>
      <trkpt lat="44.34313" lon="5.83812">
        <ele>610</ele>
        <time>2019-06-12T11:41:46Z</time>
      </trkpt>
      <trkpt lat="44.34317" lon="5.83817">
        <ele>610</ele>
        <time>2019-06-12T11:41:47Z</time>
      </trkpt>
      <trkpt lat="44.34322" lon="5.83823">
        <ele>610</ele>
        <time>2019-06-12T11:41:48Z</time>
      </trkpt>
      <trkpt lat="44.34326" lon="5.83828">
        <ele>610</ele>
        <time>2019-06-12T11:41:49Z</time>
      </trkpt>
      <trkpt lat="44.3433" lon="5.83834">
        <ele>610</ele>
        <time>2019-06-12T11:41:50Z</time>
      </trkpt>
      <trkpt lat="44.34334" lon="5.83839">
        <ele>610</ele>
        <time>2019-06-12T11:41:51Z</time>
      </trkpt>
      <trkpt lat="44.34338" lon="5.83845">
        <ele>610</ele>
        <time>2019-06-12T11:41:52Z</time>
      </trkpt>
      <trkpt lat="44.34343" lon="5.8385">
        <ele>610</ele>
        <time>2019-06-12T11:41:53Z</time>
      </trkpt>
      <trkpt lat="44.34347" lon="5.83855">
        <ele>610</ele>
        <time>2019-06-12T11:41:54Z</time>
      </trkpt>
      <trkpt lat="44.34351" lon="5.83861">
        <ele>610</ele>
        <time>2019-06-12T11:41:55Z</time>
      </trkpt>
      <trkpt lat="44.34355" lon="5.83866">
        <ele>610</ele>
        <time>2019-06-12T11:41:56Z</time>
      </trkpt>
      <trkpt lat="44.34359" lon="5.83872">
        <ele>610</ele>
        <time>2019-06-12T11:41:57Z</time>
      </trkpt>
      <trkpt lat="44.34363" lon="5.83877">
        <ele>610</ele>
        <time>2019-06-12T11:41:58Z</time>
      </trkpt>
      <trkpt lat="44.34367" lon="5.83882">
        <ele>610</ele>
        <time>2019-06-12T11:41:59Z</time>
      </trkpt>
      <trkpt lat="44.34372" lon="5.83887">
        <ele>610</ele>
        <time>2019-06-12T11:42:00Z</time>
      </trkpt>
      <trkpt lat="44.34376" lon="5.83892">
        <ele>610</ele>
        <time>2019-06-12T11:42:01Z</time>
      </trkpt>
      <trkpt lat="44.3438" lon="5.83898">
        <ele>610</ele>
        <time>2019-06-12T11:42:02Z</time>
      </trkpt>
      <trkpt lat="44.34384" lon="5.83903">
        <ele>610</ele>
        <time>2019-06-12T11:42:03Z</time>
      </trkpt>
      <trkpt lat="44.34388" lon="5.83908">
        <ele>610</ele>
        <time>2019-06-12T11:42:04Z</time>
      </trkpt>
      <trkpt lat="44.34392" lon="5.83914">
        <ele>610</ele>
        <time>2019-06-12T11:42:05Z</time>
      </trkpt>
      <trkpt lat="44.34396" lon="5.83919">
        <ele>610</ele>
        <time>2019-06-12T11:42:06Z</time>
      </trkpt>
      <trkpt lat="44.344" lon="5.83924">
        <ele>610</ele>
        <time>2019-06-12T11:42:07Z</time>
      </trkpt>
      <trkpt lat="44.34404" lon="5.83929">
        <ele>610</ele>
        <time>2019-06-12T11:42:08Z</time>
      </trkpt>
      <trkpt lat="44.34409" lon="5.83934">
        <ele>610</ele>
        <time>2019-06-12T11:42:09Z</time>
      </trkpt>
      <trkpt lat="44.34413" lon="5.8394">
        <ele>610</ele>
        <time>2019-06-12T11:42:10Z</time>
      </trkpt>
      <trkpt lat="44.34417" lon="5.83945">
        <ele>610</ele>
        <time>2019-06-12T11:42:11Z</time>
      </trkpt>
      <trkpt lat="44.34421" lon="5.83951">
        <ele>610</ele>
        <time>2019-06-12T11:42:12Z</time>
      </trkpt>
      <trkpt lat="44.34425" lon="5.83956">
        <ele>610</ele>
        <time>2019-06-12T11:42:13Z</time>
      </trkpt>
      <trkpt lat="44.3443" lon="5.83962">
        <ele>610</ele>
        <time>2019-06-12T11:42:14Z</time>
      </trkpt>
      <trkpt lat="44.34434" lon="5.83967">
        <ele>610</ele>
        <time>2019-06-12T11:42:15Z</time>
      </trkpt>
      <trkpt lat="44.34438" lon="5.83973">
        <ele>610</ele>
        <time>2019-06-12T11:42:16Z</time>
      </trkpt>
      <trkpt lat="44.34443" lon="5.83979">
        <ele>610</ele>
        <time>2019-06-12T11:42:17Z</time>
      </trkpt>
      <trkpt lat="44.34447" lon="5.83984">
        <ele>610</ele>
        <time>2019-06-12T11:42:18Z</time>
      </trkpt>
      <trkpt lat="44.34451" lon="5.8399">
        <ele>610</ele>
        <time>2019-06-12T11:42:19Z</time>
      </trkpt>
      <trkpt lat="44.34455" lon="5.83995">
        <ele>610</ele>
        <time>2019-06-12T11:42:20Z</time>
      </trkpt>
      <trkpt lat="44.3446" lon="5.84001">
        <ele>610</ele>
        <time>2019-06-12T11:42:21Z</time>
      </trkpt>
      <trkpt lat="44.34464" lon="5.84007">
        <ele>610</ele>
        <time>2019-06-12T11:42:22Z</time>
      </trkpt>
      <trkpt lat="44.34469" lon="5.84012">
        <ele>610</ele>
        <time>2019-06-12T11:42:23Z</time>
      </trkpt>
      <trkpt lat="44.34473" lon="5.84018">
        <ele>610</ele>
        <time>2019-06-12T11:42:24Z</time>
      </trkpt>
      <trkpt lat="44.34478" lon="5.84024">
        <ele>610</ele>
        <time>2019-06-12T11:42:25Z</time>
      </trkpt>
      <trkpt lat="44.34483" lon="5.8403">
        <ele>610</ele>
        <time>2019-06-12T11:42:26Z</time>
      </trkpt>
      <trkpt lat="44.34487" lon="5.84036">
        <ele>610</ele>
        <time>2019-06-12T11:42:27Z</time>
      </trkpt>
      <trkpt lat="44.34492" lon="5.84042">
        <ele>610</ele>
        <time>2019-06-12T11:42:28Z</time>
      </trkpt>
      <trkpt lat="44.34497" lon="5.84048">
        <ele>610</ele>
        <time>2019-06-12T11:42:29Z</time>
      </trkpt>
      <trkpt lat="44.34502" lon="5.84054">
        <ele>610</ele>
        <time>2019-06-12T11:42:30Z</time>
      </trkpt>
      <trkpt lat="44.34506" lon="5.8406">
        <ele>610</ele>
        <time>2019-06-12T11:42:31Z</time>
      </trkpt>
      <trkpt lat="44.34511" lon="5.84067">
        <ele>610</ele>
        <time>2019-06-12T11:42:32Z</time>
      </trkpt>
      <trkpt lat="44.34516" lon="5.84073">
        <ele>610</ele>
        <time>2019-06-12T11:42:33Z</time>
      </trkpt>
      <trkpt lat="44.34521" lon="5.84079">
        <ele>610</ele>
        <time>2019-06-12T11:42:34Z</time>
      </trkpt>
      <trkpt lat="44.34526" lon="5.84086">
        <ele>610</ele>
        <time>2019-06-12T11:42:35Z</time>
      </trkpt>
      <trkpt lat="44.34531" lon="5.84092">
        <ele>610</ele>
        <time>2019-06-12T11:42:36Z</time>
      </trkpt>
      <trkpt lat="44.34535" lon="5.84098">
        <ele>610</ele>
        <time>2019-06-12T11:42:37Z</time>
      </trkpt>
      <trkpt lat="44.3454" lon="5.84104">
        <ele>610</ele>
        <time>2019-06-12T11:42:38Z</time>
      </trkpt>
      <trkpt lat="44.34545" lon="5.84111">
        <ele>610</ele>
        <time>2019-06-12T11:42:39Z</time>
      </trkpt>
      <trkpt lat="44.34549" lon="5.84117">
        <ele>610</ele>
        <time>2019-06-12T11:42:40Z</time>
      </trkpt>
      <trkpt lat="44.34554" lon="5.84123">
        <ele>610</ele>
        <time>2019-06-12T11:42:41Z</time>
      </trkpt>
      <trkpt lat="44.34559" lon="5.84129">
        <ele>610</ele>
        <time>2019-06-12T11:42:42Z</time>
      </trkpt>
      <trkpt lat="44.34563" lon="5.84135">
        <ele>610</ele>
        <time>2019-06-12T11:42:43Z</time>
      </trkpt>
      <trkpt lat="44.34568" lon="5.84142">
        <ele>610</ele>
        <time>2019-06-12T11:42:44Z</time>
      </trkpt>
      <trkpt lat="44.34572" lon="5.84148">
        <ele>610</ele>
        <time>2019-06-12T11:42:45Z</time>
      </trkpt>
      <trkpt lat="44.34576" lon="5.84154">
        <ele>610</ele>
        <time>2019-06-12T11:42:46Z</time>
      </trkpt>
      <trkpt lat="44.34581" lon="5.8416">
        <ele>610</ele>
        <time>2019-06-12T11:42:47Z</time>
      </trkpt>
      <trkpt lat="44.34585" lon="5.84166">
        <ele>610</ele>
        <time>2019-06-12T11:42:48Z</time>
      </trkpt>
      <trkpt lat="44.34589" lon="5.84173">
        <ele>610</ele>
        <time>2019-06-12T11:42:49Z</time>
      </trkpt>
      <trkpt lat="44.34593" lon="5.84179">
        <ele>610</ele>
        <time>2019-06-12T11:42:50Z</time>
      </trkpt>
      <trkpt lat="44.34597" lon="5.84186">
        <ele>610</ele>
        <time>2019-06-12T11:42:51Z</time>
      </trkpt>
      <trkpt lat="44.346" lon="5.84193">
        <ele>610</ele>
        <time>2019-06-12T11:42:52Z</time>
      </trkpt>
      <trkpt lat="44.34604" lon="5.84199">
        <ele>610</ele>
        <time>2019-06-12T11:42:53Z</time>
      </trkpt>
      <trkpt lat="44.34607" lon="5.84207">
        <ele>610</ele>
        <time>2019-06-12T11:42:54Z</time>
      </trkpt>
      <trkpt lat="44.3461" lon="5.84214">
        <ele>610</ele>
        <time>2019-06-12T11:42:55Z</time>
      </trkpt>
      <trkpt lat="44.34612" lon="5.84221">
        <ele>610</ele>
        <time>2019-06-12T11:42:56Z</time>
      </trkpt>
      <trkpt lat="44.34614" lon="5.84229">
        <ele>611</ele>
        <time>2019-06-12T11:42:57Z</time>
      </trkpt>
      <trkpt lat="44.34616" lon="5.84236">
        <ele>611</ele>
        <time>2019-06-12T11:42:58Z</time>
      </trkpt>
      <trkpt lat="44.34618" lon="5.84243">
        <ele>611</ele>
        <time>2019-06-12T11:42:59Z</time>
      </trkpt>
      <trkpt lat="44.3462" lon="5.84251">
        <ele>612</ele>
        <time>2019-06-12T11:43:00Z</time>
      </trkpt>
      <trkpt lat="44.34621" lon="5.84259">
        <ele>612</ele>
        <time>2019-06-12T11:43:01Z</time>
      </trkpt>
      <trkpt lat="44.34623" lon="5.84266">
        <ele>612</ele>
        <time>2019-06-12T11:43:02Z</time>
      </trkpt>
      <trkpt lat="44.34624" lon="5.84273">
        <ele>612</ele>
        <time>2019-06-12T11:43:03Z</time>
      </trkpt>
      <trkpt lat="44.34626" lon="5.84281">
        <ele>612</ele>
        <time>2019-06-12T11:43:04Z</time>
      </trkpt>
      <trkpt lat="44.34627" lon="5.84289">
        <ele>613</ele>
        <time>2019-06-12T11:43:05Z</time>
      </trkpt>
      <trkpt lat="44.34629" lon="5.84297">
        <ele>613</ele>
        <time>2019-06-12T11:43:06Z</time>
      </trkpt>
      <trkpt lat="44.3463" lon="5.84304">
        <ele>613</ele>
        <time>2019-06-12T11:43:07Z</time>
      </trkpt>
      <trkpt lat="44.34632" lon="5.84312">
        <ele>613</ele>
        <time>2019-06-12T11:43:08Z</time>
      </trkpt>
      <trkpt lat="44.34633" lon="5.84319">
        <ele>614</ele>
        <time>2019-06-12T11:43:09Z</time>
      </trkpt>
      <trkpt lat="44.34635" lon="5.84327">
        <ele>614</ele>
        <time>2019-06-12T11:43:10Z</time>
      </trkpt>
      <trkpt lat="44.34636" lon="5.84334">
        <ele>614</ele>
        <time>2019-06-12T11:43:11Z</time>
      </trkpt>
      <trkpt lat="44.34638" lon="5.84341">
        <ele>615</ele>
        <time>2019-06-12T11:43:12Z</time>
      </trkpt>
      <trkpt lat="44.3464" lon="5.84348">
        <ele>615</ele>
        <time>2019-06-12T11:43:13Z</time>
      </trkpt>
      <trkpt lat="44.34642" lon="5.84355">
        <ele>615</ele>
        <time>2019-06-12T11:43:14Z</time>
      </trkpt>
      <trkpt lat="44.34645" lon="5.84362">
        <ele>616</ele>
        <time>2019-06-12T11:43:15Z</time>
      </trkpt>
      <trkpt lat="44.34647" lon="5.84369">
        <ele>616</ele>
        <time>2019-06-12T11:43:16Z</time>
      </trkpt>
      <trkpt lat="44.3465" lon="5.84375">
        <ele>616</ele>
        <time>2019-06-12T11:43:17Z</time>
      </trkpt>
      <trkpt lat="44.34653" lon="5.84382">
        <ele>617</ele>
        <time>2019-06-12T11:43:18Z</time>
      </trkpt>
      <trkpt lat="44.34656" lon="5.84388">
        <ele>617</ele>
        <time>2019-06-12T11:43:19Z</time>
      </trkpt>
      <trkpt lat="44.34659" lon="5.84395">
        <ele>618</ele>
        <time>2019-06-12T11:43:20Z</time>
      </trkpt>
      <trkpt lat="44.34662" lon="5.84401">
        <ele>618</ele>
        <time>2019-06-12T11:43:21Z</time>
      </trkpt>
      <trkpt lat="44.34666" lon="5.84408">
        <ele>619</ele>
        <time>2019-06-12T11:43:22Z</time>
      </trkpt>
      <trkpt lat="44.34669" lon="5.84414">
        <ele>619</ele>
        <time>2019-06-12T11:43:23Z</time>
      </trkpt>
      <trkpt lat="44.34673" lon="5.8442">
        <ele>619</ele>
        <time>2019-06-12T11:43:24Z</time>
      </trkpt>
      <trkpt lat="44.34676" lon="5.84425">
        <ele>620</ele>
        <time>2019-06-12T11:43:25Z</time>
      </trkpt>
      <trkpt lat="44.3468" lon="5.84431">
        <ele>620</ele>
        <time>2019-06-12T11:43:26Z</time>
      </trkpt>
      <trkpt lat="44.34684" lon="5.84436">
        <ele>620</ele>
        <time>2019-06-12T11:43:27Z</time>
      </trkpt>
      <trkpt lat="44.34688" lon="5.84441">
        <ele>620</ele>
        <time>2019-06-12T11:43:28Z</time>
      </trkpt>
      <trkpt lat="44.34692" lon="5.84445">
        <ele>621</ele>
        <time>2019-06-12T11:43:29Z</time>
      </trkpt>
      <trkpt lat="44.34696" lon="5.8445">
        <ele>621</ele>
        <time>2019-06-12T11:43:30Z</time>
      </trkpt>
      <trkpt lat="44.347" lon="5.84455">
        <ele>621</ele>
        <time>2019-06-12T11:43:31Z</time>
      </trkpt>
      <trkpt lat="44.34703" lon="5.84459">
        <ele>621</ele>
        <time>2019-06-12T11:43:32Z</time>
      </trkpt>
      <trkpt lat="44.34708" lon="5.84464">
        <ele>621</ele>
        <time>2019-06-12T11:43:33Z</time>
      </trkpt>
      <trkpt lat="44.34711" lon="5.84469">
        <ele>621</ele>
        <time>2019-06-12T11:43:34Z</time>
      </trkpt>
      <trkpt lat="44.34715" lon="5.84474">
        <ele>621</ele>
        <time>2019-06-12T11:43:35Z</time>
      </trkpt>
      <trkpt lat="44.34719" lon="5.84479">
        <ele>621</ele>
        <time>2019-06-12T11:43:36Z</time>
      </trkpt>
      <trkpt lat="44.34723" lon="5.84484">
        <ele>621</ele>
        <time>2019-06-12T11:43:37Z</time>
      </trkpt>
      <trkpt lat="44.34727" lon="5.84489">
        <ele>621</ele>
        <time>2019-06-12T11:43:38Z</time>
      </trkpt>
      <trkpt lat="44.34732" lon="5.84493">
        <ele>621</ele>
        <time>2019-06-12T11:43:39Z</time>
      </trkpt>
      <trkpt lat="44.34736" lon="5.84498">
        <ele>621</ele>
        <time>2019-06-12T11:43:40Z</time>
      </trkpt>
      <trkpt lat="44.3474" lon="5.84503">
        <ele>621</ele>
        <time>2019-06-12T11:43:41Z</time>
      </trkpt>
      <trkpt lat="44.34744" lon="5.84508">
        <ele>622</ele>
        <time>2019-06-12T11:43:42Z</time>
      </trkpt>
      <trkpt lat="44.34748" lon="5.84513">
        <ele>622</ele>
        <time>2019-06-12T11:43:43Z</time>
      </trkpt>
      <trkpt lat="44.34752" lon="5.84517">
        <ele>622</ele>
        <time>2019-06-12T11:43:44Z</time>
      </trkpt>
      <trkpt lat="44.34756" lon="5.84522">
        <ele>622</ele>
        <time>2019-06-12T11:43:45Z</time>
      </trkpt>
      <trkpt lat="44.3476" lon="5.84527">
        <ele>622</ele>
        <time>2019-06-12T11:43:46Z</time>
      </trkpt>
      <trkpt lat="44.34764" lon="5.84531">
        <ele>622</ele>
        <time>2019-06-12T11:43:47Z</time>
      </trkpt>
      <trkpt lat="44.34769" lon="5.84536">
        <ele>622</ele>
        <time>2019-06-12T11:43:48Z</time>
      </trkpt>
      <trkpt lat="44.34772" lon="5.84541">
        <ele>622</ele>
        <time>2019-06-12T11:43:49Z</time>
      </trkpt>
      <trkpt lat="44.34777" lon="5.84546">
        <ele>622</ele>
        <time>2019-06-12T11:43:50Z</time>
      </trkpt>
      <trkpt lat="44.34781" lon="5.84551">
        <ele>622</ele>
        <time>2019-06-12T11:43:51Z</time>
      </trkpt>
      <trkpt lat="44.34784" lon="5.84555">
        <ele>623</ele>
        <time>2019-06-12T11:43:52Z</time>
      </trkpt>
      <trkpt lat="44.34789" lon="5.8456">
        <ele>623</ele>
        <time>2019-06-12T11:43:53Z</time>
      </trkpt>
      <trkpt lat="44.34792" lon="5.84565">
        <ele>623</ele>
        <time>2019-06-12T11:43:54Z</time>
      </trkpt>
      <trkpt lat="44.34797" lon="5.8457">
        <ele>623</ele>
        <time>2019-06-12T11:43:55Z</time>
      </trkpt>
      <trkpt lat="44.34801" lon="5.84575">
        <ele>623</ele>
        <time>2019-06-12T11:43:56Z</time>
      </trkpt>
      <trkpt lat="44.34805" lon="5.84579">
        <ele>623</ele>
        <time>2019-06-12T11:43:57Z</time>
      </trkpt>
      <trkpt lat="44.34809" lon="5.84584">
        <ele>623</ele>
        <time>2019-06-12T11:43:58Z</time>
      </trkpt>
      <trkpt lat="44.34813" lon="5.84589">
        <ele>623</ele>
        <time>2019-06-12T11:43:59Z</time>
      </trkpt>
      <trkpt lat="44.34817" lon="5.84594">
        <ele>623</ele>
        <time>2019-06-12T11:44:00Z</time>
      </trkpt>
      <trkpt lat="44.34821" lon="5.84599">
        <ele>623</ele>
        <time>2019-06-12T11:44:01Z</time>
      </trkpt>
      <trkpt lat="44.34825" lon="5.84605">
        <ele>623</ele>
        <time>2019-06-12T11:44:02Z</time>
      </trkpt>
      <trkpt lat="44.34829" lon="5.8461">
        <ele>623</ele>
        <time>2019-06-12T11:44:03Z</time>
      </trkpt>
      <trkpt lat="44.34833" lon="5.84615">
        <ele>623</ele>
        <time>2019-06-12T11:44:04Z</time>
      </trkpt>
      <trkpt lat="44.34837" lon="5.84621">
        <ele>623</ele>
        <time>2019-06-12T11:44:05Z</time>
      </trkpt>
      <trkpt lat="44.34841" lon="5.84626">
        <ele>623</ele>
        <time>2019-06-12T11:44:06Z</time>
      </trkpt>
      <trkpt lat="44.34845" lon="5.84632">
        <ele>623</ele>
        <time>2019-06-12T11:44:07Z</time>
      </trkpt>
      <trkpt lat="44.34848" lon="5.84638">
        <ele>624</ele>
        <time>2019-06-12T11:44:08Z</time>
      </trkpt>
      <trkpt lat="44.34852" lon="5.84644">
        <ele>624</ele>
        <time>2019-06-12T11:44:09Z</time>
      </trkpt>
      <trkpt lat="44.34856" lon="5.8465">
        <ele>624</ele>
        <time>2019-06-12T11:44:10Z</time>
      </trkpt>
      <trkpt lat="44.34859" lon="5.84656">
        <ele>624</ele>
        <time>2019-06-12T11:44:11Z</time>
      </trkpt>
      <trkpt lat="44.34863" lon="5.84662">
        <ele>624</ele>
        <time>2019-06-12T11:44:12Z</time>
      </trkpt>
      <trkpt lat="44.34866" lon="5.84668">
        <ele>624</ele>
        <time>2019-06-12T11:44:13Z</time>
      </trkpt>
      <trkpt lat="44.34869" lon="5.84675">
        <ele>624</ele>
        <time>2019-06-12T11:44:14Z</time>
      </trkpt>
      <trkpt lat="44.34873" lon="5.84681">
        <ele>624</ele>
        <time>2019-06-12T11:44:15Z</time>
      </trkpt>
      <trkpt lat="44.34876" lon="5.84687">
        <ele>624</ele>
        <time>2019-06-12T11:44:16Z</time>
      </trkpt>
      <trkpt lat="44.3488" lon="5.84693">
        <ele>624</ele>
        <time>2019-06-12T11:44:17Z</time>
      </trkpt>
      <trkpt lat="44.34883" lon="5.84699">
        <ele>624</ele>
        <time>2019-06-12T11:44:18Z</time>
      </trkpt>
      <trkpt lat="44.34887" lon="5.84704">
        <ele>624</ele>
        <time>2019-06-12T11:44:19Z</time>
      </trkpt>
      <trkpt lat="44.3489" lon="5.8471">
        <ele>624</ele>
        <time>2019-06-12T11:44:20Z</time>
      </trkpt>
      <trkpt lat="44.34894" lon="5.84716">
        <ele>624</ele>
        <time>2019-06-12T11:44:21Z</time>
      </trkpt>
      <trkpt lat="44.34898" lon="5.84721">
        <ele>624</ele>
        <time>2019-06-12T11:44:22Z</time>
      </trkpt>
      <trkpt lat="44.34902" lon="5.84726">
        <ele>625</ele>
        <time>2019-06-12T11:44:23Z</time>
      </trkpt>
      <trkpt lat="44.34906" lon="5.84731">
        <ele>625</ele>
        <time>2019-06-12T11:44:24Z</time>
      </trkpt>
      <trkpt lat="44.3491" lon="5.84737">
        <ele>625</ele>
        <time>2019-06-12T11:44:25Z</time>
      </trkpt>
      <trkpt lat="44.34914" lon="5.84742">
        <ele>625</ele>
        <time>2019-06-12T11:44:26Z</time>
      </trkpt>
      <trkpt lat="44.34919" lon="5.84747">
        <ele>625</ele>
        <time>2019-06-12T11:44:27Z</time>
      </trkpt>
      <trkpt lat="44.34924" lon="5.84751">
        <ele>625</ele>
        <time>2019-06-12T11:44:28Z</time>
      </trkpt>
      <trkpt lat="44.34929" lon="5.84756">
        <ele>625</ele>
        <time>2019-06-12T11:44:29Z</time>
      </trkpt>
      <trkpt lat="44.34933" lon="5.8476">
        <ele>625</ele>
        <time>2019-06-12T11:44:30Z</time>
      </trkpt>
      <trkpt lat="44.34938" lon="5.84764">
        <ele>626</ele>
        <time>2019-06-12T11:44:31Z</time>
      </trkpt>
      <trkpt lat="44.34943" lon="5.84768">
        <ele>626</ele>
        <time>2019-06-12T11:44:32Z</time>
      </trkpt>
      <trkpt lat="44.34948" lon="5.84772">
        <ele>626</ele>
        <time>2019-06-12T11:44:33Z</time>
      </trkpt>
      <trkpt lat="44.34953" lon="5.84776">
        <ele>626</ele>
        <time>2019-06-12T11:44:34Z</time>
      </trkpt>
      <trkpt lat="44.34957" lon="5.8478">
        <ele>626</ele>
        <time>2019-06-12T11:44:35Z</time>
      </trkpt>
      <trkpt lat="44.34962" lon="5.84784">
        <ele>626</ele>
        <time>2019-06-12T11:44:36Z</time>
      </trkpt>
      <trkpt lat="44.34967" lon="5.84788">
        <ele>626</ele>
        <time>2019-06-12T11:44:37Z</time>
      </trkpt>
      <trkpt lat="44.34971" lon="5.84792">
        <ele>626</ele>
        <time>2019-06-12T11:44:38Z</time>
      </trkpt>
      <trkpt lat="44.34976" lon="5.84796">
        <ele>626</ele>
        <time>2019-06-12T11:44:39Z</time>
      </trkpt>
      <trkpt lat="44.3498" lon="5.84801">
        <ele>626</ele>
        <time>2019-06-12T11:44:40Z</time>
      </trkpt>
      <trkpt lat="44.34985" lon="5.84804">
        <ele>626</ele>
        <time>2019-06-12T11:44:41Z</time>
      </trkpt>
      <trkpt lat="44.3499" lon="5.84809">
        <ele>626</ele>
        <time>2019-06-12T11:44:42Z</time>
      </trkpt>
      <trkpt lat="44.34994" lon="5.84813">
        <ele>626</ele>
        <time>2019-06-12T11:44:43Z</time>
      </trkpt>
      <trkpt lat="44.34999" lon="5.84817">
        <ele>626</ele>
        <time>2019-06-12T11:44:44Z</time>
      </trkpt>
      <trkpt lat="44.35003" lon="5.84821">
        <ele>626</ele>
        <time>2019-06-12T11:44:45Z</time>
      </trkpt>
      <trkpt lat="44.35007" lon="5.84825">
        <ele>626</ele>
        <time>2019-06-12T11:44:46Z</time>
      </trkpt>
      <trkpt lat="44.35012" lon="5.84829">
        <ele>626</ele>
        <time>2019-06-12T11:44:47Z</time>
      </trkpt>
      <trkpt lat="44.35015" lon="5.84833">
        <ele>626</ele>
        <time>2019-06-12T11:44:48Z</time>
      </trkpt>
      <trkpt lat="44.3502" lon="5.84837">
        <ele>626</ele>
        <time>2019-06-12T11:44:49Z</time>
      </trkpt>
      <trkpt lat="44.35023" lon="5.84842">
        <ele>626</ele>
        <time>2019-06-12T11:44:50Z</time>
      </trkpt>
      <trkpt lat="44.35027" lon="5.84846">
        <ele>626</ele>
        <time>2019-06-12T11:44:51Z</time>
      </trkpt>
      <trkpt lat="44.35031" lon="5.8485">
        <ele>626</ele>
        <time>2019-06-12T11:44:52Z</time>
      </trkpt>
      <trkpt lat="44.35034" lon="5.84855">
        <ele>626</ele>
        <time>2019-06-12T11:44:53Z</time>
      </trkpt>
      <trkpt lat="44.35038" lon="5.84859">
        <ele>626</ele>
        <time>2019-06-12T11:44:54Z</time>
      </trkpt>
      <trkpt lat="44.35041" lon="5.84864">
        <ele>626</ele>
        <time>2019-06-12T11:44:55Z</time>
      </trkpt>
      <trkpt lat="44.35045" lon="5.84868">
        <ele>626</ele>
        <time>2019-06-12T11:44:56Z</time>
      </trkpt>
      <trkpt lat="44.35048" lon="5.84873">
        <ele>626</ele>
        <time>2019-06-12T11:44:57Z</time>
      </trkpt>
      <trkpt lat="44.35052" lon="5.84878">
        <ele>626</ele>
        <time>2019-06-12T11:44:58Z</time>
      </trkpt>
      <trkpt lat="44.35055" lon="5.84883">
        <ele>626</ele>
        <time>2019-06-12T11:44:59Z</time>
      </trkpt>
      <trkpt lat="44.35058" lon="5.84888">
        <ele>626</ele>
        <time>2019-06-12T11:45:00Z</time>
      </trkpt>
      <trkpt lat="44.35061" lon="5.84893">
        <ele>626</ele>
        <time>2019-06-12T11:45:01Z</time>
      </trkpt>
      <trkpt lat="44.35064" lon="5.84897">
        <ele>626</ele>
        <time>2019-06-12T11:45:02Z</time>
      </trkpt>
      <trkpt lat="44.35068" lon="5.84902">
        <ele>626</ele>
        <time>2019-06-12T11:45:03Z</time>
      </trkpt>
      <trkpt lat="44.35071" lon="5.84907">
        <ele>626</ele>
        <time>2019-06-12T11:45:04Z</time>
      </trkpt>
      <trkpt lat="44.35074" lon="5.84912">
        <ele>626</ele>
        <time>2019-06-12T11:45:05Z</time>
      </trkpt>
      <trkpt lat="44.35077" lon="5.84917">
        <ele>626</ele>
        <time>2019-06-12T11:45:06Z</time>
      </trkpt>
      <trkpt lat="44.3508" lon="5.84923">
        <ele>626</ele>
        <time>2019-06-12T11:45:07Z</time>
      </trkpt>
      <trkpt lat="44.35083" lon="5.84928">
        <ele>626</ele>
        <time>2019-06-12T11:45:08Z</time>
      </trkpt>
      <trkpt lat="44.35086" lon="5.84933">
        <ele>626</ele>
        <time>2019-06-12T11:45:09Z</time>
      </trkpt>
      <trkpt lat="44.35088" lon="5.84939">
        <ele>626</ele>
        <time>2019-06-12T11:45:10Z</time>
      </trkpt>
      <trkpt lat="44.35091" lon="5.84944">
        <ele>626</ele>
        <time>2019-06-12T11:45:11Z</time>
      </trkpt>
      <trkpt lat="44.35094" lon="5.84949">
        <ele>626</ele>
        <time>2019-06-12T11:45:12Z</time>
      </trkpt>
      <trkpt lat="44.35097" lon="5.84955">
        <ele>626</ele>
        <time>2019-06-12T11:45:13Z</time>
      </trkpt>
      <trkpt lat="44.351" lon="5.84961">
        <ele>626</ele>
        <time>2019-06-12T11:45:14Z</time>
      </trkpt>
      <trkpt lat="44.35103" lon="5.84966">
        <ele>626</ele>
        <time>2019-06-12T11:45:15Z</time>
      </trkpt>
      <trkpt lat="44.35105" lon="5.84972">
        <ele>627</ele>
        <time>2019-06-12T11:45:16Z</time>
      </trkpt>
      <trkpt lat="44.35108" lon="5.84977">
        <ele>627</ele>
        <time>2019-06-12T11:45:17Z</time>
      </trkpt>
      <trkpt lat="44.3511" lon="5.84983">
        <ele>628</ele>
        <time>2019-06-12T11:45:18Z</time>
      </trkpt>
      <trkpt lat="44.35113" lon="5.84989">
        <ele>628</ele>
        <time>2019-06-12T11:45:19Z</time>
      </trkpt>
      <trkpt lat="44.35116" lon="5.84995">
        <ele>629</ele>
        <time>2019-06-12T11:45:20Z</time>
      </trkpt>
      <trkpt lat="44.35118" lon="5.85">
        <ele>629</ele>
        <time>2019-06-12T11:45:21Z</time>
      </trkpt>
      <trkpt lat="44.35121" lon="5.85006">
        <ele>630</ele>
        <time>2019-06-12T11:45:22Z</time>
      </trkpt>
      <trkpt lat="44.35124" lon="5.85011">
        <ele>630</ele>
        <time>2019-06-12T11:45:23Z</time>
      </trkpt>
      <trkpt lat="44.35126" lon="5.85017">
        <ele>630</ele>
        <time>2019-06-12T11:45:24Z</time>
      </trkpt>
      <trkpt lat="44.35129" lon="5.85023">
        <ele>631</ele>
        <time>2019-06-12T11:45:25Z</time>
      </trkpt>
      <trkpt lat="44.35132" lon="5.85029">
        <ele>631</ele>
        <time>2019-06-12T11:45:26Z</time>
      </trkpt>
      <trkpt lat="44.35135" lon="5.85034">
        <ele>631</ele>
        <time>2019-06-12T11:45:27Z</time>
      </trkpt>
      <trkpt lat="44.35138" lon="5.8504">
        <ele>632</ele>
        <time>2019-06-12T11:45:28Z</time>
      </trkpt>
      <trkpt lat="44.35141" lon="5.85045">
        <ele>632</ele>
        <time>2019-06-12T11:45:29Z</time>
      </trkpt>
      <trkpt lat="44.35145" lon="5.85051">
        <ele>632</ele>
        <time>2019-06-12T11:45:30Z</time>
      </trkpt>
      <trkpt lat="44.35148" lon="5.85056">
        <ele>632</ele>
        <time>2019-06-12T11:45:31Z</time>
      </trkpt>
      <trkpt lat="44.35151" lon="5.85062">
        <ele>632</ele>
        <time>2019-06-12T11:45:32Z</time>
      </trkpt>
      <trkpt lat="44.35155" lon="5.85067">
        <ele>633</ele>
        <time>2019-06-12T11:45:33Z</time>
      </trkpt>
      <trkpt lat="44.35158" lon="5.85071">
        <ele>633</ele>
        <time>2019-06-12T11:45:34Z</time>
      </trkpt>
      <trkpt lat="44.35162" lon="5.85076">
        <ele>633</ele>
        <time>2019-06-12T11:45:35Z</time>
      </trkpt>
      <trkpt lat="44.35166" lon="5.8508">
        <ele>633</ele>
        <time>2019-06-12T11:45:36Z</time>
      </trkpt>
      <trkpt lat="44.3517" lon="5.85085">
        <ele>633</ele>
        <time>2019-06-12T11:45:37Z</time>
      </trkpt>
      <trkpt lat="44.35173" lon="5.85089">
        <ele>633</ele>
        <time>2019-06-12T11:45:38Z</time>
      </trkpt>
      <trkpt lat="44.35178" lon="5.85094">
        <ele>634</ele>
        <time>2019-06-12T11:45:39Z</time>
      </trkpt>
      <trkpt lat="44.35182" lon="5.85099">
        <ele>634</ele>
        <time>2019-06-12T11:45:40Z</time>
      </trkpt>
      <trkpt lat="44.35186" lon="5.85103">
        <ele>634</ele>
        <time>2019-06-12T11:45:41Z</time>
      </trkpt>
      <trkpt lat="44.3519" lon="5.85108">
        <ele>634</ele>
        <time>2019-06-12T11:45:42Z</time>
      </trkpt>
      <trkpt lat="44.35194" lon="5.85113">
        <ele>634</ele>
        <time>2019-06-12T11:45:43Z</time>
      </trkpt>
      <trkpt lat="44.35198" lon="5.85118">
        <ele>634</ele>
        <time>2019-06-12T11:45:44Z</time>
      </trkpt>
      <trkpt lat="44.35202" lon="5.85123">
        <ele>634</ele>
        <time>2019-06-12T11:45:45Z</time>
      </trkpt>
      <trkpt lat="44.35206" lon="5.85128">
        <ele>634</ele>
        <time>2019-06-12T11:45:46Z</time>
      </trkpt>
      <trkpt lat="44.3521" lon="5.85134">
        <ele>634</ele>
        <time>2019-06-12T11:45:47Z</time>
      </trkpt>
      <trkpt lat="44.35214" lon="5.85139">
        <ele>634</ele>
        <time>2019-06-12T11:45:48Z</time>
      </trkpt>
      <trkpt lat="44.35218" lon="5.85145">
        <ele>634</ele>
        <time>2019-06-12T11:45:49Z</time>
      </trkpt>
      <trkpt lat="44.35221" lon="5.85151">
        <ele>634</ele>
        <time>2019-06-12T11:45:50Z</time>
      </trkpt>
      <trkpt lat="44.35224" lon="5.85157">
        <ele>634</ele>
        <time>2019-06-12T11:45:51Z</time>
      </trkpt>
      <trkpt lat="44.35227" lon="5.85163">
        <ele>634</ele>
        <time>2019-06-12T11:45:52Z</time>
      </trkpt>
      <trkpt lat="44.3523" lon="5.85169">
        <ele>634</ele>
        <time>2019-06-12T11:45:53Z</time>
      </trkpt>
      <trkpt lat="44.35232" lon="5.85176">
        <ele>634</ele>
        <time>2019-06-12T11:45:54Z</time>
      </trkpt>
      <trkpt lat="44.35235" lon="5.85182">
        <ele>634</ele>
        <time>2019-06-12T11:45:55Z</time>
      </trkpt>
      <trkpt lat="44.35237" lon="5.85189">
        <ele>634</ele>
        <time>2019-06-12T11:45:56Z</time>
      </trkpt>
      <trkpt lat="44.35238" lon="5.85195">
        <ele>635</ele>
        <time>2019-06-12T11:45:57Z</time>
      </trkpt>
      <trkpt lat="44.3524" lon="5.85202">
        <ele>635</ele>
        <time>2019-06-12T11:45:58Z</time>
      </trkpt>
      <trkpt lat="44.35242" lon="5.85208">
        <ele>635</ele>
        <time>2019-06-12T11:45:59Z</time>
      </trkpt>
      <trkpt lat="44.35244" lon="5.85215">
        <ele>636</ele>
        <time>2019-06-12T11:46:00Z</time>
      </trkpt>
      <trkpt lat="44.35246" lon="5.85221">
        <ele>636</ele>
        <time>2019-06-12T11:46:01Z</time>
      </trkpt>
      <trkpt lat="44.35248" lon="5.85228">
        <ele>636</ele>
        <time>2019-06-12T11:46:02Z</time>
      </trkpt>
      <trkpt lat="44.3525" lon="5.85234">
        <ele>637</ele>
        <time>2019-06-12T11:46:03Z</time>
      </trkpt>
      <trkpt lat="44.35252" lon="5.85241">
        <ele>637</ele>
        <time>2019-06-12T11:46:04Z</time>
      </trkpt>
      <trkpt lat="44.35254" lon="5.85247">
        <ele>637</ele>
        <time>2019-06-12T11:46:05Z</time>
      </trkpt>
      <trkpt lat="44.35255" lon="5.85254">
        <ele>638</ele>
        <time>2019-06-12T11:46:06Z</time>
      </trkpt>
      <trkpt lat="44.35257" lon="5.8526">
        <ele>638</ele>
        <time>2019-06-12T11:46:07Z</time>
      </trkpt>
      <trkpt lat="44.3526" lon="5.85266">
        <ele>638</ele>
        <time>2019-06-12T11:46:08Z</time>
      </trkpt>
      <trkpt lat="44.35261" lon="5.85273">
        <ele>639</ele>
        <time>2019-06-12T11:46:09Z</time>
      </trkpt>
      <trkpt lat="44.35263" lon="5.85279">
        <ele>639</ele>
        <time>2019-06-12T11:46:10Z</time>
      </trkpt>
      <trkpt lat="44.35265" lon="5.85285">
        <ele>640</ele>
        <time>2019-06-12T11:46:11Z</time>
      </trkpt>
      <trkpt lat="44.35267" lon="5.85291">
        <ele>640</ele>
        <time>2019-06-12T11:46:12Z</time>
      </trkpt>
      <trkpt lat="44.35269" lon="5.85298">
        <ele>640</ele>
        <time>2019-06-12T11:46:13Z</time>
      </trkpt>
      <trkpt lat="44.3527" lon="5.85304">
        <ele>640</ele>
        <time>2019-06-12T11:46:14Z</time>
      </trkpt>
      <trkpt lat="44.35272" lon="5.8531">
        <ele>640</ele>
        <time>2019-06-12T11:46:15Z</time>
      </trkpt>
      <trkpt lat="44.35273" lon="5.85317">
        <ele>640</ele>
        <time>2019-06-12T11:46:16Z</time>
      </trkpt>
      <trkpt lat="44.35275" lon="5.85323">
        <ele>640</ele>
        <time>2019-06-12T11:46:17Z</time>
      </trkpt>
      <trkpt lat="44.35277" lon="5.85329">
        <ele>640</ele>
        <time>2019-06-12T11:46:18Z</time>
      </trkpt>
      <trkpt lat="44.35279" lon="5.85336">
        <ele>640</ele>
        <time>2019-06-12T11:46:19Z</time>
      </trkpt>
      <trkpt lat="44.35281" lon="5.85342">
        <ele>641</ele>
        <time>2019-06-12T11:46:20Z</time>
      </trkpt>
      <trkpt lat="44.35283" lon="5.85349">
        <ele>641</ele>
        <time>2019-06-12T11:46:21Z</time>
      </trkpt>
      <trkpt lat="44.35287" lon="5.85356">
        <ele>641</ele>
        <time>2019-06-12T11:46:22Z</time>
      </trkpt>
      <trkpt lat="44.35289" lon="5.85362">
        <ele>642</ele>
        <time>2019-06-12T11:46:23Z</time>
      </trkpt>
      <trkpt lat="44.35291" lon="5.85368">
        <ele>642</ele>
        <time>2019-06-12T11:46:24Z</time>
      </trkpt>
      <trkpt lat="44.35292" lon="5.85375">
        <ele>642</ele>
        <time>2019-06-12T11:46:25Z</time>
      </trkpt>
      <trkpt lat="44.35294" lon="5.85381">
        <ele>642</ele>
        <time>2019-06-12T11:46:26Z</time>
      </trkpt>
      <trkpt lat="44.35297" lon="5.85388">
        <ele>642</ele>
        <time>2019-06-12T11:46:27Z</time>
      </trkpt>
      <trkpt lat="44.35299" lon="5.85394">
        <ele>642</ele>
        <time>2019-06-12T11:46:28Z</time>
      </trkpt>
      <trkpt lat="44.35301" lon="5.85401">
        <ele>642</ele>
        <time>2019-06-12T11:46:29Z</time>
      </trkpt>
      <trkpt lat="44.35304" lon="5.85407">
        <ele>643</ele>
        <time>2019-06-12T11:46:30Z</time>
      </trkpt>
      <trkpt lat="44.35307" lon="5.85414">
        <ele>643</ele>
        <time>2019-06-12T11:46:31Z</time>
      </trkpt>
      <trkpt lat="44.3531" lon="5.8542">
        <ele>643</ele>
        <time>2019-06-12T11:46:32Z</time>
      </trkpt>
      <trkpt lat="44.35312" lon="5.85426">
        <ele>643</ele>
        <time>2019-06-12T11:46:33Z</time>
      </trkpt>
      <trkpt lat="44.35315" lon="5.85432">
        <ele>643</ele>
        <time>2019-06-12T11:46:34Z</time>
      </trkpt>
      <trkpt lat="44.35318" lon="5.85439">
        <ele>643</ele>
        <time>2019-06-12T11:46:35Z</time>
      </trkpt>
      <trkpt lat="44.35322" lon="5.85444">
        <ele>644</ele>
        <time>2019-06-12T11:46:36Z</time>
      </trkpt>
      <trkpt lat="44.35325" lon="5.8545">
        <ele>644</ele>
        <time>2019-06-12T11:46:37Z</time>
      </trkpt>
      <trkpt lat="44.35329" lon="5.85455">
        <ele>644</ele>
        <time>2019-06-12T11:46:38Z</time>
      </trkpt>
      <trkpt lat="44.35333" lon="5.8546">
        <ele>644</ele>
        <time>2019-06-12T11:46:39Z</time>
      </trkpt>
      <trkpt lat="44.35337" lon="5.85465">
        <ele>644</ele>
        <time>2019-06-12T11:46:40Z</time>
      </trkpt>
      <trkpt lat="44.35341" lon="5.8547">
        <ele>644</ele>
        <time>2019-06-12T11:46:41Z</time>
      </trkpt>
      <trkpt lat="44.35345" lon="5.85475">
        <ele>644</ele>
        <time>2019-06-12T11:46:42Z</time>
      </trkpt>
      <trkpt lat="44.35349" lon="5.8548">
        <ele>644</ele>
        <time>2019-06-12T11:46:43Z</time>
      </trkpt>
      <trkpt lat="44.35353" lon="5.85485">
        <ele>644</ele>
        <time>2019-06-12T11:46:44Z</time>
      </trkpt>
      <trkpt lat="44.35357" lon="5.85489">
        <ele>644</ele>
        <time>2019-06-12T11:46:45Z</time>
      </trkpt>
      <trkpt lat="44.35361" lon="5.85494">
        <ele>644</ele>
        <time>2019-06-12T11:46:46Z</time>
      </trkpt>
      <trkpt lat="44.35365" lon="5.85498">
        <ele>644</ele>
        <time>2019-06-12T11:46:47Z</time>
      </trkpt>
      <trkpt lat="44.35369" lon="5.85502">
        <ele>644</ele>
        <time>2019-06-12T11:46:48Z</time>
      </trkpt>
      <trkpt lat="44.35373" lon="5.85507">
        <ele>645</ele>
        <time>2019-06-12T11:46:49Z</time>
      </trkpt>
      <trkpt lat="44.35377" lon="5.85511">
        <ele>645</ele>
        <time>2019-06-12T11:46:50Z</time>
      </trkpt>
      <trkpt lat="44.35381" lon="5.85515">
        <ele>645</ele>
        <time>2019-06-12T11:46:51Z</time>
      </trkpt>
      <trkpt lat="44.35385" lon="5.8552">
        <ele>645</ele>
        <time>2019-06-12T11:46:52Z</time>
      </trkpt>
      <trkpt lat="44.35389" lon="5.85524">
        <ele>645</ele>
        <time>2019-06-12T11:46:53Z</time>
      </trkpt>
      <trkpt lat="44.35393" lon="5.85529">
        <ele>645</ele>
        <time>2019-06-12T11:46:54Z</time>
      </trkpt>
      <trkpt lat="44.35397" lon="5.85533">
        <ele>645</ele>
        <time>2019-06-12T11:46:55Z</time>
      </trkpt>
      <trkpt lat="44.35401" lon="5.85537">
        <ele>645</ele>
        <time>2019-06-12T11:46:56Z</time>
      </trkpt>
      <trkpt lat="44.35404" lon="5.85541">
        <ele>645</ele>
        <time>2019-06-12T11:46:57Z</time>
      </trkpt>
      <trkpt lat="44.35408" lon="5.85546">
        <ele>645</ele>
        <time>2019-06-12T11:46:58Z</time>
      </trkpt>
      <trkpt lat="44.35412" lon="5.8555">
        <ele>645</ele>
        <time>2019-06-12T11:46:59Z</time>
      </trkpt>
      <trkpt lat="44.35416" lon="5.85554">
        <ele>645</ele>
        <time>2019-06-12T11:47:00Z</time>
      </trkpt>
      <trkpt lat="44.3542" lon="5.85558">
        <ele>645</ele>
        <time>2019-06-12T11:47:01Z</time>
      </trkpt>
      <trkpt lat="44.35424" lon="5.85563">
        <ele>645</ele>
        <time>2019-06-12T11:47:02Z</time>
      </trkpt>
      <trkpt lat="44.35427" lon="5.85567">
        <ele>645</ele>
        <time>2019-06-12T11:47:03Z</time>
      </trkpt>
      <trkpt lat="44.35431" lon="5.85571">
        <ele>645</ele>
        <time>2019-06-12T11:47:04Z</time>
      </trkpt>
      <trkpt lat="44.35435" lon="5.85575">
        <ele>646</ele>
        <time>2019-06-12T11:47:05Z</time>
      </trkpt>
      <trkpt lat="44.35439" lon="5.85579">
        <ele>646</ele>
        <time>2019-06-12T11:47:06Z</time>
      </trkpt>
      <trkpt lat="44.35443" lon="5.85583">
        <ele>646</ele>
        <time>2019-06-12T11:47:07Z</time>
      </trkpt>
      <trkpt lat="44.35446" lon="5.85587">
        <ele>646</ele>
        <time>2019-06-12T11:47:08Z</time>
      </trkpt>
      <trkpt lat="44.3545" lon="5.85592">
        <ele>646</ele>
        <time>2019-06-12T11:47:09Z</time>
      </trkpt>
      <trkpt lat="44.35454" lon="5.85596">
        <ele>646</ele>
        <time>2019-06-12T11:47:10Z</time>
      </trkpt>
      <trkpt lat="44.35458" lon="5.856">
        <ele>646</ele>
        <time>2019-06-12T11:47:11Z</time>
      </trkpt>
      <trkpt lat="44.35461" lon="5.85604">
        <ele>646</ele>
        <time>2019-06-12T11:47:12Z</time>
      </trkpt>
      <trkpt lat="44.35465" lon="5.85608">
        <ele>646</ele>
        <time>2019-06-12T11:47:13Z</time>
      </trkpt>
      <trkpt lat="44.35469" lon="5.85612">
        <ele>647</ele>
        <time>2019-06-12T11:47:14Z</time>
      </trkpt>
      <trkpt lat="44.35473" lon="5.85616">
        <ele>647</ele>
        <time>2019-06-12T11:47:15Z</time>
      </trkpt>
      <trkpt lat="44.35476" lon="5.8562">
        <ele>647</ele>
        <time>2019-06-12T11:47:16Z</time>
      </trkpt>
      <trkpt lat="44.3548" lon="5.85625">
        <ele>647</ele>
        <time>2019-06-12T11:47:17Z</time>
      </trkpt>
      <trkpt lat="44.35484" lon="5.85629">
        <ele>647</ele>
        <time>2019-06-12T11:47:18Z</time>
      </trkpt>
      <trkpt lat="44.35487" lon="5.85633">
        <ele>647</ele>
        <time>2019-06-12T11:47:19Z</time>
      </trkpt>
      <trkpt lat="44.35491" lon="5.85637">
        <ele>647</ele>
        <time>2019-06-12T11:47:20Z</time>
      </trkpt>
      <trkpt lat="44.35495" lon="5.85641">
        <ele>647</ele>
        <time>2019-06-12T11:47:21Z</time>
      </trkpt>
      <trkpt lat="44.35499" lon="5.85645">
        <ele>648</ele>
        <time>2019-06-12T11:47:22Z</time>
      </trkpt>
      <trkpt lat="44.35503" lon="5.8565">
        <ele>648</ele>
        <time>2019-06-12T11:47:23Z</time>
      </trkpt>
      <trkpt lat="44.35506" lon="5.85654">
        <ele>648</ele>
        <time>2019-06-12T11:47:24Z</time>
      </trkpt>
      <trkpt lat="44.3551" lon="5.85658">
        <ele>648</ele>
        <time>2019-06-12T11:47:25Z</time>
      </trkpt>
      <trkpt lat="44.35514" lon="5.85662">
        <ele>648</ele>
        <time>2019-06-12T11:47:26Z</time>
      </trkpt>
      <trkpt lat="44.35518" lon="5.85667">
        <ele>648</ele>
        <time>2019-06-12T11:47:27Z</time>
      </trkpt>
      <trkpt lat="44.35522" lon="5.85671">
        <ele>649</ele>
        <time>2019-06-12T11:47:28Z</time>
      </trkpt>
      <trkpt lat="44.35526" lon="5.85675">
        <ele>649</ele>
        <time>2019-06-12T11:47:29Z</time>
      </trkpt>
      <trkpt lat="44.35529" lon="5.85679">
        <ele>649</ele>
        <time>2019-06-12T11:47:30Z</time>
      </trkpt>
      <trkpt lat="44.35533" lon="5.85683">
        <ele>649</ele>
        <time>2019-06-12T11:47:31Z</time>
      </trkpt>
      <trkpt lat="44.35537" lon="5.85688">
        <ele>649</ele>
        <time>2019-06-12T11:47:32Z</time>
      </trkpt>
      <trkpt lat="44.35541" lon="5.85692">
        <ele>649</ele>
        <time>2019-06-12T11:47:33Z</time>
      </trkpt>
      <trkpt lat="44.35545" lon="5.85696">
        <ele>649</ele>
        <time>2019-06-12T11:47:34Z</time>
      </trkpt>
      <trkpt lat="44.35548" lon="5.85701">
        <ele>649</ele>
        <time>2019-06-12T11:47:35Z</time>
      </trkpt>
      <trkpt lat="44.35552" lon="5.85705">
        <ele>649</ele>
        <time>2019-06-12T11:47:36Z</time>
      </trkpt>
      <trkpt lat="44.35556" lon="5.85709">
        <ele>649</ele>
        <time>2019-06-12T11:47:37Z</time>
      </trkpt>
      <trkpt lat="44.35559" lon="5.85713">
        <ele>650</ele>
        <time>2019-06-12T11:47:38Z</time>
      </trkpt>
      <trkpt lat="44.35563" lon="5.85717">
        <ele>650</ele>
        <time>2019-06-12T11:47:39Z</time>
      </trkpt>
      <trkpt lat="44.35567" lon="5.85721">
        <ele>650</ele>
        <time>2019-06-12T11:47:40Z</time>
      </trkpt>
      <trkpt lat="44.35571" lon="5.85726">
        <ele>650</ele>
        <time>2019-06-12T11:47:41Z</time>
      </trkpt>
      <trkpt lat="44.35574" lon="5.8573">
        <ele>650</ele>
        <time>2019-06-12T11:47:42Z</time>
      </trkpt>
      <trkpt lat="44.35578" lon="5.85734">
        <ele>650</ele>
        <time>2019-06-12T11:47:43Z</time>
      </trkpt>
      <trkpt lat="44.35582" lon="5.85738">
        <ele>650</ele>
        <time>2019-06-12T11:47:44Z</time>
      </trkpt>
      <trkpt lat="44.35586" lon="5.85742">
        <ele>650</ele>
        <time>2019-06-12T11:47:45Z</time>
      </trkpt>
      <trkpt lat="44.35589" lon="5.85746">
        <ele>650</ele>
        <time>2019-06-12T11:47:46Z</time>
      </trkpt>
      <trkpt lat="44.35593" lon="5.85751">
        <ele>651</ele>
        <time>2019-06-12T11:47:47Z</time>
      </trkpt>
      <trkpt lat="44.35597" lon="5.85755">
        <ele>651</ele>
        <time>2019-06-12T11:47:48Z</time>
      </trkpt>
      <trkpt lat="44.356" lon="5.85759">
        <ele>651</ele>
        <time>2019-06-12T11:47:49Z</time>
      </trkpt>
      <trkpt lat="44.35603" lon="5.85763">
        <ele>651</ele>
        <time>2019-06-12T11:47:50Z</time>
      </trkpt>
      <trkpt lat="44.35607" lon="5.85768">
        <ele>651</ele>
        <time>2019-06-12T11:47:51Z</time>
      </trkpt>
      <trkpt lat="44.35611" lon="5.85772">
        <ele>652</ele>
        <time>2019-06-12T11:47:52Z</time>
      </trkpt>
      <trkpt lat="44.35614" lon="5.85776">
        <ele>652</ele>
        <time>2019-06-12T11:47:53Z</time>
      </trkpt>
      <trkpt lat="44.35617" lon="5.85781">
        <ele>652</ele>
        <time>2019-06-12T11:47:54Z</time>
      </trkpt>
      <trkpt lat="44.3562" lon="5.85785">
        <ele>652</ele>
        <time>2019-06-12T11:47:55Z</time>
      </trkpt>
      <trkpt lat="44.35624" lon="5.8579">
        <ele>652</ele>
        <time>2019-06-12T11:47:56Z</time>
      </trkpt>
      <trkpt lat="44.35627" lon="5.85795">
        <ele>652</ele>
        <time>2019-06-12T11:47:57Z</time>
      </trkpt>
      <trkpt lat="44.35631" lon="5.858">
        <ele>653</ele>
        <time>2019-06-12T11:47:58Z</time>
      </trkpt>
      <trkpt lat="44.35634" lon="5.85806">
        <ele>653</ele>
        <time>2019-06-12T11:47:59Z</time>
      </trkpt>
      <trkpt lat="44.35637" lon="5.85811">
        <ele>653</ele>
        <time>2019-06-12T11:48:00Z</time>
      </trkpt>
      <trkpt lat="44.3564" lon="5.85816">
        <ele>653</ele>
        <time>2019-06-12T11:48:01Z</time>
      </trkpt>
      <trkpt lat="44.35643" lon="5.85821">
        <ele>654</ele>
        <time>2019-06-12T11:48:02Z</time>
      </trkpt>
      <trkpt lat="44.35647" lon="5.85826">
        <ele>654</ele>
        <time>2019-06-12T11:48:03Z</time>
      </trkpt>
      <trkpt lat="44.3565" lon="5.85831">
        <ele>654</ele>
        <time>2019-06-12T11:48:04Z</time>
      </trkpt>
      <trkpt lat="44.35653" lon="5.85836">
        <ele>655</ele>
        <time>2019-06-12T11:48:05Z</time>
      </trkpt>
      <trkpt lat="44.35656" lon="5.85841">
        <ele>655</ele>
        <time>2019-06-12T11:48:06Z</time>
      </trkpt>
      <trkpt lat="44.35659" lon="5.85846">
        <ele>655</ele>
        <time>2019-06-12T11:48:07Z</time>
      </trkpt>
      <trkpt lat="44.35663" lon="5.85851">
        <ele>655</ele>
        <time>2019-06-12T11:48:08Z</time>
      </trkpt>
      <trkpt lat="44.35666" lon="5.85856">
        <ele>656</ele>
        <time>2019-06-12T11:48:09Z</time>
      </trkpt>
      <trkpt lat="44.35669" lon="5.85861">
        <ele>656</ele>
        <time>2019-06-12T11:48:10Z</time>
      </trkpt>
      <trkpt lat="44.35672" lon="5.85866">
        <ele>656</ele>
        <time>2019-06-12T11:48:11Z</time>
      </trkpt>
      <trkpt lat="44.35675" lon="5.85872">
        <ele>656</ele>
        <time>2019-06-12T11:48:12Z</time>
      </trkpt>
      <trkpt lat="44.35678" lon="5.85877">
        <ele>656</ele>
        <time>2019-06-12T11:48:13Z</time>
      </trkpt>
      <trkpt lat="44.35681" lon="5.85882">
        <ele>657</ele>
        <time>2019-06-12T11:48:14Z</time>
      </trkpt>
      <trkpt lat="44.35685" lon="5.85887">
        <ele>657</ele>
        <time>2019-06-12T11:48:15Z</time>
      </trkpt>
      <trkpt lat="44.35688" lon="5.85892">
        <ele>657</ele>
        <time>2019-06-12T11:48:16Z</time>
      </trkpt>
      <trkpt lat="44.35691" lon="5.85897">
        <ele>657</ele>
        <time>2019-06-12T11:48:17Z</time>
      </trkpt>
      <trkpt lat="44.35694" lon="5.85902">
        <ele>657</ele>
        <time>2019-06-12T11:48:18Z</time>
      </trkpt>
      <trkpt lat="44.35697" lon="5.85907">
        <ele>658</ele>
        <time>2019-06-12T11:48:19Z</time>
      </trkpt>
      <trkpt lat="44.357" lon="5.85913">
        <ele>658</ele>
        <time>2019-06-12T11:48:20Z</time>
      </trkpt>
      <trkpt lat="44.35703" lon="5.85918">
        <ele>658</ele>
        <time>2019-06-12T11:48:21Z</time>
      </trkpt>
      <trkpt lat="44.35706" lon="5.85923">
        <ele>658</ele>
        <time>2019-06-12T11:48:22Z</time>
      </trkpt>
      <trkpt lat="44.3571" lon="5.85928">
        <ele>658</ele>
        <time>2019-06-12T11:48:23Z</time>
      </trkpt>
      <trkpt lat="44.35713" lon="5.85933">
        <ele>658</ele>
        <time>2019-06-12T11:48:24Z</time>
      </trkpt>
      <trkpt lat="44.35716" lon="5.85939">
        <ele>658</ele>
        <time>2019-06-12T11:48:25Z</time>
      </trkpt>
      <trkpt lat="44.3572" lon="5.85944">
        <ele>658</ele>
        <time>2019-06-12T11:48:26Z</time>
      </trkpt>
      <trkpt lat="44.35723" lon="5.85949">
        <ele>658</ele>
        <time>2019-06-12T11:48:27Z</time>
      </trkpt>
      <trkpt lat="44.35726" lon="5.85954">
        <ele>658</ele>
        <time>2019-06-12T11:48:28Z</time>
      </trkpt>
      <trkpt lat="44.35729" lon="5.85959">
        <ele>659</ele>
        <time>2019-06-12T11:48:29Z</time>
      </trkpt>
      <trkpt lat="44.35732" lon="5.85964">
        <ele>659</ele>
        <time>2019-06-12T11:48:30Z</time>
      </trkpt>
      <trkpt lat="44.35735" lon="5.8597">
        <ele>659</ele>
        <time>2019-06-12T11:48:31Z</time>
      </trkpt>
      <trkpt lat="44.35738" lon="5.85975">
        <ele>659</ele>
        <time>2019-06-12T11:48:32Z</time>
      </trkpt>
      <trkpt lat="44.35741" lon="5.8598">
        <ele>659</ele>
        <time>2019-06-12T11:48:33Z</time>
      </trkpt>
      <trkpt lat="44.35745" lon="5.85985">
        <ele>659</ele>
        <time>2019-06-12T11:48:34Z</time>
      </trkpt>
      <trkpt lat="44.35748" lon="5.8599">
        <ele>659</ele>
        <time>2019-06-12T11:48:35Z</time>
      </trkpt>
      <trkpt lat="44.35751" lon="5.85995">
        <ele>659</ele>
        <time>2019-06-12T11:48:36Z</time>
      </trkpt>
      <trkpt lat="44.35754" lon="5.86001">
        <ele>659</ele>
        <time>2019-06-12T11:48:37Z</time>
      </trkpt>
      <trkpt lat="44.35758" lon="5.86006">
        <ele>659</ele>
        <time>2019-06-12T11:48:38Z</time>
      </trkpt>
      <trkpt lat="44.35761" lon="5.86011">
        <ele>659</ele>
        <time>2019-06-12T11:48:39Z</time>
      </trkpt>
      <trkpt lat="44.35764" lon="5.86017">
        <ele>659</ele>
        <time>2019-06-12T11:48:40Z</time>
      </trkpt>
      <trkpt lat="44.35768" lon="5.86022">
        <ele>659</ele>
        <time>2019-06-12T11:48:41Z</time>
      </trkpt>
      <trkpt lat="44.35771" lon="5.86028">
        <ele>660</ele>
        <time>2019-06-12T11:48:42Z</time>
      </trkpt>
      <trkpt lat="44.35774" lon="5.86034">
        <ele>660</ele>
        <time>2019-06-12T11:48:43Z</time>
      </trkpt>
      <trkpt lat="44.35777" lon="5.8604">
        <ele>661</ele>
        <time>2019-06-12T11:48:44Z</time>
      </trkpt>
      <trkpt lat="44.3578" lon="5.86046">
        <ele>661</ele>
        <time>2019-06-12T11:48:45Z</time>
      </trkpt>
      <trkpt lat="44.35782" lon="5.86053">
        <ele>662</ele>
        <time>2019-06-12T11:48:46Z</time>
      </trkpt>
      <trkpt lat="44.35784" lon="5.86059">
        <ele>662</ele>
        <time>2019-06-12T11:48:47Z</time>
      </trkpt>
      <trkpt lat="44.35786" lon="5.86066">
        <ele>662</ele>
        <time>2019-06-12T11:48:48Z</time>
      </trkpt>
      <trkpt lat="44.35788" lon="5.86073">
        <ele>662</ele>
        <time>2019-06-12T11:48:49Z</time>
      </trkpt>
      <trkpt lat="44.3579" lon="5.8608">
        <ele>662</ele>
        <time>2019-06-12T11:48:50Z</time>
      </trkpt>
      <trkpt lat="44.35792" lon="5.86087">
        <ele>662</ele>
        <time>2019-06-12T11:48:51Z</time>
      </trkpt>
      <trkpt lat="44.35793" lon="5.86095">
        <ele>663</ele>
        <time>2019-06-12T11:48:52Z</time>
      </trkpt>
      <trkpt lat="44.35795" lon="5.86102">
        <ele>663</ele>
        <time>2019-06-12T11:48:53Z</time>
      </trkpt>
      <trkpt lat="44.35796" lon="5.86109">
        <ele>663</ele>
        <time>2019-06-12T11:48:54Z</time>
      </trkpt>
      <trkpt lat="44.35798" lon="5.86117">
        <ele>664</ele>
        <time>2019-06-12T11:48:55Z</time>
      </trkpt>
      <trkpt lat="44.35799" lon="5.86124">
        <ele>664</ele>
        <time>2019-06-12T11:48:56Z</time>
      </trkpt>
      <trkpt lat="44.358" lon="5.86131">
        <ele>664</ele>
        <time>2019-06-12T11:48:57Z</time>
      </trkpt>
      <trkpt lat="44.35802" lon="5.86138">
        <ele>664</ele>
        <time>2019-06-12T11:48:58Z</time>
      </trkpt>
      <trkpt lat="44.35803" lon="5.86146">
        <ele>665</ele>
        <time>2019-06-12T11:48:59Z</time>
      </trkpt>
      <trkpt lat="44.35804" lon="5.86154">
        <ele>665</ele>
        <time>2019-06-12T11:49:00Z</time>
      </trkpt>
      <trkpt lat="44.35806" lon="5.86161">
        <ele>665</ele>
        <time>2019-06-12T11:49:01Z</time>
      </trkpt>
      <trkpt lat="44.35807" lon="5.86168">
        <ele>665</ele>
        <time>2019-06-12T11:49:02Z</time>
      </trkpt>
      <trkpt lat="44.35809" lon="5.86176">
        <ele>665</ele>
        <time>2019-06-12T11:49:03Z</time>
      </trkpt>
      <trkpt lat="44.35811" lon="5.86184">
        <ele>665</ele>
        <time>2019-06-12T11:49:04Z</time>
      </trkpt>
      <trkpt lat="44.35812" lon="5.86191">
        <ele>665</ele>
        <time>2019-06-12T11:49:05Z</time>
      </trkpt>
      <trkpt lat="44.35814" lon="5.86198">
        <ele>665</ele>
        <time>2019-06-12T11:49:06Z</time>
      </trkpt>
      <trkpt lat="44.35816" lon="5.86205">
        <ele>665</ele>
        <time>2019-06-12T11:49:07Z</time>
      </trkpt>
      <trkpt lat="44.35818" lon="5.86213">
        <ele>665</ele>
        <time>2019-06-12T11:49:08Z</time>
      </trkpt>
      <trkpt lat="44.3582" lon="5.8622">
        <ele>665</ele>
        <time>2019-06-12T11:49:09Z</time>
      </trkpt>
      <trkpt lat="44.35823" lon="5.86227">
        <ele>665</ele>
        <time>2019-06-12T11:49:10Z</time>
      </trkpt>
      <trkpt lat="44.35825" lon="5.86235">
        <ele>665</ele>
        <time>2019-06-12T11:49:11Z</time>
      </trkpt>
      <trkpt lat="44.35828" lon="5.86242">
        <ele>665</ele>
        <time>2019-06-12T11:49:12Z</time>
      </trkpt>
      <trkpt lat="44.35831" lon="5.86249">
        <ele>665</ele>
        <time>2019-06-12T11:49:13Z</time>
      </trkpt>
      <trkpt lat="44.35834" lon="5.86256">
        <ele>665</ele>
        <time>2019-06-12T11:49:14Z</time>
      </trkpt>
      <trkpt lat="44.35837" lon="5.86263">
        <ele>666</ele>
        <time>2019-06-12T11:49:15Z</time>
      </trkpt>
      <trkpt lat="44.35841" lon="5.8627">
        <ele>666</ele>
        <time>2019-06-12T11:49:16Z</time>
      </trkpt>
      <trkpt lat="44.35844" lon="5.86277">
        <ele>666</ele>
        <time>2019-06-12T11:49:17Z</time>
      </trkpt>
      <trkpt lat="44.35847" lon="5.86283">
        <ele>666</ele>
        <time>2019-06-12T11:49:18Z</time>
      </trkpt>
      <trkpt lat="44.35851" lon="5.8629">
        <ele>666</ele>
        <time>2019-06-12T11:49:19Z</time>
      </trkpt>
      <trkpt lat="44.35854" lon="5.86297">
        <ele>666</ele>
        <time>2019-06-12T11:49:20Z</time>
      </trkpt>
      <trkpt lat="44.35858" lon="5.86304">
        <ele>666</ele>
        <time>2019-06-12T11:49:21Z</time>
      </trkpt>
      <trkpt lat="44.35861" lon="5.86311">
        <ele>666</ele>
        <time>2019-06-12T11:49:22Z</time>
      </trkpt>
      <trkpt lat="44.35864" lon="5.86318">
        <ele>666</ele>
        <time>2019-06-12T11:49:23Z</time>
      </trkpt>
      <trkpt lat="44.35867" lon="5.86325">
        <ele>667</ele>
        <time>2019-06-12T11:49:24Z</time>
      </trkpt>
      <trkpt lat="44.3587" lon="5.86332">
        <ele>667</ele>
        <time>2019-06-12T11:49:25Z</time>
      </trkpt>
      <trkpt lat="44.35872" lon="5.8634">
        <ele>667</ele>
        <time>2019-06-12T11:49:26Z</time>
      </trkpt>
      <trkpt lat="44.35875" lon="5.86347">
        <ele>667</ele>
        <time>2019-06-12T11:49:27Z</time>
      </trkpt>
      <trkpt lat="44.35876" lon="5.86354">
        <ele>667</ele>
        <time>2019-06-12T11:49:28Z</time>
      </trkpt>
      <trkpt lat="44.35878" lon="5.86362">
        <ele>667</ele>
        <time>2019-06-12T11:49:29Z</time>
      </trkpt>
      <trkpt lat="44.35881" lon="5.8637">
        <ele>667</ele>
        <time>2019-06-12T11:49:30Z</time>
      </trkpt>
      <trkpt lat="44.35883" lon="5.86377">
        <ele>667</ele>
        <time>2019-06-12T11:49:31Z</time>
      </trkpt>
      <trkpt lat="44.35884" lon="5.86385">
        <ele>667</ele>
        <time>2019-06-12T11:49:32Z</time>
      </trkpt>
      <trkpt lat="44.35886" lon="5.86393">
        <ele>668</ele>
        <time>2019-06-12T11:49:33Z</time>
      </trkpt>
      <trkpt lat="44.35888" lon="5.86402">
        <ele>668</ele>
        <time>2019-06-12T11:49:34Z</time>
      </trkpt>
      <trkpt lat="44.3589" lon="5.86411">
        <ele>668</ele>
        <time>2019-06-12T11:49:35Z</time>
      </trkpt>
      <trkpt lat="44.35891" lon="5.86419">
        <ele>668</ele>
        <time>2019-06-12T11:49:36Z</time>
      </trkpt>
      <trkpt lat="44.35893" lon="5.86428">
        <ele>668</ele>
        <time>2019-06-12T11:49:37Z</time>
      </trkpt>
      <trkpt lat="44.35895" lon="5.86437">
        <ele>668</ele>
        <time>2019-06-12T11:49:38Z</time>
      </trkpt>
      <trkpt lat="44.35897" lon="5.86446">
        <ele>668</ele>
        <time>2019-06-12T11:49:39Z</time>
      </trkpt>
      <trkpt lat="44.35899" lon="5.86455">
        <ele>668</ele>
        <time>2019-06-12T11:49:40Z</time>
      </trkpt>
      <trkpt lat="44.35901" lon="5.86464">
        <ele>668</ele>
        <time>2019-06-12T11:49:41Z</time>
      </trkpt>
      <trkpt lat="44.35903" lon="5.86474">
        <ele>668</ele>
        <time>2019-06-12T11:49:42Z</time>
      </trkpt>
      <trkpt lat="44.35905" lon="5.86483">
        <ele>668</ele>
        <time>2019-06-12T11:49:43Z</time>
      </trkpt>
      <trkpt lat="44.35907" lon="5.86493">
        <ele>668</ele>
        <time>2019-06-12T11:49:44Z</time>
      </trkpt>
      <trkpt lat="44.35909" lon="5.86503">
        <ele>668</ele>
        <time>2019-06-12T11:49:45Z</time>
      </trkpt>
      <trkpt lat="44.35911" lon="5.86513">
        <ele>668</ele>
        <time>2019-06-12T11:49:46Z</time>
      </trkpt>
      <trkpt lat="44.35914" lon="5.86523">
        <ele>668</ele>
        <time>2019-06-12T11:49:47Z</time>
      </trkpt>
      <trkpt lat="44.35916" lon="5.86533">
        <ele>668</ele>
        <time>2019-06-12T11:49:48Z</time>
      </trkpt>
      <trkpt lat="44.35918" lon="5.86543">
        <ele>668</ele>
        <time>2019-06-12T11:49:49Z</time>
      </trkpt>
      <trkpt lat="44.3592" lon="5.86553">
        <ele>668</ele>
        <time>2019-06-12T11:49:50Z</time>
      </trkpt>
      <trkpt lat="44.35923" lon="5.86563">
        <ele>668</ele>
        <time>2019-06-12T11:49:51Z</time>
      </trkpt>
      <trkpt lat="44.35925" lon="5.86574">
        <ele>668</ele>
        <time>2019-06-12T11:49:52Z</time>
      </trkpt>
      <trkpt lat="44.35927" lon="5.86584">
        <ele>668</ele>
        <time>2019-06-12T11:49:53Z</time>
      </trkpt>
      <trkpt lat="44.35929" lon="5.86594">
        <ele>668</ele>
        <time>2019-06-12T11:49:54Z</time>
      </trkpt>
      <trkpt lat="44.35931" lon="5.86604">
        <ele>668</ele>
        <time>2019-06-12T11:49:55Z</time>
      </trkpt>
      <trkpt lat="44.35933" lon="5.86615">
        <ele>668</ele>
        <time>2019-06-12T11:49:56Z</time>
      </trkpt>
      <trkpt lat="44.35935" lon="5.86625">
        <ele>668</ele>
        <time>2019-06-12T11:49:57Z</time>
      </trkpt>
      <trkpt lat="44.35937" lon="5.86635">
        <ele>668</ele>
        <time>2019-06-12T11:49:58Z</time>
      </trkpt>
      <trkpt lat="44.3594" lon="5.86645">
        <ele>668</ele>
        <time>2019-06-12T11:49:59Z</time>
      </trkpt>
      <trkpt lat="44.35942" lon="5.86656">
        <ele>668</ele>
        <time>2019-06-12T11:50:00Z</time>
      </trkpt>
      <trkpt lat="44.35944" lon="5.86666">
        <ele>668</ele>
        <time>2019-06-12T11:50:01Z</time>
      </trkpt>
      <trkpt lat="44.35947" lon="5.86677">
        <ele>668</ele>
        <time>2019-06-12T11:50:02Z</time>
      </trkpt>
      <trkpt lat="44.35951" lon="5.86687">
        <ele>668</ele>
        <time>2019-06-12T11:50:03Z</time>
      </trkpt>
      <trkpt lat="44.35954" lon="5.86697">
        <ele>668</ele>
        <time>2019-06-12T11:50:04Z</time>
      </trkpt>
      <trkpt lat="44.35958" lon="5.86707">
        <ele>668</ele>
        <time>2019-06-12T11:50:05Z</time>
      </trkpt>
      <trkpt lat="44.35962" lon="5.86718">
        <ele>668</ele>
        <time>2019-06-12T11:50:06Z</time>
      </trkpt>
      <trkpt lat="44.35967" lon="5.86728">
        <ele>668</ele>
        <time>2019-06-12T11:50:07Z</time>
      </trkpt>
      <trkpt lat="44.35971" lon="5.86737">
        <ele>668</ele>
        <time>2019-06-12T11:50:08Z</time>
      </trkpt>
      <trkpt lat="44.35976" lon="5.86748">
        <ele>668</ele>
        <time>2019-06-12T11:50:09Z</time>
      </trkpt>
      <trkpt lat="44.35981" lon="5.86758">
        <ele>668</ele>
        <time>2019-06-12T11:50:10Z</time>
      </trkpt>
      <trkpt lat="44.35985" lon="5.86768">
        <ele>668</ele>
        <time>2019-06-12T11:50:11Z</time>
      </trkpt>
      <trkpt lat="44.3599" lon="5.86778">
        <ele>668</ele>
        <time>2019-06-12T11:50:12Z</time>
      </trkpt>
      <trkpt lat="44.35995" lon="5.86788">
        <ele>668</ele>
        <time>2019-06-12T11:50:13Z</time>
      </trkpt>
      <trkpt lat="44.36" lon="5.86799">
        <ele>668</ele>
        <time>2019-06-12T11:50:14Z</time>
      </trkpt>
      <trkpt lat="44.36005" lon="5.86809">
        <ele>668</ele>
        <time>2019-06-12T11:50:15Z</time>
      </trkpt>
      <trkpt lat="44.36011" lon="5.8682">
        <ele>668</ele>
        <time>2019-06-12T11:50:16Z</time>
      </trkpt>
      <trkpt lat="44.36016" lon="5.86832">
        <ele>667</ele>
        <time>2019-06-12T11:50:17Z</time>
      </trkpt>
      <trkpt lat="44.36021" lon="5.86843">
        <ele>667</ele>
        <time>2019-06-12T11:50:18Z</time>
      </trkpt>
      <trkpt lat="44.36027" lon="5.86854">
        <ele>667</ele>
        <time>2019-06-12T11:50:19Z</time>
      </trkpt>
      <trkpt lat="44.36032" lon="5.86866">
        <ele>666</ele>
        <time>2019-06-12T11:50:19Z</time>
      </trkpt>
      <trkpt lat="44.36038" lon="5.86877">
        <ele>666</ele>
        <time>2019-06-12T11:50:20Z</time>
      </trkpt>
      <trkpt lat="44.36043" lon="5.8689">
        <ele>665</ele>
        <time>2019-06-12T11:50:21Z</time>
      </trkpt>
      <trkpt lat="44.36049" lon="5.86902">
        <ele>665</ele>
        <time>2019-06-12T11:50:22Z</time>
      </trkpt>
      <trkpt lat="44.36055" lon="5.86914">
        <ele>664</ele>
        <time>2019-06-12T11:50:23Z</time>
      </trkpt>
      <trkpt lat="44.36061" lon="5.86926">
        <ele>664</ele>
        <time>2019-06-12T11:50:24Z</time>
      </trkpt>
      <trkpt lat="44.36067" lon="5.86939">
        <ele>663</ele>
        <time>2019-06-12T11:50:25Z</time>
      </trkpt>
      <trkpt lat="44.36073" lon="5.86951">
        <ele>663</ele>
        <time>2019-06-12T11:50:26Z</time>
      </trkpt>
      <trkpt lat="44.36079" lon="5.86964">
        <ele>662</ele>
        <time>2019-06-12T11:50:27Z</time>
      </trkpt>
      <trkpt lat="44.36085" lon="5.86977">
        <ele>661</ele>
        <time>2019-06-12T11:50:29Z</time>
      </trkpt>
      <trkpt lat="44.36091" lon="5.86991">
        <ele>661</ele>
        <time>2019-06-12T11:50:29Z</time>
      </trkpt>
      <trkpt lat="44.36097" lon="5.87006">
        <ele>660</ele>
        <time>2019-06-12T11:50:30Z</time>
      </trkpt>
      <trkpt lat="44.36102" lon="5.87021">
        <ele>659</ele>
        <time>2019-06-12T11:50:31Z</time>
      </trkpt>
      <trkpt lat="44.36107" lon="5.87037">
        <ele>658</ele>
        <time>2019-06-12T11:50:32Z</time>
      </trkpt>
      <trkpt lat="44.36111" lon="5.87054">
        <ele>658</ele>
        <time>2019-06-12T11:50:33Z</time>
      </trkpt>
      <trkpt lat="44.36114" lon="5.87071">
        <ele>657</ele>
        <time>2019-06-12T11:50:34Z</time>
      </trkpt>
      <trkpt lat="44.36117" lon="5.87089">
        <ele>656</ele>
        <time>2019-06-12T11:50:35Z</time>
      </trkpt>
      <trkpt lat="44.36119" lon="5.87107">
        <ele>655</ele>
        <time>2019-06-12T11:50:36Z</time>
      </trkpt>
      <trkpt lat="44.36122" lon="5.87124">
        <ele>654</ele>
        <time>2019-06-12T11:50:37Z</time>
      </trkpt>
      <trkpt lat="44.36125" lon="5.87142">
        <ele>653</ele>
        <time>2019-06-12T11:50:38Z</time>
      </trkpt>
      <trkpt lat="44.36128" lon="5.87159">
        <ele>652</ele>
        <time>2019-06-12T11:50:39Z</time>
      </trkpt>
      <trkpt lat="44.36131" lon="5.87178">
        <ele>651</ele>
        <time>2019-06-12T11:50:40Z</time>
      </trkpt>
      <trkpt lat="44.36134" lon="5.87196">
        <ele>650</ele>
        <time>2019-06-12T11:50:41Z</time>
      </trkpt>
      <trkpt lat="44.36136" lon="5.87214">
        <ele>649</ele>
        <time>2019-06-12T11:50:42Z</time>
      </trkpt>
      <trkpt lat="44.36139" lon="5.87231">
        <ele>648</ele>
        <time>2019-06-12T11:50:43Z</time>
      </trkpt>
      <trkpt lat="44.36142" lon="5.87248">
        <ele>647</ele>
        <time>2019-06-12T11:50:44Z</time>
      </trkpt>
      <trkpt lat="44.36148" lon="5.87264">
        <ele>646</ele>
        <time>2019-06-12T11:50:45Z</time>
      </trkpt>
      <trkpt lat="44.36155" lon="5.87279">
        <ele>645</ele>
        <time>2019-06-12T11:50:46Z</time>
      </trkpt>
      <trkpt lat="44.36162" lon="5.87293">
        <ele>644</ele>
        <time>2019-06-12T11:50:47Z</time>
      </trkpt>
      <trkpt lat="44.36171" lon="5.87306">
        <ele>643</ele>
        <time>2019-06-12T11:50:48Z</time>
      </trkpt>
      <trkpt lat="44.36179" lon="5.8732">
        <ele>642</ele>
        <time>2019-06-12T11:50:49Z</time>
      </trkpt>
      <trkpt lat="44.36187" lon="5.87334">
        <ele>641</ele>
        <time>2019-06-12T11:50:50Z</time>
      </trkpt>
      <trkpt lat="44.36195" lon="5.87349">
        <ele>640</ele>
        <time>2019-06-12T11:50:51Z</time>
      </trkpt>
      <trkpt lat="44.36201" lon="5.87363">
        <ele>639</ele>
        <time>2019-06-12T11:50:52Z</time>
      </trkpt>
      <trkpt lat="44.36206" lon="5.87378">
        <ele>638</ele>
        <time>2019-06-12T11:50:53Z</time>
      </trkpt>
      <trkpt lat="44.36207" lon="5.87393">
        <ele>637</ele>
        <time>2019-06-12T11:50:55Z</time>
      </trkpt>
      <trkpt lat="44.36206" lon="5.87408">
        <ele>636</ele>
        <time>2019-06-12T11:50:55Z</time>
      </trkpt>
      <trkpt lat="44.36203" lon="5.87423">
        <ele>635</ele>
        <time>2019-06-12T11:50:56Z</time>
      </trkpt>
      <trkpt lat="44.36199" lon="5.87437">
        <ele>635</ele>
        <time>2019-06-12T11:50:57Z</time>
      </trkpt>
      <trkpt lat="44.36195" lon="5.87452">
        <ele>634</ele>
        <time>2019-06-12T11:50:58Z</time>
      </trkpt>
      <trkpt lat="44.36193" lon="5.87467">
        <ele>634</ele>
        <time>2019-06-12T11:50:59Z</time>
      </trkpt>
      <trkpt lat="44.36192" lon="5.87482">
        <ele>633</ele>
        <time>2019-06-12T11:51:00Z</time>
      </trkpt>
      <trkpt lat="44.36193" lon="5.87498">
        <ele>633</ele>
        <time>2019-06-12T11:51:01Z</time>
      </trkpt>
      <trkpt lat="44.36194" lon="5.87514">
        <ele>632</ele>
        <time>2019-06-12T11:51:02Z</time>
      </trkpt>
      <trkpt lat="44.36195" lon="5.8753">
        <ele>632</ele>
        <time>2019-06-12T11:51:03Z</time>
      </trkpt>
      <trkpt lat="44.36197" lon="5.87546">
        <ele>631</ele>
        <time>2019-06-12T11:51:04Z</time>
      </trkpt>
      <trkpt lat="44.362" lon="5.87562">
        <ele>631</ele>
        <time>2019-06-12T11:51:05Z</time>
      </trkpt>
      <trkpt lat="44.36202" lon="5.87579">
        <ele>630</ele>
        <time>2019-06-12T11:51:06Z</time>
      </trkpt>
      <trkpt lat="44.36205" lon="5.87595">
        <ele>630</ele>
        <time>2019-06-12T11:51:07Z</time>
      </trkpt>
      <trkpt lat="44.36209" lon="5.8761">
        <ele>630</ele>
        <time>2019-06-12T11:51:08Z</time>
      </trkpt>
      <trkpt lat="44.36212" lon="5.87626">
        <ele>629</ele>
        <time>2019-06-12T11:51:09Z</time>
      </trkpt>
      <trkpt lat="44.36216" lon="5.87641">
        <ele>628</ele>
        <time>2019-06-12T11:51:10Z</time>
      </trkpt>
      <trkpt lat="44.36218" lon="5.87656">
        <ele>628</ele>
        <time>2019-06-12T11:51:11Z</time>
      </trkpt>
      <trkpt lat="44.36219" lon="5.87672">
        <ele>627</ele>
        <time>2019-06-12T11:51:12Z</time>
      </trkpt>
      <trkpt lat="44.36219" lon="5.87688">
        <ele>626</ele>
        <time>2019-06-12T11:51:13Z</time>
      </trkpt>
      <trkpt lat="44.36219" lon="5.87704">
        <ele>625</ele>
        <time>2019-06-12T11:51:14Z</time>
      </trkpt>
      <trkpt lat="44.36219" lon="5.8772">
        <ele>624</ele>
        <time>2019-06-12T11:51:15Z</time>
      </trkpt>
      <trkpt lat="44.36219" lon="5.87736">
        <ele>624</ele>
        <time>2019-06-12T11:51:16Z</time>
      </trkpt>
      <trkpt lat="44.36221" lon="5.87752">
        <ele>623</ele>
        <time>2019-06-12T11:51:17Z</time>
      </trkpt>
      <trkpt lat="44.36223" lon="5.87768">
        <ele>622</ele>
        <time>2019-06-12T11:51:18Z</time>
      </trkpt>
      <trkpt lat="44.36226" lon="5.87783">
        <ele>622</ele>
        <time>2019-06-12T11:51:19Z</time>
      </trkpt>
      <trkpt lat="44.3623" lon="5.87799">
        <ele>621</ele>
        <time>2019-06-12T11:51:20Z</time>
      </trkpt>
      <trkpt lat="44.36234" lon="5.87814">
        <ele>621</ele>
        <time>2019-06-12T11:51:21Z</time>
      </trkpt>
      <trkpt lat="44.36238" lon="5.87829">
        <ele>620</ele>
        <time>2019-06-12T11:51:22Z</time>
      </trkpt>
      <trkpt lat="44.36241" lon="5.87845">
        <ele>620</ele>
        <time>2019-06-12T11:51:23Z</time>
      </trkpt>
      <trkpt lat="44.36244" lon="5.8786">
        <ele>619</ele>
        <time>2019-06-12T11:51:24Z</time>
      </trkpt>
      <trkpt lat="44.36246" lon="5.87875">
        <ele>618</ele>
        <time>2019-06-12T11:51:25Z</time>
      </trkpt>
      <trkpt lat="44.36246" lon="5.87889">
        <ele>618</ele>
        <time>2019-06-12T11:51:26Z</time>
      </trkpt>
      <trkpt lat="44.36247" lon="5.87903">
        <ele>617</ele>
        <time>2019-06-12T11:51:28Z</time>
      </trkpt>
      <trkpt lat="44.36246" lon="5.87917">
        <ele>617</ele>
        <time>2019-06-12T11:51:29Z</time>
      </trkpt>
      <trkpt lat="44.36245" lon="5.87929">
        <ele>617</ele>
        <time>2019-06-12T11:51:30Z</time>
      </trkpt>
      <trkpt lat="44.36244" lon="5.87943">
        <ele>617</ele>
        <time>2019-06-12T11:51:31Z</time>
      </trkpt>
      <trkpt lat="44.36243" lon="5.87956">
        <ele>617</ele>
        <time>2019-06-12T11:51:32Z</time>
      </trkpt>
      <trkpt lat="44.36244" lon="5.8797">
        <ele>617</ele>
        <time>2019-06-12T11:51:33Z</time>
      </trkpt>
      <trkpt lat="44.36245" lon="5.87984">
        <ele>617</ele>
        <time>2019-06-12T11:51:33Z</time>
      </trkpt>
      <trkpt lat="44.36248" lon="5.87998">
        <ele>617</ele>
        <time>2019-06-12T11:51:34Z</time>
      </trkpt>
      <trkpt lat="44.36252" lon="5.88012">
        <ele>616</ele>
        <time>2019-06-12T11:51:35Z</time>
      </trkpt>
      <trkpt lat="44.36256" lon="5.88025">
        <ele>616</ele>
        <time>2019-06-12T11:51:36Z</time>
      </trkpt>
      <trkpt lat="44.36261" lon="5.88039">
        <ele>616</ele>
        <time>2019-06-12T11:51:37Z</time>
      </trkpt>
      <trkpt lat="44.36266" lon="5.88053">
        <ele>615</ele>
        <time>2019-06-12T11:51:38Z</time>
      </trkpt>
      <trkpt lat="44.3627" lon="5.88067">
        <ele>615</ele>
        <time>2019-06-12T11:51:39Z</time>
      </trkpt>
      <trkpt lat="44.36275" lon="5.88082">
        <ele>614</ele>
        <time>2019-06-12T11:51:40Z</time>
      </trkpt>
      <trkpt lat="44.36279" lon="5.88095">
        <ele>613</ele>
        <time>2019-06-12T11:51:41Z</time>
      </trkpt>
      <trkpt lat="44.36282" lon="5.88108">
        <ele>613</ele>
        <time>2019-06-12T11:51:43Z</time>
      </trkpt>
      <trkpt lat="44.36286" lon="5.8812">
        <ele>613</ele>
        <time>2019-06-12T11:51:44Z</time>
      </trkpt>
      <trkpt lat="44.36289" lon="5.88132">
        <ele>613</ele>
        <time>2019-06-12T11:51:45Z</time>
      </trkpt>
      <trkpt lat="44.36292" lon="5.88143">
        <ele>613</ele>
        <time>2019-06-12T11:51:46Z</time>
      </trkpt>
      <trkpt lat="44.36295" lon="5.88155">
        <ele>613</ele>
        <time>2019-06-12T11:51:47Z</time>
      </trkpt>
      <trkpt lat="44.36298" lon="5.88166">
        <ele>613</ele>
        <time>2019-06-12T11:51:48Z</time>
      </trkpt>
      <trkpt lat="44.36301" lon="5.88177">
        <ele>613</ele>
        <time>2019-06-12T11:51:49Z</time>
      </trkpt>
      <trkpt lat="44.36304" lon="5.88188">
        <ele>613</ele>
        <time>2019-06-12T11:51:50Z</time>
      </trkpt>
      <trkpt lat="44.36307" lon="5.88199">
        <ele>613</ele>
        <time>2019-06-12T11:51:51Z</time>
      </trkpt>
      <trkpt lat="44.3631" lon="5.8821">
        <ele>613</ele>
        <time>2019-06-12T11:51:52Z</time>
      </trkpt>
      <trkpt lat="44.36313" lon="5.88222">
        <ele>613</ele>
        <time>2019-06-12T11:51:53Z</time>
      </trkpt>
      <trkpt lat="44.36315" lon="5.88234">
        <ele>613</ele>
        <time>2019-06-12T11:51:54Z</time>
      </trkpt>
      <trkpt lat="44.36318" lon="5.88246">
        <ele>613</ele>
        <time>2019-06-12T11:51:55Z</time>
      </trkpt>
      <trkpt lat="44.3632" lon="5.88258">
        <ele>613</ele>
        <time>2019-06-12T11:51:56Z</time>
      </trkpt>
      <trkpt lat="44.36322" lon="5.88271">
        <ele>613</ele>
        <time>2019-06-12T11:51:57Z</time>
      </trkpt>
      <trkpt lat="44.36324" lon="5.88283">
        <ele>613</ele>
        <time>2019-06-12T11:51:58Z</time>
      </trkpt>
      <trkpt lat="44.36326" lon="5.88295">
        <ele>613</ele>
        <time>2019-06-12T11:51:59Z</time>
      </trkpt>
      <trkpt lat="44.36329" lon="5.88307">
        <ele>613</ele>
        <time>2019-06-12T11:52:00Z</time>
      </trkpt>
      <trkpt lat="44.36333" lon="5.88319">
        <ele>613</ele>
        <time>2019-06-12T11:52:01Z</time>
      </trkpt>
      <trkpt lat="44.36337" lon="5.88332">
        <ele>613</ele>
        <time>2019-06-12T11:52:01Z</time>
      </trkpt>
      <trkpt lat="44.36342" lon="5.88345">
        <ele>613</ele>
        <time>2019-06-12T11:52:02Z</time>
      </trkpt>
      <trkpt lat="44.36346" lon="5.88358">
        <ele>613</ele>
        <time>2019-06-12T11:52:03Z</time>
      </trkpt>
      <trkpt lat="44.36351" lon="5.88371">
        <ele>613</ele>
        <time>2019-06-12T11:52:04Z</time>
      </trkpt>
      <trkpt lat="44.36356" lon="5.88383">
        <ele>613</ele>
        <time>2019-06-12T11:52:05Z</time>
      </trkpt>
      <trkpt lat="44.3636" lon="5.88396">
        <ele>613</ele>
        <time>2019-06-12T11:52:07Z</time>
      </trkpt>
      <trkpt lat="44.36364" lon="5.88407">
        <ele>612</ele>
        <time>2019-06-12T11:52:08Z</time>
      </trkpt>
      <trkpt lat="44.36367" lon="5.88419">
        <ele>611</ele>
        <time>2019-06-12T11:52:09Z</time>
      </trkpt>
      <trkpt lat="44.36369" lon="5.88431">
        <ele>611</ele>
        <time>2019-06-12T11:52:10Z</time>
      </trkpt>
      <trkpt lat="44.36371" lon="5.88443">
        <ele>611</ele>
        <time>2019-06-12T11:52:11Z</time>
      </trkpt>
      <trkpt lat="44.36372" lon="5.88454">
        <ele>611</ele>
        <time>2019-06-12T11:52:12Z</time>
      </trkpt>
      <trkpt lat="44.36373" lon="5.88465">
        <ele>611</ele>
        <time>2019-06-12T11:52:13Z</time>
      </trkpt>
      <trkpt lat="44.36373" lon="5.88476">
        <ele>611</ele>
        <time>2019-06-12T11:52:14Z</time>
      </trkpt>
      <trkpt lat="44.36373" lon="5.88484">
        <ele>611</ele>
        <time>2019-06-12T11:52:15Z</time>
      </trkpt>
      <trkpt lat="44.36374" lon="5.88492">
        <ele>611</ele>
        <time>2019-06-12T11:52:16Z</time>
      </trkpt>
      <trkpt lat="44.36374" lon="5.88499">
        <ele>611</ele>
        <time>2019-06-12T11:52:17Z</time>
      </trkpt>
      <trkpt lat="44.36374" lon="5.88507">
        <ele>611</ele>
        <time>2019-06-12T11:52:18Z</time>
      </trkpt>
      <trkpt lat="44.36374" lon="5.88515">
        <ele>611</ele>
        <time>2019-06-12T11:52:19Z</time>
      </trkpt>
      <trkpt lat="44.36374" lon="5.88522">
        <ele>611</ele>
        <time>2019-06-12T11:52:20Z</time>
      </trkpt>
      <trkpt lat="44.36374" lon="5.88529">
        <ele>611</ele>
        <time>2019-06-12T11:52:21Z</time>
      </trkpt>
      <trkpt lat="44.36374" lon="5.88537">
        <ele>611</ele>
        <time>2019-06-12T11:52:22Z</time>
      </trkpt>
      <trkpt lat="44.36374" lon="5.88546">
        <ele>611</ele>
        <time>2019-06-12T11:52:23Z</time>
      </trkpt>
      <trkpt lat="44.36374" lon="5.88555">
        <ele>611</ele>
        <time>2019-06-12T11:52:24Z</time>
      </trkpt>
      <trkpt lat="44.36374" lon="5.88564">
        <ele>611</ele>
        <time>2019-06-12T11:52:25Z</time>
      </trkpt>
      <trkpt lat="44.36373" lon="5.88574">
        <ele>611</ele>
        <time>2019-06-12T11:52:26Z</time>
      </trkpt>
      <trkpt lat="44.36373" lon="5.88583">
        <ele>611</ele>
        <time>2019-06-12T11:52:27Z</time>
      </trkpt>
      <trkpt lat="44.36373" lon="5.88593">
        <ele>611</ele>
        <time>2019-06-12T11:52:28Z</time>
      </trkpt>
      <trkpt lat="44.36373" lon="5.88603">
        <ele>611</ele>
        <time>2019-06-12T11:52:29Z</time>
      </trkpt>
      <trkpt lat="44.36373" lon="5.88613">
        <ele>611</ele>
        <time>2019-06-12T11:52:30Z</time>
      </trkpt>
      <trkpt lat="44.36373" lon="5.88623">
        <ele>611</ele>
        <time>2019-06-12T11:52:31Z</time>
      </trkpt>
      <trkpt lat="44.36372" lon="5.88633">
        <ele>611</ele>
        <time>2019-06-12T11:52:32Z</time>
      </trkpt>
      <trkpt lat="44.3637" lon="5.88643">
        <ele>611</ele>
        <time>2019-06-12T11:52:33Z</time>
      </trkpt>
      <trkpt lat="44.36368" lon="5.88653">
        <ele>611</ele>
        <time>2019-06-12T11:52:34Z</time>
      </trkpt>
      <trkpt lat="44.36366" lon="5.88663">
        <ele>611</ele>
        <time>2019-06-12T11:52:35Z</time>
      </trkpt>
      <trkpt lat="44.36362" lon="5.88673">
        <ele>611</ele>
        <time>2019-06-12T11:52:36Z</time>
      </trkpt>
      <trkpt lat="44.36359" lon="5.88683">
        <ele>611</ele>
        <time>2019-06-12T11:52:37Z</time>
      </trkpt>
      <trkpt lat="44.36355" lon="5.88692">
        <ele>611</ele>
        <time>2019-06-12T11:52:38Z</time>
      </trkpt>
      <trkpt lat="44.36351" lon="5.887">
        <ele>611</ele>
        <time>2019-06-12T11:52:39Z</time>
      </trkpt>
      <trkpt lat="44.36348" lon="5.88709">
        <ele>611</ele>
        <time>2019-06-12T11:52:40Z</time>
      </trkpt>
      <trkpt lat="44.36345" lon="5.88718">
        <ele>611</ele>
        <time>2019-06-12T11:52:41Z</time>
      </trkpt>
      <trkpt lat="44.36343" lon="5.88726">
        <ele>611</ele>
        <time>2019-06-12T11:52:42Z</time>
      </trkpt>
      <trkpt lat="44.36341" lon="5.88735">
        <ele>611</ele>
        <time>2019-06-12T11:52:43Z</time>
      </trkpt>
      <trkpt lat="44.3634" lon="5.88744">
        <ele>611</ele>
        <time>2019-06-12T11:52:44Z</time>
      </trkpt>
      <trkpt lat="44.3634" lon="5.88754">
        <ele>611</ele>
        <time>2019-06-12T11:52:45Z</time>
      </trkpt>
      <trkpt lat="44.3634" lon="5.88763">
        <ele>611</ele>
        <time>2019-06-12T11:52:46Z</time>
      </trkpt>
      <trkpt lat="44.36341" lon="5.88773">
        <ele>611</ele>
        <time>2019-06-12T11:52:47Z</time>
      </trkpt>
      <trkpt lat="44.36343" lon="5.88783">
        <ele>611</ele>
        <time>2019-06-12T11:52:48Z</time>
      </trkpt>
      <trkpt lat="44.36345" lon="5.88792">
        <ele>611</ele>
        <time>2019-06-12T11:52:49Z</time>
      </trkpt>
      <trkpt lat="44.36348" lon="5.88802">
        <ele>611</ele>
        <time>2019-06-12T11:52:50Z</time>
      </trkpt>
      <trkpt lat="44.36351" lon="5.88813">
        <ele>611</ele>
        <time>2019-06-12T11:52:51Z</time>
      </trkpt>
      <trkpt lat="44.36356" lon="5.88824">
        <ele>611</ele>
        <time>2019-06-12T11:52:52Z</time>
      </trkpt>
      <trkpt lat="44.3636" lon="5.88834">
        <ele>611</ele>
        <time>2019-06-12T11:52:53Z</time>
      </trkpt>
      <trkpt lat="44.36364" lon="5.88845">
        <ele>611</ele>
        <time>2019-06-12T11:52:54Z</time>
      </trkpt>
      <trkpt lat="44.36368" lon="5.88855">
        <ele>611</ele>
        <time>2019-06-12T11:52:55Z</time>
      </trkpt>
      <trkpt lat="44.36372" lon="5.88866">
        <ele>611</ele>
        <time>2019-06-12T11:52:56Z</time>
      </trkpt>
      <trkpt lat="44.36377" lon="5.88877">
        <ele>611</ele>
        <time>2019-06-12T11:52:57Z</time>
      </trkpt>
      <trkpt lat="44.36381" lon="5.88888">
        <ele>611</ele>
        <time>2019-06-12T11:52:58Z</time>
      </trkpt>
      <trkpt lat="44.36386" lon="5.889">
        <ele>610</ele>
        <time>2019-06-12T11:52:59Z</time>
      </trkpt>
      <trkpt lat="44.3639" lon="5.88911">
        <ele>610</ele>
        <time>2019-06-12T11:53:00Z</time>
      </trkpt>
      <trkpt lat="44.36395" lon="5.88924">
        <ele>610</ele>
        <time>2019-06-12T11:53:00Z</time>
      </trkpt>
      <trkpt lat="44.364" lon="5.88936">
        <ele>609</ele>
        <time>2019-06-12T11:53:02Z</time>
      </trkpt>
      <trkpt lat="44.36404" lon="5.88948">
        <ele>609</ele>
        <time>2019-06-12T11:53:03Z</time>
      </trkpt>
      <trkpt lat="44.36409" lon="5.88961">
        <ele>608</ele>
        <time>2019-06-12T11:53:04Z</time>
      </trkpt>
      <trkpt lat="44.36413" lon="5.88973">
        <ele>608</ele>
        <time>2019-06-12T11:53:05Z</time>
      </trkpt>
      <trkpt lat="44.36417" lon="5.88984">
        <ele>608</ele>
        <time>2019-06-12T11:53:06Z</time>
      </trkpt>
      <trkpt lat="44.36422" lon="5.88995">
        <ele>608</ele>
        <time>2019-06-12T11:53:07Z</time>
      </trkpt>
      <trkpt lat="44.36425" lon="5.89005">
        <ele>608</ele>
        <time>2019-06-12T11:53:08Z</time>
      </trkpt>
      <trkpt lat="44.36429" lon="5.89014">
        <ele>608</ele>
        <time>2019-06-12T11:53:09Z</time>
      </trkpt>
      <trkpt lat="44.36433" lon="5.89025">
        <ele>608</ele>
        <time>2019-06-12T11:53:10Z</time>
      </trkpt>
      <trkpt lat="44.36437" lon="5.89035">
        <ele>608</ele>
        <time>2019-06-12T11:53:11Z</time>
      </trkpt>
      <trkpt lat="44.36441" lon="5.89045">
        <ele>608</ele>
        <time>2019-06-12T11:53:12Z</time>
      </trkpt>
      <trkpt lat="44.36446" lon="5.89056">
        <ele>608</ele>
        <time>2019-06-12T11:53:13Z</time>
      </trkpt>
      <trkpt lat="44.3645" lon="5.89067">
        <ele>608</ele>
        <time>2019-06-12T11:53:14Z</time>
      </trkpt>
      <trkpt lat="44.36454" lon="5.89078">
        <ele>608</ele>
        <time>2019-06-12T11:53:15Z</time>
      </trkpt>
      <trkpt lat="44.36458" lon="5.89089">
        <ele>608</ele>
        <time>2019-06-12T11:53:16Z</time>
      </trkpt>
      <trkpt lat="44.36462" lon="5.891">
        <ele>608</ele>
        <time>2019-06-12T11:53:17Z</time>
      </trkpt>
      <trkpt lat="44.36467" lon="5.89112">
        <ele>608</ele>
        <time>2019-06-12T11:53:18Z</time>
      </trkpt>
      <trkpt lat="44.36471" lon="5.89124">
        <ele>608</ele>
        <time>2019-06-12T11:53:19Z</time>
      </trkpt>
      <trkpt lat="44.36476" lon="5.89136">
        <ele>608</ele>
        <time>2019-06-12T11:53:20Z</time>
      </trkpt>
      <trkpt lat="44.36481" lon="5.89148">
        <ele>608</ele>
        <time>2019-06-12T11:53:21Z</time>
      </trkpt>
      <trkpt lat="44.36486" lon="5.8916">
        <ele>608</ele>
        <time>2019-06-12T11:53:22Z</time>
      </trkpt>
      <trkpt lat="44.3649" lon="5.89172">
        <ele>607</ele>
        <time>2019-06-12T11:53:23Z</time>
      </trkpt>
      <trkpt lat="44.36495" lon="5.89184">
        <ele>607</ele>
        <time>2019-06-12T11:53:24Z</time>
      </trkpt>
      <trkpt lat="44.36499" lon="5.89196">
        <ele>607</ele>
        <time>2019-06-12T11:53:25Z</time>
      </trkpt>
      <trkpt lat="44.36504" lon="5.89208">
        <ele>607</ele>
        <time>2019-06-12T11:53:26Z</time>
      </trkpt>
      <trkpt lat="44.36509" lon="5.89219">
        <ele>607</ele>
        <time>2019-06-12T11:53:27Z</time>
      </trkpt>
      <trkpt lat="44.36513" lon="5.89231">
        <ele>607</ele>
        <time>2019-06-12T11:53:28Z</time>
      </trkpt>
      <trkpt lat="44.36518" lon="5.89243">
        <ele>606</ele>
        <time>2019-06-12T11:53:29Z</time>
      </trkpt>
      <trkpt lat="44.36523" lon="5.89255">
        <ele>606</ele>
        <time>2019-06-12T11:53:30Z</time>
      </trkpt>
      <trkpt lat="44.36527" lon="5.89268">
        <ele>606</ele>
        <time>2019-06-12T11:53:30Z</time>
      </trkpt>
      <trkpt lat="44.36531" lon="5.89281">
        <ele>606</ele>
        <time>2019-06-12T11:53:31Z</time>
      </trkpt>
      <trkpt lat="44.36536" lon="5.89294">
        <ele>605</ele>
        <time>2019-06-12T11:53:32Z</time>
      </trkpt>
      <trkpt lat="44.3654" lon="5.89308">
        <ele>605</ele>
        <time>2019-06-12T11:53:33Z</time>
      </trkpt>
      <trkpt lat="44.36544" lon="5.89323">
        <ele>605</ele>
        <time>2019-06-12T11:53:34Z</time>
      </trkpt>
      <trkpt lat="44.36547" lon="5.89337">
        <ele>604</ele>
        <time>2019-06-12T11:53:35Z</time>
      </trkpt>
      <trkpt lat="44.3655" lon="5.89352">
        <ele>604</ele>
        <time>2019-06-12T11:53:36Z</time>
      </trkpt>
      <trkpt lat="44.36552" lon="5.89367">
        <ele>604</ele>
        <time>2019-06-12T11:53:37Z</time>
      </trkpt>
      <trkpt lat="44.36554" lon="5.89381">
        <ele>604</ele>
        <time>2019-06-12T11:53:38Z</time>
      </trkpt>
      <trkpt lat="44.36555" lon="5.89395">
        <ele>604</ele>
        <time>2019-06-12T11:53:40Z</time>
      </trkpt>
      <trkpt lat="44.36557" lon="5.89408">
        <ele>604</ele>
        <time>2019-06-12T11:53:41Z</time>
      </trkpt>
      <trkpt lat="44.3656" lon="5.8942">
        <ele>604</ele>
        <time>2019-06-12T11:53:42Z</time>
      </trkpt>
      <trkpt lat="44.36563" lon="5.89431">
        <ele>604</ele>
        <time>2019-06-12T11:53:43Z</time>
      </trkpt>
      <trkpt lat="44.36568" lon="5.89442">
        <ele>604</ele>
        <time>2019-06-12T11:53:44Z</time>
      </trkpt>
      <trkpt lat="44.36572" lon="5.89453">
        <ele>604</ele>
        <time>2019-06-12T11:53:45Z</time>
      </trkpt>
      <trkpt lat="44.36577" lon="5.89463">
        <ele>604</ele>
        <time>2019-06-12T11:53:46Z</time>
      </trkpt>
      <trkpt lat="44.36582" lon="5.89473">
        <ele>604</ele>
        <time>2019-06-12T11:53:47Z</time>
      </trkpt>
      <trkpt lat="44.36587" lon="5.89482">
        <ele>603</ele>
        <time>2019-06-12T11:53:48Z</time>
      </trkpt>
      <trkpt lat="44.36593" lon="5.89491">
        <ele>603</ele>
        <time>2019-06-12T11:53:49Z</time>
      </trkpt>
      <trkpt lat="44.36599" lon="5.89499">
        <ele>602</ele>
        <time>2019-06-12T11:53:50Z</time>
      </trkpt>
      <trkpt lat="44.36605" lon="5.89508">
        <ele>602</ele>
        <time>2019-06-12T11:53:51Z</time>
      </trkpt>
      <trkpt lat="44.36611" lon="5.89517">
        <ele>601</ele>
        <time>2019-06-12T11:53:52Z</time>
      </trkpt>
      <trkpt lat="44.36617" lon="5.89527">
        <ele>601</ele>
        <time>2019-06-12T11:53:53Z</time>
      </trkpt>
      <trkpt lat="44.36623" lon="5.89536">
        <ele>600</ele>
        <time>2019-06-12T11:53:54Z</time>
      </trkpt>
      <trkpt lat="44.3663" lon="5.89545">
        <ele>600</ele>
        <time>2019-06-12T11:53:55Z</time>
      </trkpt>
      <trkpt lat="44.36636" lon="5.89555">
        <ele>599</ele>
        <time>2019-06-12T11:53:56Z</time>
      </trkpt>
      <trkpt lat="44.36642" lon="5.89565">
        <ele>599</ele>
        <time>2019-06-12T11:53:57Z</time>
      </trkpt>
      <trkpt lat="44.36648" lon="5.89574">
        <ele>599</ele>
        <time>2019-06-12T11:53:58Z</time>
      </trkpt>
      <trkpt lat="44.36654" lon="5.89583">
        <ele>599</ele>
        <time>2019-06-12T11:53:59Z</time>
      </trkpt>
      <trkpt lat="44.3666" lon="5.89592">
        <ele>599</ele>
        <time>2019-06-12T11:54:00Z</time>
      </trkpt>
      <trkpt lat="44.36665" lon="5.89601">
        <ele>599</ele>
        <time>2019-06-12T11:54:01Z</time>
      </trkpt>
      <trkpt lat="44.36671" lon="5.89609">
        <ele>599</ele>
        <time>2019-06-12T11:54:02Z</time>
      </trkpt>
      <trkpt lat="44.36676" lon="5.89618">
        <ele>599</ele>
        <time>2019-06-12T11:54:03Z</time>
      </trkpt>
      <trkpt lat="44.36681" lon="5.89626">
        <ele>599</ele>
        <time>2019-06-12T11:54:04Z</time>
      </trkpt>
      <trkpt lat="44.36686" lon="5.89634">
        <ele>599</ele>
        <time>2019-06-12T11:54:05Z</time>
      </trkpt>
      <trkpt lat="44.36691" lon="5.89642">
        <ele>599</ele>
        <time>2019-06-12T11:54:06Z</time>
      </trkpt>
      <trkpt lat="44.36696" lon="5.89649">
        <ele>599</ele>
        <time>2019-06-12T11:54:07Z</time>
      </trkpt>
      <trkpt lat="44.36701" lon="5.89656">
        <ele>599</ele>
        <time>2019-06-12T11:54:08Z</time>
      </trkpt>
      <trkpt lat="44.36706" lon="5.89663">
        <ele>599</ele>
        <time>2019-06-12T11:54:09Z</time>
      </trkpt>
      <trkpt lat="44.3671" lon="5.89671">
        <ele>599</ele>
        <time>2019-06-12T11:54:10Z</time>
      </trkpt>
      <trkpt lat="44.36715" lon="5.89678">
        <ele>599</ele>
        <time>2019-06-12T11:54:11Z</time>
      </trkpt>
      <trkpt lat="44.3672" lon="5.89685">
        <ele>599</ele>
        <time>2019-06-12T11:54:12Z</time>
      </trkpt>
      <trkpt lat="44.36724" lon="5.89692">
        <ele>599</ele>
        <time>2019-06-12T11:54:13Z</time>
      </trkpt>
      <trkpt lat="44.36729" lon="5.897">
        <ele>599</ele>
        <time>2019-06-12T11:54:14Z</time>
      </trkpt>
      <trkpt lat="44.36734" lon="5.89707">
        <ele>599</ele>
        <time>2019-06-12T11:54:15Z</time>
      </trkpt>
      <trkpt lat="44.36738" lon="5.89714">
        <ele>599</ele>
        <time>2019-06-12T11:54:16Z</time>
      </trkpt>
      <trkpt lat="44.36743" lon="5.89721">
        <ele>599</ele>
        <time>2019-06-12T11:54:17Z</time>
      </trkpt>
      <trkpt lat="44.36747" lon="5.89729">
        <ele>599</ele>
        <time>2019-06-12T11:54:18Z</time>
      </trkpt>
      <trkpt lat="44.36752" lon="5.89736">
        <ele>599</ele>
        <time>2019-06-12T11:54:19Z</time>
      </trkpt>
      <trkpt lat="44.36756" lon="5.89744">
        <ele>599</ele>
        <time>2019-06-12T11:54:20Z</time>
      </trkpt>
      <trkpt lat="44.36761" lon="5.89751">
        <ele>599</ele>
        <time>2019-06-12T11:54:21Z</time>
      </trkpt>
      <trkpt lat="44.36765" lon="5.89758">
        <ele>599</ele>
        <time>2019-06-12T11:54:22Z</time>
      </trkpt>
      <trkpt lat="44.36769" lon="5.89766">
        <ele>599</ele>
        <time>2019-06-12T11:54:23Z</time>
      </trkpt>
      <trkpt lat="44.36773" lon="5.89773">
        <ele>599</ele>
        <time>2019-06-12T11:54:24Z</time>
      </trkpt>
      <trkpt lat="44.36777" lon="5.89781">
        <ele>599</ele>
        <time>2019-06-12T11:54:25Z</time>
      </trkpt>
      <trkpt lat="44.36781" lon="5.89788">
        <ele>599</ele>
        <time>2019-06-12T11:54:26Z</time>
      </trkpt>
      <trkpt lat="44.36784" lon="5.89797">
        <ele>599</ele>
        <time>2019-06-12T11:54:27Z</time>
      </trkpt>
      <trkpt lat="44.36788" lon="5.89806">
        <ele>599</ele>
        <time>2019-06-12T11:54:28Z</time>
      </trkpt>
      <trkpt lat="44.36791" lon="5.89815">
        <ele>599</ele>
        <time>2019-06-12T11:54:29Z</time>
      </trkpt>
      <trkpt lat="44.36795" lon="5.89824">
        <ele>599</ele>
        <time>2019-06-12T11:54:30Z</time>
      </trkpt>
      <trkpt lat="44.36798" lon="5.89833">
        <ele>599</ele>
        <time>2019-06-12T11:54:31Z</time>
      </trkpt>
      <trkpt lat="44.36802" lon="5.89843">
        <ele>599</ele>
        <time>2019-06-12T11:54:32Z</time>
      </trkpt>
      <trkpt lat="44.36807" lon="5.89853">
        <ele>599</ele>
        <time>2019-06-12T11:54:33Z</time>
      </trkpt>
      <trkpt lat="44.36812" lon="5.89862">
        <ele>599</ele>
        <time>2019-06-12T11:54:34Z</time>
      </trkpt>
      <trkpt lat="44.36819" lon="5.89872">
        <ele>599</ele>
        <time>2019-06-12T11:54:35Z</time>
      </trkpt>
      <trkpt lat="44.36826" lon="5.89881">
        <ele>599</ele>
        <time>2019-06-12T11:54:36Z</time>
      </trkpt>
      <trkpt lat="44.36834" lon="5.8989">
        <ele>599</ele>
        <time>2019-06-12T11:54:37Z</time>
      </trkpt>
      <trkpt lat="44.36841" lon="5.89899">
        <ele>599</ele>
        <time>2019-06-12T11:54:38Z</time>
      </trkpt>
      <trkpt lat="44.36848" lon="5.89908">
        <ele>599</ele>
        <time>2019-06-12T11:54:39Z</time>
      </trkpt>
      <trkpt lat="44.36856" lon="5.89915">
        <ele>599</ele>
        <time>2019-06-12T11:54:39Z</time>
      </trkpt>
      <trkpt lat="44.36864" lon="5.89921">
        <ele>599</ele>
        <time>2019-06-12T11:54:41Z</time>
      </trkpt>
      <trkpt lat="44.36871" lon="5.89927">
        <ele>599</ele>
        <time>2019-06-12T11:54:42Z</time>
      </trkpt>
      <trkpt lat="44.36878" lon="5.89932">
        <ele>599</ele>
        <time>2019-06-12T11:54:43Z</time>
      </trkpt>
      <trkpt lat="44.36886" lon="5.89937">
        <ele>599</ele>
        <time>2019-06-12T11:54:44Z</time>
      </trkpt>
      <trkpt lat="44.36893" lon="5.89942">
        <ele>599</ele>
        <time>2019-06-12T11:54:45Z</time>
      </trkpt>
      <trkpt lat="44.36899" lon="5.89946">
        <ele>599</ele>
        <time>2019-06-12T11:54:46Z</time>
      </trkpt>
      <trkpt lat="44.36906" lon="5.8995">
        <ele>599</ele>
        <time>2019-06-12T11:54:47Z</time>
      </trkpt>
      <trkpt lat="44.36912" lon="5.89954">
        <ele>599</ele>
        <time>2019-06-12T11:54:47Z</time>
      </trkpt>
      <trkpt lat="44.36919" lon="5.89958">
        <ele>599</ele>
        <time>2019-06-12T11:54:48Z</time>
      </trkpt>
      <trkpt lat="44.36925" lon="5.89962">
        <ele>599</ele>
        <time>2019-06-12T11:54:50Z</time>
      </trkpt>
      <trkpt lat="44.36932" lon="5.89965">
        <ele>599</ele>
        <time>2019-06-12T11:54:50Z</time>
      </trkpt>
      <trkpt lat="44.36938" lon="5.89969">
        <ele>599</ele>
        <time>2019-06-12T11:54:52Z</time>
      </trkpt>
      <trkpt lat="44.36944" lon="5.89972">
        <ele>599</ele>
        <time>2019-06-12T11:54:53Z</time>
      </trkpt>
      <trkpt lat="44.3695" lon="5.89976">
        <ele>599</ele>
        <time>2019-06-12T11:54:53Z</time>
      </trkpt>
      <trkpt lat="44.36956" lon="5.89979">
        <ele>599</ele>
        <time>2019-06-12T11:54:54Z</time>
      </trkpt>
      <trkpt lat="44.36962" lon="5.89982">
        <ele>599</ele>
        <time>2019-06-12T11:54:56Z</time>
      </trkpt>
      <trkpt lat="44.36967" lon="5.89985">
        <ele>599</ele>
        <time>2019-06-12T11:54:57Z</time>
      </trkpt>
      <trkpt lat="44.36973" lon="5.89987">
        <ele>599</ele>
        <time>2019-06-12T11:54:58Z</time>
      </trkpt>
      <trkpt lat="44.36979" lon="5.8999">
        <ele>599</ele>
        <time>2019-06-12T11:54:59Z</time>
      </trkpt>
      <trkpt lat="44.36984" lon="5.89993">
        <ele>599</ele>
        <time>2019-06-12T11:55:00Z</time>
      </trkpt>
      <trkpt lat="44.3699" lon="5.89995">
        <ele>599</ele>
        <time>2019-06-12T11:55:01Z</time>
      </trkpt>
      <trkpt lat="44.36996" lon="5.89998">
        <ele>600</ele>
        <time>2019-06-12T11:55:02Z</time>
      </trkpt>
      <trkpt lat="44.37001" lon="5.9">
        <ele>600</ele>
        <time>2019-06-12T11:55:03Z</time>
      </trkpt>
      <trkpt lat="44.37007" lon="5.90002">
        <ele>601</ele>
        <time>2019-06-12T11:55:04Z</time>
      </trkpt>
      <trkpt lat="44.37013" lon="5.90005">
        <ele>601</ele>
        <time>2019-06-12T11:55:05Z</time>
      </trkpt>
      <trkpt lat="44.37019" lon="5.90007">
        <ele>601</ele>
        <time>2019-06-12T11:55:06Z</time>
      </trkpt>
      <trkpt lat="44.37024" lon="5.90008">
        <ele>601</ele>
        <time>2019-06-12T11:55:07Z</time>
      </trkpt>
      <trkpt lat="44.3703" lon="5.9001">
        <ele>602</ele>
        <time>2019-06-12T11:55:08Z</time>
      </trkpt>
      <trkpt lat="44.37036" lon="5.90012">
        <ele>602</ele>
        <time>2019-06-12T11:55:08Z</time>
      </trkpt>
      <trkpt lat="44.37042" lon="5.90012">
        <ele>602</ele>
        <time>2019-06-12T11:55:09Z</time>
      </trkpt>
      <trkpt lat="44.37049" lon="5.90013">
        <ele>602</ele>
        <time>2019-06-12T11:55:11Z</time>
      </trkpt>
      <trkpt lat="44.37055" lon="5.90012">
        <ele>602</ele>
        <time>2019-06-12T11:55:11Z</time>
      </trkpt>
      <trkpt lat="44.37062" lon="5.90009">
        <ele>602</ele>
        <time>2019-06-12T11:55:12Z</time>
      </trkpt>
      <trkpt lat="44.37069" lon="5.90007">
        <ele>602</ele>
        <time>2019-06-12T11:55:13Z</time>
      </trkpt>
      <trkpt lat="44.37077" lon="5.90003">
        <ele>602</ele>
        <time>2019-06-12T11:55:15Z</time>
      </trkpt>
      <trkpt lat="44.37084" lon="5.89997">
        <ele>602</ele>
        <time>2019-06-12T11:55:15Z</time>
      </trkpt>
      <trkpt lat="44.37091" lon="5.89991">
        <ele>602</ele>
        <time>2019-06-12T11:55:17Z</time>
      </trkpt>
      <trkpt lat="44.37098" lon="5.89983">
        <ele>602</ele>
        <time>2019-06-12T11:55:17Z</time>
      </trkpt>
      <trkpt lat="44.37106" lon="5.89974">
        <ele>602</ele>
        <time>2019-06-12T11:55:18Z</time>
      </trkpt>
      <trkpt lat="44.37113" lon="5.89966">
        <ele>602</ele>
        <time>2019-06-12T11:55:20Z</time>
      </trkpt>
      <trkpt lat="44.37121" lon="5.89958">
        <ele>602</ele>
        <time>2019-06-12T11:55:20Z</time>
      </trkpt>
      <trkpt lat="44.3713" lon="5.89952">
        <ele>602</ele>
        <time>2019-06-12T11:55:22Z</time>
      </trkpt>
      <trkpt lat="44.37139" lon="5.89949">
        <ele>602</ele>
        <time>2019-06-12T11:55:23Z</time>
      </trkpt>
      <trkpt lat="44.37149" lon="5.89948">
        <ele>602</ele>
        <time>2019-06-12T11:55:24Z</time>
      </trkpt>
      <trkpt lat="44.37158" lon="5.89949">
        <ele>602</ele>
        <time>2019-06-12T11:55:25Z</time>
      </trkpt>
      <trkpt lat="44.37167" lon="5.89954">
        <ele>602</ele>
        <time>2019-06-12T11:55:26Z</time>
      </trkpt>
      <trkpt lat="44.37175" lon="5.89959">
        <ele>602</ele>
        <time>2019-06-12T11:55:27Z</time>
      </trkpt>
      <trkpt lat="44.37182" lon="5.89966">
        <ele>602</ele>
        <time>2019-06-12T11:55:28Z</time>
      </trkpt>
      <trkpt lat="44.37189" lon="5.89973">
        <ele>602</ele>
        <time>2019-06-12T11:55:29Z</time>
      </trkpt>
      <trkpt lat="44.37195" lon="5.89982">
        <ele>602</ele>
        <time>2019-06-12T11:55:30Z</time>
      </trkpt>
      <trkpt lat="44.37201" lon="5.8999">
        <ele>602</ele>
        <time>2019-06-12T11:55:31Z</time>
      </trkpt>
      <trkpt lat="44.37207" lon="5.89998">
        <ele>602</ele>
        <time>2019-06-12T11:55:32Z</time>
      </trkpt>
      <trkpt lat="44.37213" lon="5.90006">
        <ele>602</ele>
        <time>2019-06-12T11:55:33Z</time>
      </trkpt>
      <trkpt lat="44.37219" lon="5.90014">
        <ele>602</ele>
        <time>2019-06-12T11:55:34Z</time>
      </trkpt>
      <trkpt lat="44.37224" lon="5.90022">
        <ele>602</ele>
        <time>2019-06-12T11:55:35Z</time>
      </trkpt>
      <trkpt lat="44.37229" lon="5.90029">
        <ele>602</ele>
        <time>2019-06-12T11:55:36Z</time>
      </trkpt>
      <trkpt lat="44.37234" lon="5.90037">
        <ele>602</ele>
        <time>2019-06-12T11:55:36Z</time>
      </trkpt>
      <trkpt lat="44.37239" lon="5.90045">
        <ele>602</ele>
        <time>2019-06-12T11:55:38Z</time>
      </trkpt>
      <trkpt lat="44.37244" lon="5.90052">
        <ele>602</ele>
        <time>2019-06-12T11:55:38Z</time>
      </trkpt>
      <trkpt lat="44.37249" lon="5.9006">
        <ele>602</ele>
        <time>2019-06-12T11:55:40Z</time>
      </trkpt>
      <trkpt lat="44.37253" lon="5.90066">
        <ele>602</ele>
        <time>2019-06-12T11:55:41Z</time>
      </trkpt>
      <trkpt lat="44.37257" lon="5.90073">
        <ele>602</ele>
        <time>2019-06-12T11:55:42Z</time>
      </trkpt>
      <trkpt lat="44.37262" lon="5.90079">
        <ele>602</ele>
        <time>2019-06-12T11:55:43Z</time>
      </trkpt>
      <trkpt lat="44.37266" lon="5.90085">
        <ele>602</ele>
        <time>2019-06-12T11:55:44Z</time>
      </trkpt>
      <trkpt lat="44.3727" lon="5.9009">
        <ele>602</ele>
        <time>2019-06-12T11:55:45Z</time>
      </trkpt>
      <trkpt lat="44.37275" lon="5.90096">
        <ele>602</ele>
        <time>2019-06-12T11:55:46Z</time>
      </trkpt>
      <trkpt lat="44.3728" lon="5.90102">
        <ele>602</ele>
        <time>2019-06-12T11:55:47Z</time>
      </trkpt>
      <trkpt lat="44.37284" lon="5.90108">
        <ele>602</ele>
        <time>2019-06-12T11:55:48Z</time>
      </trkpt>
      <trkpt lat="44.37288" lon="5.90114">
        <ele>602</ele>
        <time>2019-06-12T11:55:49Z</time>
      </trkpt>
      <trkpt lat="44.37292" lon="5.9012">
        <ele>602</ele>
        <time>2019-06-12T11:55:50Z</time>
      </trkpt>
      <trkpt lat="44.37297" lon="5.90125">
        <ele>602</ele>
        <time>2019-06-12T11:55:51Z</time>
      </trkpt>
      <trkpt lat="44.37301" lon="5.90131">
        <ele>602</ele>
        <time>2019-06-12T11:55:51Z</time>
      </trkpt>
      <trkpt lat="44.37305" lon="5.90136">
        <ele>602</ele>
        <time>2019-06-12T11:55:52Z</time>
      </trkpt>
      <trkpt lat="44.3731" lon="5.90141">
        <ele>602</ele>
        <time>2019-06-12T11:55:54Z</time>
      </trkpt>
      <trkpt lat="44.37314" lon="5.90147">
        <ele>602</ele>
        <time>2019-06-12T11:55:55Z</time>
      </trkpt>
      <trkpt lat="44.37318" lon="5.90153">
        <ele>602</ele>
        <time>2019-06-12T11:55:55Z</time>
      </trkpt>
      <trkpt lat="44.37322" lon="5.90158">
        <ele>602</ele>
        <time>2019-06-12T11:55:56Z</time>
      </trkpt>
      <trkpt lat="44.37326" lon="5.90163">
        <ele>602</ele>
        <time>2019-06-12T11:55:57Z</time>
      </trkpt>
      <trkpt lat="44.37331" lon="5.90168">
        <ele>602</ele>
        <time>2019-06-12T11:55:58Z</time>
      </trkpt>
      <trkpt lat="44.37334" lon="5.90173">
        <ele>602</ele>
        <time>2019-06-12T11:56:00Z</time>
      </trkpt>
      <trkpt lat="44.37339" lon="5.90178">
        <ele>602</ele>
        <time>2019-06-12T11:56:00Z</time>
      </trkpt>
      <trkpt lat="44.37342" lon="5.90183">
        <ele>602</ele>
        <time>2019-06-12T11:56:01Z</time>
      </trkpt>
      <trkpt lat="44.37347" lon="5.90188">
        <ele>602</ele>
        <time>2019-06-12T11:56:02Z</time>
      </trkpt>
      <trkpt lat="44.3735" lon="5.90194">
        <ele>602</ele>
        <time>2019-06-12T11:56:03Z</time>
      </trkpt>
      <trkpt lat="44.37355" lon="5.90199">
        <ele>602</ele>
        <time>2019-06-12T11:56:05Z</time>
      </trkpt>
      <trkpt lat="44.37359" lon="5.90204">
        <ele>602</ele>
        <time>2019-06-12T11:56:05Z</time>
      </trkpt>
      <trkpt lat="44.37364" lon="5.9021">
        <ele>602</ele>
        <time>2019-06-12T11:56:06Z</time>
      </trkpt>
      <trkpt lat="44.37368" lon="5.90215">
        <ele>602</ele>
        <time>2019-06-12T11:56:07Z</time>
      </trkpt>
      <trkpt lat="44.37373" lon="5.90221">
        <ele>602</ele>
        <time>2019-06-12T11:56:08Z</time>
      </trkpt>
      <trkpt lat="44.37377" lon="5.90226">
        <ele>603</ele>
        <time>2019-06-12T11:56:09Z</time>
      </trkpt>
      <trkpt lat="44.37381" lon="5.90232">
        <ele>603</ele>
        <time>2019-06-12T11:56:11Z</time>
      </trkpt>
      <trkpt lat="44.37385" lon="5.90237">
        <ele>603</ele>
        <time>2019-06-12T11:56:11Z</time>
      </trkpt>
      <trkpt lat="44.37389" lon="5.90242">
        <ele>603</ele>
        <time>2019-06-12T11:56:12Z</time>
      </trkpt>
      <trkpt lat="44.37394" lon="5.90248">
        <ele>603</ele>
        <time>2019-06-12T11:56:13Z</time>
      </trkpt>
      <trkpt lat="44.37397" lon="5.90253">
        <ele>604</ele>
        <time>2019-06-12T11:56:14Z</time>
      </trkpt>
      <trkpt lat="44.37402" lon="5.90258">
        <ele>604</ele>
        <time>2019-06-12T11:56:15Z</time>
      </trkpt>
      <trkpt lat="44.37406" lon="5.90263">
        <ele>604</ele>
        <time>2019-06-12T11:56:17Z</time>
      </trkpt>
      <trkpt lat="44.3741" lon="5.90268">
        <ele>604</ele>
        <time>2019-06-12T11:56:17Z</time>
      </trkpt>
      <trkpt lat="44.37414" lon="5.90273">
        <ele>605</ele>
        <time>2019-06-12T11:56:18Z</time>
      </trkpt>
      <trkpt lat="44.37418" lon="5.90278">
        <ele>605</ele>
        <time>2019-06-12T11:56:19Z</time>
      </trkpt>
      <trkpt lat="44.37422" lon="5.90283">
        <ele>605</ele>
        <time>2019-06-12T11:56:20Z</time>
      </trkpt>
      <trkpt lat="44.37426" lon="5.90288">
        <ele>605</ele>
        <time>2019-06-12T11:56:22Z</time>
      </trkpt>
      <trkpt lat="44.37429" lon="5.90294">
        <ele>605</ele>
        <time>2019-06-12T11:56:22Z</time>
      </trkpt>
      <trkpt lat="44.37434" lon="5.90299">
        <ele>606</ele>
        <time>2019-06-12T11:56:23Z</time>
      </trkpt>
      <trkpt lat="44.37438" lon="5.90304">
        <ele>606</ele>
        <time>2019-06-12T11:56:24Z</time>
      </trkpt>
      <trkpt lat="44.37442" lon="5.90309">
        <ele>606</ele>
        <time>2019-06-12T11:56:25Z</time>
      </trkpt>
      <trkpt lat="44.37445" lon="5.90314">
        <ele>606</ele>
        <time>2019-06-12T11:56:27Z</time>
      </trkpt>
      <trkpt lat="44.37449" lon="5.90319">
        <ele>607</ele>
        <time>2019-06-12T11:56:27Z</time>
      </trkpt>
      <trkpt lat="44.37453" lon="5.90324">
        <ele>607</ele>
        <time>2019-06-12T11:56:29Z</time>
      </trkpt>
      <trkpt lat="44.37457" lon="5.90328">
        <ele>607</ele>
        <time>2019-06-12T11:56:29Z</time>
      </trkpt>
      <trkpt lat="44.37461" lon="5.90333">
        <ele>607</ele>
        <time>2019-06-12T11:56:30Z</time>
      </trkpt>
      <trkpt lat="44.37465" lon="5.90338">
        <ele>608</ele>
        <time>2019-06-12T11:56:32Z</time>
      </trkpt>
      <trkpt lat="44.37469" lon="5.90343">
        <ele>608</ele>
        <time>2019-06-12T11:56:32Z</time>
      </trkpt>
      <trkpt lat="44.37473" lon="5.90348">
        <ele>608</ele>
        <time>2019-06-12T11:56:33Z</time>
      </trkpt>
      <trkpt lat="44.37477" lon="5.90353">
        <ele>608</ele>
        <time>2019-06-12T11:56:34Z</time>
      </trkpt>
      <trkpt lat="44.37481" lon="5.90358">
        <ele>609</ele>
        <time>2019-06-12T11:56:35Z</time>
      </trkpt>
      <trkpt lat="44.37485" lon="5.90363">
        <ele>609</ele>
        <time>2019-06-12T11:56:37Z</time>
      </trkpt>
      <trkpt lat="44.37489" lon="5.90369">
        <ele>609</ele>
        <time>2019-06-12T11:56:37Z</time>
      </trkpt>
      <trkpt lat="44.37493" lon="5.90374">
        <ele>609</ele>
        <time>2019-06-12T11:56:38Z</time>
      </trkpt>
      <trkpt lat="44.37497" lon="5.90379">
        <ele>609</ele>
        <time>2019-06-12T11:56:39Z</time>
      </trkpt>
      <trkpt lat="44.37501" lon="5.90385">
        <ele>609</ele>
        <time>2019-06-12T11:56:40Z</time>
      </trkpt>
      <trkpt lat="44.37505" lon="5.9039">
        <ele>609</ele>
        <time>2019-06-12T11:56:42Z</time>
      </trkpt>
      <trkpt lat="44.3751" lon="5.90395">
        <ele>609</ele>
        <time>2019-06-12T11:56:42Z</time>
      </trkpt>
      <trkpt lat="44.37514" lon="5.90401">
        <ele>609</ele>
        <time>2019-06-12T11:56:43Z</time>
      </trkpt>
      <trkpt lat="44.37518" lon="5.90407">
        <ele>609</ele>
        <time>2019-06-12T11:56:44Z</time>
      </trkpt>
      <trkpt lat="44.37522" lon="5.90412">
        <ele>609</ele>
        <time>2019-06-12T11:56:46Z</time>
      </trkpt>
      <trkpt lat="44.37527" lon="5.90417">
        <ele>610</ele>
        <time>2019-06-12T11:56:47Z</time>
      </trkpt>
      <trkpt lat="44.37531" lon="5.90422">
        <ele>610</ele>
        <time>2019-06-12T11:56:47Z</time>
      </trkpt>
      <trkpt lat="44.37535" lon="5.90427">
        <ele>610</ele>
        <time>2019-06-12T11:56:49Z</time>
      </trkpt>
      <trkpt lat="44.3754" lon="5.90433">
        <ele>610</ele>
        <time>2019-06-12T11:56:49Z</time>
      </trkpt>
      <trkpt lat="44.37545" lon="5.90438">
        <ele>610</ele>
        <time>2019-06-12T11:56:51Z</time>
      </trkpt>
      <trkpt lat="44.37549" lon="5.90443">
        <ele>610</ele>
        <time>2019-06-12T11:56:51Z</time>
      </trkpt>
      <trkpt lat="44.37554" lon="5.90448">
        <ele>610</ele>
        <time>2019-06-12T11:56:53Z</time>
      </trkpt>
      <trkpt lat="44.3756" lon="5.90452">
        <ele>610</ele>
        <time>2019-06-12T11:56:53Z</time>
      </trkpt>
      <trkpt lat="44.37565" lon="5.90457">
        <ele>610</ele>
        <time>2019-06-12T11:56:54Z</time>
      </trkpt>
      <trkpt lat="44.37571" lon="5.90461">
        <ele>610</ele>
        <time>2019-06-12T11:56:56Z</time>
      </trkpt>
      <trkpt lat="44.37577" lon="5.90466">
        <ele>610</ele>
        <time>2019-06-12T11:56:56Z</time>
      </trkpt>
      <trkpt lat="44.37583" lon="5.9047">
        <ele>610</ele>
        <time>2019-06-12T11:56:57Z</time>
      </trkpt>
      <trkpt lat="44.37589" lon="5.90474">
        <ele>610</ele>
        <time>2019-06-12T11:56:59Z</time>
      </trkpt>
      <trkpt lat="44.37596" lon="5.90478">
        <ele>610</ele>
        <time>2019-06-12T11:57:00Z</time>
      </trkpt>
      <trkpt lat="44.37602" lon="5.90482">
        <ele>610</ele>
        <time>2019-06-12T11:57:01Z</time>
      </trkpt>
      <trkpt lat="44.37609" lon="5.90486">
        <ele>610</ele>
        <time>2019-06-12T11:57:01Z</time>
      </trkpt>
      <trkpt lat="44.37615" lon="5.90491">
        <ele>610</ele>
        <time>2019-06-12T11:57:02Z</time>
      </trkpt>
      <trkpt lat="44.37622" lon="5.90495">
        <ele>610</ele>
        <time>2019-06-12T11:57:04Z</time>
      </trkpt>
      <trkpt lat="44.37628" lon="5.90499">
        <ele>610</ele>
        <time>2019-06-12T11:57:05Z</time>
      </trkpt>
      <trkpt lat="44.37635" lon="5.90503">
        <ele>610</ele>
        <time>2019-06-12T11:57:05Z</time>
      </trkpt>
      <trkpt lat="44.37641" lon="5.90507">
        <ele>610</ele>
        <time>2019-06-12T11:57:06Z</time>
      </trkpt>
      <trkpt lat="44.37648" lon="5.90511">
        <ele>610</ele>
        <time>2019-06-12T11:57:07Z</time>
      </trkpt>
      <trkpt lat="44.37654" lon="5.90515">
        <ele>610</ele>
        <time>2019-06-12T11:57:08Z</time>
      </trkpt>
      <trkpt lat="44.37661" lon="5.9052">
        <ele>610</ele>
        <time>2019-06-12T11:57:10Z</time>
      </trkpt>
      <trkpt lat="44.37667" lon="5.90524">
        <ele>610</ele>
        <time>2019-06-12T11:57:11Z</time>
      </trkpt>
      <trkpt lat="44.37673" lon="5.90529">
        <ele>610</ele>
        <time>2019-06-12T11:57:11Z</time>
      </trkpt>
      <trkpt lat="44.3768" lon="5.90534">
        <ele>610</ele>
        <time>2019-06-12T11:57:12Z</time>
      </trkpt>
      <trkpt lat="44.37686" lon="5.90539">
        <ele>610</ele>
        <time>2019-06-12T11:57:13Z</time>
      </trkpt>
      <trkpt lat="44.37692" lon="5.90545">
        <ele>610</ele>
        <time>2019-06-12T11:57:15Z</time>
      </trkpt>
      <trkpt lat="44.37698" lon="5.90552">
        <ele>610</ele>
        <time>2019-06-12T11:57:15Z</time>
      </trkpt>
      <trkpt lat="44.37703" lon="5.90558">
        <ele>610</ele>
        <time>2019-06-12T11:57:17Z</time>
      </trkpt>
      <trkpt lat="44.37709" lon="5.90565">
        <ele>610</ele>
        <time>2019-06-12T11:57:17Z</time>
      </trkpt>
      <trkpt lat="44.37714" lon="5.90572">
        <ele>610</ele>
        <time>2019-06-12T11:57:18Z</time>
      </trkpt>
      <trkpt lat="44.3772" lon="5.90579">
        <ele>610</ele>
        <time>2019-06-12T11:57:20Z</time>
      </trkpt>
      <trkpt lat="44.37725" lon="5.90587">
        <ele>610</ele>
        <time>2019-06-12T11:57:20Z</time>
      </trkpt>
      <trkpt lat="44.3773" lon="5.90594">
        <ele>610</ele>
        <time>2019-06-12T11:57:21Z</time>
      </trkpt>
      <trkpt lat="44.37735" lon="5.90602">
        <ele>610</ele>
        <time>2019-06-12T11:57:22Z</time>
      </trkpt>
      <trkpt lat="44.3774" lon="5.9061">
        <ele>610</ele>
        <time>2019-06-12T11:57:23Z</time>
      </trkpt>
      <trkpt lat="44.37746" lon="5.90617">
        <ele>610</ele>
        <time>2019-06-12T11:57:25Z</time>
      </trkpt>
      <trkpt lat="44.37751" lon="5.90625">
        <ele>610</ele>
        <time>2019-06-12T11:57:25Z</time>
      </trkpt>
      <trkpt lat="44.37757" lon="5.90632">
        <ele>610</ele>
        <time>2019-06-12T11:57:26Z</time>
      </trkpt>
      <trkpt lat="44.37763" lon="5.90639">
        <ele>610</ele>
        <time>2019-06-12T11:57:27Z</time>
      </trkpt>
      <trkpt lat="44.37769" lon="5.90645">
        <ele>610</ele>
        <time>2019-06-12T11:57:29Z</time>
      </trkpt>
      <trkpt lat="44.37776" lon="5.90652">
        <ele>610</ele>
        <time>2019-06-12T11:57:30Z</time>
      </trkpt>
      <trkpt lat="44.37783" lon="5.90658">
        <ele>610</ele>
        <time>2019-06-12T11:57:30Z</time>
      </trkpt>
      <trkpt lat="44.37789" lon="5.90665">
        <ele>610</ele>
        <time>2019-06-12T11:57:31Z</time>
      </trkpt>
      <trkpt lat="44.37796" lon="5.90671">
        <ele>610</ele>
        <time>2019-06-12T11:57:32Z</time>
      </trkpt>
      <trkpt lat="44.37803" lon="5.90678">
        <ele>610</ele>
        <time>2019-06-12T11:57:33Z</time>
      </trkpt>
      <trkpt lat="44.3781" lon="5.90684">
        <ele>610</ele>
        <time>2019-06-12T11:57:35Z</time>
      </trkpt>
      <trkpt lat="44.37817" lon="5.90691">
        <ele>610</ele>
        <time>2019-06-12T11:57:35Z</time>
      </trkpt>
      <trkpt lat="44.37824" lon="5.90697">
        <ele>610</ele>
        <time>2019-06-12T11:57:36Z</time>
      </trkpt>
      <trkpt lat="44.37831" lon="5.90704">
        <ele>610</ele>
        <time>2019-06-12T11:57:37Z</time>
      </trkpt>
      <trkpt lat="44.37838" lon="5.9071">
        <ele>610</ele>
        <time>2019-06-12T11:57:38Z</time>
      </trkpt>
      <trkpt lat="44.37844" lon="5.90717">
        <ele>610</ele>
        <time>2019-06-12T11:57:40Z</time>
      </trkpt>
      <trkpt lat="44.37851" lon="5.90723">
        <ele>610</ele>
        <time>2019-06-12T11:57:40Z</time>
      </trkpt>
      <trkpt lat="44.37859" lon="5.9073">
        <ele>610</ele>
        <time>2019-06-12T11:57:41Z</time>
      </trkpt>
      <trkpt lat="44.37866" lon="5.90736">
        <ele>610</ele>
        <time>2019-06-12T11:57:42Z</time>
      </trkpt>
      <trkpt lat="44.37873" lon="5.90742">
        <ele>610</ele>
        <time>2019-06-12T11:57:43Z</time>
      </trkpt>
      <trkpt lat="44.3788" lon="5.90749">
        <ele>610</ele>
        <time>2019-06-12T11:57:45Z</time>
      </trkpt>
      <trkpt lat="44.37887" lon="5.90755">
        <ele>610</ele>
        <time>2019-06-12T11:57:45Z</time>
      </trkpt>
      <trkpt lat="44.37894" lon="5.90762">
        <ele>610</ele>
        <time>2019-06-12T11:57:47Z</time>
      </trkpt>
      <trkpt lat="44.37901" lon="5.90769">
        <ele>610</ele>
        <time>2019-06-12T11:57:47Z</time>
      </trkpt>
      <trkpt lat="44.37908" lon="5.90775">
        <ele>610</ele>
        <time>2019-06-12T11:57:48Z</time>
      </trkpt>
      <trkpt lat="44.37915" lon="5.90783">
        <ele>610</ele>
        <time>2019-06-12T11:57:50Z</time>
      </trkpt>
      <trkpt lat="44.37921" lon="5.90791">
        <ele>610</ele>
        <time>2019-06-12T11:57:50Z</time>
      </trkpt>
      <trkpt lat="44.37928" lon="5.90799">
        <ele>610</ele>
        <time>2019-06-12T11:57:51Z</time>
      </trkpt>
      <trkpt lat="44.37933" lon="5.90808">
        <ele>610</ele>
        <time>2019-06-12T11:57:52Z</time>
      </trkpt>
      <trkpt lat="44.37939" lon="5.90818">
        <ele>610</ele>
        <time>2019-06-12T11:57:53Z</time>
      </trkpt>
      <trkpt lat="44.37944" lon="5.90828">
        <ele>610</ele>
        <time>2019-06-12T11:57:55Z</time>
      </trkpt>
      <trkpt lat="44.37949" lon="5.90838">
        <ele>610</ele>
        <time>2019-06-12T11:57:55Z</time>
      </trkpt>
      <trkpt lat="44.37954" lon="5.90849">
        <ele>610</ele>
        <time>2019-06-12T11:57:56Z</time>
      </trkpt>
      <trkpt lat="44.37958" lon="5.9086">
        <ele>610</ele>
        <time>2019-06-12T11:57:57Z</time>
      </trkpt>
      <trkpt lat="44.37963" lon="5.90871">
        <ele>610</ele>
        <time>2019-06-12T11:57:58Z</time>
      </trkpt>
      <trkpt lat="44.37967" lon="5.90883">
        <ele>610</ele>
        <time>2019-06-12T11:58:00Z</time>
      </trkpt>
      <trkpt lat="44.37972" lon="5.90894">
        <ele>610</ele>
        <time>2019-06-12T11:58:00Z</time>
      </trkpt>
      <trkpt lat="44.37977" lon="5.90905">
        <ele>610</ele>
        <time>2019-06-12T11:58:01Z</time>
      </trkpt>
      <trkpt lat="44.37982" lon="5.90916">
        <ele>610</ele>
        <time>2019-06-12T11:58:02Z</time>
      </trkpt>
      <trkpt lat="44.37987" lon="5.90927">
        <ele>610</ele>
        <time>2019-06-12T11:58:03Z</time>
      </trkpt>
      <trkpt lat="44.37992" lon="5.90937">
        <ele>610</ele>
        <time>2019-06-12T11:58:05Z</time>
      </trkpt>
      <trkpt lat="44.37997" lon="5.90948">
        <ele>610</ele>
        <time>2019-06-12T11:58:05Z</time>
      </trkpt>
      <trkpt lat="44.38002" lon="5.90959">
        <ele>610</ele>
        <time>2019-06-12T11:58:06Z</time>
      </trkpt>
      <trkpt lat="44.38007" lon="5.9097">
        <ele>610</ele>
        <time>2019-06-12T11:58:07Z</time>
      </trkpt>
      <trkpt lat="44.38012" lon="5.9098">
        <ele>610</ele>
        <time>2019-06-12T11:58:08Z</time>
      </trkpt>
      <trkpt lat="44.38016" lon="5.90991">
        <ele>610</ele>
        <time>2019-06-12T11:58:10Z</time>
      </trkpt>
      <trkpt lat="44.38021" lon="5.91001">
        <ele>610</ele>
        <time>2019-06-12T11:58:10Z</time>
      </trkpt>
      <trkpt lat="44.38025" lon="5.91012">
        <ele>610</ele>
        <time>2019-06-12T11:58:11Z</time>
      </trkpt>
      <trkpt lat="44.38029" lon="5.91022">
        <ele>610</ele>
        <time>2019-06-12T11:58:12Z</time>
      </trkpt>
      <trkpt lat="44.38034" lon="5.91033">
        <ele>610</ele>
        <time>2019-06-12T11:58:13Z</time>
      </trkpt>
      <trkpt lat="44.38038" lon="5.91043">
        <ele>610</ele>
        <time>2019-06-12T11:58:15Z</time>
      </trkpt>
      <trkpt lat="44.38042" lon="5.91053">
        <ele>610</ele>
        <time>2019-06-12T11:58:15Z</time>
      </trkpt>
      <trkpt lat="44.38046" lon="5.91064">
        <ele>610</ele>
        <time>2019-06-12T11:58:17Z</time>
      </trkpt>
      <trkpt lat="44.3805" lon="5.91074">
        <ele>610</ele>
        <time>2019-06-12T11:58:17Z</time>
      </trkpt>
      <trkpt lat="44.38054" lon="5.91084">
        <ele>610</ele>
        <time>2019-06-12T11:58:18Z</time>
      </trkpt>
      <trkpt lat="44.38058" lon="5.91094">
        <ele>610</ele>
        <time>2019-06-12T11:58:20Z</time>
      </trkpt>
      <trkpt lat="44.38062" lon="5.91104">
        <ele>610</ele>
        <time>2019-06-12T11:58:20Z</time>
      </trkpt>
      <trkpt lat="44.38066" lon="5.91115">
        <ele>610</ele>
        <time>2019-06-12T11:58:21Z</time>
      </trkpt>
      <trkpt lat="44.38071" lon="5.91124">
        <ele>610</ele>
        <time>2019-06-12T11:58:22Z</time>
      </trkpt>
      <trkpt lat="44.38074" lon="5.91135">
        <ele>610</ele>
        <time>2019-06-12T11:58:23Z</time>
      </trkpt>
      <trkpt lat="44.38078" lon="5.91145">
        <ele>610</ele>
        <time>2019-06-12T11:58:25Z</time>
      </trkpt>
      <trkpt lat="44.38082" lon="5.91156">
        <ele>610</ele>
        <time>2019-06-12T11:58:25Z</time>
      </trkpt>
      <trkpt lat="44.38086" lon="5.91166">
        <ele>610</ele>
        <time>2019-06-12T11:58:26Z</time>
      </trkpt>
      <trkpt lat="44.3809" lon="5.91176">
        <ele>610</ele>
        <time>2019-06-12T11:58:27Z</time>
      </trkpt>
      <trkpt lat="44.38094" lon="5.91187">
        <ele>610</ele>
        <time>2019-06-12T11:58:29Z</time>
      </trkpt>
      <trkpt lat="44.38099" lon="5.91197">
        <ele>610</ele>
        <time>2019-06-12T11:58:30Z</time>
      </trkpt>
      <trkpt lat="44.38103" lon="5.91207">
        <ele>610</ele>
        <time>2019-06-12T11:58:30Z</time>
      </trkpt>
      <trkpt lat="44.38107" lon="5.91217">
        <ele>610</ele>
        <time>2019-06-12T11:58:31Z</time>
      </trkpt>
      <trkpt lat="44.38111" lon="5.91227">
        <ele>610</ele>
        <time>2019-06-12T11:58:32Z</time>
      </trkpt>
      <trkpt lat="44.38115" lon="5.91237">
        <ele>610</ele>
        <time>2019-06-12T11:58:33Z</time>
      </trkpt>
      <trkpt lat="44.38119" lon="5.91247">
        <ele>610</ele>
        <time>2019-06-12T11:58:35Z</time>
      </trkpt>
      <trkpt lat="44.38123" lon="5.91257">
        <ele>610</ele>
        <time>2019-06-12T11:58:35Z</time>
      </trkpt>
      <trkpt lat="44.38126" lon="5.91267">
        <ele>610</ele>
        <time>2019-06-12T11:58:36Z</time>
      </trkpt>
      <trkpt lat="44.38131" lon="5.91277">
        <ele>610</ele>
        <time>2019-06-12T11:58:37Z</time>
      </trkpt>
      <trkpt lat="44.38134" lon="5.91287">
        <ele>610</ele>
        <time>2019-06-12T11:58:38Z</time>
      </trkpt>
      <trkpt lat="44.38138" lon="5.91297">
        <ele>610</ele>
        <time>2019-06-12T11:58:39Z</time>
      </trkpt>
      <trkpt lat="44.38142" lon="5.91307">
        <ele>610</ele>
        <time>2019-06-12T11:58:41Z</time>
      </trkpt>
      <trkpt lat="44.38146" lon="5.91316">
        <ele>610</ele>
        <time>2019-06-12T11:58:41Z</time>
      </trkpt>
      <trkpt lat="44.3815" lon="5.91326">
        <ele>610</ele>
        <time>2019-06-12T11:58:42Z</time>
      </trkpt>
      <trkpt lat="44.38154" lon="5.91335">
        <ele>610</ele>
        <time>2019-06-12T11:58:43Z</time>
      </trkpt>
      <trkpt lat="44.38158" lon="5.91345">
        <ele>610</ele>
        <time>2019-06-12T11:58:44Z</time>
      </trkpt>
      <trkpt lat="44.38162" lon="5.91355">
        <ele>610</ele>
        <time>2019-06-12T11:58:45Z</time>
      </trkpt>
      <trkpt lat="44.38166" lon="5.91364">
        <ele>610</ele>
        <time>2019-06-12T11:58:47Z</time>
      </trkpt>
      <trkpt lat="44.38171" lon="5.91373">
        <ele>610</ele>
        <time>2019-06-12T11:58:47Z</time>
      </trkpt>
      <trkpt lat="44.38175" lon="5.91382">
        <ele>610</ele>
        <time>2019-06-12T11:58:48Z</time>
      </trkpt>
      <trkpt lat="44.3818" lon="5.91391">
        <ele>610</ele>
        <time>2019-06-12T11:58:49Z</time>
      </trkpt>
      <trkpt lat="44.38184" lon="5.914">
        <ele>610</ele>
        <time>2019-06-12T11:58:50Z</time>
      </trkpt>
      <trkpt lat="44.38189" lon="5.91409">
        <ele>610</ele>
        <time>2019-06-12T11:58:52Z</time>
      </trkpt>
      <trkpt lat="44.38194" lon="5.91418">
        <ele>610</ele>
        <time>2019-06-12T11:58:52Z</time>
      </trkpt>
      <trkpt lat="44.38199" lon="5.91428">
        <ele>610</ele>
        <time>2019-06-12T11:58:53Z</time>
      </trkpt>
      <trkpt lat="44.38204" lon="5.91437">
        <ele>610</ele>
        <time>2019-06-12T11:58:54Z</time>
      </trkpt>
      <trkpt lat="44.38209" lon="5.91446">
        <ele>610</ele>
        <time>2019-06-12T11:58:55Z</time>
      </trkpt>
      <trkpt lat="44.38214" lon="5.91455">
        <ele>610</ele>
        <time>2019-06-12T11:58:57Z</time>
      </trkpt>
      <trkpt lat="44.38219" lon="5.91464">
        <ele>610</ele>
        <time>2019-06-12T11:58:57Z</time>
      </trkpt>
      <trkpt lat="44.38224" lon="5.91473">
        <ele>610</ele>
        <time>2019-06-12T11:58:58Z</time>
      </trkpt>
      <trkpt lat="44.38229" lon="5.91482">
        <ele>610</ele>
        <time>2019-06-12T11:58:59Z</time>
      </trkpt>
      <trkpt lat="44.38234" lon="5.91491">
        <ele>610</ele>
        <time>2019-06-12T11:59:00Z</time>
      </trkpt>
      <trkpt lat="44.38239" lon="5.915">
        <ele>610</ele>
        <time>2019-06-12T11:59:02Z</time>
      </trkpt>
      <trkpt lat="44.38244" lon="5.91509">
        <ele>610</ele>
        <time>2019-06-12T11:59:02Z</time>
      </trkpt>
      <trkpt lat="44.38248" lon="5.91518">
        <ele>610</ele>
        <time>2019-06-12T11:59:03Z</time>
      </trkpt>
      <trkpt lat="44.38253" lon="5.91527">
        <ele>610</ele>
        <time>2019-06-12T11:59:05Z</time>
      </trkpt>
      <trkpt lat="44.38258" lon="5.91536">
        <ele>610</ele>
        <time>2019-06-12T11:59:05Z</time>
      </trkpt>
      <trkpt lat="44.38262" lon="5.91545">
        <ele>610</ele>
        <time>2019-06-12T11:59:07Z</time>
      </trkpt>
      <trkpt lat="44.38266" lon="5.91553">
        <ele>610</ele>
        <time>2019-06-12T11:59:07Z</time>
      </trkpt>
      <trkpt lat="44.38271" lon="5.91561">
        <ele>610</ele>
        <time>2019-06-12T11:59:08Z</time>
      </trkpt>
      <trkpt lat="44.38275" lon="5.9157">
        <ele>610</ele>
        <time>2019-06-12T11:59:09Z</time>
      </trkpt>
      <trkpt lat="44.3828" lon="5.91578">
        <ele>610</ele>
        <time>2019-06-12T11:59:10Z</time>
      </trkpt>
      <trkpt lat="44.38284" lon="5.91586">
        <ele>610</ele>
        <time>2019-06-12T11:59:12Z</time>
      </trkpt>
      <trkpt lat="44.38289" lon="5.91594">
        <ele>610</ele>
        <time>2019-06-12T11:59:12Z</time>
      </trkpt>
      <trkpt lat="44.38293" lon="5.91603">
        <ele>610</ele>
        <time>2019-06-12T11:59:13Z</time>
      </trkpt>
      <trkpt lat="44.38298" lon="5.91611">
        <ele>610</ele>
        <time>2019-06-12T11:59:14Z</time>
      </trkpt>
      <trkpt lat="44.38302" lon="5.9162">
        <ele>610</ele>
        <time>2019-06-12T11:59:15Z</time>
      </trkpt>
      <trkpt lat="44.38307" lon="5.91628">
        <ele>610</ele>
        <time>2019-06-12T11:59:17Z</time>
      </trkpt>
      <trkpt lat="44.38312" lon="5.91637">
        <ele>610</ele>
        <time>2019-06-12T11:59:17Z</time>
      </trkpt>
      <trkpt lat="44.38316" lon="5.91646">
        <ele>610</ele>
        <time>2019-06-12T11:59:18Z</time>
      </trkpt>
      <trkpt lat="44.38321" lon="5.91655">
        <ele>610</ele>
        <time>2019-06-12T11:59:19Z</time>
      </trkpt>
      <trkpt lat="44.38326" lon="5.91664">
        <ele>610</ele>
        <time>2019-06-12T11:59:20Z</time>
      </trkpt>
      <trkpt lat="44.38331" lon="5.91672">
        <ele>610</ele>
        <time>2019-06-12T11:59:22Z</time>
      </trkpt>
      <trkpt lat="44.38335" lon="5.91681">
        <ele>610</ele>
        <time>2019-06-12T11:59:22Z</time>
      </trkpt>
      <trkpt lat="44.3834" lon="5.91691">
        <ele>610</ele>
        <time>2019-06-12T11:59:23Z</time>
      </trkpt>
      <trkpt lat="44.38345" lon="5.917">
        <ele>609</ele>
        <time>2019-06-12T11:59:24Z</time>
      </trkpt>
      <trkpt lat="44.3835" lon="5.91709">
        <ele>609</ele>
        <time>2019-06-12T11:59:25Z</time>
      </trkpt>
      <trkpt lat="44.38355" lon="5.91718">
        <ele>609</ele>
        <time>2019-06-12T11:59:27Z</time>
      </trkpt>
      <trkpt lat="44.3836" lon="5.91727">
        <ele>609</ele>
        <time>2019-06-12T11:59:27Z</time>
      </trkpt>
      <trkpt lat="44.38365" lon="5.91737">
        <ele>609</ele>
        <time>2019-06-12T11:59:29Z</time>
      </trkpt>
      <trkpt lat="44.3837" lon="5.91746">
        <ele>609</ele>
        <time>2019-06-12T11:59:29Z</time>
      </trkpt>
      <trkpt lat="44.38375" lon="5.91756">
        <ele>609</ele>
        <time>2019-06-12T11:59:30Z</time>
      </trkpt>
      <trkpt lat="44.3838" lon="5.91765">
        <ele>608</ele>
        <time>2019-06-12T11:59:32Z</time>
      </trkpt>
      <trkpt lat="44.38385" lon="5.91775">
        <ele>608</ele>
        <time>2019-06-12T11:59:32Z</time>
      </trkpt>
      <trkpt lat="44.3839" lon="5.91784">
        <ele>608</ele>
        <time>2019-06-12T11:59:33Z</time>
      </trkpt>
      <trkpt lat="44.38395" lon="5.91794">
        <ele>608</ele>
        <time>2019-06-12T11:59:34Z</time>
      </trkpt>
      <trkpt lat="44.384" lon="5.91804">
        <ele>608</ele>
        <time>2019-06-12T11:59:35Z</time>
      </trkpt>
      <trkpt lat="44.38404" lon="5.91813">
        <ele>607</ele>
        <time>2019-06-12T11:59:36Z</time>
      </trkpt>
      <trkpt lat="44.3841" lon="5.91823">
        <ele>607</ele>
        <time>2019-06-12T11:59:37Z</time>
      </trkpt>
      <trkpt lat="44.38415" lon="5.91833">
        <ele>607</ele>
        <time>2019-06-12T11:59:38Z</time>
      </trkpt>
      <trkpt lat="44.3842" lon="5.91843">
        <ele>607</ele>
        <time>2019-06-12T11:59:39Z</time>
      </trkpt>
      <trkpt lat="44.38426" lon="5.91853">
        <ele>606</ele>
        <time>2019-06-12T11:59:41Z</time>
      </trkpt>
      <trkpt lat="44.38432" lon="5.91863">
        <ele>606</ele>
        <time>2019-06-12T11:59:41Z</time>
      </trkpt>
      <trkpt lat="44.38437" lon="5.91874">
        <ele>606</ele>
        <time>2019-06-12T11:59:42Z</time>
      </trkpt>
      <trkpt lat="44.38443" lon="5.91884">
        <ele>606</ele>
        <time>2019-06-12T11:59:43Z</time>
      </trkpt>
      <trkpt lat="44.38449" lon="5.91895">
        <ele>605</ele>
        <time>2019-06-12T11:59:44Z</time>
      </trkpt>
      <trkpt lat="44.38454" lon="5.91905">
        <ele>605</ele>
        <time>2019-06-12T11:59:45Z</time>
      </trkpt>
      <trkpt lat="44.3846" lon="5.91916">
        <ele>605</ele>
        <time>2019-06-12T11:59:47Z</time>
      </trkpt>
      <trkpt lat="44.38466" lon="5.91927">
        <ele>605</ele>
        <time>2019-06-12T11:59:47Z</time>
      </trkpt>
      <trkpt lat="44.38471" lon="5.91937">
        <ele>605</ele>
        <time>2019-06-12T11:59:48Z</time>
      </trkpt>
      <trkpt lat="44.38477" lon="5.91948">
        <ele>605</ele>
        <time>2019-06-12T11:59:49Z</time>
      </trkpt>
      <trkpt lat="44.38483" lon="5.91959">
        <ele>604</ele>
        <time>2019-06-12T11:59:50Z</time>
      </trkpt>
      <trkpt lat="44.38488" lon="5.91969">
        <ele>604</ele>
        <time>2019-06-12T11:59:52Z</time>
      </trkpt>
      <trkpt lat="44.38494" lon="5.91979">
        <ele>604</ele>
        <time>2019-06-12T11:59:52Z</time>
      </trkpt>
      <trkpt lat="44.385" lon="5.9199">
        <ele>604</ele>
        <time>2019-06-12T11:59:53Z</time>
      </trkpt>
      <trkpt lat="44.38505" lon="5.92">
        <ele>603</ele>
        <time>2019-06-12T11:59:54Z</time>
      </trkpt>
      <trkpt lat="44.38511" lon="5.92011">
        <ele>603</ele>
        <time>2019-06-12T11:59:55Z</time>
      </trkpt>
      <trkpt lat="44.38517" lon="5.92022">
        <ele>603</ele>
        <time>2019-06-12T11:59:56Z</time>
      </trkpt>
      <trkpt lat="44.38523" lon="5.92033">
        <ele>603</ele>
        <time>2019-06-12T11:59:57Z</time>
      </trkpt>
      <trkpt lat="44.38529" lon="5.92044">
        <ele>602</ele>
        <time>2019-06-12T11:59:59Z</time>
      </trkpt>
      <trkpt lat="44.38535" lon="5.92056">
        <ele>602</ele>
        <time>2019-06-12T11:59:59Z</time>
      </trkpt>
      <trkpt lat="44.38541" lon="5.92066">
        <ele>602</ele>
        <time>2019-06-12T12:00:00Z</time>
      </trkpt>
      <trkpt lat="44.38547" lon="5.92077">
        <ele>602</ele>
        <time>2019-06-12T12:00:01Z</time>
      </trkpt>
      <trkpt lat="44.38553" lon="5.92088">
        <ele>602</ele>
        <time>2019-06-12T12:00:02Z</time>
      </trkpt>
      <trkpt lat="44.38558" lon="5.92099">
        <ele>601</ele>
        <time>2019-06-12T12:00:03Z</time>
      </trkpt>
      <trkpt lat="44.38563" lon="5.9211">
        <ele>601</ele>
        <time>2019-06-12T12:00:04Z</time>
      </trkpt>
      <trkpt lat="44.38568" lon="5.92122">
        <ele>601</ele>
        <time>2019-06-12T12:00:05Z</time>
      </trkpt>
      <trkpt lat="44.38572" lon="5.92134">
        <ele>601</ele>
        <time>2019-06-12T12:00:07Z</time>
      </trkpt>
      <trkpt lat="44.38575" lon="5.92146">
        <ele>601</ele>
        <time>2019-06-12T12:00:07Z</time>
      </trkpt>
      <trkpt lat="44.38579" lon="5.92158">
        <ele>601</ele>
        <time>2019-06-12T12:00:08Z</time>
      </trkpt>
      <trkpt lat="44.38583" lon="5.9217">
        <ele>601</ele>
        <time>2019-06-12T12:00:09Z</time>
      </trkpt>
      <trkpt lat="44.38586" lon="5.92181">
        <ele>601</ele>
        <time>2019-06-12T12:00:11Z</time>
      </trkpt>
      <trkpt lat="44.3859" lon="5.92193">
        <ele>601</ele>
        <time>2019-06-12T12:00:11Z</time>
      </trkpt>
      <trkpt lat="44.38594" lon="5.92205">
        <ele>601</ele>
        <time>2019-06-12T12:00:12Z</time>
      </trkpt>
      <trkpt lat="44.38597" lon="5.92217">
        <ele>601</ele>
        <time>2019-06-12T12:00:13Z</time>
      </trkpt>
      <trkpt lat="44.38601" lon="5.92228">
        <ele>601</ele>
        <time>2019-06-12T12:00:14Z</time>
      </trkpt>
      <trkpt lat="44.38604" lon="5.9224">
        <ele>601</ele>
        <time>2019-06-12T12:00:15Z</time>
      </trkpt>
      <trkpt lat="44.38607" lon="5.9225">
        <ele>601</ele>
        <time>2019-06-12T12:00:16Z</time>
      </trkpt>
      <trkpt lat="44.38611" lon="5.92261">
        <ele>601</ele>
        <time>2019-06-12T12:00:17Z</time>
      </trkpt>
      <trkpt lat="44.38615" lon="5.92271">
        <ele>601</ele>
        <time>2019-06-12T12:00:18Z</time>
      </trkpt>
      <trkpt lat="44.38618" lon="5.92281">
        <ele>601</ele>
        <time>2019-06-12T12:00:19Z</time>
      </trkpt>
      <trkpt lat="44.38623" lon="5.9229">
        <ele>601</ele>
        <time>2019-06-12T12:00:20Z</time>
      </trkpt>
      <trkpt lat="44.38626" lon="5.923">
        <ele>601</ele>
        <time>2019-06-12T12:00:21Z</time>
      </trkpt>
      <trkpt lat="44.3863" lon="5.92309">
        <ele>601</ele>
        <time>2019-06-12T12:00:22Z</time>
      </trkpt>
      <trkpt lat="44.38634" lon="5.92318">
        <ele>601</ele>
        <time>2019-06-12T12:00:23Z</time>
      </trkpt>
      <trkpt lat="44.38638" lon="5.92327">
        <ele>601</ele>
        <time>2019-06-12T12:00:24Z</time>
      </trkpt>
      <trkpt lat="44.38641" lon="5.92337">
        <ele>601</ele>
        <time>2019-06-12T12:00:25Z</time>
      </trkpt>
      <trkpt lat="44.38644" lon="5.92346">
        <ele>601</ele>
        <time>2019-06-12T12:00:27Z</time>
      </trkpt>
      <trkpt lat="44.38647" lon="5.92356">
        <ele>601</ele>
        <time>2019-06-12T12:00:27Z</time>
      </trkpt>
      <trkpt lat="44.3865" lon="5.92365">
        <ele>601</ele>
        <time>2019-06-12T12:00:29Z</time>
      </trkpt>
      <trkpt lat="44.38652" lon="5.92375">
        <ele>601</ele>
        <time>2019-06-12T12:00:29Z</time>
      </trkpt>
      <trkpt lat="44.38655" lon="5.92385">
        <ele>601</ele>
        <time>2019-06-12T12:00:30Z</time>
      </trkpt>
      <trkpt lat="44.38657" lon="5.92395">
        <ele>601</ele>
        <time>2019-06-12T12:00:31Z</time>
      </trkpt>
      <trkpt lat="44.38658" lon="5.92405">
        <ele>601</ele>
        <time>2019-06-12T12:00:32Z</time>
      </trkpt>
      <trkpt lat="44.38659" lon="5.92416">
        <ele>601</ele>
        <time>2019-06-12T12:00:33Z</time>
      </trkpt>
      <trkpt lat="44.3866" lon="5.92426">
        <ele>601</ele>
        <time>2019-06-12T12:00:35Z</time>
      </trkpt>
      <trkpt lat="44.38661" lon="5.92437">
        <ele>601</ele>
        <time>2019-06-12T12:00:35Z</time>
      </trkpt>
      <trkpt lat="44.38661" lon="5.92449">
        <ele>601</ele>
        <time>2019-06-12T12:00:36Z</time>
      </trkpt>
      <trkpt lat="44.38662" lon="5.9246">
        <ele>601</ele>
        <time>2019-06-12T12:00:37Z</time>
      </trkpt>
      <trkpt lat="44.38662" lon="5.92471">
        <ele>601</ele>
        <time>2019-06-12T12:00:38Z</time>
      </trkpt>
      <trkpt lat="44.38662" lon="5.92483">
        <ele>601</ele>
        <time>2019-06-12T12:00:39Z</time>
      </trkpt>
      <trkpt lat="44.38662" lon="5.92494">
        <ele>601</ele>
        <time>2019-06-12T12:00:40Z</time>
      </trkpt>
      <trkpt lat="44.38663" lon="5.92506">
        <ele>601</ele>
        <time>2019-06-12T12:00:41Z</time>
      </trkpt>
      <trkpt lat="44.38663" lon="5.92518">
        <ele>601</ele>
        <time>2019-06-12T12:00:42Z</time>
      </trkpt>
      <trkpt lat="44.38664" lon="5.92529">
        <ele>601</ele>
        <time>2019-06-12T12:00:43Z</time>
      </trkpt>
      <trkpt lat="44.38665" lon="5.92541">
        <ele>601</ele>
        <time>2019-06-12T12:00:44Z</time>
      </trkpt>
      <trkpt lat="44.38667" lon="5.92553">
        <ele>601</ele>
        <time>2019-06-12T12:00:45Z</time>
      </trkpt>
      <trkpt lat="44.38668" lon="5.92566">
        <ele>601</ele>
        <time>2019-06-12T12:00:47Z</time>
      </trkpt>
      <trkpt lat="44.38671" lon="5.92579">
        <ele>601</ele>
        <time>2019-06-12T12:00:47Z</time>
      </trkpt>
      <trkpt lat="44.38674" lon="5.92592">
        <ele>601</ele>
        <time>2019-06-12T12:00:48Z</time>
      </trkpt>
      <trkpt lat="44.38677" lon="5.92605">
        <ele>601</ele>
        <time>2019-06-12T12:00:49Z</time>
      </trkpt>
      <trkpt lat="44.38681" lon="5.92619">
        <ele>601</ele>
        <time>2019-06-12T12:00:50Z</time>
      </trkpt>
      <trkpt lat="44.38684" lon="5.92633">
        <ele>601</ele>
        <time>2019-06-12T12:00:51Z</time>
      </trkpt>
      <trkpt lat="44.38688" lon="5.92648">
        <ele>601</ele>
        <time>2019-06-12T12:00:52Z</time>
      </trkpt>
      <trkpt lat="44.38691" lon="5.92662">
        <ele>601</ele>
        <time>2019-06-12T12:00:53Z</time>
      </trkpt>
      <trkpt lat="44.38694" lon="5.92677">
        <ele>601</ele>
        <time>2019-06-12T12:00:54Z</time>
      </trkpt>
      <trkpt lat="44.38697" lon="5.92692">
        <ele>601</ele>
        <time>2019-06-12T12:00:55Z</time>
      </trkpt>
      <trkpt lat="44.38699" lon="5.92707">
        <ele>601</ele>
        <time>2019-06-12T12:00:56Z</time>
      </trkpt>
      <trkpt lat="44.38699" lon="5.92723">
        <ele>600</ele>
        <time>2019-06-12T12:00:57Z</time>
      </trkpt>
      <trkpt lat="44.38698" lon="5.92738">
        <ele>600</ele>
        <time>2019-06-12T12:00:58Z</time>
      </trkpt>
      <trkpt lat="44.38697" lon="5.92753">
        <ele>600</ele>
        <time>2019-06-12T12:00:59Z</time>
      </trkpt>
      <trkpt lat="44.38694" lon="5.92767">
        <ele>599</ele>
        <time>2019-06-12T12:01:00Z</time>
      </trkpt>
      <trkpt lat="44.38692" lon="5.9278">
        <ele>599</ele>
        <time>2019-06-12T12:01:01Z</time>
      </trkpt>
      <trkpt lat="44.38689" lon="5.92794">
        <ele>599</ele>
        <time>2019-06-12T12:01:02Z</time>
      </trkpt>
      <trkpt lat="44.38687" lon="5.92807">
        <ele>599</ele>
        <time>2019-06-12T12:01:03Z</time>
      </trkpt>
      <trkpt lat="44.38686" lon="5.92819">
        <ele>598</ele>
        <time>2019-06-12T12:01:04Z</time>
      </trkpt>
      <trkpt lat="44.38685" lon="5.92832">
        <ele>598</ele>
        <time>2019-06-12T12:01:05Z</time>
      </trkpt>
      <trkpt lat="44.38685" lon="5.92845">
        <ele>598</ele>
        <time>2019-06-12T12:01:06Z</time>
      </trkpt>
      <trkpt lat="44.38685" lon="5.92857">
        <ele>598</ele>
        <time>2019-06-12T12:01:07Z</time>
      </trkpt>
      <trkpt lat="44.38685" lon="5.9287">
        <ele>598</ele>
        <time>2019-06-12T12:01:08Z</time>
      </trkpt>
      <trkpt lat="44.38685" lon="5.92882">
        <ele>598</ele>
        <time>2019-06-12T12:01:09Z</time>
      </trkpt>
      <trkpt lat="44.38684" lon="5.92895">
        <ele>598</ele>
        <time>2019-06-12T12:01:10Z</time>
      </trkpt>
      <trkpt lat="44.38683" lon="5.92908">
        <ele>597</ele>
        <time>2019-06-12T12:01:11Z</time>
      </trkpt>
      <trkpt lat="44.38681" lon="5.9292">
        <ele>597</ele>
        <time>2019-06-12T12:01:12Z</time>
      </trkpt>
      <trkpt lat="44.38678" lon="5.92932">
        <ele>597</ele>
        <time>2019-06-12T12:01:13Z</time>
      </trkpt>
      <trkpt lat="44.38676" lon="5.92944">
        <ele>597</ele>
        <time>2019-06-12T12:01:14Z</time>
      </trkpt>
      <trkpt lat="44.38673" lon="5.92955">
        <ele>596</ele>
        <time>2019-06-12T12:01:15Z</time>
      </trkpt>
      <trkpt lat="44.3867" lon="5.92967">
        <ele>596</ele>
        <time>2019-06-12T12:01:16Z</time>
      </trkpt>
      <trkpt lat="44.38668" lon="5.92979">
        <ele>596</ele>
        <time>2019-06-12T12:01:17Z</time>
      </trkpt>
      <trkpt lat="44.38666" lon="5.92991">
        <ele>596</ele>
        <time>2019-06-12T12:01:18Z</time>
      </trkpt>
      <trkpt lat="44.38666" lon="5.93004">
        <ele>595</ele>
        <time>2019-06-12T12:01:19Z</time>
      </trkpt>
      <trkpt lat="44.38666" lon="5.93016">
        <ele>595</ele>
        <time>2019-06-12T12:01:20Z</time>
      </trkpt>
      <trkpt lat="44.38667" lon="5.93029">
        <ele>595</ele>
        <time>2019-06-12T12:01:21Z</time>
      </trkpt>
      <trkpt lat="44.38669" lon="5.93042">
        <ele>595</ele>
        <time>2019-06-12T12:01:22Z</time>
      </trkpt>
      <trkpt lat="44.38671" lon="5.93054">
        <ele>595</ele>
        <time>2019-06-12T12:01:23Z</time>
      </trkpt>
      <trkpt lat="44.38673" lon="5.93067">
        <ele>594</ele>
        <time>2019-06-12T12:01:24Z</time>
      </trkpt>
      <trkpt lat="44.38676" lon="5.93079">
        <ele>594</ele>
        <time>2019-06-12T12:01:25Z</time>
      </trkpt>
      <trkpt lat="44.38678" lon="5.93092">
        <ele>594</ele>
        <time>2019-06-12T12:01:26Z</time>
      </trkpt>
      <trkpt lat="44.38681" lon="5.93105">
        <ele>594</ele>
        <time>2019-06-12T12:01:27Z</time>
      </trkpt>
      <trkpt lat="44.38683" lon="5.93118">
        <ele>594</ele>
        <time>2019-06-12T12:01:29Z</time>
      </trkpt>
      <trkpt lat="44.38685" lon="5.9313">
        <ele>593</ele>
        <time>2019-06-12T12:01:29Z</time>
      </trkpt>
      <trkpt lat="44.38688" lon="5.93143">
        <ele>593</ele>
        <time>2019-06-12T12:01:30Z</time>
      </trkpt>
      <trkpt lat="44.3869" lon="5.93156">
        <ele>593</ele>
        <time>2019-06-12T12:01:31Z</time>
      </trkpt>
      <trkpt lat="44.38693" lon="5.93168">
        <ele>593</ele>
        <time>2019-06-12T12:01:32Z</time>
      </trkpt>
      <trkpt lat="44.38696" lon="5.93181">
        <ele>593</ele>
        <time>2019-06-12T12:01:33Z</time>
      </trkpt>
      <trkpt lat="44.38699" lon="5.93193">
        <ele>593</ele>
        <time>2019-06-12T12:01:34Z</time>
      </trkpt>
      <trkpt lat="44.38702" lon="5.93205">
        <ele>592</ele>
        <time>2019-06-12T12:01:35Z</time>
      </trkpt>
      <trkpt lat="44.38705" lon="5.93216">
        <ele>592</ele>
        <time>2019-06-12T12:01:36Z</time>
      </trkpt>
      <trkpt lat="44.38708" lon="5.93228">
        <ele>592</ele>
        <time>2019-06-12T12:01:37Z</time>
      </trkpt>
      <trkpt lat="44.38712" lon="5.93239">
        <ele>592</ele>
        <time>2019-06-12T12:01:38Z</time>
      </trkpt>
      <trkpt lat="44.38715" lon="5.93251">
        <ele>591</ele>
        <time>2019-06-12T12:01:39Z</time>
      </trkpt>
      <trkpt lat="44.38718" lon="5.93262">
        <ele>591</ele>
        <time>2019-06-12T12:01:40Z</time>
      </trkpt>
      <trkpt lat="44.3872" lon="5.93274">
        <ele>591</ele>
        <time>2019-06-12T12:01:41Z</time>
      </trkpt>
      <trkpt lat="44.38722" lon="5.93286">
        <ele>591</ele>
        <time>2019-06-12T12:01:42Z</time>
      </trkpt>
      <trkpt lat="44.38724" lon="5.93299">
        <ele>590</ele>
        <time>2019-06-12T12:01:43Z</time>
      </trkpt>
      <trkpt lat="44.38725" lon="5.93311">
        <ele>590</ele>
        <time>2019-06-12T12:01:44Z</time>
      </trkpt>
      <trkpt lat="44.38726" lon="5.93324">
        <ele>590</ele>
        <time>2019-06-12T12:01:45Z</time>
      </trkpt>
      <trkpt lat="44.38726" lon="5.93337">
        <ele>589</ele>
        <time>2019-06-12T12:01:47Z</time>
      </trkpt>
      <trkpt lat="44.38726" lon="5.93349">
        <ele>589</ele>
        <time>2019-06-12T12:01:47Z</time>
      </trkpt>
      <trkpt lat="44.38726" lon="5.93362">
        <ele>589</ele>
        <time>2019-06-12T12:01:48Z</time>
      </trkpt>
      <trkpt lat="44.38726" lon="5.93374">
        <ele>588</ele>
        <time>2019-06-12T12:01:49Z</time>
      </trkpt>
      <trkpt lat="44.38725" lon="5.93387">
        <ele>588</ele>
        <time>2019-06-12T12:01:50Z</time>
      </trkpt>
      <trkpt lat="44.38724" lon="5.934">
        <ele>588</ele>
        <time>2019-06-12T12:01:51Z</time>
      </trkpt>
      <trkpt lat="44.38723" lon="5.93413">
        <ele>587</ele>
        <time>2019-06-12T12:01:52Z</time>
      </trkpt>
      <trkpt lat="44.38723" lon="5.93426">
        <ele>587</ele>
        <time>2019-06-12T12:01:53Z</time>
      </trkpt>
      <trkpt lat="44.38722" lon="5.93439">
        <ele>586</ele>
        <time>2019-06-12T12:01:54Z</time>
      </trkpt>
      <trkpt lat="44.38721" lon="5.93453">
        <ele>586</ele>
        <time>2019-06-12T12:01:55Z</time>
      </trkpt>
      <trkpt lat="44.3872" lon="5.93466">
        <ele>585</ele>
        <time>2019-06-12T12:01:56Z</time>
      </trkpt>
      <trkpt lat="44.3872" lon="5.9348">
        <ele>585</ele>
        <time>2019-06-12T12:01:57Z</time>
      </trkpt>
      <trkpt lat="44.38719" lon="5.93494">
        <ele>584</ele>
        <time>2019-06-12T12:01:58Z</time>
      </trkpt>
      <trkpt lat="44.38718" lon="5.93508">
        <ele>584</ele>
        <time>2019-06-12T12:01:59Z</time>
      </trkpt>
      <trkpt lat="44.38718" lon="5.93522">
        <ele>584</ele>
        <time>2019-06-12T12:02:00Z</time>
      </trkpt>
      <trkpt lat="44.38718" lon="5.93536">
        <ele>583</ele>
        <time>2019-06-12T12:02:01Z</time>
      </trkpt>
      <trkpt lat="44.38717" lon="5.93549">
        <ele>583</ele>
        <time>2019-06-12T12:02:02Z</time>
      </trkpt>
      <trkpt lat="44.38716" lon="5.93562">
        <ele>582</ele>
        <time>2019-06-12T12:02:03Z</time>
      </trkpt>
      <trkpt lat="44.38715" lon="5.93574">
        <ele>582</ele>
        <time>2019-06-12T12:02:04Z</time>
      </trkpt>
      <trkpt lat="44.38715" lon="5.93586">
        <ele>581</ele>
        <time>2019-06-12T12:02:05Z</time>
      </trkpt>
      <trkpt lat="44.38716" lon="5.93595">
        <ele>581</ele>
        <time>2019-06-12T12:02:06Z</time>
      </trkpt>
      <trkpt lat="44.38718" lon="5.93603">
        <ele>581</ele>
        <time>2019-06-12T12:02:07Z</time>
      </trkpt>
      <trkpt lat="44.38722" lon="5.93609">
        <ele>581</ele>
        <time>2019-06-12T12:02:08Z</time>
      </trkpt>
      <trkpt lat="44.38727" lon="5.93613">
        <ele>581</ele>
        <time>2019-06-12T12:02:09Z</time>
      </trkpt>
      <trkpt lat="44.38733" lon="5.93617">
        <ele>581</ele>
        <time>2019-06-12T12:02:10Z</time>
      </trkpt>
      <trkpt lat="44.38738" lon="5.93622">
        <ele>581</ele>
        <time>2019-06-12T12:02:11Z</time>
      </trkpt>
      <trkpt lat="44.38744" lon="5.93626">
        <ele>580</ele>
        <time>2019-06-12T12:02:12Z</time>
      </trkpt>
      <trkpt lat="44.3875" lon="5.93632">
        <ele>580</ele>
        <time>2019-06-12T12:02:13Z</time>
      </trkpt>
      <trkpt lat="44.38756" lon="5.93637">
        <ele>580</ele>
        <time>2019-06-12T12:02:14Z</time>
      </trkpt>
      <trkpt lat="44.38762" lon="5.93642">
        <ele>580</ele>
        <time>2019-06-12T12:02:15Z</time>
      </trkpt>
      <trkpt lat="44.38768" lon="5.93647">
        <ele>580</ele>
        <time>2019-06-12T12:02:16Z</time>
      </trkpt>
      <trkpt lat="44.38775" lon="5.93652">
        <ele>579</ele>
        <time>2019-06-12T12:02:17Z</time>
      </trkpt>
      <trkpt lat="44.38782" lon="5.93657">
        <ele>579</ele>
        <time>2019-06-12T12:02:18Z</time>
      </trkpt>
      <trkpt lat="44.38788" lon="5.93663">
        <ele>579</ele>
        <time>2019-06-12T12:02:19Z</time>
      </trkpt>
      <trkpt lat="44.38795" lon="5.93669">
        <ele>579</ele>
        <time>2019-06-12T12:02:20Z</time>
      </trkpt>
      <trkpt lat="44.38802" lon="5.93675">
        <ele>579</ele>
        <time>2019-06-12T12:02:21Z</time>
      </trkpt>
      <trkpt lat="44.38808" lon="5.93681">
        <ele>579</ele>
        <time>2019-06-12T12:02:22Z</time>
      </trkpt>
      <trkpt lat="44.38815" lon="5.93686">
        <ele>579</ele>
        <time>2019-06-12T12:02:23Z</time>
      </trkpt>
      <trkpt lat="44.38822" lon="5.93692">
        <ele>578</ele>
        <time>2019-06-12T12:02:24Z</time>
      </trkpt>
      <trkpt lat="44.38829" lon="5.93699">
        <ele>578</ele>
        <time>2019-06-12T12:02:25Z</time>
      </trkpt>
      <trkpt lat="44.38836" lon="5.93704">
        <ele>578</ele>
        <time>2019-06-12T12:02:26Z</time>
      </trkpt>
      <trkpt lat="44.38842" lon="5.9371">
        <ele>578</ele>
        <time>2019-06-12T12:02:27Z</time>
      </trkpt>
      <trkpt lat="44.38849" lon="5.93715">
        <ele>578</ele>
        <time>2019-06-12T12:02:29Z</time>
      </trkpt>
      <trkpt lat="44.38856" lon="5.9372">
        <ele>578</ele>
        <time>2019-06-12T12:02:29Z</time>
      </trkpt>
      <trkpt lat="44.38862" lon="5.93726">
        <ele>578</ele>
        <time>2019-06-12T12:02:30Z</time>
      </trkpt>
      <trkpt lat="44.38869" lon="5.93731">
        <ele>578</ele>
        <time>2019-06-12T12:02:31Z</time>
      </trkpt>
      <trkpt lat="44.38875" lon="5.93736">
        <ele>578</ele>
        <time>2019-06-12T12:02:32Z</time>
      </trkpt>
      <trkpt lat="44.38882" lon="5.93742">
        <ele>578</ele>
        <time>2019-06-12T12:02:33Z</time>
      </trkpt>
      <trkpt lat="44.38888" lon="5.93747">
        <ele>578</ele>
        <time>2019-06-12T12:02:34Z</time>
      </trkpt>
      <trkpt lat="44.38894" lon="5.93752">
        <ele>578</ele>
        <time>2019-06-12T12:02:35Z</time>
      </trkpt>
      <trkpt lat="44.389" lon="5.93757">
        <ele>578</ele>
        <time>2019-06-12T12:02:36Z</time>
      </trkpt>
      <trkpt lat="44.38906" lon="5.93761">
        <ele>578</ele>
        <time>2019-06-12T12:02:37Z</time>
      </trkpt>
      <trkpt lat="44.38913" lon="5.93766">
        <ele>578</ele>
        <time>2019-06-12T12:02:38Z</time>
      </trkpt>
      <trkpt lat="44.38919" lon="5.93771">
        <ele>578</ele>
        <time>2019-06-12T12:02:39Z</time>
      </trkpt>
      <trkpt lat="44.38925" lon="5.93776">
        <ele>578</ele>
        <time>2019-06-12T12:02:40Z</time>
      </trkpt>
      <trkpt lat="44.38931" lon="5.93781">
        <ele>578</ele>
        <time>2019-06-12T12:02:41Z</time>
      </trkpt>
      <trkpt lat="44.38936" lon="5.93785">
        <ele>578</ele>
        <time>2019-06-12T12:02:42Z</time>
      </trkpt>
      <trkpt lat="44.38942" lon="5.9379">
        <ele>578</ele>
        <time>2019-06-12T12:02:43Z</time>
      </trkpt>
      <trkpt lat="44.38948" lon="5.93795">
        <ele>578</ele>
        <time>2019-06-12T12:02:44Z</time>
      </trkpt>
      <trkpt lat="44.38954" lon="5.938">
        <ele>578</ele>
        <time>2019-06-12T12:02:45Z</time>
      </trkpt>
      <trkpt lat="44.3896" lon="5.93805">
        <ele>578</ele>
        <time>2019-06-12T12:02:46Z</time>
      </trkpt>
      <trkpt lat="44.38966" lon="5.9381">
        <ele>578</ele>
        <time>2019-06-12T12:02:47Z</time>
      </trkpt>
      <trkpt lat="44.38972" lon="5.93815">
        <ele>578</ele>
        <time>2019-06-12T12:02:48Z</time>
      </trkpt>
      <trkpt lat="44.38978" lon="5.93819">
        <ele>578</ele>
        <time>2019-06-12T12:02:49Z</time>
      </trkpt>
      <trkpt lat="44.38984" lon="5.93824">
        <ele>578</ele>
        <time>2019-06-12T12:02:50Z</time>
      </trkpt>
      <trkpt lat="44.3899" lon="5.93829">
        <ele>578</ele>
        <time>2019-06-12T12:02:51Z</time>
      </trkpt>
      <trkpt lat="44.38996" lon="5.93833">
        <ele>578</ele>
        <time>2019-06-12T12:02:52Z</time>
      </trkpt>
      <trkpt lat="44.39002" lon="5.93839">
        <ele>578</ele>
        <time>2019-06-12T12:02:53Z</time>
      </trkpt>
      <trkpt lat="44.39008" lon="5.93844">
        <ele>578</ele>
        <time>2019-06-12T12:02:54Z</time>
      </trkpt>
      <trkpt lat="44.39014" lon="5.93849">
        <ele>578</ele>
        <time>2019-06-12T12:02:55Z</time>
      </trkpt>
      <trkpt lat="44.39019" lon="5.93854">
        <ele>578</ele>
        <time>2019-06-12T12:02:56Z</time>
      </trkpt>
      <trkpt lat="44.39026" lon="5.93859">
        <ele>578</ele>
        <time>2019-06-12T12:02:57Z</time>
      </trkpt>
      <trkpt lat="44.39032" lon="5.93864">
        <ele>578</ele>
        <time>2019-06-12T12:02:58Z</time>
      </trkpt>
      <trkpt lat="44.39038" lon="5.93869">
        <ele>578</ele>
        <time>2019-06-12T12:02:59Z</time>
      </trkpt>
      <trkpt lat="44.39044" lon="5.93874">
        <ele>578</ele>
        <time>2019-06-12T12:03:00Z</time>
      </trkpt>
      <trkpt lat="44.3905" lon="5.9388">
        <ele>578</ele>
        <time>2019-06-12T12:03:01Z</time>
      </trkpt>
      <trkpt lat="44.39056" lon="5.93885">
        <ele>578</ele>
        <time>2019-06-12T12:03:02Z</time>
      </trkpt>
      <trkpt lat="44.39063" lon="5.9389">
        <ele>578</ele>
        <time>2019-06-12T12:03:03Z</time>
      </trkpt>
      <trkpt lat="44.39069" lon="5.93895">
        <ele>578</ele>
        <time>2019-06-12T12:03:04Z</time>
      </trkpt>
      <trkpt lat="44.39075" lon="5.939">
        <ele>578</ele>
        <time>2019-06-12T12:03:05Z</time>
      </trkpt>
      <trkpt lat="44.39081" lon="5.93905">
        <ele>578</ele>
        <time>2019-06-12T12:03:06Z</time>
      </trkpt>
      <trkpt lat="44.39088" lon="5.9391">
        <ele>578</ele>
        <time>2019-06-12T12:03:07Z</time>
      </trkpt>
      <trkpt lat="44.39094" lon="5.93916">
        <ele>578</ele>
        <time>2019-06-12T12:03:08Z</time>
      </trkpt>
      <trkpt lat="44.391" lon="5.93921">
        <ele>578</ele>
        <time>2019-06-12T12:03:09Z</time>
      </trkpt>
      <trkpt lat="44.39106" lon="5.93926">
        <ele>578</ele>
        <time>2019-06-12T12:03:10Z</time>
      </trkpt>
      <trkpt lat="44.39113" lon="5.93932">
        <ele>578</ele>
        <time>2019-06-12T12:03:11Z</time>
      </trkpt>
      <trkpt lat="44.39119" lon="5.93937">
        <ele>578</ele>
        <time>2019-06-12T12:03:12Z</time>
      </trkpt>
      <trkpt lat="44.39125" lon="5.93942">
        <ele>578</ele>
        <time>2019-06-12T12:03:13Z</time>
      </trkpt>
      <trkpt lat="44.39132" lon="5.93948">
        <ele>578</ele>
        <time>2019-06-12T12:03:14Z</time>
      </trkpt>
      <trkpt lat="44.39138" lon="5.93953">
        <ele>578</ele>
        <time>2019-06-12T12:03:15Z</time>
      </trkpt>
      <trkpt lat="44.39144" lon="5.93959">
        <ele>578</ele>
        <time>2019-06-12T12:03:17Z</time>
      </trkpt>
      <trkpt lat="44.3915" lon="5.93964">
        <ele>578</ele>
        <time>2019-06-12T12:03:17Z</time>
      </trkpt>
      <trkpt lat="44.39156" lon="5.93969">
        <ele>578</ele>
        <time>2019-06-12T12:03:18Z</time>
      </trkpt>
      <trkpt lat="44.39163" lon="5.93975">
        <ele>578</ele>
        <time>2019-06-12T12:03:19Z</time>
      </trkpt>
      <trkpt lat="44.39169" lon="5.9398">
        <ele>578</ele>
        <time>2019-06-12T12:03:20Z</time>
      </trkpt>
      <trkpt lat="44.39175" lon="5.93985">
        <ele>578</ele>
        <time>2019-06-12T12:03:21Z</time>
      </trkpt>
      <trkpt lat="44.39181" lon="5.93991">
        <ele>578</ele>
        <time>2019-06-12T12:03:22Z</time>
      </trkpt>
      <trkpt lat="44.39188" lon="5.93996">
        <ele>578</ele>
        <time>2019-06-12T12:03:23Z</time>
      </trkpt>
      <trkpt lat="44.39194" lon="5.94001">
        <ele>578</ele>
        <time>2019-06-12T12:03:24Z</time>
      </trkpt>
      <trkpt lat="44.392" lon="5.94006">
        <ele>578</ele>
        <time>2019-06-12T12:03:25Z</time>
      </trkpt>
      <trkpt lat="44.39206" lon="5.94011">
        <ele>578</ele>
        <time>2019-06-12T12:03:26Z</time>
      </trkpt>
      <trkpt lat="44.39212" lon="5.94017">
        <ele>578</ele>
        <time>2019-06-12T12:03:27Z</time>
      </trkpt>
      <trkpt lat="44.39219" lon="5.94022">
        <ele>578</ele>
        <time>2019-06-12T12:03:29Z</time>
      </trkpt>
      <trkpt lat="44.39225" lon="5.94027">
        <ele>578</ele>
        <time>2019-06-12T12:03:29Z</time>
      </trkpt>
      <trkpt lat="44.39231" lon="5.94032">
        <ele>578</ele>
        <time>2019-06-12T12:03:30Z</time>
      </trkpt>
      <trkpt lat="44.39238" lon="5.94037">
        <ele>578</ele>
        <time>2019-06-12T12:03:31Z</time>
      </trkpt>
      <trkpt lat="44.39244" lon="5.94043">
        <ele>578</ele>
        <time>2019-06-12T12:03:32Z</time>
      </trkpt>
      <trkpt lat="44.3925" lon="5.94048">
        <ele>578</ele>
        <time>2019-06-12T12:03:33Z</time>
      </trkpt>
      <trkpt lat="44.39256" lon="5.94053">
        <ele>578</ele>
        <time>2019-06-12T12:03:34Z</time>
      </trkpt>
      <trkpt lat="44.39263" lon="5.94058">
        <ele>578</ele>
        <time>2019-06-12T12:03:35Z</time>
      </trkpt>
      <trkpt lat="44.39269" lon="5.94064">
        <ele>578</ele>
        <time>2019-06-12T12:03:36Z</time>
      </trkpt>
      <trkpt lat="44.39275" lon="5.94069">
        <ele>578</ele>
        <time>2019-06-12T12:03:37Z</time>
      </trkpt>
      <trkpt lat="44.39281" lon="5.94074">
        <ele>578</ele>
        <time>2019-06-12T12:03:38Z</time>
      </trkpt>
      <trkpt lat="44.39288" lon="5.94079">
        <ele>578</ele>
        <time>2019-06-12T12:03:39Z</time>
      </trkpt>
      <trkpt lat="44.39294" lon="5.94084">
        <ele>578</ele>
        <time>2019-06-12T12:03:40Z</time>
      </trkpt>
      <trkpt lat="44.393" lon="5.94089">
        <ele>578</ele>
        <time>2019-06-12T12:03:41Z</time>
      </trkpt>
      <trkpt lat="44.39306" lon="5.94094">
        <ele>578</ele>
        <time>2019-06-12T12:03:42Z</time>
      </trkpt>
      <trkpt lat="44.39312" lon="5.941">
        <ele>578</ele>
        <time>2019-06-12T12:03:43Z</time>
      </trkpt>
      <trkpt lat="44.39318" lon="5.94104">
        <ele>578</ele>
        <time>2019-06-12T12:03:44Z</time>
      </trkpt>
      <trkpt lat="44.39324" lon="5.94109">
        <ele>578</ele>
        <time>2019-06-12T12:03:45Z</time>
      </trkpt>
      <trkpt lat="44.3933" lon="5.94114">
        <ele>578</ele>
        <time>2019-06-12T12:03:46Z</time>
      </trkpt>
      <trkpt lat="44.39336" lon="5.94119">
        <ele>578</ele>
        <time>2019-06-12T12:03:47Z</time>
      </trkpt>
      <trkpt lat="44.39342" lon="5.94124">
        <ele>578</ele>
        <time>2019-06-12T12:03:48Z</time>
      </trkpt>
      <trkpt lat="44.39348" lon="5.94129">
        <ele>578</ele>
        <time>2019-06-12T12:03:49Z</time>
      </trkpt>
      <trkpt lat="44.39354" lon="5.94134">
        <ele>578</ele>
        <time>2019-06-12T12:03:50Z</time>
      </trkpt>
      <trkpt lat="44.3936" lon="5.94138">
        <ele>578</ele>
        <time>2019-06-12T12:03:51Z</time>
      </trkpt>
      <trkpt lat="44.39367" lon="5.94143">
        <ele>578</ele>
        <time>2019-06-12T12:03:52Z</time>
      </trkpt>
      <trkpt lat="44.39373" lon="5.94148">
        <ele>578</ele>
        <time>2019-06-12T12:03:53Z</time>
      </trkpt>
      <trkpt lat="44.39378" lon="5.94152">
        <ele>578</ele>
        <time>2019-06-12T12:03:54Z</time>
      </trkpt>
      <trkpt lat="44.39384" lon="5.94157">
        <ele>578</ele>
        <time>2019-06-12T12:03:55Z</time>
      </trkpt>
      <trkpt lat="44.39389" lon="5.94162">
        <ele>578</ele>
        <time>2019-06-12T12:03:56Z</time>
      </trkpt>
      <trkpt lat="44.39394" lon="5.94166">
        <ele>578</ele>
        <time>2019-06-12T12:03:57Z</time>
      </trkpt>
      <trkpt lat="44.394" lon="5.94171">
        <ele>578</ele>
        <time>2019-06-12T12:03:58Z</time>
      </trkpt>
      <trkpt lat="44.39406" lon="5.94176">
        <ele>578</ele>
        <time>2019-06-12T12:03:59Z</time>
      </trkpt>
      <trkpt lat="44.39412" lon="5.94182">
        <ele>578</ele>
        <time>2019-06-12T12:04:00Z</time>
      </trkpt>
      <trkpt lat="44.39417" lon="5.94187">
        <ele>578</ele>
        <time>2019-06-12T12:04:01Z</time>
      </trkpt>
      <trkpt lat="44.39423" lon="5.94193">
        <ele>578</ele>
        <time>2019-06-12T12:04:02Z</time>
      </trkpt>
      <trkpt lat="44.39429" lon="5.94199">
        <ele>578</ele>
        <time>2019-06-12T12:04:03Z</time>
      </trkpt>
      <trkpt lat="44.39436" lon="5.94204">
        <ele>578</ele>
        <time>2019-06-12T12:04:04Z</time>
      </trkpt>
      <trkpt lat="44.39442" lon="5.94209">
        <ele>578</ele>
        <time>2019-06-12T12:04:05Z</time>
      </trkpt>
      <trkpt lat="44.39448" lon="5.94215">
        <ele>578</ele>
        <time>2019-06-12T12:04:06Z</time>
      </trkpt>
      <trkpt lat="44.39455" lon="5.9422">
        <ele>578</ele>
        <time>2019-06-12T12:04:07Z</time>
      </trkpt>
      <trkpt lat="44.39461" lon="5.94226">
        <ele>578</ele>
        <time>2019-06-12T12:04:08Z</time>
      </trkpt>
      <trkpt lat="44.39467" lon="5.94231">
        <ele>578</ele>
        <time>2019-06-12T12:04:09Z</time>
      </trkpt>
      <trkpt lat="44.39473" lon="5.94236">
        <ele>578</ele>
        <time>2019-06-12T12:04:10Z</time>
      </trkpt>
      <trkpt lat="44.3948" lon="5.94241">
        <ele>578</ele>
        <time>2019-06-12T12:04:11Z</time>
      </trkpt>
      <trkpt lat="44.39486" lon="5.94246">
        <ele>578</ele>
        <time>2019-06-12T12:04:12Z</time>
      </trkpt>
      <trkpt lat="44.39492" lon="5.94252">
        <ele>578</ele>
        <time>2019-06-12T12:04:13Z</time>
      </trkpt>
      <trkpt lat="44.39498" lon="5.94257">
        <ele>578</ele>
        <time>2019-06-12T12:04:14Z</time>
      </trkpt>
      <trkpt lat="44.39505" lon="5.94262">
        <ele>578</ele>
        <time>2019-06-12T12:04:15Z</time>
      </trkpt>
      <trkpt lat="44.39511" lon="5.94267">
        <ele>578</ele>
        <time>2019-06-12T12:04:16Z</time>
      </trkpt>
      <trkpt lat="44.39518" lon="5.94272">
        <ele>578</ele>
        <time>2019-06-12T12:04:17Z</time>
      </trkpt>
      <trkpt lat="44.39524" lon="5.94277">
        <ele>578</ele>
        <time>2019-06-12T12:04:18Z</time>
      </trkpt>
      <trkpt lat="44.3953" lon="5.94282">
        <ele>578</ele>
        <time>2019-06-12T12:04:19Z</time>
      </trkpt>
      <trkpt lat="44.39537" lon="5.94287">
        <ele>578</ele>
        <time>2019-06-12T12:04:20Z</time>
      </trkpt>
      <trkpt lat="44.39543" lon="5.94293">
        <ele>578</ele>
        <time>2019-06-12T12:04:21Z</time>
      </trkpt>
      <trkpt lat="44.39549" lon="5.94298">
        <ele>578</ele>
        <time>2019-06-12T12:04:22Z</time>
      </trkpt>
      <trkpt lat="44.39555" lon="5.94303">
        <ele>578</ele>
        <time>2019-06-12T12:04:23Z</time>
      </trkpt>
      <trkpt lat="44.39561" lon="5.94309">
        <ele>578</ele>
        <time>2019-06-12T12:04:24Z</time>
      </trkpt>
      <trkpt lat="44.39568" lon="5.94314">
        <ele>578</ele>
        <time>2019-06-12T12:04:25Z</time>
      </trkpt>
      <trkpt lat="44.39574" lon="5.94319">
        <ele>578</ele>
        <time>2019-06-12T12:04:26Z</time>
      </trkpt>
      <trkpt lat="44.3958" lon="5.94325">
        <ele>578</ele>
        <time>2019-06-12T12:04:27Z</time>
      </trkpt>
      <trkpt lat="44.39587" lon="5.9433">
        <ele>578</ele>
        <time>2019-06-12T12:04:29Z</time>
      </trkpt>
      <trkpt lat="44.39593" lon="5.94336">
        <ele>578</ele>
        <time>2019-06-12T12:04:29Z</time>
      </trkpt>
      <trkpt lat="44.396" lon="5.94341">
        <ele>578</ele>
        <time>2019-06-12T12:04:30Z</time>
      </trkpt>
      <trkpt lat="44.39606" lon="5.94346">
        <ele>578</ele>
        <time>2019-06-12T12:04:31Z</time>
      </trkpt>
      <trkpt lat="44.39613" lon="5.9435">
        <ele>578</ele>
        <time>2019-06-12T12:04:32Z</time>
      </trkpt>
      <trkpt lat="44.39619" lon="5.94355">
        <ele>578</ele>
        <time>2019-06-12T12:04:33Z</time>
      </trkpt>
      <trkpt lat="44.39625" lon="5.9436">
        <ele>578</ele>
        <time>2019-06-12T12:04:34Z</time>
      </trkpt>
      <trkpt lat="44.39632" lon="5.94365">
        <ele>578</ele>
        <time>2019-06-12T12:04:35Z</time>
      </trkpt>
      <trkpt lat="44.39638" lon="5.94369">
        <ele>578</ele>
        <time>2019-06-12T12:04:36Z</time>
      </trkpt>
      <trkpt lat="44.39645" lon="5.94373">
        <ele>578</ele>
        <time>2019-06-12T12:04:37Z</time>
      </trkpt>
      <trkpt lat="44.3965" lon="5.94377">
        <ele>579</ele>
        <time>2019-06-12T12:04:38Z</time>
      </trkpt>
      <trkpt lat="44.39656" lon="5.9438">
        <ele>579</ele>
        <time>2019-06-12T12:04:39Z</time>
      </trkpt>
      <trkpt lat="44.39661" lon="5.94383">
        <ele>579</ele>
        <time>2019-06-12T12:04:40Z</time>
      </trkpt>
      <trkpt lat="44.39666" lon="5.94386">
        <ele>579</ele>
        <time>2019-06-12T12:04:41Z</time>
      </trkpt>
      <trkpt lat="44.39672" lon="5.9439">
        <ele>579</ele>
        <time>2019-06-12T12:04:42Z</time>
      </trkpt>
      <trkpt lat="44.39677" lon="5.94393">
        <ele>579</ele>
        <time>2019-06-12T12:04:43Z</time>
      </trkpt>
      <trkpt lat="44.39682" lon="5.94396">
        <ele>579</ele>
        <time>2019-06-12T12:04:44Z</time>
      </trkpt>
      <trkpt lat="44.39687" lon="5.94399">
        <ele>579</ele>
        <time>2019-06-12T12:04:45Z</time>
      </trkpt>
      <trkpt lat="44.39692" lon="5.94402">
        <ele>579</ele>
        <time>2019-06-12T12:04:46Z</time>
      </trkpt>
      <trkpt lat="44.39697" lon="5.94405">
        <ele>579</ele>
        <time>2019-06-12T12:04:47Z</time>
      </trkpt>
      <trkpt lat="44.39701" lon="5.94408">
        <ele>580</ele>
        <time>2019-06-12T12:04:48Z</time>
      </trkpt>
      <trkpt lat="44.39706" lon="5.94411">
        <ele>580</ele>
        <time>2019-06-12T12:04:49Z</time>
      </trkpt>
      <trkpt lat="44.3971" lon="5.94414">
        <ele>580</ele>
        <time>2019-06-12T12:04:50Z</time>
      </trkpt>
      <trkpt lat="44.39714" lon="5.94417">
        <ele>580</ele>
        <time>2019-06-12T12:04:51Z</time>
      </trkpt>
      <trkpt lat="44.39719" lon="5.9442">
        <ele>580</ele>
        <time>2019-06-12T12:04:52Z</time>
      </trkpt>
      <trkpt lat="44.39722" lon="5.94422">
        <ele>580</ele>
        <time>2019-06-12T12:04:53Z</time>
      </trkpt>
      <trkpt lat="44.39727" lon="5.94425">
        <ele>580</ele>
        <time>2019-06-12T12:04:54Z</time>
      </trkpt>
      <trkpt lat="44.39731" lon="5.94427">
        <ele>580</ele>
        <time>2019-06-12T12:04:55Z</time>
      </trkpt>
      <trkpt lat="44.39735" lon="5.94429">
        <ele>580</ele>
        <time>2019-06-12T12:04:56Z</time>
      </trkpt>
      <trkpt lat="44.3974" lon="5.94432">
        <ele>580</ele>
        <time>2019-06-12T12:04:57Z</time>
      </trkpt>
      <trkpt lat="44.39744" lon="5.94435">
        <ele>580</ele>
        <time>2019-06-12T12:04:58Z</time>
      </trkpt>
      <trkpt lat="44.39748" lon="5.94437">
        <ele>580</ele>
        <time>2019-06-12T12:04:59Z</time>
      </trkpt>
      <trkpt lat="44.39753" lon="5.9444">
        <ele>580</ele>
        <time>2019-06-12T12:05:00Z</time>
      </trkpt>
      <trkpt lat="44.39757" lon="5.94443">
        <ele>580</ele>
        <time>2019-06-12T12:05:01Z</time>
      </trkpt>
      <trkpt lat="44.39762" lon="5.94445">
        <ele>580</ele>
        <time>2019-06-12T12:05:02Z</time>
      </trkpt>
      <trkpt lat="44.39766" lon="5.94448">
        <ele>580</ele>
        <time>2019-06-12T12:05:03Z</time>
      </trkpt>
      <trkpt lat="44.39771" lon="5.94451">
        <ele>580</ele>
        <time>2019-06-12T12:05:04Z</time>
      </trkpt>
      <trkpt lat="44.39775" lon="5.94454">
        <ele>580</ele>
        <time>2019-06-12T12:05:05Z</time>
      </trkpt>
      <trkpt lat="44.39779" lon="5.94457">
        <ele>580</ele>
        <time>2019-06-12T12:05:06Z</time>
      </trkpt>
      <trkpt lat="44.39783" lon="5.94459">
        <ele>581</ele>
        <time>2019-06-12T12:05:07Z</time>
      </trkpt>
      <trkpt lat="44.39787" lon="5.94462">
        <ele>581</ele>
        <time>2019-06-12T12:05:08Z</time>
      </trkpt>
      <trkpt lat="44.3979" lon="5.94466">
        <ele>581</ele>
        <time>2019-06-12T12:05:09Z</time>
      </trkpt>
      <trkpt lat="44.39794" lon="5.94469">
        <ele>582</ele>
        <time>2019-06-12T12:05:10Z</time>
      </trkpt>
      <trkpt lat="44.39797" lon="5.94472">
        <ele>582</ele>
        <time>2019-06-12T12:05:11Z</time>
      </trkpt>
      <trkpt lat="44.39801" lon="5.94475">
        <ele>582</ele>
        <time>2019-06-12T12:05:12Z</time>
      </trkpt>
      <trkpt lat="44.39804" lon="5.94479">
        <ele>583</ele>
        <time>2019-06-12T12:05:13Z</time>
      </trkpt>
      <trkpt lat="44.39808" lon="5.94482">
        <ele>583</ele>
        <time>2019-06-12T12:05:14Z</time>
      </trkpt>
      <trkpt lat="44.39812" lon="5.94486">
        <ele>583</ele>
        <time>2019-06-12T12:05:15Z</time>
      </trkpt>
      <trkpt lat="44.39816" lon="5.94489">
        <ele>583</ele>
        <time>2019-06-12T12:05:16Z</time>
      </trkpt>
      <trkpt lat="44.3982" lon="5.94492">
        <ele>583</ele>
        <time>2019-06-12T12:05:17Z</time>
      </trkpt>
      <trkpt lat="44.39824" lon="5.94495">
        <ele>584</ele>
        <time>2019-06-12T12:05:18Z</time>
      </trkpt>
      <trkpt lat="44.39828" lon="5.94499">
        <ele>584</ele>
        <time>2019-06-12T12:05:19Z</time>
      </trkpt>
      <trkpt lat="44.39833" lon="5.94502">
        <ele>584</ele>
        <time>2019-06-12T12:05:20Z</time>
      </trkpt>
      <trkpt lat="44.39837" lon="5.94506">
        <ele>584</ele>
        <time>2019-06-12T12:05:21Z</time>
      </trkpt>
      <trkpt lat="44.3984" lon="5.94509">
        <ele>584</ele>
        <time>2019-06-12T12:05:22Z</time>
      </trkpt>
      <trkpt lat="44.39844" lon="5.94512">
        <ele>585</ele>
        <time>2019-06-12T12:05:23Z</time>
      </trkpt>
      <trkpt lat="44.39848" lon="5.94516">
        <ele>585</ele>
        <time>2019-06-12T12:05:24Z</time>
      </trkpt>
      <trkpt lat="44.39851" lon="5.9452">
        <ele>585</ele>
        <time>2019-06-12T12:05:25Z</time>
      </trkpt>
      <trkpt lat="44.39855" lon="5.94523">
        <ele>585</ele>
        <time>2019-06-12T12:05:26Z</time>
      </trkpt>
      <trkpt lat="44.39859" lon="5.94527">
        <ele>586</ele>
        <time>2019-06-12T12:05:27Z</time>
      </trkpt>
      <trkpt lat="44.39862" lon="5.94531">
        <ele>586</ele>
        <time>2019-06-12T12:05:29Z</time>
      </trkpt>
      <trkpt lat="44.39866" lon="5.94535">
        <ele>586</ele>
        <time>2019-06-12T12:05:29Z</time>
      </trkpt>
      <trkpt lat="44.3987" lon="5.94538">
        <ele>586</ele>
        <time>2019-06-12T12:05:30Z</time>
      </trkpt>
      <trkpt lat="44.39873" lon="5.94542">
        <ele>586</ele>
        <time>2019-06-12T12:05:31Z</time>
      </trkpt>
      <trkpt lat="44.39877" lon="5.94545">
        <ele>586</ele>
        <time>2019-06-12T12:05:32Z</time>
      </trkpt>
      <trkpt lat="44.39881" lon="5.94549">
        <ele>587</ele>
        <time>2019-06-12T12:05:33Z</time>
      </trkpt>
      <trkpt lat="44.39885" lon="5.94552">
        <ele>587</ele>
        <time>2019-06-12T12:05:34Z</time>
      </trkpt>
      <trkpt lat="44.39889" lon="5.94555">
        <ele>587</ele>
        <time>2019-06-12T12:05:35Z</time>
      </trkpt>
      <trkpt lat="44.39893" lon="5.94558">
        <ele>588</ele>
        <time>2019-06-12T12:05:36Z</time>
      </trkpt>
      <trkpt lat="44.39896" lon="5.94561">
        <ele>588</ele>
        <time>2019-06-12T12:05:37Z</time>
      </trkpt>
      <trkpt lat="44.399" lon="5.94563">
        <ele>588</ele>
        <time>2019-06-12T12:05:38Z</time>
      </trkpt>
      <trkpt lat="44.39903" lon="5.94566">
        <ele>589</ele>
        <time>2019-06-12T12:05:39Z</time>
      </trkpt>
      <trkpt lat="44.39907" lon="5.94568">
        <ele>589</ele>
        <time>2019-06-12T12:05:40Z</time>
      </trkpt>
      <trkpt lat="44.39911" lon="5.94571">
        <ele>589</ele>
        <time>2019-06-12T12:05:41Z</time>
      </trkpt>
      <trkpt lat="44.39915" lon="5.94573">
        <ele>590</ele>
        <time>2019-06-12T12:05:42Z</time>
      </trkpt>
      <trkpt lat="44.39919" lon="5.94576">
        <ele>590</ele>
        <time>2019-06-12T12:05:43Z</time>
      </trkpt>
      <trkpt lat="44.39923" lon="5.94578">
        <ele>590</ele>
        <time>2019-06-12T12:05:44Z</time>
      </trkpt>
      <trkpt lat="44.39927" lon="5.9458">
        <ele>590</ele>
        <time>2019-06-12T12:05:45Z</time>
      </trkpt>
      <trkpt lat="44.39931" lon="5.94582">
        <ele>591</ele>
        <time>2019-06-12T12:05:46Z</time>
      </trkpt>
      <trkpt lat="44.39935" lon="5.94584">
        <ele>591</ele>
        <time>2019-06-12T12:05:47Z</time>
      </trkpt>
      <trkpt lat="44.39939" lon="5.94586">
        <ele>591</ele>
        <time>2019-06-12T12:05:48Z</time>
      </trkpt>
      <trkpt lat="44.39943" lon="5.94588">
        <ele>591</ele>
        <time>2019-06-12T12:05:49Z</time>
      </trkpt>
      <trkpt lat="44.39946" lon="5.9459">
        <ele>592</ele>
        <time>2019-06-12T12:05:50Z</time>
      </trkpt>
      <trkpt lat="44.3995" lon="5.94591">
        <ele>592</ele>
        <time>2019-06-12T12:05:51Z</time>
      </trkpt>
      <trkpt lat="44.39954" lon="5.94593">
        <ele>592</ele>
        <time>2019-06-12T12:05:52Z</time>
      </trkpt>
      <trkpt lat="44.39958" lon="5.94595">
        <ele>592</ele>
        <time>2019-06-12T12:05:53Z</time>
      </trkpt>
      <trkpt lat="44.39962" lon="5.94596">
        <ele>593</ele>
        <time>2019-06-12T12:05:54Z</time>
      </trkpt>
      <trkpt lat="44.39965" lon="5.94598">
        <ele>593</ele>
        <time>2019-06-12T12:05:55Z</time>
      </trkpt>
      <trkpt lat="44.3997" lon="5.946">
        <ele>593</ele>
        <time>2019-06-12T12:05:56Z</time>
      </trkpt>
      <trkpt lat="44.39974" lon="5.94601">
        <ele>593</ele>
        <time>2019-06-12T12:05:57Z</time>
      </trkpt>
      <trkpt lat="44.39978" lon="5.94603">
        <ele>593</ele>
        <time>2019-06-12T12:05:58Z</time>
      </trkpt>
      <trkpt lat="44.39982" lon="5.94605">
        <ele>593</ele>
        <time>2019-06-12T12:05:59Z</time>
      </trkpt>
      <trkpt lat="44.39986" lon="5.94607">
        <ele>594</ele>
        <time>2019-06-12T12:06:00Z</time>
      </trkpt>
      <trkpt lat="44.3999" lon="5.94609">
        <ele>594</ele>
        <time>2019-06-12T12:06:01Z</time>
      </trkpt>
      <trkpt lat="44.39995" lon="5.94611">
        <ele>594</ele>
        <time>2019-06-12T12:06:02Z</time>
      </trkpt>
      <trkpt lat="44.39999" lon="5.94613">
        <ele>594</ele>
        <time>2019-06-12T12:06:03Z</time>
      </trkpt>
      <trkpt lat="44.40004" lon="5.94615">
        <ele>594</ele>
        <time>2019-06-12T12:06:04Z</time>
      </trkpt>
      <trkpt lat="44.40008" lon="5.94617">
        <ele>594</ele>
        <time>2019-06-12T12:06:05Z</time>
      </trkpt>
      <trkpt lat="44.40013" lon="5.94619">
        <ele>594</ele>
        <time>2019-06-12T12:06:06Z</time>
      </trkpt>
      <trkpt lat="44.40018" lon="5.94621">
        <ele>595</ele>
        <time>2019-06-12T12:06:07Z</time>
      </trkpt>
      <trkpt lat="44.40023" lon="5.94623">
        <ele>595</ele>
        <time>2019-06-12T12:06:08Z</time>
      </trkpt>
      <trkpt lat="44.40027" lon="5.94625">
        <ele>595</ele>
        <time>2019-06-12T12:06:09Z</time>
      </trkpt>
      <trkpt lat="44.40032" lon="5.94627">
        <ele>595</ele>
        <time>2019-06-12T12:06:10Z</time>
      </trkpt>
      <trkpt lat="44.40037" lon="5.94629">
        <ele>595</ele>
        <time>2019-06-12T12:06:11Z</time>
      </trkpt>
      <trkpt lat="44.40042" lon="5.94631">
        <ele>595</ele>
        <time>2019-06-12T12:06:12Z</time>
      </trkpt>
      <trkpt lat="44.40047" lon="5.94633">
        <ele>595</ele>
        <time>2019-06-12T12:06:13Z</time>
      </trkpt>
      <trkpt lat="44.40052" lon="5.94635">
        <ele>595</ele>
        <time>2019-06-12T12:06:14Z</time>
      </trkpt>
      <trkpt lat="44.40057" lon="5.94637">
        <ele>595</ele>
        <time>2019-06-12T12:06:15Z</time>
      </trkpt>
      <trkpt lat="44.40063" lon="5.9464">
        <ele>595</ele>
        <time>2019-06-12T12:06:16Z</time>
      </trkpt>
      <trkpt lat="44.40068" lon="5.94642">
        <ele>595</ele>
        <time>2019-06-12T12:06:17Z</time>
      </trkpt>
      <trkpt lat="44.40073" lon="5.94645">
        <ele>595</ele>
        <time>2019-06-12T12:06:18Z</time>
      </trkpt>
      <trkpt lat="44.40078" lon="5.94649">
        <ele>595</ele>
        <time>2019-06-12T12:06:19Z</time>
      </trkpt>
      <trkpt lat="44.40083" lon="5.94652">
        <ele>595</ele>
        <time>2019-06-12T12:06:20Z</time>
      </trkpt>
      <trkpt lat="44.40088" lon="5.94656">
        <ele>595</ele>
        <time>2019-06-12T12:06:21Z</time>
      </trkpt>
      <trkpt lat="44.40093" lon="5.94659">
        <ele>595</ele>
        <time>2019-06-12T12:06:22Z</time>
      </trkpt>
      <trkpt lat="44.40099" lon="5.94663">
        <ele>595</ele>
        <time>2019-06-12T12:06:23Z</time>
      </trkpt>
      <trkpt lat="44.40104" lon="5.94666">
        <ele>595</ele>
        <time>2019-06-12T12:06:24Z</time>
      </trkpt>
      <trkpt lat="44.40109" lon="5.94669">
        <ele>595</ele>
        <time>2019-06-12T12:06:25Z</time>
      </trkpt>
      <trkpt lat="44.40114" lon="5.94673">
        <ele>595</ele>
        <time>2019-06-12T12:06:26Z</time>
      </trkpt>
      <trkpt lat="44.40119" lon="5.94677">
        <ele>595</ele>
        <time>2019-06-12T12:06:27Z</time>
      </trkpt>
      <trkpt lat="44.40124" lon="5.9468">
        <ele>596</ele>
        <time>2019-06-12T12:06:29Z</time>
      </trkpt>
      <trkpt lat="44.4013" lon="5.94684">
        <ele>596</ele>
        <time>2019-06-12T12:06:29Z</time>
      </trkpt>
      <trkpt lat="44.40135" lon="5.94687">
        <ele>596</ele>
        <time>2019-06-12T12:06:30Z</time>
      </trkpt>
      <trkpt lat="44.4014" lon="5.9469">
        <ele>596</ele>
        <time>2019-06-12T12:06:31Z</time>
      </trkpt>
      <trkpt lat="44.40145" lon="5.94694">
        <ele>596</ele>
        <time>2019-06-12T12:06:32Z</time>
      </trkpt>
      <trkpt lat="44.40151" lon="5.94698">
        <ele>596</ele>
        <time>2019-06-12T12:06:33Z</time>
      </trkpt>
      <trkpt lat="44.40156" lon="5.94702">
        <ele>596</ele>
        <time>2019-06-12T12:06:34Z</time>
      </trkpt>
      <trkpt lat="44.40161" lon="5.94706">
        <ele>597</ele>
        <time>2019-06-12T12:06:35Z</time>
      </trkpt>
      <trkpt lat="44.40166" lon="5.9471">
        <ele>597</ele>
        <time>2019-06-12T12:06:36Z</time>
      </trkpt>
      <trkpt lat="44.40172" lon="5.94715">
        <ele>597</ele>
        <time>2019-06-12T12:06:37Z</time>
      </trkpt>
      <trkpt lat="44.40177" lon="5.94719">
        <ele>597</ele>
        <time>2019-06-12T12:06:38Z</time>
      </trkpt>
      <trkpt lat="44.40182" lon="5.94724">
        <ele>597</ele>
        <time>2019-06-12T12:06:39Z</time>
      </trkpt>
      <trkpt lat="44.40187" lon="5.94729">
        <ele>597</ele>
        <time>2019-06-12T12:06:40Z</time>
      </trkpt>
      <trkpt lat="44.40193" lon="5.94734">
        <ele>597</ele>
        <time>2019-06-12T12:06:41Z</time>
      </trkpt>
      <trkpt lat="44.40198" lon="5.94739">
        <ele>597</ele>
        <time>2019-06-12T12:06:42Z</time>
      </trkpt>
      <trkpt lat="44.40203" lon="5.94744">
        <ele>597</ele>
        <time>2019-06-12T12:06:43Z</time>
      </trkpt>
      <trkpt lat="44.40208" lon="5.9475">
        <ele>597</ele>
        <time>2019-06-12T12:06:44Z</time>
      </trkpt>
      <trkpt lat="44.40213" lon="5.94756">
        <ele>597</ele>
        <time>2019-06-12T12:06:45Z</time>
      </trkpt>
      <trkpt lat="44.40217" lon="5.94762">
        <ele>597</ele>
        <time>2019-06-12T12:06:46Z</time>
      </trkpt>
      <trkpt lat="44.40222" lon="5.94768">
        <ele>597</ele>
        <time>2019-06-12T12:06:47Z</time>
      </trkpt>
      <trkpt lat="44.40226" lon="5.94775">
        <ele>597</ele>
        <time>2019-06-12T12:06:48Z</time>
      </trkpt>
      <trkpt lat="44.40231" lon="5.9478">
        <ele>597</ele>
        <time>2019-06-12T12:06:49Z</time>
      </trkpt>
      <trkpt lat="44.40236" lon="5.94787">
        <ele>597</ele>
        <time>2019-06-12T12:06:50Z</time>
      </trkpt>
      <trkpt lat="44.40241" lon="5.94793">
        <ele>597</ele>
        <time>2019-06-12T12:06:51Z</time>
      </trkpt>
      <trkpt lat="44.40245" lon="5.94799">
        <ele>597</ele>
        <time>2019-06-12T12:06:52Z</time>
      </trkpt>
      <trkpt lat="44.4025" lon="5.94805">
        <ele>597</ele>
        <time>2019-06-12T12:06:53Z</time>
      </trkpt>
      <trkpt lat="44.40254" lon="5.94812">
        <ele>597</ele>
        <time>2019-06-12T12:06:54Z</time>
      </trkpt>
      <trkpt lat="44.40259" lon="5.94819">
        <ele>597</ele>
        <time>2019-06-12T12:06:55Z</time>
      </trkpt>
      <trkpt lat="44.40263" lon="5.94827">
        <ele>597</ele>
        <time>2019-06-12T12:06:56Z</time>
      </trkpt>
      <trkpt lat="44.40267" lon="5.94834">
        <ele>597</ele>
        <time>2019-06-12T12:06:57Z</time>
      </trkpt>
      <trkpt lat="44.40271" lon="5.94841">
        <ele>597</ele>
        <time>2019-06-12T12:06:58Z</time>
      </trkpt>
      <trkpt lat="44.40274" lon="5.94849">
        <ele>597</ele>
        <time>2019-06-12T12:06:59Z</time>
      </trkpt>
      <trkpt lat="44.40278" lon="5.94857">
        <ele>597</ele>
        <time>2019-06-12T12:07:00Z</time>
      </trkpt>
      <trkpt lat="44.40282" lon="5.94864">
        <ele>597</ele>
        <time>2019-06-12T12:07:01Z</time>
      </trkpt>
      <trkpt lat="44.40286" lon="5.94872">
        <ele>597</ele>
        <time>2019-06-12T12:07:02Z</time>
      </trkpt>
      <trkpt lat="44.40289" lon="5.9488">
        <ele>597</ele>
        <time>2019-06-12T12:07:03Z</time>
      </trkpt>
      <trkpt lat="44.40293" lon="5.94887">
        <ele>597</ele>
        <time>2019-06-12T12:07:04Z</time>
      </trkpt>
      <trkpt lat="44.40296" lon="5.94896">
        <ele>597</ele>
        <time>2019-06-12T12:07:05Z</time>
      </trkpt>
      <trkpt lat="44.403" lon="5.94903">
        <ele>597</ele>
        <time>2019-06-12T12:07:06Z</time>
      </trkpt>
      <trkpt lat="44.40304" lon="5.94911">
        <ele>597</ele>
        <time>2019-06-12T12:07:07Z</time>
      </trkpt>
      <trkpt lat="44.40307" lon="5.94919">
        <ele>597</ele>
        <time>2019-06-12T12:07:08Z</time>
      </trkpt>
      <trkpt lat="44.40311" lon="5.94928">
        <ele>597</ele>
        <time>2019-06-12T12:07:09Z</time>
      </trkpt>
      <trkpt lat="44.40314" lon="5.94936">
        <ele>597</ele>
        <time>2019-06-12T12:07:10Z</time>
      </trkpt>
      <trkpt lat="44.40318" lon="5.94944">
        <ele>597</ele>
        <time>2019-06-12T12:07:11Z</time>
      </trkpt>
      <trkpt lat="44.40321" lon="5.94951">
        <ele>597</ele>
        <time>2019-06-12T12:07:12Z</time>
      </trkpt>
      <trkpt lat="44.40325" lon="5.94959">
        <ele>597</ele>
        <time>2019-06-12T12:07:13Z</time>
      </trkpt>
      <trkpt lat="44.40328" lon="5.94967">
        <ele>597</ele>
        <time>2019-06-12T12:07:14Z</time>
      </trkpt>
      <trkpt lat="44.40332" lon="5.94975">
        <ele>597</ele>
        <time>2019-06-12T12:07:15Z</time>
      </trkpt>
      <trkpt lat="44.40336" lon="5.94981">
        <ele>597</ele>
        <time>2019-06-12T12:07:16Z</time>
      </trkpt>
      <trkpt lat="44.4034" lon="5.94986">
        <ele>597</ele>
        <time>2019-06-12T12:07:17Z</time>
      </trkpt>
      <trkpt lat="44.40345" lon="5.94989">
        <ele>597</ele>
        <time>2019-06-12T12:07:18Z</time>
      </trkpt>
      <trkpt lat="44.40351" lon="5.94991">
        <ele>597</ele>
        <time>2019-06-12T12:07:19Z</time>
      </trkpt>
      <trkpt lat="44.40356" lon="5.94993">
        <ele>597</ele>
        <time>2019-06-12T12:07:20Z</time>
      </trkpt>
      <trkpt lat="44.40361" lon="5.94997">
        <ele>597</ele>
        <time>2019-06-12T12:07:21Z</time>
      </trkpt>
      <trkpt lat="44.40366" lon="5.95001">
        <ele>597</ele>
        <time>2019-06-12T12:07:22Z</time>
      </trkpt>
      <trkpt lat="44.4037" lon="5.95005">
        <ele>597</ele>
        <time>2019-06-12T12:07:23Z</time>
      </trkpt>
      <trkpt lat="44.40375" lon="5.9501">
        <ele>597</ele>
        <time>2019-06-12T12:07:24Z</time>
      </trkpt>
      <trkpt lat="44.40381" lon="5.95015">
        <ele>597</ele>
        <time>2019-06-12T12:07:25Z</time>
      </trkpt>
      <trkpt lat="44.40386" lon="5.95019">
        <ele>597</ele>
        <time>2019-06-12T12:07:26Z</time>
      </trkpt>
      <trkpt lat="44.4039" lon="5.95024">
        <ele>597</ele>
        <time>2019-06-12T12:07:27Z</time>
      </trkpt>
      <trkpt lat="44.40395" lon="5.95029">
        <ele>597</ele>
        <time>2019-06-12T12:07:29Z</time>
      </trkpt>
      <trkpt lat="44.404" lon="5.95033">
        <ele>597</ele>
        <time>2019-06-12T12:07:29Z</time>
      </trkpt>
      <trkpt lat="44.40405" lon="5.95036">
        <ele>597</ele>
        <time>2019-06-12T12:07:30Z</time>
      </trkpt>
      <trkpt lat="44.40409" lon="5.95039">
        <ele>597</ele>
        <time>2019-06-12T12:07:31Z</time>
      </trkpt>
      <trkpt lat="44.40414" lon="5.95042">
        <ele>597</ele>
        <time>2019-06-12T12:07:32Z</time>
      </trkpt>
      <trkpt lat="44.40418" lon="5.95045">
        <ele>597</ele>
        <time>2019-06-12T12:07:33Z</time>
      </trkpt>
      <trkpt lat="44.40422" lon="5.95048">
        <ele>597</ele>
        <time>2019-06-12T12:07:34Z</time>
      </trkpt>
      <trkpt lat="44.40427" lon="5.9505">
        <ele>597</ele>
        <time>2019-06-12T12:07:35Z</time>
      </trkpt>
      <trkpt lat="44.40431" lon="5.95053">
        <ele>597</ele>
        <time>2019-06-12T12:07:36Z</time>
      </trkpt>
      <trkpt lat="44.40435" lon="5.95055">
        <ele>597</ele>
        <time>2019-06-12T12:07:37Z</time>
      </trkpt>
      <trkpt lat="44.40438" lon="5.95058">
        <ele>597</ele>
        <time>2019-06-12T12:07:38Z</time>
      </trkpt>
      <trkpt lat="44.40443" lon="5.9506">
        <ele>597</ele>
        <time>2019-06-12T12:07:39Z</time>
      </trkpt>
      <trkpt lat="44.40447" lon="5.95063">
        <ele>598</ele>
        <time>2019-06-12T12:07:40Z</time>
      </trkpt>
      <trkpt lat="44.40451" lon="5.95066">
        <ele>598</ele>
        <time>2019-06-12T12:07:41Z</time>
      </trkpt>
      <trkpt lat="44.40455" lon="5.95068">
        <ele>598</ele>
        <time>2019-06-12T12:07:42Z</time>
      </trkpt>
      <trkpt lat="44.40459" lon="5.95071">
        <ele>598</ele>
        <time>2019-06-12T12:07:43Z</time>
      </trkpt>
      <trkpt lat="44.40463" lon="5.95073">
        <ele>598</ele>
        <time>2019-06-12T12:07:44Z</time>
      </trkpt>
      <trkpt lat="44.40466" lon="5.95075">
        <ele>598</ele>
        <time>2019-06-12T12:07:45Z</time>
      </trkpt>
      <trkpt lat="44.4047" lon="5.95076">
        <ele>599</ele>
        <time>2019-06-12T12:07:46Z</time>
      </trkpt>
      <trkpt lat="44.40474" lon="5.95078">
        <ele>599</ele>
        <time>2019-06-12T12:07:47Z</time>
      </trkpt>
      <trkpt lat="44.40477" lon="5.95079">
        <ele>599</ele>
        <time>2019-06-12T12:07:48Z</time>
      </trkpt>
      <trkpt lat="44.40481" lon="5.9508">
        <ele>600</ele>
        <time>2019-06-12T12:07:49Z</time>
      </trkpt>
      <trkpt lat="44.40485" lon="5.95081">
        <ele>600</ele>
        <time>2019-06-12T12:07:50Z</time>
      </trkpt>
      <trkpt lat="44.40489" lon="5.95082">
        <ele>600</ele>
        <time>2019-06-12T12:07:51Z</time>
      </trkpt>
      <trkpt lat="44.40493" lon="5.95082">
        <ele>601</ele>
        <time>2019-06-12T12:07:52Z</time>
      </trkpt>
      <trkpt lat="44.40497" lon="5.95082">
        <ele>601</ele>
        <time>2019-06-12T12:07:53Z</time>
      </trkpt>
      <trkpt lat="44.40501" lon="5.95081">
        <ele>601</ele>
        <time>2019-06-12T12:07:54Z</time>
      </trkpt>
      <trkpt lat="44.40504" lon="5.95081">
        <ele>602</ele>
        <time>2019-06-12T12:07:55Z</time>
      </trkpt>
      <trkpt lat="44.40508" lon="5.9508">
        <ele>602</ele>
        <time>2019-06-12T12:07:56Z</time>
      </trkpt>
      <trkpt lat="44.40512" lon="5.95079">
        <ele>602</ele>
        <time>2019-06-12T12:07:57Z</time>
      </trkpt>
      <trkpt lat="44.40516" lon="5.95078">
        <ele>603</ele>
        <time>2019-06-12T12:07:58Z</time>
      </trkpt>
      <trkpt lat="44.40519" lon="5.95078">
        <ele>603</ele>
        <time>2019-06-12T12:07:59Z</time>
      </trkpt>
      <trkpt lat="44.40522" lon="5.95077">
        <ele>603</ele>
        <time>2019-06-12T12:08:00Z</time>
      </trkpt>
      <trkpt lat="44.40526" lon="5.95076">
        <ele>603</ele>
        <time>2019-06-12T12:08:01Z</time>
      </trkpt>
      <trkpt lat="44.4053" lon="5.95075">
        <ele>604</ele>
        <time>2019-06-12T12:08:02Z</time>
      </trkpt>
      <trkpt lat="44.40533" lon="5.95074">
        <ele>604</ele>
        <time>2019-06-12T12:08:03Z</time>
      </trkpt>
      <trkpt lat="44.40536" lon="5.95073">
        <ele>604</ele>
        <time>2019-06-12T12:08:04Z</time>
      </trkpt>
      <trkpt lat="44.4054" lon="5.95072">
        <ele>605</ele>
        <time>2019-06-12T12:08:05Z</time>
      </trkpt>
      <trkpt lat="44.40544" lon="5.95072">
        <ele>605</ele>
        <time>2019-06-12T12:08:06Z</time>
      </trkpt>
      <trkpt lat="44.40548" lon="5.95071">
        <ele>605</ele>
        <time>2019-06-12T12:08:07Z</time>
      </trkpt>
      <trkpt lat="44.40551" lon="5.95071">
        <ele>605</ele>
        <time>2019-06-12T12:08:08Z</time>
      </trkpt>
      <trkpt lat="44.40555" lon="5.9507">
        <ele>606</ele>
        <time>2019-06-12T12:08:09Z</time>
      </trkpt>
      <trkpt lat="44.40559" lon="5.9507">
        <ele>606</ele>
        <time>2019-06-12T12:08:10Z</time>
      </trkpt>
      <trkpt lat="44.40563" lon="5.9507">
        <ele>606</ele>
        <time>2019-06-12T12:08:11Z</time>
      </trkpt>
      <trkpt lat="44.40567" lon="5.95069">
        <ele>606</ele>
        <time>2019-06-12T12:08:12Z</time>
      </trkpt>
      <trkpt lat="44.4057" lon="5.95069">
        <ele>607</ele>
        <time>2019-06-12T12:08:13Z</time>
      </trkpt>
      <trkpt lat="44.40574" lon="5.95068">
        <ele>607</ele>
        <time>2019-06-12T12:08:14Z</time>
      </trkpt>
      <trkpt lat="44.40577" lon="5.95068">
        <ele>607</ele>
        <time>2019-06-12T12:08:15Z</time>
      </trkpt>
      <trkpt lat="44.40581" lon="5.95067">
        <ele>607</ele>
        <time>2019-06-12T12:08:16Z</time>
      </trkpt>
      <trkpt lat="44.40585" lon="5.95067">
        <ele>608</ele>
        <time>2019-06-12T12:08:17Z</time>
      </trkpt>
      <trkpt lat="44.40588" lon="5.95066">
        <ele>608</ele>
        <time>2019-06-12T12:08:18Z</time>
      </trkpt>
      <trkpt lat="44.40592" lon="5.95066">
        <ele>608</ele>
        <time>2019-06-12T12:08:19Z</time>
      </trkpt>
      <trkpt lat="44.40596" lon="5.95065">
        <ele>608</ele>
        <time>2019-06-12T12:08:20Z</time>
      </trkpt>
      <trkpt lat="44.406" lon="5.95065">
        <ele>609</ele>
        <time>2019-06-12T12:08:21Z</time>
      </trkpt>
      <trkpt lat="44.40604" lon="5.95064">
        <ele>609</ele>
        <time>2019-06-12T12:08:22Z</time>
      </trkpt>
      <trkpt lat="44.40608" lon="5.95063">
        <ele>609</ele>
        <time>2019-06-12T12:08:23Z</time>
      </trkpt>
      <trkpt lat="44.40612" lon="5.95062">
        <ele>609</ele>
        <time>2019-06-12T12:08:24Z</time>
      </trkpt>
      <trkpt lat="44.40615" lon="5.95061">
        <ele>609</ele>
        <time>2019-06-12T12:08:25Z</time>
      </trkpt>
      <trkpt lat="44.40619" lon="5.9506">
        <ele>610</ele>
        <time>2019-06-12T12:08:26Z</time>
      </trkpt>
      <trkpt lat="44.40622" lon="5.95059">
        <ele>610</ele>
        <time>2019-06-12T12:08:27Z</time>
      </trkpt>
      <trkpt lat="44.40626" lon="5.95058">
        <ele>610</ele>
        <time>2019-06-12T12:08:29Z</time>
      </trkpt>
      <trkpt lat="44.40629" lon="5.95057">
        <ele>610</ele>
        <time>2019-06-12T12:08:29Z</time>
      </trkpt>
      <trkpt lat="44.40632" lon="5.95056">
        <ele>610</ele>
        <time>2019-06-12T12:08:30Z</time>
      </trkpt>
      <trkpt lat="44.40636" lon="5.95055">
        <ele>611</ele>
        <time>2019-06-12T12:08:31Z</time>
      </trkpt>
      <trkpt lat="44.40639" lon="5.95054">
        <ele>611</ele>
        <time>2019-06-12T12:08:32Z</time>
      </trkpt>
      <trkpt lat="44.40643" lon="5.95052">
        <ele>611</ele>
        <time>2019-06-12T12:08:33Z</time>
      </trkpt>
      <trkpt lat="44.40646" lon="5.95051">
        <ele>611</ele>
        <time>2019-06-12T12:08:34Z</time>
      </trkpt>
      <trkpt lat="44.40649" lon="5.95049">
        <ele>612</ele>
        <time>2019-06-12T12:08:35Z</time>
      </trkpt>
      <trkpt lat="44.40653" lon="5.95047">
        <ele>612</ele>
        <time>2019-06-12T12:08:36Z</time>
      </trkpt>
      <trkpt lat="44.40657" lon="5.95046">
        <ele>612</ele>
        <time>2019-06-12T12:08:37Z</time>
      </trkpt>
      <trkpt lat="44.40661" lon="5.95045">
        <ele>612</ele>
        <time>2019-06-12T12:08:38Z</time>
      </trkpt>
      <trkpt lat="44.40665" lon="5.95044">
        <ele>613</ele>
        <time>2019-06-12T12:08:39Z</time>
      </trkpt>
      <trkpt lat="44.40669" lon="5.95042">
        <ele>613</ele>
        <time>2019-06-12T12:08:40Z</time>
      </trkpt>
      <trkpt lat="44.40673" lon="5.95041">
        <ele>613</ele>
        <time>2019-06-12T12:08:41Z</time>
      </trkpt>
      <trkpt lat="44.40678" lon="5.9504">
        <ele>613</ele>
        <time>2019-06-12T12:08:42Z</time>
      </trkpt>
      <trkpt lat="44.40683" lon="5.95039">
        <ele>613</ele>
        <time>2019-06-12T12:08:43Z</time>
      </trkpt>
      <trkpt lat="44.40687" lon="5.95038">
        <ele>613</ele>
        <time>2019-06-12T12:08:44Z</time>
      </trkpt>
      <trkpt lat="44.40692" lon="5.95038">
        <ele>613</ele>
        <time>2019-06-12T12:08:45Z</time>
      </trkpt>
      <trkpt lat="44.40697" lon="5.95037">
        <ele>613</ele>
        <time>2019-06-12T12:08:46Z</time>
      </trkpt>
      <trkpt lat="44.40702" lon="5.95037">
        <ele>613</ele>
        <time>2019-06-12T12:08:47Z</time>
      </trkpt>
      <trkpt lat="44.40706" lon="5.95037">
        <ele>614</ele>
        <time>2019-06-12T12:08:48Z</time>
      </trkpt>
      <trkpt lat="44.40711" lon="5.95036">
        <ele>614</ele>
        <time>2019-06-12T12:08:49Z</time>
      </trkpt>
      <trkpt lat="44.40716" lon="5.95035">
        <ele>614</ele>
        <time>2019-06-12T12:08:50Z</time>
      </trkpt>
      <trkpt lat="44.40721" lon="5.95034">
        <ele>614</ele>
        <time>2019-06-12T12:08:51Z</time>
      </trkpt>
      <trkpt lat="44.40726" lon="5.95034">
        <ele>614</ele>
        <time>2019-06-12T12:08:52Z</time>
      </trkpt>
      <trkpt lat="44.40731" lon="5.95033">
        <ele>614</ele>
        <time>2019-06-12T12:08:53Z</time>
      </trkpt>
      <trkpt lat="44.40737" lon="5.95033">
        <ele>614</ele>
        <time>2019-06-12T12:08:54Z</time>
      </trkpt>
      <trkpt lat="44.40742" lon="5.95032">
        <ele>614</ele>
        <time>2019-06-12T12:08:55Z</time>
      </trkpt>
      <trkpt lat="44.40748" lon="5.95032">
        <ele>614</ele>
        <time>2019-06-12T12:08:56Z</time>
      </trkpt>
      <trkpt lat="44.40754" lon="5.95031">
        <ele>614</ele>
        <time>2019-06-12T12:08:57Z</time>
      </trkpt>
      <trkpt lat="44.4076" lon="5.95031">
        <ele>614</ele>
        <time>2019-06-12T12:08:58Z</time>
      </trkpt>
      <trkpt lat="44.40766" lon="5.9503">
        <ele>614</ele>
        <time>2019-06-12T12:08:59Z</time>
      </trkpt>
      <trkpt lat="44.40772" lon="5.95029">
        <ele>614</ele>
        <time>2019-06-12T12:09:00Z</time>
      </trkpt>
      <trkpt lat="44.40778" lon="5.95028">
        <ele>614</ele>
        <time>2019-06-12T12:09:01Z</time>
      </trkpt>
      <trkpt lat="44.40784" lon="5.95028">
        <ele>614</ele>
        <time>2019-06-12T12:09:02Z</time>
      </trkpt>
      <trkpt lat="44.40791" lon="5.95029">
        <ele>614</ele>
        <time>2019-06-12T12:09:03Z</time>
      </trkpt>
      <trkpt lat="44.40797" lon="5.95029">
        <ele>614</ele>
        <time>2019-06-12T12:09:04Z</time>
      </trkpt>
      <trkpt lat="44.40804" lon="5.9503">
        <ele>614</ele>
        <time>2019-06-12T12:09:05Z</time>
      </trkpt>
      <trkpt lat="44.4081" lon="5.95031">
        <ele>614</ele>
        <time>2019-06-12T12:09:06Z</time>
      </trkpt>
      <trkpt lat="44.40816" lon="5.95032">
        <ele>614</ele>
        <time>2019-06-12T12:09:07Z</time>
      </trkpt>
      <trkpt lat="44.40823" lon="5.95033">
        <ele>614</ele>
        <time>2019-06-12T12:09:08Z</time>
      </trkpt>
      <trkpt lat="44.40829" lon="5.95034">
        <ele>614</ele>
        <time>2019-06-12T12:09:09Z</time>
      </trkpt>
      <trkpt lat="44.40836" lon="5.95035">
        <ele>614</ele>
        <time>2019-06-12T12:09:10Z</time>
      </trkpt>
      <trkpt lat="44.40842" lon="5.95036">
        <ele>614</ele>
        <time>2019-06-12T12:09:12Z</time>
      </trkpt>
      <trkpt lat="44.40848" lon="5.95036">
        <ele>614</ele>
        <time>2019-06-12T12:09:12Z</time>
      </trkpt>
      <trkpt lat="44.40854" lon="5.95037">
        <ele>614</ele>
        <time>2019-06-12T12:09:13Z</time>
      </trkpt>
      <trkpt lat="44.4086" lon="5.95036">
        <ele>614</ele>
        <time>2019-06-12T12:09:14Z</time>
      </trkpt>
      <trkpt lat="44.40866" lon="5.95035">
        <ele>614</ele>
        <time>2019-06-12T12:09:15Z</time>
      </trkpt>
      <trkpt lat="44.40872" lon="5.95032">
        <ele>614</ele>
        <time>2019-06-12T12:09:16Z</time>
      </trkpt>
      <trkpt lat="44.40878" lon="5.95029">
        <ele>614</ele>
        <time>2019-06-12T12:09:17Z</time>
      </trkpt>
      <trkpt lat="44.40883" lon="5.95025">
        <ele>614</ele>
        <time>2019-06-12T12:09:18Z</time>
      </trkpt>
      <trkpt lat="44.40888" lon="5.95022">
        <ele>614</ele>
        <time>2019-06-12T12:09:19Z</time>
      </trkpt>
      <trkpt lat="44.40892" lon="5.95019">
        <ele>614</ele>
        <time>2019-06-12T12:09:20Z</time>
      </trkpt>
      <trkpt lat="44.40897" lon="5.95017">
        <ele>614</ele>
        <time>2019-06-12T12:09:21Z</time>
      </trkpt>
      <trkpt lat="44.40901" lon="5.95015">
        <ele>614</ele>
        <time>2019-06-12T12:09:22Z</time>
      </trkpt>
      <trkpt lat="44.40905" lon="5.95013">
        <ele>614</ele>
        <time>2019-06-12T12:09:23Z</time>
      </trkpt>
      <trkpt lat="44.40909" lon="5.95012">
        <ele>614</ele>
        <time>2019-06-12T12:09:24Z</time>
      </trkpt>
      <trkpt lat="44.40913" lon="5.95011">
        <ele>614</ele>
        <time>2019-06-12T12:09:25Z</time>
      </trkpt>
      <trkpt lat="44.40917" lon="5.95011">
        <ele>614</ele>
        <time>2019-06-12T12:09:26Z</time>
      </trkpt>
      <trkpt lat="44.40921" lon="5.95011">
        <ele>614</ele>
        <time>2019-06-12T12:09:27Z</time>
      </trkpt>
      <trkpt lat="44.40925" lon="5.95012">
        <ele>615</ele>
        <time>2019-06-12T12:09:29Z</time>
      </trkpt>
      <trkpt lat="44.40929" lon="5.95013">
        <ele>615</ele>
        <time>2019-06-12T12:09:29Z</time>
      </trkpt>
      <trkpt lat="44.40932" lon="5.95014">
        <ele>616</ele>
        <time>2019-06-12T12:09:30Z</time>
      </trkpt>
      <trkpt lat="44.40936" lon="5.95016">
        <ele>616</ele>
        <time>2019-06-12T12:09:31Z</time>
      </trkpt>
      <trkpt lat="44.40939" lon="5.95018">
        <ele>616</ele>
        <time>2019-06-12T12:09:32Z</time>
      </trkpt>
      <trkpt lat="44.40942" lon="5.9502">
        <ele>616</ele>
        <time>2019-06-12T12:09:33Z</time>
      </trkpt>
      <trkpt lat="44.40946" lon="5.95022">
        <ele>617</ele>
        <time>2019-06-12T12:09:34Z</time>
      </trkpt>
      <trkpt lat="44.40949" lon="5.95024">
        <ele>617</ele>
        <time>2019-06-12T12:09:35Z</time>
      </trkpt>
      <trkpt lat="44.40952" lon="5.95027">
        <ele>617</ele>
        <time>2019-06-12T12:09:36Z</time>
      </trkpt>
      <trkpt lat="44.40955" lon="5.9503">
        <ele>617</ele>
        <time>2019-06-12T12:09:37Z</time>
      </trkpt>
      <trkpt lat="44.40958" lon="5.95032">
        <ele>617</ele>
        <time>2019-06-12T12:09:38Z</time>
      </trkpt>
      <trkpt lat="44.40961" lon="5.95034">
        <ele>617</ele>
        <time>2019-06-12T12:09:39Z</time>
      </trkpt>
      <trkpt lat="44.40964" lon="5.95037">
        <ele>617</ele>
        <time>2019-06-12T12:09:40Z</time>
      </trkpt>
      <trkpt lat="44.40967" lon="5.95038">
        <ele>617</ele>
        <time>2019-06-12T12:09:41Z</time>
      </trkpt>
      <trkpt lat="44.4097" lon="5.95041">
        <ele>617</ele>
        <time>2019-06-12T12:09:42Z</time>
      </trkpt>
      <trkpt lat="44.40973" lon="5.95043">
        <ele>617</ele>
        <time>2019-06-12T12:09:43Z</time>
      </trkpt>
      <trkpt lat="44.40977" lon="5.95045">
        <ele>617</ele>
        <time>2019-06-12T12:09:44Z</time>
      </trkpt>
      <trkpt lat="44.4098" lon="5.95047">
        <ele>617</ele>
        <time>2019-06-12T12:09:45Z</time>
      </trkpt>
      <trkpt lat="44.40983" lon="5.95048">
        <ele>617</ele>
        <time>2019-06-12T12:09:46Z</time>
      </trkpt>
      <trkpt lat="44.40987" lon="5.9505">
        <ele>617</ele>
        <time>2019-06-12T12:09:47Z</time>
      </trkpt>
      <trkpt lat="44.4099" lon="5.95051">
        <ele>617</ele>
        <time>2019-06-12T12:09:48Z</time>
      </trkpt>
      <trkpt lat="44.40993" lon="5.95053">
        <ele>617</ele>
        <time>2019-06-12T12:09:49Z</time>
      </trkpt>
      <trkpt lat="44.40997" lon="5.95055">
        <ele>617</ele>
        <time>2019-06-12T12:09:50Z</time>
      </trkpt>
      <trkpt lat="44.41" lon="5.95057">
        <ele>617</ele>
        <time>2019-06-12T12:09:51Z</time>
      </trkpt>
      <trkpt lat="44.41003" lon="5.95058">
        <ele>617</ele>
        <time>2019-06-12T12:09:52Z</time>
      </trkpt>
      <trkpt lat="44.41007" lon="5.95059">
        <ele>618</ele>
        <time>2019-06-12T12:09:53Z</time>
      </trkpt>
      <trkpt lat="44.4101" lon="5.9506">
        <ele>618</ele>
        <time>2019-06-12T12:09:54Z</time>
      </trkpt>
      <trkpt lat="44.41013" lon="5.95062">
        <ele>618</ele>
        <time>2019-06-12T12:09:55Z</time>
      </trkpt>
      <trkpt lat="44.41016" lon="5.95063">
        <ele>618</ele>
        <time>2019-06-12T12:09:56Z</time>
      </trkpt>
      <trkpt lat="44.4102" lon="5.95063">
        <ele>618</ele>
        <time>2019-06-12T12:09:57Z</time>
      </trkpt>
      <trkpt lat="44.41023" lon="5.95064">
        <ele>619</ele>
        <time>2019-06-12T12:09:58Z</time>
      </trkpt>
      <trkpt lat="44.41026" lon="5.95066">
        <ele>619</ele>
        <time>2019-06-12T12:09:59Z</time>
      </trkpt>
      <trkpt lat="44.41029" lon="5.95067">
        <ele>619</ele>
        <time>2019-06-12T12:10:00Z</time>
      </trkpt>
      <trkpt lat="44.41032" lon="5.95068">
        <ele>619</ele>
        <time>2019-06-12T12:10:01Z</time>
      </trkpt>
      <trkpt lat="44.41035" lon="5.95069">
        <ele>620</ele>
        <time>2019-06-12T12:10:02Z</time>
      </trkpt>
      <trkpt lat="44.41038" lon="5.95069">
        <ele>620</ele>
        <time>2019-06-12T12:10:03Z</time>
      </trkpt>
      <trkpt lat="44.41041" lon="5.9507">
        <ele>620</ele>
        <time>2019-06-12T12:10:04Z</time>
      </trkpt>
      <trkpt lat="44.41043" lon="5.95071">
        <ele>620</ele>
        <time>2019-06-12T12:10:05Z</time>
      </trkpt>
      <trkpt lat="44.41046" lon="5.95071">
        <ele>621</ele>
        <time>2019-06-12T12:10:06Z</time>
      </trkpt>
      <trkpt lat="44.41048" lon="5.95072">
        <ele>621</ele>
        <time>2019-06-12T12:10:07Z</time>
      </trkpt>
      <trkpt lat="44.41051" lon="5.95073">
        <ele>621</ele>
        <time>2019-06-12T12:10:08Z</time>
      </trkpt>
      <trkpt lat="44.41053" lon="5.95074">
        <ele>621</ele>
        <time>2019-06-12T12:10:09Z</time>
      </trkpt>
      <trkpt lat="44.41056" lon="5.95075">
        <ele>622</ele>
        <time>2019-06-12T12:10:10Z</time>
      </trkpt>
      <trkpt lat="44.41058" lon="5.95076">
        <ele>622</ele>
        <time>2019-06-12T12:10:11Z</time>
      </trkpt>
      <trkpt lat="44.41061" lon="5.95077">
        <ele>622</ele>
        <time>2019-06-12T12:10:12Z</time>
      </trkpt>
      <trkpt lat="44.41063" lon="5.95078">
        <ele>623</ele>
        <time>2019-06-12T12:10:13Z</time>
      </trkpt>
      <trkpt lat="44.41066" lon="5.9508">
        <ele>623</ele>
        <time>2019-06-12T12:10:14Z</time>
      </trkpt>
      <trkpt lat="44.41068" lon="5.95082">
        <ele>624</ele>
        <time>2019-06-12T12:10:15Z</time>
      </trkpt>
      <trkpt lat="44.41071" lon="5.95083">
        <ele>624</ele>
        <time>2019-06-12T12:10:16Z</time>
      </trkpt>
      <trkpt lat="44.41073" lon="5.95084">
        <ele>624</ele>
        <time>2019-06-12T12:10:17Z</time>
      </trkpt>
      <trkpt lat="44.41075" lon="5.95085">
        <ele>625</ele>
        <time>2019-06-12T12:10:18Z</time>
      </trkpt>
      <trkpt lat="44.41079" lon="5.95086">
        <ele>625</ele>
        <time>2019-06-12T12:10:19Z</time>
      </trkpt>
      <trkpt lat="44.41082" lon="5.95086">
        <ele>625</ele>
        <time>2019-06-12T12:10:20Z</time>
      </trkpt>
      <trkpt lat="44.41084" lon="5.95086">
        <ele>625</ele>
        <time>2019-06-12T12:10:21Z</time>
      </trkpt>
      <trkpt lat="44.41087" lon="5.95086">
        <ele>625</ele>
        <time>2019-06-12T12:10:22Z</time>
      </trkpt>
      <trkpt lat="44.4109" lon="5.95087">
        <ele>626</ele>
        <time>2019-06-12T12:10:23Z</time>
      </trkpt>
      <trkpt lat="44.41093" lon="5.95087">
        <ele>626</ele>
        <time>2019-06-12T12:10:24Z</time>
      </trkpt>
      <trkpt lat="44.41095" lon="5.95088">
        <ele>626</ele>
        <time>2019-06-12T12:10:25Z</time>
      </trkpt>
      <trkpt lat="44.41098" lon="5.95088">
        <ele>627</ele>
        <time>2019-06-12T12:10:26Z</time>
      </trkpt>
      <trkpt lat="44.411" lon="5.95087">
        <ele>627</ele>
        <time>2019-06-12T12:10:27Z</time>
      </trkpt>
      <trkpt lat="44.41103" lon="5.95087">
        <ele>627</ele>
        <time>2019-06-12T12:10:29Z</time>
      </trkpt>
      <trkpt lat="44.41106" lon="5.95087">
        <ele>627</ele>
        <time>2019-06-12T12:10:29Z</time>
      </trkpt>
      <trkpt lat="44.41109" lon="5.95087">
        <ele>628</ele>
        <time>2019-06-12T12:10:30Z</time>
      </trkpt>
      <trkpt lat="44.41112" lon="5.95086">
        <ele>628</ele>
        <time>2019-06-12T12:10:31Z</time>
      </trkpt>
      <trkpt lat="44.41115" lon="5.95085">
        <ele>628</ele>
        <time>2019-06-12T12:10:32Z</time>
      </trkpt>
      <trkpt lat="44.41118" lon="5.95084">
        <ele>629</ele>
        <time>2019-06-12T12:10:33Z</time>
      </trkpt>
      <trkpt lat="44.41121" lon="5.95083">
        <ele>629</ele>
        <time>2019-06-12T12:10:34Z</time>
      </trkpt>
      <trkpt lat="44.41124" lon="5.95082">
        <ele>629</ele>
        <time>2019-06-12T12:10:35Z</time>
      </trkpt>
      <trkpt lat="44.41127" lon="5.95081">
        <ele>630</ele>
        <time>2019-06-12T12:10:36Z</time>
      </trkpt>
      <trkpt lat="44.41129" lon="5.9508">
        <ele>630</ele>
        <time>2019-06-12T12:10:37Z</time>
      </trkpt>
      <trkpt lat="44.41132" lon="5.95079">
        <ele>630</ele>
        <time>2019-06-12T12:10:38Z</time>
      </trkpt>
      <trkpt lat="44.41134" lon="5.95078">
        <ele>631</ele>
        <time>2019-06-12T12:10:39Z</time>
      </trkpt>
      <trkpt lat="44.41136" lon="5.95077">
        <ele>631</ele>
        <time>2019-06-12T12:10:40Z</time>
      </trkpt>
      <trkpt lat="44.41138" lon="5.95076">
        <ele>631</ele>
        <time>2019-06-12T12:10:41Z</time>
      </trkpt>
      <trkpt lat="44.41139" lon="5.95076">
        <ele>631</ele>
        <time>2019-06-12T12:10:42Z</time>
      </trkpt>
      <trkpt lat="44.41138" lon="5.95074">
        <ele>632</ele>
        <time>2019-06-12T12:10:54Z</time>
      </trkpt>
      <trkpt lat="44.41137" lon="5.95074">
        <ele>632</ele>
        <time>2019-06-12T12:11:05Z</time>
      </trkpt>
      <trkpt lat="44.41138" lon="5.95076">
        <ele>632</ele>
        <time>2019-06-12T12:11:19Z</time>
      </trkpt>
      <trkpt lat="44.41139" lon="5.95076">
        <ele>632</ele>
        <time>2019-06-12T12:11:24Z</time>
      </trkpt>
      <trkpt lat="44.41141" lon="5.95076">
        <ele>632</ele>
        <time>2019-06-12T12:11:29Z</time>
      </trkpt>
      <trkpt lat="44.41144" lon="5.95076">
        <ele>632</ele>
        <time>2019-06-12T12:11:31Z</time>
      </trkpt>
      <trkpt lat="44.41145" lon="5.95076">
        <ele>632</ele>
        <time>2019-06-12T12:11:32Z</time>
      </trkpt>
      <trkpt lat="44.41146" lon="5.95076">
        <ele>632</ele>
        <time>2019-06-12T12:11:34Z</time>
      </trkpt>
      <trkpt lat="44.41148" lon="5.95075">
        <ele>632</ele>
        <time>2019-06-12T12:11:36Z</time>
      </trkpt>
      <trkpt lat="44.4115" lon="5.95074">
        <ele>632</ele>
        <time>2019-06-12T12:11:38Z</time>
      </trkpt>
      <trkpt lat="44.41151" lon="5.95073">
        <ele>632</ele>
        <time>2019-06-12T12:11:39Z</time>
      </trkpt>
      <trkpt lat="44.41153" lon="5.95072">
        <ele>632</ele>
        <time>2019-06-12T12:11:40Z</time>
      </trkpt>
      <trkpt lat="44.41155" lon="5.95071">
        <ele>632</ele>
        <time>2019-06-12T12:11:41Z</time>
      </trkpt>
      <trkpt lat="44.41157" lon="5.95071">
        <ele>632</ele>
        <time>2019-06-12T12:11:42Z</time>
      </trkpt>
      <trkpt lat="44.41159" lon="5.9507">
        <ele>632</ele>
        <time>2019-06-12T12:11:43Z</time>
      </trkpt>
      <trkpt lat="44.41161" lon="5.9507">
        <ele>632</ele>
        <time>2019-06-12T12:11:44Z</time>
      </trkpt>
      <trkpt lat="44.41164" lon="5.95069">
        <ele>632</ele>
        <time>2019-06-12T12:11:45Z</time>
      </trkpt>
      <trkpt lat="44.41166" lon="5.95068">
        <ele>632</ele>
        <time>2019-06-12T12:11:46Z</time>
      </trkpt>
      <trkpt lat="44.41168" lon="5.95068">
        <ele>632</ele>
        <time>2019-06-12T12:11:47Z</time>
      </trkpt>
      <trkpt lat="44.41171" lon="5.95068">
        <ele>632</ele>
        <time>2019-06-12T12:11:48Z</time>
      </trkpt>
      <trkpt lat="44.41173" lon="5.95068">
        <ele>633</ele>
        <time>2019-06-12T12:11:49Z</time>
      </trkpt>
      <trkpt lat="44.41175" lon="5.95068">
        <ele>634</ele>
        <time>2019-06-12T12:11:50Z</time>
      </trkpt>
      <trkpt lat="44.41177" lon="5.95068">
        <ele>634</ele>
        <time>2019-06-12T12:11:51Z</time>
      </trkpt>
      <trkpt lat="44.4118" lon="5.95069">
        <ele>635</ele>
        <time>2019-06-12T12:11:52Z</time>
      </trkpt>
      <trkpt lat="44.41182" lon="5.95069">
        <ele>635</ele>
        <time>2019-06-12T12:11:53Z</time>
      </trkpt>
      <trkpt lat="44.41183" lon="5.95069">
        <ele>635</ele>
        <time>2019-06-12T12:11:54Z</time>
      </trkpt>
      <trkpt lat="44.41185" lon="5.95068">
        <ele>636</ele>
        <time>2019-06-12T12:11:55Z</time>
      </trkpt>
      <trkpt lat="44.41186" lon="5.95068">
        <ele>636</ele>
        <time>2019-06-12T12:11:56Z</time>
      </trkpt>
      <trkpt lat="44.41187" lon="5.95067">
        <ele>636</ele>
        <time>2019-06-12T12:11:57Z</time>
      </trkpt>
      <trkpt lat="44.41188" lon="5.95067">
        <ele>636</ele>
        <time>2019-06-12T12:11:58Z</time>
      </trkpt>
      <trkpt lat="44.4119" lon="5.95067">
        <ele>637</ele>
        <time>2019-06-12T12:11:59Z</time>
      </trkpt>
      <trkpt lat="44.41191" lon="5.95067">
        <ele>637</ele>
        <time>2019-06-12T12:12:00Z</time>
      </trkpt>
      <trkpt lat="44.41193" lon="5.95067">
        <ele>637</ele>
        <time>2019-06-12T12:12:01Z</time>
      </trkpt>
      <trkpt lat="44.41195" lon="5.95067">
        <ele>637</ele>
        <time>2019-06-12T12:12:02Z</time>
      </trkpt>
      <trkpt lat="44.41196" lon="5.95067">
        <ele>638</ele>
        <time>2019-06-12T12:12:03Z</time>
      </trkpt>
      <trkpt lat="44.41198" lon="5.95067">
        <ele>638</ele>
        <time>2019-06-12T12:12:04Z</time>
      </trkpt>
      <trkpt lat="44.412" lon="5.95067">
        <ele>638</ele>
        <time>2019-06-12T12:12:05Z</time>
      </trkpt>
      <trkpt lat="44.41202" lon="5.95067">
        <ele>638</ele>
        <time>2019-06-12T12:12:06Z</time>
      </trkpt>
      <trkpt lat="44.41203" lon="5.95066">
        <ele>638</ele>
        <time>2019-06-12T12:12:07Z</time>
      </trkpt>
      <trkpt lat="44.41205" lon="5.95066">
        <ele>638</ele>
        <time>2019-06-12T12:12:08Z</time>
      </trkpt>
      <trkpt lat="44.41207" lon="5.95066">
        <ele>638</ele>
        <time>2019-06-12T12:12:09Z</time>
      </trkpt>
      <trkpt lat="44.41209" lon="5.95066">
        <ele>638</ele>
        <time>2019-06-12T12:12:10Z</time>
      </trkpt>
      <trkpt lat="44.4121" lon="5.95066">
        <ele>638</ele>
        <time>2019-06-12T12:12:11Z</time>
      </trkpt>
      <trkpt lat="44.41212" lon="5.95066">
        <ele>638</ele>
        <time>2019-06-12T12:12:12Z</time>
      </trkpt>
      <trkpt lat="44.41214" lon="5.95065">
        <ele>638</ele>
        <time>2019-06-12T12:12:13Z</time>
      </trkpt>
      <trkpt lat="44.41216" lon="5.95065">
        <ele>638</ele>
        <time>2019-06-12T12:12:14Z</time>
      </trkpt>
      <trkpt lat="44.41218" lon="5.95064">
        <ele>638</ele>
        <time>2019-06-12T12:12:15Z</time>
      </trkpt>
      <trkpt lat="44.4122" lon="5.95064">
        <ele>638</ele>
        <time>2019-06-12T12:12:16Z</time>
      </trkpt>
      <trkpt lat="44.41222" lon="5.95064">
        <ele>638</ele>
        <time>2019-06-12T12:12:17Z</time>
      </trkpt>
      <trkpt lat="44.41225" lon="5.95063">
        <ele>638</ele>
        <time>2019-06-12T12:12:18Z</time>
      </trkpt>
      <trkpt lat="44.41227" lon="5.95063">
        <ele>638</ele>
        <time>2019-06-12T12:12:19Z</time>
      </trkpt>
      <trkpt lat="44.4123" lon="5.95062">
        <ele>638</ele>
        <time>2019-06-12T12:12:20Z</time>
      </trkpt>
      <trkpt lat="44.41233" lon="5.95061">
        <ele>638</ele>
        <time>2019-06-12T12:12:21Z</time>
      </trkpt>
      <trkpt lat="44.41236" lon="5.9506">
        <ele>638</ele>
        <time>2019-06-12T12:12:22Z</time>
      </trkpt>
      <trkpt lat="44.4124" lon="5.95059">
        <ele>638</ele>
        <time>2019-06-12T12:12:23Z</time>
      </trkpt>
      <trkpt lat="44.41243" lon="5.95058">
        <ele>638</ele>
        <time>2019-06-12T12:12:24Z</time>
      </trkpt>
      <trkpt lat="44.41246" lon="5.95057">
        <ele>638</ele>
        <time>2019-06-12T12:12:25Z</time>
      </trkpt>
      <trkpt lat="44.4125" lon="5.95056">
        <ele>638</ele>
        <time>2019-06-12T12:12:26Z</time>
      </trkpt>
      <trkpt lat="44.41254" lon="5.95054">
        <ele>638</ele>
        <time>2019-06-12T12:12:27Z</time>
      </trkpt>
      <trkpt lat="44.41257" lon="5.95053">
        <ele>638</ele>
        <time>2019-06-12T12:12:29Z</time>
      </trkpt>
      <trkpt lat="44.41261" lon="5.95052">
        <ele>638</ele>
        <time>2019-06-12T12:12:29Z</time>
      </trkpt>
      <trkpt lat="44.41264" lon="5.9505">
        <ele>638</ele>
        <time>2019-06-12T12:12:30Z</time>
      </trkpt>
      <trkpt lat="44.41267" lon="5.95049">
        <ele>638</ele>
        <time>2019-06-12T12:12:31Z</time>
      </trkpt>
      <trkpt lat="44.41271" lon="5.95048">
        <ele>638</ele>
        <time>2019-06-12T12:12:32Z</time>
      </trkpt>
      <trkpt lat="44.41275" lon="5.95047">
        <ele>638</ele>
        <time>2019-06-12T12:12:33Z</time>
      </trkpt>
      <trkpt lat="44.41279" lon="5.95045">
        <ele>638</ele>
        <time>2019-06-12T12:12:34Z</time>
      </trkpt>
      <trkpt lat="44.41283" lon="5.95044">
        <ele>638</ele>
        <time>2019-06-12T12:12:35Z</time>
      </trkpt>
      <trkpt lat="44.41286" lon="5.95043">
        <ele>638</ele>
        <time>2019-06-12T12:12:36Z</time>
      </trkpt>
      <trkpt lat="44.4129" lon="5.95041">
        <ele>638</ele>
        <time>2019-06-12T12:12:37Z</time>
      </trkpt>
      <trkpt lat="44.41294" lon="5.95039">
        <ele>638</ele>
        <time>2019-06-12T12:12:38Z</time>
      </trkpt>
      <trkpt lat="44.41298" lon="5.95038">
        <ele>638</ele>
        <time>2019-06-12T12:12:39Z</time>
      </trkpt>
      <trkpt lat="44.41301" lon="5.95036">
        <ele>638</ele>
        <time>2019-06-12T12:12:40Z</time>
      </trkpt>
      <trkpt lat="44.41305" lon="5.95035">
        <ele>638</ele>
        <time>2019-06-12T12:12:41Z</time>
      </trkpt>
      <trkpt lat="44.41309" lon="5.95033">
        <ele>638</ele>
        <time>2019-06-12T12:12:42Z</time>
      </trkpt>
      <trkpt lat="44.41313" lon="5.95031">
        <ele>638</ele>
        <time>2019-06-12T12:12:43Z</time>
      </trkpt>
      <trkpt lat="44.41316" lon="5.95029">
        <ele>638</ele>
        <time>2019-06-12T12:12:44Z</time>
      </trkpt>
      <trkpt lat="44.4132" lon="5.95027">
        <ele>638</ele>
        <time>2019-06-12T12:12:45Z</time>
      </trkpt>
      <trkpt lat="44.41323" lon="5.95025">
        <ele>638</ele>
        <time>2019-06-12T12:12:46Z</time>
      </trkpt>
      <trkpt lat="44.41327" lon="5.95023">
        <ele>638</ele>
        <time>2019-06-12T12:12:47Z</time>
      </trkpt>
      <trkpt lat="44.41331" lon="5.95021">
        <ele>638</ele>
        <time>2019-06-12T12:12:48Z</time>
      </trkpt>
      <trkpt lat="44.41335" lon="5.95019">
        <ele>638</ele>
        <time>2019-06-12T12:12:49Z</time>
      </trkpt>
      <trkpt lat="44.41338" lon="5.95017">
        <ele>638</ele>
        <time>2019-06-12T12:12:50Z</time>
      </trkpt>
      <trkpt lat="44.41342" lon="5.95016">
        <ele>638</ele>
        <time>2019-06-12T12:12:51Z</time>
      </trkpt>
      <trkpt lat="44.41346" lon="5.95014">
        <ele>638</ele>
        <time>2019-06-12T12:12:52Z</time>
      </trkpt>
      <trkpt lat="44.4135" lon="5.95012">
        <ele>638</ele>
        <time>2019-06-12T12:12:53Z</time>
      </trkpt>
      <trkpt lat="44.41354" lon="5.95011">
        <ele>638</ele>
        <time>2019-06-12T12:12:54Z</time>
      </trkpt>
      <trkpt lat="44.41357" lon="5.9501">
        <ele>638</ele>
        <time>2019-06-12T12:12:55Z</time>
      </trkpt>
      <trkpt lat="44.41361" lon="5.95009">
        <ele>638</ele>
        <time>2019-06-12T12:12:56Z</time>
      </trkpt>
      <trkpt lat="44.41365" lon="5.95008">
        <ele>638</ele>
        <time>2019-06-12T12:12:57Z</time>
      </trkpt>
      <trkpt lat="44.41369" lon="5.95008">
        <ele>638</ele>
        <time>2019-06-12T12:12:58Z</time>
      </trkpt>
      <trkpt lat="44.41374" lon="5.95007">
        <ele>638</ele>
        <time>2019-06-12T12:12:59Z</time>
      </trkpt>
      <trkpt lat="44.41378" lon="5.95007">
        <ele>638</ele>
        <time>2019-06-12T12:13:00Z</time>
      </trkpt>
      <trkpt lat="44.41383" lon="5.95008">
        <ele>638</ele>
        <time>2019-06-12T12:13:01Z</time>
      </trkpt>
      <trkpt lat="44.41388" lon="5.95008">
        <ele>638</ele>
        <time>2019-06-12T12:13:02Z</time>
      </trkpt>
      <trkpt lat="44.41393" lon="5.95008">
        <ele>638</ele>
        <time>2019-06-12T12:13:03Z</time>
      </trkpt>
      <trkpt lat="44.41398" lon="5.95009">
        <ele>638</ele>
        <time>2019-06-12T12:13:04Z</time>
      </trkpt>
      <trkpt lat="44.41403" lon="5.95009">
        <ele>638</ele>
        <time>2019-06-12T12:13:05Z</time>
      </trkpt>
      <trkpt lat="44.41408" lon="5.95009">
        <ele>638</ele>
        <time>2019-06-12T12:13:06Z</time>
      </trkpt>
      <trkpt lat="44.41413" lon="5.9501">
        <ele>638</ele>
        <time>2019-06-12T12:13:07Z</time>
      </trkpt>
      <trkpt lat="44.41419" lon="5.9501">
        <ele>638</ele>
        <time>2019-06-12T12:13:08Z</time>
      </trkpt>
      <trkpt lat="44.41424" lon="5.95011">
        <ele>638</ele>
        <time>2019-06-12T12:13:09Z</time>
      </trkpt>
      <trkpt lat="44.41429" lon="5.95011">
        <ele>638</ele>
        <time>2019-06-12T12:13:10Z</time>
      </trkpt>
      <trkpt lat="44.41434" lon="5.95012">
        <ele>638</ele>
        <time>2019-06-12T12:13:11Z</time>
      </trkpt>
      <trkpt lat="44.41438" lon="5.95012">
        <ele>638</ele>
        <time>2019-06-12T12:13:12Z</time>
      </trkpt>
      <trkpt lat="44.41442" lon="5.95013">
        <ele>638</ele>
        <time>2019-06-12T12:13:13Z</time>
      </trkpt>
      <trkpt lat="44.41446" lon="5.95013">
        <ele>638</ele>
        <time>2019-06-12T12:13:14Z</time>
      </trkpt>
      <trkpt lat="44.41449" lon="5.95014">
        <ele>638</ele>
        <time>2019-06-12T12:13:15Z</time>
      </trkpt>
      <trkpt lat="44.41452" lon="5.95014">
        <ele>638</ele>
        <time>2019-06-12T12:13:16Z</time>
      </trkpt>
      <trkpt lat="44.41454" lon="5.95014">
        <ele>638</ele>
        <time>2019-06-12T12:13:17Z</time>
      </trkpt>
      <trkpt lat="44.41457" lon="5.95014">
        <ele>637</ele>
        <time>2019-06-12T12:13:18Z</time>
      </trkpt>
      <trkpt lat="44.4146" lon="5.95012">
        <ele>637</ele>
        <time>2019-06-12T12:13:19Z</time>
      </trkpt>
      <trkpt lat="44.41463" lon="5.95009">
        <ele>637</ele>
        <time>2019-06-12T12:13:20Z</time>
      </trkpt>
      <trkpt lat="44.41466" lon="5.95006">
        <ele>637</ele>
        <time>2019-06-12T12:13:21Z</time>
      </trkpt>
      <trkpt lat="44.41468" lon="5.95002">
        <ele>637</ele>
        <time>2019-06-12T12:13:22Z</time>
      </trkpt>
      <trkpt lat="44.41469" lon="5.94998">
        <ele>637</ele>
        <time>2019-06-12T12:13:23Z</time>
      </trkpt>
      <trkpt lat="44.4147" lon="5.94993">
        <ele>637</ele>
        <time>2019-06-12T12:13:24Z</time>
      </trkpt>
      <trkpt lat="44.41471" lon="5.94988">
        <ele>637</ele>
        <time>2019-06-12T12:13:25Z</time>
      </trkpt>
      <trkpt lat="44.41472" lon="5.94984">
        <ele>637</ele>
        <time>2019-06-12T12:13:26Z</time>
      </trkpt>
      <trkpt lat="44.41473" lon="5.94979">
        <ele>637</ele>
        <time>2019-06-12T12:13:27Z</time>
      </trkpt>
      <trkpt lat="44.41474" lon="5.94975">
        <ele>637</ele>
        <time>2019-06-12T12:13:29Z</time>
      </trkpt>
      <trkpt lat="44.41475" lon="5.94971">
        <ele>637</ele>
        <time>2019-06-12T12:13:29Z</time>
      </trkpt>
      <trkpt lat="44.41475" lon="5.94966">
        <ele>637</ele>
        <time>2019-06-12T12:13:30Z</time>
      </trkpt>
      <trkpt lat="44.41476" lon="5.94962">
        <ele>637</ele>
        <time>2019-06-12T12:13:31Z</time>
      </trkpt>
      <trkpt lat="44.41477" lon="5.94957">
        <ele>637</ele>
        <time>2019-06-12T12:13:32Z</time>
      </trkpt>
      <trkpt lat="44.41478" lon="5.94952">
        <ele>637</ele>
        <time>2019-06-12T12:13:33Z</time>
      </trkpt>
      <trkpt lat="44.41479" lon="5.94947">
        <ele>637</ele>
        <time>2019-06-12T12:13:34Z</time>
      </trkpt>
      <trkpt lat="44.41481" lon="5.94942">
        <ele>637</ele>
        <time>2019-06-12T12:13:35Z</time>
      </trkpt>
      <trkpt lat="44.41482" lon="5.94937">
        <ele>637</ele>
        <time>2019-06-12T12:13:36Z</time>
      </trkpt>
      <trkpt lat="44.41483" lon="5.94932">
        <ele>637</ele>
        <time>2019-06-12T12:13:37Z</time>
      </trkpt>
      <trkpt lat="44.41484" lon="5.94927">
        <ele>637</ele>
        <time>2019-06-12T12:13:38Z</time>
      </trkpt>
      <trkpt lat="44.41484" lon="5.94922">
        <ele>637</ele>
        <time>2019-06-12T12:13:39Z</time>
      </trkpt>
      <trkpt lat="44.41485" lon="5.94917">
        <ele>637</ele>
        <time>2019-06-12T12:13:40Z</time>
      </trkpt>
      <trkpt lat="44.41486" lon="5.94912">
        <ele>637</ele>
        <time>2019-06-12T12:13:41Z</time>
      </trkpt>
      <trkpt lat="44.41486" lon="5.94907">
        <ele>637</ele>
        <time>2019-06-12T12:13:42Z</time>
      </trkpt>
      <trkpt lat="44.41487" lon="5.94902">
        <ele>637</ele>
        <time>2019-06-12T12:13:43Z</time>
      </trkpt>
      <trkpt lat="44.41487" lon="5.94897">
        <ele>637</ele>
        <time>2019-06-12T12:13:44Z</time>
      </trkpt>
      <trkpt lat="44.41487" lon="5.94891">
        <ele>637</ele>
        <time>2019-06-12T12:13:45Z</time>
      </trkpt>
      <trkpt lat="44.41486" lon="5.94886">
        <ele>637</ele>
        <time>2019-06-12T12:13:46Z</time>
      </trkpt>
      <trkpt lat="44.41486" lon="5.94881">
        <ele>637</ele>
        <time>2019-06-12T12:13:47Z</time>
      </trkpt>
      <trkpt lat="44.41484" lon="5.94876">
        <ele>637</ele>
        <time>2019-06-12T12:13:48Z</time>
      </trkpt>
      <trkpt lat="44.41482" lon="5.94871">
        <ele>637</ele>
        <time>2019-06-12T12:13:49Z</time>
      </trkpt>
      <trkpt lat="44.4148" lon="5.94867">
        <ele>637</ele>
        <time>2019-06-12T12:13:50Z</time>
      </trkpt>
      <trkpt lat="44.41478" lon="5.94862">
        <ele>637</ele>
        <time>2019-06-12T12:13:51Z</time>
      </trkpt>
      <trkpt lat="44.41476" lon="5.94858">
        <ele>637</ele>
        <time>2019-06-12T12:13:52Z</time>
      </trkpt>
      <trkpt lat="44.41473" lon="5.94854">
        <ele>637</ele>
        <time>2019-06-12T12:13:53Z</time>
      </trkpt>
      <trkpt lat="44.4147" lon="5.9485">
        <ele>637</ele>
        <time>2019-06-12T12:13:54Z</time>
      </trkpt>
      <trkpt lat="44.41467" lon="5.94846">
        <ele>637</ele>
        <time>2019-06-12T12:13:55Z</time>
      </trkpt>
      <trkpt lat="44.41465" lon="5.94842">
        <ele>637</ele>
        <time>2019-06-12T12:13:56Z</time>
      </trkpt>
      <trkpt lat="44.41462" lon="5.94838">
        <ele>637</ele>
        <time>2019-06-12T12:13:57Z</time>
      </trkpt>
      <trkpt lat="44.4146" lon="5.94834">
        <ele>637</ele>
        <time>2019-06-12T12:13:58Z</time>
      </trkpt>
      <trkpt lat="44.41458" lon="5.94829">
        <ele>637</ele>
        <time>2019-06-12T12:13:59Z</time>
      </trkpt>
      <trkpt lat="44.41457" lon="5.94823">
        <ele>637</ele>
        <time>2019-06-12T12:14:00Z</time>
      </trkpt>
      <trkpt lat="44.41458" lon="5.94817">
        <ele>637</ele>
        <time>2019-06-12T12:14:01Z</time>
      </trkpt>
      <trkpt lat="44.4146" lon="5.94812">
        <ele>637</ele>
        <time>2019-06-12T12:14:02Z</time>
      </trkpt>
      <trkpt lat="44.41462" lon="5.94807">
        <ele>637</ele>
        <time>2019-06-12T12:14:03Z</time>
      </trkpt>
      <trkpt lat="44.41465" lon="5.94804">
        <ele>637</ele>
        <time>2019-06-12T12:14:04Z</time>
      </trkpt>
      <trkpt lat="44.41468" lon="5.94801">
        <ele>637</ele>
        <time>2019-06-12T12:14:05Z</time>
      </trkpt>
      <trkpt lat="44.41471" lon="5.94798">
        <ele>637</ele>
        <time>2019-06-12T12:14:06Z</time>
      </trkpt>
      <trkpt lat="44.41475" lon="5.94796">
        <ele>637</ele>
        <time>2019-06-12T12:14:07Z</time>
      </trkpt>
      <trkpt lat="44.41478" lon="5.94796">
        <ele>637</ele>
        <time>2019-06-12T12:14:08Z</time>
      </trkpt>
      <trkpt lat="44.41482" lon="5.94797">
        <ele>637</ele>
        <time>2019-06-12T12:14:09Z</time>
      </trkpt>
      <trkpt lat="44.41486" lon="5.94797">
        <ele>637</ele>
        <time>2019-06-12T12:14:10Z</time>
      </trkpt>
      <trkpt lat="44.41489" lon="5.94798">
        <ele>638</ele>
        <time>2019-06-12T12:14:11Z</time>
      </trkpt>
      <trkpt lat="44.41493" lon="5.94799">
        <ele>638</ele>
        <time>2019-06-12T12:14:12Z</time>
      </trkpt>
      <trkpt lat="44.41496" lon="5.94799">
        <ele>639</ele>
        <time>2019-06-12T12:14:13Z</time>
      </trkpt>
      <trkpt lat="44.41499" lon="5.948">
        <ele>639</ele>
        <time>2019-06-12T12:14:14Z</time>
      </trkpt>
      <trkpt lat="44.41503" lon="5.94801">
        <ele>640</ele>
        <time>2019-06-12T12:14:15Z</time>
      </trkpt>
      <trkpt lat="44.41506" lon="5.94801">
        <ele>640</ele>
        <time>2019-06-12T12:14:16Z</time>
      </trkpt>
      <trkpt lat="44.41509" lon="5.94801">
        <ele>640</ele>
        <time>2019-06-12T12:14:17Z</time>
      </trkpt>
      <trkpt lat="44.41512" lon="5.94801">
        <ele>641</ele>
        <time>2019-06-12T12:14:18Z</time>
      </trkpt>
      <trkpt lat="44.41515" lon="5.948">
        <ele>641</ele>
        <time>2019-06-12T12:14:19Z</time>
      </trkpt>
      <trkpt lat="44.41518" lon="5.948">
        <ele>641</ele>
        <time>2019-06-12T12:14:20Z</time>
      </trkpt>
      <trkpt lat="44.41522" lon="5.94799">
        <ele>642</ele>
        <time>2019-06-12T12:14:21Z</time>
      </trkpt>
      <trkpt lat="44.41525" lon="5.94797">
        <ele>642</ele>
        <time>2019-06-12T12:14:22Z</time>
      </trkpt>
      <trkpt lat="44.41528" lon="5.94796">
        <ele>642</ele>
        <time>2019-06-12T12:14:23Z</time>
      </trkpt>
      <trkpt lat="44.41531" lon="5.94795">
        <ele>643</ele>
        <time>2019-06-12T12:14:24Z</time>
      </trkpt>
      <trkpt lat="44.41534" lon="5.94793">
        <ele>643</ele>
        <time>2019-06-12T12:14:25Z</time>
      </trkpt>
      <trkpt lat="44.41536" lon="5.94791">
        <ele>643</ele>
        <time>2019-06-12T12:14:26Z</time>
      </trkpt>
      <trkpt lat="44.41539" lon="5.94789">
        <ele>644</ele>
        <time>2019-06-12T12:14:27Z</time>
      </trkpt>
      <trkpt lat="44.41542" lon="5.94788">
        <ele>644</ele>
        <time>2019-06-12T12:14:29Z</time>
      </trkpt>
      <trkpt lat="44.41545" lon="5.94786">
        <ele>645</ele>
        <time>2019-06-12T12:14:29Z</time>
      </trkpt>
      <trkpt lat="44.41548" lon="5.94784">
        <ele>645</ele>
        <time>2019-06-12T12:14:30Z</time>
      </trkpt>
      <trkpt lat="44.41551" lon="5.94781">
        <ele>645</ele>
        <time>2019-06-12T12:14:31Z</time>
      </trkpt>
      <trkpt lat="44.41554" lon="5.94779">
        <ele>646</ele>
        <time>2019-06-12T12:14:32Z</time>
      </trkpt>
      <trkpt lat="44.41556" lon="5.94777">
        <ele>646</ele>
        <time>2019-06-12T12:14:33Z</time>
      </trkpt>
      <trkpt lat="44.41559" lon="5.94775">
        <ele>646</ele>
        <time>2019-06-12T12:14:34Z</time>
      </trkpt>
      <trkpt lat="44.41562" lon="5.94773">
        <ele>646</ele>
        <time>2019-06-12T12:14:35Z</time>
      </trkpt>
      <trkpt lat="44.41564" lon="5.94771">
        <ele>647</ele>
        <time>2019-06-12T12:14:36Z</time>
      </trkpt>
      <trkpt lat="44.41567" lon="5.94769">
        <ele>647</ele>
        <time>2019-06-12T12:14:37Z</time>
      </trkpt>
      <trkpt lat="44.41569" lon="5.94767">
        <ele>647</ele>
        <time>2019-06-12T12:14:38Z</time>
      </trkpt>
      <trkpt lat="44.41572" lon="5.94765">
        <ele>647</ele>
        <time>2019-06-12T12:14:39Z</time>
      </trkpt>
      <trkpt lat="44.41574" lon="5.94762">
        <ele>648</ele>
        <time>2019-06-12T12:14:40Z</time>
      </trkpt>
      <trkpt lat="44.41577" lon="5.9476">
        <ele>648</ele>
        <time>2019-06-12T12:14:41Z</time>
      </trkpt>
      <trkpt lat="44.41579" lon="5.94759">
        <ele>648</ele>
        <time>2019-06-12T12:14:42Z</time>
      </trkpt>
      <trkpt lat="44.41582" lon="5.94756">
        <ele>649</ele>
        <time>2019-06-12T12:14:43Z</time>
      </trkpt>
      <trkpt lat="44.41584" lon="5.94754">
        <ele>649</ele>
        <time>2019-06-12T12:14:44Z</time>
      </trkpt>
      <trkpt lat="44.41587" lon="5.94753">
        <ele>649</ele>
        <time>2019-06-12T12:14:45Z</time>
      </trkpt>
      <trkpt lat="44.4159" lon="5.94751">
        <ele>649</ele>
        <time>2019-06-12T12:14:46Z</time>
      </trkpt>
      <trkpt lat="44.41593" lon="5.94749">
        <ele>650</ele>
        <time>2019-06-12T12:14:47Z</time>
      </trkpt>
      <trkpt lat="44.41595" lon="5.94747">
        <ele>650</ele>
        <time>2019-06-12T12:14:48Z</time>
      </trkpt>
      <trkpt lat="44.41599" lon="5.94746">
        <ele>650</ele>
        <time>2019-06-12T12:14:49Z</time>
      </trkpt>
      <trkpt lat="44.41602" lon="5.94745">
        <ele>651</ele>
        <time>2019-06-12T12:14:50Z</time>
      </trkpt>
      <trkpt lat="44.41604" lon="5.94745">
        <ele>651</ele>
        <time>2019-06-12T12:14:51Z</time>
      </trkpt>
      <trkpt lat="44.41607" lon="5.94744">
        <ele>651</ele>
        <time>2019-06-12T12:14:52Z</time>
      </trkpt>
      <trkpt lat="44.4161" lon="5.94742">
        <ele>652</ele>
        <time>2019-06-12T12:14:53Z</time>
      </trkpt>
      <trkpt lat="44.41613" lon="5.94741">
        <ele>652</ele>
        <time>2019-06-12T12:14:54Z</time>
      </trkpt>
      <trkpt lat="44.41616" lon="5.94739">
        <ele>652</ele>
        <time>2019-06-12T12:14:55Z</time>
      </trkpt>
      <trkpt lat="44.41618" lon="5.94738">
        <ele>653</ele>
        <time>2019-06-12T12:14:56Z</time>
      </trkpt>
      <trkpt lat="44.41621" lon="5.94736">
        <ele>653</ele>
        <time>2019-06-12T12:14:57Z</time>
      </trkpt>
      <trkpt lat="44.41624" lon="5.94734">
        <ele>654</ele>
        <time>2019-06-12T12:14:58Z</time>
      </trkpt>
      <trkpt lat="44.41626" lon="5.94732">
        <ele>654</ele>
        <time>2019-06-12T12:14:59Z</time>
      </trkpt>
      <trkpt lat="44.41629" lon="5.94731">
        <ele>654</ele>
        <time>2019-06-12T12:15:00Z</time>
      </trkpt>
      <trkpt lat="44.41631" lon="5.94729">
        <ele>654</ele>
        <time>2019-06-12T12:15:01Z</time>
      </trkpt>
      <trkpt lat="44.41634" lon="5.94727">
        <ele>655</ele>
        <time>2019-06-12T12:15:02Z</time>
      </trkpt>
      <trkpt lat="44.41636" lon="5.94724">
        <ele>655</ele>
        <time>2019-06-12T12:15:03Z</time>
      </trkpt>
      <trkpt lat="44.41638" lon="5.94721">
        <ele>655</ele>
        <time>2019-06-12T12:15:04Z</time>
      </trkpt>
      <trkpt lat="44.4164" lon="5.94719">
        <ele>655</ele>
        <time>2019-06-12T12:15:05Z</time>
      </trkpt>
      <trkpt lat="44.41642" lon="5.94716">
        <ele>656</ele>
        <time>2019-06-12T12:15:06Z</time>
      </trkpt>
      <trkpt lat="44.41644" lon="5.94713">
        <ele>656</ele>
        <time>2019-06-12T12:15:07Z</time>
      </trkpt>
      <trkpt lat="44.41646" lon="5.94711">
        <ele>656</ele>
        <time>2019-06-12T12:15:08Z</time>
      </trkpt>
      <trkpt lat="44.41648" lon="5.94708">
        <ele>656</ele>
        <time>2019-06-12T12:15:09Z</time>
      </trkpt>
      <trkpt lat="44.41651" lon="5.94706">
        <ele>657</ele>
        <time>2019-06-12T12:15:10Z</time>
      </trkpt>
      <trkpt lat="44.41653" lon="5.94703">
        <ele>657</ele>
        <time>2019-06-12T12:15:11Z</time>
      </trkpt>
      <trkpt lat="44.41655" lon="5.94701">
        <ele>657</ele>
        <time>2019-06-12T12:15:12Z</time>
      </trkpt>
      <trkpt lat="44.41658" lon="5.94698">
        <ele>657</ele>
        <time>2019-06-12T12:15:13Z</time>
      </trkpt>
      <trkpt lat="44.41661" lon="5.94696">
        <ele>658</ele>
        <time>2019-06-12T12:15:14Z</time>
      </trkpt>
      <trkpt lat="44.41663" lon="5.94694">
        <ele>658</ele>
        <time>2019-06-12T12:15:15Z</time>
      </trkpt>
      <trkpt lat="44.41666" lon="5.94692">
        <ele>658</ele>
        <time>2019-06-12T12:15:16Z</time>
      </trkpt>
      <trkpt lat="44.41668" lon="5.9469">
        <ele>658</ele>
        <time>2019-06-12T12:15:17Z</time>
      </trkpt>
      <trkpt lat="44.41671" lon="5.94688">
        <ele>658</ele>
        <time>2019-06-12T12:15:18Z</time>
      </trkpt>
      <trkpt lat="44.41673" lon="5.94686">
        <ele>659</ele>
        <time>2019-06-12T12:15:19Z</time>
      </trkpt>
      <trkpt lat="44.41676" lon="5.94685">
        <ele>659</ele>
        <time>2019-06-12T12:15:20Z</time>
      </trkpt>
      <trkpt lat="44.41678" lon="5.94683">
        <ele>659</ele>
        <time>2019-06-12T12:15:21Z</time>
      </trkpt>
      <trkpt lat="44.41681" lon="5.94682">
        <ele>659</ele>
        <time>2019-06-12T12:15:22Z</time>
      </trkpt>
      <trkpt lat="44.41684" lon="5.94681">
        <ele>659</ele>
        <time>2019-06-12T12:15:23Z</time>
      </trkpt>
      <trkpt lat="44.41686" lon="5.94679">
        <ele>660</ele>
        <time>2019-06-12T12:15:24Z</time>
      </trkpt>
      <trkpt lat="44.41689" lon="5.94677">
        <ele>660</ele>
        <time>2019-06-12T12:15:25Z</time>
      </trkpt>
      <trkpt lat="44.41692" lon="5.94675">
        <ele>660</ele>
        <time>2019-06-12T12:15:26Z</time>
      </trkpt>
      <trkpt lat="44.41694" lon="5.94673">
        <ele>660</ele>
        <time>2019-06-12T12:15:27Z</time>
      </trkpt>
      <trkpt lat="44.41697" lon="5.9467">
        <ele>660</ele>
        <time>2019-06-12T12:15:29Z</time>
      </trkpt>
      <trkpt lat="44.41699" lon="5.94668">
        <ele>660</ele>
        <time>2019-06-12T12:15:29Z</time>
      </trkpt>
      <trkpt lat="44.41701" lon="5.94665">
        <ele>660</ele>
        <time>2019-06-12T12:15:30Z</time>
      </trkpt>
      <trkpt lat="44.41703" lon="5.94662">
        <ele>660</ele>
        <time>2019-06-12T12:15:31Z</time>
      </trkpt>
      <trkpt lat="44.41705" lon="5.94659">
        <ele>660</ele>
        <time>2019-06-12T12:15:32Z</time>
      </trkpt>
      <trkpt lat="44.41707" lon="5.94656">
        <ele>661</ele>
        <time>2019-06-12T12:15:33Z</time>
      </trkpt>
      <trkpt lat="44.41709" lon="5.94652">
        <ele>661</ele>
        <time>2019-06-12T12:15:34Z</time>
      </trkpt>
      <trkpt lat="44.4171" lon="5.94648">
        <ele>661</ele>
        <time>2019-06-12T12:15:35Z</time>
      </trkpt>
      <trkpt lat="44.41711" lon="5.94645">
        <ele>661</ele>
        <time>2019-06-12T12:15:36Z</time>
      </trkpt>
      <trkpt lat="44.41713" lon="5.94641">
        <ele>661</ele>
        <time>2019-06-12T12:15:37Z</time>
      </trkpt>
      <trkpt lat="44.41713" lon="5.94637">
        <ele>661</ele>
        <time>2019-06-12T12:15:38Z</time>
      </trkpt>
      <trkpt lat="44.41713" lon="5.94634">
        <ele>661</ele>
        <time>2019-06-12T12:15:39Z</time>
      </trkpt>
      <trkpt lat="44.41714" lon="5.9463">
        <ele>661</ele>
        <time>2019-06-12T12:15:40Z</time>
      </trkpt>
      <trkpt lat="44.41715" lon="5.94627">
        <ele>661</ele>
        <time>2019-06-12T12:15:41Z</time>
      </trkpt>
      <trkpt lat="44.41715" lon="5.94624">
        <ele>661</ele>
        <time>2019-06-12T12:15:42Z</time>
      </trkpt>
      <trkpt lat="44.41716" lon="5.9462">
        <ele>661</ele>
        <time>2019-06-12T12:15:43Z</time>
      </trkpt>
      <trkpt lat="44.41716" lon="5.94617">
        <ele>661</ele>
        <time>2019-06-12T12:15:44Z</time>
      </trkpt>
      <trkpt lat="44.41715" lon="5.94613">
        <ele>661</ele>
        <time>2019-06-12T12:15:45Z</time>
      </trkpt>
      <trkpt lat="44.41715" lon="5.9461">
        <ele>661</ele>
        <time>2019-06-12T12:15:46Z</time>
      </trkpt>
      <trkpt lat="44.41715" lon="5.94606">
        <ele>661</ele>
        <time>2019-06-12T12:15:47Z</time>
      </trkpt>
      <trkpt lat="44.41715" lon="5.94603">
        <ele>661</ele>
        <time>2019-06-12T12:15:48Z</time>
      </trkpt>
      <trkpt lat="44.41714" lon="5.946">
        <ele>661</ele>
        <time>2019-06-12T12:15:49Z</time>
      </trkpt>
      <trkpt lat="44.41714" lon="5.94596">
        <ele>661</ele>
        <time>2019-06-12T12:15:50Z</time>
      </trkpt>
      <trkpt lat="44.41714" lon="5.94593">
        <ele>661</ele>
        <time>2019-06-12T12:15:51Z</time>
      </trkpt>
      <trkpt lat="44.41713" lon="5.94588">
        <ele>661</ele>
        <time>2019-06-12T12:15:52Z</time>
      </trkpt>
      <trkpt lat="44.41713" lon="5.94585">
        <ele>661</ele>
        <time>2019-06-12T12:15:53Z</time>
      </trkpt>
      <trkpt lat="44.41713" lon="5.94581">
        <ele>662</ele>
        <time>2019-06-12T12:15:54Z</time>
      </trkpt>
      <trkpt lat="44.41712" lon="5.94578">
        <ele>662</ele>
        <time>2019-06-12T12:15:55Z</time>
      </trkpt>
      <trkpt lat="44.41712" lon="5.94575">
        <ele>662</ele>
        <time>2019-06-12T12:15:56Z</time>
      </trkpt>
      <trkpt lat="44.41712" lon="5.94571">
        <ele>662</ele>
        <time>2019-06-12T12:15:57Z</time>
      </trkpt>
      <trkpt lat="44.41712" lon="5.94568">
        <ele>662</ele>
        <time>2019-06-12T12:15:58Z</time>
      </trkpt>
      <trkpt lat="44.41712" lon="5.94565">
        <ele>663</ele>
        <time>2019-06-12T12:15:59Z</time>
      </trkpt>
      <trkpt lat="44.41713" lon="5.94561">
        <ele>663</ele>
        <time>2019-06-12T12:16:00Z</time>
      </trkpt>
      <trkpt lat="44.41713" lon="5.94558">
        <ele>663</ele>
        <time>2019-06-12T12:16:01Z</time>
      </trkpt>
      <trkpt lat="44.41713" lon="5.94554">
        <ele>663</ele>
        <time>2019-06-12T12:16:02Z</time>
      </trkpt>
      <trkpt lat="44.41714" lon="5.94551">
        <ele>664</ele>
        <time>2019-06-12T12:16:03Z</time>
      </trkpt>
      <trkpt lat="44.41715" lon="5.94547">
        <ele>664</ele>
        <time>2019-06-12T12:16:04Z</time>
      </trkpt>
      <trkpt lat="44.41716" lon="5.94544">
        <ele>664</ele>
        <time>2019-06-12T12:16:05Z</time>
      </trkpt>
      <trkpt lat="44.41718" lon="5.94541">
        <ele>664</ele>
        <time>2019-06-12T12:16:06Z</time>
      </trkpt>
      <trkpt lat="44.41719" lon="5.94538">
        <ele>664</ele>
        <time>2019-06-12T12:16:07Z</time>
      </trkpt>
      <trkpt lat="44.41721" lon="5.94535">
        <ele>665</ele>
        <time>2019-06-12T12:16:08Z</time>
      </trkpt>
      <trkpt lat="44.41723" lon="5.94532">
        <ele>665</ele>
        <time>2019-06-12T12:16:09Z</time>
      </trkpt>
      <trkpt lat="44.41724" lon="5.9453">
        <ele>665</ele>
        <time>2019-06-12T12:16:10Z</time>
      </trkpt>
      <trkpt lat="44.41726" lon="5.94528">
        <ele>665</ele>
        <time>2019-06-12T12:16:11Z</time>
      </trkpt>
      <trkpt lat="44.41728" lon="5.94525">
        <ele>666</ele>
        <time>2019-06-12T12:16:12Z</time>
      </trkpt>
      <trkpt lat="44.4173" lon="5.94524">
        <ele>666</ele>
        <time>2019-06-12T12:16:13Z</time>
      </trkpt>
      <trkpt lat="44.41733" lon="5.94522">
        <ele>666</ele>
        <time>2019-06-12T12:16:14Z</time>
      </trkpt>
      <trkpt lat="44.41735" lon="5.94521">
        <ele>666</ele>
        <time>2019-06-12T12:16:15Z</time>
      </trkpt>
      <trkpt lat="44.41738" lon="5.94519">
        <ele>667</ele>
        <time>2019-06-12T12:16:16Z</time>
      </trkpt>
      <trkpt lat="44.4174" lon="5.94518">
        <ele>667</ele>
        <time>2019-06-12T12:16:17Z</time>
      </trkpt>
      <trkpt lat="44.41742" lon="5.94516">
        <ele>667</ele>
        <time>2019-06-12T12:16:18Z</time>
      </trkpt>
      <trkpt lat="44.41745" lon="5.94515">
        <ele>667</ele>
        <time>2019-06-12T12:16:19Z</time>
      </trkpt>
      <trkpt lat="44.41747" lon="5.94514">
        <ele>667</ele>
        <time>2019-06-12T12:16:20Z</time>
      </trkpt>
      <trkpt lat="44.41749" lon="5.94513">
        <ele>668</ele>
        <time>2019-06-12T12:16:21Z</time>
      </trkpt>
      <trkpt lat="44.41751" lon="5.94513">
        <ele>668</ele>
        <time>2019-06-12T12:16:22Z</time>
      </trkpt>
      <trkpt lat="44.41753" lon="5.94513">
        <ele>668</ele>
        <time>2019-06-12T12:16:23Z</time>
      </trkpt>
      <trkpt lat="44.41756" lon="5.94513">
        <ele>669</ele>
        <time>2019-06-12T12:16:24Z</time>
      </trkpt>
      <trkpt lat="44.41758" lon="5.94512">
        <ele>669</ele>
        <time>2019-06-12T12:16:25Z</time>
      </trkpt>
      <trkpt lat="44.4176" lon="5.94512">
        <ele>669</ele>
        <time>2019-06-12T12:16:26Z</time>
      </trkpt>
      <trkpt lat="44.41762" lon="5.94511">
        <ele>670</ele>
        <time>2019-06-12T12:16:27Z</time>
      </trkpt>
      <trkpt lat="44.41764" lon="5.94511">
        <ele>670</ele>
        <time>2019-06-12T12:16:29Z</time>
      </trkpt>
      <trkpt lat="44.41766" lon="5.9451">
        <ele>671</ele>
        <time>2019-06-12T12:16:29Z</time>
      </trkpt>
      <trkpt lat="44.41768" lon="5.9451">
        <ele>671</ele>
        <time>2019-06-12T12:16:30Z</time>
      </trkpt>
      <trkpt lat="44.41771" lon="5.9451">
        <ele>671</ele>
        <time>2019-06-12T12:16:31Z</time>
      </trkpt>
      <trkpt lat="44.41773" lon="5.9451">
        <ele>671</ele>
        <time>2019-06-12T12:16:32Z</time>
      </trkpt>
      <trkpt lat="44.41775" lon="5.9451">
        <ele>672</ele>
        <time>2019-06-12T12:16:33Z</time>
      </trkpt>
      <trkpt lat="44.41777" lon="5.9451">
        <ele>672</ele>
        <time>2019-06-12T12:16:34Z</time>
      </trkpt>
      <trkpt lat="44.41779" lon="5.9451">
        <ele>672</ele>
        <time>2019-06-12T12:16:35Z</time>
      </trkpt>
      <trkpt lat="44.41782" lon="5.9451">
        <ele>672</ele>
        <time>2019-06-12T12:16:36Z</time>
      </trkpt>
      <trkpt lat="44.41784" lon="5.94509">
        <ele>673</ele>
        <time>2019-06-12T12:16:37Z</time>
      </trkpt>
      <trkpt lat="44.41786" lon="5.94509">
        <ele>673</ele>
        <time>2019-06-12T12:16:38Z</time>
      </trkpt>
      <trkpt lat="44.41788" lon="5.94509">
        <ele>673</ele>
        <time>2019-06-12T12:16:39Z</time>
      </trkpt>
      <trkpt lat="44.4179" lon="5.94509">
        <ele>673</ele>
        <time>2019-06-12T12:16:40Z</time>
      </trkpt>
      <trkpt lat="44.41793" lon="5.94509">
        <ele>673</ele>
        <time>2019-06-12T12:16:41Z</time>
      </trkpt>
      <trkpt lat="44.41795" lon="5.94509">
        <ele>673</ele>
        <time>2019-06-12T12:16:42Z</time>
      </trkpt>
      <trkpt lat="44.41798" lon="5.9451">
        <ele>673</ele>
        <time>2019-06-12T12:16:43Z</time>
      </trkpt>
      <trkpt lat="44.418" lon="5.9451">
        <ele>674</ele>
        <time>2019-06-12T12:16:44Z</time>
      </trkpt>
      <trkpt lat="44.41803" lon="5.9451">
        <ele>674</ele>
        <time>2019-06-12T12:16:45Z</time>
      </trkpt>
      <trkpt lat="44.41805" lon="5.9451">
        <ele>674</ele>
        <time>2019-06-12T12:16:46Z</time>
      </trkpt>
      <trkpt lat="44.41808" lon="5.9451">
        <ele>674</ele>
        <time>2019-06-12T12:16:47Z</time>
      </trkpt>
      <trkpt lat="44.4181" lon="5.9451">
        <ele>675</ele>
        <time>2019-06-12T12:16:48Z</time>
      </trkpt>
      <trkpt lat="44.41813" lon="5.9451">
        <ele>675</ele>
        <time>2019-06-12T12:16:49Z</time>
      </trkpt>
      <trkpt lat="44.41815" lon="5.9451">
        <ele>675</ele>
        <time>2019-06-12T12:16:50Z</time>
      </trkpt>
      <trkpt lat="44.41817" lon="5.9451">
        <ele>675</ele>
        <time>2019-06-12T12:16:51Z</time>
      </trkpt>
      <trkpt lat="44.41819" lon="5.9451">
        <ele>675</ele>
        <time>2019-06-12T12:16:52Z</time>
      </trkpt>
      <trkpt lat="44.41822" lon="5.94509">
        <ele>675</ele>
        <time>2019-06-12T12:16:53Z</time>
      </trkpt>
      <trkpt lat="44.41824" lon="5.94509">
        <ele>676</ele>
        <time>2019-06-12T12:16:54Z</time>
      </trkpt>
      <trkpt lat="44.41826" lon="5.94508">
        <ele>676</ele>
        <time>2019-06-12T12:16:55Z</time>
      </trkpt>
      <trkpt lat="44.41828" lon="5.94507">
        <ele>676</ele>
        <time>2019-06-12T12:16:56Z</time>
      </trkpt>
      <trkpt lat="44.4183" lon="5.94506">
        <ele>676</ele>
        <time>2019-06-12T12:16:57Z</time>
      </trkpt>
      <trkpt lat="44.41832" lon="5.94504">
        <ele>677</ele>
        <time>2019-06-12T12:16:58Z</time>
      </trkpt>
      <trkpt lat="44.41834" lon="5.94502">
        <ele>677</ele>
        <time>2019-06-12T12:16:59Z</time>
      </trkpt>
      <trkpt lat="44.41836" lon="5.94501">
        <ele>677</ele>
        <time>2019-06-12T12:17:00Z</time>
      </trkpt>
      <trkpt lat="44.41838" lon="5.94499">
        <ele>677</ele>
        <time>2019-06-12T12:17:01Z</time>
      </trkpt>
      <trkpt lat="44.4184" lon="5.94497">
        <ele>677</ele>
        <time>2019-06-12T12:17:02Z</time>
      </trkpt>
      <trkpt lat="44.41842" lon="5.94495">
        <ele>677</ele>
        <time>2019-06-12T12:17:03Z</time>
      </trkpt>
      <trkpt lat="44.41843" lon="5.94493">
        <ele>678</ele>
        <time>2019-06-12T12:17:04Z</time>
      </trkpt>
      <trkpt lat="44.41845" lon="5.94491">
        <ele>678</ele>
        <time>2019-06-12T12:17:05Z</time>
      </trkpt>
      <trkpt lat="44.41847" lon="5.94489">
        <ele>678</ele>
        <time>2019-06-12T12:17:06Z</time>
      </trkpt>
      <trkpt lat="44.41849" lon="5.94487">
        <ele>678</ele>
        <time>2019-06-12T12:17:07Z</time>
      </trkpt>
      <trkpt lat="44.41851" lon="5.94484">
        <ele>678</ele>
        <time>2019-06-12T12:17:08Z</time>
      </trkpt>
      <trkpt lat="44.41852" lon="5.94481">
        <ele>678</ele>
        <time>2019-06-12T12:17:09Z</time>
      </trkpt>
      <trkpt lat="44.41854" lon="5.94478">
        <ele>678</ele>
        <time>2019-06-12T12:17:10Z</time>
      </trkpt>
      <trkpt lat="44.41856" lon="5.94475">
        <ele>678</ele>
        <time>2019-06-12T12:17:11Z</time>
      </trkpt>
      <trkpt lat="44.41858" lon="5.94472">
        <ele>678</ele>
        <time>2019-06-12T12:17:12Z</time>
      </trkpt>
      <trkpt lat="44.4186" lon="5.94469">
        <ele>679</ele>
        <time>2019-06-12T12:17:13Z</time>
      </trkpt>
      <trkpt lat="44.41862" lon="5.94466">
        <ele>679</ele>
        <time>2019-06-12T12:17:14Z</time>
      </trkpt>
      <trkpt lat="44.41865" lon="5.94464">
        <ele>679</ele>
        <time>2019-06-12T12:17:15Z</time>
      </trkpt>
      <trkpt lat="44.41869" lon="5.94461">
        <ele>679</ele>
        <time>2019-06-12T12:17:16Z</time>
      </trkpt>
      <trkpt lat="44.41872" lon="5.9446">
        <ele>679</ele>
        <time>2019-06-12T12:17:17Z</time>
      </trkpt>
      <trkpt lat="44.41875" lon="5.94459">
        <ele>679</ele>
        <time>2019-06-12T12:17:18Z</time>
      </trkpt>
      <trkpt lat="44.41879" lon="5.9446">
        <ele>679</ele>
        <time>2019-06-12T12:17:19Z</time>
      </trkpt>
      <trkpt lat="44.41882" lon="5.94461">
        <ele>679</ele>
        <time>2019-06-12T12:17:20Z</time>
      </trkpt>
      <trkpt lat="44.41885" lon="5.94463">
        <ele>679</ele>
        <time>2019-06-12T12:17:21Z</time>
      </trkpt>
      <trkpt lat="44.41887" lon="5.94465">
        <ele>679</ele>
        <time>2019-06-12T12:17:22Z</time>
      </trkpt>
      <trkpt lat="44.4189" lon="5.94467">
        <ele>679</ele>
        <time>2019-06-12T12:17:23Z</time>
      </trkpt>
      <trkpt lat="44.41893" lon="5.94469">
        <ele>679</ele>
        <time>2019-06-12T12:17:24Z</time>
      </trkpt>
      <trkpt lat="44.41896" lon="5.9447">
        <ele>679</ele>
        <time>2019-06-12T12:17:25Z</time>
      </trkpt>
      <trkpt lat="44.41899" lon="5.94471">
        <ele>679</ele>
        <time>2019-06-12T12:17:26Z</time>
      </trkpt>
      <trkpt lat="44.41902" lon="5.94471">
        <ele>679</ele>
        <time>2019-06-12T12:17:27Z</time>
      </trkpt>
      <trkpt lat="44.41905" lon="5.9447">
        <ele>679</ele>
        <time>2019-06-12T12:17:29Z</time>
      </trkpt>
      <trkpt lat="44.41908" lon="5.94469">
        <ele>680</ele>
        <time>2019-06-12T12:17:29Z</time>
      </trkpt>
      <trkpt lat="44.41911" lon="5.94467">
        <ele>680</ele>
        <time>2019-06-12T12:17:30Z</time>
      </trkpt>
      <trkpt lat="44.41913" lon="5.94465">
        <ele>680</ele>
        <time>2019-06-12T12:17:31Z</time>
      </trkpt>
      <trkpt lat="44.41915" lon="5.94462">
        <ele>680</ele>
        <time>2019-06-12T12:17:32Z</time>
      </trkpt>
      <trkpt lat="44.41917" lon="5.94459">
        <ele>681</ele>
        <time>2019-06-12T12:17:33Z</time>
      </trkpt>
      <trkpt lat="44.41919" lon="5.94455">
        <ele>681</ele>
        <time>2019-06-12T12:17:34Z</time>
      </trkpt>
      <trkpt lat="44.41921" lon="5.94452">
        <ele>681</ele>
        <time>2019-06-12T12:17:35Z</time>
      </trkpt>
      <trkpt lat="44.41922" lon="5.94449">
        <ele>681</ele>
        <time>2019-06-12T12:17:36Z</time>
      </trkpt>
      <trkpt lat="44.41924" lon="5.94445">
        <ele>681</ele>
        <time>2019-06-12T12:17:37Z</time>
      </trkpt>
      <trkpt lat="44.41925" lon="5.94442">
        <ele>681</ele>
        <time>2019-06-12T12:17:38Z</time>
      </trkpt>
      <trkpt lat="44.41927" lon="5.94439">
        <ele>681</ele>
        <time>2019-06-12T12:17:39Z</time>
      </trkpt>
      <trkpt lat="44.41928" lon="5.94436">
        <ele>681</ele>
        <time>2019-06-12T12:17:40Z</time>
      </trkpt>
      <trkpt lat="44.4193" lon="5.94433">
        <ele>681</ele>
        <time>2019-06-12T12:17:41Z</time>
      </trkpt>
      <trkpt lat="44.41931" lon="5.9443">
        <ele>681</ele>
        <time>2019-06-12T12:17:42Z</time>
      </trkpt>
      <trkpt lat="44.41933" lon="5.94426">
        <ele>681</ele>
        <time>2019-06-12T12:17:43Z</time>
      </trkpt>
      <trkpt lat="44.41933" lon="5.94423">
        <ele>681</ele>
        <time>2019-06-12T12:17:44Z</time>
      </trkpt>
      <trkpt lat="44.41934" lon="5.94419">
        <ele>681</ele>
        <time>2019-06-12T12:17:45Z</time>
      </trkpt>
      <trkpt lat="44.41935" lon="5.94416">
        <ele>681</ele>
        <time>2019-06-12T12:17:46Z</time>
      </trkpt>
      <trkpt lat="44.41936" lon="5.94412">
        <ele>681</ele>
        <time>2019-06-12T12:17:47Z</time>
      </trkpt>
      <trkpt lat="44.41937" lon="5.94409">
        <ele>681</ele>
        <time>2019-06-12T12:17:48Z</time>
      </trkpt>
      <trkpt lat="44.41938" lon="5.94405">
        <ele>681</ele>
        <time>2019-06-12T12:17:49Z</time>
      </trkpt>
      <trkpt lat="44.41938" lon="5.94401">
        <ele>681</ele>
        <time>2019-06-12T12:17:50Z</time>
      </trkpt>
      <trkpt lat="44.41939" lon="5.94397">
        <ele>681</ele>
        <time>2019-06-12T12:17:51Z</time>
      </trkpt>
      <trkpt lat="44.4194" lon="5.94393">
        <ele>681</ele>
        <time>2019-06-12T12:17:52Z</time>
      </trkpt>
      <trkpt lat="44.41941" lon="5.94389">
        <ele>681</ele>
        <time>2019-06-12T12:17:53Z</time>
      </trkpt>
      <trkpt lat="44.41941" lon="5.94385">
        <ele>681</ele>
        <time>2019-06-12T12:17:54Z</time>
      </trkpt>
      <trkpt lat="44.41942" lon="5.94382">
        <ele>681</ele>
        <time>2019-06-12T12:17:55Z</time>
      </trkpt>
      <trkpt lat="44.41942" lon="5.94378">
        <ele>681</ele>
        <time>2019-06-12T12:17:56Z</time>
      </trkpt>
      <trkpt lat="44.41943" lon="5.94374">
        <ele>681</ele>
        <time>2019-06-12T12:17:57Z</time>
      </trkpt>
      <trkpt lat="44.41943" lon="5.94371">
        <ele>681</ele>
        <time>2019-06-12T12:17:58Z</time>
      </trkpt>
      <trkpt lat="44.41944" lon="5.94367">
        <ele>681</ele>
        <time>2019-06-12T12:17:59Z</time>
      </trkpt>
      <trkpt lat="44.41944" lon="5.94363">
        <ele>681</ele>
        <time>2019-06-12T12:18:00Z</time>
      </trkpt>
      <trkpt lat="44.41945" lon="5.9436">
        <ele>681</ele>
        <time>2019-06-12T12:18:01Z</time>
      </trkpt>
      <trkpt lat="44.41945" lon="5.94356">
        <ele>681</ele>
        <time>2019-06-12T12:18:02Z</time>
      </trkpt>
      <trkpt lat="44.41945" lon="5.94353">
        <ele>682</ele>
        <time>2019-06-12T12:18:03Z</time>
      </trkpt>
      <trkpt lat="44.41946" lon="5.94349">
        <ele>682</ele>
        <time>2019-06-12T12:18:04Z</time>
      </trkpt>
      <trkpt lat="44.41946" lon="5.94346">
        <ele>682</ele>
        <time>2019-06-12T12:18:05Z</time>
      </trkpt>
      <trkpt lat="44.41946" lon="5.94342">
        <ele>682</ele>
        <time>2019-06-12T12:18:06Z</time>
      </trkpt>
      <trkpt lat="44.41947" lon="5.94338">
        <ele>683</ele>
        <time>2019-06-12T12:18:07Z</time>
      </trkpt>
      <trkpt lat="44.41948" lon="5.94335">
        <ele>683</ele>
        <time>2019-06-12T12:18:08Z</time>
      </trkpt>
      <trkpt lat="44.41948" lon="5.94331">
        <ele>683</ele>
        <time>2019-06-12T12:18:09Z</time>
      </trkpt>
      <trkpt lat="44.41948" lon="5.94326">
        <ele>683</ele>
        <time>2019-06-12T12:18:10Z</time>
      </trkpt>
      <trkpt lat="44.41948" lon="5.94322">
        <ele>683</ele>
        <time>2019-06-12T12:18:11Z</time>
      </trkpt>
      <trkpt lat="44.41949" lon="5.94318">
        <ele>683</ele>
        <time>2019-06-12T12:18:12Z</time>
      </trkpt>
      <trkpt lat="44.4195" lon="5.94313">
        <ele>683</ele>
        <time>2019-06-12T12:18:13Z</time>
      </trkpt>
      <trkpt lat="44.41951" lon="5.94309">
        <ele>683</ele>
        <time>2019-06-12T12:18:14Z</time>
      </trkpt>
      <trkpt lat="44.41953" lon="5.94305">
        <ele>683</ele>
        <time>2019-06-12T12:18:15Z</time>
      </trkpt>
      <trkpt lat="44.41955" lon="5.94302">
        <ele>684</ele>
        <time>2019-06-12T12:18:16Z</time>
      </trkpt>
      <trkpt lat="44.41958" lon="5.943">
        <ele>684</ele>
        <time>2019-06-12T12:18:17Z</time>
      </trkpt>
      <trkpt lat="44.41962" lon="5.94298">
        <ele>684</ele>
        <time>2019-06-12T12:18:18Z</time>
      </trkpt>
      <trkpt lat="44.41965" lon="5.94298">
        <ele>684</ele>
        <time>2019-06-12T12:18:19Z</time>
      </trkpt>
      <trkpt lat="44.41969" lon="5.94298">
        <ele>684</ele>
        <time>2019-06-12T12:18:20Z</time>
      </trkpt>
      <trkpt lat="44.41972" lon="5.94299">
        <ele>684</ele>
        <time>2019-06-12T12:18:21Z</time>
      </trkpt>
      <trkpt lat="44.41975" lon="5.943">
        <ele>684</ele>
        <time>2019-06-12T12:18:22Z</time>
      </trkpt>
      <trkpt lat="44.41978" lon="5.94301">
        <ele>684</ele>
        <time>2019-06-12T12:18:23Z</time>
      </trkpt>
      <trkpt lat="44.41982" lon="5.94302">
        <ele>684</ele>
        <time>2019-06-12T12:18:24Z</time>
      </trkpt>
      <trkpt lat="44.41985" lon="5.94302">
        <ele>684</ele>
        <time>2019-06-12T12:18:25Z</time>
      </trkpt>
      <trkpt lat="44.41988" lon="5.94302">
        <ele>685</ele>
        <time>2019-06-12T12:18:26Z</time>
      </trkpt>
      <trkpt lat="44.41991" lon="5.94302">
        <ele>685</ele>
        <time>2019-06-12T12:18:27Z</time>
      </trkpt>
      <trkpt lat="44.41994" lon="5.94301">
        <ele>685</ele>
        <time>2019-06-12T12:18:28Z</time>
      </trkpt>
      <trkpt lat="44.41997" lon="5.94299">
        <ele>686</ele>
        <time>2019-06-12T12:18:29Z</time>
      </trkpt>
      <trkpt lat="44.41999" lon="5.94297">
        <ele>686</ele>
        <time>2019-06-12T12:18:30Z</time>
      </trkpt>
      <trkpt lat="44.42001" lon="5.94295">
        <ele>686</ele>
        <time>2019-06-12T12:18:31Z</time>
      </trkpt>
      <trkpt lat="44.42002" lon="5.94293">
        <ele>687</ele>
        <time>2019-06-12T12:18:32Z</time>
      </trkpt>
      <trkpt lat="44.42004" lon="5.9429">
        <ele>687</ele>
        <time>2019-06-12T12:18:33Z</time>
      </trkpt>
      <trkpt lat="44.42006" lon="5.94287">
        <ele>688</ele>
        <time>2019-06-12T12:18:34Z</time>
      </trkpt>
      <trkpt lat="44.42007" lon="5.94284">
        <ele>688</ele>
        <time>2019-06-12T12:18:35Z</time>
      </trkpt>
      <trkpt lat="44.42008" lon="5.9428">
        <ele>688</ele>
        <time>2019-06-12T12:18:36Z</time>
      </trkpt>
      <trkpt lat="44.42009" lon="5.94277">
        <ele>689</ele>
        <time>2019-06-12T12:18:37Z</time>
      </trkpt>
      <trkpt lat="44.4201" lon="5.94273">
        <ele>689</ele>
        <time>2019-06-12T12:18:38Z</time>
      </trkpt>
      <trkpt lat="44.4201" lon="5.94269">
        <ele>689</ele>
        <time>2019-06-12T12:18:39Z</time>
      </trkpt>
      <trkpt lat="44.42011" lon="5.94266">
        <ele>689</ele>
        <time>2019-06-12T12:18:40Z</time>
      </trkpt>
      <trkpt lat="44.42013" lon="5.94263">
        <ele>690</ele>
        <time>2019-06-12T12:18:41Z</time>
      </trkpt>
      <trkpt lat="44.42014" lon="5.9426">
        <ele>690</ele>
        <time>2019-06-12T12:18:42Z</time>
      </trkpt>
      <trkpt lat="44.42015" lon="5.94257">
        <ele>690</ele>
        <time>2019-06-12T12:18:43Z</time>
      </trkpt>
      <trkpt lat="44.42017" lon="5.94255">
        <ele>691</ele>
        <time>2019-06-12T12:18:44Z</time>
      </trkpt>
      <trkpt lat="44.42019" lon="5.94253">
        <ele>691</ele>
        <time>2019-06-12T12:18:45Z</time>
      </trkpt>
      <trkpt lat="44.42021" lon="5.94251">
        <ele>691</ele>
        <time>2019-06-12T12:18:46Z</time>
      </trkpt>
      <trkpt lat="44.42023" lon="5.94249">
        <ele>691</ele>
        <time>2019-06-12T12:18:47Z</time>
      </trkpt>
      <trkpt lat="44.42025" lon="5.94248">
        <ele>692</ele>
        <time>2019-06-12T12:18:48Z</time>
      </trkpt>
      <trkpt lat="44.42027" lon="5.94246">
        <ele>692</ele>
        <time>2019-06-12T12:18:49Z</time>
      </trkpt>
      <trkpt lat="44.42029" lon="5.94245">
        <ele>692</ele>
        <time>2019-06-12T12:18:50Z</time>
      </trkpt>
      <trkpt lat="44.42032" lon="5.94243">
        <ele>692</ele>
        <time>2019-06-12T12:18:51Z</time>
      </trkpt>
      <trkpt lat="44.42034" lon="5.94242">
        <ele>693</ele>
        <time>2019-06-12T12:18:52Z</time>
      </trkpt>
      <trkpt lat="44.42036" lon="5.9424">
        <ele>693</ele>
        <time>2019-06-12T12:18:53Z</time>
      </trkpt>
      <trkpt lat="44.42039" lon="5.94239">
        <ele>693</ele>
        <time>2019-06-12T12:18:54Z</time>
      </trkpt>
      <trkpt lat="44.42041" lon="5.94238">
        <ele>694</ele>
        <time>2019-06-12T12:18:55Z</time>
      </trkpt>
      <trkpt lat="44.42044" lon="5.94237">
        <ele>694</ele>
        <time>2019-06-12T12:18:56Z</time>
      </trkpt>
      <trkpt lat="44.42047" lon="5.94235">
        <ele>694</ele>
        <time>2019-06-12T12:18:57Z</time>
      </trkpt>
      <trkpt lat="44.4205" lon="5.94234">
        <ele>694</ele>
        <time>2019-06-12T12:18:58Z</time>
      </trkpt>
      <trkpt lat="44.42053" lon="5.94233">
        <ele>695</ele>
        <time>2019-06-12T12:18:59Z</time>
      </trkpt>
      <trkpt lat="44.42056" lon="5.94231">
        <ele>695</ele>
        <time>2019-06-12T12:19:00Z</time>
      </trkpt>
      <trkpt lat="44.42059" lon="5.94229">
        <ele>695</ele>
        <time>2019-06-12T12:19:01Z</time>
      </trkpt>
      <trkpt lat="44.42062" lon="5.94227">
        <ele>695</ele>
        <time>2019-06-12T12:19:02Z</time>
      </trkpt>
      <trkpt lat="44.42064" lon="5.94224">
        <ele>695</ele>
        <time>2019-06-12T12:19:03Z</time>
      </trkpt>
      <trkpt lat="44.42067" lon="5.94221">
        <ele>695</ele>
        <time>2019-06-12T12:19:04Z</time>
      </trkpt>
      <trkpt lat="44.42069" lon="5.94218">
        <ele>695</ele>
        <time>2019-06-12T12:19:05Z</time>
      </trkpt>
      <trkpt lat="44.42071" lon="5.94215">
        <ele>696</ele>
        <time>2019-06-12T12:19:06Z</time>
      </trkpt>
      <trkpt lat="44.42073" lon="5.94212">
        <ele>696</ele>
        <time>2019-06-12T12:19:07Z</time>
      </trkpt>
      <trkpt lat="44.42075" lon="5.94209">
        <ele>696</ele>
        <time>2019-06-12T12:19:08Z</time>
      </trkpt>
      <trkpt lat="44.42076" lon="5.94206">
        <ele>696</ele>
        <time>2019-06-12T12:19:09Z</time>
      </trkpt>
      <trkpt lat="44.42078" lon="5.94202">
        <ele>696</ele>
        <time>2019-06-12T12:19:10Z</time>
      </trkpt>
      <trkpt lat="44.42079" lon="5.94198">
        <ele>696</ele>
        <time>2019-06-12T12:19:11Z</time>
      </trkpt>
      <trkpt lat="44.42081" lon="5.94194">
        <ele>697</ele>
        <time>2019-06-12T12:19:12Z</time>
      </trkpt>
      <trkpt lat="44.42083" lon="5.94191">
        <ele>697</ele>
        <time>2019-06-12T12:19:13Z</time>
      </trkpt>
      <trkpt lat="44.42084" lon="5.94186">
        <ele>697</ele>
        <time>2019-06-12T12:19:14Z</time>
      </trkpt>
      <trkpt lat="44.42085" lon="5.94182">
        <ele>697</ele>
        <time>2019-06-12T12:19:15Z</time>
      </trkpt>
      <trkpt lat="44.42086" lon="5.94178">
        <ele>697</ele>
        <time>2019-06-12T12:19:16Z</time>
      </trkpt>
      <trkpt lat="44.42087" lon="5.94174">
        <ele>697</ele>
        <time>2019-06-12T12:19:17Z</time>
      </trkpt>
      <trkpt lat="44.42089" lon="5.94171">
        <ele>697</ele>
        <time>2019-06-12T12:19:18Z</time>
      </trkpt>
      <trkpt lat="44.4209" lon="5.94168">
        <ele>697</ele>
        <time>2019-06-12T12:19:19Z</time>
      </trkpt>
      <trkpt lat="44.42091" lon="5.94164">
        <ele>698</ele>
        <time>2019-06-12T12:19:20Z</time>
      </trkpt>
      <trkpt lat="44.42093" lon="5.9416">
        <ele>698</ele>
        <time>2019-06-12T12:19:21Z</time>
      </trkpt>
      <trkpt lat="44.42094" lon="5.94156">
        <ele>698</ele>
        <time>2019-06-12T12:19:22Z</time>
      </trkpt>
      <trkpt lat="44.42095" lon="5.94152">
        <ele>698</ele>
        <time>2019-06-12T12:19:23Z</time>
      </trkpt>
      <trkpt lat="44.42096" lon="5.94148">
        <ele>698</ele>
        <time>2019-06-12T12:19:24Z</time>
      </trkpt>
      <trkpt lat="44.42097" lon="5.94144">
        <ele>698</ele>
        <time>2019-06-12T12:19:25Z</time>
      </trkpt>
      <trkpt lat="44.42097" lon="5.9414">
        <ele>699</ele>
        <time>2019-06-12T12:19:26Z</time>
      </trkpt>
      <trkpt lat="44.42098" lon="5.94135">
        <ele>699</ele>
        <time>2019-06-12T12:19:27Z</time>
      </trkpt>
      <trkpt lat="44.42099" lon="5.94131">
        <ele>699</ele>
        <time>2019-06-12T12:19:29Z</time>
      </trkpt>
      <trkpt lat="44.421" lon="5.94127">
        <ele>699</ele>
        <time>2019-06-12T12:19:29Z</time>
      </trkpt>
      <trkpt lat="44.42101" lon="5.94122">
        <ele>699</ele>
        <time>2019-06-12T12:19:30Z</time>
      </trkpt>
      <trkpt lat="44.42102" lon="5.94118">
        <ele>699</ele>
        <time>2019-06-12T12:19:31Z</time>
      </trkpt>
      <trkpt lat="44.42102" lon="5.94113">
        <ele>699</ele>
        <time>2019-06-12T12:19:32Z</time>
      </trkpt>
      <trkpt lat="44.42102" lon="5.94108">
        <ele>699</ele>
        <time>2019-06-12T12:19:33Z</time>
      </trkpt>
      <trkpt lat="44.42103" lon="5.94103">
        <ele>699</ele>
        <time>2019-06-12T12:19:34Z</time>
      </trkpt>
      <trkpt lat="44.42103" lon="5.94098">
        <ele>700</ele>
        <time>2019-06-12T12:19:35Z</time>
      </trkpt>
      <trkpt lat="44.42103" lon="5.94093">
        <ele>700</ele>
        <time>2019-06-12T12:19:36Z</time>
      </trkpt>
      <trkpt lat="44.42103" lon="5.94089">
        <ele>700</ele>
        <time>2019-06-12T12:19:37Z</time>
      </trkpt>
      <trkpt lat="44.42104" lon="5.94084">
        <ele>700</ele>
        <time>2019-06-12T12:19:38Z</time>
      </trkpt>
      <trkpt lat="44.42104" lon="5.94079">
        <ele>700</ele>
        <time>2019-06-12T12:19:39Z</time>
      </trkpt>
      <trkpt lat="44.42105" lon="5.94074">
        <ele>700</ele>
        <time>2019-06-12T12:19:40Z</time>
      </trkpt>
      <trkpt lat="44.42105" lon="5.94069">
        <ele>700</ele>
        <time>2019-06-12T12:19:41Z</time>
      </trkpt>
      <trkpt lat="44.42106" lon="5.94064">
        <ele>700</ele>
        <time>2019-06-12T12:19:42Z</time>
      </trkpt>
      <trkpt lat="44.42107" lon="5.94059">
        <ele>700</ele>
        <time>2019-06-12T12:19:43Z</time>
      </trkpt>
      <trkpt lat="44.42108" lon="5.94054">
        <ele>700</ele>
        <time>2019-06-12T12:19:44Z</time>
      </trkpt>
      <trkpt lat="44.42109" lon="5.94049">
        <ele>700</ele>
        <time>2019-06-12T12:19:45Z</time>
      </trkpt>
      <trkpt lat="44.42109" lon="5.94044">
        <ele>700</ele>
        <time>2019-06-12T12:19:46Z</time>
      </trkpt>
      <trkpt lat="44.4211" lon="5.9404">
        <ele>700</ele>
        <time>2019-06-12T12:19:47Z</time>
      </trkpt>
      <trkpt lat="44.42111" lon="5.94036">
        <ele>700</ele>
        <time>2019-06-12T12:19:48Z</time>
      </trkpt>
      <trkpt lat="44.42112" lon="5.94031">
        <ele>700</ele>
        <time>2019-06-12T12:19:49Z</time>
      </trkpt>
      <trkpt lat="44.42112" lon="5.94027">
        <ele>700</ele>
        <time>2019-06-12T12:19:50Z</time>
      </trkpt>
      <trkpt lat="44.42113" lon="5.94023">
        <ele>700</ele>
        <time>2019-06-12T12:19:51Z</time>
      </trkpt>
      <trkpt lat="44.42114" lon="5.94018">
        <ele>700</ele>
        <time>2019-06-12T12:19:52Z</time>
      </trkpt>
      <trkpt lat="44.42115" lon="5.94013">
        <ele>700</ele>
        <time>2019-06-12T12:19:53Z</time>
      </trkpt>
      <trkpt lat="44.42115" lon="5.94007">
        <ele>700</ele>
        <time>2019-06-12T12:19:54Z</time>
      </trkpt>
      <trkpt lat="44.42116" lon="5.94002">
        <ele>700</ele>
        <time>2019-06-12T12:19:55Z</time>
      </trkpt>
      <trkpt lat="44.42117" lon="5.93997">
        <ele>700</ele>
        <time>2019-06-12T12:19:56Z</time>
      </trkpt>
      <trkpt lat="44.42117" lon="5.93992">
        <ele>700</ele>
        <time>2019-06-12T12:19:57Z</time>
      </trkpt>
      <trkpt lat="44.42118" lon="5.93987">
        <ele>700</ele>
        <time>2019-06-12T12:19:58Z</time>
      </trkpt>
      <trkpt lat="44.4212" lon="5.93982">
        <ele>700</ele>
        <time>2019-06-12T12:19:59Z</time>
      </trkpt>
      <trkpt lat="44.42121" lon="5.93976">
        <ele>700</ele>
        <time>2019-06-12T12:20:00Z</time>
      </trkpt>
      <trkpt lat="44.42122" lon="5.93971">
        <ele>700</ele>
        <time>2019-06-12T12:20:01Z</time>
      </trkpt>
      <trkpt lat="44.42123" lon="5.93965">
        <ele>700</ele>
        <time>2019-06-12T12:20:02Z</time>
      </trkpt>
      <trkpt lat="44.42124" lon="5.9396">
        <ele>700</ele>
        <time>2019-06-12T12:20:03Z</time>
      </trkpt>
      <trkpt lat="44.42125" lon="5.93955">
        <ele>700</ele>
        <time>2019-06-12T12:20:04Z</time>
      </trkpt>
      <trkpt lat="44.42126" lon="5.93949">
        <ele>700</ele>
        <time>2019-06-12T12:20:05Z</time>
      </trkpt>
      <trkpt lat="44.42127" lon="5.93944">
        <ele>700</ele>
        <time>2019-06-12T12:20:06Z</time>
      </trkpt>
      <trkpt lat="44.42128" lon="5.93939">
        <ele>700</ele>
        <time>2019-06-12T12:20:07Z</time>
      </trkpt>
      <trkpt lat="44.42129" lon="5.93934">
        <ele>700</ele>
        <time>2019-06-12T12:20:08Z</time>
      </trkpt>
      <trkpt lat="44.4213" lon="5.93929">
        <ele>700</ele>
        <time>2019-06-12T12:20:09Z</time>
      </trkpt>
      <trkpt lat="44.42131" lon="5.93925">
        <ele>700</ele>
        <time>2019-06-12T12:20:10Z</time>
      </trkpt>
      <trkpt lat="44.42131" lon="5.9392">
        <ele>700</ele>
        <time>2019-06-12T12:20:11Z</time>
      </trkpt>
      <trkpt lat="44.42133" lon="5.93915">
        <ele>701</ele>
        <time>2019-06-12T12:20:12Z</time>
      </trkpt>
      <trkpt lat="44.42134" lon="5.9391">
        <ele>702</ele>
        <time>2019-06-12T12:20:13Z</time>
      </trkpt>
      <trkpt lat="44.42136" lon="5.93905">
        <ele>702</ele>
        <time>2019-06-12T12:20:14Z</time>
      </trkpt>
      <trkpt lat="44.42137" lon="5.939">
        <ele>703</ele>
        <time>2019-06-12T12:20:15Z</time>
      </trkpt>
      <trkpt lat="44.42139" lon="5.93895">
        <ele>703</ele>
        <time>2019-06-12T12:20:16Z</time>
      </trkpt>
      <trkpt lat="44.4214" lon="5.9389">
        <ele>704</ele>
        <time>2019-06-12T12:20:17Z</time>
      </trkpt>
      <trkpt lat="44.42142" lon="5.93885">
        <ele>704</ele>
        <time>2019-06-12T12:20:18Z</time>
      </trkpt>
      <trkpt lat="44.42143" lon="5.93881">
        <ele>704</ele>
        <time>2019-06-12T12:20:19Z</time>
      </trkpt>
      <trkpt lat="44.42145" lon="5.93876">
        <ele>705</ele>
        <time>2019-06-12T12:20:20Z</time>
      </trkpt>
      <trkpt lat="44.42146" lon="5.93871">
        <ele>705</ele>
        <time>2019-06-12T12:20:21Z</time>
      </trkpt>
      <trkpt lat="44.42147" lon="5.93867">
        <ele>705</ele>
        <time>2019-06-12T12:20:22Z</time>
      </trkpt>
      <trkpt lat="44.42149" lon="5.93863">
        <ele>705</ele>
        <time>2019-06-12T12:20:23Z</time>
      </trkpt>
      <trkpt lat="44.4215" lon="5.93859">
        <ele>705</ele>
        <time>2019-06-12T12:20:24Z</time>
      </trkpt>
      <trkpt lat="44.42152" lon="5.93854">
        <ele>705</ele>
        <time>2019-06-12T12:20:25Z</time>
      </trkpt>
      <trkpt lat="44.42153" lon="5.93849">
        <ele>705</ele>
        <time>2019-06-12T12:20:26Z</time>
      </trkpt>
      <trkpt lat="44.42154" lon="5.93844">
        <ele>705</ele>
        <time>2019-06-12T12:20:27Z</time>
      </trkpt>
      <trkpt lat="44.42156" lon="5.93838">
        <ele>705</ele>
        <time>2019-06-12T12:20:29Z</time>
      </trkpt>
      <trkpt lat="44.42157" lon="5.93833">
        <ele>706</ele>
        <time>2019-06-12T12:20:29Z</time>
      </trkpt>
      <trkpt lat="44.42158" lon="5.93828">
        <ele>706</ele>
        <time>2019-06-12T12:20:30Z</time>
      </trkpt>
      <trkpt lat="44.42159" lon="5.93823">
        <ele>706</ele>
        <time>2019-06-12T12:20:31Z</time>
      </trkpt>
      <trkpt lat="44.42161" lon="5.93818">
        <ele>707</ele>
        <time>2019-06-12T12:20:32Z</time>
      </trkpt>
      <trkpt lat="44.42162" lon="5.93813">
        <ele>707</ele>
        <time>2019-06-12T12:20:33Z</time>
      </trkpt>
      <trkpt lat="44.42164" lon="5.93808">
        <ele>707</ele>
        <time>2019-06-12T12:20:34Z</time>
      </trkpt>
      <trkpt lat="44.42165" lon="5.93802">
        <ele>707</ele>
        <time>2019-06-12T12:20:35Z</time>
      </trkpt>
      <trkpt lat="44.42166" lon="5.93797">
        <ele>707</ele>
        <time>2019-06-12T12:20:36Z</time>
      </trkpt>
      <trkpt lat="44.42168" lon="5.93792">
        <ele>707</ele>
        <time>2019-06-12T12:20:37Z</time>
      </trkpt>
      <trkpt lat="44.42169" lon="5.93787">
        <ele>708</ele>
        <time>2019-06-12T12:20:38Z</time>
      </trkpt>
      <trkpt lat="44.42171" lon="5.93782">
        <ele>708</ele>
        <time>2019-06-12T12:20:39Z</time>
      </trkpt>
      <trkpt lat="44.42172" lon="5.93778">
        <ele>708</ele>
        <time>2019-06-12T12:20:40Z</time>
      </trkpt>
      <trkpt lat="44.42174" lon="5.93774">
        <ele>708</ele>
        <time>2019-06-12T12:20:41Z</time>
      </trkpt>
      <trkpt lat="44.42175" lon="5.93769">
        <ele>708</ele>
        <time>2019-06-12T12:20:42Z</time>
      </trkpt>
      <trkpt lat="44.42177" lon="5.93765">
        <ele>708</ele>
        <time>2019-06-12T12:20:43Z</time>
      </trkpt>
      <trkpt lat="44.42178" lon="5.93761">
        <ele>708</ele>
        <time>2019-06-12T12:20:44Z</time>
      </trkpt>
      <trkpt lat="44.4218" lon="5.93757">
        <ele>708</ele>
        <time>2019-06-12T12:20:45Z</time>
      </trkpt>
      <trkpt lat="44.42181" lon="5.93752">
        <ele>708</ele>
        <time>2019-06-12T12:20:46Z</time>
      </trkpt>
      <trkpt lat="44.42183" lon="5.93748">
        <ele>708</ele>
        <time>2019-06-12T12:20:47Z</time>
      </trkpt>
      <trkpt lat="44.42184" lon="5.93743">
        <ele>708</ele>
        <time>2019-06-12T12:20:48Z</time>
      </trkpt>
      <trkpt lat="44.42185" lon="5.93739">
        <ele>708</ele>
        <time>2019-06-12T12:20:49Z</time>
      </trkpt>
      <trkpt lat="44.42186" lon="5.93733">
        <ele>708</ele>
        <time>2019-06-12T12:20:50Z</time>
      </trkpt>
      <trkpt lat="44.42188" lon="5.93728">
        <ele>708</ele>
        <time>2019-06-12T12:20:51Z</time>
      </trkpt>
      <trkpt lat="44.42189" lon="5.93723">
        <ele>708</ele>
        <time>2019-06-12T12:20:52Z</time>
      </trkpt>
      <trkpt lat="44.4219" lon="5.93718">
        <ele>708</ele>
        <time>2019-06-12T12:20:53Z</time>
      </trkpt>
      <trkpt lat="44.42192" lon="5.93713">
        <ele>708</ele>
        <time>2019-06-12T12:20:54Z</time>
      </trkpt>
      <trkpt lat="44.42193" lon="5.93708">
        <ele>708</ele>
        <time>2019-06-12T12:20:55Z</time>
      </trkpt>
      <trkpt lat="44.42194" lon="5.93703">
        <ele>708</ele>
        <time>2019-06-12T12:20:56Z</time>
      </trkpt>
      <trkpt lat="44.42196" lon="5.93699">
        <ele>709</ele>
        <time>2019-06-12T12:20:57Z</time>
      </trkpt>
      <trkpt lat="44.42197" lon="5.93694">
        <ele>709</ele>
        <time>2019-06-12T12:20:58Z</time>
      </trkpt>
      <trkpt lat="44.42199" lon="5.93689">
        <ele>709</ele>
        <time>2019-06-12T12:20:59Z</time>
      </trkpt>
      <trkpt lat="44.422" lon="5.93684">
        <ele>709</ele>
        <time>2019-06-12T12:21:00Z</time>
      </trkpt>
      <trkpt lat="44.42201" lon="5.93679">
        <ele>709</ele>
        <time>2019-06-12T12:21:01Z</time>
      </trkpt>
      <trkpt lat="44.42202" lon="5.93674">
        <ele>709</ele>
        <time>2019-06-12T12:21:02Z</time>
      </trkpt>
      <trkpt lat="44.42204" lon="5.93669">
        <ele>710</ele>
        <time>2019-06-12T12:21:03Z</time>
      </trkpt>
      <trkpt lat="44.42205" lon="5.93664">
        <ele>710</ele>
        <time>2019-06-12T12:21:04Z</time>
      </trkpt>
      <trkpt lat="44.42206" lon="5.93658">
        <ele>710</ele>
        <time>2019-06-12T12:21:05Z</time>
      </trkpt>
      <trkpt lat="44.42208" lon="5.93653">
        <ele>710</ele>
        <time>2019-06-12T12:21:06Z</time>
      </trkpt>
      <trkpt lat="44.4221" lon="5.93647">
        <ele>710</ele>
        <time>2019-06-12T12:21:07Z</time>
      </trkpt>
      <trkpt lat="44.42211" lon="5.93642">
        <ele>710</ele>
        <time>2019-06-12T12:21:08Z</time>
      </trkpt>
      <trkpt lat="44.42213" lon="5.93637">
        <ele>711</ele>
        <time>2019-06-12T12:21:09Z</time>
      </trkpt>
      <trkpt lat="44.42215" lon="5.93631">
        <ele>711</ele>
        <time>2019-06-12T12:21:10Z</time>
      </trkpt>
      <trkpt lat="44.42216" lon="5.93625">
        <ele>711</ele>
        <time>2019-06-12T12:21:11Z</time>
      </trkpt>
      <trkpt lat="44.42218" lon="5.9362">
        <ele>711</ele>
        <time>2019-06-12T12:21:12Z</time>
      </trkpt>
      <trkpt lat="44.42219" lon="5.93614">
        <ele>711</ele>
        <time>2019-06-12T12:21:13Z</time>
      </trkpt>
      <trkpt lat="44.4222" lon="5.93608">
        <ele>711</ele>
        <time>2019-06-12T12:21:14Z</time>
      </trkpt>
      <trkpt lat="44.4222" lon="5.93602">
        <ele>711</ele>
        <time>2019-06-12T12:21:15Z</time>
      </trkpt>
      <trkpt lat="44.42221" lon="5.93596">
        <ele>711</ele>
        <time>2019-06-12T12:21:16Z</time>
      </trkpt>
      <trkpt lat="44.42221" lon="5.93589">
        <ele>711</ele>
        <time>2019-06-12T12:21:17Z</time>
      </trkpt>
      <trkpt lat="44.42221" lon="5.93583">
        <ele>711</ele>
        <time>2019-06-12T12:21:18Z</time>
      </trkpt>
      <trkpt lat="44.42221" lon="5.93577">
        <ele>711</ele>
        <time>2019-06-12T12:21:19Z</time>
      </trkpt>
      <trkpt lat="44.4222" lon="5.9357">
        <ele>711</ele>
        <time>2019-06-12T12:21:20Z</time>
      </trkpt>
      <trkpt lat="44.4222" lon="5.93564">
        <ele>711</ele>
        <time>2019-06-12T12:21:21Z</time>
      </trkpt>
      <trkpt lat="44.42219" lon="5.93557">
        <ele>712</ele>
        <time>2019-06-12T12:21:22Z</time>
      </trkpt>
      <trkpt lat="44.42218" lon="5.9355">
        <ele>712</ele>
        <time>2019-06-12T12:21:23Z</time>
      </trkpt>
      <trkpt lat="44.42217" lon="5.93544">
        <ele>712</ele>
        <time>2019-06-12T12:21:24Z</time>
      </trkpt>
      <trkpt lat="44.42216" lon="5.93537">
        <ele>712</ele>
        <time>2019-06-12T12:21:25Z</time>
      </trkpt>
      <trkpt lat="44.42216" lon="5.9353">
        <ele>712</ele>
        <time>2019-06-12T12:21:26Z</time>
      </trkpt>
      <trkpt lat="44.42216" lon="5.93523">
        <ele>712</ele>
        <time>2019-06-12T12:21:27Z</time>
      </trkpt>
      <trkpt lat="44.42216" lon="5.93516">
        <ele>712</ele>
        <time>2019-06-12T12:21:28Z</time>
      </trkpt>
      <trkpt lat="44.42216" lon="5.9351">
        <ele>713</ele>
        <time>2019-06-12T12:21:29Z</time>
      </trkpt>
      <trkpt lat="44.42216" lon="5.93503">
        <ele>713</ele>
        <time>2019-06-12T12:21:30Z</time>
      </trkpt>
      <trkpt lat="44.42217" lon="5.93496">
        <ele>713</ele>
        <time>2019-06-12T12:21:31Z</time>
      </trkpt>
      <trkpt lat="44.42219" lon="5.93489">
        <ele>713</ele>
        <time>2019-06-12T12:21:32Z</time>
      </trkpt>
      <trkpt lat="44.42222" lon="5.93484">
        <ele>713</ele>
        <time>2019-06-12T12:21:33Z</time>
      </trkpt>
      <trkpt lat="44.42227" lon="5.93481">
        <ele>713</ele>
        <time>2019-06-12T12:21:34Z</time>
      </trkpt>
      <trkpt lat="44.42232" lon="5.93482">
        <ele>713</ele>
        <time>2019-06-12T12:21:35Z</time>
      </trkpt>
      <trkpt lat="44.42238" lon="5.93485">
        <ele>713</ele>
        <time>2019-06-12T12:21:36Z</time>
      </trkpt>
      <trkpt lat="44.42243" lon="5.93487">
        <ele>713</ele>
        <time>2019-06-12T12:21:37Z</time>
      </trkpt>
      <trkpt lat="44.42248" lon="5.93489">
        <ele>713</ele>
        <time>2019-06-12T12:21:38Z</time>
      </trkpt>
      <trkpt lat="44.42253" lon="5.9349">
        <ele>713</ele>
        <time>2019-06-12T12:21:39Z</time>
      </trkpt>
      <trkpt lat="44.42257" lon="5.93491">
        <ele>714</ele>
        <time>2019-06-12T12:21:40Z</time>
      </trkpt>
      <trkpt lat="44.42262" lon="5.93492">
        <ele>714</ele>
        <time>2019-06-12T12:21:41Z</time>
      </trkpt>
      <trkpt lat="44.42266" lon="5.93491">
        <ele>714</ele>
        <time>2019-06-12T12:21:42Z</time>
      </trkpt>
      <trkpt lat="44.4227" lon="5.93491">
        <ele>715</ele>
        <time>2019-06-12T12:21:43Z</time>
      </trkpt>
      <trkpt lat="44.42274" lon="5.93489">
        <ele>715</ele>
        <time>2019-06-12T12:21:44Z</time>
      </trkpt>
      <trkpt lat="44.42278" lon="5.93486">
        <ele>715</ele>
        <time>2019-06-12T12:21:45Z</time>
      </trkpt>
      <trkpt lat="44.42281" lon="5.93483">
        <ele>716</ele>
        <time>2019-06-12T12:21:46Z</time>
      </trkpt>
      <trkpt lat="44.42284" lon="5.93478">
        <ele>716</ele>
        <time>2019-06-12T12:21:47Z</time>
      </trkpt>
      <trkpt lat="44.42287" lon="5.93474">
        <ele>716</ele>
        <time>2019-06-12T12:21:48Z</time>
      </trkpt>
      <trkpt lat="44.42289" lon="5.93468">
        <ele>716</ele>
        <time>2019-06-12T12:21:49Z</time>
      </trkpt>
      <trkpt lat="44.42291" lon="5.93462">
        <ele>717</ele>
        <time>2019-06-12T12:21:50Z</time>
      </trkpt>
      <trkpt lat="44.42292" lon="5.93456">
        <ele>717</ele>
        <time>2019-06-12T12:21:51Z</time>
      </trkpt>
      <trkpt lat="44.42293" lon="5.93449">
        <ele>717</ele>
        <time>2019-06-12T12:21:52Z</time>
      </trkpt>
      <trkpt lat="44.42294" lon="5.93443">
        <ele>717</ele>
        <time>2019-06-12T12:21:53Z</time>
      </trkpt>
      <trkpt lat="44.42297" lon="5.93437">
        <ele>717</ele>
        <time>2019-06-12T12:21:54Z</time>
      </trkpt>
      <trkpt lat="44.423" lon="5.93432">
        <ele>717</ele>
        <time>2019-06-12T12:21:55Z</time>
      </trkpt>
      <trkpt lat="44.42304" lon="5.93428">
        <ele>718</ele>
        <time>2019-06-12T12:21:56Z</time>
      </trkpt>
      <trkpt lat="44.42309" lon="5.93426">
        <ele>718</ele>
        <time>2019-06-12T12:21:57Z</time>
      </trkpt>
      <trkpt lat="44.42314" lon="5.93424">
        <ele>718</ele>
        <time>2019-06-12T12:21:58Z</time>
      </trkpt>
      <trkpt lat="44.42319" lon="5.93422">
        <ele>718</ele>
        <time>2019-06-12T12:21:59Z</time>
      </trkpt>
      <trkpt lat="44.42324" lon="5.93421">
        <ele>718</ele>
        <time>2019-06-12T12:22:00Z</time>
      </trkpt>
      <trkpt lat="44.42329" lon="5.93423">
        <ele>718</ele>
        <time>2019-06-12T12:22:01Z</time>
      </trkpt>
      <trkpt lat="44.42334" lon="5.93426">
        <ele>718</ele>
        <time>2019-06-12T12:22:02Z</time>
      </trkpt>
      <trkpt lat="44.42339" lon="5.9343">
        <ele>718</ele>
        <time>2019-06-12T12:22:03Z</time>
      </trkpt>
      <trkpt lat="44.42344" lon="5.93435">
        <ele>719</ele>
        <time>2019-06-12T12:22:04Z</time>
      </trkpt>
      <trkpt lat="44.42347" lon="5.9344">
        <ele>719</ele>
        <time>2019-06-12T12:22:05Z</time>
      </trkpt>
      <trkpt lat="44.42351" lon="5.93445">
        <ele>719</ele>
        <time>2019-06-12T12:22:06Z</time>
      </trkpt>
      <trkpt lat="44.42353" lon="5.93451">
        <ele>720</ele>
        <time>2019-06-12T12:22:07Z</time>
      </trkpt>
      <trkpt lat="44.42355" lon="5.93458">
        <ele>720</ele>
        <time>2019-06-12T12:22:08Z</time>
      </trkpt>
      <trkpt lat="44.42356" lon="5.93464">
        <ele>720</ele>
        <time>2019-06-12T12:22:09Z</time>
      </trkpt>
      <trkpt lat="44.42358" lon="5.9347">
        <ele>721</ele>
        <time>2019-06-12T12:22:10Z</time>
      </trkpt>
      <trkpt lat="44.4236" lon="5.93476">
        <ele>721</ele>
        <time>2019-06-12T12:22:11Z</time>
      </trkpt>
      <trkpt lat="44.42363" lon="5.93481">
        <ele>721</ele>
        <time>2019-06-12T12:22:12Z</time>
      </trkpt>
      <trkpt lat="44.42366" lon="5.93485">
        <ele>722</ele>
        <time>2019-06-12T12:22:13Z</time>
      </trkpt>
      <trkpt lat="44.4237" lon="5.93488">
        <ele>722</ele>
        <time>2019-06-12T12:22:14Z</time>
      </trkpt>
      <trkpt lat="44.42374" lon="5.93491">
        <ele>723</ele>
        <time>2019-06-12T12:22:15Z</time>
      </trkpt>
      <trkpt lat="44.42377" lon="5.93492">
        <ele>723</ele>
        <time>2019-06-12T12:22:16Z</time>
      </trkpt>
      <trkpt lat="44.42381" lon="5.93492">
        <ele>723</ele>
        <time>2019-06-12T12:22:17Z</time>
      </trkpt>
      <trkpt lat="44.42386" lon="5.93492">
        <ele>723</ele>
        <time>2019-06-12T12:22:18Z</time>
      </trkpt>
      <trkpt lat="44.4239" lon="5.93491">
        <ele>724</ele>
        <time>2019-06-12T12:22:19Z</time>
      </trkpt>
      <trkpt lat="44.42394" lon="5.93489">
        <ele>724</ele>
        <time>2019-06-12T12:22:20Z</time>
      </trkpt>
      <trkpt lat="44.42398" lon="5.93487">
        <ele>724</ele>
        <time>2019-06-12T12:22:21Z</time>
      </trkpt>
      <trkpt lat="44.42402" lon="5.93485">
        <ele>724</ele>
        <time>2019-06-12T12:22:22Z</time>
      </trkpt>
      <trkpt lat="44.42406" lon="5.93484">
        <ele>725</ele>
        <time>2019-06-12T12:22:23Z</time>
      </trkpt>
      <trkpt lat="44.4241" lon="5.93482">
        <ele>725</ele>
        <time>2019-06-12T12:22:24Z</time>
      </trkpt>
      <trkpt lat="44.42414" lon="5.9348">
        <ele>725</ele>
        <time>2019-06-12T12:22:25Z</time>
      </trkpt>
      <trkpt lat="44.42417" lon="5.93477">
        <ele>725</ele>
        <time>2019-06-12T12:22:26Z</time>
      </trkpt>
      <trkpt lat="44.42421" lon="5.93474">
        <ele>726</ele>
        <time>2019-06-12T12:22:27Z</time>
      </trkpt>
      <trkpt lat="44.42424" lon="5.93472">
        <ele>726</ele>
        <time>2019-06-12T12:22:28Z</time>
      </trkpt>
      <trkpt lat="44.42427" lon="5.9347">
        <ele>726</ele>
        <time>2019-06-12T12:22:29Z</time>
      </trkpt>
      <trkpt lat="44.4243" lon="5.93468">
        <ele>727</ele>
        <time>2019-06-12T12:22:30Z</time>
      </trkpt>
      <trkpt lat="44.42434" lon="5.93466">
        <ele>727</ele>
        <time>2019-06-12T12:22:31Z</time>
      </trkpt>
      <trkpt lat="44.42437" lon="5.93464">
        <ele>727</ele>
        <time>2019-06-12T12:22:32Z</time>
      </trkpt>
      <trkpt lat="44.42439" lon="5.93462">
        <ele>728</ele>
        <time>2019-06-12T12:22:33Z</time>
      </trkpt>
      <trkpt lat="44.42442" lon="5.9346">
        <ele>728</ele>
        <time>2019-06-12T12:22:34Z</time>
      </trkpt>
      <trkpt lat="44.42445" lon="5.93459">
        <ele>728</ele>
        <time>2019-06-12T12:22:35Z</time>
      </trkpt>
      <trkpt lat="44.42448" lon="5.93457">
        <ele>728</ele>
        <time>2019-06-12T12:22:36Z</time>
      </trkpt>
      <trkpt lat="44.4245" lon="5.93455">
        <ele>729</ele>
        <time>2019-06-12T12:22:37Z</time>
      </trkpt>
      <trkpt lat="44.42453" lon="5.93453">
        <ele>729</ele>
        <time>2019-06-12T12:22:38Z</time>
      </trkpt>
      <trkpt lat="44.42456" lon="5.93451">
        <ele>729</ele>
        <time>2019-06-12T12:22:39Z</time>
      </trkpt>
      <trkpt lat="44.42459" lon="5.93449">
        <ele>729</ele>
        <time>2019-06-12T12:22:40Z</time>
      </trkpt>
      <trkpt lat="44.42462" lon="5.93448">
        <ele>730</ele>
        <time>2019-06-12T12:22:41Z</time>
      </trkpt>
      <trkpt lat="44.42465" lon="5.93447">
        <ele>730</ele>
        <time>2019-06-12T12:22:42Z</time>
      </trkpt>
      <trkpt lat="44.42468" lon="5.93446">
        <ele>730</ele>
        <time>2019-06-12T12:22:43Z</time>
      </trkpt>
      <trkpt lat="44.4247" lon="5.93445">
        <ele>731</ele>
        <time>2019-06-12T12:22:44Z</time>
      </trkpt>
      <trkpt lat="44.42473" lon="5.93444">
        <ele>731</ele>
        <time>2019-06-12T12:22:45Z</time>
      </trkpt>
      <trkpt lat="44.42476" lon="5.93443">
        <ele>731</ele>
        <time>2019-06-12T12:22:46Z</time>
      </trkpt>
      <trkpt lat="44.42479" lon="5.93443">
        <ele>732</ele>
        <time>2019-06-12T12:22:47Z</time>
      </trkpt>
      <trkpt lat="44.42482" lon="5.93442">
        <ele>732</ele>
        <time>2019-06-12T12:22:48Z</time>
      </trkpt>
      <trkpt lat="44.42484" lon="5.9344">
        <ele>732</ele>
        <time>2019-06-12T12:22:49Z</time>
      </trkpt>
      <trkpt lat="44.42487" lon="5.93439">
        <ele>733</ele>
        <time>2019-06-12T12:22:50Z</time>
      </trkpt>
      <trkpt lat="44.42489" lon="5.93437">
        <ele>733</ele>
        <time>2019-06-12T12:22:51Z</time>
      </trkpt>
      <trkpt lat="44.42492" lon="5.93435">
        <ele>733</ele>
        <time>2019-06-12T12:22:52Z</time>
      </trkpt>
      <trkpt lat="44.42494" lon="5.93433">
        <ele>734</ele>
        <time>2019-06-12T12:22:53Z</time>
      </trkpt>
      <trkpt lat="44.42497" lon="5.9343">
        <ele>734</ele>
        <time>2019-06-12T12:22:54Z</time>
      </trkpt>
      <trkpt lat="44.42499" lon="5.93427">
        <ele>735</ele>
        <time>2019-06-12T12:22:55Z</time>
      </trkpt>
      <trkpt lat="44.42501" lon="5.93423">
        <ele>735</ele>
        <time>2019-06-12T12:22:56Z</time>
      </trkpt>
      <trkpt lat="44.42503" lon="5.9342">
        <ele>736</ele>
        <time>2019-06-12T12:22:57Z</time>
      </trkpt>
      <trkpt lat="44.42505" lon="5.93417">
        <ele>736</ele>
        <time>2019-06-12T12:22:58Z</time>
      </trkpt>
      <trkpt lat="44.42507" lon="5.93414">
        <ele>736</ele>
        <time>2019-06-12T12:22:59Z</time>
      </trkpt>
      <trkpt lat="44.42509" lon="5.9341">
        <ele>737</ele>
        <time>2019-06-12T12:23:00Z</time>
      </trkpt>
      <trkpt lat="44.4251" lon="5.93406">
        <ele>737</ele>
        <time>2019-06-12T12:23:01Z</time>
      </trkpt>
      <trkpt lat="44.42511" lon="5.93403">
        <ele>737</ele>
        <time>2019-06-12T12:23:02Z</time>
      </trkpt>
      <trkpt lat="44.42511" lon="5.934">
        <ele>738</ele>
        <time>2019-06-12T12:23:03Z</time>
      </trkpt>
      <trkpt lat="44.42512" lon="5.93397">
        <ele>738</ele>
        <time>2019-06-12T12:23:04Z</time>
      </trkpt>
      <trkpt lat="44.42512" lon="5.93394">
        <ele>738</ele>
        <time>2019-06-12T12:23:05Z</time>
      </trkpt>
      <trkpt lat="44.42513" lon="5.93391">
        <ele>738</ele>
        <time>2019-06-12T12:23:06Z</time>
      </trkpt>
      <trkpt lat="44.42513" lon="5.93388">
        <ele>738</ele>
        <time>2019-06-12T12:23:07Z</time>
      </trkpt>
      <trkpt lat="44.42513" lon="5.93386">
        <ele>738</ele>
        <time>2019-06-12T12:23:08Z</time>
      </trkpt>
      <trkpt lat="44.42514" lon="5.93383">
        <ele>738</ele>
        <time>2019-06-12T12:23:09Z</time>
      </trkpt>
      <trkpt lat="44.42514" lon="5.9338">
        <ele>738</ele>
        <time>2019-06-12T12:23:10Z</time>
      </trkpt>
      <trkpt lat="44.42514" lon="5.93377">
        <ele>738</ele>
        <time>2019-06-12T12:23:11Z</time>
      </trkpt>
      <trkpt lat="44.42514" lon="5.93374">
        <ele>738</ele>
        <time>2019-06-12T12:23:12Z</time>
      </trkpt>
      <trkpt lat="44.42513" lon="5.93371">
        <ele>738</ele>
        <time>2019-06-12T12:23:13Z</time>
      </trkpt>
      <trkpt lat="44.42513" lon="5.93368">
        <ele>738</ele>
        <time>2019-06-12T12:23:14Z</time>
      </trkpt>
      <trkpt lat="44.42513" lon="5.93366">
        <ele>738</ele>
        <time>2019-06-12T12:23:15Z</time>
      </trkpt>
      <trkpt lat="44.42514" lon="5.93363">
        <ele>738</ele>
        <time>2019-06-12T12:23:16Z</time>
      </trkpt>
      <trkpt lat="44.42514" lon="5.9336">
        <ele>738</ele>
        <time>2019-06-12T12:23:17Z</time>
      </trkpt>
      <trkpt lat="44.42513" lon="5.93357">
        <ele>738</ele>
        <time>2019-06-12T12:23:18Z</time>
      </trkpt>
      <trkpt lat="44.42513" lon="5.93354">
        <ele>739</ele>
        <time>2019-06-12T12:23:19Z</time>
      </trkpt>
      <trkpt lat="44.42513" lon="5.93352">
        <ele>740</ele>
        <time>2019-06-12T12:23:20Z</time>
      </trkpt>
      <trkpt lat="44.42514" lon="5.93349">
        <ele>740</ele>
        <time>2019-06-12T12:23:21Z</time>
      </trkpt>
      <trkpt lat="44.42514" lon="5.93346">
        <ele>741</ele>
        <time>2019-06-12T12:23:22Z</time>
      </trkpt>
      <trkpt lat="44.42514" lon="5.93343">
        <ele>741</ele>
        <time>2019-06-12T12:23:23Z</time>
      </trkpt>
      <trkpt lat="44.42515" lon="5.93341">
        <ele>741</ele>
        <time>2019-06-12T12:23:24Z</time>
      </trkpt>
      <trkpt lat="44.42515" lon="5.93339">
        <ele>742</ele>
        <time>2019-06-12T12:23:25Z</time>
      </trkpt>
      <trkpt lat="44.42516" lon="5.93336">
        <ele>742</ele>
        <time>2019-06-12T12:23:26Z</time>
      </trkpt>
      <trkpt lat="44.42516" lon="5.93333">
        <ele>742</ele>
        <time>2019-06-12T12:23:27Z</time>
      </trkpt>
      <trkpt lat="44.42516" lon="5.9333">
        <ele>743</ele>
        <time>2019-06-12T12:23:28Z</time>
      </trkpt>
      <trkpt lat="44.42517" lon="5.93328">
        <ele>743</ele>
        <time>2019-06-12T12:23:29Z</time>
      </trkpt>
      <trkpt lat="44.42517" lon="5.93326">
        <ele>743</ele>
        <time>2019-06-12T12:23:30Z</time>
      </trkpt>
      <trkpt lat="44.42517" lon="5.93323">
        <ele>743</ele>
        <time>2019-06-12T12:23:31Z</time>
      </trkpt>
      <trkpt lat="44.42517" lon="5.93319">
        <ele>743</ele>
        <time>2019-06-12T12:23:32Z</time>
      </trkpt>
      <trkpt lat="44.42516" lon="5.93315">
        <ele>743</ele>
        <time>2019-06-12T12:23:33Z</time>
      </trkpt>
      <trkpt lat="44.42516" lon="5.93312">
        <ele>743</ele>
        <time>2019-06-12T12:23:34Z</time>
      </trkpt>
      <trkpt lat="44.42516" lon="5.93309">
        <ele>743</ele>
        <time>2019-06-12T12:23:35Z</time>
      </trkpt>
      <trkpt lat="44.42516" lon="5.93306">
        <ele>743</ele>
        <time>2019-06-12T12:23:36Z</time>
      </trkpt>
      <trkpt lat="44.42517" lon="5.93303">
        <ele>743</ele>
        <time>2019-06-12T12:23:37Z</time>
      </trkpt>
      <trkpt lat="44.42518" lon="5.933">
        <ele>743</ele>
        <time>2019-06-12T12:23:38Z</time>
      </trkpt>
      <trkpt lat="44.42518" lon="5.93297">
        <ele>743</ele>
        <time>2019-06-12T12:23:39Z</time>
      </trkpt>
      <trkpt lat="44.42519" lon="5.93294">
        <ele>743</ele>
        <time>2019-06-12T12:23:40Z</time>
      </trkpt>
      <trkpt lat="44.42519" lon="5.93292">
        <ele>743</ele>
        <time>2019-06-12T12:23:41Z</time>
      </trkpt>
      <trkpt lat="44.4252" lon="5.9329">
        <ele>743</ele>
        <time>2019-06-12T12:23:42Z</time>
      </trkpt>
      <trkpt lat="44.42521" lon="5.93287">
        <ele>743</ele>
        <time>2019-06-12T12:23:43Z</time>
      </trkpt>
      <trkpt lat="44.42522" lon="5.93284">
        <ele>743</ele>
        <time>2019-06-12T12:23:44Z</time>
      </trkpt>
      <trkpt lat="44.42523" lon="5.93282">
        <ele>744</ele>
        <time>2019-06-12T12:23:45Z</time>
      </trkpt>
      <trkpt lat="44.42525" lon="5.93279">
        <ele>745</ele>
        <time>2019-06-12T12:23:46Z</time>
      </trkpt>
      <trkpt lat="44.42526" lon="5.93277">
        <ele>746</ele>
        <time>2019-06-12T12:23:47Z</time>
      </trkpt>
      <trkpt lat="44.42527" lon="5.93275">
        <ele>747</ele>
        <time>2019-06-12T12:23:48Z</time>
      </trkpt>
      <trkpt lat="44.42528" lon="5.93273">
        <ele>748</ele>
        <time>2019-06-12T12:23:49Z</time>
      </trkpt>
      <trkpt lat="44.42528" lon="5.9327">
        <ele>749</ele>
        <time>2019-06-12T12:23:50Z</time>
      </trkpt>
      <trkpt lat="44.42527" lon="5.93266">
        <ele>750</ele>
        <time>2019-06-12T12:23:51Z</time>
      </trkpt>
      <trkpt lat="44.42528" lon="5.93263">
        <ele>751</ele>
        <time>2019-06-12T12:23:52Z</time>
      </trkpt>
      <trkpt lat="44.42529" lon="5.9326">
        <ele>751</ele>
        <time>2019-06-12T12:23:53Z</time>
      </trkpt>
      <trkpt lat="44.42529" lon="5.93257">
        <ele>751</ele>
        <time>2019-06-12T12:23:54Z</time>
      </trkpt>
      <trkpt lat="44.42529" lon="5.93254">
        <ele>751</ele>
        <time>2019-06-12T12:23:55Z</time>
      </trkpt>
      <trkpt lat="44.42529" lon="5.93251">
        <ele>751</ele>
        <time>2019-06-12T12:23:56Z</time>
      </trkpt>
      <trkpt lat="44.42529" lon="5.93248">
        <ele>751</ele>
        <time>2019-06-12T12:23:57Z</time>
      </trkpt>
      <trkpt lat="44.42528" lon="5.93244">
        <ele>751</ele>
        <time>2019-06-12T12:23:58Z</time>
      </trkpt>
      <trkpt lat="44.42529" lon="5.93241">
        <ele>751</ele>
        <time>2019-06-12T12:23:59Z</time>
      </trkpt>
      <trkpt lat="44.42529" lon="5.93238">
        <ele>751</ele>
        <time>2019-06-12T12:24:00Z</time>
      </trkpt>
      <trkpt lat="44.42529" lon="5.93236">
        <ele>751</ele>
        <time>2019-06-12T12:24:01Z</time>
      </trkpt>
      <trkpt lat="44.42529" lon="5.93233">
        <ele>751</ele>
        <time>2019-06-12T12:24:02Z</time>
      </trkpt>
      <trkpt lat="44.42529" lon="5.9323">
        <ele>751</ele>
        <time>2019-06-12T12:24:03Z</time>
      </trkpt>
      <trkpt lat="44.42529" lon="5.93227">
        <ele>751</ele>
        <time>2019-06-12T12:24:04Z</time>
      </trkpt>
      <trkpt lat="44.42529" lon="5.93224">
        <ele>751</ele>
        <time>2019-06-12T12:24:05Z</time>
      </trkpt>
      <trkpt lat="44.42529" lon="5.93222">
        <ele>751</ele>
        <time>2019-06-12T12:24:06Z</time>
      </trkpt>
      <trkpt lat="44.4253" lon="5.93219">
        <ele>751</ele>
        <time>2019-06-12T12:24:07Z</time>
      </trkpt>
      <trkpt lat="44.4253" lon="5.93216">
        <ele>751</ele>
        <time>2019-06-12T12:24:08Z</time>
      </trkpt>
      <trkpt lat="44.4253" lon="5.93214">
        <ele>751</ele>
        <time>2019-06-12T12:24:09Z</time>
      </trkpt>
      <trkpt lat="44.42531" lon="5.93211">
        <ele>751</ele>
        <time>2019-06-12T12:24:10Z</time>
      </trkpt>
      <trkpt lat="44.42531" lon="5.93209">
        <ele>751</ele>
        <time>2019-06-12T12:24:11Z</time>
      </trkpt>
      <trkpt lat="44.4253" lon="5.93206">
        <ele>751</ele>
        <time>2019-06-12T12:24:12Z</time>
      </trkpt>
      <trkpt lat="44.4253" lon="5.93203">
        <ele>751</ele>
        <time>2019-06-12T12:24:13Z</time>
      </trkpt>
      <trkpt lat="44.4253" lon="5.93201">
        <ele>751</ele>
        <time>2019-06-12T12:24:14Z</time>
      </trkpt>
      <trkpt lat="44.4253" lon="5.93198">
        <ele>751</ele>
        <time>2019-06-12T12:24:15Z</time>
      </trkpt>
      <trkpt lat="44.4253" lon="5.93196">
        <ele>751</ele>
        <time>2019-06-12T12:24:16Z</time>
      </trkpt>
      <trkpt lat="44.4253" lon="5.93193">
        <ele>751</ele>
        <time>2019-06-12T12:24:17Z</time>
      </trkpt>
      <trkpt lat="44.4253" lon="5.9319">
        <ele>751</ele>
        <time>2019-06-12T12:24:18Z</time>
      </trkpt>
      <trkpt lat="44.4253" lon="5.93188">
        <ele>751</ele>
        <time>2019-06-12T12:24:19Z</time>
      </trkpt>
      <trkpt lat="44.42531" lon="5.93186">
        <ele>751</ele>
        <time>2019-06-12T12:24:20Z</time>
      </trkpt>
      <trkpt lat="44.42531" lon="5.93184">
        <ele>751</ele>
        <time>2019-06-12T12:24:21Z</time>
      </trkpt>
      <trkpt lat="44.42531" lon="5.93182">
        <ele>751</ele>
        <time>2019-06-12T12:24:22Z</time>
      </trkpt>
      <trkpt lat="44.42531" lon="5.93179">
        <ele>751</ele>
        <time>2019-06-12T12:24:23Z</time>
      </trkpt>
      <trkpt lat="44.42531" lon="5.93177">
        <ele>751</ele>
        <time>2019-06-12T12:24:24Z</time>
      </trkpt>
      <trkpt lat="44.42531" lon="5.93174">
        <ele>751</ele>
        <time>2019-06-12T12:24:25Z</time>
      </trkpt>
      <trkpt lat="44.42532" lon="5.93171">
        <ele>751</ele>
        <time>2019-06-12T12:24:26Z</time>
      </trkpt>
      <trkpt lat="44.42533" lon="5.93169">
        <ele>751</ele>
        <time>2019-06-12T12:24:27Z</time>
      </trkpt>
      <trkpt lat="44.42534" lon="5.93166">
        <ele>751</ele>
        <time>2019-06-12T12:24:28Z</time>
      </trkpt>
      <trkpt lat="44.42533" lon="5.93163">
        <ele>751</ele>
        <time>2019-06-12T12:24:29Z</time>
      </trkpt>
      <trkpt lat="44.42533" lon="5.9316">
        <ele>752</ele>
        <time>2019-06-12T12:24:30Z</time>
      </trkpt>
      <trkpt lat="44.42535" lon="5.93157">
        <ele>752</ele>
        <time>2019-06-12T12:24:31Z</time>
      </trkpt>
      <trkpt lat="44.42535" lon="5.93154">
        <ele>752</ele>
        <time>2019-06-12T12:24:32Z</time>
      </trkpt>
      <trkpt lat="44.42535" lon="5.93151">
        <ele>752</ele>
        <time>2019-06-12T12:24:33Z</time>
      </trkpt>
      <trkpt lat="44.42536" lon="5.93149">
        <ele>753</ele>
        <time>2019-06-12T12:24:34Z</time>
      </trkpt>
      <trkpt lat="44.42537" lon="5.93145">
        <ele>754</ele>
        <time>2019-06-12T12:24:35Z</time>
      </trkpt>
      <trkpt lat="44.42538" lon="5.93143">
        <ele>754</ele>
        <time>2019-06-12T12:24:36Z</time>
      </trkpt>
      <trkpt lat="44.42538" lon="5.9314">
        <ele>755</ele>
        <time>2019-06-12T12:24:37Z</time>
      </trkpt>
      <trkpt lat="44.42539" lon="5.93137">
        <ele>756</ele>
        <time>2019-06-12T12:24:38Z</time>
      </trkpt>
      <trkpt lat="44.4254" lon="5.93134">
        <ele>756</ele>
        <time>2019-06-12T12:24:39Z</time>
      </trkpt>
      <trkpt lat="44.42541" lon="5.93131">
        <ele>757</ele>
        <time>2019-06-12T12:24:40Z</time>
      </trkpt>
      <trkpt lat="44.42543" lon="5.93129">
        <ele>757</ele>
        <time>2019-06-12T12:24:41Z</time>
      </trkpt>
      <trkpt lat="44.42545" lon="5.93126">
        <ele>758</ele>
        <time>2019-06-12T12:24:42Z</time>
      </trkpt>
      <trkpt lat="44.42546" lon="5.93123">
        <ele>759</ele>
        <time>2019-06-12T12:24:43Z</time>
      </trkpt>
      <trkpt lat="44.42547" lon="5.93119">
        <ele>759</ele>
        <time>2019-06-12T12:24:44Z</time>
      </trkpt>
      <trkpt lat="44.42548" lon="5.93116">
        <ele>760</ele>
        <time>2019-06-12T12:24:45Z</time>
      </trkpt>
      <trkpt lat="44.42549" lon="5.93111">
        <ele>760</ele>
        <time>2019-06-12T12:24:46Z</time>
      </trkpt>
      <trkpt lat="44.42549" lon="5.93107">
        <ele>760</ele>
        <time>2019-06-12T12:24:47Z</time>
      </trkpt>
      <trkpt lat="44.4255" lon="5.93103">
        <ele>760</ele>
        <time>2019-06-12T12:24:48Z</time>
      </trkpt>
      <trkpt lat="44.42551" lon="5.93099">
        <ele>760</ele>
        <time>2019-06-12T12:24:49Z</time>
      </trkpt>
      <trkpt lat="44.42553" lon="5.93096">
        <ele>760</ele>
        <time>2019-06-12T12:24:50Z</time>
      </trkpt>
      <trkpt lat="44.42554" lon="5.93093">
        <ele>760</ele>
        <time>2019-06-12T12:24:51Z</time>
      </trkpt>
      <trkpt lat="44.42555" lon="5.9309">
        <ele>760</ele>
        <time>2019-06-12T12:24:52Z</time>
      </trkpt>
      <trkpt lat="44.42556" lon="5.93087">
        <ele>760</ele>
        <time>2019-06-12T12:24:53Z</time>
      </trkpt>
      <trkpt lat="44.42557" lon="5.93084">
        <ele>761</ele>
        <time>2019-06-12T12:24:54Z</time>
      </trkpt>
      <trkpt lat="44.42557" lon="5.93081">
        <ele>761</ele>
        <time>2019-06-12T12:24:55Z</time>
      </trkpt>
      <trkpt lat="44.42559" lon="5.93078">
        <ele>761</ele>
        <time>2019-06-12T12:24:56Z</time>
      </trkpt>
      <trkpt lat="44.42559" lon="5.93075">
        <ele>761</ele>
        <time>2019-06-12T12:24:57Z</time>
      </trkpt>
      <trkpt lat="44.42559" lon="5.93071">
        <ele>761</ele>
        <time>2019-06-12T12:24:58Z</time>
      </trkpt>
      <trkpt lat="44.42561" lon="5.93068">
        <ele>761</ele>
        <time>2019-06-12T12:24:59Z</time>
      </trkpt>
      <trkpt lat="44.42561" lon="5.93066">
        <ele>761</ele>
        <time>2019-06-12T12:25:00Z</time>
      </trkpt>
      <trkpt lat="44.42563" lon="5.93063">
        <ele>761</ele>
        <time>2019-06-12T12:25:01Z</time>
      </trkpt>
      <trkpt lat="44.42566" lon="5.93061">
        <ele>761</ele>
        <time>2019-06-12T12:25:02Z</time>
      </trkpt>
      <trkpt lat="44.42567" lon="5.93058">
        <ele>761</ele>
        <time>2019-06-12T12:25:03Z</time>
      </trkpt>
      <trkpt lat="44.42568" lon="5.93055">
        <ele>762</ele>
        <time>2019-06-12T12:25:04Z</time>
      </trkpt>
      <trkpt lat="44.42569" lon="5.93052">
        <ele>762</ele>
        <time>2019-06-12T12:25:05Z</time>
      </trkpt>
      <trkpt lat="44.42569" lon="5.93049">
        <ele>762</ele>
        <time>2019-06-12T12:25:06Z</time>
      </trkpt>
      <trkpt lat="44.42569" lon="5.93046">
        <ele>762</ele>
        <time>2019-06-12T12:25:07Z</time>
      </trkpt>
      <trkpt lat="44.42569" lon="5.93042">
        <ele>762</ele>
        <time>2019-06-12T12:25:08Z</time>
      </trkpt>
      <trkpt lat="44.4257" lon="5.93039">
        <ele>762</ele>
        <time>2019-06-12T12:25:09Z</time>
      </trkpt>
      <trkpt lat="44.4257" lon="5.93036">
        <ele>762</ele>
        <time>2019-06-12T12:25:10Z</time>
      </trkpt>
      <trkpt lat="44.42571" lon="5.93033">
        <ele>762</ele>
        <time>2019-06-12T12:25:11Z</time>
      </trkpt>
      <trkpt lat="44.42572" lon="5.9303">
        <ele>762</ele>
        <time>2019-06-12T12:25:12Z</time>
      </trkpt>
      <trkpt lat="44.42572" lon="5.93027">
        <ele>762</ele>
        <time>2019-06-12T12:25:13Z</time>
      </trkpt>
      <trkpt lat="44.42573" lon="5.93024">
        <ele>762</ele>
        <time>2019-06-12T12:25:14Z</time>
      </trkpt>
      <trkpt lat="44.42574" lon="5.93021">
        <ele>762</ele>
        <time>2019-06-12T12:25:15Z</time>
      </trkpt>
      <trkpt lat="44.42575" lon="5.93017">
        <ele>762</ele>
        <time>2019-06-12T12:25:16Z</time>
      </trkpt>
      <trkpt lat="44.42576" lon="5.93014">
        <ele>762</ele>
        <time>2019-06-12T12:25:17Z</time>
      </trkpt>
      <trkpt lat="44.42577" lon="5.93011">
        <ele>762</ele>
        <time>2019-06-12T12:25:18Z</time>
      </trkpt>
      <trkpt lat="44.42578" lon="5.93008">
        <ele>762</ele>
        <time>2019-06-12T12:25:19Z</time>
      </trkpt>
      <trkpt lat="44.42579" lon="5.93004">
        <ele>762</ele>
        <time>2019-06-12T12:25:20Z</time>
      </trkpt>
      <trkpt lat="44.4258" lon="5.93">
        <ele>762</ele>
        <time>2019-06-12T12:25:21Z</time>
      </trkpt>
      <trkpt lat="44.42581" lon="5.92996">
        <ele>762</ele>
        <time>2019-06-12T12:25:22Z</time>
      </trkpt>
      <trkpt lat="44.42582" lon="5.92991">
        <ele>762</ele>
        <time>2019-06-12T12:25:23Z</time>
      </trkpt>
      <trkpt lat="44.42583" lon="5.92987">
        <ele>762</ele>
        <time>2019-06-12T12:25:24Z</time>
      </trkpt>
      <trkpt lat="44.42584" lon="5.92982">
        <ele>762</ele>
        <time>2019-06-12T12:25:25Z</time>
      </trkpt>
      <trkpt lat="44.42585" lon="5.92977">
        <ele>762</ele>
        <time>2019-06-12T12:25:26Z</time>
      </trkpt>
      <trkpt lat="44.42586" lon="5.92973">
        <ele>762</ele>
        <time>2019-06-12T12:25:27Z</time>
      </trkpt>
      <trkpt lat="44.42587" lon="5.92968">
        <ele>762</ele>
        <time>2019-06-12T12:25:28Z</time>
      </trkpt>
      <trkpt lat="44.42587" lon="5.92964">
        <ele>762</ele>
        <time>2019-06-12T12:25:29Z</time>
      </trkpt>
      <trkpt lat="44.42587" lon="5.9296">
        <ele>762</ele>
        <time>2019-06-12T12:25:30Z</time>
      </trkpt>
      <trkpt lat="44.42588" lon="5.92956">
        <ele>762</ele>
        <time>2019-06-12T12:25:31Z</time>
      </trkpt>
      <trkpt lat="44.42588" lon="5.92952">
        <ele>762</ele>
        <time>2019-06-12T12:25:32Z</time>
      </trkpt>
      <trkpt lat="44.42588" lon="5.92949">
        <ele>762</ele>
        <time>2019-06-12T12:25:33Z</time>
      </trkpt>
      <trkpt lat="44.42589" lon="5.92945">
        <ele>762</ele>
        <time>2019-06-12T12:25:34Z</time>
      </trkpt>
      <trkpt lat="44.42589" lon="5.92942">
        <ele>762</ele>
        <time>2019-06-12T12:25:35Z</time>
      </trkpt>
      <trkpt lat="44.4259" lon="5.92938">
        <ele>762</ele>
        <time>2019-06-12T12:25:36Z</time>
      </trkpt>
      <trkpt lat="44.4259" lon="5.92935">
        <ele>762</ele>
        <time>2019-06-12T12:25:37Z</time>
      </trkpt>
      <trkpt lat="44.42591" lon="5.92931">
        <ele>762</ele>
        <time>2019-06-12T12:25:38Z</time>
      </trkpt>
      <trkpt lat="44.42592" lon="5.92928">
        <ele>762</ele>
        <time>2019-06-12T12:25:39Z</time>
      </trkpt>
      <trkpt lat="44.42593" lon="5.92924">
        <ele>762</ele>
        <time>2019-06-12T12:25:40Z</time>
      </trkpt>
      <trkpt lat="44.42593" lon="5.9292">
        <ele>762</ele>
        <time>2019-06-12T12:25:41Z</time>
      </trkpt>
      <trkpt lat="44.42595" lon="5.92917">
        <ele>762</ele>
        <time>2019-06-12T12:25:42Z</time>
      </trkpt>
      <trkpt lat="44.42596" lon="5.92914">
        <ele>763</ele>
        <time>2019-06-12T12:25:43Z</time>
      </trkpt>
      <trkpt lat="44.42597" lon="5.9291">
        <ele>763</ele>
        <time>2019-06-12T12:25:44Z</time>
      </trkpt>
      <trkpt lat="44.42598" lon="5.92906">
        <ele>764</ele>
        <time>2019-06-12T12:25:45Z</time>
      </trkpt>
      <trkpt lat="44.42599" lon="5.92903">
        <ele>765</ele>
        <time>2019-06-12T12:25:46Z</time>
      </trkpt>
      <trkpt lat="44.42599" lon="5.92899">
        <ele>765</ele>
        <time>2019-06-12T12:25:47Z</time>
      </trkpt>
      <trkpt lat="44.426" lon="5.92895">
        <ele>766</ele>
        <time>2019-06-12T12:25:48Z</time>
      </trkpt>
      <trkpt lat="44.42601" lon="5.92892">
        <ele>766</ele>
        <time>2019-06-12T12:25:49Z</time>
      </trkpt>
      <trkpt lat="44.42603" lon="5.92888">
        <ele>767</ele>
        <time>2019-06-12T12:25:50Z</time>
      </trkpt>
      <trkpt lat="44.42604" lon="5.92885">
        <ele>768</ele>
        <time>2019-06-12T12:25:51Z</time>
      </trkpt>
      <trkpt lat="44.42605" lon="5.92881">
        <ele>769</ele>
        <time>2019-06-12T12:25:52Z</time>
      </trkpt>
      <trkpt lat="44.42605" lon="5.92877">
        <ele>769</ele>
        <time>2019-06-12T12:25:53Z</time>
      </trkpt>
      <trkpt lat="44.42605" lon="5.92873">
        <ele>770</ele>
        <time>2019-06-12T12:25:54Z</time>
      </trkpt>
      <trkpt lat="44.42605" lon="5.92869">
        <ele>770</ele>
        <time>2019-06-12T12:25:55Z</time>
      </trkpt>
      <trkpt lat="44.42606" lon="5.92865">
        <ele>771</ele>
        <time>2019-06-12T12:25:56Z</time>
      </trkpt>
      <trkpt lat="44.42607" lon="5.92862">
        <ele>771</ele>
        <time>2019-06-12T12:25:57Z</time>
      </trkpt>
      <trkpt lat="44.42607" lon="5.92858">
        <ele>772</ele>
        <time>2019-06-12T12:25:58Z</time>
      </trkpt>
      <trkpt lat="44.42608" lon="5.92854">
        <ele>772</ele>
        <time>2019-06-12T12:25:59Z</time>
      </trkpt>
      <trkpt lat="44.42609" lon="5.9285">
        <ele>772</ele>
        <time>2019-06-12T12:26:00Z</time>
      </trkpt>
      <trkpt lat="44.42609" lon="5.92846">
        <ele>772</ele>
        <time>2019-06-12T12:26:01Z</time>
      </trkpt>
      <trkpt lat="44.42609" lon="5.92842">
        <ele>772</ele>
        <time>2019-06-12T12:26:02Z</time>
      </trkpt>
      <trkpt lat="44.42609" lon="5.92837">
        <ele>772</ele>
        <time>2019-06-12T12:26:03Z</time>
      </trkpt>
      <trkpt lat="44.4261" lon="5.92833">
        <ele>772</ele>
        <time>2019-06-12T12:26:04Z</time>
      </trkpt>
      <trkpt lat="44.42611" lon="5.92829">
        <ele>772</ele>
        <time>2019-06-12T12:26:05Z</time>
      </trkpt>
      <trkpt lat="44.42612" lon="5.92825">
        <ele>772</ele>
        <time>2019-06-12T12:26:06Z</time>
      </trkpt>
      <trkpt lat="44.42613" lon="5.9282">
        <ele>772</ele>
        <time>2019-06-12T12:26:07Z</time>
      </trkpt>
      <trkpt lat="44.42613" lon="5.92816">
        <ele>772</ele>
        <time>2019-06-12T12:26:08Z</time>
      </trkpt>
      <trkpt lat="44.42613" lon="5.92811">
        <ele>772</ele>
        <time>2019-06-12T12:26:09Z</time>
      </trkpt>
      <trkpt lat="44.42614" lon="5.92808">
        <ele>773</ele>
        <time>2019-06-12T12:26:10Z</time>
      </trkpt>
      <trkpt lat="44.42615" lon="5.92804">
        <ele>773</ele>
        <time>2019-06-12T12:26:11Z</time>
      </trkpt>
      <trkpt lat="44.42616" lon="5.92801">
        <ele>773</ele>
        <time>2019-06-12T12:26:12Z</time>
      </trkpt>
      <trkpt lat="44.42617" lon="5.92797">
        <ele>774</ele>
        <time>2019-06-12T12:26:13Z</time>
      </trkpt>
      <trkpt lat="44.42617" lon="5.92793">
        <ele>775</ele>
        <time>2019-06-12T12:26:14Z</time>
      </trkpt>
      <trkpt lat="44.42617" lon="5.92789">
        <ele>775</ele>
        <time>2019-06-12T12:26:15Z</time>
      </trkpt>
      <trkpt lat="44.42618" lon="5.92785">
        <ele>776</ele>
        <time>2019-06-12T12:26:16Z</time>
      </trkpt>
      <trkpt lat="44.42618" lon="5.92781">
        <ele>776</ele>
        <time>2019-06-12T12:26:17Z</time>
      </trkpt>
      <trkpt lat="44.42619" lon="5.92777">
        <ele>776</ele>
        <time>2019-06-12T12:26:18Z</time>
      </trkpt>
      <trkpt lat="44.42619" lon="5.92773">
        <ele>776</ele>
        <time>2019-06-12T12:26:19Z</time>
      </trkpt>
      <trkpt lat="44.4262" lon="5.92768">
        <ele>776</ele>
        <time>2019-06-12T12:26:20Z</time>
      </trkpt>
      <trkpt lat="44.42621" lon="5.92764">
        <ele>776</ele>
        <time>2019-06-12T12:26:21Z</time>
      </trkpt>
      <trkpt lat="44.42622" lon="5.9276">
        <ele>776</ele>
        <time>2019-06-12T12:26:22Z</time>
      </trkpt>
      <trkpt lat="44.42623" lon="5.92756">
        <ele>776</ele>
        <time>2019-06-12T12:26:23Z</time>
      </trkpt>
      <trkpt lat="44.42624" lon="5.92751">
        <ele>776</ele>
        <time>2019-06-12T12:26:24Z</time>
      </trkpt>
      <trkpt lat="44.42625" lon="5.92747">
        <ele>776</ele>
        <time>2019-06-12T12:26:25Z</time>
      </trkpt>
      <trkpt lat="44.42626" lon="5.92742">
        <ele>777</ele>
        <time>2019-06-12T12:26:26Z</time>
      </trkpt>
      <trkpt lat="44.42627" lon="5.92738">
        <ele>777</ele>
        <time>2019-06-12T12:26:27Z</time>
      </trkpt>
      <trkpt lat="44.42628" lon="5.92734">
        <ele>777</ele>
        <time>2019-06-12T12:26:28Z</time>
      </trkpt>
      <trkpt lat="44.42628" lon="5.92729">
        <ele>777</ele>
        <time>2019-06-12T12:26:29Z</time>
      </trkpt>
      <trkpt lat="44.4263" lon="5.92725">
        <ele>777</ele>
        <time>2019-06-12T12:26:30Z</time>
      </trkpt>
      <trkpt lat="44.4263" lon="5.9272">
        <ele>777</ele>
        <time>2019-06-12T12:26:31Z</time>
      </trkpt>
      <trkpt lat="44.42631" lon="5.92715">
        <ele>777</ele>
        <time>2019-06-12T12:26:32Z</time>
      </trkpt>
      <trkpt lat="44.42632" lon="5.9271">
        <ele>777</ele>
        <time>2019-06-12T12:26:33Z</time>
      </trkpt>
      <trkpt lat="44.42633" lon="5.92706">
        <ele>777</ele>
        <time>2019-06-12T12:26:34Z</time>
      </trkpt>
      <trkpt lat="44.42635" lon="5.92701">
        <ele>777</ele>
        <time>2019-06-12T12:26:35Z</time>
      </trkpt>
      <trkpt lat="44.42635" lon="5.92697">
        <ele>777</ele>
        <time>2019-06-12T12:26:36Z</time>
      </trkpt>
      <trkpt lat="44.42636" lon="5.92693">
        <ele>777</ele>
        <time>2019-06-12T12:26:37Z</time>
      </trkpt>
      <trkpt lat="44.42638" lon="5.92688">
        <ele>777</ele>
        <time>2019-06-12T12:26:38Z</time>
      </trkpt>
      <trkpt lat="44.42638" lon="5.92684">
        <ele>777</ele>
        <time>2019-06-12T12:26:39Z</time>
      </trkpt>
      <trkpt lat="44.4264" lon="5.92679">
        <ele>777</ele>
        <time>2019-06-12T12:26:40Z</time>
      </trkpt>
      <trkpt lat="44.42641" lon="5.92675">
        <ele>777</ele>
        <time>2019-06-12T12:26:41Z</time>
      </trkpt>
      <trkpt lat="44.42642" lon="5.92671">
        <ele>777</ele>
        <time>2019-06-12T12:26:42Z</time>
      </trkpt>
      <trkpt lat="44.42644" lon="5.92667">
        <ele>778</ele>
        <time>2019-06-12T12:26:43Z</time>
      </trkpt>
      <trkpt lat="44.42645" lon="5.92663">
        <ele>778</ele>
        <time>2019-06-12T12:26:44Z</time>
      </trkpt>
      <trkpt lat="44.42646" lon="5.92659">
        <ele>778</ele>
        <time>2019-06-12T12:26:45Z</time>
      </trkpt>
      <trkpt lat="44.42648" lon="5.92655">
        <ele>778</ele>
        <time>2019-06-12T12:26:46Z</time>
      </trkpt>
      <trkpt lat="44.42649" lon="5.92651">
        <ele>778</ele>
        <time>2019-06-12T12:26:47Z</time>
      </trkpt>
      <trkpt lat="44.42651" lon="5.92648">
        <ele>778</ele>
        <time>2019-06-12T12:26:48Z</time>
      </trkpt>
      <trkpt lat="44.42653" lon="5.92644">
        <ele>779</ele>
        <time>2019-06-12T12:26:49Z</time>
      </trkpt>
      <trkpt lat="44.42654" lon="5.9264">
        <ele>779</ele>
        <time>2019-06-12T12:26:50Z</time>
      </trkpt>
      <trkpt lat="44.42656" lon="5.92637">
        <ele>780</ele>
        <time>2019-06-12T12:26:51Z</time>
      </trkpt>
      <trkpt lat="44.42658" lon="5.92633">
        <ele>780</ele>
        <time>2019-06-12T12:26:52Z</time>
      </trkpt>
      <trkpt lat="44.4266" lon="5.9263">
        <ele>780</ele>
        <time>2019-06-12T12:26:53Z</time>
      </trkpt>
      <trkpt lat="44.42662" lon="5.92627">
        <ele>781</ele>
        <time>2019-06-12T12:26:54Z</time>
      </trkpt>
      <trkpt lat="44.42663" lon="5.92623">
        <ele>781</ele>
        <time>2019-06-12T12:26:55Z</time>
      </trkpt>
      <trkpt lat="44.42665" lon="5.9262">
        <ele>781</ele>
        <time>2019-06-12T12:26:56Z</time>
      </trkpt>
      <trkpt lat="44.42667" lon="5.92616">
        <ele>781</ele>
        <time>2019-06-12T12:26:57Z</time>
      </trkpt>
      <trkpt lat="44.42669" lon="5.92613">
        <ele>782</ele>
        <time>2019-06-12T12:26:58Z</time>
      </trkpt>
      <trkpt lat="44.42671" lon="5.92609">
        <ele>782</ele>
        <time>2019-06-12T12:26:59Z</time>
      </trkpt>
      <trkpt lat="44.42673" lon="5.92605">
        <ele>782</ele>
        <time>2019-06-12T12:27:00Z</time>
      </trkpt>
      <trkpt lat="44.42675" lon="5.92601">
        <ele>782</ele>
        <time>2019-06-12T12:27:01Z</time>
      </trkpt>
      <trkpt lat="44.42677" lon="5.92597">
        <ele>782</ele>
        <time>2019-06-12T12:27:02Z</time>
      </trkpt>
      <trkpt lat="44.42678" lon="5.92592">
        <ele>783</ele>
        <time>2019-06-12T12:27:03Z</time>
      </trkpt>
      <trkpt lat="44.4268" lon="5.92588">
        <ele>783</ele>
        <time>2019-06-12T12:27:04Z</time>
      </trkpt>
      <trkpt lat="44.42681" lon="5.92584">
        <ele>783</ele>
        <time>2019-06-12T12:27:05Z</time>
      </trkpt>
      <trkpt lat="44.42683" lon="5.9258">
        <ele>783</ele>
        <time>2019-06-12T12:27:06Z</time>
      </trkpt>
      <trkpt lat="44.42684" lon="5.92575">
        <ele>783</ele>
        <time>2019-06-12T12:27:07Z</time>
      </trkpt>
      <trkpt lat="44.42685" lon="5.92571">
        <ele>783</ele>
        <time>2019-06-12T12:27:08Z</time>
      </trkpt>
      <trkpt lat="44.42687" lon="5.92566">
        <ele>784</ele>
        <time>2019-06-12T12:27:09Z</time>
      </trkpt>
      <trkpt lat="44.42688" lon="5.92562">
        <ele>784</ele>
        <time>2019-06-12T12:27:10Z</time>
      </trkpt>
      <trkpt lat="44.42689" lon="5.92558">
        <ele>784</ele>
        <time>2019-06-12T12:27:11Z</time>
      </trkpt>
      <trkpt lat="44.4269" lon="5.92554">
        <ele>784</ele>
        <time>2019-06-12T12:27:12Z</time>
      </trkpt>
      <trkpt lat="44.42692" lon="5.9255">
        <ele>785</ele>
        <time>2019-06-12T12:27:13Z</time>
      </trkpt>
      <trkpt lat="44.42693" lon="5.92546">
        <ele>785</ele>
        <time>2019-06-12T12:27:14Z</time>
      </trkpt>
      <trkpt lat="44.42694" lon="5.92542">
        <ele>785</ele>
        <time>2019-06-12T12:27:15Z</time>
      </trkpt>
      <trkpt lat="44.42695" lon="5.92538">
        <ele>785</ele>
        <time>2019-06-12T12:27:16Z</time>
      </trkpt>
      <trkpt lat="44.42696" lon="5.92535">
        <ele>786</ele>
        <time>2019-06-12T12:27:17Z</time>
      </trkpt>
      <trkpt lat="44.42698" lon="5.92531">
        <ele>786</ele>
        <time>2019-06-12T12:27:18Z</time>
      </trkpt>
      <trkpt lat="44.42699" lon="5.92527">
        <ele>786</ele>
        <time>2019-06-12T12:27:19Z</time>
      </trkpt>
      <trkpt lat="44.427" lon="5.92523">
        <ele>786</ele>
        <time>2019-06-12T12:27:20Z</time>
      </trkpt>
      <trkpt lat="44.42701" lon="5.9252">
        <ele>786</ele>
        <time>2019-06-12T12:27:21Z</time>
      </trkpt>
      <trkpt lat="44.42702" lon="5.92516">
        <ele>787</ele>
        <time>2019-06-12T12:27:22Z</time>
      </trkpt>
      <trkpt lat="44.42703" lon="5.92513">
        <ele>787</ele>
        <time>2019-06-12T12:27:23Z</time>
      </trkpt>
      <trkpt lat="44.42704" lon="5.92509">
        <ele>787</ele>
        <time>2019-06-12T12:27:24Z</time>
      </trkpt>
      <trkpt lat="44.42705" lon="5.92506">
        <ele>787</ele>
        <time>2019-06-12T12:27:25Z</time>
      </trkpt>
      <trkpt lat="44.42706" lon="5.92503">
        <ele>788</ele>
        <time>2019-06-12T12:27:26Z</time>
      </trkpt>
      <trkpt lat="44.42707" lon="5.92499">
        <ele>788</ele>
        <time>2019-06-12T12:27:27Z</time>
      </trkpt>
      <trkpt lat="44.42708" lon="5.92496">
        <ele>788</ele>
        <time>2019-06-12T12:27:28Z</time>
      </trkpt>
      <trkpt lat="44.42709" lon="5.92492">
        <ele>788</ele>
        <time>2019-06-12T12:27:29Z</time>
      </trkpt>
      <trkpt lat="44.4271" lon="5.92489">
        <ele>788</ele>
        <time>2019-06-12T12:27:30Z</time>
      </trkpt>
      <trkpt lat="44.42711" lon="5.92486">
        <ele>788</ele>
        <time>2019-06-12T12:27:31Z</time>
      </trkpt>
      <trkpt lat="44.42712" lon="5.92482">
        <ele>789</ele>
        <time>2019-06-12T12:27:32Z</time>
      </trkpt>
      <trkpt lat="44.42714" lon="5.92479">
        <ele>789</ele>
        <time>2019-06-12T12:27:33Z</time>
      </trkpt>
      <trkpt lat="44.42714" lon="5.92476">
        <ele>789</ele>
        <time>2019-06-12T12:27:34Z</time>
      </trkpt>
      <trkpt lat="44.42715" lon="5.92473">
        <ele>789</ele>
        <time>2019-06-12T12:27:35Z</time>
      </trkpt>
      <trkpt lat="44.42716" lon="5.92469">
        <ele>789</ele>
        <time>2019-06-12T12:27:36Z</time>
      </trkpt>
      <trkpt lat="44.42717" lon="5.92466">
        <ele>790</ele>
        <time>2019-06-12T12:27:37Z</time>
      </trkpt>
      <trkpt lat="44.42718" lon="5.92463">
        <ele>790</ele>
        <time>2019-06-12T12:27:38Z</time>
      </trkpt>
      <trkpt lat="44.4272" lon="5.9246">
        <ele>790</ele>
        <time>2019-06-12T12:27:39Z</time>
      </trkpt>
      <trkpt lat="44.42721" lon="5.92457">
        <ele>790</ele>
        <time>2019-06-12T12:27:40Z</time>
      </trkpt>
      <trkpt lat="44.42722" lon="5.92454">
        <ele>790</ele>
        <time>2019-06-12T12:27:41Z</time>
      </trkpt>
      <trkpt lat="44.42724" lon="5.92451">
        <ele>791</ele>
        <time>2019-06-12T12:27:42Z</time>
      </trkpt>
      <trkpt lat="44.42725" lon="5.92447">
        <ele>791</ele>
        <time>2019-06-12T12:27:43Z</time>
      </trkpt>
      <trkpt lat="44.42727" lon="5.92445">
        <ele>791</ele>
        <time>2019-06-12T12:27:44Z</time>
      </trkpt>
      <trkpt lat="44.42728" lon="5.92442">
        <ele>791</ele>
        <time>2019-06-12T12:27:45Z</time>
      </trkpt>
      <trkpt lat="44.4273" lon="5.92439">
        <ele>791</ele>
        <time>2019-06-12T12:27:46Z</time>
      </trkpt>
      <trkpt lat="44.42731" lon="5.92436">
        <ele>792</ele>
        <time>2019-06-12T12:27:47Z</time>
      </trkpt>
      <trkpt lat="44.42733" lon="5.92433">
        <ele>792</ele>
        <time>2019-06-12T12:27:48Z</time>
      </trkpt>
      <trkpt lat="44.42734" lon="5.9243">
        <ele>792</ele>
        <time>2019-06-12T12:27:49Z</time>
      </trkpt>
      <trkpt lat="44.42736" lon="5.92428">
        <ele>792</ele>
        <time>2019-06-12T12:27:50Z</time>
      </trkpt>
      <trkpt lat="44.42737" lon="5.92425">
        <ele>792</ele>
        <time>2019-06-12T12:27:51Z</time>
      </trkpt>
      <trkpt lat="44.42739" lon="5.92422">
        <ele>793</ele>
        <time>2019-06-12T12:27:52Z</time>
      </trkpt>
      <trkpt lat="44.42741" lon="5.9242">
        <ele>793</ele>
        <time>2019-06-12T12:27:53Z</time>
      </trkpt>
      <trkpt lat="44.42742" lon="5.92417">
        <ele>793</ele>
        <time>2019-06-12T12:27:54Z</time>
      </trkpt>
      <trkpt lat="44.42744" lon="5.92415">
        <ele>793</ele>
        <time>2019-06-12T12:27:55Z</time>
      </trkpt>
      <trkpt lat="44.42745" lon="5.92412">
        <ele>793</ele>
        <time>2019-06-12T12:27:56Z</time>
      </trkpt>
      <trkpt lat="44.42747" lon="5.92409">
        <ele>794</ele>
        <time>2019-06-12T12:27:57Z</time>
      </trkpt>
      <trkpt lat="44.42748" lon="5.92406">
        <ele>794</ele>
        <time>2019-06-12T12:27:58Z</time>
      </trkpt>
      <trkpt lat="44.4275" lon="5.92403">
        <ele>794</ele>
        <time>2019-06-12T12:27:59Z</time>
      </trkpt>
      <trkpt lat="44.42751" lon="5.92401">
        <ele>794</ele>
        <time>2019-06-12T12:28:00Z</time>
      </trkpt>
      <trkpt lat="44.42753" lon="5.92399">
        <ele>794</ele>
        <time>2019-06-12T12:28:01Z</time>
      </trkpt>
      <trkpt lat="44.42755" lon="5.92396">
        <ele>795</ele>
        <time>2019-06-12T12:28:02Z</time>
      </trkpt>
      <trkpt lat="44.42757" lon="5.92394">
        <ele>795</ele>
        <time>2019-06-12T12:28:03Z</time>
      </trkpt>
      <trkpt lat="44.42758" lon="5.92391">
        <ele>795</ele>
        <time>2019-06-12T12:28:04Z</time>
      </trkpt>
      <trkpt lat="44.4276" lon="5.92388">
        <ele>795</ele>
        <time>2019-06-12T12:28:05Z</time>
      </trkpt>
      <trkpt lat="44.42762" lon="5.92386">
        <ele>795</ele>
        <time>2019-06-12T12:28:06Z</time>
      </trkpt>
      <trkpt lat="44.42764" lon="5.92383">
        <ele>795</ele>
        <time>2019-06-12T12:28:07Z</time>
      </trkpt>
      <trkpt lat="44.42765" lon="5.92381">
        <ele>795</ele>
        <time>2019-06-12T12:28:08Z</time>
      </trkpt>
      <trkpt lat="44.42767" lon="5.92378">
        <ele>796</ele>
        <time>2019-06-12T12:28:09Z</time>
      </trkpt>
      <trkpt lat="44.42768" lon="5.92375">
        <ele>796</ele>
        <time>2019-06-12T12:28:10Z</time>
      </trkpt>
      <trkpt lat="44.4277" lon="5.92373">
        <ele>796</ele>
        <time>2019-06-12T12:28:11Z</time>
      </trkpt>
      <trkpt lat="44.42772" lon="5.9237">
        <ele>796</ele>
        <time>2019-06-12T12:28:12Z</time>
      </trkpt>
      <trkpt lat="44.42773" lon="5.92368">
        <ele>796</ele>
        <time>2019-06-12T12:28:13Z</time>
      </trkpt>
      <trkpt lat="44.42775" lon="5.92365">
        <ele>797</ele>
        <time>2019-06-12T12:28:14Z</time>
      </trkpt>
      <trkpt lat="44.42776" lon="5.92362">
        <ele>797</ele>
        <time>2019-06-12T12:28:15Z</time>
      </trkpt>
      <trkpt lat="44.42778" lon="5.92359">
        <ele>797</ele>
        <time>2019-06-12T12:28:16Z</time>
      </trkpt>
      <trkpt lat="44.4278" lon="5.92357">
        <ele>797</ele>
        <time>2019-06-12T12:28:17Z</time>
      </trkpt>
      <trkpt lat="44.42781" lon="5.92355">
        <ele>797</ele>
        <time>2019-06-12T12:28:18Z</time>
      </trkpt>
      <trkpt lat="44.42783" lon="5.92352">
        <ele>797</ele>
        <time>2019-06-12T12:28:19Z</time>
      </trkpt>
      <trkpt lat="44.42785" lon="5.92349">
        <ele>798</ele>
        <time>2019-06-12T12:28:20Z</time>
      </trkpt>
      <trkpt lat="44.42786" lon="5.92347">
        <ele>798</ele>
        <time>2019-06-12T12:28:21Z</time>
      </trkpt>
      <trkpt lat="44.42788" lon="5.92345">
        <ele>798</ele>
        <time>2019-06-12T12:28:22Z</time>
      </trkpt>
      <trkpt lat="44.42791" lon="5.92342">
        <ele>798</ele>
        <time>2019-06-12T12:28:23Z</time>
      </trkpt>
      <trkpt lat="44.42792" lon="5.9234">
        <ele>798</ele>
        <time>2019-06-12T12:28:24Z</time>
      </trkpt>
      <trkpt lat="44.42793" lon="5.92337">
        <ele>799</ele>
        <time>2019-06-12T12:28:25Z</time>
      </trkpt>
      <trkpt lat="44.42795" lon="5.92334">
        <ele>799</ele>
        <time>2019-06-12T12:28:26Z</time>
      </trkpt>
      <trkpt lat="44.42797" lon="5.92332">
        <ele>799</ele>
        <time>2019-06-12T12:28:27Z</time>
      </trkpt>
      <trkpt lat="44.42799" lon="5.9233">
        <ele>799</ele>
        <time>2019-06-12T12:28:28Z</time>
      </trkpt>
      <trkpt lat="44.42801" lon="5.92328">
        <ele>799</ele>
        <time>2019-06-12T12:28:29Z</time>
      </trkpt>
      <trkpt lat="44.42803" lon="5.92325">
        <ele>799</ele>
        <time>2019-06-12T12:28:30Z</time>
      </trkpt>
      <trkpt lat="44.42805" lon="5.92323">
        <ele>800</ele>
        <time>2019-06-12T12:28:31Z</time>
      </trkpt>
      <trkpt lat="44.42807" lon="5.92321">
        <ele>800</ele>
        <time>2019-06-12T12:28:32Z</time>
      </trkpt>
      <trkpt lat="44.42809" lon="5.92319">
        <ele>800</ele>
        <time>2019-06-12T12:28:33Z</time>
      </trkpt>
      <trkpt lat="44.42811" lon="5.92317">
        <ele>800</ele>
        <time>2019-06-12T12:28:34Z</time>
      </trkpt>
      <trkpt lat="44.42812" lon="5.92314">
        <ele>800</ele>
        <time>2019-06-12T12:28:35Z</time>
      </trkpt>
      <trkpt lat="44.42814" lon="5.92311">
        <ele>800</ele>
        <time>2019-06-12T12:28:36Z</time>
      </trkpt>
      <trkpt lat="44.42816" lon="5.92309">
        <ele>800</ele>
        <time>2019-06-12T12:28:37Z</time>
      </trkpt>
      <trkpt lat="44.42818" lon="5.92306">
        <ele>800</ele>
        <time>2019-06-12T12:28:38Z</time>
      </trkpt>
      <trkpt lat="44.4282" lon="5.92303">
        <ele>800</ele>
        <time>2019-06-12T12:28:39Z</time>
      </trkpt>
      <trkpt lat="44.42821" lon="5.923">
        <ele>800</ele>
        <time>2019-06-12T12:28:40Z</time>
      </trkpt>
      <trkpt lat="44.42823" lon="5.92296">
        <ele>800</ele>
        <time>2019-06-12T12:28:41Z</time>
      </trkpt>
      <trkpt lat="44.42825" lon="5.92293">
        <ele>801</ele>
        <time>2019-06-12T12:28:42Z</time>
      </trkpt>
      <trkpt lat="44.42828" lon="5.92291">
        <ele>801</ele>
        <time>2019-06-12T12:28:43Z</time>
      </trkpt>
      <trkpt lat="44.4283" lon="5.92288">
        <ele>801</ele>
        <time>2019-06-12T12:28:44Z</time>
      </trkpt>
      <trkpt lat="44.42831" lon="5.92284">
        <ele>801</ele>
        <time>2019-06-12T12:28:45Z</time>
      </trkpt>
      <trkpt lat="44.42833" lon="5.92281">
        <ele>801</ele>
        <time>2019-06-12T12:28:46Z</time>
      </trkpt>
      <trkpt lat="44.42835" lon="5.92278">
        <ele>801</ele>
        <time>2019-06-12T12:28:47Z</time>
      </trkpt>
      <trkpt lat="44.42836" lon="5.92275">
        <ele>801</ele>
        <time>2019-06-12T12:28:48Z</time>
      </trkpt>
      <trkpt lat="44.42838" lon="5.92273">
        <ele>802</ele>
        <time>2019-06-12T12:28:49Z</time>
      </trkpt>
      <trkpt lat="44.4284" lon="5.9227">
        <ele>802</ele>
        <time>2019-06-12T12:28:50Z</time>
      </trkpt>
      <trkpt lat="44.42842" lon="5.92268">
        <ele>802</ele>
        <time>2019-06-12T12:28:51Z</time>
      </trkpt>
      <trkpt lat="44.42844" lon="5.92265">
        <ele>802</ele>
        <time>2019-06-12T12:28:52Z</time>
      </trkpt>
      <trkpt lat="44.42846" lon="5.92263">
        <ele>802</ele>
        <time>2019-06-12T12:28:53Z</time>
      </trkpt>
      <trkpt lat="44.42848" lon="5.9226">
        <ele>803</ele>
        <time>2019-06-12T12:28:54Z</time>
      </trkpt>
      <trkpt lat="44.4285" lon="5.92258">
        <ele>803</ele>
        <time>2019-06-12T12:28:55Z</time>
      </trkpt>
      <trkpt lat="44.42852" lon="5.92255">
        <ele>803</ele>
        <time>2019-06-12T12:28:56Z</time>
      </trkpt>
      <trkpt lat="44.42854" lon="5.92252">
        <ele>803</ele>
        <time>2019-06-12T12:28:57Z</time>
      </trkpt>
      <trkpt lat="44.42856" lon="5.92249">
        <ele>803</ele>
        <time>2019-06-12T12:28:58Z</time>
      </trkpt>
      <trkpt lat="44.42858" lon="5.92245">
        <ele>803</ele>
        <time>2019-06-12T12:28:59Z</time>
      </trkpt>
      <trkpt lat="44.4286" lon="5.92242">
        <ele>803</ele>
        <time>2019-06-12T12:29:00Z</time>
      </trkpt>
      <trkpt lat="44.42862" lon="5.92239">
        <ele>803</ele>
        <time>2019-06-12T12:29:01Z</time>
      </trkpt>
      <trkpt lat="44.42864" lon="5.92236">
        <ele>803</ele>
        <time>2019-06-12T12:29:02Z</time>
      </trkpt>
      <trkpt lat="44.42867" lon="5.92233">
        <ele>804</ele>
        <time>2019-06-12T12:29:03Z</time>
      </trkpt>
      <trkpt lat="44.42869" lon="5.9223">
        <ele>804</ele>
        <time>2019-06-12T12:29:04Z</time>
      </trkpt>
      <trkpt lat="44.42871" lon="5.92227">
        <ele>804</ele>
        <time>2019-06-12T12:29:05Z</time>
      </trkpt>
      <trkpt lat="44.42873" lon="5.92224">
        <ele>804</ele>
        <time>2019-06-12T12:29:06Z</time>
      </trkpt>
      <trkpt lat="44.42875" lon="5.92221">
        <ele>804</ele>
        <time>2019-06-12T12:29:07Z</time>
      </trkpt>
      <trkpt lat="44.42878" lon="5.92218">
        <ele>804</ele>
        <time>2019-06-12T12:29:08Z</time>
      </trkpt>
      <trkpt lat="44.4288" lon="5.92215">
        <ele>805</ele>
        <time>2019-06-12T12:29:09Z</time>
      </trkpt>
      <trkpt lat="44.42882" lon="5.92212">
        <ele>805</ele>
        <time>2019-06-12T12:29:10Z</time>
      </trkpt>
      <trkpt lat="44.42884" lon="5.92209">
        <ele>805</ele>
        <time>2019-06-12T12:29:11Z</time>
      </trkpt>
      <trkpt lat="44.42886" lon="5.92206">
        <ele>805</ele>
        <time>2019-06-12T12:29:12Z</time>
      </trkpt>
      <trkpt lat="44.42889" lon="5.92204">
        <ele>805</ele>
        <time>2019-06-12T12:29:13Z</time>
      </trkpt>
      <trkpt lat="44.42891" lon="5.92201">
        <ele>805</ele>
        <time>2019-06-12T12:29:14Z</time>
      </trkpt>
      <trkpt lat="44.42894" lon="5.92199">
        <ele>805</ele>
        <time>2019-06-12T12:29:15Z</time>
      </trkpt>
      <trkpt lat="44.42896" lon="5.92197">
        <ele>806</ele>
        <time>2019-06-12T12:29:16Z</time>
      </trkpt>
      <trkpt lat="44.42898" lon="5.92194">
        <ele>806</ele>
        <time>2019-06-12T12:29:17Z</time>
      </trkpt>
      <trkpt lat="44.42901" lon="5.9219">
        <ele>806</ele>
        <time>2019-06-12T12:29:18Z</time>
      </trkpt>
      <trkpt lat="44.42903" lon="5.92188">
        <ele>806</ele>
        <time>2019-06-12T12:29:19Z</time>
      </trkpt>
      <trkpt lat="44.42906" lon="5.92184">
        <ele>806</ele>
        <time>2019-06-12T12:29:20Z</time>
      </trkpt>
      <trkpt lat="44.42908" lon="5.92182">
        <ele>806</ele>
        <time>2019-06-12T12:29:21Z</time>
      </trkpt>
      <trkpt lat="44.42911" lon="5.92179">
        <ele>806</ele>
        <time>2019-06-12T12:29:22Z</time>
      </trkpt>
      <trkpt lat="44.42913" lon="5.92176">
        <ele>806</ele>
        <time>2019-06-12T12:29:23Z</time>
      </trkpt>
      <trkpt lat="44.42916" lon="5.92173">
        <ele>806</ele>
        <time>2019-06-12T12:29:24Z</time>
      </trkpt>
      <trkpt lat="44.42919" lon="5.9217">
        <ele>806</ele>
        <time>2019-06-12T12:29:25Z</time>
      </trkpt>
      <trkpt lat="44.42922" lon="5.92168">
        <ele>806</ele>
        <time>2019-06-12T12:29:26Z</time>
      </trkpt>
      <trkpt lat="44.42925" lon="5.92165">
        <ele>806</ele>
        <time>2019-06-12T12:29:27Z</time>
      </trkpt>
      <trkpt lat="44.42928" lon="5.92163">
        <ele>806</ele>
        <time>2019-06-12T12:29:28Z</time>
      </trkpt>
      <trkpt lat="44.42932" lon="5.92161">
        <ele>806</ele>
        <time>2019-06-12T12:29:29Z</time>
      </trkpt>
      <trkpt lat="44.42936" lon="5.92158">
        <ele>806</ele>
        <time>2019-06-12T12:29:30Z</time>
      </trkpt>
      <trkpt lat="44.4294" lon="5.92156">
        <ele>806</ele>
        <time>2019-06-12T12:29:31Z</time>
      </trkpt>
      <trkpt lat="44.42944" lon="5.92154">
        <ele>806</ele>
        <time>2019-06-12T12:29:32Z</time>
      </trkpt>
      <trkpt lat="44.42948" lon="5.92153">
        <ele>806</ele>
        <time>2019-06-12T12:29:33Z</time>
      </trkpt>
      <trkpt lat="44.42953" lon="5.92151">
        <ele>806</ele>
        <time>2019-06-12T12:29:34Z</time>
      </trkpt>
      <trkpt lat="44.42957" lon="5.9215">
        <ele>806</ele>
        <time>2019-06-12T12:29:35Z</time>
      </trkpt>
      <trkpt lat="44.42962" lon="5.9215">
        <ele>806</ele>
        <time>2019-06-12T12:29:36Z</time>
      </trkpt>
      <trkpt lat="44.42967" lon="5.92149">
        <ele>806</ele>
        <time>2019-06-12T12:29:37Z</time>
      </trkpt>
      <trkpt lat="44.42971" lon="5.92149">
        <ele>806</ele>
        <time>2019-06-12T12:29:38Z</time>
      </trkpt>
      <trkpt lat="44.42976" lon="5.92148">
        <ele>806</ele>
        <time>2019-06-12T12:29:39Z</time>
      </trkpt>
      <trkpt lat="44.4298" lon="5.92148">
        <ele>806</ele>
        <time>2019-06-12T12:29:40Z</time>
      </trkpt>
      <trkpt lat="44.42984" lon="5.92147">
        <ele>806</ele>
        <time>2019-06-12T12:29:41Z</time>
      </trkpt>
      <trkpt lat="44.42989" lon="5.92147">
        <ele>806</ele>
        <time>2019-06-12T12:29:42Z</time>
      </trkpt>
      <trkpt lat="44.42992" lon="5.92147">
        <ele>806</ele>
        <time>2019-06-12T12:29:43Z</time>
      </trkpt>
      <trkpt lat="44.42996" lon="5.92147">
        <ele>806</ele>
        <time>2019-06-12T12:29:44Z</time>
      </trkpt>
      <trkpt lat="44.43" lon="5.92146">
        <ele>806</ele>
        <time>2019-06-12T12:29:45Z</time>
      </trkpt>
      <trkpt lat="44.43003" lon="5.92146">
        <ele>806</ele>
        <time>2019-06-12T12:29:46Z</time>
      </trkpt>
      <trkpt lat="44.43007" lon="5.92145">
        <ele>806</ele>
        <time>2019-06-12T12:29:47Z</time>
      </trkpt>
      <trkpt lat="44.4301" lon="5.92145">
        <ele>806</ele>
        <time>2019-06-12T12:29:48Z</time>
      </trkpt>
      <trkpt lat="44.43014" lon="5.92145">
        <ele>806</ele>
        <time>2019-06-12T12:29:49Z</time>
      </trkpt>
      <trkpt lat="44.43017" lon="5.92144">
        <ele>806</ele>
        <time>2019-06-12T12:29:50Z</time>
      </trkpt>
      <trkpt lat="44.43021" lon="5.92144">
        <ele>806</ele>
        <time>2019-06-12T12:29:51Z</time>
      </trkpt>
      <trkpt lat="44.43024" lon="5.92143">
        <ele>806</ele>
        <time>2019-06-12T12:29:52Z</time>
      </trkpt>
      <trkpt lat="44.43027" lon="5.92143">
        <ele>806</ele>
        <time>2019-06-12T12:29:53Z</time>
      </trkpt>
      <trkpt lat="44.43031" lon="5.92142">
        <ele>806</ele>
        <time>2019-06-12T12:29:54Z</time>
      </trkpt>
      <trkpt lat="44.43034" lon="5.92141">
        <ele>807</ele>
        <time>2019-06-12T12:29:55Z</time>
      </trkpt>
      <trkpt lat="44.43037" lon="5.92139">
        <ele>807</ele>
        <time>2019-06-12T12:29:56Z</time>
      </trkpt>
      <trkpt lat="44.43041" lon="5.92138">
        <ele>807</ele>
        <time>2019-06-12T12:29:57Z</time>
      </trkpt>
      <trkpt lat="44.43044" lon="5.92137">
        <ele>807</ele>
        <time>2019-06-12T12:29:58Z</time>
      </trkpt>
      <trkpt lat="44.43047" lon="5.92137">
        <ele>807</ele>
        <time>2019-06-12T12:29:59Z</time>
      </trkpt>
      <trkpt lat="44.4305" lon="5.92137">
        <ele>808</ele>
        <time>2019-06-12T12:30:00Z</time>
      </trkpt>
      <trkpt lat="44.43054" lon="5.92136">
        <ele>808</ele>
        <time>2019-06-12T12:30:01Z</time>
      </trkpt>
      <trkpt lat="44.43057" lon="5.92135">
        <ele>808</ele>
        <time>2019-06-12T12:30:02Z</time>
      </trkpt>
      <trkpt lat="44.4306" lon="5.92135">
        <ele>808</ele>
        <time>2019-06-12T12:30:03Z</time>
      </trkpt>
      <trkpt lat="44.43063" lon="5.92134">
        <ele>809</ele>
        <time>2019-06-12T12:30:04Z</time>
      </trkpt>
      <trkpt lat="44.43067" lon="5.92134">
        <ele>809</ele>
        <time>2019-06-12T12:30:05Z</time>
      </trkpt>
      <trkpt lat="44.4307" lon="5.92133">
        <ele>809</ele>
        <time>2019-06-12T12:30:06Z</time>
      </trkpt>
      <trkpt lat="44.43074" lon="5.92133">
        <ele>809</ele>
        <time>2019-06-12T12:30:07Z</time>
      </trkpt>
      <trkpt lat="44.43077" lon="5.92133">
        <ele>809</ele>
        <time>2019-06-12T12:30:08Z</time>
      </trkpt>
      <trkpt lat="44.43081" lon="5.92133">
        <ele>809</ele>
        <time>2019-06-12T12:30:09Z</time>
      </trkpt>
      <trkpt lat="44.43084" lon="5.92133">
        <ele>809</ele>
        <time>2019-06-12T12:30:10Z</time>
      </trkpt>
      <trkpt lat="44.43088" lon="5.92134">
        <ele>809</ele>
        <time>2019-06-12T12:30:11Z</time>
      </trkpt>
      <trkpt lat="44.43092" lon="5.92135">
        <ele>809</ele>
        <time>2019-06-12T12:30:12Z</time>
      </trkpt>
      <trkpt lat="44.43095" lon="5.92136">
        <ele>809</ele>
        <time>2019-06-12T12:30:13Z</time>
      </trkpt>
      <trkpt lat="44.43099" lon="5.92137">
        <ele>809</ele>
        <time>2019-06-12T12:30:14Z</time>
      </trkpt>
      <trkpt lat="44.43102" lon="5.92138">
        <ele>809</ele>
        <time>2019-06-12T12:30:15Z</time>
      </trkpt>
      <trkpt lat="44.43105" lon="5.9214">
        <ele>809</ele>
        <time>2019-06-12T12:30:16Z</time>
      </trkpt>
      <trkpt lat="44.43109" lon="5.92142">
        <ele>809</ele>
        <time>2019-06-12T12:30:17Z</time>
      </trkpt>
      <trkpt lat="44.43113" lon="5.92143">
        <ele>809</ele>
        <time>2019-06-12T12:30:18Z</time>
      </trkpt>
      <trkpt lat="44.43117" lon="5.92145">
        <ele>809</ele>
        <time>2019-06-12T12:30:19Z</time>
      </trkpt>
      <trkpt lat="44.4312" lon="5.92147">
        <ele>809</ele>
        <time>2019-06-12T12:30:20Z</time>
      </trkpt>
      <trkpt lat="44.43124" lon="5.92149">
        <ele>809</ele>
        <time>2019-06-12T12:30:21Z</time>
      </trkpt>
      <trkpt lat="44.43128" lon="5.9215">
        <ele>809</ele>
        <time>2019-06-12T12:30:22Z</time>
      </trkpt>
      <trkpt lat="44.43131" lon="5.92151">
        <ele>809</ele>
        <time>2019-06-12T12:30:23Z</time>
      </trkpt>
      <trkpt lat="44.43134" lon="5.92152">
        <ele>809</ele>
        <time>2019-06-12T12:30:24Z</time>
      </trkpt>
      <trkpt lat="44.43138" lon="5.92153">
        <ele>809</ele>
        <time>2019-06-12T12:30:25Z</time>
      </trkpt>
      <trkpt lat="44.43142" lon="5.92153">
        <ele>809</ele>
        <time>2019-06-12T12:30:26Z</time>
      </trkpt>
      <trkpt lat="44.43145" lon="5.92153">
        <ele>809</ele>
        <time>2019-06-12T12:30:27Z</time>
      </trkpt>
      <trkpt lat="44.43149" lon="5.92153">
        <ele>809</ele>
        <time>2019-06-12T12:30:28Z</time>
      </trkpt>
      <trkpt lat="44.43153" lon="5.92152">
        <ele>809</ele>
        <time>2019-06-12T12:30:29Z</time>
      </trkpt>
      <trkpt lat="44.43157" lon="5.92151">
        <ele>809</ele>
        <time>2019-06-12T12:30:30Z</time>
      </trkpt>
      <trkpt lat="44.43161" lon="5.9215">
        <ele>810</ele>
        <time>2019-06-12T12:30:31Z</time>
      </trkpt>
      <trkpt lat="44.43164" lon="5.92148">
        <ele>810</ele>
        <time>2019-06-12T12:30:32Z</time>
      </trkpt>
      <trkpt lat="44.43168" lon="5.92146">
        <ele>810</ele>
        <time>2019-06-12T12:30:33Z</time>
      </trkpt>
      <trkpt lat="44.43172" lon="5.92145">
        <ele>810</ele>
        <time>2019-06-12T12:30:34Z</time>
      </trkpt>
      <trkpt lat="44.43176" lon="5.92142">
        <ele>810</ele>
        <time>2019-06-12T12:30:35Z</time>
      </trkpt>
      <trkpt lat="44.4318" lon="5.9214">
        <ele>810</ele>
        <time>2019-06-12T12:30:36Z</time>
      </trkpt>
      <trkpt lat="44.43184" lon="5.92137">
        <ele>810</ele>
        <time>2019-06-12T12:30:37Z</time>
      </trkpt>
      <trkpt lat="44.43188" lon="5.92134">
        <ele>810</ele>
        <time>2019-06-12T12:30:38Z</time>
      </trkpt>
      <trkpt lat="44.43191" lon="5.9213">
        <ele>810</ele>
        <time>2019-06-12T12:30:39Z</time>
      </trkpt>
      <trkpt lat="44.43195" lon="5.92126">
        <ele>810</ele>
        <time>2019-06-12T12:30:40Z</time>
      </trkpt>
      <trkpt lat="44.43199" lon="5.92122">
        <ele>810</ele>
        <time>2019-06-12T12:30:41Z</time>
      </trkpt>
      <trkpt lat="44.43202" lon="5.92118">
        <ele>810</ele>
        <time>2019-06-12T12:30:42Z</time>
      </trkpt>
      <trkpt lat="44.43206" lon="5.92114">
        <ele>810</ele>
        <time>2019-06-12T12:30:43Z</time>
      </trkpt>
      <trkpt lat="44.43209" lon="5.92109">
        <ele>810</ele>
        <time>2019-06-12T12:30:44Z</time>
      </trkpt>
      <trkpt lat="44.43213" lon="5.92105">
        <ele>810</ele>
        <time>2019-06-12T12:30:45Z</time>
      </trkpt>
      <trkpt lat="44.43216" lon="5.921">
        <ele>810</ele>
        <time>2019-06-12T12:30:46Z</time>
      </trkpt>
      <trkpt lat="44.43219" lon="5.92096">
        <ele>810</ele>
        <time>2019-06-12T12:30:47Z</time>
      </trkpt>
      <trkpt lat="44.43223" lon="5.92091">
        <ele>810</ele>
        <time>2019-06-12T12:30:48Z</time>
      </trkpt>
      <trkpt lat="44.43226" lon="5.92086">
        <ele>810</ele>
        <time>2019-06-12T12:30:49Z</time>
      </trkpt>
      <trkpt lat="44.43229" lon="5.92081">
        <ele>810</ele>
        <time>2019-06-12T12:30:50Z</time>
      </trkpt>
      <trkpt lat="44.43232" lon="5.92076">
        <ele>810</ele>
        <time>2019-06-12T12:30:51Z</time>
      </trkpt>
      <trkpt lat="44.43235" lon="5.92071">
        <ele>810</ele>
        <time>2019-06-12T12:30:52Z</time>
      </trkpt>
      <trkpt lat="44.43238" lon="5.92066">
        <ele>810</ele>
        <time>2019-06-12T12:30:53Z</time>
      </trkpt>
      <trkpt lat="44.43242" lon="5.92062">
        <ele>810</ele>
        <time>2019-06-12T12:30:54Z</time>
      </trkpt>
      <trkpt lat="44.43244" lon="5.92057">
        <ele>810</ele>
        <time>2019-06-12T12:30:55Z</time>
      </trkpt>
      <trkpt lat="44.43247" lon="5.92052">
        <ele>810</ele>
        <time>2019-06-12T12:30:56Z</time>
      </trkpt>
      <trkpt lat="44.4325" lon="5.92048">
        <ele>810</ele>
        <time>2019-06-12T12:30:57Z</time>
      </trkpt>
      <trkpt lat="44.43253" lon="5.92043">
        <ele>810</ele>
        <time>2019-06-12T12:30:58Z</time>
      </trkpt>
      <trkpt lat="44.43256" lon="5.92039">
        <ele>810</ele>
        <time>2019-06-12T12:30:59Z</time>
      </trkpt>
      <trkpt lat="44.43258" lon="5.92034">
        <ele>810</ele>
        <time>2019-06-12T12:31:00Z</time>
      </trkpt>
      <trkpt lat="44.43261" lon="5.9203">
        <ele>810</ele>
        <time>2019-06-12T12:31:01Z</time>
      </trkpt>
      <trkpt lat="44.43264" lon="5.92026">
        <ele>810</ele>
        <time>2019-06-12T12:31:02Z</time>
      </trkpt>
      <trkpt lat="44.43267" lon="5.92022">
        <ele>810</ele>
        <time>2019-06-12T12:31:03Z</time>
      </trkpt>
      <trkpt lat="44.43269" lon="5.92018">
        <ele>810</ele>
        <time>2019-06-12T12:31:04Z</time>
      </trkpt>
      <trkpt lat="44.43272" lon="5.92013">
        <ele>810</ele>
        <time>2019-06-12T12:31:05Z</time>
      </trkpt>
      <trkpt lat="44.43275" lon="5.92009">
        <ele>810</ele>
        <time>2019-06-12T12:31:06Z</time>
      </trkpt>
      <trkpt lat="44.43278" lon="5.92004">
        <ele>810</ele>
        <time>2019-06-12T12:31:07Z</time>
      </trkpt>
      <trkpt lat="44.43281" lon="5.91999">
        <ele>810</ele>
        <time>2019-06-12T12:31:08Z</time>
      </trkpt>
      <trkpt lat="44.43284" lon="5.91994">
        <ele>810</ele>
        <time>2019-06-12T12:31:09Z</time>
      </trkpt>
      <trkpt lat="44.43288" lon="5.91989">
        <ele>810</ele>
        <time>2019-06-12T12:31:10Z</time>
      </trkpt>
      <trkpt lat="44.43291" lon="5.91984">
        <ele>810</ele>
        <time>2019-06-12T12:31:11Z</time>
      </trkpt>
      <trkpt lat="44.43294" lon="5.91978">
        <ele>810</ele>
        <time>2019-06-12T12:31:12Z</time>
      </trkpt>
      <trkpt lat="44.43298" lon="5.91972">
        <ele>810</ele>
        <time>2019-06-12T12:31:13Z</time>
      </trkpt>
      <trkpt lat="44.43302" lon="5.91967">
        <ele>810</ele>
        <time>2019-06-12T12:31:14Z</time>
      </trkpt>
      <trkpt lat="44.43306" lon="5.91962">
        <ele>810</ele>
        <time>2019-06-12T12:31:15Z</time>
      </trkpt>
      <trkpt lat="44.4331" lon="5.91957">
        <ele>810</ele>
        <time>2019-06-12T12:31:16Z</time>
      </trkpt>
      <trkpt lat="44.43313" lon="5.91952">
        <ele>810</ele>
        <time>2019-06-12T12:31:17Z</time>
      </trkpt>
      <trkpt lat="44.43317" lon="5.91947">
        <ele>810</ele>
        <time>2019-06-12T12:31:18Z</time>
      </trkpt>
      <trkpt lat="44.43321" lon="5.91943">
        <ele>810</ele>
        <time>2019-06-12T12:31:19Z</time>
      </trkpt>
      <trkpt lat="44.43326" lon="5.91939">
        <ele>810</ele>
        <time>2019-06-12T12:31:20Z</time>
      </trkpt>
      <trkpt lat="44.4333" lon="5.91937">
        <ele>810</ele>
        <time>2019-06-12T12:31:21Z</time>
      </trkpt>
      <trkpt lat="44.43335" lon="5.91937">
        <ele>810</ele>
        <time>2019-06-12T12:31:22Z</time>
      </trkpt>
      <trkpt lat="44.4334" lon="5.91939">
        <ele>810</ele>
        <time>2019-06-12T12:31:23Z</time>
      </trkpt>
      <trkpt lat="44.43343" lon="5.91942">
        <ele>810</ele>
        <time>2019-06-12T12:31:24Z</time>
      </trkpt>
      <trkpt lat="44.43347" lon="5.91947">
        <ele>810</ele>
        <time>2019-06-12T12:31:25Z</time>
      </trkpt>
      <trkpt lat="44.4335" lon="5.91952">
        <ele>810</ele>
        <time>2019-06-12T12:31:26Z</time>
      </trkpt>
      <trkpt lat="44.43352" lon="5.91956">
        <ele>810</ele>
        <time>2019-06-12T12:31:27Z</time>
      </trkpt>
      <trkpt lat="44.43355" lon="5.91959">
        <ele>810</ele>
        <time>2019-06-12T12:31:28Z</time>
      </trkpt>
      <trkpt lat="44.43359" lon="5.91963">
        <ele>810</ele>
        <time>2019-06-12T12:31:29Z</time>
      </trkpt>
      <trkpt lat="44.43362" lon="5.91967">
        <ele>810</ele>
        <time>2019-06-12T12:31:30Z</time>
      </trkpt>
      <trkpt lat="44.43366" lon="5.91969">
        <ele>810</ele>
        <time>2019-06-12T12:31:31Z</time>
      </trkpt>
      <trkpt lat="44.4337" lon="5.9197">
        <ele>810</ele>
        <time>2019-06-12T12:31:32Z</time>
      </trkpt>
      <trkpt lat="44.43374" lon="5.9197">
        <ele>810</ele>
        <time>2019-06-12T12:31:33Z</time>
      </trkpt>
      <trkpt lat="44.43377" lon="5.91969">
        <ele>811</ele>
        <time>2019-06-12T12:31:34Z</time>
      </trkpt>
      <trkpt lat="44.43381" lon="5.91968">
        <ele>811</ele>
        <time>2019-06-12T12:31:35Z</time>
      </trkpt>
      <trkpt lat="44.43384" lon="5.91966">
        <ele>811</ele>
        <time>2019-06-12T12:31:36Z</time>
      </trkpt>
      <trkpt lat="44.43387" lon="5.91964">
        <ele>812</ele>
        <time>2019-06-12T12:31:37Z</time>
      </trkpt>
      <trkpt lat="44.4339" lon="5.91962">
        <ele>812</ele>
        <time>2019-06-12T12:31:38Z</time>
      </trkpt>
      <trkpt lat="44.43393" lon="5.9196">
        <ele>812</ele>
        <time>2019-06-12T12:31:39Z</time>
      </trkpt>
      <trkpt lat="44.43396" lon="5.91959">
        <ele>812</ele>
        <time>2019-06-12T12:31:40Z</time>
      </trkpt>
      <trkpt lat="44.434" lon="5.91957">
        <ele>813</ele>
        <time>2019-06-12T12:31:41Z</time>
      </trkpt>
      <trkpt lat="44.43403" lon="5.91955">
        <ele>813</ele>
        <time>2019-06-12T12:31:42Z</time>
      </trkpt>
      <trkpt lat="44.43406" lon="5.91953">
        <ele>813</ele>
        <time>2019-06-12T12:31:43Z</time>
      </trkpt>
      <trkpt lat="44.43409" lon="5.91951">
        <ele>813</ele>
        <time>2019-06-12T12:31:44Z</time>
      </trkpt>
      <trkpt lat="44.43412" lon="5.9195">
        <ele>813</ele>
        <time>2019-06-12T12:31:45Z</time>
      </trkpt>
      <trkpt lat="44.43414" lon="5.91948">
        <ele>813</ele>
        <time>2019-06-12T12:31:46Z</time>
      </trkpt>
      <trkpt lat="44.43417" lon="5.91946">
        <ele>814</ele>
        <time>2019-06-12T12:31:47Z</time>
      </trkpt>
      <trkpt lat="44.4342" lon="5.91944">
        <ele>814</ele>
        <time>2019-06-12T12:31:48Z</time>
      </trkpt>
      <trkpt lat="44.43422" lon="5.91943">
        <ele>814</ele>
        <time>2019-06-12T12:31:49Z</time>
      </trkpt>
      <trkpt lat="44.43425" lon="5.91941">
        <ele>814</ele>
        <time>2019-06-12T12:31:50Z</time>
      </trkpt>
      <trkpt lat="44.43428" lon="5.91939">
        <ele>814</ele>
        <time>2019-06-12T12:31:51Z</time>
      </trkpt>
      <trkpt lat="44.4343" lon="5.91937">
        <ele>814</ele>
        <time>2019-06-12T12:31:52Z</time>
      </trkpt>
      <trkpt lat="44.43433" lon="5.91936">
        <ele>814</ele>
        <time>2019-06-12T12:31:53Z</time>
      </trkpt>
      <trkpt lat="44.43435" lon="5.91935">
        <ele>814</ele>
        <time>2019-06-12T12:31:54Z</time>
      </trkpt>
      <trkpt lat="44.43437" lon="5.91934">
        <ele>815</ele>
        <time>2019-06-12T12:31:55Z</time>
      </trkpt>
      <trkpt lat="44.43439" lon="5.91933">
        <ele>815</ele>
        <time>2019-06-12T12:31:56Z</time>
      </trkpt>
      <trkpt lat="44.43442" lon="5.91933">
        <ele>815</ele>
        <time>2019-06-12T12:31:57Z</time>
      </trkpt>
      <trkpt lat="44.43444" lon="5.91931">
        <ele>815</ele>
        <time>2019-06-12T12:31:58Z</time>
      </trkpt>
      <trkpt lat="44.43446" lon="5.9193">
        <ele>815</ele>
        <time>2019-06-12T12:31:59Z</time>
      </trkpt>
      <trkpt lat="44.43447" lon="5.91929">
        <ele>815</ele>
        <time>2019-06-12T12:32:00Z</time>
      </trkpt>
      <trkpt lat="44.43449" lon="5.91928">
        <ele>816</ele>
        <time>2019-06-12T12:32:01Z</time>
      </trkpt>
      <trkpt lat="44.4345" lon="5.91927">
        <ele>816</ele>
        <time>2019-06-12T12:32:02Z</time>
      </trkpt>
      <trkpt lat="44.43452" lon="5.91925">
        <ele>816</ele>
        <time>2019-06-12T12:32:04Z</time>
      </trkpt>
      <trkpt lat="44.43453" lon="5.91924">
        <ele>816</ele>
        <time>2019-06-12T12:32:06Z</time>
      </trkpt>
      <trkpt lat="44.43453" lon="5.91922">
        <ele>816</ele>
        <time>2019-06-12T12:32:08Z</time>
      </trkpt>
      <trkpt lat="44.43453" lon="5.91924">
        <ele>817</ele>
        <time>2019-06-12T12:32:29Z</time>
      </trkpt>
      <trkpt lat="44.43452" lon="5.91922">
        <ele>818</ele>
        <time>2019-06-12T12:32:45Z</time>
      </trkpt>
      <trkpt lat="44.43451" lon="5.91922">
        <ele>820</ele>
        <time>2019-06-12T12:33:05Z</time>
      </trkpt>
      <trkpt lat="44.43451" lon="5.91924">
        <ele>822</ele>
        <time>2019-06-12T12:33:30Z</time>
      </trkpt>
      <trkpt lat="44.4345" lon="5.91925">
        <ele>822</ele>
        <time>2019-06-12T12:33:45Z</time>
      </trkpt>
      <trkpt lat="44.4345" lon="5.91924">
        <ele>823</ele>
        <time>2019-06-12T12:34:04Z</time>
      </trkpt>
      <trkpt lat="44.43452" lon="5.91923">
        <ele>823</ele>
        <time>2019-06-12T12:34:24Z</time>
      </trkpt>
      <trkpt lat="44.43453" lon="5.91923">
        <ele>823</ele>
        <time>2019-06-12T12:34:37Z</time>
      </trkpt>
      <trkpt lat="44.43453" lon="5.91924">
        <ele>822</ele>
        <time>2019-06-12T12:36:21Z</time>
      </trkpt>
      <trkpt lat="44.43451" lon="5.91924">
        <ele>822</ele>
        <time>2019-06-12T12:36:36Z</time>
      </trkpt>
      <trkpt lat="44.4345" lon="5.91924">
        <ele>822</ele>
        <time>2019-06-12T12:36:37Z</time>
      </trkpt>
      <trkpt lat="44.43448" lon="5.91925">
        <ele>822</ele>
        <time>2019-06-12T12:36:38Z</time>
      </trkpt>
      <trkpt lat="44.43447" lon="5.91927">
        <ele>822</ele>
        <time>2019-06-12T12:36:39Z</time>
      </trkpt>
      <trkpt lat="44.43446" lon="5.91929">
        <ele>822</ele>
        <time>2019-06-12T12:36:40Z</time>
      </trkpt>
      <trkpt lat="44.43447" lon="5.91931">
        <ele>822</ele>
        <time>2019-06-12T12:36:41Z</time>
      </trkpt>
      <trkpt lat="44.43449" lon="5.91932">
        <ele>822</ele>
        <time>2019-06-12T12:36:42Z</time>
      </trkpt>
      <trkpt lat="44.4345" lon="5.91931">
        <ele>822</ele>
        <time>2019-06-12T12:36:43Z</time>
      </trkpt>
      <trkpt lat="44.43452" lon="5.9193">
        <ele>822</ele>
        <time>2019-06-12T12:36:44Z</time>
      </trkpt>
      <trkpt lat="44.43452" lon="5.91928">
        <ele>822</ele>
        <time>2019-06-12T12:36:45Z</time>
      </trkpt>
      <trkpt lat="44.43453" lon="5.91925">
        <ele>822</ele>
        <time>2019-06-12T12:36:46Z</time>
      </trkpt>
      <trkpt lat="44.43453" lon="5.91923">
        <ele>822</ele>
        <time>2019-06-12T12:36:47Z</time>
      </trkpt>
      <trkpt lat="44.43453" lon="5.9192">
        <ele>822</ele>
        <time>2019-06-12T12:36:48Z</time>
      </trkpt>
      <trkpt lat="44.43453" lon="5.91918">
        <ele>822</ele>
        <time>2019-06-12T12:36:49Z</time>
      </trkpt>
      <trkpt lat="44.43453" lon="5.91915">
        <ele>822</ele>
        <time>2019-06-12T12:36:50Z</time>
      </trkpt>
      <trkpt lat="44.43453" lon="5.91912">
        <ele>822</ele>
        <time>2019-06-12T12:36:51Z</time>
      </trkpt>
      <trkpt lat="44.43454" lon="5.9191">
        <ele>822</ele>
        <time>2019-06-12T12:36:52Z</time>
      </trkpt>
      <trkpt lat="44.43454" lon="5.91907">
        <ele>822</ele>
        <time>2019-06-12T12:36:53Z</time>
      </trkpt>
      <trkpt lat="44.43454" lon="5.91904">
        <ele>822</ele>
        <time>2019-06-12T12:36:54Z</time>
      </trkpt>
      <trkpt lat="44.43455" lon="5.91902">
        <ele>822</ele>
        <time>2019-06-12T12:36:55Z</time>
      </trkpt>
      <trkpt lat="44.43456" lon="5.91899">
        <ele>822</ele>
        <time>2019-06-12T12:36:56Z</time>
      </trkpt>
      <trkpt lat="44.43456" lon="5.91896">
        <ele>822</ele>
        <time>2019-06-12T12:36:57Z</time>
      </trkpt>
      <trkpt lat="44.43457" lon="5.91894">
        <ele>822</ele>
        <time>2019-06-12T12:36:58Z</time>
      </trkpt>
      <trkpt lat="44.43457" lon="5.91891">
        <ele>822</ele>
        <time>2019-06-12T12:36:59Z</time>
      </trkpt>
      <trkpt lat="44.43458" lon="5.91889">
        <ele>822</ele>
        <time>2019-06-12T12:37:00Z</time>
      </trkpt>
      <trkpt lat="44.43459" lon="5.91887">
        <ele>822</ele>
        <time>2019-06-12T12:37:01Z</time>
      </trkpt>
      <trkpt lat="44.4346" lon="5.91885">
        <ele>822</ele>
        <time>2019-06-12T12:37:02Z</time>
      </trkpt>
      <trkpt lat="44.43462" lon="5.91883">
        <ele>822</ele>
        <time>2019-06-12T12:37:03Z</time>
      </trkpt>
      <trkpt lat="44.43463" lon="5.91881">
        <ele>822</ele>
        <time>2019-06-12T12:37:04Z</time>
      </trkpt>
      <trkpt lat="44.43464" lon="5.91879">
        <ele>822</ele>
        <time>2019-06-12T12:37:05Z</time>
      </trkpt>
      <trkpt lat="44.43465" lon="5.91878">
        <ele>823</ele>
        <time>2019-06-12T12:37:06Z</time>
      </trkpt>
      <trkpt lat="44.43466" lon="5.91876">
        <ele>823</ele>
        <time>2019-06-12T12:37:07Z</time>
      </trkpt>
      <trkpt lat="44.43467" lon="5.91875">
        <ele>823</ele>
        <time>2019-06-12T12:37:08Z</time>
      </trkpt>
      <trkpt lat="44.43469" lon="5.91874">
        <ele>823</ele>
        <time>2019-06-12T12:37:09Z</time>
      </trkpt>
      <trkpt lat="44.43471" lon="5.91873">
        <ele>823</ele>
        <time>2019-06-12T12:37:10Z</time>
      </trkpt>
      <trkpt lat="44.43473" lon="5.91872">
        <ele>824</ele>
        <time>2019-06-12T12:37:11Z</time>
      </trkpt>
      <trkpt lat="44.43475" lon="5.91871">
        <ele>824</ele>
        <time>2019-06-12T12:37:12Z</time>
      </trkpt>
      <trkpt lat="44.43477" lon="5.9187">
        <ele>824</ele>
        <time>2019-06-12T12:37:13Z</time>
      </trkpt>
      <trkpt lat="44.43479" lon="5.91869">
        <ele>824</ele>
        <time>2019-06-12T12:37:14Z</time>
      </trkpt>
      <trkpt lat="44.4348" lon="5.91868">
        <ele>825</ele>
        <time>2019-06-12T12:37:15Z</time>
      </trkpt>
      <trkpt lat="44.43482" lon="5.91867">
        <ele>825</ele>
        <time>2019-06-12T12:37:16Z</time>
      </trkpt>
      <trkpt lat="44.43484" lon="5.91866">
        <ele>825</ele>
        <time>2019-06-12T12:37:17Z</time>
      </trkpt>
      <trkpt lat="44.43486" lon="5.91866">
        <ele>825</ele>
        <time>2019-06-12T12:37:18Z</time>
      </trkpt>
      <trkpt lat="44.43488" lon="5.91864">
        <ele>826</ele>
        <time>2019-06-12T12:37:19Z</time>
      </trkpt>
      <trkpt lat="44.4349" lon="5.91863">
        <ele>826</ele>
        <time>2019-06-12T12:37:20Z</time>
      </trkpt>
      <trkpt lat="44.43491" lon="5.91863">
        <ele>826</ele>
        <time>2019-06-12T12:37:21Z</time>
      </trkpt>
      <trkpt lat="44.43493" lon="5.91862">
        <ele>826</ele>
        <time>2019-06-12T12:37:22Z</time>
      </trkpt>
      <trkpt lat="44.43495" lon="5.91862">
        <ele>826</ele>
        <time>2019-06-12T12:37:23Z</time>
      </trkpt>
      <trkpt lat="44.43496" lon="5.91861">
        <ele>826</ele>
        <time>2019-06-12T12:37:24Z</time>
      </trkpt>
      <trkpt lat="44.43499" lon="5.9186">
        <ele>826</ele>
        <time>2019-06-12T12:37:25Z</time>
      </trkpt>
      <trkpt lat="44.43501" lon="5.9186">
        <ele>826</ele>
        <time>2019-06-12T12:37:26Z</time>
      </trkpt>
      <trkpt lat="44.43504" lon="5.91859">
        <ele>826</ele>
        <time>2019-06-12T12:37:27Z</time>
      </trkpt>
      <trkpt lat="44.43505" lon="5.91858">
        <ele>826</ele>
        <time>2019-06-12T12:37:28Z</time>
      </trkpt>
      <trkpt lat="44.43508" lon="5.91858">
        <ele>827</ele>
        <time>2019-06-12T12:37:30Z</time>
      </trkpt>
      <trkpt lat="44.43509" lon="5.91858">
        <ele>827</ele>
        <time>2019-06-12T12:37:31Z</time>
      </trkpt>
      <trkpt lat="44.43511" lon="5.91857">
        <ele>827</ele>
        <time>2019-06-12T12:37:32Z</time>
      </trkpt>
      <trkpt lat="44.43513" lon="5.91856">
        <ele>827</ele>
        <time>2019-06-12T12:37:33Z</time>
      </trkpt>
      <trkpt lat="44.43516" lon="5.91856">
        <ele>827</ele>
        <time>2019-06-12T12:37:34Z</time>
      </trkpt>
      <trkpt lat="44.43519" lon="5.91854">
        <ele>827</ele>
        <time>2019-06-12T12:37:35Z</time>
      </trkpt>
      <trkpt lat="44.43521" lon="5.91853">
        <ele>827</ele>
        <time>2019-06-12T12:37:36Z</time>
      </trkpt>
      <trkpt lat="44.43523" lon="5.9185">
        <ele>827</ele>
        <time>2019-06-12T12:37:37Z</time>
      </trkpt>
      <trkpt lat="44.43523" lon="5.91846">
        <ele>827</ele>
        <time>2019-06-12T12:37:38Z</time>
      </trkpt>
      <trkpt lat="44.43523" lon="5.91842">
        <ele>827</ele>
        <time>2019-06-12T12:37:39Z</time>
      </trkpt>
      <trkpt lat="44.43524" lon="5.91839">
        <ele>827</ele>
        <time>2019-06-12T12:37:40Z</time>
      </trkpt>
      <trkpt lat="44.43524" lon="5.91836">
        <ele>827</ele>
        <time>2019-06-12T12:37:41Z</time>
      </trkpt>
      <trkpt lat="44.43523" lon="5.91832">
        <ele>827</ele>
        <time>2019-06-12T12:37:42Z</time>
      </trkpt>
      <trkpt lat="44.43522" lon="5.91828">
        <ele>828</ele>
        <time>2019-06-12T12:37:43Z</time>
      </trkpt>
      <trkpt lat="44.43521" lon="5.91823">
        <ele>828</ele>
        <time>2019-06-12T12:37:44Z</time>
      </trkpt>
      <trkpt lat="44.43521" lon="5.9182">
        <ele>829</ele>
        <time>2019-06-12T12:37:45Z</time>
      </trkpt>
      <trkpt lat="44.43521" lon="5.91817">
        <ele>830</ele>
        <time>2019-06-12T12:37:46Z</time>
      </trkpt>
      <trkpt lat="44.4352" lon="5.91812">
        <ele>830</ele>
        <time>2019-06-12T12:37:47Z</time>
      </trkpt>
      <trkpt lat="44.43519" lon="5.91808">
        <ele>831</ele>
        <time>2019-06-12T12:37:48Z</time>
      </trkpt>
      <trkpt lat="44.43518" lon="5.91805">
        <ele>832</ele>
        <time>2019-06-12T12:37:49Z</time>
      </trkpt>
      <trkpt lat="44.43519" lon="5.91802">
        <ele>832</ele>
        <time>2019-06-12T12:37:50Z</time>
      </trkpt>
      <trkpt lat="44.4352" lon="5.91799">
        <ele>832</ele>
        <time>2019-06-12T12:37:51Z</time>
      </trkpt>
      <trkpt lat="44.4352" lon="5.91796">
        <ele>832</ele>
        <time>2019-06-12T12:37:52Z</time>
      </trkpt>
      <trkpt lat="44.43522" lon="5.91793">
        <ele>832</ele>
        <time>2019-06-12T12:37:53Z</time>
      </trkpt>
      <trkpt lat="44.43524" lon="5.91791">
        <ele>832</ele>
        <time>2019-06-12T12:37:54Z</time>
      </trkpt>
      <trkpt lat="44.43525" lon="5.91788">
        <ele>833</ele>
        <time>2019-06-12T12:37:55Z</time>
      </trkpt>
      <trkpt lat="44.43528" lon="5.91787">
        <ele>833</ele>
        <time>2019-06-12T12:37:56Z</time>
      </trkpt>
      <trkpt lat="44.43531" lon="5.91787">
        <ele>833</ele>
        <time>2019-06-12T12:37:57Z</time>
      </trkpt>
      <trkpt lat="44.43534" lon="5.91787">
        <ele>834</ele>
        <time>2019-06-12T12:37:58Z</time>
      </trkpt>
      <trkpt lat="44.43536" lon="5.91788">
        <ele>834</ele>
        <time>2019-06-12T12:37:59Z</time>
      </trkpt>
      <trkpt lat="44.43538" lon="5.91788">
        <ele>835</ele>
        <time>2019-06-12T12:38:00Z</time>
      </trkpt>
      <trkpt lat="44.4354" lon="5.91789">
        <ele>835</ele>
        <time>2019-06-12T12:38:01Z</time>
      </trkpt>
      <trkpt lat="44.43541" lon="5.91791">
        <ele>836</ele>
        <time>2019-06-12T12:38:02Z</time>
      </trkpt>
      <trkpt lat="44.43544" lon="5.91792">
        <ele>836</ele>
        <time>2019-06-12T12:38:03Z</time>
      </trkpt>
      <trkpt lat="44.43546" lon="5.91794">
        <ele>836</ele>
        <time>2019-06-12T12:38:04Z</time>
      </trkpt>
      <trkpt lat="44.43547" lon="5.91795">
        <ele>836</ele>
        <time>2019-06-12T12:38:05Z</time>
      </trkpt>
      <trkpt lat="44.4355" lon="5.91796">
        <ele>837</ele>
        <time>2019-06-12T12:38:06Z</time>
      </trkpt>
      <trkpt lat="44.43552" lon="5.91798">
        <ele>837</ele>
        <time>2019-06-12T12:38:07Z</time>
      </trkpt>
      <trkpt lat="44.43555" lon="5.91801">
        <ele>837</ele>
        <time>2019-06-12T12:38:08Z</time>
      </trkpt>
      <trkpt lat="44.43556" lon="5.91802">
        <ele>837</ele>
        <time>2019-06-12T12:38:09Z</time>
      </trkpt>
      <trkpt lat="44.43558" lon="5.91803">
        <ele>837</ele>
        <time>2019-06-12T12:38:10Z</time>
      </trkpt>
      <trkpt lat="44.4356" lon="5.91804">
        <ele>837</ele>
        <time>2019-06-12T12:38:11Z</time>
      </trkpt>
      <trkpt lat="44.43562" lon="5.91805">
        <ele>837</ele>
        <time>2019-06-12T12:38:12Z</time>
      </trkpt>
      <trkpt lat="44.43564" lon="5.91807">
        <ele>837</ele>
        <time>2019-06-12T12:38:13Z</time>
      </trkpt>
      <trkpt lat="44.43566" lon="5.91808">
        <ele>837</ele>
        <time>2019-06-12T12:38:14Z</time>
      </trkpt>
      <trkpt lat="44.43568" lon="5.91808">
        <ele>837</ele>
        <time>2019-06-12T12:38:15Z</time>
      </trkpt>
      <trkpt lat="44.4357" lon="5.91809">
        <ele>838</ele>
        <time>2019-06-12T12:38:16Z</time>
      </trkpt>
      <trkpt lat="44.43571" lon="5.91809">
        <ele>838</ele>
        <time>2019-06-12T12:38:17Z</time>
      </trkpt>
      <trkpt lat="44.43573" lon="5.91811">
        <ele>838</ele>
        <time>2019-06-12T12:38:18Z</time>
      </trkpt>
      <trkpt lat="44.43575" lon="5.91812">
        <ele>838</ele>
        <time>2019-06-12T12:38:19Z</time>
      </trkpt>
      <trkpt lat="44.43577" lon="5.91813">
        <ele>838</ele>
        <time>2019-06-12T12:38:20Z</time>
      </trkpt>
      <trkpt lat="44.43579" lon="5.91814">
        <ele>839</ele>
        <time>2019-06-12T12:38:21Z</time>
      </trkpt>
      <trkpt lat="44.43582" lon="5.91815">
        <ele>839</ele>
        <time>2019-06-12T12:38:22Z</time>
      </trkpt>
      <trkpt lat="44.43584" lon="5.91815">
        <ele>839</ele>
        <time>2019-06-12T12:38:23Z</time>
      </trkpt>
      <trkpt lat="44.43586" lon="5.91816">
        <ele>839</ele>
        <time>2019-06-12T12:38:24Z</time>
      </trkpt>
      <trkpt lat="44.43589" lon="5.91816">
        <ele>839</ele>
        <time>2019-06-12T12:38:25Z</time>
      </trkpt>
      <trkpt lat="44.43592" lon="5.91816">
        <ele>839</ele>
        <time>2019-06-12T12:38:26Z</time>
      </trkpt>
      <trkpt lat="44.43595" lon="5.91816">
        <ele>839</ele>
        <time>2019-06-12T12:38:27Z</time>
      </trkpt>
      <trkpt lat="44.43598" lon="5.91816">
        <ele>839</ele>
        <time>2019-06-12T12:38:28Z</time>
      </trkpt>
      <trkpt lat="44.43601" lon="5.91815">
        <ele>839</ele>
        <time>2019-06-12T12:38:29Z</time>
      </trkpt>
      <trkpt lat="44.43604" lon="5.91814">
        <ele>840</ele>
        <time>2019-06-12T12:38:30Z</time>
      </trkpt>
      <trkpt lat="44.43607" lon="5.91813">
        <ele>840</ele>
        <time>2019-06-12T12:38:31Z</time>
      </trkpt>
      <trkpt lat="44.43609" lon="5.91811">
        <ele>840</ele>
        <time>2019-06-12T12:38:32Z</time>
      </trkpt>
      <trkpt lat="44.43611" lon="5.91809">
        <ele>840</ele>
        <time>2019-06-12T12:38:33Z</time>
      </trkpt>
      <trkpt lat="44.43613" lon="5.91807">
        <ele>840</ele>
        <time>2019-06-12T12:38:34Z</time>
      </trkpt>
      <trkpt lat="44.43615" lon="5.91806">
        <ele>840</ele>
        <time>2019-06-12T12:38:35Z</time>
      </trkpt>
      <trkpt lat="44.43617" lon="5.91805">
        <ele>840</ele>
        <time>2019-06-12T12:38:36Z</time>
      </trkpt>
      <trkpt lat="44.43619" lon="5.91804">
        <ele>840</ele>
        <time>2019-06-12T12:38:37Z</time>
      </trkpt>
      <trkpt lat="44.43621" lon="5.91806">
        <ele>840</ele>
        <time>2019-06-12T12:38:38Z</time>
      </trkpt>
      <trkpt lat="44.43624" lon="5.91806">
        <ele>840</ele>
        <time>2019-06-12T12:38:39Z</time>
      </trkpt>
      <trkpt lat="44.43626" lon="5.91806">
        <ele>840</ele>
        <time>2019-06-12T12:38:40Z</time>
      </trkpt>
      <trkpt lat="44.43629" lon="5.91806">
        <ele>841</ele>
        <time>2019-06-12T12:38:41Z</time>
      </trkpt>
      <trkpt lat="44.43631" lon="5.91806">
        <ele>841</ele>
        <time>2019-06-12T12:38:42Z</time>
      </trkpt>
      <trkpt lat="44.43633" lon="5.91805">
        <ele>841</ele>
        <time>2019-06-12T12:38:43Z</time>
      </trkpt>
      <trkpt lat="44.43634" lon="5.91803">
        <ele>841</ele>
        <time>2019-06-12T12:38:44Z</time>
      </trkpt>
      <trkpt lat="44.43637" lon="5.91802">
        <ele>841</ele>
        <time>2019-06-12T12:38:45Z</time>
      </trkpt>
      <trkpt lat="44.43639" lon="5.91799">
        <ele>841</ele>
        <time>2019-06-12T12:38:46Z</time>
      </trkpt>
      <trkpt lat="44.43642" lon="5.91797">
        <ele>841</ele>
        <time>2019-06-12T12:38:47Z</time>
      </trkpt>
      <trkpt lat="44.43644" lon="5.91794">
        <ele>841</ele>
        <time>2019-06-12T12:38:48Z</time>
      </trkpt>
      <trkpt lat="44.43646" lon="5.9179">
        <ele>841</ele>
        <time>2019-06-12T12:38:49Z</time>
      </trkpt>
      <trkpt lat="44.43647" lon="5.91786">
        <ele>841</ele>
        <time>2019-06-12T12:38:50Z</time>
      </trkpt>
      <trkpt lat="44.43649" lon="5.91782">
        <ele>841</ele>
        <time>2019-06-12T12:38:51Z</time>
      </trkpt>
      <trkpt lat="44.4365" lon="5.91778">
        <ele>841</ele>
        <time>2019-06-12T12:38:52Z</time>
      </trkpt>
      <trkpt lat="44.43651" lon="5.91775">
        <ele>841</ele>
        <time>2019-06-12T12:38:53Z</time>
      </trkpt>
      <trkpt lat="44.43652" lon="5.9177">
        <ele>841</ele>
        <time>2019-06-12T12:38:54Z</time>
      </trkpt>
      <trkpt lat="44.43653" lon="5.91766">
        <ele>841</ele>
        <time>2019-06-12T12:38:55Z</time>
      </trkpt>
      <trkpt lat="44.43655" lon="5.91762">
        <ele>841</ele>
        <time>2019-06-12T12:38:56Z</time>
      </trkpt>
      <trkpt lat="44.43656" lon="5.91759">
        <ele>841</ele>
        <time>2019-06-12T12:38:57Z</time>
      </trkpt>
      <trkpt lat="44.43658" lon="5.91755">
        <ele>842</ele>
        <time>2019-06-12T12:38:58Z</time>
      </trkpt>
      <trkpt lat="44.4366" lon="5.91752">
        <ele>842</ele>
        <time>2019-06-12T12:38:59Z</time>
      </trkpt>
      <trkpt lat="44.43662" lon="5.91748">
        <ele>842</ele>
        <time>2019-06-12T12:39:00Z</time>
      </trkpt>
      <trkpt lat="44.43663" lon="5.91744">
        <ele>842</ele>
        <time>2019-06-12T12:39:01Z</time>
      </trkpt>
      <trkpt lat="44.43666" lon="5.91741">
        <ele>842</ele>
        <time>2019-06-12T12:39:02Z</time>
      </trkpt>
      <trkpt lat="44.43668" lon="5.91737">
        <ele>842</ele>
        <time>2019-06-12T12:39:03Z</time>
      </trkpt>
      <trkpt lat="44.43671" lon="5.91734">
        <ele>842</ele>
        <time>2019-06-12T12:39:04Z</time>
      </trkpt>
      <trkpt lat="44.43673" lon="5.9173">
        <ele>842</ele>
        <time>2019-06-12T12:39:05Z</time>
      </trkpt>
      <trkpt lat="44.43676" lon="5.91727">
        <ele>842</ele>
        <time>2019-06-12T12:39:06Z</time>
      </trkpt>
      <trkpt lat="44.43678" lon="5.91723">
        <ele>842</ele>
        <time>2019-06-12T12:39:07Z</time>
      </trkpt>
      <trkpt lat="44.43681" lon="5.9172">
        <ele>842</ele>
        <time>2019-06-12T12:39:08Z</time>
      </trkpt>
      <trkpt lat="44.43683" lon="5.91717">
        <ele>842</ele>
        <time>2019-06-12T12:39:09Z</time>
      </trkpt>
      <trkpt lat="44.43686" lon="5.91714">
        <ele>842</ele>
        <time>2019-06-12T12:39:10Z</time>
      </trkpt>
      <trkpt lat="44.43689" lon="5.91712">
        <ele>843</ele>
        <time>2019-06-12T12:39:11Z</time>
      </trkpt>
      <trkpt lat="44.43692" lon="5.9171">
        <ele>843</ele>
        <time>2019-06-12T12:39:12Z</time>
      </trkpt>
      <trkpt lat="44.43696" lon="5.91709">
        <ele>843</ele>
        <time>2019-06-12T12:39:13Z</time>
      </trkpt>
      <trkpt lat="44.437" lon="5.91709">
        <ele>843</ele>
        <time>2019-06-12T12:39:14Z</time>
      </trkpt>
      <trkpt lat="44.43704" lon="5.91712">
        <ele>843</ele>
        <time>2019-06-12T12:39:15Z</time>
      </trkpt>
      <trkpt lat="44.43707" lon="5.91715">
        <ele>843</ele>
        <time>2019-06-12T12:39:16Z</time>
      </trkpt>
      <trkpt lat="44.4371" lon="5.91721">
        <ele>844</ele>
        <time>2019-06-12T12:39:17Z</time>
      </trkpt>
      <trkpt lat="44.43711" lon="5.91726">
        <ele>844</ele>
        <time>2019-06-12T12:39:18Z</time>
      </trkpt>
      <trkpt lat="44.43712" lon="5.91731">
        <ele>844</ele>
        <time>2019-06-12T12:39:19Z</time>
      </trkpt>
      <trkpt lat="44.43713" lon="5.91736">
        <ele>844</ele>
        <time>2019-06-12T12:39:20Z</time>
      </trkpt>
      <trkpt lat="44.43713" lon="5.91741">
        <ele>845</ele>
        <time>2019-06-12T12:39:21Z</time>
      </trkpt>
      <trkpt lat="44.43715" lon="5.91746">
        <ele>845</ele>
        <time>2019-06-12T12:39:22Z</time>
      </trkpt>
      <trkpt lat="44.43716" lon="5.91751">
        <ele>845</ele>
        <time>2019-06-12T12:39:23Z</time>
      </trkpt>
      <trkpt lat="44.43718" lon="5.91756">
        <ele>845</ele>
        <time>2019-06-12T12:39:24Z</time>
      </trkpt>
      <trkpt lat="44.4372" lon="5.9176">
        <ele>845</ele>
        <time>2019-06-12T12:39:25Z</time>
      </trkpt>
      <trkpt lat="44.43723" lon="5.91763">
        <ele>845</ele>
        <time>2019-06-12T12:39:26Z</time>
      </trkpt>
      <trkpt lat="44.43727" lon="5.91765">
        <ele>845</ele>
        <time>2019-06-12T12:39:27Z</time>
      </trkpt>
      <trkpt lat="44.43732" lon="5.91765">
        <ele>845</ele>
        <time>2019-06-12T12:39:28Z</time>
      </trkpt>
      <trkpt lat="44.43736" lon="5.91764">
        <ele>845</ele>
        <time>2019-06-12T12:39:29Z</time>
      </trkpt>
      <trkpt lat="44.4374" lon="5.91762">
        <ele>845</ele>
        <time>2019-06-12T12:39:30Z</time>
      </trkpt>
      <trkpt lat="44.43744" lon="5.91761">
        <ele>845</ele>
        <time>2019-06-12T12:39:31Z</time>
      </trkpt>
      <trkpt lat="44.43748" lon="5.91759">
        <ele>845</ele>
        <time>2019-06-12T12:39:32Z</time>
      </trkpt>
      <trkpt lat="44.43752" lon="5.91757">
        <ele>845</ele>
        <time>2019-06-12T12:39:33Z</time>
      </trkpt>
      <trkpt lat="44.43755" lon="5.91756">
        <ele>845</ele>
        <time>2019-06-12T12:39:34Z</time>
      </trkpt>
      <trkpt lat="44.43759" lon="5.91754">
        <ele>845</ele>
        <time>2019-06-12T12:39:35Z</time>
      </trkpt>
      <trkpt lat="44.43763" lon="5.91752">
        <ele>845</ele>
        <time>2019-06-12T12:39:36Z</time>
      </trkpt>
      <trkpt lat="44.43767" lon="5.91751">
        <ele>845</ele>
        <time>2019-06-12T12:39:37Z</time>
      </trkpt>
      <trkpt lat="44.4377" lon="5.91749">
        <ele>846</ele>
        <time>2019-06-12T12:39:38Z</time>
      </trkpt>
      <trkpt lat="44.43774" lon="5.91747">
        <ele>846</ele>
        <time>2019-06-12T12:39:39Z</time>
      </trkpt>
      <trkpt lat="44.43777" lon="5.91744">
        <ele>846</ele>
        <time>2019-06-12T12:39:40Z</time>
      </trkpt>
      <trkpt lat="44.43781" lon="5.91742">
        <ele>846</ele>
        <time>2019-06-12T12:39:41Z</time>
      </trkpt>
      <trkpt lat="44.43784" lon="5.91738">
        <ele>846</ele>
        <time>2019-06-12T12:39:42Z</time>
      </trkpt>
      <trkpt lat="44.43787" lon="5.91735">
        <ele>846</ele>
        <time>2019-06-12T12:39:43Z</time>
      </trkpt>
      <trkpt lat="44.4379" lon="5.91732">
        <ele>847</ele>
        <time>2019-06-12T12:39:44Z</time>
      </trkpt>
      <trkpt lat="44.43793" lon="5.91729">
        <ele>847</ele>
        <time>2019-06-12T12:39:45Z</time>
      </trkpt>
      <trkpt lat="44.43796" lon="5.91726">
        <ele>848</ele>
        <time>2019-06-12T12:39:46Z</time>
      </trkpt>
      <trkpt lat="44.43799" lon="5.91723">
        <ele>848</ele>
        <time>2019-06-12T12:39:47Z</time>
      </trkpt>
      <trkpt lat="44.43802" lon="5.9172">
        <ele>849</ele>
        <time>2019-06-12T12:39:48Z</time>
      </trkpt>
      <trkpt lat="44.43805" lon="5.91718">
        <ele>849</ele>
        <time>2019-06-12T12:39:49Z</time>
      </trkpt>
      <trkpt lat="44.43808" lon="5.91715">
        <ele>850</ele>
        <time>2019-06-12T12:39:50Z</time>
      </trkpt>
      <trkpt lat="44.43811" lon="5.91712">
        <ele>850</ele>
        <time>2019-06-12T12:39:51Z</time>
      </trkpt>
      <trkpt lat="44.43813" lon="5.9171">
        <ele>851</ele>
        <time>2019-06-12T12:39:52Z</time>
      </trkpt>
      <trkpt lat="44.43816" lon="5.91707">
        <ele>851</ele>
        <time>2019-06-12T12:39:53Z</time>
      </trkpt>
      <trkpt lat="44.43819" lon="5.91704">
        <ele>851</ele>
        <time>2019-06-12T12:39:54Z</time>
      </trkpt>
      <trkpt lat="44.43821" lon="5.91702">
        <ele>852</ele>
        <time>2019-06-12T12:39:55Z</time>
      </trkpt>
      <trkpt lat="44.43824" lon="5.91699">
        <ele>852</ele>
        <time>2019-06-12T12:39:56Z</time>
      </trkpt>
      <trkpt lat="44.43827" lon="5.91696">
        <ele>852</ele>
        <time>2019-06-12T12:39:57Z</time>
      </trkpt>
      <trkpt lat="44.43829" lon="5.91694">
        <ele>852</ele>
        <time>2019-06-12T12:39:58Z</time>
      </trkpt>
      <trkpt lat="44.43832" lon="5.91691">
        <ele>853</ele>
        <time>2019-06-12T12:39:59Z</time>
      </trkpt>
      <trkpt lat="44.43835" lon="5.91689">
        <ele>853</ele>
        <time>2019-06-12T12:40:00Z</time>
      </trkpt>
      <trkpt lat="44.43837" lon="5.91686">
        <ele>853</ele>
        <time>2019-06-12T12:40:01Z</time>
      </trkpt>
      <trkpt lat="44.4384" lon="5.91684">
        <ele>853</ele>
        <time>2019-06-12T12:40:02Z</time>
      </trkpt>
      <trkpt lat="44.43843" lon="5.91681">
        <ele>854</ele>
        <time>2019-06-12T12:40:03Z</time>
      </trkpt>
      <trkpt lat="44.43845" lon="5.91679">
        <ele>854</ele>
        <time>2019-06-12T12:40:04Z</time>
      </trkpt>
      <trkpt lat="44.43848" lon="5.91677">
        <ele>854</ele>
        <time>2019-06-12T12:40:05Z</time>
      </trkpt>
      <trkpt lat="44.43851" lon="5.91674">
        <ele>854</ele>
        <time>2019-06-12T12:40:06Z</time>
      </trkpt>
      <trkpt lat="44.43853" lon="5.91672">
        <ele>855</ele>
        <time>2019-06-12T12:40:07Z</time>
      </trkpt>
      <trkpt lat="44.43856" lon="5.9167">
        <ele>855</ele>
        <time>2019-06-12T12:40:08Z</time>
      </trkpt>
      <trkpt lat="44.43858" lon="5.91668">
        <ele>855</ele>
        <time>2019-06-12T12:40:09Z</time>
      </trkpt>
      <trkpt lat="44.43861" lon="5.91666">
        <ele>856</ele>
        <time>2019-06-12T12:40:10Z</time>
      </trkpt>
      <trkpt lat="44.43863" lon="5.91663">
        <ele>856</ele>
        <time>2019-06-12T12:40:11Z</time>
      </trkpt>
      <trkpt lat="44.43866" lon="5.91661">
        <ele>856</ele>
        <time>2019-06-12T12:40:12Z</time>
      </trkpt>
      <trkpt lat="44.43868" lon="5.91659">
        <ele>856</ele>
        <time>2019-06-12T12:40:13Z</time>
      </trkpt>
      <trkpt lat="44.43871" lon="5.91656">
        <ele>857</ele>
        <time>2019-06-12T12:40:14Z</time>
      </trkpt>
      <trkpt lat="44.43873" lon="5.91654">
        <ele>857</ele>
        <time>2019-06-12T12:40:15Z</time>
      </trkpt>
      <trkpt lat="44.43875" lon="5.91652">
        <ele>857</ele>
        <time>2019-06-12T12:40:16Z</time>
      </trkpt>
      <trkpt lat="44.43878" lon="5.91649">
        <ele>857</ele>
        <time>2019-06-12T12:40:17Z</time>
      </trkpt>
      <trkpt lat="44.4388" lon="5.91647">
        <ele>857</ele>
        <time>2019-06-12T12:40:18Z</time>
      </trkpt>
      <trkpt lat="44.43882" lon="5.91645">
        <ele>858</ele>
        <time>2019-06-12T12:40:19Z</time>
      </trkpt>
      <trkpt lat="44.43885" lon="5.91643">
        <ele>858</ele>
        <time>2019-06-12T12:40:20Z</time>
      </trkpt>
      <trkpt lat="44.43887" lon="5.9164">
        <ele>858</ele>
        <time>2019-06-12T12:40:21Z</time>
      </trkpt>
      <trkpt lat="44.4389" lon="5.91638">
        <ele>858</ele>
        <time>2019-06-12T12:40:22Z</time>
      </trkpt>
      <trkpt lat="44.43892" lon="5.91636">
        <ele>859</ele>
        <time>2019-06-12T12:40:23Z</time>
      </trkpt>
      <trkpt lat="44.43894" lon="5.91634">
        <ele>859</ele>
        <time>2019-06-12T12:40:24Z</time>
      </trkpt>
      <trkpt lat="44.43896" lon="5.91632">
        <ele>859</ele>
        <time>2019-06-12T12:40:25Z</time>
      </trkpt>
      <trkpt lat="44.43899" lon="5.9163">
        <ele>859</ele>
        <time>2019-06-12T12:40:26Z</time>
      </trkpt>
      <trkpt lat="44.43901" lon="5.91627">
        <ele>859</ele>
        <time>2019-06-12T12:40:27Z</time>
      </trkpt>
      <trkpt lat="44.43903" lon="5.91624">
        <ele>860</ele>
        <time>2019-06-12T12:40:28Z</time>
      </trkpt>
      <trkpt lat="44.43905" lon="5.91621">
        <ele>860</ele>
        <time>2019-06-12T12:40:29Z</time>
      </trkpt>
      <trkpt lat="44.43907" lon="5.91619">
        <ele>860</ele>
        <time>2019-06-12T12:40:30Z</time>
      </trkpt>
      <trkpt lat="44.4391" lon="5.91616">
        <ele>860</ele>
        <time>2019-06-12T12:40:31Z</time>
      </trkpt>
      <trkpt lat="44.43912" lon="5.91614">
        <ele>860</ele>
        <time>2019-06-12T12:40:32Z</time>
      </trkpt>
      <trkpt lat="44.43914" lon="5.91611">
        <ele>860</ele>
        <time>2019-06-12T12:40:33Z</time>
      </trkpt>
      <trkpt lat="44.43916" lon="5.91608">
        <ele>860</ele>
        <time>2019-06-12T12:40:34Z</time>
      </trkpt>
      <trkpt lat="44.43918" lon="5.91605">
        <ele>861</ele>
        <time>2019-06-12T12:40:35Z</time>
      </trkpt>
      <trkpt lat="44.4392" lon="5.91602">
        <ele>861</ele>
        <time>2019-06-12T12:40:36Z</time>
      </trkpt>
      <trkpt lat="44.43922" lon="5.91599">
        <ele>861</ele>
        <time>2019-06-12T12:40:37Z</time>
      </trkpt>
      <trkpt lat="44.43924" lon="5.91596">
        <ele>861</ele>
        <time>2019-06-12T12:40:38Z</time>
      </trkpt>
      <trkpt lat="44.43926" lon="5.91592">
        <ele>861</ele>
        <time>2019-06-12T12:40:39Z</time>
      </trkpt>
      <trkpt lat="44.43927" lon="5.91589">
        <ele>861</ele>
        <time>2019-06-12T12:40:40Z</time>
      </trkpt>
      <trkpt lat="44.43929" lon="5.91585">
        <ele>861</ele>
        <time>2019-06-12T12:40:41Z</time>
      </trkpt>
      <trkpt lat="44.4393" lon="5.91582">
        <ele>861</ele>
        <time>2019-06-12T12:40:42Z</time>
      </trkpt>
      <trkpt lat="44.43932" lon="5.91579">
        <ele>861</ele>
        <time>2019-06-12T12:40:43Z</time>
      </trkpt>
      <trkpt lat="44.43933" lon="5.91576">
        <ele>861</ele>
        <time>2019-06-12T12:40:44Z</time>
      </trkpt>
      <trkpt lat="44.43935" lon="5.91573">
        <ele>861</ele>
        <time>2019-06-12T12:40:45Z</time>
      </trkpt>
      <trkpt lat="44.43936" lon="5.9157">
        <ele>861</ele>
        <time>2019-06-12T12:40:46Z</time>
      </trkpt>
      <trkpt lat="44.43937" lon="5.91567">
        <ele>861</ele>
        <time>2019-06-12T12:40:47Z</time>
      </trkpt>
      <trkpt lat="44.43938" lon="5.91564">
        <ele>861</ele>
        <time>2019-06-12T12:40:48Z</time>
      </trkpt>
      <trkpt lat="44.4394" lon="5.91561">
        <ele>861</ele>
        <time>2019-06-12T12:40:49Z</time>
      </trkpt>
      <trkpt lat="44.43941" lon="5.91557">
        <ele>861</ele>
        <time>2019-06-12T12:40:50Z</time>
      </trkpt>
      <trkpt lat="44.43943" lon="5.91554">
        <ele>861</ele>
        <time>2019-06-12T12:40:51Z</time>
      </trkpt>
      <trkpt lat="44.43944" lon="5.9155">
        <ele>861</ele>
        <time>2019-06-12T12:40:52Z</time>
      </trkpt>
      <trkpt lat="44.43946" lon="5.91547">
        <ele>861</ele>
        <time>2019-06-12T12:40:53Z</time>
      </trkpt>
      <trkpt lat="44.43947" lon="5.91544">
        <ele>861</ele>
        <time>2019-06-12T12:40:54Z</time>
      </trkpt>
      <trkpt lat="44.43949" lon="5.9154">
        <ele>861</ele>
        <time>2019-06-12T12:40:55Z</time>
      </trkpt>
      <trkpt lat="44.43951" lon="5.91537">
        <ele>861</ele>
        <time>2019-06-12T12:40:56Z</time>
      </trkpt>
      <trkpt lat="44.43953" lon="5.91534">
        <ele>862</ele>
        <time>2019-06-12T12:40:57Z</time>
      </trkpt>
      <trkpt lat="44.43954" lon="5.9153">
        <ele>862</ele>
        <time>2019-06-12T12:40:58Z</time>
      </trkpt>
      <trkpt lat="44.43956" lon="5.91527">
        <ele>862</ele>
        <time>2019-06-12T12:40:59Z</time>
      </trkpt>
      <trkpt lat="44.43958" lon="5.91523">
        <ele>862</ele>
        <time>2019-06-12T12:41:00Z</time>
      </trkpt>
      <trkpt lat="44.43959" lon="5.9152">
        <ele>862</ele>
        <time>2019-06-12T12:41:01Z</time>
      </trkpt>
      <trkpt lat="44.43961" lon="5.91516">
        <ele>863</ele>
        <time>2019-06-12T12:41:02Z</time>
      </trkpt>
      <trkpt lat="44.43962" lon="5.91512">
        <ele>863</ele>
        <time>2019-06-12T12:41:03Z</time>
      </trkpt>
      <trkpt lat="44.43964" lon="5.91508">
        <ele>863</ele>
        <time>2019-06-12T12:41:04Z</time>
      </trkpt>
      <trkpt lat="44.43966" lon="5.91504">
        <ele>863</ele>
        <time>2019-06-12T12:41:05Z</time>
      </trkpt>
      <trkpt lat="44.43968" lon="5.91501">
        <ele>863</ele>
        <time>2019-06-12T12:41:06Z</time>
      </trkpt>
      <trkpt lat="44.43969" lon="5.91497">
        <ele>863</ele>
        <time>2019-06-12T12:41:07Z</time>
      </trkpt>
      <trkpt lat="44.43971" lon="5.91493">
        <ele>863</ele>
        <time>2019-06-12T12:41:08Z</time>
      </trkpt>
      <trkpt lat="44.43973" lon="5.91489">
        <ele>863</ele>
        <time>2019-06-12T12:41:09Z</time>
      </trkpt>
      <trkpt lat="44.43975" lon="5.91484">
        <ele>863</ele>
        <time>2019-06-12T12:41:10Z</time>
      </trkpt>
      <trkpt lat="44.43977" lon="5.9148">
        <ele>863</ele>
        <time>2019-06-12T12:41:11Z</time>
      </trkpt>
      <trkpt lat="44.43979" lon="5.91477">
        <ele>863</ele>
        <time>2019-06-12T12:41:12Z</time>
      </trkpt>
      <trkpt lat="44.4398" lon="5.91473">
        <ele>863</ele>
        <time>2019-06-12T12:41:13Z</time>
      </trkpt>
      <trkpt lat="44.43982" lon="5.91469">
        <ele>864</ele>
        <time>2019-06-12T12:41:14Z</time>
      </trkpt>
      <trkpt lat="44.43984" lon="5.91465">
        <ele>864</ele>
        <time>2019-06-12T12:41:15Z</time>
      </trkpt>
      <trkpt lat="44.43987" lon="5.91462">
        <ele>864</ele>
        <time>2019-06-12T12:41:16Z</time>
      </trkpt>
      <trkpt lat="44.43989" lon="5.91459">
        <ele>864</ele>
        <time>2019-06-12T12:41:17Z</time>
      </trkpt>
      <trkpt lat="44.43991" lon="5.91455">
        <ele>865</ele>
        <time>2019-06-12T12:41:18Z</time>
      </trkpt>
      <trkpt lat="44.43993" lon="5.91452">
        <ele>865</ele>
        <time>2019-06-12T12:41:19Z</time>
      </trkpt>
      <trkpt lat="44.43995" lon="5.91449">
        <ele>865</ele>
        <time>2019-06-12T12:41:20Z</time>
      </trkpt>
      <trkpt lat="44.43998" lon="5.91447">
        <ele>865</ele>
        <time>2019-06-12T12:41:21Z</time>
      </trkpt>
      <trkpt lat="44.44" lon="5.91444">
        <ele>865</ele>
        <time>2019-06-12T12:41:22Z</time>
      </trkpt>
      <trkpt lat="44.44002" lon="5.91441">
        <ele>865</ele>
        <time>2019-06-12T12:41:23Z</time>
      </trkpt>
      <trkpt lat="44.44004" lon="5.91439">
        <ele>866</ele>
        <time>2019-06-12T12:41:24Z</time>
      </trkpt>
      <trkpt lat="44.44007" lon="5.91437">
        <ele>866</ele>
        <time>2019-06-12T12:41:25Z</time>
      </trkpt>
      <trkpt lat="44.44009" lon="5.91434">
        <ele>866</ele>
        <time>2019-06-12T12:41:26Z</time>
      </trkpt>
      <trkpt lat="44.44012" lon="5.91432">
        <ele>866</ele>
        <time>2019-06-12T12:41:27Z</time>
      </trkpt>
      <trkpt lat="44.44014" lon="5.9143">
        <ele>867</ele>
        <time>2019-06-12T12:41:28Z</time>
      </trkpt>
      <trkpt lat="44.44016" lon="5.91428">
        <ele>867</ele>
        <time>2019-06-12T12:41:29Z</time>
      </trkpt>
      <trkpt lat="44.44019" lon="5.91426">
        <ele>867</ele>
        <time>2019-06-12T12:41:30Z</time>
      </trkpt>
      <trkpt lat="44.44021" lon="5.91424">
        <ele>867</ele>
        <time>2019-06-12T12:41:31Z</time>
      </trkpt>
      <trkpt lat="44.44024" lon="5.91422">
        <ele>868</ele>
        <time>2019-06-12T12:41:32Z</time>
      </trkpt>
      <trkpt lat="44.44026" lon="5.9142">
        <ele>868</ele>
        <time>2019-06-12T12:41:33Z</time>
      </trkpt>
      <trkpt lat="44.44028" lon="5.91417">
        <ele>868</ele>
        <time>2019-06-12T12:41:34Z</time>
      </trkpt>
      <trkpt lat="44.44031" lon="5.91415">
        <ele>868</ele>
        <time>2019-06-12T12:41:35Z</time>
      </trkpt>
      <trkpt lat="44.44033" lon="5.91412">
        <ele>868</ele>
        <time>2019-06-12T12:41:36Z</time>
      </trkpt>
      <trkpt lat="44.44036" lon="5.9141">
        <ele>868</ele>
        <time>2019-06-12T12:41:37Z</time>
      </trkpt>
      <trkpt lat="44.44038" lon="5.91407">
        <ele>868</ele>
        <time>2019-06-12T12:41:38Z</time>
      </trkpt>
      <trkpt lat="44.4404" lon="5.91405">
        <ele>868</ele>
        <time>2019-06-12T12:41:39Z</time>
      </trkpt>
      <trkpt lat="44.44043" lon="5.91402">
        <ele>869</ele>
        <time>2019-06-12T12:41:40Z</time>
      </trkpt>
      <trkpt lat="44.44044" lon="5.91399">
        <ele>869</ele>
        <time>2019-06-12T12:41:41Z</time>
      </trkpt>
      <trkpt lat="44.44047" lon="5.91397">
        <ele>869</ele>
        <time>2019-06-12T12:41:42Z</time>
      </trkpt>
      <trkpt lat="44.44049" lon="5.91394">
        <ele>869</ele>
        <time>2019-06-12T12:41:43Z</time>
      </trkpt>
      <trkpt lat="44.44051" lon="5.91391">
        <ele>869</ele>
        <time>2019-06-12T12:41:44Z</time>
      </trkpt>
      <trkpt lat="44.44053" lon="5.91388">
        <ele>869</ele>
        <time>2019-06-12T12:41:45Z</time>
      </trkpt>
      <trkpt lat="44.44054" lon="5.91385">
        <ele>870</ele>
        <time>2019-06-12T12:41:46Z</time>
      </trkpt>
      <trkpt lat="44.44056" lon="5.91381">
        <ele>870</ele>
        <time>2019-06-12T12:41:47Z</time>
      </trkpt>
      <trkpt lat="44.44057" lon="5.91377">
        <ele>870</ele>
        <time>2019-06-12T12:41:48Z</time>
      </trkpt>
      <trkpt lat="44.44059" lon="5.91374">
        <ele>870</ele>
        <time>2019-06-12T12:41:49Z</time>
      </trkpt>
      <trkpt lat="44.44061" lon="5.9137">
        <ele>870</ele>
        <time>2019-06-12T12:41:50Z</time>
      </trkpt>
      <trkpt lat="44.44062" lon="5.91367">
        <ele>870</ele>
        <time>2019-06-12T12:41:51Z</time>
      </trkpt>
      <trkpt lat="44.44064" lon="5.91363">
        <ele>870</ele>
        <time>2019-06-12T12:41:52Z</time>
      </trkpt>
      <trkpt lat="44.44065" lon="5.91359">
        <ele>870</ele>
        <time>2019-06-12T12:41:53Z</time>
      </trkpt>
      <trkpt lat="44.44067" lon="5.91356">
        <ele>870</ele>
        <time>2019-06-12T12:41:54Z</time>
      </trkpt>
      <trkpt lat="44.44069" lon="5.91352">
        <ele>871</ele>
        <time>2019-06-12T12:41:55Z</time>
      </trkpt>
      <trkpt lat="44.44071" lon="5.91349">
        <ele>871</ele>
        <time>2019-06-12T12:41:56Z</time>
      </trkpt>
      <trkpt lat="44.44073" lon="5.91346">
        <ele>871</ele>
        <time>2019-06-12T12:41:57Z</time>
      </trkpt>
      <trkpt lat="44.44077" lon="5.91343">
        <ele>871</ele>
        <time>2019-06-12T12:41:58Z</time>
      </trkpt>
      <trkpt lat="44.4408" lon="5.91341">
        <ele>871</ele>
        <time>2019-06-12T12:41:59Z</time>
      </trkpt>
      <trkpt lat="44.44083" lon="5.9134">
        <ele>871</ele>
        <time>2019-06-12T12:42:00Z</time>
      </trkpt>
      <trkpt lat="44.44086" lon="5.91339">
        <ele>871</ele>
        <time>2019-06-12T12:42:01Z</time>
      </trkpt>
      <trkpt lat="44.4409" lon="5.91339">
        <ele>871</ele>
        <time>2019-06-12T12:42:02Z</time>
      </trkpt>
      <trkpt lat="44.44093" lon="5.91338">
        <ele>871</ele>
        <time>2019-06-12T12:42:03Z</time>
      </trkpt>
      <trkpt lat="44.44096" lon="5.91338">
        <ele>871</ele>
        <time>2019-06-12T12:42:04Z</time>
      </trkpt>
      <trkpt lat="44.441" lon="5.91338">
        <ele>872</ele>
        <time>2019-06-12T12:42:05Z</time>
      </trkpt>
      <trkpt lat="44.44103" lon="5.91339">
        <ele>872</ele>
        <time>2019-06-12T12:42:06Z</time>
      </trkpt>
      <trkpt lat="44.44107" lon="5.91338">
        <ele>872</ele>
        <time>2019-06-12T12:42:07Z</time>
      </trkpt>
      <trkpt lat="44.4411" lon="5.91338">
        <ele>872</ele>
        <time>2019-06-12T12:42:08Z</time>
      </trkpt>
      <trkpt lat="44.44114" lon="5.91338">
        <ele>873</ele>
        <time>2019-06-12T12:42:09Z</time>
      </trkpt>
      <trkpt lat="44.44117" lon="5.91338">
        <ele>873</ele>
        <time>2019-06-12T12:42:10Z</time>
      </trkpt>
      <trkpt lat="44.4412" lon="5.91339">
        <ele>873</ele>
        <time>2019-06-12T12:42:11Z</time>
      </trkpt>
      <trkpt lat="44.44124" lon="5.91339">
        <ele>873</ele>
        <time>2019-06-12T12:42:12Z</time>
      </trkpt>
      <trkpt lat="44.44127" lon="5.91339">
        <ele>873</ele>
        <time>2019-06-12T12:42:13Z</time>
      </trkpt>
      <trkpt lat="44.4413" lon="5.9134">
        <ele>873</ele>
        <time>2019-06-12T12:42:14Z</time>
      </trkpt>
      <trkpt lat="44.44133" lon="5.9134">
        <ele>873</ele>
        <time>2019-06-12T12:42:15Z</time>
      </trkpt>
      <trkpt lat="44.44136" lon="5.9134">
        <ele>873</ele>
        <time>2019-06-12T12:42:16Z</time>
      </trkpt>
      <trkpt lat="44.4414" lon="5.91341">
        <ele>873</ele>
        <time>2019-06-12T12:42:17Z</time>
      </trkpt>
      <trkpt lat="44.44143" lon="5.91342">
        <ele>874</ele>
        <time>2019-06-12T12:42:18Z</time>
      </trkpt>
      <trkpt lat="44.44146" lon="5.91342">
        <ele>874</ele>
        <time>2019-06-12T12:42:19Z</time>
      </trkpt>
      <trkpt lat="44.44149" lon="5.91342">
        <ele>874</ele>
        <time>2019-06-12T12:42:20Z</time>
      </trkpt>
      <trkpt lat="44.44153" lon="5.91343">
        <ele>874</ele>
        <time>2019-06-12T12:42:21Z</time>
      </trkpt>
      <trkpt lat="44.44156" lon="5.91344">
        <ele>875</ele>
        <time>2019-06-12T12:42:22Z</time>
      </trkpt>
      <trkpt lat="44.44159" lon="5.91344">
        <ele>875</ele>
        <time>2019-06-12T12:42:23Z</time>
      </trkpt>
      <trkpt lat="44.44163" lon="5.91345">
        <ele>875</ele>
        <time>2019-06-12T12:42:24Z</time>
      </trkpt>
      <trkpt lat="44.44166" lon="5.91346">
        <ele>875</ele>
        <time>2019-06-12T12:42:25Z</time>
      </trkpt>
      <trkpt lat="44.4417" lon="5.91346">
        <ele>875</ele>
        <time>2019-06-12T12:42:26Z</time>
      </trkpt>
      <trkpt lat="44.44173" lon="5.91346">
        <ele>876</ele>
        <time>2019-06-12T12:42:27Z</time>
      </trkpt>
      <trkpt lat="44.44176" lon="5.91347">
        <ele>876</ele>
        <time>2019-06-12T12:42:28Z</time>
      </trkpt>
      <trkpt lat="44.4418" lon="5.91347">
        <ele>876</ele>
        <time>2019-06-12T12:42:29Z</time>
      </trkpt>
      <trkpt lat="44.44184" lon="5.91348">
        <ele>876</ele>
        <time>2019-06-12T12:42:30Z</time>
      </trkpt>
      <trkpt lat="44.44188" lon="5.91349">
        <ele>876</ele>
        <time>2019-06-12T12:42:31Z</time>
      </trkpt>
      <trkpt lat="44.44191" lon="5.91349">
        <ele>876</ele>
        <time>2019-06-12T12:42:32Z</time>
      </trkpt>
      <trkpt lat="44.44195" lon="5.9135">
        <ele>876</ele>
        <time>2019-06-12T12:42:33Z</time>
      </trkpt>
      <trkpt lat="44.44199" lon="5.91351">
        <ele>877</ele>
        <time>2019-06-12T12:42:34Z</time>
      </trkpt>
      <trkpt lat="44.44202" lon="5.91351">
        <ele>877</ele>
        <time>2019-06-12T12:42:35Z</time>
      </trkpt>
      <trkpt lat="44.44206" lon="5.91353">
        <ele>877</ele>
        <time>2019-06-12T12:42:36Z</time>
      </trkpt>
      <trkpt lat="44.44209" lon="5.91354">
        <ele>877</ele>
        <time>2019-06-12T12:42:37Z</time>
      </trkpt>
      <trkpt lat="44.44213" lon="5.91355">
        <ele>877</ele>
        <time>2019-06-12T12:42:38Z</time>
      </trkpt>
      <trkpt lat="44.44216" lon="5.91356">
        <ele>877</ele>
        <time>2019-06-12T12:42:39Z</time>
      </trkpt>
      <trkpt lat="44.4422" lon="5.91357">
        <ele>877</ele>
        <time>2019-06-12T12:42:40Z</time>
      </trkpt>
      <trkpt lat="44.44223" lon="5.91358">
        <ele>877</ele>
        <time>2019-06-12T12:42:41Z</time>
      </trkpt>
      <trkpt lat="44.44227" lon="5.91359">
        <ele>878</ele>
        <time>2019-06-12T12:42:42Z</time>
      </trkpt>
      <trkpt lat="44.4423" lon="5.9136">
        <ele>878</ele>
        <time>2019-06-12T12:42:43Z</time>
      </trkpt>
      <trkpt lat="44.44234" lon="5.91362">
        <ele>878</ele>
        <time>2019-06-12T12:42:44Z</time>
      </trkpt>
      <trkpt lat="44.44238" lon="5.91363">
        <ele>878</ele>
        <time>2019-06-12T12:42:45Z</time>
      </trkpt>
      <trkpt lat="44.44241" lon="5.91364">
        <ele>878</ele>
        <time>2019-06-12T12:42:46Z</time>
      </trkpt>
      <trkpt lat="44.44245" lon="5.91365">
        <ele>878</ele>
        <time>2019-06-12T12:42:47Z</time>
      </trkpt>
      <trkpt lat="44.44248" lon="5.91366">
        <ele>879</ele>
        <time>2019-06-12T12:42:48Z</time>
      </trkpt>
      <trkpt lat="44.44251" lon="5.91367">
        <ele>879</ele>
        <time>2019-06-12T12:42:49Z</time>
      </trkpt>
      <trkpt lat="44.44254" lon="5.91368">
        <ele>879</ele>
        <time>2019-06-12T12:42:50Z</time>
      </trkpt>
      <trkpt lat="44.44257" lon="5.91369">
        <ele>879</ele>
        <time>2019-06-12T12:42:51Z</time>
      </trkpt>
      <trkpt lat="44.4426" lon="5.9137">
        <ele>879</ele>
        <time>2019-06-12T12:42:52Z</time>
      </trkpt>
      <trkpt lat="44.44263" lon="5.91371">
        <ele>880</ele>
        <time>2019-06-12T12:42:53Z</time>
      </trkpt>
      <trkpt lat="44.44266" lon="5.91372">
        <ele>880</ele>
        <time>2019-06-12T12:42:54Z</time>
      </trkpt>
      <trkpt lat="44.44269" lon="5.91373">
        <ele>880</ele>
        <time>2019-06-12T12:42:55Z</time>
      </trkpt>
      <trkpt lat="44.44272" lon="5.91374">
        <ele>880</ele>
        <time>2019-06-12T12:42:56Z</time>
      </trkpt>
      <trkpt lat="44.44275" lon="5.91375">
        <ele>881</ele>
        <time>2019-06-12T12:42:57Z</time>
      </trkpt>
      <trkpt lat="44.44278" lon="5.91376">
        <ele>881</ele>
        <time>2019-06-12T12:42:58Z</time>
      </trkpt>
      <trkpt lat="44.44281" lon="5.91377">
        <ele>881</ele>
        <time>2019-06-12T12:42:59Z</time>
      </trkpt>
      <trkpt lat="44.44284" lon="5.91378">
        <ele>882</ele>
        <time>2019-06-12T12:43:00Z</time>
      </trkpt>
      <trkpt lat="44.44287" lon="5.91379">
        <ele>882</ele>
        <time>2019-06-12T12:43:01Z</time>
      </trkpt>
      <trkpt lat="44.4429" lon="5.91381">
        <ele>882</ele>
        <time>2019-06-12T12:43:02Z</time>
      </trkpt>
      <trkpt lat="44.44292" lon="5.91382">
        <ele>883</ele>
        <time>2019-06-12T12:43:03Z</time>
      </trkpt>
      <trkpt lat="44.44296" lon="5.91383">
        <ele>883</ele>
        <time>2019-06-12T12:43:04Z</time>
      </trkpt>
      <trkpt lat="44.44298" lon="5.91384">
        <ele>883</ele>
        <time>2019-06-12T12:43:05Z</time>
      </trkpt>
      <trkpt lat="44.44302" lon="5.91385">
        <ele>884</ele>
        <time>2019-06-12T12:43:06Z</time>
      </trkpt>
      <trkpt lat="44.44305" lon="5.91386">
        <ele>884</ele>
        <time>2019-06-12T12:43:07Z</time>
      </trkpt>
      <trkpt lat="44.44307" lon="5.91387">
        <ele>884</ele>
        <time>2019-06-12T12:43:08Z</time>
      </trkpt>
      <trkpt lat="44.4431" lon="5.91388">
        <ele>885</ele>
        <time>2019-06-12T12:43:09Z</time>
      </trkpt>
      <trkpt lat="44.44313" lon="5.91389">
        <ele>885</ele>
        <time>2019-06-12T12:43:10Z</time>
      </trkpt>
      <trkpt lat="44.44316" lon="5.9139">
        <ele>885</ele>
        <time>2019-06-12T12:43:11Z</time>
      </trkpt>
      <trkpt lat="44.44319" lon="5.91391">
        <ele>885</ele>
        <time>2019-06-12T12:43:12Z</time>
      </trkpt>
      <trkpt lat="44.44322" lon="5.91392">
        <ele>886</ele>
        <time>2019-06-12T12:43:13Z</time>
      </trkpt>
      <trkpt lat="44.44325" lon="5.91393">
        <ele>886</ele>
        <time>2019-06-12T12:43:14Z</time>
      </trkpt>
      <trkpt lat="44.44328" lon="5.91394">
        <ele>886</ele>
        <time>2019-06-12T12:43:15Z</time>
      </trkpt>
      <trkpt lat="44.44331" lon="5.91395">
        <ele>887</ele>
        <time>2019-06-12T12:43:16Z</time>
      </trkpt>
      <trkpt lat="44.44333" lon="5.91396">
        <ele>887</ele>
        <time>2019-06-12T12:43:17Z</time>
      </trkpt>
      <trkpt lat="44.44336" lon="5.91397">
        <ele>887</ele>
        <time>2019-06-12T12:43:18Z</time>
      </trkpt>
      <trkpt lat="44.44339" lon="5.91398">
        <ele>887</ele>
        <time>2019-06-12T12:43:19Z</time>
      </trkpt>
      <trkpt lat="44.44342" lon="5.91399">
        <ele>888</ele>
        <time>2019-06-12T12:43:20Z</time>
      </trkpt>
      <trkpt lat="44.44345" lon="5.914">
        <ele>888</ele>
        <time>2019-06-12T12:43:21Z</time>
      </trkpt>
      <trkpt lat="44.44348" lon="5.91401">
        <ele>888</ele>
        <time>2019-06-12T12:43:22Z</time>
      </trkpt>
      <trkpt lat="44.44351" lon="5.91402">
        <ele>889</ele>
        <time>2019-06-12T12:43:23Z</time>
      </trkpt>
      <trkpt lat="44.44354" lon="5.91403">
        <ele>889</ele>
        <time>2019-06-12T12:43:24Z</time>
      </trkpt>
      <trkpt lat="44.44357" lon="5.91404">
        <ele>889</ele>
        <time>2019-06-12T12:43:25Z</time>
      </trkpt>
      <trkpt lat="44.4436" lon="5.91405">
        <ele>889</ele>
        <time>2019-06-12T12:43:26Z</time>
      </trkpt>
      <trkpt lat="44.44363" lon="5.91406">
        <ele>890</ele>
        <time>2019-06-12T12:43:27Z</time>
      </trkpt>
      <trkpt lat="44.44366" lon="5.91407">
        <ele>890</ele>
        <time>2019-06-12T12:43:28Z</time>
      </trkpt>
      <trkpt lat="44.44369" lon="5.91408">
        <ele>890</ele>
        <time>2019-06-12T12:43:29Z</time>
      </trkpt>
      <trkpt lat="44.44372" lon="5.91409">
        <ele>890</ele>
        <time>2019-06-12T12:43:30Z</time>
      </trkpt>
      <trkpt lat="44.44375" lon="5.9141">
        <ele>890</ele>
        <time>2019-06-12T12:43:31Z</time>
      </trkpt>
      <trkpt lat="44.44378" lon="5.91411">
        <ele>891</ele>
        <time>2019-06-12T12:43:32Z</time>
      </trkpt>
      <trkpt lat="44.44381" lon="5.91412">
        <ele>891</ele>
        <time>2019-06-12T12:43:33Z</time>
      </trkpt>
      <trkpt lat="44.44384" lon="5.91413">
        <ele>891</ele>
        <time>2019-06-12T12:43:34Z</time>
      </trkpt>
      <trkpt lat="44.44387" lon="5.91414">
        <ele>891</ele>
        <time>2019-06-12T12:43:35Z</time>
      </trkpt>
      <trkpt lat="44.4439" lon="5.91415">
        <ele>891</ele>
        <time>2019-06-12T12:43:36Z</time>
      </trkpt>
      <trkpt lat="44.44393" lon="5.91416">
        <ele>892</ele>
        <time>2019-06-12T12:43:37Z</time>
      </trkpt>
      <trkpt lat="44.44396" lon="5.91417">
        <ele>892</ele>
        <time>2019-06-12T12:43:38Z</time>
      </trkpt>
      <trkpt lat="44.44399" lon="5.91418">
        <ele>892</ele>
        <time>2019-06-12T12:43:39Z</time>
      </trkpt>
      <trkpt lat="44.44402" lon="5.9142">
        <ele>892</ele>
        <time>2019-06-12T12:43:40Z</time>
      </trkpt>
      <trkpt lat="44.44405" lon="5.91421">
        <ele>892</ele>
        <time>2019-06-12T12:43:41Z</time>
      </trkpt>
      <trkpt lat="44.44408" lon="5.91422">
        <ele>893</ele>
        <time>2019-06-12T12:43:42Z</time>
      </trkpt>
      <trkpt lat="44.44411" lon="5.91423">
        <ele>893</ele>
        <time>2019-06-12T12:43:43Z</time>
      </trkpt>
      <trkpt lat="44.44415" lon="5.91423">
        <ele>893</ele>
        <time>2019-06-12T12:43:44Z</time>
      </trkpt>
      <trkpt lat="44.44419" lon="5.91424">
        <ele>893</ele>
        <time>2019-06-12T12:43:45Z</time>
      </trkpt>
      <trkpt lat="44.44423" lon="5.91424">
        <ele>893</ele>
        <time>2019-06-12T12:43:46Z</time>
      </trkpt>
      <trkpt lat="44.44427" lon="5.91424">
        <ele>894</ele>
        <time>2019-06-12T12:43:47Z</time>
      </trkpt>
      <trkpt lat="44.44431" lon="5.91424">
        <ele>894</ele>
        <time>2019-06-12T12:43:48Z</time>
      </trkpt>
      <trkpt lat="44.44435" lon="5.91423">
        <ele>894</ele>
        <time>2019-06-12T12:43:49Z</time>
      </trkpt>
      <trkpt lat="44.44439" lon="5.91423">
        <ele>894</ele>
        <time>2019-06-12T12:43:50Z</time>
      </trkpt>
      <trkpt lat="44.44443" lon="5.91422">
        <ele>895</ele>
        <time>2019-06-12T12:43:51Z</time>
      </trkpt>
      <trkpt lat="44.44446" lon="5.91422">
        <ele>895</ele>
        <time>2019-06-12T12:43:52Z</time>
      </trkpt>
      <trkpt lat="44.4445" lon="5.91421">
        <ele>895</ele>
        <time>2019-06-12T12:43:53Z</time>
      </trkpt>
      <trkpt lat="44.44454" lon="5.9142">
        <ele>895</ele>
        <time>2019-06-12T12:43:54Z</time>
      </trkpt>
      <trkpt lat="44.44457" lon="5.91418">
        <ele>896</ele>
        <time>2019-06-12T12:43:55Z</time>
      </trkpt>
      <trkpt lat="44.44461" lon="5.91417">
        <ele>896</ele>
        <time>2019-06-12T12:43:56Z</time>
      </trkpt>
      <trkpt lat="44.44464" lon="5.91416">
        <ele>896</ele>
        <time>2019-06-12T12:43:57Z</time>
      </trkpt>
      <trkpt lat="44.44467" lon="5.91414">
        <ele>896</ele>
        <time>2019-06-12T12:43:58Z</time>
      </trkpt>
      <trkpt lat="44.44471" lon="5.91413">
        <ele>896</ele>
        <time>2019-06-12T12:43:59Z</time>
      </trkpt>
      <trkpt lat="44.44474" lon="5.91412">
        <ele>897</ele>
        <time>2019-06-12T12:44:00Z</time>
      </trkpt>
      <trkpt lat="44.44477" lon="5.9141">
        <ele>897</ele>
        <time>2019-06-12T12:44:01Z</time>
      </trkpt>
      <trkpt lat="44.44479" lon="5.91408">
        <ele>897</ele>
        <time>2019-06-12T12:44:02Z</time>
      </trkpt>
      <trkpt lat="44.44482" lon="5.91407">
        <ele>897</ele>
        <time>2019-06-12T12:44:03Z</time>
      </trkpt>
      <trkpt lat="44.44485" lon="5.91406">
        <ele>897</ele>
        <time>2019-06-12T12:44:04Z</time>
      </trkpt>
      <trkpt lat="44.44489" lon="5.91405">
        <ele>897</ele>
        <time>2019-06-12T12:44:05Z</time>
      </trkpt>
      <trkpt lat="44.44492" lon="5.91404">
        <ele>897</ele>
        <time>2019-06-12T12:44:06Z</time>
      </trkpt>
      <trkpt lat="44.44495" lon="5.91403">
        <ele>897</ele>
        <time>2019-06-12T12:44:07Z</time>
      </trkpt>
      <trkpt lat="44.44498" lon="5.91402">
        <ele>897</ele>
        <time>2019-06-12T12:44:08Z</time>
      </trkpt>
      <trkpt lat="44.44501" lon="5.91401">
        <ele>897</ele>
        <time>2019-06-12T12:44:09Z</time>
      </trkpt>
      <trkpt lat="44.44504" lon="5.914">
        <ele>897</ele>
        <time>2019-06-12T12:44:10Z</time>
      </trkpt>
      <trkpt lat="44.44507" lon="5.91399">
        <ele>897</ele>
        <time>2019-06-12T12:44:11Z</time>
      </trkpt>
      <trkpt lat="44.4451" lon="5.91398">
        <ele>898</ele>
        <time>2019-06-12T12:44:12Z</time>
      </trkpt>
      <trkpt lat="44.44513" lon="5.91396">
        <ele>898</ele>
        <time>2019-06-12T12:44:13Z</time>
      </trkpt>
      <trkpt lat="44.44515" lon="5.91395">
        <ele>898</ele>
        <time>2019-06-12T12:44:14Z</time>
      </trkpt>
      <trkpt lat="44.44518" lon="5.91393">
        <ele>898</ele>
        <time>2019-06-12T12:44:15Z</time>
      </trkpt>
      <trkpt lat="44.44521" lon="5.91392">
        <ele>899</ele>
        <time>2019-06-12T12:44:16Z</time>
      </trkpt>
      <trkpt lat="44.44524" lon="5.91391">
        <ele>899</ele>
        <time>2019-06-12T12:44:17Z</time>
      </trkpt>
      <trkpt lat="44.44527" lon="5.9139">
        <ele>900</ele>
        <time>2019-06-12T12:44:18Z</time>
      </trkpt>
      <trkpt lat="44.44529" lon="5.91389">
        <ele>900</ele>
        <time>2019-06-12T12:44:19Z</time>
      </trkpt>
      <trkpt lat="44.44533" lon="5.91388">
        <ele>900</ele>
        <time>2019-06-12T12:44:20Z</time>
      </trkpt>
      <trkpt lat="44.44535" lon="5.91387">
        <ele>900</ele>
        <time>2019-06-12T12:44:21Z</time>
      </trkpt>
      <trkpt lat="44.44538" lon="5.91386">
        <ele>901</ele>
        <time>2019-06-12T12:44:22Z</time>
      </trkpt>
      <trkpt lat="44.44541" lon="5.91385">
        <ele>901</ele>
        <time>2019-06-12T12:44:23Z</time>
      </trkpt>
      <trkpt lat="44.44544" lon="5.91384">
        <ele>901</ele>
        <time>2019-06-12T12:44:24Z</time>
      </trkpt>
      <trkpt lat="44.44547" lon="5.91383">
        <ele>901</ele>
        <time>2019-06-12T12:44:25Z</time>
      </trkpt>
      <trkpt lat="44.4455" lon="5.91382">
        <ele>901</ele>
        <time>2019-06-12T12:44:26Z</time>
      </trkpt>
      <trkpt lat="44.44553" lon="5.91381">
        <ele>902</ele>
        <time>2019-06-12T12:44:27Z</time>
      </trkpt>
      <trkpt lat="44.44556" lon="5.9138">
        <ele>902</ele>
        <time>2019-06-12T12:44:28Z</time>
      </trkpt>
      <trkpt lat="44.44559" lon="5.91378">
        <ele>902</ele>
        <time>2019-06-12T12:44:29Z</time>
      </trkpt>
      <trkpt lat="44.44562" lon="5.91377">
        <ele>902</ele>
        <time>2019-06-12T12:44:30Z</time>
      </trkpt>
      <trkpt lat="44.44565" lon="5.91375">
        <ele>902</ele>
        <time>2019-06-12T12:44:31Z</time>
      </trkpt>
      <trkpt lat="44.44568" lon="5.91374">
        <ele>902</ele>
        <time>2019-06-12T12:44:32Z</time>
      </trkpt>
      <trkpt lat="44.44571" lon="5.91373">
        <ele>903</ele>
        <time>2019-06-12T12:44:33Z</time>
      </trkpt>
      <trkpt lat="44.44574" lon="5.91371">
        <ele>903</ele>
        <time>2019-06-12T12:44:34Z</time>
      </trkpt>
      <trkpt lat="44.44577" lon="5.9137">
        <ele>903</ele>
        <time>2019-06-12T12:44:35Z</time>
      </trkpt>
      <trkpt lat="44.4458" lon="5.91369">
        <ele>903</ele>
        <time>2019-06-12T12:44:36Z</time>
      </trkpt>
      <trkpt lat="44.44583" lon="5.91368">
        <ele>904</ele>
        <time>2019-06-12T12:44:37Z</time>
      </trkpt>
      <trkpt lat="44.44586" lon="5.91367">
        <ele>904</ele>
        <time>2019-06-12T12:44:38Z</time>
      </trkpt>
      <trkpt lat="44.44589" lon="5.91365">
        <ele>904</ele>
        <time>2019-06-12T12:44:39Z</time>
      </trkpt>
      <trkpt lat="44.44592" lon="5.91364">
        <ele>904</ele>
        <time>2019-06-12T12:44:40Z</time>
      </trkpt>
      <trkpt lat="44.44595" lon="5.91363">
        <ele>905</ele>
        <time>2019-06-12T12:44:41Z</time>
      </trkpt>
      <trkpt lat="44.44598" lon="5.91362">
        <ele>905</ele>
        <time>2019-06-12T12:44:42Z</time>
      </trkpt>
      <trkpt lat="44.44601" lon="5.91361">
        <ele>905</ele>
        <time>2019-06-12T12:44:43Z</time>
      </trkpt>
      <trkpt lat="44.44604" lon="5.9136">
        <ele>905</ele>
        <time>2019-06-12T12:44:44Z</time>
      </trkpt>
      <trkpt lat="44.44607" lon="5.9136">
        <ele>905</ele>
        <time>2019-06-12T12:44:45Z</time>
      </trkpt>
      <trkpt lat="44.44609" lon="5.91358">
        <ele>905</ele>
        <time>2019-06-12T12:44:46Z</time>
      </trkpt>
      <trkpt lat="44.44612" lon="5.91357">
        <ele>906</ele>
        <time>2019-06-12T12:44:47Z</time>
      </trkpt>
      <trkpt lat="44.44615" lon="5.91356">
        <ele>906</ele>
        <time>2019-06-12T12:44:48Z</time>
      </trkpt>
      <trkpt lat="44.44618" lon="5.91355">
        <ele>906</ele>
        <time>2019-06-12T12:44:49Z</time>
      </trkpt>
      <trkpt lat="44.44621" lon="5.91355">
        <ele>906</ele>
        <time>2019-06-12T12:44:50Z</time>
      </trkpt>
      <trkpt lat="44.44623" lon="5.91354">
        <ele>907</ele>
        <time>2019-06-12T12:44:51Z</time>
      </trkpt>
      <trkpt lat="44.44626" lon="5.91353">
        <ele>907</ele>
        <time>2019-06-12T12:44:52Z</time>
      </trkpt>
      <trkpt lat="44.44629" lon="5.91352">
        <ele>907</ele>
        <time>2019-06-12T12:44:53Z</time>
      </trkpt>
      <trkpt lat="44.44632" lon="5.91351">
        <ele>907</ele>
        <time>2019-06-12T12:44:54Z</time>
      </trkpt>
      <trkpt lat="44.44634" lon="5.9135">
        <ele>907</ele>
        <time>2019-06-12T12:44:55Z</time>
      </trkpt>
      <trkpt lat="44.44637" lon="5.91349">
        <ele>907</ele>
        <time>2019-06-12T12:44:56Z</time>
      </trkpt>
      <trkpt lat="44.4464" lon="5.91348">
        <ele>908</ele>
        <time>2019-06-12T12:44:57Z</time>
      </trkpt>
      <trkpt lat="44.44643" lon="5.91348">
        <ele>908</ele>
        <time>2019-06-12T12:44:58Z</time>
      </trkpt>
      <trkpt lat="44.44645" lon="5.91346">
        <ele>908</ele>
        <time>2019-06-12T12:44:59Z</time>
      </trkpt>
      <trkpt lat="44.44648" lon="5.91345">
        <ele>908</ele>
        <time>2019-06-12T12:45:00Z</time>
      </trkpt>
      <trkpt lat="44.44651" lon="5.91343">
        <ele>908</ele>
        <time>2019-06-12T12:45:01Z</time>
      </trkpt>
      <trkpt lat="44.44654" lon="5.91342">
        <ele>908</ele>
        <time>2019-06-12T12:45:02Z</time>
      </trkpt>
      <trkpt lat="44.44657" lon="5.91341">
        <ele>909</ele>
        <time>2019-06-12T12:45:03Z</time>
      </trkpt>
      <trkpt lat="44.4466" lon="5.9134">
        <ele>909</ele>
        <time>2019-06-12T12:45:04Z</time>
      </trkpt>
      <trkpt lat="44.44662" lon="5.91338">
        <ele>909</ele>
        <time>2019-06-12T12:45:05Z</time>
      </trkpt>
      <trkpt lat="44.44665" lon="5.91337">
        <ele>909</ele>
        <time>2019-06-12T12:45:06Z</time>
      </trkpt>
      <trkpt lat="44.44668" lon="5.91335">
        <ele>910</ele>
        <time>2019-06-12T12:45:07Z</time>
      </trkpt>
      <trkpt lat="44.44671" lon="5.91333">
        <ele>910</ele>
        <time>2019-06-12T12:45:08Z</time>
      </trkpt>
      <trkpt lat="44.44674" lon="5.91331">
        <ele>910</ele>
        <time>2019-06-12T12:45:09Z</time>
      </trkpt>
      <trkpt lat="44.44676" lon="5.91329">
        <ele>910</ele>
        <time>2019-06-12T12:45:10Z</time>
      </trkpt>
      <trkpt lat="44.44679" lon="5.91327">
        <ele>911</ele>
        <time>2019-06-12T12:45:11Z</time>
      </trkpt>
      <trkpt lat="44.44681" lon="5.91324">
        <ele>911</ele>
        <time>2019-06-12T12:45:12Z</time>
      </trkpt>
      <trkpt lat="44.44684" lon="5.91322">
        <ele>911</ele>
        <time>2019-06-12T12:45:13Z</time>
      </trkpt>
      <trkpt lat="44.44686" lon="5.91319">
        <ele>911</ele>
        <time>2019-06-12T12:45:14Z</time>
      </trkpt>
      <trkpt lat="44.44688" lon="5.91317">
        <ele>912</ele>
        <time>2019-06-12T12:45:15Z</time>
      </trkpt>
      <trkpt lat="44.4469" lon="5.91314">
        <ele>912</ele>
        <time>2019-06-12T12:45:16Z</time>
      </trkpt>
      <trkpt lat="44.44693" lon="5.91311">
        <ele>912</ele>
        <time>2019-06-12T12:45:17Z</time>
      </trkpt>
      <trkpt lat="44.44695" lon="5.91308">
        <ele>912</ele>
        <time>2019-06-12T12:45:18Z</time>
      </trkpt>
      <trkpt lat="44.44696" lon="5.91305">
        <ele>913</ele>
        <time>2019-06-12T12:45:19Z</time>
      </trkpt>
      <trkpt lat="44.44698" lon="5.91302">
        <ele>913</ele>
        <time>2019-06-12T12:45:20Z</time>
      </trkpt>
      <trkpt lat="44.447" lon="5.91299">
        <ele>914</ele>
        <time>2019-06-12T12:45:21Z</time>
      </trkpt>
      <trkpt lat="44.44702" lon="5.91295">
        <ele>914</ele>
        <time>2019-06-12T12:45:22Z</time>
      </trkpt>
      <trkpt lat="44.44704" lon="5.91292">
        <ele>914</ele>
        <time>2019-06-12T12:45:23Z</time>
      </trkpt>
      <trkpt lat="44.44705" lon="5.91289">
        <ele>914</ele>
        <time>2019-06-12T12:45:24Z</time>
      </trkpt>
      <trkpt lat="44.44707" lon="5.91286">
        <ele>915</ele>
        <time>2019-06-12T12:45:25Z</time>
      </trkpt>
      <trkpt lat="44.44709" lon="5.91283">
        <ele>915</ele>
        <time>2019-06-12T12:45:26Z</time>
      </trkpt>
      <trkpt lat="44.4471" lon="5.91279">
        <ele>915</ele>
        <time>2019-06-12T12:45:27Z</time>
      </trkpt>
      <trkpt lat="44.44711" lon="5.91276">
        <ele>915</ele>
        <time>2019-06-12T12:45:28Z</time>
      </trkpt>
      <trkpt lat="44.44712" lon="5.91272">
        <ele>916</ele>
        <time>2019-06-12T12:45:29Z</time>
      </trkpt>
      <trkpt lat="44.44714" lon="5.91268">
        <ele>916</ele>
        <time>2019-06-12T12:45:30Z</time>
      </trkpt>
      <trkpt lat="44.44715" lon="5.91265">
        <ele>916</ele>
        <time>2019-06-12T12:45:31Z</time>
      </trkpt>
      <trkpt lat="44.44716" lon="5.91261">
        <ele>916</ele>
        <time>2019-06-12T12:45:32Z</time>
      </trkpt>
      <trkpt lat="44.44717" lon="5.91257">
        <ele>916</ele>
        <time>2019-06-12T12:45:33Z</time>
      </trkpt>
      <trkpt lat="44.44719" lon="5.91254">
        <ele>917</ele>
        <time>2019-06-12T12:45:34Z</time>
      </trkpt>
      <trkpt lat="44.4472" lon="5.91251">
        <ele>917</ele>
        <time>2019-06-12T12:45:35Z</time>
      </trkpt>
      <trkpt lat="44.44721" lon="5.91247">
        <ele>917</ele>
        <time>2019-06-12T12:45:36Z</time>
      </trkpt>
      <trkpt lat="44.44722" lon="5.91244">
        <ele>917</ele>
        <time>2019-06-12T12:45:37Z</time>
      </trkpt>
      <trkpt lat="44.44724" lon="5.9124">
        <ele>917</ele>
        <time>2019-06-12T12:45:38Z</time>
      </trkpt>
      <trkpt lat="44.44725" lon="5.91236">
        <ele>917</ele>
        <time>2019-06-12T12:45:39Z</time>
      </trkpt>
      <trkpt lat="44.44726" lon="5.91233">
        <ele>918</ele>
        <time>2019-06-12T12:45:40Z</time>
      </trkpt>
      <trkpt lat="44.44728" lon="5.91229">
        <ele>918</ele>
        <time>2019-06-12T12:45:41Z</time>
      </trkpt>
      <trkpt lat="44.44729" lon="5.91226">
        <ele>918</ele>
        <time>2019-06-12T12:45:42Z</time>
      </trkpt>
      <trkpt lat="44.4473" lon="5.91222">
        <ele>918</ele>
        <time>2019-06-12T12:45:43Z</time>
      </trkpt>
      <trkpt lat="44.44732" lon="5.91219">
        <ele>918</ele>
        <time>2019-06-12T12:45:44Z</time>
      </trkpt>
      <trkpt lat="44.44733" lon="5.91215">
        <ele>918</ele>
        <time>2019-06-12T12:45:45Z</time>
      </trkpt>
      <trkpt lat="44.44734" lon="5.91212">
        <ele>918</ele>
        <time>2019-06-12T12:45:46Z</time>
      </trkpt>
      <trkpt lat="44.44735" lon="5.91209">
        <ele>918</ele>
        <time>2019-06-12T12:45:47Z</time>
      </trkpt>
      <trkpt lat="44.44737" lon="5.91205">
        <ele>919</ele>
        <time>2019-06-12T12:45:48Z</time>
      </trkpt>
      <trkpt lat="44.44738" lon="5.91202">
        <ele>919</ele>
        <time>2019-06-12T12:45:49Z</time>
      </trkpt>
      <trkpt lat="44.44739" lon="5.91198">
        <ele>919</ele>
        <time>2019-06-12T12:45:50Z</time>
      </trkpt>
      <trkpt lat="44.4474" lon="5.91195">
        <ele>919</ele>
        <time>2019-06-12T12:45:51Z</time>
      </trkpt>
      <trkpt lat="44.44742" lon="5.91191">
        <ele>919</ele>
        <time>2019-06-12T12:45:52Z</time>
      </trkpt>
      <trkpt lat="44.44743" lon="5.91188">
        <ele>919</ele>
        <time>2019-06-12T12:45:53Z</time>
      </trkpt>
      <trkpt lat="44.44744" lon="5.91185">
        <ele>919</ele>
        <time>2019-06-12T12:45:54Z</time>
      </trkpt>
      <trkpt lat="44.44745" lon="5.91181">
        <ele>919</ele>
        <time>2019-06-12T12:45:55Z</time>
      </trkpt>
      <trkpt lat="44.44746" lon="5.91178">
        <ele>919</ele>
        <time>2019-06-12T12:45:56Z</time>
      </trkpt>
      <trkpt lat="44.44748" lon="5.91175">
        <ele>920</ele>
        <time>2019-06-12T12:45:57Z</time>
      </trkpt>
      <trkpt lat="44.44749" lon="5.91172">
        <ele>920</ele>
        <time>2019-06-12T12:45:58Z</time>
      </trkpt>
      <trkpt lat="44.4475" lon="5.91169">
        <ele>920</ele>
        <time>2019-06-12T12:45:59Z</time>
      </trkpt>
      <trkpt lat="44.44751" lon="5.91166">
        <ele>920</ele>
        <time>2019-06-12T12:46:00Z</time>
      </trkpt>
      <trkpt lat="44.44753" lon="5.91163">
        <ele>920</ele>
        <time>2019-06-12T12:46:01Z</time>
      </trkpt>
      <trkpt lat="44.44754" lon="5.9116">
        <ele>920</ele>
        <time>2019-06-12T12:46:02Z</time>
      </trkpt>
      <trkpt lat="44.44755" lon="5.91157">
        <ele>920</ele>
        <time>2019-06-12T12:46:03Z</time>
      </trkpt>
      <trkpt lat="44.44756" lon="5.91154">
        <ele>921</ele>
        <time>2019-06-12T12:46:04Z</time>
      </trkpt>
      <trkpt lat="44.44758" lon="5.91151">
        <ele>921</ele>
        <time>2019-06-12T12:46:05Z</time>
      </trkpt>
      <trkpt lat="44.44759" lon="5.91148">
        <ele>921</ele>
        <time>2019-06-12T12:46:06Z</time>
      </trkpt>
      <trkpt lat="44.4476" lon="5.91145">
        <ele>921</ele>
        <time>2019-06-12T12:46:07Z</time>
      </trkpt>
      <trkpt lat="44.44761" lon="5.91142">
        <ele>921</ele>
        <time>2019-06-12T12:46:08Z</time>
      </trkpt>
      <trkpt lat="44.44762" lon="5.91139">
        <ele>922</ele>
        <time>2019-06-12T12:46:09Z</time>
      </trkpt>
      <trkpt lat="44.44764" lon="5.91135">
        <ele>922</ele>
        <time>2019-06-12T12:46:10Z</time>
      </trkpt>
      <trkpt lat="44.44765" lon="5.91132">
        <ele>922</ele>
        <time>2019-06-12T12:46:11Z</time>
      </trkpt>
      <trkpt lat="44.44765" lon="5.91129">
        <ele>922</ele>
        <time>2019-06-12T12:46:12Z</time>
      </trkpt>
      <trkpt lat="44.44766" lon="5.91126">
        <ele>922</ele>
        <time>2019-06-12T12:46:13Z</time>
      </trkpt>
      <trkpt lat="44.44767" lon="5.91122">
        <ele>923</ele>
        <time>2019-06-12T12:46:14Z</time>
      </trkpt>
      <trkpt lat="44.44769" lon="5.91119">
        <ele>923</ele>
        <time>2019-06-12T12:46:15Z</time>
      </trkpt>
      <trkpt lat="44.4477" lon="5.91116">
        <ele>923</ele>
        <time>2019-06-12T12:46:16Z</time>
      </trkpt>
      <trkpt lat="44.44771" lon="5.91112">
        <ele>923</ele>
        <time>2019-06-12T12:46:17Z</time>
      </trkpt>
      <trkpt lat="44.44772" lon="5.91109">
        <ele>923</ele>
        <time>2019-06-12T12:46:18Z</time>
      </trkpt>
      <trkpt lat="44.44774" lon="5.91106">
        <ele>924</ele>
        <time>2019-06-12T12:46:19Z</time>
      </trkpt>
      <trkpt lat="44.44775" lon="5.91102">
        <ele>924</ele>
        <time>2019-06-12T12:46:20Z</time>
      </trkpt>
      <trkpt lat="44.44776" lon="5.91099">
        <ele>924</ele>
        <time>2019-06-12T12:46:21Z</time>
      </trkpt>
      <trkpt lat="44.44777" lon="5.91095">
        <ele>924</ele>
        <time>2019-06-12T12:46:22Z</time>
      </trkpt>
      <trkpt lat="44.44778" lon="5.91092">
        <ele>924</ele>
        <time>2019-06-12T12:46:23Z</time>
      </trkpt>
      <trkpt lat="44.4478" lon="5.91089">
        <ele>925</ele>
        <time>2019-06-12T12:46:24Z</time>
      </trkpt>
      <trkpt lat="44.4478" lon="5.91085">
        <ele>925</ele>
        <time>2019-06-12T12:46:25Z</time>
      </trkpt>
      <trkpt lat="44.44781" lon="5.91081">
        <ele>925</ele>
        <time>2019-06-12T12:46:26Z</time>
      </trkpt>
      <trkpt lat="44.44782" lon="5.91078">
        <ele>925</ele>
        <time>2019-06-12T12:46:27Z</time>
      </trkpt>
      <trkpt lat="44.44784" lon="5.91074">
        <ele>926</ele>
        <time>2019-06-12T12:46:28Z</time>
      </trkpt>
      <trkpt lat="44.44786" lon="5.91071">
        <ele>926</ele>
        <time>2019-06-12T12:46:29Z</time>
      </trkpt>
      <trkpt lat="44.44787" lon="5.91068">
        <ele>926</ele>
        <time>2019-06-12T12:46:30Z</time>
      </trkpt>
      <trkpt lat="44.44788" lon="5.91065">
        <ele>926</ele>
        <time>2019-06-12T12:46:31Z</time>
      </trkpt>
      <trkpt lat="44.4479" lon="5.91063">
        <ele>926</ele>
        <time>2019-06-12T12:46:32Z</time>
      </trkpt>
      <trkpt lat="44.44791" lon="5.9106">
        <ele>927</ele>
        <time>2019-06-12T12:46:33Z</time>
      </trkpt>
      <trkpt lat="44.44792" lon="5.91056">
        <ele>927</ele>
        <time>2019-06-12T12:46:34Z</time>
      </trkpt>
      <trkpt lat="44.44793" lon="5.91053">
        <ele>927</ele>
        <time>2019-06-12T12:46:35Z</time>
      </trkpt>
      <trkpt lat="44.44794" lon="5.9105">
        <ele>927</ele>
        <time>2019-06-12T12:46:36Z</time>
      </trkpt>
      <trkpt lat="44.44796" lon="5.91047">
        <ele>927</ele>
        <time>2019-06-12T12:46:37Z</time>
      </trkpt>
      <trkpt lat="44.44797" lon="5.91044">
        <ele>927</ele>
        <time>2019-06-12T12:46:38Z</time>
      </trkpt>
      <trkpt lat="44.44798" lon="5.91041">
        <ele>927</ele>
        <time>2019-06-12T12:46:39Z</time>
      </trkpt>
      <trkpt lat="44.44799" lon="5.91039">
        <ele>928</ele>
        <time>2019-06-12T12:46:40Z</time>
      </trkpt>
      <trkpt lat="44.448" lon="5.91036">
        <ele>928</ele>
        <time>2019-06-12T12:46:41Z</time>
      </trkpt>
      <trkpt lat="44.44801" lon="5.91033">
        <ele>928</ele>
        <time>2019-06-12T12:46:42Z</time>
      </trkpt>
      <trkpt lat="44.44802" lon="5.9103">
        <ele>928</ele>
        <time>2019-06-12T12:46:43Z</time>
      </trkpt>
      <trkpt lat="44.44803" lon="5.91027">
        <ele>928</ele>
        <time>2019-06-12T12:46:44Z</time>
      </trkpt>
      <trkpt lat="44.44804" lon="5.91024">
        <ele>928</ele>
        <time>2019-06-12T12:46:45Z</time>
      </trkpt>
      <trkpt lat="44.44805" lon="5.91021">
        <ele>928</ele>
        <time>2019-06-12T12:46:46Z</time>
      </trkpt>
      <trkpt lat="44.44806" lon="5.91018">
        <ele>929</ele>
        <time>2019-06-12T12:46:47Z</time>
      </trkpt>
      <trkpt lat="44.44807" lon="5.91016">
        <ele>929</ele>
        <time>2019-06-12T12:46:48Z</time>
      </trkpt>
      <trkpt lat="44.44808" lon="5.91013">
        <ele>929</ele>
        <time>2019-06-12T12:46:49Z</time>
      </trkpt>
      <trkpt lat="44.44809" lon="5.9101">
        <ele>929</ele>
        <time>2019-06-12T12:46:50Z</time>
      </trkpt>
      <trkpt lat="44.4481" lon="5.91007">
        <ele>929</ele>
        <time>2019-06-12T12:46:51Z</time>
      </trkpt>
      <trkpt lat="44.44811" lon="5.91004">
        <ele>929</ele>
        <time>2019-06-12T12:46:52Z</time>
      </trkpt>
      <trkpt lat="44.44812" lon="5.91002">
        <ele>930</ele>
        <time>2019-06-12T12:46:53Z</time>
      </trkpt>
      <trkpt lat="44.44813" lon="5.90999">
        <ele>930</ele>
        <time>2019-06-12T12:46:54Z</time>
      </trkpt>
      <trkpt lat="44.44815" lon="5.90996">
        <ele>930</ele>
        <time>2019-06-12T12:46:55Z</time>
      </trkpt>
      <trkpt lat="44.44816" lon="5.90994">
        <ele>930</ele>
        <time>2019-06-12T12:46:56Z</time>
      </trkpt>
      <trkpt lat="44.44818" lon="5.90992">
        <ele>930</ele>
        <time>2019-06-12T12:46:57Z</time>
      </trkpt>
      <trkpt lat="44.44819" lon="5.90989">
        <ele>930</ele>
        <time>2019-06-12T12:46:58Z</time>
      </trkpt>
      <trkpt lat="44.44821" lon="5.90986">
        <ele>931</ele>
        <time>2019-06-12T12:46:59Z</time>
      </trkpt>
      <trkpt lat="44.44822" lon="5.90983">
        <ele>931</ele>
        <time>2019-06-12T12:47:00Z</time>
      </trkpt>
      <trkpt lat="44.44823" lon="5.9098">
        <ele>931</ele>
        <time>2019-06-12T12:47:01Z</time>
      </trkpt>
      <trkpt lat="44.44825" lon="5.90977">
        <ele>931</ele>
        <time>2019-06-12T12:47:02Z</time>
      </trkpt>
      <trkpt lat="44.44827" lon="5.90975">
        <ele>932</ele>
        <time>2019-06-12T12:47:03Z</time>
      </trkpt>
      <trkpt lat="44.44828" lon="5.90972">
        <ele>932</ele>
        <time>2019-06-12T12:47:04Z</time>
      </trkpt>
      <trkpt lat="44.4483" lon="5.90969">
        <ele>932</ele>
        <time>2019-06-12T12:47:05Z</time>
      </trkpt>
      <trkpt lat="44.44832" lon="5.90966">
        <ele>933</ele>
        <time>2019-06-12T12:47:06Z</time>
      </trkpt>
      <trkpt lat="44.44833" lon="5.90963">
        <ele>933</ele>
        <time>2019-06-12T12:47:07Z</time>
      </trkpt>
      <trkpt lat="44.44835" lon="5.9096">
        <ele>933</ele>
        <time>2019-06-12T12:47:08Z</time>
      </trkpt>
      <trkpt lat="44.44836" lon="5.90957">
        <ele>934</ele>
        <time>2019-06-12T12:47:09Z</time>
      </trkpt>
      <trkpt lat="44.44838" lon="5.90953">
        <ele>934</ele>
        <time>2019-06-12T12:47:10Z</time>
      </trkpt>
      <trkpt lat="44.44838" lon="5.9095">
        <ele>934</ele>
        <time>2019-06-12T12:47:11Z</time>
      </trkpt>
      <trkpt lat="44.44839" lon="5.90946">
        <ele>934</ele>
        <time>2019-06-12T12:47:12Z</time>
      </trkpt>
      <trkpt lat="44.4484" lon="5.90942">
        <ele>935</ele>
        <time>2019-06-12T12:47:13Z</time>
      </trkpt>
      <trkpt lat="44.44841" lon="5.90938">
        <ele>935</ele>
        <time>2019-06-12T12:47:14Z</time>
      </trkpt>
      <trkpt lat="44.44841" lon="5.90934">
        <ele>935</ele>
        <time>2019-06-12T12:47:15Z</time>
      </trkpt>
      <trkpt lat="44.44841" lon="5.9093">
        <ele>935</ele>
        <time>2019-06-12T12:47:16Z</time>
      </trkpt>
      <trkpt lat="44.44841" lon="5.90927">
        <ele>936</ele>
        <time>2019-06-12T12:47:17Z</time>
      </trkpt>
      <trkpt lat="44.44841" lon="5.90922">
        <ele>936</ele>
        <time>2019-06-12T12:47:18Z</time>
      </trkpt>
      <trkpt lat="44.44841" lon="5.90918">
        <ele>936</ele>
        <time>2019-06-12T12:47:19Z</time>
      </trkpt>
      <trkpt lat="44.44841" lon="5.90914">
        <ele>937</ele>
        <time>2019-06-12T12:47:20Z</time>
      </trkpt>
      <trkpt lat="44.4484" lon="5.9091">
        <ele>937</ele>
        <time>2019-06-12T12:47:21Z</time>
      </trkpt>
      <trkpt lat="44.4484" lon="5.90906">
        <ele>937</ele>
        <time>2019-06-12T12:47:22Z</time>
      </trkpt>
      <trkpt lat="44.44839" lon="5.90903">
        <ele>938</ele>
        <time>2019-06-12T12:47:23Z</time>
      </trkpt>
      <trkpt lat="44.44839" lon="5.90899">
        <ele>938</ele>
        <time>2019-06-12T12:47:24Z</time>
      </trkpt>
      <trkpt lat="44.44838" lon="5.90895">
        <ele>939</ele>
        <time>2019-06-12T12:47:25Z</time>
      </trkpt>
      <trkpt lat="44.44838" lon="5.90891">
        <ele>939</ele>
        <time>2019-06-12T12:47:26Z</time>
      </trkpt>
      <trkpt lat="44.44838" lon="5.90888">
        <ele>939</ele>
        <time>2019-06-12T12:47:27Z</time>
      </trkpt>
      <trkpt lat="44.44837" lon="5.90884">
        <ele>939</ele>
        <time>2019-06-12T12:47:28Z</time>
      </trkpt>
      <trkpt lat="44.44837" lon="5.9088">
        <ele>940</ele>
        <time>2019-06-12T12:47:29Z</time>
      </trkpt>
      <trkpt lat="44.44837" lon="5.90876">
        <ele>940</ele>
        <time>2019-06-12T12:47:30Z</time>
      </trkpt>
      <trkpt lat="44.44837" lon="5.90872">
        <ele>940</ele>
        <time>2019-06-12T12:47:31Z</time>
      </trkpt>
      <trkpt lat="44.44837" lon="5.90868">
        <ele>940</ele>
        <time>2019-06-12T12:47:32Z</time>
      </trkpt>
      <trkpt lat="44.44836" lon="5.90864">
        <ele>940</ele>
        <time>2019-06-12T12:47:33Z</time>
      </trkpt>
      <trkpt lat="44.44836" lon="5.9086">
        <ele>940</ele>
        <time>2019-06-12T12:47:34Z</time>
      </trkpt>
      <trkpt lat="44.44836" lon="5.90856">
        <ele>941</ele>
        <time>2019-06-12T12:47:35Z</time>
      </trkpt>
      <trkpt lat="44.44835" lon="5.90852">
        <ele>941</ele>
        <time>2019-06-12T12:47:36Z</time>
      </trkpt>
      <trkpt lat="44.44835" lon="5.90848">
        <ele>941</ele>
        <time>2019-06-12T12:47:37Z</time>
      </trkpt>
      <trkpt lat="44.44835" lon="5.90844">
        <ele>942</ele>
        <time>2019-06-12T12:47:38Z</time>
      </trkpt>
      <trkpt lat="44.44834" lon="5.9084">
        <ele>942</ele>
        <time>2019-06-12T12:47:39Z</time>
      </trkpt>
      <trkpt lat="44.44833" lon="5.90836">
        <ele>942</ele>
        <time>2019-06-12T12:47:40Z</time>
      </trkpt>
      <trkpt lat="44.44833" lon="5.90832">
        <ele>942</ele>
        <time>2019-06-12T12:47:41Z</time>
      </trkpt>
      <trkpt lat="44.44831" lon="5.90828">
        <ele>942</ele>
        <time>2019-06-12T12:47:42Z</time>
      </trkpt>
      <trkpt lat="44.4483" lon="5.90825">
        <ele>942</ele>
        <time>2019-06-12T12:47:43Z</time>
      </trkpt>
      <trkpt lat="44.44828" lon="5.90821">
        <ele>942</ele>
        <time>2019-06-12T12:47:44Z</time>
      </trkpt>
      <trkpt lat="44.44827" lon="5.90817">
        <ele>942</ele>
        <time>2019-06-12T12:47:45Z</time>
      </trkpt>
      <trkpt lat="44.44825" lon="5.90813">
        <ele>942</ele>
        <time>2019-06-12T12:47:46Z</time>
      </trkpt>
      <trkpt lat="44.44823" lon="5.9081">
        <ele>942</ele>
        <time>2019-06-12T12:47:47Z</time>
      </trkpt>
      <trkpt lat="44.44821" lon="5.90807">
        <ele>942</ele>
        <time>2019-06-12T12:47:48Z</time>
      </trkpt>
      <trkpt lat="44.44818" lon="5.90803">
        <ele>942</ele>
        <time>2019-06-12T12:47:49Z</time>
      </trkpt>
      <trkpt lat="44.44816" lon="5.908">
        <ele>942</ele>
        <time>2019-06-12T12:47:50Z</time>
      </trkpt>
      <trkpt lat="44.44814" lon="5.90798">
        <ele>942</ele>
        <time>2019-06-12T12:47:51Z</time>
      </trkpt>
      <trkpt lat="44.44811" lon="5.90796">
        <ele>942</ele>
        <time>2019-06-12T12:47:52Z</time>
      </trkpt>
      <trkpt lat="44.44808" lon="5.90794">
        <ele>942</ele>
        <time>2019-06-12T12:47:53Z</time>
      </trkpt>
      <trkpt lat="44.44806" lon="5.90791">
        <ele>942</ele>
        <time>2019-06-12T12:47:54Z</time>
      </trkpt>
      <trkpt lat="44.44803" lon="5.90788">
        <ele>942</ele>
        <time>2019-06-12T12:47:55Z</time>
      </trkpt>
      <trkpt lat="44.44801" lon="5.90785">
        <ele>942</ele>
        <time>2019-06-12T12:47:56Z</time>
      </trkpt>
      <trkpt lat="44.44799" lon="5.90781">
        <ele>942</ele>
        <time>2019-06-12T12:47:57Z</time>
      </trkpt>
      <trkpt lat="44.44797" lon="5.90776">
        <ele>943</ele>
        <time>2019-06-12T12:47:58Z</time>
      </trkpt>
      <trkpt lat="44.44794" lon="5.90772">
        <ele>943</ele>
        <time>2019-06-12T12:47:59Z</time>
      </trkpt>
      <trkpt lat="44.44793" lon="5.90767">
        <ele>944</ele>
        <time>2019-06-12T12:48:00Z</time>
      </trkpt>
      <trkpt lat="44.44791" lon="5.90762">
        <ele>944</ele>
        <time>2019-06-12T12:48:01Z</time>
      </trkpt>
      <trkpt lat="44.4479" lon="5.90757">
        <ele>944</ele>
        <time>2019-06-12T12:48:02Z</time>
      </trkpt>
      <trkpt lat="44.4479" lon="5.90751">
        <ele>945</ele>
        <time>2019-06-12T12:48:03Z</time>
      </trkpt>
      <trkpt lat="44.44789" lon="5.90745">
        <ele>945</ele>
        <time>2019-06-12T12:48:04Z</time>
      </trkpt>
      <trkpt lat="44.44789" lon="5.90739">
        <ele>945</ele>
        <time>2019-06-12T12:48:05Z</time>
      </trkpt>
      <trkpt lat="44.4479" lon="5.90732">
        <ele>945</ele>
        <time>2019-06-12T12:48:06Z</time>
      </trkpt>
      <trkpt lat="44.4479" lon="5.90726">
        <ele>945</ele>
        <time>2019-06-12T12:48:07Z</time>
      </trkpt>
      <trkpt lat="44.44793" lon="5.9072">
        <ele>945</ele>
        <time>2019-06-12T12:48:08Z</time>
      </trkpt>
      <trkpt lat="44.44796" lon="5.90715">
        <ele>945</ele>
        <time>2019-06-12T12:48:09Z</time>
      </trkpt>
      <trkpt lat="44.448" lon="5.90711">
        <ele>945</ele>
        <time>2019-06-12T12:48:10Z</time>
      </trkpt>
      <trkpt lat="44.44804" lon="5.90708">
        <ele>945</ele>
        <time>2019-06-12T12:48:11Z</time>
      </trkpt>
      <trkpt lat="44.44809" lon="5.90708">
        <ele>945</ele>
        <time>2019-06-12T12:48:12Z</time>
      </trkpt>
      <trkpt lat="44.44814" lon="5.9071">
        <ele>945</ele>
        <time>2019-06-12T12:48:13Z</time>
      </trkpt>
      <trkpt lat="44.44818" lon="5.90712">
        <ele>945</ele>
        <time>2019-06-12T12:48:14Z</time>
      </trkpt>
      <trkpt lat="44.44822" lon="5.90714">
        <ele>945</ele>
        <time>2019-06-12T12:48:15Z</time>
      </trkpt>
      <trkpt lat="44.44825" lon="5.90717">
        <ele>945</ele>
        <time>2019-06-12T12:48:16Z</time>
      </trkpt>
      <trkpt lat="44.44829" lon="5.90719">
        <ele>945</ele>
        <time>2019-06-12T12:48:17Z</time>
      </trkpt>
      <trkpt lat="44.44832" lon="5.90721">
        <ele>945</ele>
        <time>2019-06-12T12:48:18Z</time>
      </trkpt>
      <trkpt lat="44.44835" lon="5.90723">
        <ele>945</ele>
        <time>2019-06-12T12:48:19Z</time>
      </trkpt>
      <trkpt lat="44.44837" lon="5.90724">
        <ele>945</ele>
        <time>2019-06-12T12:48:20Z</time>
      </trkpt>
      <trkpt lat="44.4484" lon="5.90726">
        <ele>945</ele>
        <time>2019-06-12T12:48:21Z</time>
      </trkpt>
      <trkpt lat="44.44842" lon="5.90726">
        <ele>945</ele>
        <time>2019-06-12T12:48:22Z</time>
      </trkpt>
      <trkpt lat="44.44845" lon="5.90727">
        <ele>945</ele>
        <time>2019-06-12T12:48:23Z</time>
      </trkpt>
      <trkpt lat="44.44848" lon="5.90728">
        <ele>945</ele>
        <time>2019-06-12T12:48:24Z</time>
      </trkpt>
      <trkpt lat="44.4485" lon="5.9073">
        <ele>945</ele>
        <time>2019-06-12T12:48:25Z</time>
      </trkpt>
      <trkpt lat="44.44853" lon="5.90731">
        <ele>945</ele>
        <time>2019-06-12T12:48:26Z</time>
      </trkpt>
      <trkpt lat="44.44855" lon="5.90731">
        <ele>945</ele>
        <time>2019-06-12T12:48:27Z</time>
      </trkpt>
      <trkpt lat="44.44858" lon="5.90732">
        <ele>945</ele>
        <time>2019-06-12T12:48:28Z</time>
      </trkpt>
      <trkpt lat="44.4486" lon="5.90732">
        <ele>945</ele>
        <time>2019-06-12T12:48:29Z</time>
      </trkpt>
      <trkpt lat="44.44862" lon="5.90733">
        <ele>946</ele>
        <time>2019-06-12T12:48:30Z</time>
      </trkpt>
      <trkpt lat="44.44865" lon="5.90734">
        <ele>946</ele>
        <time>2019-06-12T12:48:31Z</time>
      </trkpt>
      <trkpt lat="44.44867" lon="5.90736">
        <ele>946</ele>
        <time>2019-06-12T12:48:32Z</time>
      </trkpt>
      <trkpt lat="44.44869" lon="5.90737">
        <ele>946</ele>
        <time>2019-06-12T12:48:33Z</time>
      </trkpt>
      <trkpt lat="44.44872" lon="5.90738">
        <ele>947</ele>
        <time>2019-06-12T12:48:34Z</time>
      </trkpt>
      <trkpt lat="44.44874" lon="5.90738">
        <ele>947</ele>
        <time>2019-06-12T12:48:35Z</time>
      </trkpt>
      <trkpt lat="44.44876" lon="5.90739">
        <ele>947</ele>
        <time>2019-06-12T12:48:36Z</time>
      </trkpt>
      <trkpt lat="44.44879" lon="5.90739">
        <ele>947</ele>
        <time>2019-06-12T12:48:37Z</time>
      </trkpt>
      <trkpt lat="44.44881" lon="5.90739">
        <ele>947</ele>
        <time>2019-06-12T12:48:38Z</time>
      </trkpt>
      <trkpt lat="44.44884" lon="5.90739">
        <ele>947</ele>
        <time>2019-06-12T12:48:39Z</time>
      </trkpt>
      <trkpt lat="44.44887" lon="5.90738">
        <ele>947</ele>
        <time>2019-06-12T12:48:40Z</time>
      </trkpt>
      <trkpt lat="44.4489" lon="5.90737">
        <ele>947</ele>
        <time>2019-06-12T12:48:41Z</time>
      </trkpt>
      <trkpt lat="44.44893" lon="5.90736">
        <ele>947</ele>
        <time>2019-06-12T12:48:42Z</time>
      </trkpt>
      <trkpt lat="44.44896" lon="5.90733">
        <ele>947</ele>
        <time>2019-06-12T12:48:43Z</time>
      </trkpt>
      <trkpt lat="44.44899" lon="5.9073">
        <ele>947</ele>
        <time>2019-06-12T12:48:44Z</time>
      </trkpt>
      <trkpt lat="44.44901" lon="5.90727">
        <ele>947</ele>
        <time>2019-06-12T12:48:45Z</time>
      </trkpt>
      <trkpt lat="44.44903" lon="5.90723">
        <ele>947</ele>
        <time>2019-06-12T12:48:46Z</time>
      </trkpt>
      <trkpt lat="44.44906" lon="5.90719">
        <ele>947</ele>
        <time>2019-06-12T12:48:47Z</time>
      </trkpt>
      <trkpt lat="44.44908" lon="5.90715">
        <ele>947</ele>
        <time>2019-06-12T12:48:48Z</time>
      </trkpt>
      <trkpt lat="44.44911" lon="5.9071">
        <ele>947</ele>
        <time>2019-06-12T12:48:49Z</time>
      </trkpt>
      <trkpt lat="44.44913" lon="5.90706">
        <ele>947</ele>
        <time>2019-06-12T12:48:50Z</time>
      </trkpt>
      <trkpt lat="44.44916" lon="5.90702">
        <ele>947</ele>
        <time>2019-06-12T12:48:51Z</time>
      </trkpt>
      <trkpt lat="44.44919" lon="5.90697">
        <ele>947</ele>
        <time>2019-06-12T12:48:52Z</time>
      </trkpt>
      <trkpt lat="44.44921" lon="5.90693">
        <ele>947</ele>
        <time>2019-06-12T12:48:53Z</time>
      </trkpt>
      <trkpt lat="44.44924" lon="5.90689">
        <ele>947</ele>
        <time>2019-06-12T12:48:54Z</time>
      </trkpt>
      <trkpt lat="44.44927" lon="5.90684">
        <ele>947</ele>
        <time>2019-06-12T12:48:55Z</time>
      </trkpt>
      <trkpt lat="44.4493" lon="5.90679">
        <ele>947</ele>
        <time>2019-06-12T12:48:56Z</time>
      </trkpt>
      <trkpt lat="44.44933" lon="5.90673">
        <ele>947</ele>
        <time>2019-06-12T12:48:57Z</time>
      </trkpt>
      <trkpt lat="44.44937" lon="5.90668">
        <ele>947</ele>
        <time>2019-06-12T12:48:58Z</time>
      </trkpt>
      <trkpt lat="44.4494" lon="5.90662">
        <ele>947</ele>
        <time>2019-06-12T12:48:59Z</time>
      </trkpt>
      <trkpt lat="44.44944" lon="5.90657">
        <ele>947</ele>
        <time>2019-06-12T12:49:00Z</time>
      </trkpt>
      <trkpt lat="44.44947" lon="5.90651">
        <ele>947</ele>
        <time>2019-06-12T12:49:01Z</time>
      </trkpt>
      <trkpt lat="44.4495" lon="5.90646">
        <ele>947</ele>
        <time>2019-06-12T12:49:02Z</time>
      </trkpt>
      <trkpt lat="44.44954" lon="5.9064">
        <ele>947</ele>
        <time>2019-06-12T12:49:03Z</time>
      </trkpt>
      <trkpt lat="44.44958" lon="5.90634">
        <ele>947</ele>
        <time>2019-06-12T12:49:04Z</time>
      </trkpt>
      <trkpt lat="44.44962" lon="5.90629">
        <ele>947</ele>
        <time>2019-06-12T12:49:05Z</time>
      </trkpt>
      <trkpt lat="44.44965" lon="5.90623">
        <ele>947</ele>
        <time>2019-06-12T12:49:06Z</time>
      </trkpt>
      <trkpt lat="44.44969" lon="5.90617">
        <ele>947</ele>
        <time>2019-06-12T12:49:07Z</time>
      </trkpt>
      <trkpt lat="44.44972" lon="5.90612">
        <ele>947</ele>
        <time>2019-06-12T12:49:08Z</time>
      </trkpt>
      <trkpt lat="44.44975" lon="5.90606">
        <ele>947</ele>
        <time>2019-06-12T12:49:09Z</time>
      </trkpt>
      <trkpt lat="44.44979" lon="5.90601">
        <ele>947</ele>
        <time>2019-06-12T12:49:10Z</time>
      </trkpt>
      <trkpt lat="44.44982" lon="5.90596">
        <ele>947</ele>
        <time>2019-06-12T12:49:11Z</time>
      </trkpt>
      <trkpt lat="44.44985" lon="5.90591">
        <ele>947</ele>
        <time>2019-06-12T12:49:12Z</time>
      </trkpt>
      <trkpt lat="44.44988" lon="5.90587">
        <ele>947</ele>
        <time>2019-06-12T12:49:13Z</time>
      </trkpt>
      <trkpt lat="44.44991" lon="5.90582">
        <ele>947</ele>
        <time>2019-06-12T12:49:14Z</time>
      </trkpt>
      <trkpt lat="44.44993" lon="5.90578">
        <ele>947</ele>
        <time>2019-06-12T12:49:15Z</time>
      </trkpt>
      <trkpt lat="44.44995" lon="5.90573">
        <ele>947</ele>
        <time>2019-06-12T12:49:16Z</time>
      </trkpt>
      <trkpt lat="44.44998" lon="5.90569">
        <ele>947</ele>
        <time>2019-06-12T12:49:17Z</time>
      </trkpt>
      <trkpt lat="44.45001" lon="5.90565">
        <ele>947</ele>
        <time>2019-06-12T12:49:18Z</time>
      </trkpt>
      <trkpt lat="44.45003" lon="5.90561">
        <ele>948</ele>
        <time>2019-06-12T12:49:19Z</time>
      </trkpt>
      <trkpt lat="44.45006" lon="5.90557">
        <ele>948</ele>
        <time>2019-06-12T12:49:20Z</time>
      </trkpt>
      <trkpt lat="44.45008" lon="5.90554">
        <ele>948</ele>
        <time>2019-06-12T12:49:21Z</time>
      </trkpt>
      <trkpt lat="44.4501" lon="5.9055">
        <ele>948</ele>
        <time>2019-06-12T12:49:22Z</time>
      </trkpt>
      <trkpt lat="44.45012" lon="5.90546">
        <ele>949</ele>
        <time>2019-06-12T12:49:23Z</time>
      </trkpt>
      <trkpt lat="44.45015" lon="5.90543">
        <ele>949</ele>
        <time>2019-06-12T12:49:24Z</time>
      </trkpt>
      <trkpt lat="44.45017" lon="5.9054">
        <ele>949</ele>
        <time>2019-06-12T12:49:25Z</time>
      </trkpt>
      <trkpt lat="44.45019" lon="5.90536">
        <ele>949</ele>
        <time>2019-06-12T12:49:26Z</time>
      </trkpt>
      <trkpt lat="44.45021" lon="5.90532">
        <ele>949</ele>
        <time>2019-06-12T12:49:27Z</time>
      </trkpt>
      <trkpt lat="44.45023" lon="5.90529">
        <ele>950</ele>
        <time>2019-06-12T12:49:28Z</time>
      </trkpt>
      <trkpt lat="44.45026" lon="5.90525">
        <ele>950</ele>
        <time>2019-06-12T12:49:29Z</time>
      </trkpt>
      <trkpt lat="44.45028" lon="5.90522">
        <ele>950</ele>
        <time>2019-06-12T12:49:30Z</time>
      </trkpt>
      <trkpt lat="44.4503" lon="5.90518">
        <ele>950</ele>
        <time>2019-06-12T12:49:31Z</time>
      </trkpt>
      <trkpt lat="44.45032" lon="5.90515">
        <ele>951</ele>
        <time>2019-06-12T12:49:32Z</time>
      </trkpt>
      <trkpt lat="44.45034" lon="5.90511">
        <ele>951</ele>
        <time>2019-06-12T12:49:33Z</time>
      </trkpt>
      <trkpt lat="44.45036" lon="5.90508">
        <ele>951</ele>
        <time>2019-06-12T12:49:34Z</time>
      </trkpt>
      <trkpt lat="44.45039" lon="5.90505">
        <ele>951</ele>
        <time>2019-06-12T12:49:35Z</time>
      </trkpt>
      <trkpt lat="44.45041" lon="5.90502">
        <ele>952</ele>
        <time>2019-06-12T12:49:36Z</time>
      </trkpt>
      <trkpt lat="44.45044" lon="5.90499">
        <ele>952</ele>
        <time>2019-06-12T12:49:37Z</time>
      </trkpt>
      <trkpt lat="44.45047" lon="5.90497">
        <ele>952</ele>
        <time>2019-06-12T12:49:38Z</time>
      </trkpt>
      <trkpt lat="44.4505" lon="5.90495">
        <ele>952</ele>
        <time>2019-06-12T12:49:39Z</time>
      </trkpt>
      <trkpt lat="44.45053" lon="5.90494">
        <ele>953</ele>
        <time>2019-06-12T12:49:40Z</time>
      </trkpt>
      <trkpt lat="44.45056" lon="5.90492">
        <ele>953</ele>
        <time>2019-06-12T12:49:41Z</time>
      </trkpt>
      <trkpt lat="44.45059" lon="5.90491">
        <ele>953</ele>
        <time>2019-06-12T12:49:42Z</time>
      </trkpt>
      <trkpt lat="44.45062" lon="5.9049">
        <ele>954</ele>
        <time>2019-06-12T12:49:43Z</time>
      </trkpt>
      <trkpt lat="44.45065" lon="5.90489">
        <ele>954</ele>
        <time>2019-06-12T12:49:44Z</time>
      </trkpt>
      <trkpt lat="44.45068" lon="5.90488">
        <ele>954</ele>
        <time>2019-06-12T12:49:45Z</time>
      </trkpt>
      <trkpt lat="44.45071" lon="5.90488">
        <ele>955</ele>
        <time>2019-06-12T12:49:46Z</time>
      </trkpt>
      <trkpt lat="44.45074" lon="5.90487">
        <ele>955</ele>
        <time>2019-06-12T12:49:47Z</time>
      </trkpt>
      <trkpt lat="44.45078" lon="5.90486">
        <ele>955</ele>
        <time>2019-06-12T12:49:48Z</time>
      </trkpt>
      <trkpt lat="44.45081" lon="5.90485">
        <ele>955</ele>
        <time>2019-06-12T12:49:49Z</time>
      </trkpt>
      <trkpt lat="44.45084" lon="5.90484">
        <ele>956</ele>
        <time>2019-06-12T12:49:50Z</time>
      </trkpt>
      <trkpt lat="44.45087" lon="5.90483">
        <ele>956</ele>
        <time>2019-06-12T12:49:51Z</time>
      </trkpt>
      <trkpt lat="44.45089" lon="5.90482">
        <ele>956</ele>
        <time>2019-06-12T12:49:52Z</time>
      </trkpt>
      <trkpt lat="44.45092" lon="5.90481">
        <ele>956</ele>
        <time>2019-06-12T12:49:53Z</time>
      </trkpt>
      <trkpt lat="44.45095" lon="5.9048">
        <ele>957</ele>
        <time>2019-06-12T12:49:54Z</time>
      </trkpt>
      <trkpt lat="44.45098" lon="5.90479">
        <ele>957</ele>
        <time>2019-06-12T12:49:55Z</time>
      </trkpt>
      <trkpt lat="44.45101" lon="5.90477">
        <ele>957</ele>
        <time>2019-06-12T12:49:56Z</time>
      </trkpt>
      <trkpt lat="44.45103" lon="5.90475">
        <ele>957</ele>
        <time>2019-06-12T12:49:57Z</time>
      </trkpt>
      <trkpt lat="44.45106" lon="5.90474">
        <ele>957</ele>
        <time>2019-06-12T12:49:58Z</time>
      </trkpt>
      <trkpt lat="44.45109" lon="5.90472">
        <ele>957</ele>
        <time>2019-06-12T12:49:59Z</time>
      </trkpt>
      <trkpt lat="44.45112" lon="5.9047">
        <ele>958</ele>
        <time>2019-06-12T12:50:00Z</time>
      </trkpt>
      <trkpt lat="44.45114" lon="5.90467">
        <ele>958</ele>
        <time>2019-06-12T12:50:01Z</time>
      </trkpt>
      <trkpt lat="44.45117" lon="5.90465">
        <ele>958</ele>
        <time>2019-06-12T12:50:02Z</time>
      </trkpt>
      <trkpt lat="44.45119" lon="5.90463">
        <ele>958</ele>
        <time>2019-06-12T12:50:03Z</time>
      </trkpt>
      <trkpt lat="44.45122" lon="5.9046">
        <ele>959</ele>
        <time>2019-06-12T12:50:04Z</time>
      </trkpt>
      <trkpt lat="44.45125" lon="5.90458">
        <ele>959</ele>
        <time>2019-06-12T12:50:05Z</time>
      </trkpt>
      <trkpt lat="44.45127" lon="5.90455">
        <ele>959</ele>
        <time>2019-06-12T12:50:06Z</time>
      </trkpt>
      <trkpt lat="44.4513" lon="5.90452">
        <ele>959</ele>
        <time>2019-06-12T12:50:07Z</time>
      </trkpt>
      <trkpt lat="44.45132" lon="5.90449">
        <ele>959</ele>
        <time>2019-06-12T12:50:08Z</time>
      </trkpt>
      <trkpt lat="44.45134" lon="5.90446">
        <ele>960</ele>
        <time>2019-06-12T12:50:09Z</time>
      </trkpt>
      <trkpt lat="44.45135" lon="5.90443">
        <ele>960</ele>
        <time>2019-06-12T12:50:10Z</time>
      </trkpt>
      <trkpt lat="44.45137" lon="5.9044">
        <ele>960</ele>
        <time>2019-06-12T12:50:11Z</time>
      </trkpt>
      <trkpt lat="44.45139" lon="5.90437">
        <ele>960</ele>
        <time>2019-06-12T12:50:12Z</time>
      </trkpt>
      <trkpt lat="44.45141" lon="5.90435">
        <ele>960</ele>
        <time>2019-06-12T12:50:13Z</time>
      </trkpt>
      <trkpt lat="44.45143" lon="5.90432">
        <ele>960</ele>
        <time>2019-06-12T12:50:14Z</time>
      </trkpt>
      <trkpt lat="44.45145" lon="5.90428">
        <ele>960</ele>
        <time>2019-06-12T12:50:15Z</time>
      </trkpt>
      <trkpt lat="44.45146" lon="5.90425">
        <ele>960</ele>
        <time>2019-06-12T12:50:16Z</time>
      </trkpt>
      <trkpt lat="44.45148" lon="5.90422">
        <ele>960</ele>
        <time>2019-06-12T12:50:17Z</time>
      </trkpt>
      <trkpt lat="44.4515" lon="5.90418">
        <ele>960</ele>
        <time>2019-06-12T12:50:18Z</time>
      </trkpt>
      <trkpt lat="44.45151" lon="5.90415">
        <ele>960</ele>
        <time>2019-06-12T12:50:19Z</time>
      </trkpt>
      <trkpt lat="44.45153" lon="5.90412">
        <ele>960</ele>
        <time>2019-06-12T12:50:20Z</time>
      </trkpt>
      <trkpt lat="44.45155" lon="5.90408">
        <ele>960</ele>
        <time>2019-06-12T12:50:21Z</time>
      </trkpt>
      <trkpt lat="44.45156" lon="5.90404">
        <ele>960</ele>
        <time>2019-06-12T12:50:22Z</time>
      </trkpt>
      <trkpt lat="44.45158" lon="5.90401">
        <ele>961</ele>
        <time>2019-06-12T12:50:23Z</time>
      </trkpt>
      <trkpt lat="44.4516" lon="5.90397">
        <ele>961</ele>
        <time>2019-06-12T12:50:24Z</time>
      </trkpt>
      <trkpt lat="44.45161" lon="5.90393">
        <ele>961</ele>
        <time>2019-06-12T12:50:25Z</time>
      </trkpt>
      <trkpt lat="44.45163" lon="5.90389">
        <ele>961</ele>
        <time>2019-06-12T12:50:26Z</time>
      </trkpt>
      <trkpt lat="44.45164" lon="5.90385">
        <ele>961</ele>
        <time>2019-06-12T12:50:27Z</time>
      </trkpt>
      <trkpt lat="44.45166" lon="5.90381">
        <ele>961</ele>
        <time>2019-06-12T12:50:28Z</time>
      </trkpt>
      <trkpt lat="44.45167" lon="5.90378">
        <ele>961</ele>
        <time>2019-06-12T12:50:29Z</time>
      </trkpt>
      <trkpt lat="44.45169" lon="5.90374">
        <ele>961</ele>
        <time>2019-06-12T12:50:30Z</time>
      </trkpt>
      <trkpt lat="44.4517" lon="5.90371">
        <ele>961</ele>
        <time>2019-06-12T12:50:31Z</time>
      </trkpt>
      <trkpt lat="44.45172" lon="5.90367">
        <ele>961</ele>
        <time>2019-06-12T12:50:32Z</time>
      </trkpt>
      <trkpt lat="44.45173" lon="5.90363">
        <ele>962</ele>
        <time>2019-06-12T12:50:33Z</time>
      </trkpt>
      <trkpt lat="44.45174" lon="5.9036">
        <ele>962</ele>
        <time>2019-06-12T12:50:34Z</time>
      </trkpt>
      <trkpt lat="44.45176" lon="5.90356">
        <ele>962</ele>
        <time>2019-06-12T12:50:35Z</time>
      </trkpt>
      <trkpt lat="44.45178" lon="5.90352">
        <ele>962</ele>
        <time>2019-06-12T12:50:36Z</time>
      </trkpt>
      <trkpt lat="44.4518" lon="5.90349">
        <ele>963</ele>
        <time>2019-06-12T12:50:37Z</time>
      </trkpt>
      <trkpt lat="44.45181" lon="5.90346">
        <ele>963</ele>
        <time>2019-06-12T12:50:38Z</time>
      </trkpt>
      <trkpt lat="44.45183" lon="5.90342">
        <ele>963</ele>
        <time>2019-06-12T12:50:39Z</time>
      </trkpt>
      <trkpt lat="44.45184" lon="5.90339">
        <ele>963</ele>
        <time>2019-06-12T12:50:40Z</time>
      </trkpt>
      <trkpt lat="44.45186" lon="5.90335">
        <ele>964</ele>
        <time>2019-06-12T12:50:41Z</time>
      </trkpt>
      <trkpt lat="44.45187" lon="5.90331">
        <ele>964</ele>
        <time>2019-06-12T12:50:42Z</time>
      </trkpt>
      <trkpt lat="44.45189" lon="5.90328">
        <ele>964</ele>
        <time>2019-06-12T12:50:43Z</time>
      </trkpt>
      <trkpt lat="44.45191" lon="5.90324">
        <ele>964</ele>
        <time>2019-06-12T12:50:44Z</time>
      </trkpt>
      <trkpt lat="44.45192" lon="5.9032">
        <ele>964</ele>
        <time>2019-06-12T12:50:45Z</time>
      </trkpt>
      <trkpt lat="44.45195" lon="5.90317">
        <ele>965</ele>
        <time>2019-06-12T12:50:46Z</time>
      </trkpt>
      <trkpt lat="44.45197" lon="5.90314">
        <ele>965</ele>
        <time>2019-06-12T12:50:47Z</time>
      </trkpt>
      <trkpt lat="44.45199" lon="5.9031">
        <ele>965</ele>
        <time>2019-06-12T12:50:48Z</time>
      </trkpt>
      <trkpt lat="44.45201" lon="5.90307">
        <ele>966</ele>
        <time>2019-06-12T12:50:49Z</time>
      </trkpt>
      <trkpt lat="44.45204" lon="5.90304">
        <ele>966</ele>
        <time>2019-06-12T12:50:50Z</time>
      </trkpt>
      <trkpt lat="44.45207" lon="5.90301">
        <ele>966</ele>
        <time>2019-06-12T12:50:51Z</time>
      </trkpt>
      <trkpt lat="44.4521" lon="5.90299">
        <ele>967</ele>
        <time>2019-06-12T12:50:52Z</time>
      </trkpt>
      <trkpt lat="44.45213" lon="5.90297">
        <ele>968</ele>
        <time>2019-06-12T12:50:53Z</time>
      </trkpt>
      <trkpt lat="44.45216" lon="5.90297">
        <ele>968</ele>
        <time>2019-06-12T12:50:54Z</time>
      </trkpt>
      <trkpt lat="44.45219" lon="5.90296">
        <ele>969</ele>
        <time>2019-06-12T12:50:55Z</time>
      </trkpt>
      <trkpt lat="44.45222" lon="5.90295">
        <ele>969</ele>
        <time>2019-06-12T12:50:56Z</time>
      </trkpt>
      <trkpt lat="44.45225" lon="5.90295">
        <ele>970</ele>
        <time>2019-06-12T12:50:57Z</time>
      </trkpt>
      <trkpt lat="44.45228" lon="5.90295">
        <ele>970</ele>
        <time>2019-06-12T12:50:58Z</time>
      </trkpt>
      <trkpt lat="44.45231" lon="5.90296">
        <ele>971</ele>
        <time>2019-06-12T12:50:59Z</time>
      </trkpt>
      <trkpt lat="44.45234" lon="5.90297">
        <ele>971</ele>
        <time>2019-06-12T12:51:00Z</time>
      </trkpt>
      <trkpt lat="44.45236" lon="5.90297">
        <ele>972</ele>
        <time>2019-06-12T12:51:01Z</time>
      </trkpt>
      <trkpt lat="44.45239" lon="5.90298">
        <ele>972</ele>
        <time>2019-06-12T12:51:02Z</time>
      </trkpt>
      <trkpt lat="44.45242" lon="5.90298">
        <ele>972</ele>
        <time>2019-06-12T12:51:03Z</time>
      </trkpt>
      <trkpt lat="44.45246" lon="5.90299">
        <ele>972</ele>
        <time>2019-06-12T12:51:04Z</time>
      </trkpt>
      <trkpt lat="44.45249" lon="5.903">
        <ele>972</ele>
        <time>2019-06-12T12:51:05Z</time>
      </trkpt>
      <trkpt lat="44.45252" lon="5.903">
        <ele>972</ele>
        <time>2019-06-12T12:51:06Z</time>
      </trkpt>
      <trkpt lat="44.45255" lon="5.90301">
        <ele>972</ele>
        <time>2019-06-12T12:51:07Z</time>
      </trkpt>
      <trkpt lat="44.45258" lon="5.90301">
        <ele>972</ele>
        <time>2019-06-12T12:51:08Z</time>
      </trkpt>
      <trkpt lat="44.45261" lon="5.90302">
        <ele>972</ele>
        <time>2019-06-12T12:51:09Z</time>
      </trkpt>
      <trkpt lat="44.45264" lon="5.90304">
        <ele>973</ele>
        <time>2019-06-12T12:51:10Z</time>
      </trkpt>
      <trkpt lat="44.45267" lon="5.90305">
        <ele>973</ele>
        <time>2019-06-12T12:51:11Z</time>
      </trkpt>
      <trkpt lat="44.45271" lon="5.90306">
        <ele>973</ele>
        <time>2019-06-12T12:51:12Z</time>
      </trkpt>
      <trkpt lat="44.45274" lon="5.90308">
        <ele>973</ele>
        <time>2019-06-12T12:51:13Z</time>
      </trkpt>
      <trkpt lat="44.45277" lon="5.90309">
        <ele>973</ele>
        <time>2019-06-12T12:51:14Z</time>
      </trkpt>
      <trkpt lat="44.4528" lon="5.90311">
        <ele>973</ele>
        <time>2019-06-12T12:51:15Z</time>
      </trkpt>
      <trkpt lat="44.45284" lon="5.90313">
        <ele>973</ele>
        <time>2019-06-12T12:51:16Z</time>
      </trkpt>
      <trkpt lat="44.45287" lon="5.90314">
        <ele>973</ele>
        <time>2019-06-12T12:51:17Z</time>
      </trkpt>
      <trkpt lat="44.4529" lon="5.90316">
        <ele>973</ele>
        <time>2019-06-12T12:51:18Z</time>
      </trkpt>
      <trkpt lat="44.45293" lon="5.90318">
        <ele>973</ele>
        <time>2019-06-12T12:51:19Z</time>
      </trkpt>
      <trkpt lat="44.45296" lon="5.9032">
        <ele>974</ele>
        <time>2019-06-12T12:51:20Z</time>
      </trkpt>
      <trkpt lat="44.45299" lon="5.90321">
        <ele>974</ele>
        <time>2019-06-12T12:51:21Z</time>
      </trkpt>
      <trkpt lat="44.45302" lon="5.90323">
        <ele>974</ele>
        <time>2019-06-12T12:51:22Z</time>
      </trkpt>
      <trkpt lat="44.45304" lon="5.90325">
        <ele>974</ele>
        <time>2019-06-12T12:51:23Z</time>
      </trkpt>
      <trkpt lat="44.45308" lon="5.90327">
        <ele>974</ele>
        <time>2019-06-12T12:51:24Z</time>
      </trkpt>
      <trkpt lat="44.45311" lon="5.90329">
        <ele>974</ele>
        <time>2019-06-12T12:51:25Z</time>
      </trkpt>
      <trkpt lat="44.45314" lon="5.90331">
        <ele>974</ele>
        <time>2019-06-12T12:51:26Z</time>
      </trkpt>
      <trkpt lat="44.45317" lon="5.90332">
        <ele>975</ele>
        <time>2019-06-12T12:51:27Z</time>
      </trkpt>
      <trkpt lat="44.45321" lon="5.90333">
        <ele>975</ele>
        <time>2019-06-12T12:51:28Z</time>
      </trkpt>
      <trkpt lat="44.45324" lon="5.90333">
        <ele>975</ele>
        <time>2019-06-12T12:51:29Z</time>
      </trkpt>
      <trkpt lat="44.45327" lon="5.90333">
        <ele>975</ele>
        <time>2019-06-12T12:51:30Z</time>
      </trkpt>
      <trkpt lat="44.45331" lon="5.90333">
        <ele>975</ele>
        <time>2019-06-12T12:51:31Z</time>
      </trkpt>
      <trkpt lat="44.45334" lon="5.90332">
        <ele>975</ele>
        <time>2019-06-12T12:51:32Z</time>
      </trkpt>
      <trkpt lat="44.45338" lon="5.90331">
        <ele>975</ele>
        <time>2019-06-12T12:51:33Z</time>
      </trkpt>
      <trkpt lat="44.45341" lon="5.9033">
        <ele>975</ele>
        <time>2019-06-12T12:51:34Z</time>
      </trkpt>
      <trkpt lat="44.45345" lon="5.9033">
        <ele>975</ele>
        <time>2019-06-12T12:51:35Z</time>
      </trkpt>
      <trkpt lat="44.45347" lon="5.90328">
        <ele>976</ele>
        <time>2019-06-12T12:51:36Z</time>
      </trkpt>
      <trkpt lat="44.45351" lon="5.90328">
        <ele>976</ele>
        <time>2019-06-12T12:51:37Z</time>
      </trkpt>
      <trkpt lat="44.45353" lon="5.90326">
        <ele>976</ele>
        <time>2019-06-12T12:51:38Z</time>
      </trkpt>
      <trkpt lat="44.45356" lon="5.90325">
        <ele>976</ele>
        <time>2019-06-12T12:51:39Z</time>
      </trkpt>
      <trkpt lat="44.45358" lon="5.90324">
        <ele>976</ele>
        <time>2019-06-12T12:51:40Z</time>
      </trkpt>
      <trkpt lat="44.45361" lon="5.90323">
        <ele>976</ele>
        <time>2019-06-12T12:51:41Z</time>
      </trkpt>
      <trkpt lat="44.45364" lon="5.90322">
        <ele>976</ele>
        <time>2019-06-12T12:51:42Z</time>
      </trkpt>
      <trkpt lat="44.45367" lon="5.90321">
        <ele>976</ele>
        <time>2019-06-12T12:51:43Z</time>
      </trkpt>
      <trkpt lat="44.45369" lon="5.9032">
        <ele>977</ele>
        <time>2019-06-12T12:51:44Z</time>
      </trkpt>
      <trkpt lat="44.45372" lon="5.90318">
        <ele>977</ele>
        <time>2019-06-12T12:51:45Z</time>
      </trkpt>
      <trkpt lat="44.45375" lon="5.90317">
        <ele>977</ele>
        <time>2019-06-12T12:51:46Z</time>
      </trkpt>
      <trkpt lat="44.45377" lon="5.90316">
        <ele>977</ele>
        <time>2019-06-12T12:51:47Z</time>
      </trkpt>
      <trkpt lat="44.4538" lon="5.90314">
        <ele>977</ele>
        <time>2019-06-12T12:51:48Z</time>
      </trkpt>
      <trkpt lat="44.45383" lon="5.90313">
        <ele>978</ele>
        <time>2019-06-12T12:51:49Z</time>
      </trkpt>
      <trkpt lat="44.45385" lon="5.90312">
        <ele>978</ele>
        <time>2019-06-12T12:51:50Z</time>
      </trkpt>
      <trkpt lat="44.45388" lon="5.9031">
        <ele>978</ele>
        <time>2019-06-12T12:51:51Z</time>
      </trkpt>
      <trkpt lat="44.4539" lon="5.90309">
        <ele>978</ele>
        <time>2019-06-12T12:51:52Z</time>
      </trkpt>
      <trkpt lat="44.45393" lon="5.90308">
        <ele>978</ele>
        <time>2019-06-12T12:51:53Z</time>
      </trkpt>
      <trkpt lat="44.45395" lon="5.90307">
        <ele>978</ele>
        <time>2019-06-12T12:51:54Z</time>
      </trkpt>
      <trkpt lat="44.45397" lon="5.90305">
        <ele>978</ele>
        <time>2019-06-12T12:51:55Z</time>
      </trkpt>
      <trkpt lat="44.454" lon="5.90303">
        <ele>979</ele>
        <time>2019-06-12T12:51:56Z</time>
      </trkpt>
      <trkpt lat="44.45402" lon="5.90301">
        <ele>979</ele>
        <time>2019-06-12T12:51:57Z</time>
      </trkpt>
      <trkpt lat="44.45405" lon="5.90299">
        <ele>979</ele>
        <time>2019-06-12T12:51:58Z</time>
      </trkpt>
      <trkpt lat="44.45407" lon="5.90297">
        <ele>980</ele>
        <time>2019-06-12T12:51:59Z</time>
      </trkpt>
      <trkpt lat="44.45409" lon="5.90296">
        <ele>980</ele>
        <time>2019-06-12T12:52:00Z</time>
      </trkpt>
      <trkpt lat="44.45412" lon="5.90294">
        <ele>980</ele>
        <time>2019-06-12T12:52:01Z</time>
      </trkpt>
      <trkpt lat="44.45414" lon="5.90292">
        <ele>980</ele>
        <time>2019-06-12T12:52:02Z</time>
      </trkpt>
      <trkpt lat="44.45416" lon="5.9029">
        <ele>981</ele>
        <time>2019-06-12T12:52:03Z</time>
      </trkpt>
      <trkpt lat="44.45419" lon="5.90288">
        <ele>981</ele>
        <time>2019-06-12T12:52:04Z</time>
      </trkpt>
      <trkpt lat="44.4542" lon="5.90285">
        <ele>981</ele>
        <time>2019-06-12T12:52:05Z</time>
      </trkpt>
      <trkpt lat="44.45422" lon="5.90283">
        <ele>981</ele>
        <time>2019-06-12T12:52:06Z</time>
      </trkpt>
      <trkpt lat="44.45423" lon="5.90281">
        <ele>982</ele>
        <time>2019-06-12T12:52:07Z</time>
      </trkpt>
      <trkpt lat="44.45425" lon="5.90278">
        <ele>982</ele>
        <time>2019-06-12T12:52:08Z</time>
      </trkpt>
      <trkpt lat="44.45427" lon="5.90275">
        <ele>982</ele>
        <time>2019-06-12T12:52:09Z</time>
      </trkpt>
      <trkpt lat="44.45429" lon="5.90273">
        <ele>982</ele>
        <time>2019-06-12T12:52:10Z</time>
      </trkpt>
      <trkpt lat="44.45431" lon="5.9027">
        <ele>982</ele>
        <time>2019-06-12T12:52:11Z</time>
      </trkpt>
      <trkpt lat="44.45432" lon="5.90267">
        <ele>982</ele>
        <time>2019-06-12T12:52:12Z</time>
      </trkpt>
      <trkpt lat="44.45433" lon="5.90263">
        <ele>982</ele>
        <time>2019-06-12T12:52:13Z</time>
      </trkpt>
      <trkpt lat="44.45434" lon="5.9026">
        <ele>982</ele>
        <time>2019-06-12T12:52:14Z</time>
      </trkpt>
      <trkpt lat="44.45434" lon="5.90256">
        <ele>982</ele>
        <time>2019-06-12T12:52:15Z</time>
      </trkpt>
      <trkpt lat="44.45435" lon="5.90252">
        <ele>983</ele>
        <time>2019-06-12T12:52:16Z</time>
      </trkpt>
      <trkpt lat="44.45435" lon="5.90248">
        <ele>983</ele>
        <time>2019-06-12T12:52:17Z</time>
      </trkpt>
      <trkpt lat="44.45435" lon="5.90244">
        <ele>983</ele>
        <time>2019-06-12T12:52:18Z</time>
      </trkpt>
      <trkpt lat="44.45435" lon="5.9024">
        <ele>983</ele>
        <time>2019-06-12T12:52:19Z</time>
      </trkpt>
      <trkpt lat="44.45435" lon="5.90237">
        <ele>984</ele>
        <time>2019-06-12T12:52:20Z</time>
      </trkpt>
      <trkpt lat="44.45435" lon="5.90234">
        <ele>984</ele>
        <time>2019-06-12T12:52:21Z</time>
      </trkpt>
      <trkpt lat="44.45435" lon="5.90231">
        <ele>984</ele>
        <time>2019-06-12T12:52:22Z</time>
      </trkpt>
      <trkpt lat="44.45435" lon="5.90227">
        <ele>984</ele>
        <time>2019-06-12T12:52:23Z</time>
      </trkpt>
      <trkpt lat="44.45436" lon="5.90224">
        <ele>985</ele>
        <time>2019-06-12T12:52:24Z</time>
      </trkpt>
      <trkpt lat="44.45436" lon="5.9022">
        <ele>985</ele>
        <time>2019-06-12T12:52:25Z</time>
      </trkpt>
      <trkpt lat="44.45437" lon="5.90216">
        <ele>985</ele>
        <time>2019-06-12T12:52:26Z</time>
      </trkpt>
      <trkpt lat="44.45438" lon="5.90213">
        <ele>985</ele>
        <time>2019-06-12T12:52:27Z</time>
      </trkpt>
      <trkpt lat="44.45439" lon="5.90209">
        <ele>985</ele>
        <time>2019-06-12T12:52:28Z</time>
      </trkpt>
      <trkpt lat="44.4544" lon="5.90205">
        <ele>985</ele>
        <time>2019-06-12T12:52:29Z</time>
      </trkpt>
      <trkpt lat="44.45441" lon="5.90203">
        <ele>985</ele>
        <time>2019-06-12T12:52:30Z</time>
      </trkpt>
      <trkpt lat="44.45442" lon="5.902">
        <ele>986</ele>
        <time>2019-06-12T12:52:31Z</time>
      </trkpt>
      <trkpt lat="44.45443" lon="5.90197">
        <ele>986</ele>
        <time>2019-06-12T12:52:32Z</time>
      </trkpt>
      <trkpt lat="44.45444" lon="5.90193">
        <ele>986</ele>
        <time>2019-06-12T12:52:33Z</time>
      </trkpt>
      <trkpt lat="44.45446" lon="5.9019">
        <ele>986</ele>
        <time>2019-06-12T12:52:34Z</time>
      </trkpt>
      <trkpt lat="44.45447" lon="5.90188">
        <ele>986</ele>
        <time>2019-06-12T12:52:35Z</time>
      </trkpt>
      <trkpt lat="44.45449" lon="5.90184">
        <ele>986</ele>
        <time>2019-06-12T12:52:36Z</time>
      </trkpt>
      <trkpt lat="44.4545" lon="5.90182">
        <ele>986</ele>
        <time>2019-06-12T12:52:37Z</time>
      </trkpt>
      <trkpt lat="44.45451" lon="5.90179">
        <ele>986</ele>
        <time>2019-06-12T12:52:38Z</time>
      </trkpt>
      <trkpt lat="44.45453" lon="5.90177">
        <ele>986</ele>
        <time>2019-06-12T12:52:39Z</time>
      </trkpt>
      <trkpt lat="44.45454" lon="5.90174">
        <ele>987</ele>
        <time>2019-06-12T12:52:40Z</time>
      </trkpt>
      <trkpt lat="44.45455" lon="5.90171">
        <ele>987</ele>
        <time>2019-06-12T12:52:41Z</time>
      </trkpt>
      <trkpt lat="44.45456" lon="5.90168">
        <ele>987</ele>
        <time>2019-06-12T12:52:42Z</time>
      </trkpt>
      <trkpt lat="44.45458" lon="5.90166">
        <ele>987</ele>
        <time>2019-06-12T12:52:43Z</time>
      </trkpt>
      <trkpt lat="44.45459" lon="5.90163">
        <ele>987</ele>
        <time>2019-06-12T12:52:44Z</time>
      </trkpt>
      <trkpt lat="44.4546" lon="5.9016">
        <ele>988</ele>
        <time>2019-06-12T12:52:45Z</time>
      </trkpt>
      <trkpt lat="44.45462" lon="5.90158">
        <ele>988</ele>
        <time>2019-06-12T12:52:46Z</time>
      </trkpt>
      <trkpt lat="44.45462" lon="5.90155">
        <ele>988</ele>
        <time>2019-06-12T12:52:47Z</time>
      </trkpt>
      <trkpt lat="44.45464" lon="5.90152">
        <ele>988</ele>
        <time>2019-06-12T12:52:48Z</time>
      </trkpt>
      <trkpt lat="44.45465" lon="5.90148">
        <ele>989</ele>
        <time>2019-06-12T12:52:49Z</time>
      </trkpt>
      <trkpt lat="44.45467" lon="5.90145">
        <ele>989</ele>
        <time>2019-06-12T12:52:50Z</time>
      </trkpt>
      <trkpt lat="44.45468" lon="5.90141">
        <ele>989</ele>
        <time>2019-06-12T12:52:51Z</time>
      </trkpt>
      <trkpt lat="44.45469" lon="5.90138">
        <ele>989</ele>
        <time>2019-06-12T12:52:52Z</time>
      </trkpt>
      <trkpt lat="44.4547" lon="5.90134">
        <ele>990</ele>
        <time>2019-06-12T12:52:53Z</time>
      </trkpt>
      <trkpt lat="44.45471" lon="5.90131">
        <ele>990</ele>
        <time>2019-06-12T12:52:54Z</time>
      </trkpt>
      <trkpt lat="44.45472" lon="5.90127">
        <ele>990</ele>
        <time>2019-06-12T12:52:55Z</time>
      </trkpt>
      <trkpt lat="44.45473" lon="5.90123">
        <ele>991</ele>
        <time>2019-06-12T12:52:56Z</time>
      </trkpt>
      <trkpt lat="44.45474" lon="5.9012">
        <ele>991</ele>
        <time>2019-06-12T12:52:57Z</time>
      </trkpt>
      <trkpt lat="44.45475" lon="5.90116">
        <ele>991</ele>
        <time>2019-06-12T12:52:58Z</time>
      </trkpt>
      <trkpt lat="44.45476" lon="5.90112">
        <ele>991</ele>
        <time>2019-06-12T12:52:59Z</time>
      </trkpt>
      <trkpt lat="44.45477" lon="5.90108">
        <ele>992</ele>
        <time>2019-06-12T12:53:00Z</time>
      </trkpt>
      <trkpt lat="44.45478" lon="5.90104">
        <ele>992</ele>
        <time>2019-06-12T12:53:01Z</time>
      </trkpt>
      <trkpt lat="44.45479" lon="5.90101">
        <ele>992</ele>
        <time>2019-06-12T12:53:02Z</time>
      </trkpt>
      <trkpt lat="44.4548" lon="5.90097">
        <ele>992</ele>
        <time>2019-06-12T12:53:03Z</time>
      </trkpt>
      <trkpt lat="44.45482" lon="5.90093">
        <ele>993</ele>
        <time>2019-06-12T12:53:04Z</time>
      </trkpt>
      <trkpt lat="44.45483" lon="5.9009">
        <ele>993</ele>
        <time>2019-06-12T12:53:05Z</time>
      </trkpt>
      <trkpt lat="44.45484" lon="5.90086">
        <ele>993</ele>
        <time>2019-06-12T12:53:06Z</time>
      </trkpt>
      <trkpt lat="44.45485" lon="5.90083">
        <ele>993</ele>
        <time>2019-06-12T12:53:07Z</time>
      </trkpt>
      <trkpt lat="44.45486" lon="5.90079">
        <ele>993</ele>
        <time>2019-06-12T12:53:08Z</time>
      </trkpt>
      <trkpt lat="44.45487" lon="5.90075">
        <ele>993</ele>
        <time>2019-06-12T12:53:09Z</time>
      </trkpt>
      <trkpt lat="44.45488" lon="5.90072">
        <ele>994</ele>
        <time>2019-06-12T12:53:10Z</time>
      </trkpt>
      <trkpt lat="44.45489" lon="5.90068">
        <ele>994</ele>
        <time>2019-06-12T12:53:11Z</time>
      </trkpt>
      <trkpt lat="44.4549" lon="5.90065">
        <ele>994</ele>
        <time>2019-06-12T12:53:12Z</time>
      </trkpt>
      <trkpt lat="44.45491" lon="5.90061">
        <ele>994</ele>
        <time>2019-06-12T12:53:13Z</time>
      </trkpt>
      <trkpt lat="44.45492" lon="5.90058">
        <ele>994</ele>
        <time>2019-06-12T12:53:14Z</time>
      </trkpt>
      <trkpt lat="44.45493" lon="5.90054">
        <ele>995</ele>
        <time>2019-06-12T12:53:15Z</time>
      </trkpt>
      <trkpt lat="44.45495" lon="5.90051">
        <ele>995</ele>
        <time>2019-06-12T12:53:16Z</time>
      </trkpt>
      <trkpt lat="44.45496" lon="5.90048">
        <ele>995</ele>
        <time>2019-06-12T12:53:17Z</time>
      </trkpt>
      <trkpt lat="44.45497" lon="5.90045">
        <ele>995</ele>
        <time>2019-06-12T12:53:18Z</time>
      </trkpt>
      <trkpt lat="44.45498" lon="5.90041">
        <ele>995</ele>
        <time>2019-06-12T12:53:19Z</time>
      </trkpt>
      <trkpt lat="44.45499" lon="5.90038">
        <ele>995</ele>
        <time>2019-06-12T12:53:20Z</time>
      </trkpt>
      <trkpt lat="44.455" lon="5.90035">
        <ele>995</ele>
        <time>2019-06-12T12:53:21Z</time>
      </trkpt>
      <trkpt lat="44.45501" lon="5.90032">
        <ele>995</ele>
        <time>2019-06-12T12:53:22Z</time>
      </trkpt>
      <trkpt lat="44.45502" lon="5.90029">
        <ele>995</ele>
        <time>2019-06-12T12:53:23Z</time>
      </trkpt>
      <trkpt lat="44.45504" lon="5.90026">
        <ele>995</ele>
        <time>2019-06-12T12:53:24Z</time>
      </trkpt>
      <trkpt lat="44.45505" lon="5.90023">
        <ele>995</ele>
        <time>2019-06-12T12:53:25Z</time>
      </trkpt>
      <trkpt lat="44.45506" lon="5.9002">
        <ele>995</ele>
        <time>2019-06-12T12:53:26Z</time>
      </trkpt>
      <trkpt lat="44.45507" lon="5.90017">
        <ele>995</ele>
        <time>2019-06-12T12:53:27Z</time>
      </trkpt>
      <trkpt lat="44.45508" lon="5.90014">
        <ele>995</ele>
        <time>2019-06-12T12:53:28Z</time>
      </trkpt>
      <trkpt lat="44.45509" lon="5.9001">
        <ele>995</ele>
        <time>2019-06-12T12:53:29Z</time>
      </trkpt>
      <trkpt lat="44.45509" lon="5.90007">
        <ele>995</ele>
        <time>2019-06-12T12:53:30Z</time>
      </trkpt>
      <trkpt lat="44.4551" lon="5.90003">
        <ele>995</ele>
        <time>2019-06-12T12:53:31Z</time>
      </trkpt>
      <trkpt lat="44.45511" lon="5.9">
        <ele>995</ele>
        <time>2019-06-12T12:53:32Z</time>
      </trkpt>
      <trkpt lat="44.45512" lon="5.89997">
        <ele>995</ele>
        <time>2019-06-12T12:53:33Z</time>
      </trkpt>
      <trkpt lat="44.45513" lon="5.89993">
        <ele>996</ele>
        <time>2019-06-12T12:53:34Z</time>
      </trkpt>
      <trkpt lat="44.45514" lon="5.8999">
        <ele>996</ele>
        <time>2019-06-12T12:53:35Z</time>
      </trkpt>
      <trkpt lat="44.45515" lon="5.89987">
        <ele>996</ele>
        <time>2019-06-12T12:53:36Z</time>
      </trkpt>
      <trkpt lat="44.45516" lon="5.89983">
        <ele>996</ele>
        <time>2019-06-12T12:53:37Z</time>
      </trkpt>
      <trkpt lat="44.45517" lon="5.89979">
        <ele>996</ele>
        <time>2019-06-12T12:53:38Z</time>
      </trkpt>
      <trkpt lat="44.45518" lon="5.89976">
        <ele>996</ele>
        <time>2019-06-12T12:53:39Z</time>
      </trkpt>
      <trkpt lat="44.45518" lon="5.89972">
        <ele>996</ele>
        <time>2019-06-12T12:53:40Z</time>
      </trkpt>
      <trkpt lat="44.45519" lon="5.89968">
        <ele>996</ele>
        <time>2019-06-12T12:53:41Z</time>
      </trkpt>
      <trkpt lat="44.45519" lon="5.89964">
        <ele>996</ele>
        <time>2019-06-12T12:53:42Z</time>
      </trkpt>
      <trkpt lat="44.45519" lon="5.8996">
        <ele>996</ele>
        <time>2019-06-12T12:53:43Z</time>
      </trkpt>
      <trkpt lat="44.4552" lon="5.89956">
        <ele>996</ele>
        <time>2019-06-12T12:53:44Z</time>
      </trkpt>
      <trkpt lat="44.4552" lon="5.89952">
        <ele>996</ele>
        <time>2019-06-12T12:53:45Z</time>
      </trkpt>
      <trkpt lat="44.4552" lon="5.89948">
        <ele>996</ele>
        <time>2019-06-12T12:53:46Z</time>
      </trkpt>
      <trkpt lat="44.4552" lon="5.89944">
        <ele>996</ele>
        <time>2019-06-12T12:53:47Z</time>
      </trkpt>
      <trkpt lat="44.4552" lon="5.8994">
        <ele>996</ele>
        <time>2019-06-12T12:53:48Z</time>
      </trkpt>
      <trkpt lat="44.4552" lon="5.89935">
        <ele>997</ele>
        <time>2019-06-12T12:53:49Z</time>
      </trkpt>
      <trkpt lat="44.45519" lon="5.89931">
        <ele>997</ele>
        <time>2019-06-12T12:53:50Z</time>
      </trkpt>
      <trkpt lat="44.45519" lon="5.89928">
        <ele>997</ele>
        <time>2019-06-12T12:53:51Z</time>
      </trkpt>
      <trkpt lat="44.45518" lon="5.89924">
        <ele>997</ele>
        <time>2019-06-12T12:53:52Z</time>
      </trkpt>
      <trkpt lat="44.45518" lon="5.8992">
        <ele>998</ele>
        <time>2019-06-12T12:53:53Z</time>
      </trkpt>
      <trkpt lat="44.45517" lon="5.89916">
        <ele>998</ele>
        <time>2019-06-12T12:53:54Z</time>
      </trkpt>
      <trkpt lat="44.45517" lon="5.89913">
        <ele>998</ele>
        <time>2019-06-12T12:53:55Z</time>
      </trkpt>
      <trkpt lat="44.45516" lon="5.89909">
        <ele>998</ele>
        <time>2019-06-12T12:53:56Z</time>
      </trkpt>
      <trkpt lat="44.45515" lon="5.89905">
        <ele>998</ele>
        <time>2019-06-12T12:53:57Z</time>
      </trkpt>
      <trkpt lat="44.45515" lon="5.89901">
        <ele>998</ele>
        <time>2019-06-12T12:53:58Z</time>
      </trkpt>
      <trkpt lat="44.45513" lon="5.89898">
        <ele>998</ele>
        <time>2019-06-12T12:53:59Z</time>
      </trkpt>
      <trkpt lat="44.45512" lon="5.89894">
        <ele>998</ele>
        <time>2019-06-12T12:54:00Z</time>
      </trkpt>
      <trkpt lat="44.45512" lon="5.8989">
        <ele>998</ele>
        <time>2019-06-12T12:54:01Z</time>
      </trkpt>
      <trkpt lat="44.4551" lon="5.89886">
        <ele>998</ele>
        <time>2019-06-12T12:54:02Z</time>
      </trkpt>
      <trkpt lat="44.45509" lon="5.89882">
        <ele>999</ele>
        <time>2019-06-12T12:54:03Z</time>
      </trkpt>
      <trkpt lat="44.45508" lon="5.89879">
        <ele>999</ele>
        <time>2019-06-12T12:54:04Z</time>
      </trkpt>
      <trkpt lat="44.45507" lon="5.89875">
        <ele>999</ele>
        <time>2019-06-12T12:54:05Z</time>
      </trkpt>
      <trkpt lat="44.45506" lon="5.89872">
        <ele>999</ele>
        <time>2019-06-12T12:54:06Z</time>
      </trkpt>
      <trkpt lat="44.45505" lon="5.89868">
        <ele>999</ele>
        <time>2019-06-12T12:54:07Z</time>
      </trkpt>
      <trkpt lat="44.45504" lon="5.89865">
        <ele>999</ele>
        <time>2019-06-12T12:54:08Z</time>
      </trkpt>
      <trkpt lat="44.45503" lon="5.89862">
        <ele>999</ele>
        <time>2019-06-12T12:54:09Z</time>
      </trkpt>
      <trkpt lat="44.45502" lon="5.89858">
        <ele>999</ele>
        <time>2019-06-12T12:54:10Z</time>
      </trkpt>
      <trkpt lat="44.45501" lon="5.89854">
        <ele>999</ele>
        <time>2019-06-12T12:54:11Z</time>
      </trkpt>
      <trkpt lat="44.455" lon="5.89851">
        <ele>1000</ele>
        <time>2019-06-12T12:54:12Z</time>
      </trkpt>
      <trkpt lat="44.45499" lon="5.89847">
        <ele>1000</ele>
        <time>2019-06-12T12:54:13Z</time>
      </trkpt>
      <trkpt lat="44.45499" lon="5.89843">
        <ele>1000</ele>
        <time>2019-06-12T12:54:14Z</time>
      </trkpt>
      <trkpt lat="44.45499" lon="5.89838">
        <ele>1000</ele>
        <time>2019-06-12T12:54:15Z</time>
      </trkpt>
      <trkpt lat="44.45499" lon="5.89833">
        <ele>1000</ele>
        <time>2019-06-12T12:54:16Z</time>
      </trkpt>
      <trkpt lat="44.455" lon="5.89829">
        <ele>1000</ele>
        <time>2019-06-12T12:54:17Z</time>
      </trkpt>
      <trkpt lat="44.45501" lon="5.89825">
        <ele>1000</ele>
        <time>2019-06-12T12:54:18Z</time>
      </trkpt>
      <trkpt lat="44.45502" lon="5.89821">
        <ele>1000</ele>
        <time>2019-06-12T12:54:19Z</time>
      </trkpt>
      <trkpt lat="44.45505" lon="5.89818">
        <ele>1000</ele>
        <time>2019-06-12T12:54:20Z</time>
      </trkpt>
      <trkpt lat="44.45508" lon="5.89815">
        <ele>1000</ele>
        <time>2019-06-12T12:54:21Z</time>
      </trkpt>
      <trkpt lat="44.45511" lon="5.89813">
        <ele>1000</ele>
        <time>2019-06-12T12:54:22Z</time>
      </trkpt>
      <trkpt lat="44.45514" lon="5.8981">
        <ele>1001</ele>
        <time>2019-06-12T12:54:23Z</time>
      </trkpt>
      <trkpt lat="44.45517" lon="5.89808">
        <ele>1001</ele>
        <time>2019-06-12T12:54:24Z</time>
      </trkpt>
      <trkpt lat="44.4552" lon="5.89806">
        <ele>1002</ele>
        <time>2019-06-12T12:54:25Z</time>
      </trkpt>
      <trkpt lat="44.45523" lon="5.89804">
        <ele>1002</ele>
        <time>2019-06-12T12:54:26Z</time>
      </trkpt>
      <trkpt lat="44.45527" lon="5.89803">
        <ele>1002</ele>
        <time>2019-06-12T12:54:27Z</time>
      </trkpt>
      <trkpt lat="44.4553" lon="5.89802">
        <ele>1002</ele>
        <time>2019-06-12T12:54:28Z</time>
      </trkpt>
      <trkpt lat="44.45534" lon="5.89801">
        <ele>1003</ele>
        <time>2019-06-12T12:54:29Z</time>
      </trkpt>
      <trkpt lat="44.45537" lon="5.89799">
        <ele>1003</ele>
        <time>2019-06-12T12:54:30Z</time>
      </trkpt>
      <trkpt lat="44.4554" lon="5.89797">
        <ele>1003</ele>
        <time>2019-06-12T12:54:31Z</time>
      </trkpt>
      <trkpt lat="44.45544" lon="5.89796">
        <ele>1004</ele>
        <time>2019-06-12T12:54:32Z</time>
      </trkpt>
      <trkpt lat="44.45547" lon="5.89796">
        <ele>1004</ele>
        <time>2019-06-12T12:54:33Z</time>
      </trkpt>
      <trkpt lat="44.4555" lon="5.89794">
        <ele>1005</ele>
        <time>2019-06-12T12:54:34Z</time>
      </trkpt>
      <trkpt lat="44.45554" lon="5.89793">
        <ele>1005</ele>
        <time>2019-06-12T12:54:35Z</time>
      </trkpt>
      <trkpt lat="44.45557" lon="5.89792">
        <ele>1006</ele>
        <time>2019-06-12T12:54:36Z</time>
      </trkpt>
      <trkpt lat="44.4556" lon="5.8979">
        <ele>1007</ele>
        <time>2019-06-12T12:54:37Z</time>
      </trkpt>
      <trkpt lat="44.45563" lon="5.89788">
        <ele>1008</ele>
        <time>2019-06-12T12:54:38Z</time>
      </trkpt>
      <trkpt lat="44.45565" lon="5.89786">
        <ele>1008</ele>
        <time>2019-06-12T12:54:39Z</time>
      </trkpt>
      <trkpt lat="44.45568" lon="5.89784">
        <ele>1009</ele>
        <time>2019-06-12T12:54:40Z</time>
      </trkpt>
      <trkpt lat="44.45569" lon="5.89781">
        <ele>1009</ele>
        <time>2019-06-12T12:54:41Z</time>
      </trkpt>
      <trkpt lat="44.45571" lon="5.89778">
        <ele>1010</ele>
        <time>2019-06-12T12:54:42Z</time>
      </trkpt>
      <trkpt lat="44.45573" lon="5.89776">
        <ele>1010</ele>
        <time>2019-06-12T12:54:43Z</time>
      </trkpt>
      <trkpt lat="44.45575" lon="5.89773">
        <ele>1010</ele>
        <time>2019-06-12T12:54:44Z</time>
      </trkpt>
      <trkpt lat="44.45576" lon="5.8977">
        <ele>1010</ele>
        <time>2019-06-12T12:54:45Z</time>
      </trkpt>
      <trkpt lat="44.45578" lon="5.89767">
        <ele>1010</ele>
        <time>2019-06-12T12:54:46Z</time>
      </trkpt>
      <trkpt lat="44.4558" lon="5.89765">
        <ele>1010</ele>
        <time>2019-06-12T12:54:47Z</time>
      </trkpt>
      <trkpt lat="44.45582" lon="5.89763">
        <ele>1010</ele>
        <time>2019-06-12T12:54:48Z</time>
      </trkpt>
      <trkpt lat="44.45585" lon="5.89763">
        <ele>1010</ele>
        <time>2019-06-12T12:54:49Z</time>
      </trkpt>
      <trkpt lat="44.45587" lon="5.89763">
        <ele>1010</ele>
        <time>2019-06-12T12:54:50Z</time>
      </trkpt>
      <trkpt lat="44.4559" lon="5.89765">
        <ele>1010</ele>
        <time>2019-06-12T12:54:51Z</time>
      </trkpt>
      <trkpt lat="44.45591" lon="5.89768">
        <ele>1010</ele>
        <time>2019-06-12T12:54:52Z</time>
      </trkpt>
      <trkpt lat="44.45593" lon="5.89771">
        <ele>1011</ele>
        <time>2019-06-12T12:54:53Z</time>
      </trkpt>
      <trkpt lat="44.45595" lon="5.89774">
        <ele>1011</ele>
        <time>2019-06-12T12:54:54Z</time>
      </trkpt>
      <trkpt lat="44.45597" lon="5.89777">
        <ele>1011</ele>
        <time>2019-06-12T12:54:55Z</time>
      </trkpt>
      <trkpt lat="44.45599" lon="5.8978">
        <ele>1011</ele>
        <time>2019-06-12T12:54:56Z</time>
      </trkpt>
      <trkpt lat="44.45602" lon="5.89782">
        <ele>1011</ele>
        <time>2019-06-12T12:54:57Z</time>
      </trkpt>
      <trkpt lat="44.45606" lon="5.89783">
        <ele>1011</ele>
        <time>2019-06-12T12:54:58Z</time>
      </trkpt>
      <trkpt lat="44.45609" lon="5.89783">
        <ele>1011</ele>
        <time>2019-06-12T12:54:59Z</time>
      </trkpt>
      <trkpt lat="44.45612" lon="5.89783">
        <ele>1011</ele>
        <time>2019-06-12T12:55:00Z</time>
      </trkpt>
      <trkpt lat="44.45615" lon="5.89781">
        <ele>1012</ele>
        <time>2019-06-12T12:55:01Z</time>
      </trkpt>
      <trkpt lat="44.45617" lon="5.89779">
        <ele>1012</ele>
        <time>2019-06-12T12:55:02Z</time>
      </trkpt>
      <trkpt lat="44.45618" lon="5.89776">
        <ele>1012</ele>
        <time>2019-06-12T12:55:03Z</time>
      </trkpt>
      <trkpt lat="44.4562" lon="5.89773">
        <ele>1012</ele>
        <time>2019-06-12T12:55:04Z</time>
      </trkpt>
      <trkpt lat="44.45622" lon="5.89771">
        <ele>1012</ele>
        <time>2019-06-12T12:55:05Z</time>
      </trkpt>
      <trkpt lat="44.45624" lon="5.89769">
        <ele>1012</ele>
        <time>2019-06-12T12:55:06Z</time>
      </trkpt>
      <trkpt lat="44.45626" lon="5.89766">
        <ele>1012</ele>
        <time>2019-06-12T12:55:07Z</time>
      </trkpt>
      <trkpt lat="44.45629" lon="5.89765">
        <ele>1012</ele>
        <time>2019-06-12T12:55:08Z</time>
      </trkpt>
      <trkpt lat="44.45632" lon="5.89763">
        <ele>1012</ele>
        <time>2019-06-12T12:55:09Z</time>
      </trkpt>
      <trkpt lat="44.45635" lon="5.89762">
        <ele>1012</ele>
        <time>2019-06-12T12:55:10Z</time>
      </trkpt>
      <trkpt lat="44.45638" lon="5.8976">
        <ele>1012</ele>
        <time>2019-06-12T12:55:11Z</time>
      </trkpt>
      <trkpt lat="44.4564" lon="5.89757">
        <ele>1012</ele>
        <time>2019-06-12T12:55:12Z</time>
      </trkpt>
      <trkpt lat="44.45641" lon="5.89755">
        <ele>1012</ele>
        <time>2019-06-12T12:55:13Z</time>
      </trkpt>
      <trkpt lat="44.45644" lon="5.89753">
        <ele>1013</ele>
        <time>2019-06-12T12:55:14Z</time>
      </trkpt>
      <trkpt lat="44.45645" lon="5.8975">
        <ele>1013</ele>
        <time>2019-06-12T12:55:15Z</time>
      </trkpt>
      <trkpt lat="44.45647" lon="5.89747">
        <ele>1013</ele>
        <time>2019-06-12T12:55:16Z</time>
      </trkpt>
      <trkpt lat="44.45648" lon="5.89745">
        <ele>1013</ele>
        <time>2019-06-12T12:55:17Z</time>
      </trkpt>
      <trkpt lat="44.4565" lon="5.89742">
        <ele>1013</ele>
        <time>2019-06-12T12:55:18Z</time>
      </trkpt>
      <trkpt lat="44.45652" lon="5.89739">
        <ele>1013</ele>
        <time>2019-06-12T12:55:19Z</time>
      </trkpt>
      <trkpt lat="44.45653" lon="5.89737">
        <ele>1014</ele>
        <time>2019-06-12T12:55:20Z</time>
      </trkpt>
      <trkpt lat="44.45655" lon="5.89734">
        <ele>1014</ele>
        <time>2019-06-12T12:55:21Z</time>
      </trkpt>
      <trkpt lat="44.45657" lon="5.89732">
        <ele>1015</ele>
        <time>2019-06-12T12:55:22Z</time>
      </trkpt>
      <trkpt lat="44.4566" lon="5.89731">
        <ele>1015</ele>
        <time>2019-06-12T12:55:23Z</time>
      </trkpt>
      <trkpt lat="44.45663" lon="5.89731">
        <ele>1015</ele>
        <time>2019-06-12T12:55:24Z</time>
      </trkpt>
      <trkpt lat="44.45666" lon="5.89732">
        <ele>1015</ele>
        <time>2019-06-12T12:55:25Z</time>
      </trkpt>
      <trkpt lat="44.45669" lon="5.89733">
        <ele>1016</ele>
        <time>2019-06-12T12:55:26Z</time>
      </trkpt>
      <trkpt lat="44.45672" lon="5.89736">
        <ele>1016</ele>
        <time>2019-06-12T12:55:27Z</time>
      </trkpt>
      <trkpt lat="44.45675" lon="5.89738">
        <ele>1016</ele>
        <time>2019-06-12T12:55:28Z</time>
      </trkpt>
      <trkpt lat="44.45677" lon="5.8974">
        <ele>1016</ele>
        <time>2019-06-12T12:55:29Z</time>
      </trkpt>
      <trkpt lat="44.4568" lon="5.89741">
        <ele>1016</ele>
        <time>2019-06-12T12:55:30Z</time>
      </trkpt>
      <trkpt lat="44.45683" lon="5.89741">
        <ele>1016</ele>
        <time>2019-06-12T12:55:31Z</time>
      </trkpt>
      <trkpt lat="44.45685" lon="5.8974">
        <ele>1016</ele>
        <time>2019-06-12T12:55:32Z</time>
      </trkpt>
      <trkpt lat="44.45688" lon="5.89739">
        <ele>1016</ele>
        <time>2019-06-12T12:55:33Z</time>
      </trkpt>
      <trkpt lat="44.45691" lon="5.89738">
        <ele>1016</ele>
        <time>2019-06-12T12:55:34Z</time>
      </trkpt>
      <trkpt lat="44.45694" lon="5.89736">
        <ele>1016</ele>
        <time>2019-06-12T12:55:35Z</time>
      </trkpt>
      <trkpt lat="44.45697" lon="5.89735">
        <ele>1017</ele>
        <time>2019-06-12T12:55:36Z</time>
      </trkpt>
      <trkpt lat="44.45699" lon="5.89732">
        <ele>1017</ele>
        <time>2019-06-12T12:55:37Z</time>
      </trkpt>
      <trkpt lat="44.45702" lon="5.8973">
        <ele>1017</ele>
        <time>2019-06-12T12:55:38Z</time>
      </trkpt>
      <trkpt lat="44.45704" lon="5.89727">
        <ele>1017</ele>
        <time>2019-06-12T12:55:39Z</time>
      </trkpt>
      <trkpt lat="44.45706" lon="5.89724">
        <ele>1018</ele>
        <time>2019-06-12T12:55:40Z</time>
      </trkpt>
      <trkpt lat="44.45707" lon="5.89722">
        <ele>1018</ele>
        <time>2019-06-12T12:55:41Z</time>
      </trkpt>
      <trkpt lat="44.45709" lon="5.89719">
        <ele>1018</ele>
        <time>2019-06-12T12:55:42Z</time>
      </trkpt>
      <trkpt lat="44.4571" lon="5.89716">
        <ele>1018</ele>
        <time>2019-06-12T12:55:43Z</time>
      </trkpt>
      <trkpt lat="44.45712" lon="5.89713">
        <ele>1018</ele>
        <time>2019-06-12T12:55:44Z</time>
      </trkpt>
      <trkpt lat="44.45713" lon="5.89711">
        <ele>1019</ele>
        <time>2019-06-12T12:55:45Z</time>
      </trkpt>
      <trkpt lat="44.45715" lon="5.89708">
        <ele>1019</ele>
        <time>2019-06-12T12:55:46Z</time>
      </trkpt>
      <trkpt lat="44.45716" lon="5.89706">
        <ele>1019</ele>
        <time>2019-06-12T12:55:47Z</time>
      </trkpt>
      <trkpt lat="44.45718" lon="5.89703">
        <ele>1019</ele>
        <time>2019-06-12T12:55:48Z</time>
      </trkpt>
      <trkpt lat="44.45719" lon="5.897">
        <ele>1020</ele>
        <time>2019-06-12T12:55:49Z</time>
      </trkpt>
      <trkpt lat="44.45721" lon="5.89698">
        <ele>1020</ele>
        <time>2019-06-12T12:55:50Z</time>
      </trkpt>
      <trkpt lat="44.45723" lon="5.89696">
        <ele>1020</ele>
        <time>2019-06-12T12:55:51Z</time>
      </trkpt>
      <trkpt lat="44.45724" lon="5.89693">
        <ele>1020</ele>
        <time>2019-06-12T12:55:52Z</time>
      </trkpt>
      <trkpt lat="44.45726" lon="5.89691">
        <ele>1020</ele>
        <time>2019-06-12T12:55:53Z</time>
      </trkpt>
      <trkpt lat="44.45729" lon="5.8969">
        <ele>1020</ele>
        <time>2019-06-12T12:55:54Z</time>
      </trkpt>
      <trkpt lat="44.45731" lon="5.89689">
        <ele>1021</ele>
        <time>2019-06-12T12:55:55Z</time>
      </trkpt>
      <trkpt lat="44.45734" lon="5.89687">
        <ele>1021</ele>
        <time>2019-06-12T12:55:56Z</time>
      </trkpt>
      <trkpt lat="44.45736" lon="5.89686">
        <ele>1021</ele>
        <time>2019-06-12T12:55:57Z</time>
      </trkpt>
      <trkpt lat="44.45739" lon="5.89684">
        <ele>1021</ele>
        <time>2019-06-12T12:55:58Z</time>
      </trkpt>
      <trkpt lat="44.45742" lon="5.89682">
        <ele>1021</ele>
        <time>2019-06-12T12:55:59Z</time>
      </trkpt>
      <trkpt lat="44.45743" lon="5.89679">
        <ele>1022</ele>
        <time>2019-06-12T12:56:00Z</time>
      </trkpt>
      <trkpt lat="44.45744" lon="5.89677">
        <ele>1022</ele>
        <time>2019-06-12T12:56:01Z</time>
      </trkpt>
      <trkpt lat="44.45747" lon="5.89674">
        <ele>1022</ele>
        <time>2019-06-12T12:56:02Z</time>
      </trkpt>
      <trkpt lat="44.45748" lon="5.89672">
        <ele>1023</ele>
        <time>2019-06-12T12:56:03Z</time>
      </trkpt>
      <trkpt lat="44.4575" lon="5.8967">
        <ele>1023</ele>
        <time>2019-06-12T12:56:04Z</time>
      </trkpt>
      <trkpt lat="44.4575" lon="5.89667">
        <ele>1023</ele>
        <time>2019-06-12T12:56:05Z</time>
      </trkpt>
      <trkpt lat="44.45752" lon="5.89664">
        <ele>1024</ele>
        <time>2019-06-12T12:56:06Z</time>
      </trkpt>
      <trkpt lat="44.45753" lon="5.89662">
        <ele>1024</ele>
        <time>2019-06-12T12:56:07Z</time>
      </trkpt>
      <trkpt lat="44.45755" lon="5.8966">
        <ele>1024</ele>
        <time>2019-06-12T12:56:08Z</time>
      </trkpt>
      <trkpt lat="44.45757" lon="5.8966">
        <ele>1025</ele>
        <time>2019-06-12T12:56:09Z</time>
      </trkpt>
      <trkpt lat="44.4576" lon="5.8966">
        <ele>1025</ele>
        <time>2019-06-12T12:56:10Z</time>
      </trkpt>
      <trkpt lat="44.45762" lon="5.8966">
        <ele>1025</ele>
        <time>2019-06-12T12:56:11Z</time>
      </trkpt>
      <trkpt lat="44.45765" lon="5.89661">
        <ele>1025</ele>
        <time>2019-06-12T12:56:12Z</time>
      </trkpt>
      <trkpt lat="44.45768" lon="5.89663">
        <ele>1025</ele>
        <time>2019-06-12T12:56:13Z</time>
      </trkpt>
      <trkpt lat="44.45771" lon="5.89664">
        <ele>1025</ele>
        <time>2019-06-12T12:56:14Z</time>
      </trkpt>
      <trkpt lat="44.45774" lon="5.89666">
        <ele>1025</ele>
        <time>2019-06-12T12:56:15Z</time>
      </trkpt>
      <trkpt lat="44.45778" lon="5.89667">
        <ele>1025</ele>
        <time>2019-06-12T12:56:16Z</time>
      </trkpt>
      <trkpt lat="44.45781" lon="5.89668">
        <ele>1025</ele>
        <time>2019-06-12T12:56:17Z</time>
      </trkpt>
      <trkpt lat="44.45785" lon="5.89668">
        <ele>1026</ele>
        <time>2019-06-12T12:56:18Z</time>
      </trkpt>
      <trkpt lat="44.45788" lon="5.89667">
        <ele>1026</ele>
        <time>2019-06-12T12:56:19Z</time>
      </trkpt>
      <trkpt lat="44.4579" lon="5.89666">
        <ele>1026</ele>
        <time>2019-06-12T12:56:20Z</time>
      </trkpt>
      <trkpt lat="44.45793" lon="5.89665">
        <ele>1026</ele>
        <time>2019-06-12T12:56:21Z</time>
      </trkpt>
      <trkpt lat="44.45795" lon="5.89664">
        <ele>1027</ele>
        <time>2019-06-12T12:56:22Z</time>
      </trkpt>
      <trkpt lat="44.45797" lon="5.89663">
        <ele>1027</ele>
        <time>2019-06-12T12:56:23Z</time>
      </trkpt>
      <trkpt lat="44.458" lon="5.89662">
        <ele>1027</ele>
        <time>2019-06-12T12:56:24Z</time>
      </trkpt>
      <trkpt lat="44.45802" lon="5.89662">
        <ele>1027</ele>
        <time>2019-06-12T12:56:25Z</time>
      </trkpt>
      <trkpt lat="44.45805" lon="5.89662">
        <ele>1028</ele>
        <time>2019-06-12T12:56:26Z</time>
      </trkpt>
      <trkpt lat="44.45807" lon="5.89662">
        <ele>1028</ele>
        <time>2019-06-12T12:56:27Z</time>
      </trkpt>
      <trkpt lat="44.4581" lon="5.89662">
        <ele>1028</ele>
        <time>2019-06-12T12:56:28Z</time>
      </trkpt>
      <trkpt lat="44.45812" lon="5.89662">
        <ele>1028</ele>
        <time>2019-06-12T12:56:29Z</time>
      </trkpt>
      <trkpt lat="44.45815" lon="5.89662">
        <ele>1028</ele>
        <time>2019-06-12T12:56:30Z</time>
      </trkpt>
      <trkpt lat="44.45817" lon="5.89663">
        <ele>1028</ele>
        <time>2019-06-12T12:56:31Z</time>
      </trkpt>
      <trkpt lat="44.45819" lon="5.89663">
        <ele>1028</ele>
        <time>2019-06-12T12:56:32Z</time>
      </trkpt>
      <trkpt lat="44.45822" lon="5.89663">
        <ele>1029</ele>
        <time>2019-06-12T12:56:33Z</time>
      </trkpt>
      <trkpt lat="44.45824" lon="5.89663">
        <ele>1029</ele>
        <time>2019-06-12T12:56:34Z</time>
      </trkpt>
      <trkpt lat="44.45826" lon="5.89663">
        <ele>1029</ele>
        <time>2019-06-12T12:56:35Z</time>
      </trkpt>
      <trkpt lat="44.45829" lon="5.89662">
        <ele>1029</ele>
        <time>2019-06-12T12:56:36Z</time>
      </trkpt>
      <trkpt lat="44.45831" lon="5.89662">
        <ele>1029</ele>
        <time>2019-06-12T12:56:37Z</time>
      </trkpt>
      <trkpt lat="44.45833" lon="5.89662">
        <ele>1029</ele>
        <time>2019-06-12T12:56:38Z</time>
      </trkpt>
      <trkpt lat="44.45835" lon="5.89662">
        <ele>1030</ele>
        <time>2019-06-12T12:56:39Z</time>
      </trkpt>
      <trkpt lat="44.45838" lon="5.89663">
        <ele>1030</ele>
        <time>2019-06-12T12:56:40Z</time>
      </trkpt>
      <trkpt lat="44.4584" lon="5.89663">
        <ele>1030</ele>
        <time>2019-06-12T12:56:41Z</time>
      </trkpt>
      <trkpt lat="44.45843" lon="5.89663">
        <ele>1030</ele>
        <time>2019-06-12T12:56:42Z</time>
      </trkpt>
      <trkpt lat="44.45845" lon="5.89663">
        <ele>1030</ele>
        <time>2019-06-12T12:56:43Z</time>
      </trkpt>
      <trkpt lat="44.45847" lon="5.89663">
        <ele>1031</ele>
        <time>2019-06-12T12:56:44Z</time>
      </trkpt>
      <trkpt lat="44.4585" lon="5.89663">
        <ele>1031</ele>
        <time>2019-06-12T12:56:45Z</time>
      </trkpt>
      <trkpt lat="44.45852" lon="5.89663">
        <ele>1031</ele>
        <time>2019-06-12T12:56:46Z</time>
      </trkpt>
      <trkpt lat="44.45854" lon="5.89663">
        <ele>1031</ele>
        <time>2019-06-12T12:56:47Z</time>
      </trkpt>
      <trkpt lat="44.45857" lon="5.89662">
        <ele>1031</ele>
        <time>2019-06-12T12:56:48Z</time>
      </trkpt>
      <trkpt lat="44.45859" lon="5.89661">
        <ele>1032</ele>
        <time>2019-06-12T12:56:49Z</time>
      </trkpt>
      <trkpt lat="44.45861" lon="5.8966">
        <ele>1032</ele>
        <time>2019-06-12T12:56:50Z</time>
      </trkpt>
      <trkpt lat="44.45863" lon="5.89659">
        <ele>1032</ele>
        <time>2019-06-12T12:56:51Z</time>
      </trkpt>
      <trkpt lat="44.45866" lon="5.89658">
        <ele>1032</ele>
        <time>2019-06-12T12:56:52Z</time>
      </trkpt>
      <trkpt lat="44.45868" lon="5.89656">
        <ele>1033</ele>
        <time>2019-06-12T12:56:53Z</time>
      </trkpt>
      <trkpt lat="44.4587" lon="5.89654">
        <ele>1033</ele>
        <time>2019-06-12T12:56:54Z</time>
      </trkpt>
      <trkpt lat="44.45872" lon="5.89652">
        <ele>1033</ele>
        <time>2019-06-12T12:56:55Z</time>
      </trkpt>
      <trkpt lat="44.45874" lon="5.8965">
        <ele>1033</ele>
        <time>2019-06-12T12:56:56Z</time>
      </trkpt>
      <trkpt lat="44.45876" lon="5.89648">
        <ele>1034</ele>
        <time>2019-06-12T12:56:57Z</time>
      </trkpt>
      <trkpt lat="44.45879" lon="5.89645">
        <ele>1034</ele>
        <time>2019-06-12T12:56:58Z</time>
      </trkpt>
      <trkpt lat="44.45881" lon="5.89643">
        <ele>1034</ele>
        <time>2019-06-12T12:56:59Z</time>
      </trkpt>
      <trkpt lat="44.45883" lon="5.8964">
        <ele>1034</ele>
        <time>2019-06-12T12:57:00Z</time>
      </trkpt>
      <trkpt lat="44.45885" lon="5.89638">
        <ele>1035</ele>
        <time>2019-06-12T12:57:01Z</time>
      </trkpt>
      <trkpt lat="44.45887" lon="5.89635">
        <ele>1035</ele>
        <time>2019-06-12T12:57:02Z</time>
      </trkpt>
      <trkpt lat="44.45889" lon="5.89632">
        <ele>1035</ele>
        <time>2019-06-12T12:57:03Z</time>
      </trkpt>
      <trkpt lat="44.4589" lon="5.89629">
        <ele>1035</ele>
        <time>2019-06-12T12:57:04Z</time>
      </trkpt>
      <trkpt lat="44.45892" lon="5.89625">
        <ele>1036</ele>
        <time>2019-06-12T12:57:05Z</time>
      </trkpt>
      <trkpt lat="44.45893" lon="5.89622">
        <ele>1036</ele>
        <time>2019-06-12T12:57:06Z</time>
      </trkpt>
      <trkpt lat="44.45895" lon="5.89618">
        <ele>1036</ele>
        <time>2019-06-12T12:57:07Z</time>
      </trkpt>
      <trkpt lat="44.45895" lon="5.89615">
        <ele>1036</ele>
        <time>2019-06-12T12:57:08Z</time>
      </trkpt>
      <trkpt lat="44.45896" lon="5.89611">
        <ele>1036</ele>
        <time>2019-06-12T12:57:09Z</time>
      </trkpt>
      <trkpt lat="44.45897" lon="5.89608">
        <ele>1036</ele>
        <time>2019-06-12T12:57:10Z</time>
      </trkpt>
      <trkpt lat="44.45898" lon="5.89604">
        <ele>1037</ele>
        <time>2019-06-12T12:57:11Z</time>
      </trkpt>
      <trkpt lat="44.45898" lon="5.89601">
        <ele>1037</ele>
        <time>2019-06-12T12:57:12Z</time>
      </trkpt>
      <trkpt lat="44.45899" lon="5.89598">
        <ele>1037</ele>
        <time>2019-06-12T12:57:13Z</time>
      </trkpt>
      <trkpt lat="44.45899" lon="5.89594">
        <ele>1038</ele>
        <time>2019-06-12T12:57:14Z</time>
      </trkpt>
      <trkpt lat="44.45899" lon="5.89591">
        <ele>1038</ele>
        <time>2019-06-12T12:57:15Z</time>
      </trkpt>
      <trkpt lat="44.45899" lon="5.89587">
        <ele>1038</ele>
        <time>2019-06-12T12:57:16Z</time>
      </trkpt>
      <trkpt lat="44.45899" lon="5.89584">
        <ele>1038</ele>
        <time>2019-06-12T12:57:17Z</time>
      </trkpt>
      <trkpt lat="44.45899" lon="5.8958">
        <ele>1039</ele>
        <time>2019-06-12T12:57:18Z</time>
      </trkpt>
      <trkpt lat="44.45899" lon="5.89577">
        <ele>1039</ele>
        <time>2019-06-12T12:57:19Z</time>
      </trkpt>
      <trkpt lat="44.45899" lon="5.89573">
        <ele>1039</ele>
        <time>2019-06-12T12:57:20Z</time>
      </trkpt>
      <trkpt lat="44.459" lon="5.8957">
        <ele>1040</ele>
        <time>2019-06-12T12:57:21Z</time>
      </trkpt>
      <trkpt lat="44.459" lon="5.89566">
        <ele>1040</ele>
        <time>2019-06-12T12:57:22Z</time>
      </trkpt>
      <trkpt lat="44.459" lon="5.89563">
        <ele>1041</ele>
        <time>2019-06-12T12:57:23Z</time>
      </trkpt>
      <trkpt lat="44.45901" lon="5.89559">
        <ele>1041</ele>
        <time>2019-06-12T12:57:24Z</time>
      </trkpt>
      <trkpt lat="44.45902" lon="5.89556">
        <ele>1041</ele>
        <time>2019-06-12T12:57:25Z</time>
      </trkpt>
      <trkpt lat="44.45903" lon="5.89553">
        <ele>1042</ele>
        <time>2019-06-12T12:57:26Z</time>
      </trkpt>
      <trkpt lat="44.45903" lon="5.89549">
        <ele>1042</ele>
        <time>2019-06-12T12:57:27Z</time>
      </trkpt>
      <trkpt lat="44.45904" lon="5.89546">
        <ele>1042</ele>
        <time>2019-06-12T12:57:28Z</time>
      </trkpt>
      <trkpt lat="44.45904" lon="5.89542">
        <ele>1042</ele>
        <time>2019-06-12T12:57:29Z</time>
      </trkpt>
      <trkpt lat="44.45905" lon="5.89538">
        <ele>1042</ele>
        <time>2019-06-12T12:57:30Z</time>
      </trkpt>
      <trkpt lat="44.45905" lon="5.89535">
        <ele>1042</ele>
        <time>2019-06-12T12:57:31Z</time>
      </trkpt>
      <trkpt lat="44.45906" lon="5.89532">
        <ele>1042</ele>
        <time>2019-06-12T12:57:32Z</time>
      </trkpt>
      <trkpt lat="44.45906" lon="5.89528">
        <ele>1042</ele>
        <time>2019-06-12T12:57:33Z</time>
      </trkpt>
      <trkpt lat="44.45906" lon="5.89525">
        <ele>1043</ele>
        <time>2019-06-12T12:57:34Z</time>
      </trkpt>
      <trkpt lat="44.45907" lon="5.89521">
        <ele>1043</ele>
        <time>2019-06-12T12:57:35Z</time>
      </trkpt>
      <trkpt lat="44.45908" lon="5.89518">
        <ele>1043</ele>
        <time>2019-06-12T12:57:36Z</time>
      </trkpt>
      <trkpt lat="44.45909" lon="5.89514">
        <ele>1043</ele>
        <time>2019-06-12T12:57:37Z</time>
      </trkpt>
      <trkpt lat="44.4591" lon="5.89511">
        <ele>1043</ele>
        <time>2019-06-12T12:57:38Z</time>
      </trkpt>
      <trkpt lat="44.4591" lon="5.89508">
        <ele>1043</ele>
        <time>2019-06-12T12:57:39Z</time>
      </trkpt>
      <trkpt lat="44.45911" lon="5.89504">
        <ele>1043</ele>
        <time>2019-06-12T12:57:40Z</time>
      </trkpt>
      <trkpt lat="44.45911" lon="5.895">
        <ele>1043</ele>
        <time>2019-06-12T12:57:41Z</time>
      </trkpt>
      <trkpt lat="44.45912" lon="5.89497">
        <ele>1043</ele>
        <time>2019-06-12T12:57:42Z</time>
      </trkpt>
      <trkpt lat="44.45913" lon="5.89493">
        <ele>1043</ele>
        <time>2019-06-12T12:57:43Z</time>
      </trkpt>
      <trkpt lat="44.45913" lon="5.8949">
        <ele>1043</ele>
        <time>2019-06-12T12:57:44Z</time>
      </trkpt>
      <trkpt lat="44.45914" lon="5.89487">
        <ele>1043</ele>
        <time>2019-06-12T12:57:45Z</time>
      </trkpt>
      <trkpt lat="44.45915" lon="5.89483">
        <ele>1043</ele>
        <time>2019-06-12T12:57:46Z</time>
      </trkpt>
      <trkpt lat="44.45916" lon="5.89479">
        <ele>1043</ele>
        <time>2019-06-12T12:57:47Z</time>
      </trkpt>
      <trkpt lat="44.45916" lon="5.89476">
        <ele>1043</ele>
        <time>2019-06-12T12:57:48Z</time>
      </trkpt>
      <trkpt lat="44.45917" lon="5.89472">
        <ele>1043</ele>
        <time>2019-06-12T12:57:49Z</time>
      </trkpt>
      <trkpt lat="44.45918" lon="5.89468">
        <ele>1043</ele>
        <time>2019-06-12T12:57:50Z</time>
      </trkpt>
      <trkpt lat="44.45918" lon="5.89464">
        <ele>1044</ele>
        <time>2019-06-12T12:57:51Z</time>
      </trkpt>
      <trkpt lat="44.45919" lon="5.8946">
        <ele>1044</ele>
        <time>2019-06-12T12:57:52Z</time>
      </trkpt>
      <trkpt lat="44.45919" lon="5.89457">
        <ele>1044</ele>
        <time>2019-06-12T12:57:53Z</time>
      </trkpt>
      <trkpt lat="44.4592" lon="5.89453">
        <ele>1044</ele>
        <time>2019-06-12T12:57:54Z</time>
      </trkpt>
      <trkpt lat="44.4592" lon="5.89449">
        <ele>1045</ele>
        <time>2019-06-12T12:57:55Z</time>
      </trkpt>
      <trkpt lat="44.45921" lon="5.89446">
        <ele>1045</ele>
        <time>2019-06-12T12:57:56Z</time>
      </trkpt>
      <trkpt lat="44.45922" lon="5.89443">
        <ele>1045</ele>
        <time>2019-06-12T12:57:57Z</time>
      </trkpt>
      <trkpt lat="44.45923" lon="5.8944">
        <ele>1045</ele>
        <time>2019-06-12T12:57:58Z</time>
      </trkpt>
      <trkpt lat="44.45924" lon="5.89436">
        <ele>1045</ele>
        <time>2019-06-12T12:57:59Z</time>
      </trkpt>
      <trkpt lat="44.45925" lon="5.89432">
        <ele>1045</ele>
        <time>2019-06-12T12:58:00Z</time>
      </trkpt>
      <trkpt lat="44.45926" lon="5.89429">
        <ele>1045</ele>
        <time>2019-06-12T12:58:01Z</time>
      </trkpt>
      <trkpt lat="44.45927" lon="5.89426">
        <ele>1045</ele>
        <time>2019-06-12T12:58:02Z</time>
      </trkpt>
      <trkpt lat="44.45928" lon="5.89422">
        <ele>1045</ele>
        <time>2019-06-12T12:58:03Z</time>
      </trkpt>
      <trkpt lat="44.45929" lon="5.89418">
        <ele>1045</ele>
        <time>2019-06-12T12:58:04Z</time>
      </trkpt>
      <trkpt lat="44.4593" lon="5.89415">
        <ele>1046</ele>
        <time>2019-06-12T12:58:05Z</time>
      </trkpt>
      <trkpt lat="44.4593" lon="5.89412">
        <ele>1046</ele>
        <time>2019-06-12T12:58:06Z</time>
      </trkpt>
      <trkpt lat="44.45932" lon="5.89408">
        <ele>1046</ele>
        <time>2019-06-12T12:58:07Z</time>
      </trkpt>
      <trkpt lat="44.45932" lon="5.89404">
        <ele>1046</ele>
        <time>2019-06-12T12:58:08Z</time>
      </trkpt>
      <trkpt lat="44.45933" lon="5.894">
        <ele>1046</ele>
        <time>2019-06-12T12:58:09Z</time>
      </trkpt>
      <trkpt lat="44.45935" lon="5.89396">
        <ele>1046</ele>
        <time>2019-06-12T12:58:10Z</time>
      </trkpt>
      <trkpt lat="44.45936" lon="5.89393">
        <ele>1046</ele>
        <time>2019-06-12T12:58:11Z</time>
      </trkpt>
      <trkpt lat="44.45937" lon="5.89389">
        <ele>1047</ele>
        <time>2019-06-12T12:58:12Z</time>
      </trkpt>
      <trkpt lat="44.45937" lon="5.89385">
        <ele>1048</ele>
        <time>2019-06-12T12:58:13Z</time>
      </trkpt>
      <trkpt lat="44.45938" lon="5.89381">
        <ele>1048</ele>
        <time>2019-06-12T12:58:14Z</time>
      </trkpt>
      <trkpt lat="44.45939" lon="5.89377">
        <ele>1049</ele>
        <time>2019-06-12T12:58:15Z</time>
      </trkpt>
      <trkpt lat="44.4594" lon="5.89373">
        <ele>1050</ele>
        <time>2019-06-12T12:58:16Z</time>
      </trkpt>
      <trkpt lat="44.4594" lon="5.89369">
        <ele>1051</ele>
        <time>2019-06-12T12:58:17Z</time>
      </trkpt>
      <trkpt lat="44.4594" lon="5.89366">
        <ele>1051</ele>
        <time>2019-06-12T12:58:18Z</time>
      </trkpt>
      <trkpt lat="44.45939" lon="5.89363">
        <ele>1052</ele>
        <time>2019-06-12T12:58:19Z</time>
      </trkpt>
      <trkpt lat="44.45939" lon="5.8936">
        <ele>1052</ele>
        <time>2019-06-12T12:58:20Z</time>
      </trkpt>
      <trkpt lat="44.45939" lon="5.89357">
        <ele>1052</ele>
        <time>2019-06-12T12:58:21Z</time>
      </trkpt>
      <trkpt lat="44.4594" lon="5.89354">
        <ele>1052</ele>
        <time>2019-06-12T12:58:22Z</time>
      </trkpt>
      <trkpt lat="44.4594" lon="5.8935">
        <ele>1052</ele>
        <time>2019-06-12T12:58:23Z</time>
      </trkpt>
      <trkpt lat="44.4594" lon="5.89346">
        <ele>1052</ele>
        <time>2019-06-12T12:58:24Z</time>
      </trkpt>
      <trkpt lat="44.4594" lon="5.89343">
        <ele>1052</ele>
        <time>2019-06-12T12:58:25Z</time>
      </trkpt>
      <trkpt lat="44.4594" lon="5.8934">
        <ele>1052</ele>
        <time>2019-06-12T12:58:26Z</time>
      </trkpt>
      <trkpt lat="44.45941" lon="5.89337">
        <ele>1052</ele>
        <time>2019-06-12T12:58:27Z</time>
      </trkpt>
      <trkpt lat="44.45941" lon="5.89333">
        <ele>1052</ele>
        <time>2019-06-12T12:58:28Z</time>
      </trkpt>
      <trkpt lat="44.45941" lon="5.8933">
        <ele>1052</ele>
        <time>2019-06-12T12:58:29Z</time>
      </trkpt>
      <trkpt lat="44.45942" lon="5.89327">
        <ele>1052</ele>
        <time>2019-06-12T12:58:30Z</time>
      </trkpt>
      <trkpt lat="44.45943" lon="5.89324">
        <ele>1052</ele>
        <time>2019-06-12T12:58:31Z</time>
      </trkpt>
      <trkpt lat="44.45944" lon="5.89321">
        <ele>1052</ele>
        <time>2019-06-12T12:58:32Z</time>
      </trkpt>
      <trkpt lat="44.45945" lon="5.89318">
        <ele>1052</ele>
        <time>2019-06-12T12:58:33Z</time>
      </trkpt>
      <trkpt lat="44.45945" lon="5.89315">
        <ele>1052</ele>
        <time>2019-06-12T12:58:34Z</time>
      </trkpt>
      <trkpt lat="44.45946" lon="5.89311">
        <ele>1053</ele>
        <time>2019-06-12T12:58:35Z</time>
      </trkpt>
      <trkpt lat="44.45947" lon="5.89308">
        <ele>1053</ele>
        <time>2019-06-12T12:58:36Z</time>
      </trkpt>
      <trkpt lat="44.45948" lon="5.89304">
        <ele>1053</ele>
        <time>2019-06-12T12:58:37Z</time>
      </trkpt>
      <trkpt lat="44.45948" lon="5.89301">
        <ele>1053</ele>
        <time>2019-06-12T12:58:38Z</time>
      </trkpt>
      <trkpt lat="44.45949" lon="5.89298">
        <ele>1054</ele>
        <time>2019-06-12T12:58:39Z</time>
      </trkpt>
      <trkpt lat="44.4595" lon="5.89295">
        <ele>1054</ele>
        <time>2019-06-12T12:58:40Z</time>
      </trkpt>
      <trkpt lat="44.45952" lon="5.89292">
        <ele>1054</ele>
        <time>2019-06-12T12:58:41Z</time>
      </trkpt>
      <trkpt lat="44.45953" lon="5.8929">
        <ele>1054</ele>
        <time>2019-06-12T12:58:42Z</time>
      </trkpt>
      <trkpt lat="44.45953" lon="5.89287">
        <ele>1054</ele>
        <time>2019-06-12T12:58:43Z</time>
      </trkpt>
      <trkpt lat="44.45953" lon="5.89284">
        <ele>1054</ele>
        <time>2019-06-12T12:58:44Z</time>
      </trkpt>
      <trkpt lat="44.45954" lon="5.89281">
        <ele>1054</ele>
        <time>2019-06-12T12:58:45Z</time>
      </trkpt>
      <trkpt lat="44.45956" lon="5.89279">
        <ele>1054</ele>
        <time>2019-06-12T12:58:46Z</time>
      </trkpt>
      <trkpt lat="44.45957" lon="5.89276">
        <ele>1054</ele>
        <time>2019-06-12T12:58:47Z</time>
      </trkpt>
      <trkpt lat="44.45958" lon="5.89274">
        <ele>1054</ele>
        <time>2019-06-12T12:58:48Z</time>
      </trkpt>
      <trkpt lat="44.45959" lon="5.89271">
        <ele>1054</ele>
        <time>2019-06-12T12:58:49Z</time>
      </trkpt>
      <trkpt lat="44.4596" lon="5.89268">
        <ele>1054</ele>
        <time>2019-06-12T12:58:50Z</time>
      </trkpt>
      <trkpt lat="44.45961" lon="5.89265">
        <ele>1054</ele>
        <time>2019-06-12T12:58:51Z</time>
      </trkpt>
      <trkpt lat="44.45962" lon="5.89263">
        <ele>1054</ele>
        <time>2019-06-12T12:58:52Z</time>
      </trkpt>
      <trkpt lat="44.45963" lon="5.8926">
        <ele>1055</ele>
        <time>2019-06-12T12:58:53Z</time>
      </trkpt>
      <trkpt lat="44.45964" lon="5.89257">
        <ele>1055</ele>
        <time>2019-06-12T12:58:54Z</time>
      </trkpt>
      <trkpt lat="44.45965" lon="5.89255">
        <ele>1055</ele>
        <time>2019-06-12T12:58:55Z</time>
      </trkpt>
      <trkpt lat="44.45966" lon="5.89252">
        <ele>1055</ele>
        <time>2019-06-12T12:58:56Z</time>
      </trkpt>
      <trkpt lat="44.45967" lon="5.89249">
        <ele>1055</ele>
        <time>2019-06-12T12:58:57Z</time>
      </trkpt>
      <trkpt lat="44.45968" lon="5.89247">
        <ele>1055</ele>
        <time>2019-06-12T12:58:58Z</time>
      </trkpt>
      <trkpt lat="44.45969" lon="5.89244">
        <ele>1055</ele>
        <time>2019-06-12T12:58:59Z</time>
      </trkpt>
      <trkpt lat="44.45969" lon="5.89241">
        <ele>1055</ele>
        <time>2019-06-12T12:59:00Z</time>
      </trkpt>
      <trkpt lat="44.4597" lon="5.89238">
        <ele>1055</ele>
        <time>2019-06-12T12:59:01Z</time>
      </trkpt>
      <trkpt lat="44.45971" lon="5.89235">
        <ele>1055</ele>
        <time>2019-06-12T12:59:02Z</time>
      </trkpt>
      <trkpt lat="44.45972" lon="5.89232">
        <ele>1055</ele>
        <time>2019-06-12T12:59:03Z</time>
      </trkpt>
      <trkpt lat="44.45973" lon="5.89229">
        <ele>1055</ele>
        <time>2019-06-12T12:59:04Z</time>
      </trkpt>
      <trkpt lat="44.45974" lon="5.89226">
        <ele>1055</ele>
        <time>2019-06-12T12:59:05Z</time>
      </trkpt>
      <trkpt lat="44.45975" lon="5.89223">
        <ele>1055</ele>
        <time>2019-06-12T12:59:06Z</time>
      </trkpt>
      <trkpt lat="44.45976" lon="5.89221">
        <ele>1055</ele>
        <time>2019-06-12T12:59:07Z</time>
      </trkpt>
      <trkpt lat="44.45977" lon="5.89218">
        <ele>1055</ele>
        <time>2019-06-12T12:59:08Z</time>
      </trkpt>
      <trkpt lat="44.45978" lon="5.89215">
        <ele>1055</ele>
        <time>2019-06-12T12:59:09Z</time>
      </trkpt>
      <trkpt lat="44.45979" lon="5.89212">
        <ele>1055</ele>
        <time>2019-06-12T12:59:10Z</time>
      </trkpt>
      <trkpt lat="44.4598" lon="5.89209">
        <ele>1056</ele>
        <time>2019-06-12T12:59:11Z</time>
      </trkpt>
      <trkpt lat="44.45981" lon="5.89206">
        <ele>1056</ele>
        <time>2019-06-12T12:59:12Z</time>
      </trkpt>
      <trkpt lat="44.45982" lon="5.89203">
        <ele>1056</ele>
        <time>2019-06-12T12:59:13Z</time>
      </trkpt>
      <trkpt lat="44.45983" lon="5.89199">
        <ele>1056</ele>
        <time>2019-06-12T12:59:14Z</time>
      </trkpt>
      <trkpt lat="44.45984" lon="5.89196">
        <ele>1056</ele>
        <time>2019-06-12T12:59:15Z</time>
      </trkpt>
      <trkpt lat="44.45985" lon="5.89192">
        <ele>1057</ele>
        <time>2019-06-12T12:59:16Z</time>
      </trkpt>
      <trkpt lat="44.45986" lon="5.89188">
        <ele>1057</ele>
        <time>2019-06-12T12:59:17Z</time>
      </trkpt>
      <trkpt lat="44.45987" lon="5.89184">
        <ele>1057</ele>
        <time>2019-06-12T12:59:18Z</time>
      </trkpt>
      <trkpt lat="44.45988" lon="5.8918">
        <ele>1058</ele>
        <time>2019-06-12T12:59:19Z</time>
      </trkpt>
      <trkpt lat="44.45989" lon="5.89176">
        <ele>1058</ele>
        <time>2019-06-12T12:59:20Z</time>
      </trkpt>
      <trkpt lat="44.4599" lon="5.89172">
        <ele>1058</ele>
        <time>2019-06-12T12:59:21Z</time>
      </trkpt>
      <trkpt lat="44.45992" lon="5.89168">
        <ele>1059</ele>
        <time>2019-06-12T12:59:22Z</time>
      </trkpt>
      <trkpt lat="44.45993" lon="5.89164">
        <ele>1059</ele>
        <time>2019-06-12T12:59:23Z</time>
      </trkpt>
      <trkpt lat="44.45994" lon="5.8916">
        <ele>1059</ele>
        <time>2019-06-12T12:59:24Z</time>
      </trkpt>
      <trkpt lat="44.45995" lon="5.89155">
        <ele>1059</ele>
        <time>2019-06-12T12:59:25Z</time>
      </trkpt>
      <trkpt lat="44.45995" lon="5.89151">
        <ele>1060</ele>
        <time>2019-06-12T12:59:26Z</time>
      </trkpt>
      <trkpt lat="44.45997" lon="5.89147">
        <ele>1060</ele>
        <time>2019-06-12T12:59:27Z</time>
      </trkpt>
      <trkpt lat="44.45998" lon="5.89144">
        <ele>1060</ele>
        <time>2019-06-12T12:59:28Z</time>
      </trkpt>
      <trkpt lat="44.45999" lon="5.8914">
        <ele>1060</ele>
        <time>2019-06-12T12:59:29Z</time>
      </trkpt>
      <trkpt lat="44.46" lon="5.89136">
        <ele>1061</ele>
        <time>2019-06-12T12:59:30Z</time>
      </trkpt>
      <trkpt lat="44.46001" lon="5.89131">
        <ele>1061</ele>
        <time>2019-06-12T12:59:31Z</time>
      </trkpt>
      <trkpt lat="44.46001" lon="5.89127">
        <ele>1061</ele>
        <time>2019-06-12T12:59:32Z</time>
      </trkpt>
      <trkpt lat="44.46002" lon="5.89123">
        <ele>1061</ele>
        <time>2019-06-12T12:59:33Z</time>
      </trkpt>
      <trkpt lat="44.46003" lon="5.89119">
        <ele>1062</ele>
        <time>2019-06-12T12:59:34Z</time>
      </trkpt>
      <trkpt lat="44.46004" lon="5.89115">
        <ele>1062</ele>
        <time>2019-06-12T12:59:35Z</time>
      </trkpt>
      <trkpt lat="44.46005" lon="5.89111">
        <ele>1062</ele>
        <time>2019-06-12T12:59:36Z</time>
      </trkpt>
      <trkpt lat="44.46006" lon="5.89107">
        <ele>1062</ele>
        <time>2019-06-12T12:59:37Z</time>
      </trkpt>
      <trkpt lat="44.46006" lon="5.89103">
        <ele>1062</ele>
        <time>2019-06-12T12:59:38Z</time>
      </trkpt>
      <trkpt lat="44.46006" lon="5.89099">
        <ele>1062</ele>
        <time>2019-06-12T12:59:39Z</time>
      </trkpt>
      <trkpt lat="44.46006" lon="5.89095">
        <ele>1062</ele>
        <time>2019-06-12T12:59:40Z</time>
      </trkpt>
      <trkpt lat="44.46006" lon="5.89091">
        <ele>1063</ele>
        <time>2019-06-12T12:59:41Z</time>
      </trkpt>
      <trkpt lat="44.46006" lon="5.89087">
        <ele>1063</ele>
        <time>2019-06-12T12:59:42Z</time>
      </trkpt>
      <trkpt lat="44.46005" lon="5.89083">
        <ele>1064</ele>
        <time>2019-06-12T12:59:43Z</time>
      </trkpt>
      <trkpt lat="44.46005" lon="5.8908">
        <ele>1064</ele>
        <time>2019-06-12T12:59:44Z</time>
      </trkpt>
      <trkpt lat="44.46005" lon="5.89077">
        <ele>1065</ele>
        <time>2019-06-12T12:59:45Z</time>
      </trkpt>
      <trkpt lat="44.46004" lon="5.89073">
        <ele>1066</ele>
        <time>2019-06-12T12:59:46Z</time>
      </trkpt>
      <trkpt lat="44.46004" lon="5.89069">
        <ele>1066</ele>
        <time>2019-06-12T12:59:47Z</time>
      </trkpt>
      <trkpt lat="44.46004" lon="5.89065">
        <ele>1066</ele>
        <time>2019-06-12T12:59:48Z</time>
      </trkpt>
      <trkpt lat="44.46004" lon="5.89061">
        <ele>1067</ele>
        <time>2019-06-12T12:59:49Z</time>
      </trkpt>
      <trkpt lat="44.46004" lon="5.89057">
        <ele>1067</ele>
        <time>2019-06-12T12:59:50Z</time>
      </trkpt>
      <trkpt lat="44.46004" lon="5.89053">
        <ele>1067</ele>
        <time>2019-06-12T12:59:51Z</time>
      </trkpt>
      <trkpt lat="44.46004" lon="5.8905">
        <ele>1067</ele>
        <time>2019-06-12T12:59:52Z</time>
      </trkpt>
      <trkpt lat="44.46004" lon="5.89046">
        <ele>1068</ele>
        <time>2019-06-12T12:59:53Z</time>
      </trkpt>
      <trkpt lat="44.46003" lon="5.89043">
        <ele>1068</ele>
        <time>2019-06-12T12:59:54Z</time>
      </trkpt>
      <trkpt lat="44.46003" lon="5.8904">
        <ele>1069</ele>
        <time>2019-06-12T12:59:55Z</time>
      </trkpt>
      <trkpt lat="44.46002" lon="5.89036">
        <ele>1069</ele>
        <time>2019-06-12T12:59:56Z</time>
      </trkpt>
      <trkpt lat="44.46002" lon="5.89032">
        <ele>1069</ele>
        <time>2019-06-12T12:59:57Z</time>
      </trkpt>
      <trkpt lat="44.46002" lon="5.89028">
        <ele>1069</ele>
        <time>2019-06-12T12:59:58Z</time>
      </trkpt>
      <trkpt lat="44.46003" lon="5.89024">
        <ele>1069</ele>
        <time>2019-06-12T12:59:59Z</time>
      </trkpt>
      <trkpt lat="44.46004" lon="5.8902">
        <ele>1069</ele>
        <time>2019-06-12T13:00:00Z</time>
      </trkpt>
      <trkpt lat="44.46005" lon="5.89016">
        <ele>1069</ele>
        <time>2019-06-12T13:00:01Z</time>
      </trkpt>
      <trkpt lat="44.46007" lon="5.89013">
        <ele>1069</ele>
        <time>2019-06-12T13:00:02Z</time>
      </trkpt>
      <trkpt lat="44.46009" lon="5.8901">
        <ele>1069</ele>
        <time>2019-06-12T13:00:03Z</time>
      </trkpt>
      <trkpt lat="44.46011" lon="5.89008">
        <ele>1069</ele>
        <time>2019-06-12T13:00:04Z</time>
      </trkpt>
      <trkpt lat="44.46014" lon="5.89006">
        <ele>1069</ele>
        <time>2019-06-12T13:00:05Z</time>
      </trkpt>
      <trkpt lat="44.46017" lon="5.89004">
        <ele>1069</ele>
        <time>2019-06-12T13:00:06Z</time>
      </trkpt>
      <trkpt lat="44.46021" lon="5.89002">
        <ele>1069</ele>
        <time>2019-06-12T13:00:07Z</time>
      </trkpt>
      <trkpt lat="44.46023" lon="5.89001">
        <ele>1069</ele>
        <time>2019-06-12T13:00:08Z</time>
      </trkpt>
      <trkpt lat="44.46026" lon="5.89001">
        <ele>1069</ele>
        <time>2019-06-12T13:00:09Z</time>
      </trkpt>
      <trkpt lat="44.46029" lon="5.89002">
        <ele>1069</ele>
        <time>2019-06-12T13:00:10Z</time>
      </trkpt>
      <trkpt lat="44.46031" lon="5.89003">
        <ele>1070</ele>
        <time>2019-06-12T13:00:11Z</time>
      </trkpt>
      <trkpt lat="44.46034" lon="5.89003">
        <ele>1070</ele>
        <time>2019-06-12T13:00:12Z</time>
      </trkpt>
      <trkpt lat="44.46037" lon="5.89005">
        <ele>1070</ele>
        <time>2019-06-12T13:00:13Z</time>
      </trkpt>
      <trkpt lat="44.46039" lon="5.89006">
        <ele>1070</ele>
        <time>2019-06-12T13:00:14Z</time>
      </trkpt>
      <trkpt lat="44.46042" lon="5.89008">
        <ele>1070</ele>
        <time>2019-06-12T13:00:15Z</time>
      </trkpt>
      <trkpt lat="44.46044" lon="5.8901">
        <ele>1070</ele>
        <time>2019-06-12T13:00:16Z</time>
      </trkpt>
      <trkpt lat="44.46046" lon="5.89012">
        <ele>1070</ele>
        <time>2019-06-12T13:00:17Z</time>
      </trkpt>
      <trkpt lat="44.46048" lon="5.89014">
        <ele>1070</ele>
        <time>2019-06-12T13:00:18Z</time>
      </trkpt>
      <trkpt lat="44.4605" lon="5.89016">
        <ele>1070</ele>
        <time>2019-06-12T13:00:19Z</time>
      </trkpt>
      <trkpt lat="44.46053" lon="5.89017">
        <ele>1070</ele>
        <time>2019-06-12T13:00:20Z</time>
      </trkpt>
      <trkpt lat="44.46055" lon="5.89019">
        <ele>1070</ele>
        <time>2019-06-12T13:00:21Z</time>
      </trkpt>
      <trkpt lat="44.46058" lon="5.89021">
        <ele>1071</ele>
        <time>2019-06-12T13:00:22Z</time>
      </trkpt>
      <trkpt lat="44.4606" lon="5.89022">
        <ele>1071</ele>
        <time>2019-06-12T13:00:23Z</time>
      </trkpt>
      <trkpt lat="44.46062" lon="5.89023">
        <ele>1071</ele>
        <time>2019-06-12T13:00:24Z</time>
      </trkpt>
      <trkpt lat="44.46065" lon="5.89024">
        <ele>1071</ele>
        <time>2019-06-12T13:00:25Z</time>
      </trkpt>
      <trkpt lat="44.46068" lon="5.89024">
        <ele>1071</ele>
        <time>2019-06-12T13:00:26Z</time>
      </trkpt>
      <trkpt lat="44.4607" lon="5.89025">
        <ele>1071</ele>
        <time>2019-06-12T13:00:27Z</time>
      </trkpt>
      <trkpt lat="44.46073" lon="5.89026">
        <ele>1072</ele>
        <time>2019-06-12T13:00:28Z</time>
      </trkpt>
      <trkpt lat="44.46076" lon="5.89026">
        <ele>1072</ele>
        <time>2019-06-12T13:00:29Z</time>
      </trkpt>
      <trkpt lat="44.46078" lon="5.89027">
        <ele>1072</ele>
        <time>2019-06-12T13:00:30Z</time>
      </trkpt>
      <trkpt lat="44.46081" lon="5.89027">
        <ele>1072</ele>
        <time>2019-06-12T13:00:31Z</time>
      </trkpt>
      <trkpt lat="44.46084" lon="5.89028">
        <ele>1072</ele>
        <time>2019-06-12T13:00:32Z</time>
      </trkpt>
      <trkpt lat="44.46087" lon="5.89028">
        <ele>1072</ele>
        <time>2019-06-12T13:00:33Z</time>
      </trkpt>
      <trkpt lat="44.46089" lon="5.89027">
        <ele>1072</ele>
        <time>2019-06-12T13:00:34Z</time>
      </trkpt>
      <trkpt lat="44.46091" lon="5.89026">
        <ele>1072</ele>
        <time>2019-06-12T13:00:35Z</time>
      </trkpt>
      <trkpt lat="44.46094" lon="5.89026">
        <ele>1073</ele>
        <time>2019-06-12T13:00:36Z</time>
      </trkpt>
      <trkpt lat="44.46097" lon="5.89024">
        <ele>1073</ele>
        <time>2019-06-12T13:00:37Z</time>
      </trkpt>
      <trkpt lat="44.46099" lon="5.89023">
        <ele>1073</ele>
        <time>2019-06-12T13:00:38Z</time>
      </trkpt>
      <trkpt lat="44.46101" lon="5.89021">
        <ele>1074</ele>
        <time>2019-06-12T13:00:39Z</time>
      </trkpt>
      <trkpt lat="44.46103" lon="5.89019">
        <ele>1074</ele>
        <time>2019-06-12T13:00:40Z</time>
      </trkpt>
      <trkpt lat="44.46106" lon="5.89018">
        <ele>1074</ele>
        <time>2019-06-12T13:00:41Z</time>
      </trkpt>
      <trkpt lat="44.46108" lon="5.89016">
        <ele>1074</ele>
        <time>2019-06-12T13:00:42Z</time>
      </trkpt>
      <trkpt lat="44.46111" lon="5.89015">
        <ele>1074</ele>
        <time>2019-06-12T13:00:43Z</time>
      </trkpt>
      <trkpt lat="44.46113" lon="5.89013">
        <ele>1074</ele>
        <time>2019-06-12T13:00:44Z</time>
      </trkpt>
      <trkpt lat="44.46116" lon="5.89011">
        <ele>1075</ele>
        <time>2019-06-12T13:00:45Z</time>
      </trkpt>
      <trkpt lat="44.46118" lon="5.89009">
        <ele>1075</ele>
        <time>2019-06-12T13:00:46Z</time>
      </trkpt>
      <trkpt lat="44.46121" lon="5.89008">
        <ele>1076</ele>
        <time>2019-06-12T13:00:47Z</time>
      </trkpt>
      <trkpt lat="44.46123" lon="5.89007">
        <ele>1077</ele>
        <time>2019-06-12T13:00:48Z</time>
      </trkpt>
      <trkpt lat="44.46126" lon="5.89006">
        <ele>1078</ele>
        <time>2019-06-12T13:00:49Z</time>
      </trkpt>
      <trkpt lat="44.46129" lon="5.89005">
        <ele>1078</ele>
        <time>2019-06-12T13:00:50Z</time>
      </trkpt>
      <trkpt lat="44.46131" lon="5.89004">
        <ele>1079</ele>
        <time>2019-06-12T13:00:51Z</time>
      </trkpt>
      <trkpt lat="44.46134" lon="5.89003">
        <ele>1079</ele>
        <time>2019-06-12T13:00:52Z</time>
      </trkpt>
      <trkpt lat="44.46136" lon="5.89002">
        <ele>1080</ele>
        <time>2019-06-12T13:00:53Z</time>
      </trkpt>
      <trkpt lat="44.46138" lon="5.89001">
        <ele>1080</ele>
        <time>2019-06-12T13:00:54Z</time>
      </trkpt>
      <trkpt lat="44.46141" lon="5.89">
        <ele>1080</ele>
        <time>2019-06-12T13:00:55Z</time>
      </trkpt>
      <trkpt lat="44.46144" lon="5.88999">
        <ele>1080</ele>
        <time>2019-06-12T13:00:56Z</time>
      </trkpt>
      <trkpt lat="44.46146" lon="5.88997">
        <ele>1080</ele>
        <time>2019-06-12T13:00:57Z</time>
      </trkpt>
      <trkpt lat="44.46149" lon="5.88995">
        <ele>1080</ele>
        <time>2019-06-12T13:00:58Z</time>
      </trkpt>
      <trkpt lat="44.46152" lon="5.88994">
        <ele>1080</ele>
        <time>2019-06-12T13:00:59Z</time>
      </trkpt>
      <trkpt lat="44.46154" lon="5.88992">
        <ele>1080</ele>
        <time>2019-06-12T13:01:00Z</time>
      </trkpt>
      <trkpt lat="44.46156" lon="5.8899">
        <ele>1080</ele>
        <time>2019-06-12T13:01:01Z</time>
      </trkpt>
      <trkpt lat="44.46159" lon="5.88988">
        <ele>1080</ele>
        <time>2019-06-12T13:01:02Z</time>
      </trkpt>
      <trkpt lat="44.46162" lon="5.88986">
        <ele>1080</ele>
        <time>2019-06-12T13:01:03Z</time>
      </trkpt>
      <trkpt lat="44.46164" lon="5.88984">
        <ele>1080</ele>
        <time>2019-06-12T13:01:04Z</time>
      </trkpt>
      <trkpt lat="44.46167" lon="5.88982">
        <ele>1080</ele>
        <time>2019-06-12T13:01:05Z</time>
      </trkpt>
      <trkpt lat="44.46169" lon="5.8898">
        <ele>1080</ele>
        <time>2019-06-12T13:01:06Z</time>
      </trkpt>
      <trkpt lat="44.46171" lon="5.88979">
        <ele>1080</ele>
        <time>2019-06-12T13:01:07Z</time>
      </trkpt>
      <trkpt lat="44.46173" lon="5.88977">
        <ele>1080</ele>
        <time>2019-06-12T13:01:08Z</time>
      </trkpt>
      <trkpt lat="44.46175" lon="5.88976">
        <ele>1080</ele>
        <time>2019-06-12T13:01:09Z</time>
      </trkpt>
      <trkpt lat="44.46178" lon="5.88975">
        <ele>1081</ele>
        <time>2019-06-12T13:01:10Z</time>
      </trkpt>
      <trkpt lat="44.4618" lon="5.88973">
        <ele>1081</ele>
        <time>2019-06-12T13:01:11Z</time>
      </trkpt>
      <trkpt lat="44.46183" lon="5.88973">
        <ele>1081</ele>
        <time>2019-06-12T13:01:12Z</time>
      </trkpt>
      <trkpt lat="44.46185" lon="5.88973">
        <ele>1081</ele>
        <time>2019-06-12T13:01:13Z</time>
      </trkpt>
      <trkpt lat="44.46188" lon="5.88973">
        <ele>1082</ele>
        <time>2019-06-12T13:01:14Z</time>
      </trkpt>
      <trkpt lat="44.4619" lon="5.88975">
        <ele>1082</ele>
        <time>2019-06-12T13:01:15Z</time>
      </trkpt>
      <trkpt lat="44.46192" lon="5.88977">
        <ele>1082</ele>
        <time>2019-06-12T13:01:16Z</time>
      </trkpt>
      <trkpt lat="44.46194" lon="5.88979">
        <ele>1082</ele>
        <time>2019-06-12T13:01:17Z</time>
      </trkpt>
      <trkpt lat="44.46196" lon="5.88982">
        <ele>1082</ele>
        <time>2019-06-12T13:01:18Z</time>
      </trkpt>
      <trkpt lat="44.46198" lon="5.88985">
        <ele>1082</ele>
        <time>2019-06-12T13:01:19Z</time>
      </trkpt>
      <trkpt lat="44.462" lon="5.88988">
        <ele>1082</ele>
        <time>2019-06-12T13:01:20Z</time>
      </trkpt>
      <trkpt lat="44.46201" lon="5.88991">
        <ele>1082</ele>
        <time>2019-06-12T13:01:21Z</time>
      </trkpt>
      <trkpt lat="44.46202" lon="5.88995">
        <ele>1082</ele>
        <time>2019-06-12T13:01:22Z</time>
      </trkpt>
      <trkpt lat="44.46204" lon="5.88998">
        <ele>1082</ele>
        <time>2019-06-12T13:01:23Z</time>
      </trkpt>
      <trkpt lat="44.46205" lon="5.89002">
        <ele>1082</ele>
        <time>2019-06-12T13:01:24Z</time>
      </trkpt>
      <trkpt lat="44.46206" lon="5.89005">
        <ele>1082</ele>
        <time>2019-06-12T13:01:25Z</time>
      </trkpt>
      <trkpt lat="44.46207" lon="5.89009">
        <ele>1082</ele>
        <time>2019-06-12T13:01:26Z</time>
      </trkpt>
      <trkpt lat="44.46209" lon="5.89012">
        <ele>1082</ele>
        <time>2019-06-12T13:01:27Z</time>
      </trkpt>
      <trkpt lat="44.4621" lon="5.89015">
        <ele>1082</ele>
        <time>2019-06-12T13:01:28Z</time>
      </trkpt>
      <trkpt lat="44.46212" lon="5.89018">
        <ele>1082</ele>
        <time>2019-06-12T13:01:29Z</time>
      </trkpt>
      <trkpt lat="44.46214" lon="5.8902">
        <ele>1082</ele>
        <time>2019-06-12T13:01:30Z</time>
      </trkpt>
      <trkpt lat="44.46216" lon="5.89022">
        <ele>1082</ele>
        <time>2019-06-12T13:01:31Z</time>
      </trkpt>
      <trkpt lat="44.46219" lon="5.89023">
        <ele>1082</ele>
        <time>2019-06-12T13:01:32Z</time>
      </trkpt>
      <trkpt lat="44.46222" lon="5.89023">
        <ele>1082</ele>
        <time>2019-06-12T13:01:33Z</time>
      </trkpt>
      <trkpt lat="44.46225" lon="5.89023">
        <ele>1082</ele>
        <time>2019-06-12T13:01:34Z</time>
      </trkpt>
      <trkpt lat="44.46227" lon="5.89022">
        <ele>1082</ele>
        <time>2019-06-12T13:01:35Z</time>
      </trkpt>
      <trkpt lat="44.4623" lon="5.8902">
        <ele>1083</ele>
        <time>2019-06-12T13:01:36Z</time>
      </trkpt>
      <trkpt lat="44.46232" lon="5.89018">
        <ele>1083</ele>
        <time>2019-06-12T13:01:37Z</time>
      </trkpt>
      <trkpt lat="44.46233" lon="5.89016">
        <ele>1083</ele>
        <time>2019-06-12T13:01:38Z</time>
      </trkpt>
      <trkpt lat="44.46235" lon="5.89014">
        <ele>1083</ele>
        <time>2019-06-12T13:01:39Z</time>
      </trkpt>
      <trkpt lat="44.46236" lon="5.89011">
        <ele>1083</ele>
        <time>2019-06-12T13:01:40Z</time>
      </trkpt>
      <trkpt lat="44.46238" lon="5.89009">
        <ele>1083</ele>
        <time>2019-06-12T13:01:41Z</time>
      </trkpt>
      <trkpt lat="44.46239" lon="5.89007">
        <ele>1083</ele>
        <time>2019-06-12T13:01:42Z</time>
      </trkpt>
      <trkpt lat="44.4624" lon="5.89004">
        <ele>1084</ele>
        <time>2019-06-12T13:01:43Z</time>
      </trkpt>
      <trkpt lat="44.46242" lon="5.89002">
        <ele>1084</ele>
        <time>2019-06-12T13:01:44Z</time>
      </trkpt>
      <trkpt lat="44.46244" lon="5.88999">
        <ele>1084</ele>
        <time>2019-06-12T13:01:45Z</time>
      </trkpt>
      <trkpt lat="44.46246" lon="5.88997">
        <ele>1084</ele>
        <time>2019-06-12T13:01:46Z</time>
      </trkpt>
      <trkpt lat="44.46248" lon="5.88994">
        <ele>1084</ele>
        <time>2019-06-12T13:01:47Z</time>
      </trkpt>
      <trkpt lat="44.4625" lon="5.88992">
        <ele>1084</ele>
        <time>2019-06-12T13:01:48Z</time>
      </trkpt>
      <trkpt lat="44.46252" lon="5.8899">
        <ele>1084</ele>
        <time>2019-06-12T13:01:49Z</time>
      </trkpt>
      <trkpt lat="44.46255" lon="5.88988">
        <ele>1084</ele>
        <time>2019-06-12T13:01:50Z</time>
      </trkpt>
      <trkpt lat="44.46257" lon="5.88986">
        <ele>1084</ele>
        <time>2019-06-12T13:01:51Z</time>
      </trkpt>
      <trkpt lat="44.4626" lon="5.88984">
        <ele>1084</ele>
        <time>2019-06-12T13:01:52Z</time>
      </trkpt>
      <trkpt lat="44.46262" lon="5.88983">
        <ele>1084</ele>
        <time>2019-06-12T13:01:53Z</time>
      </trkpt>
      <trkpt lat="44.46263" lon="5.88981">
        <ele>1084</ele>
        <time>2019-06-12T13:01:54Z</time>
      </trkpt>
      <trkpt lat="44.46266" lon="5.88979">
        <ele>1084</ele>
        <time>2019-06-12T13:01:55Z</time>
      </trkpt>
      <trkpt lat="44.46268" lon="5.88978">
        <ele>1085</ele>
        <time>2019-06-12T13:01:56Z</time>
      </trkpt>
      <trkpt lat="44.4627" lon="5.88976">
        <ele>1085</ele>
        <time>2019-06-12T13:01:57Z</time>
      </trkpt>
      <trkpt lat="44.46272" lon="5.88974">
        <ele>1085</ele>
        <time>2019-06-12T13:01:58Z</time>
      </trkpt>
      <trkpt lat="44.46274" lon="5.88972">
        <ele>1085</ele>
        <time>2019-06-12T13:01:59Z</time>
      </trkpt>
      <trkpt lat="44.46276" lon="5.8897">
        <ele>1085</ele>
        <time>2019-06-12T13:02:00Z</time>
      </trkpt>
      <trkpt lat="44.46278" lon="5.88969">
        <ele>1085</ele>
        <time>2019-06-12T13:02:01Z</time>
      </trkpt>
      <trkpt lat="44.4628" lon="5.88968">
        <ele>1085</ele>
        <time>2019-06-12T13:02:02Z</time>
      </trkpt>
      <trkpt lat="44.46283" lon="5.88967">
        <ele>1085</ele>
        <time>2019-06-12T13:02:03Z</time>
      </trkpt>
      <trkpt lat="44.46285" lon="5.88967">
        <ele>1086</ele>
        <time>2019-06-12T13:02:04Z</time>
      </trkpt>
      <trkpt lat="44.46288" lon="5.88967">
        <ele>1086</ele>
        <time>2019-06-12T13:02:05Z</time>
      </trkpt>
      <trkpt lat="44.4629" lon="5.88969">
        <ele>1086</ele>
        <time>2019-06-12T13:02:06Z</time>
      </trkpt>
      <trkpt lat="44.46292" lon="5.88972">
        <ele>1086</ele>
        <time>2019-06-12T13:02:07Z</time>
      </trkpt>
      <trkpt lat="44.46293" lon="5.88975">
        <ele>1086</ele>
        <time>2019-06-12T13:02:08Z</time>
      </trkpt>
      <trkpt lat="44.46294" lon="5.88978">
        <ele>1086</ele>
        <time>2019-06-12T13:02:09Z</time>
      </trkpt>
      <trkpt lat="44.46294" lon="5.88982">
        <ele>1086</ele>
        <time>2019-06-12T13:02:10Z</time>
      </trkpt>
      <trkpt lat="44.46294" lon="5.88986">
        <ele>1086</ele>
        <time>2019-06-12T13:02:11Z</time>
      </trkpt>
      <trkpt lat="44.46295" lon="5.8899">
        <ele>1087</ele>
        <time>2019-06-12T13:02:12Z</time>
      </trkpt>
      <trkpt lat="44.46296" lon="5.88993">
        <ele>1087</ele>
        <time>2019-06-12T13:02:13Z</time>
      </trkpt>
      <trkpt lat="44.46297" lon="5.88997">
        <ele>1087</ele>
        <time>2019-06-12T13:02:14Z</time>
      </trkpt>
      <trkpt lat="44.46299" lon="5.89">
        <ele>1087</ele>
        <time>2019-06-12T13:02:15Z</time>
      </trkpt>
      <trkpt lat="44.46302" lon="5.89002">
        <ele>1087</ele>
        <time>2019-06-12T13:02:16Z</time>
      </trkpt>
      <trkpt lat="44.46304" lon="5.89002">
        <ele>1087</ele>
        <time>2019-06-12T13:02:17Z</time>
      </trkpt>
      <trkpt lat="44.46307" lon="5.89002">
        <ele>1087</ele>
        <time>2019-06-12T13:02:18Z</time>
      </trkpt>
      <trkpt lat="44.4631" lon="5.89001">
        <ele>1087</ele>
        <time>2019-06-12T13:02:19Z</time>
      </trkpt>
      <trkpt lat="44.46313" lon="5.89001">
        <ele>1088</ele>
        <time>2019-06-12T13:02:20Z</time>
      </trkpt>
      <trkpt lat="44.46316" lon="5.89001">
        <ele>1088</ele>
        <time>2019-06-12T13:02:21Z</time>
      </trkpt>
      <trkpt lat="44.46318" lon="5.89001">
        <ele>1088</ele>
        <time>2019-06-12T13:02:22Z</time>
      </trkpt>
      <trkpt lat="44.46321" lon="5.89001">
        <ele>1088</ele>
        <time>2019-06-12T13:02:23Z</time>
      </trkpt>
      <trkpt lat="44.46324" lon="5.89002">
        <ele>1089</ele>
        <time>2019-06-12T13:02:24Z</time>
      </trkpt>
      <trkpt lat="44.46326" lon="5.89002">
        <ele>1089</ele>
        <time>2019-06-12T13:02:25Z</time>
      </trkpt>
      <trkpt lat="44.46329" lon="5.89003">
        <ele>1089</ele>
        <time>2019-06-12T13:02:26Z</time>
      </trkpt>
      <trkpt lat="44.46331" lon="5.89003">
        <ele>1089</ele>
        <time>2019-06-12T13:02:27Z</time>
      </trkpt>
      <trkpt lat="44.46334" lon="5.89004">
        <ele>1089</ele>
        <time>2019-06-12T13:02:28Z</time>
      </trkpt>
      <trkpt lat="44.46336" lon="5.89005">
        <ele>1089</ele>
        <time>2019-06-12T13:02:29Z</time>
      </trkpt>
      <trkpt lat="44.46339" lon="5.89005">
        <ele>1089</ele>
        <time>2019-06-12T13:02:30Z</time>
      </trkpt>
      <trkpt lat="44.46341" lon="5.89006">
        <ele>1090</ele>
        <time>2019-06-12T13:02:31Z</time>
      </trkpt>
      <trkpt lat="44.46344" lon="5.89006">
        <ele>1090</ele>
        <time>2019-06-12T13:02:32Z</time>
      </trkpt>
      <trkpt lat="44.46347" lon="5.89007">
        <ele>1090</ele>
        <time>2019-06-12T13:02:33Z</time>
      </trkpt>
      <trkpt lat="44.46349" lon="5.89007">
        <ele>1091</ele>
        <time>2019-06-12T13:02:34Z</time>
      </trkpt>
      <trkpt lat="44.46352" lon="5.89008">
        <ele>1091</ele>
        <time>2019-06-12T13:02:35Z</time>
      </trkpt>
      <trkpt lat="44.46355" lon="5.89009">
        <ele>1092</ele>
        <time>2019-06-12T13:02:36Z</time>
      </trkpt>
      <trkpt lat="44.46357" lon="5.89009">
        <ele>1092</ele>
        <time>2019-06-12T13:02:37Z</time>
      </trkpt>
      <trkpt lat="44.4636" lon="5.8901">
        <ele>1092</ele>
        <time>2019-06-12T13:02:38Z</time>
      </trkpt>
      <trkpt lat="44.46363" lon="5.8901">
        <ele>1092</ele>
        <time>2019-06-12T13:02:39Z</time>
      </trkpt>
      <trkpt lat="44.46366" lon="5.8901">
        <ele>1092</ele>
        <time>2019-06-12T13:02:40Z</time>
      </trkpt>
      <trkpt lat="44.46368" lon="5.8901">
        <ele>1092</ele>
        <time>2019-06-12T13:02:41Z</time>
      </trkpt>
      <trkpt lat="44.46371" lon="5.89011">
        <ele>1092</ele>
        <time>2019-06-12T13:02:42Z</time>
      </trkpt>
      <trkpt lat="44.46373" lon="5.89011">
        <ele>1093</ele>
        <time>2019-06-12T13:02:43Z</time>
      </trkpt>
      <trkpt lat="44.46376" lon="5.8901">
        <ele>1093</ele>
        <time>2019-06-12T13:02:44Z</time>
      </trkpt>
      <trkpt lat="44.46378" lon="5.8901">
        <ele>1093</ele>
        <time>2019-06-12T13:02:45Z</time>
      </trkpt>
      <trkpt lat="44.46381" lon="5.8901">
        <ele>1093</ele>
        <time>2019-06-12T13:02:46Z</time>
      </trkpt>
      <trkpt lat="44.46383" lon="5.89009">
        <ele>1093</ele>
        <time>2019-06-12T13:02:47Z</time>
      </trkpt>
      <trkpt lat="44.46386" lon="5.89008">
        <ele>1093</ele>
        <time>2019-06-12T13:02:48Z</time>
      </trkpt>
      <trkpt lat="44.46388" lon="5.89006">
        <ele>1093</ele>
        <time>2019-06-12T13:02:49Z</time>
      </trkpt>
      <trkpt lat="44.46391" lon="5.89003">
        <ele>1094</ele>
        <time>2019-06-12T13:02:50Z</time>
      </trkpt>
      <trkpt lat="44.46393" lon="5.89">
        <ele>1094</ele>
        <time>2019-06-12T13:02:51Z</time>
      </trkpt>
      <trkpt lat="44.46395" lon="5.88997">
        <ele>1094</ele>
        <time>2019-06-12T13:02:52Z</time>
      </trkpt>
      <trkpt lat="44.46396" lon="5.88994">
        <ele>1094</ele>
        <time>2019-06-12T13:02:53Z</time>
      </trkpt>
      <trkpt lat="44.46398" lon="5.8899">
        <ele>1094</ele>
        <time>2019-06-12T13:02:54Z</time>
      </trkpt>
      <trkpt lat="44.46399" lon="5.88987">
        <ele>1094</ele>
        <time>2019-06-12T13:02:55Z</time>
      </trkpt>
      <trkpt lat="44.464" lon="5.88983">
        <ele>1094</ele>
        <time>2019-06-12T13:02:56Z</time>
      </trkpt>
      <trkpt lat="44.46401" lon="5.88979">
        <ele>1094</ele>
        <time>2019-06-12T13:02:57Z</time>
      </trkpt>
      <trkpt lat="44.46402" lon="5.88975">
        <ele>1094</ele>
        <time>2019-06-12T13:02:58Z</time>
      </trkpt>
      <trkpt lat="44.46403" lon="5.88972">
        <ele>1094</ele>
        <time>2019-06-12T13:02:59Z</time>
      </trkpt>
      <trkpt lat="44.46403" lon="5.88968">
        <ele>1094</ele>
        <time>2019-06-12T13:03:00Z</time>
      </trkpt>
      <trkpt lat="44.46403" lon="5.88964">
        <ele>1094</ele>
        <time>2019-06-12T13:03:01Z</time>
      </trkpt>
      <trkpt lat="44.46402" lon="5.88961">
        <ele>1094</ele>
        <time>2019-06-12T13:03:02Z</time>
      </trkpt>
      <trkpt lat="44.46402" lon="5.88957">
        <ele>1094</ele>
        <time>2019-06-12T13:03:03Z</time>
      </trkpt>
      <trkpt lat="44.464" lon="5.88953">
        <ele>1095</ele>
        <time>2019-06-12T13:03:04Z</time>
      </trkpt>
      <trkpt lat="44.464" lon="5.88949">
        <ele>1095</ele>
        <time>2019-06-12T13:03:05Z</time>
      </trkpt>
      <trkpt lat="44.46399" lon="5.88946">
        <ele>1095</ele>
        <time>2019-06-12T13:03:06Z</time>
      </trkpt>
      <trkpt lat="44.46398" lon="5.88942">
        <ele>1095</ele>
        <time>2019-06-12T13:03:07Z</time>
      </trkpt>
      <trkpt lat="44.46397" lon="5.88938">
        <ele>1096</ele>
        <time>2019-06-12T13:03:08Z</time>
      </trkpt>
      <trkpt lat="44.46396" lon="5.88934">
        <ele>1096</ele>
        <time>2019-06-12T13:03:09Z</time>
      </trkpt>
      <trkpt lat="44.46395" lon="5.88931">
        <ele>1096</ele>
        <time>2019-06-12T13:03:10Z</time>
      </trkpt>
      <trkpt lat="44.46394" lon="5.88927">
        <ele>1096</ele>
        <time>2019-06-12T13:03:11Z</time>
      </trkpt>
      <trkpt lat="44.46392" lon="5.88924">
        <ele>1097</ele>
        <time>2019-06-12T13:03:12Z</time>
      </trkpt>
      <trkpt lat="44.4639" lon="5.8892">
        <ele>1097</ele>
        <time>2019-06-12T13:03:13Z</time>
      </trkpt>
      <trkpt lat="44.46389" lon="5.88917">
        <ele>1097</ele>
        <time>2019-06-12T13:03:14Z</time>
      </trkpt>
      <trkpt lat="44.46387" lon="5.88913">
        <ele>1097</ele>
        <time>2019-06-12T13:03:15Z</time>
      </trkpt>
      <trkpt lat="44.46386" lon="5.8891">
        <ele>1097</ele>
        <time>2019-06-12T13:03:16Z</time>
      </trkpt>
      <trkpt lat="44.46385" lon="5.88906">
        <ele>1097</ele>
        <time>2019-06-12T13:03:17Z</time>
      </trkpt>
      <trkpt lat="44.46383" lon="5.88902">
        <ele>1098</ele>
        <time>2019-06-12T13:03:18Z</time>
      </trkpt>
      <trkpt lat="44.46383" lon="5.88899">
        <ele>1098</ele>
        <time>2019-06-12T13:03:19Z</time>
      </trkpt>
      <trkpt lat="44.46383" lon="5.88895">
        <ele>1099</ele>
        <time>2019-06-12T13:03:20Z</time>
      </trkpt>
      <trkpt lat="44.46384" lon="5.88891">
        <ele>1100</ele>
        <time>2019-06-12T13:03:21Z</time>
      </trkpt>
      <trkpt lat="44.46386" lon="5.88888">
        <ele>1101</ele>
        <time>2019-06-12T13:03:22Z</time>
      </trkpt>
      <trkpt lat="44.46388" lon="5.88885">
        <ele>1102</ele>
        <time>2019-06-12T13:03:23Z</time>
      </trkpt>
      <trkpt lat="44.46391" lon="5.88883">
        <ele>1103</ele>
        <time>2019-06-12T13:03:24Z</time>
      </trkpt>
      <trkpt lat="44.46393" lon="5.88882">
        <ele>1104</ele>
        <time>2019-06-12T13:03:25Z</time>
      </trkpt>
      <trkpt lat="44.46396" lon="5.88882">
        <ele>1104</ele>
        <time>2019-06-12T13:03:26Z</time>
      </trkpt>
      <trkpt lat="44.46399" lon="5.88881">
        <ele>1104</ele>
        <time>2019-06-12T13:03:27Z</time>
      </trkpt>
      <trkpt lat="44.46401" lon="5.8888">
        <ele>1105</ele>
        <time>2019-06-12T13:03:28Z</time>
      </trkpt>
      <trkpt lat="44.46404" lon="5.8888">
        <ele>1105</ele>
        <time>2019-06-12T13:03:29Z</time>
      </trkpt>
      <trkpt lat="44.46407" lon="5.88878">
        <ele>1105</ele>
        <time>2019-06-12T13:03:30Z</time>
      </trkpt>
      <trkpt lat="44.4641" lon="5.88877">
        <ele>1105</ele>
        <time>2019-06-12T13:03:31Z</time>
      </trkpt>
      <trkpt lat="44.46413" lon="5.88876">
        <ele>1105</ele>
        <time>2019-06-12T13:03:32Z</time>
      </trkpt>
      <trkpt lat="44.46415" lon="5.88874">
        <ele>1105</ele>
        <time>2019-06-12T13:03:33Z</time>
      </trkpt>
      <trkpt lat="44.46418" lon="5.88872">
        <ele>1106</ele>
        <time>2019-06-12T13:03:34Z</time>
      </trkpt>
      <trkpt lat="44.4642" lon="5.8887">
        <ele>1106</ele>
        <time>2019-06-12T13:03:35Z</time>
      </trkpt>
      <trkpt lat="44.46423" lon="5.88869">
        <ele>1106</ele>
        <time>2019-06-12T13:03:36Z</time>
      </trkpt>
      <trkpt lat="44.46426" lon="5.88867">
        <ele>1107</ele>
        <time>2019-06-12T13:03:37Z</time>
      </trkpt>
      <trkpt lat="44.46429" lon="5.88866">
        <ele>1107</ele>
        <time>2019-06-12T13:03:38Z</time>
      </trkpt>
      <trkpt lat="44.46432" lon="5.88864">
        <ele>1107</ele>
        <time>2019-06-12T13:03:39Z</time>
      </trkpt>
      <trkpt lat="44.46435" lon="5.88863">
        <ele>1107</ele>
        <time>2019-06-12T13:03:40Z</time>
      </trkpt>
      <trkpt lat="44.46437" lon="5.88862">
        <ele>1107</ele>
        <time>2019-06-12T13:03:41Z</time>
      </trkpt>
      <trkpt lat="44.4644" lon="5.8886">
        <ele>1107</ele>
        <time>2019-06-12T13:03:42Z</time>
      </trkpt>
      <trkpt lat="44.46442" lon="5.88857">
        <ele>1107</ele>
        <time>2019-06-12T13:03:43Z</time>
      </trkpt>
      <trkpt lat="44.46444" lon="5.88854">
        <ele>1107</ele>
        <time>2019-06-12T13:03:44Z</time>
      </trkpt>
      <trkpt lat="44.46446" lon="5.8885">
        <ele>1107</ele>
        <time>2019-06-12T13:03:45Z</time>
      </trkpt>
      <trkpt lat="44.46448" lon="5.88846">
        <ele>1107</ele>
        <time>2019-06-12T13:03:46Z</time>
      </trkpt>
      <trkpt lat="44.46449" lon="5.88841">
        <ele>1107</ele>
        <time>2019-06-12T13:03:47Z</time>
      </trkpt>
      <trkpt lat="44.4645" lon="5.88837">
        <ele>1107</ele>
        <time>2019-06-12T13:03:48Z</time>
      </trkpt>
      <trkpt lat="44.4645" lon="5.88833">
        <ele>1107</ele>
        <time>2019-06-12T13:03:49Z</time>
      </trkpt>
      <trkpt lat="44.4645" lon="5.88828">
        <ele>1107</ele>
        <time>2019-06-12T13:03:50Z</time>
      </trkpt>
      <trkpt lat="44.4645" lon="5.88824">
        <ele>1107</ele>
        <time>2019-06-12T13:03:51Z</time>
      </trkpt>
      <trkpt lat="44.4645" lon="5.88819">
        <ele>1107</ele>
        <time>2019-06-12T13:03:52Z</time>
      </trkpt>
      <trkpt lat="44.4645" lon="5.88815">
        <ele>1107</ele>
        <time>2019-06-12T13:03:53Z</time>
      </trkpt>
      <trkpt lat="44.4645" lon="5.88811">
        <ele>1107</ele>
        <time>2019-06-12T13:03:54Z</time>
      </trkpt>
      <trkpt lat="44.4645" lon="5.88806">
        <ele>1107</ele>
        <time>2019-06-12T13:03:55Z</time>
      </trkpt>
      <trkpt lat="44.46451" lon="5.88802">
        <ele>1107</ele>
        <time>2019-06-12T13:03:56Z</time>
      </trkpt>
      <trkpt lat="44.46451" lon="5.88797">
        <ele>1107</ele>
        <time>2019-06-12T13:03:57Z</time>
      </trkpt>
      <trkpt lat="44.46451" lon="5.88793">
        <ele>1107</ele>
        <time>2019-06-12T13:03:58Z</time>
      </trkpt>
      <trkpt lat="44.46452" lon="5.88789">
        <ele>1107</ele>
        <time>2019-06-12T13:03:59Z</time>
      </trkpt>
      <trkpt lat="44.46452" lon="5.88785">
        <ele>1107</ele>
        <time>2019-06-12T13:04:00Z</time>
      </trkpt>
      <trkpt lat="44.46452" lon="5.88781">
        <ele>1107</ele>
        <time>2019-06-12T13:04:01Z</time>
      </trkpt>
      <trkpt lat="44.46452" lon="5.88777">
        <ele>1107</ele>
        <time>2019-06-12T13:04:02Z</time>
      </trkpt>
      <trkpt lat="44.46452" lon="5.88772">
        <ele>1107</ele>
        <time>2019-06-12T13:04:03Z</time>
      </trkpt>
      <trkpt lat="44.46452" lon="5.88768">
        <ele>1107</ele>
        <time>2019-06-12T13:04:04Z</time>
      </trkpt>
      <trkpt lat="44.46452" lon="5.88764">
        <ele>1107</ele>
        <time>2019-06-12T13:04:05Z</time>
      </trkpt>
      <trkpt lat="44.46452" lon="5.88759">
        <ele>1107</ele>
        <time>2019-06-12T13:04:06Z</time>
      </trkpt>
      <trkpt lat="44.46451" lon="5.88755">
        <ele>1107</ele>
        <time>2019-06-12T13:04:07Z</time>
      </trkpt>
      <trkpt lat="44.46451" lon="5.8875">
        <ele>1107</ele>
        <time>2019-06-12T13:04:08Z</time>
      </trkpt>
      <trkpt lat="44.4645" lon="5.88746">
        <ele>1107</ele>
        <time>2019-06-12T13:04:09Z</time>
      </trkpt>
      <trkpt lat="44.4645" lon="5.88741">
        <ele>1107</ele>
        <time>2019-06-12T13:04:10Z</time>
      </trkpt>
      <trkpt lat="44.46449" lon="5.88737">
        <ele>1107</ele>
        <time>2019-06-12T13:04:11Z</time>
      </trkpt>
      <trkpt lat="44.46447" lon="5.88732">
        <ele>1107</ele>
        <time>2019-06-12T13:04:12Z</time>
      </trkpt>
      <trkpt lat="44.46446" lon="5.88728">
        <ele>1107</ele>
        <time>2019-06-12T13:04:13Z</time>
      </trkpt>
      <trkpt lat="44.46445" lon="5.88724">
        <ele>1107</ele>
        <time>2019-06-12T13:04:14Z</time>
      </trkpt>
      <trkpt lat="44.46445" lon="5.88719">
        <ele>1107</ele>
        <time>2019-06-12T13:04:15Z</time>
      </trkpt>
      <trkpt lat="44.46444" lon="5.88714">
        <ele>1107</ele>
        <time>2019-06-12T13:04:16Z</time>
      </trkpt>
      <trkpt lat="44.46444" lon="5.8871">
        <ele>1107</ele>
        <time>2019-06-12T13:04:17Z</time>
      </trkpt>
      <trkpt lat="44.46444" lon="5.88705">
        <ele>1107</ele>
        <time>2019-06-12T13:04:18Z</time>
      </trkpt>
      <trkpt lat="44.46444" lon="5.887">
        <ele>1107</ele>
        <time>2019-06-12T13:04:19Z</time>
      </trkpt>
      <trkpt lat="44.46445" lon="5.88696">
        <ele>1107</ele>
        <time>2019-06-12T13:04:20Z</time>
      </trkpt>
      <trkpt lat="44.46447" lon="5.88691">
        <ele>1107</ele>
        <time>2019-06-12T13:04:21Z</time>
      </trkpt>
      <trkpt lat="44.46448" lon="5.88687">
        <ele>1107</ele>
        <time>2019-06-12T13:04:22Z</time>
      </trkpt>
      <trkpt lat="44.4645" lon="5.88683">
        <ele>1107</ele>
        <time>2019-06-12T13:04:23Z</time>
      </trkpt>
      <trkpt lat="44.46452" lon="5.88679">
        <ele>1108</ele>
        <time>2019-06-12T13:04:24Z</time>
      </trkpt>
      <trkpt lat="44.46455" lon="5.88676">
        <ele>1109</ele>
        <time>2019-06-12T13:04:25Z</time>
      </trkpt>
      <trkpt lat="44.46457" lon="5.88672">
        <ele>1109</ele>
        <time>2019-06-12T13:04:26Z</time>
      </trkpt>
      <trkpt lat="44.46458" lon="5.88669">
        <ele>1110</ele>
        <time>2019-06-12T13:04:27Z</time>
      </trkpt>
      <trkpt lat="44.46459" lon="5.88664">
        <ele>1111</ele>
        <time>2019-06-12T13:04:28Z</time>
      </trkpt>
      <trkpt lat="44.4646" lon="5.8866">
        <ele>1112</ele>
        <time>2019-06-12T13:04:29Z</time>
      </trkpt>
      <trkpt lat="44.46461" lon="5.88655">
        <ele>1112</ele>
        <time>2019-06-12T13:04:30Z</time>
      </trkpt>
      <trkpt lat="44.46462" lon="5.88651">
        <ele>1113</ele>
        <time>2019-06-12T13:04:31Z</time>
      </trkpt>
      <trkpt lat="44.46462" lon="5.88646">
        <ele>1113</ele>
        <time>2019-06-12T13:04:32Z</time>
      </trkpt>
      <trkpt lat="44.46463" lon="5.88641">
        <ele>1113</ele>
        <time>2019-06-12T13:04:33Z</time>
      </trkpt>
      <trkpt lat="44.46463" lon="5.88637">
        <ele>1114</ele>
        <time>2019-06-12T13:04:34Z</time>
      </trkpt>
      <trkpt lat="44.46464" lon="5.88632">
        <ele>1114</ele>
        <time>2019-06-12T13:04:35Z</time>
      </trkpt>
      <trkpt lat="44.46464" lon="5.88627">
        <ele>1114</ele>
        <time>2019-06-12T13:04:36Z</time>
      </trkpt>
      <trkpt lat="44.46464" lon="5.88622">
        <ele>1114</ele>
        <time>2019-06-12T13:04:37Z</time>
      </trkpt>
      <trkpt lat="44.46465" lon="5.88617">
        <ele>1114</ele>
        <time>2019-06-12T13:04:38Z</time>
      </trkpt>
      <trkpt lat="44.46465" lon="5.88613">
        <ele>1114</ele>
        <time>2019-06-12T13:04:39Z</time>
      </trkpt>
      <trkpt lat="44.46465" lon="5.88608">
        <ele>1114</ele>
        <time>2019-06-12T13:04:40Z</time>
      </trkpt>
      <trkpt lat="44.46466" lon="5.88604">
        <ele>1114</ele>
        <time>2019-06-12T13:04:41Z</time>
      </trkpt>
      <trkpt lat="44.46467" lon="5.886">
        <ele>1114</ele>
        <time>2019-06-12T13:04:42Z</time>
      </trkpt>
      <trkpt lat="44.46468" lon="5.88597">
        <ele>1114</ele>
        <time>2019-06-12T13:04:43Z</time>
      </trkpt>
      <trkpt lat="44.46471" lon="5.88594">
        <ele>1114</ele>
        <time>2019-06-12T13:04:44Z</time>
      </trkpt>
      <trkpt lat="44.46473" lon="5.88591">
        <ele>1115</ele>
        <time>2019-06-12T13:04:45Z</time>
      </trkpt>
      <trkpt lat="44.46475" lon="5.88589">
        <ele>1115</ele>
        <time>2019-06-12T13:04:46Z</time>
      </trkpt>
      <trkpt lat="44.46477" lon="5.88587">
        <ele>1115</ele>
        <time>2019-06-12T13:04:47Z</time>
      </trkpt>
      <trkpt lat="44.4648" lon="5.88586">
        <ele>1115</ele>
        <time>2019-06-12T13:04:48Z</time>
      </trkpt>
      <trkpt lat="44.46482" lon="5.88584">
        <ele>1116</ele>
        <time>2019-06-12T13:04:49Z</time>
      </trkpt>
      <trkpt lat="44.46485" lon="5.88584">
        <ele>1116</ele>
        <time>2019-06-12T13:04:50Z</time>
      </trkpt>
      <trkpt lat="44.46488" lon="5.88583">
        <ele>1116</ele>
        <time>2019-06-12T13:04:51Z</time>
      </trkpt>
      <trkpt lat="44.46491" lon="5.88582">
        <ele>1117</ele>
        <time>2019-06-12T13:04:52Z</time>
      </trkpt>
      <trkpt lat="44.46494" lon="5.88582">
        <ele>1117</ele>
        <time>2019-06-12T13:04:53Z</time>
      </trkpt>
      <trkpt lat="44.46497" lon="5.88582">
        <ele>1117</ele>
        <time>2019-06-12T13:04:54Z</time>
      </trkpt>
      <trkpt lat="44.46499" lon="5.88581">
        <ele>1117</ele>
        <time>2019-06-12T13:04:55Z</time>
      </trkpt>
      <trkpt lat="44.46502" lon="5.88581">
        <ele>1117</ele>
        <time>2019-06-12T13:04:56Z</time>
      </trkpt>
      <trkpt lat="44.46505" lon="5.8858">
        <ele>1117</ele>
        <time>2019-06-12T13:04:57Z</time>
      </trkpt>
      <trkpt lat="44.46508" lon="5.88579">
        <ele>1117</ele>
        <time>2019-06-12T13:04:58Z</time>
      </trkpt>
      <trkpt lat="44.46511" lon="5.88578">
        <ele>1117</ele>
        <time>2019-06-12T13:04:59Z</time>
      </trkpt>
      <trkpt lat="44.46514" lon="5.88578">
        <ele>1117</ele>
        <time>2019-06-12T13:05:00Z</time>
      </trkpt>
      <trkpt lat="44.46517" lon="5.88577">
        <ele>1117</ele>
        <time>2019-06-12T13:05:01Z</time>
      </trkpt>
      <trkpt lat="44.46519" lon="5.88576">
        <ele>1117</ele>
        <time>2019-06-12T13:05:02Z</time>
      </trkpt>
      <trkpt lat="44.46523" lon="5.88575">
        <ele>1117</ele>
        <time>2019-06-12T13:05:03Z</time>
      </trkpt>
      <trkpt lat="44.46525" lon="5.88575">
        <ele>1117</ele>
        <time>2019-06-12T13:05:04Z</time>
      </trkpt>
      <trkpt lat="44.46528" lon="5.88574">
        <ele>1117</ele>
        <time>2019-06-12T13:05:05Z</time>
      </trkpt>
      <trkpt lat="44.46531" lon="5.88574">
        <ele>1117</ele>
        <time>2019-06-12T13:05:06Z</time>
      </trkpt>
      <trkpt lat="44.46534" lon="5.88574">
        <ele>1117</ele>
        <time>2019-06-12T13:05:07Z</time>
      </trkpt>
      <trkpt lat="44.46537" lon="5.88575">
        <ele>1118</ele>
        <time>2019-06-12T13:05:08Z</time>
      </trkpt>
      <trkpt lat="44.4654" lon="5.88575">
        <ele>1118</ele>
        <time>2019-06-12T13:05:09Z</time>
      </trkpt>
      <trkpt lat="44.46542" lon="5.88575">
        <ele>1118</ele>
        <time>2019-06-12T13:05:10Z</time>
      </trkpt>
      <trkpt lat="44.46545" lon="5.88576">
        <ele>1119</ele>
        <time>2019-06-12T13:05:11Z</time>
      </trkpt>
      <trkpt lat="44.46547" lon="5.88577">
        <ele>1119</ele>
        <time>2019-06-12T13:05:12Z</time>
      </trkpt>
      <trkpt lat="44.4655" lon="5.88578">
        <ele>1119</ele>
        <time>2019-06-12T13:05:13Z</time>
      </trkpt>
      <trkpt lat="44.46553" lon="5.88578">
        <ele>1119</ele>
        <time>2019-06-12T13:05:14Z</time>
      </trkpt>
      <trkpt lat="44.46555" lon="5.88578">
        <ele>1119</ele>
        <time>2019-06-12T13:05:15Z</time>
      </trkpt>
      <trkpt lat="44.46558" lon="5.88578">
        <ele>1119</ele>
        <time>2019-06-12T13:05:16Z</time>
      </trkpt>
      <trkpt lat="44.46561" lon="5.88576">
        <ele>1119</ele>
        <time>2019-06-12T13:05:17Z</time>
      </trkpt>
      <trkpt lat="44.46563" lon="5.88574">
        <ele>1119</ele>
        <time>2019-06-12T13:05:18Z</time>
      </trkpt>
      <trkpt lat="44.46565" lon="5.88571">
        <ele>1119</ele>
        <time>2019-06-12T13:05:19Z</time>
      </trkpt>
      <trkpt lat="44.46566" lon="5.88567">
        <ele>1119</ele>
        <time>2019-06-12T13:05:20Z</time>
      </trkpt>
      <trkpt lat="44.46566" lon="5.88563">
        <ele>1119</ele>
        <time>2019-06-12T13:05:21Z</time>
      </trkpt>
      <trkpt lat="44.46567" lon="5.8856">
        <ele>1119</ele>
        <time>2019-06-12T13:05:22Z</time>
      </trkpt>
      <trkpt lat="44.46567" lon="5.88555">
        <ele>1119</ele>
        <time>2019-06-12T13:05:23Z</time>
      </trkpt>
      <trkpt lat="44.46567" lon="5.88552">
        <ele>1119</ele>
        <time>2019-06-12T13:05:24Z</time>
      </trkpt>
      <trkpt lat="44.46566" lon="5.88547">
        <ele>1119</ele>
        <time>2019-06-12T13:05:25Z</time>
      </trkpt>
      <trkpt lat="44.46566" lon="5.88544">
        <ele>1119</ele>
        <time>2019-06-12T13:05:26Z</time>
      </trkpt>
      <trkpt lat="44.46566" lon="5.8854">
        <ele>1119</ele>
        <time>2019-06-12T13:05:27Z</time>
      </trkpt>
      <trkpt lat="44.46565" lon="5.88536">
        <ele>1119</ele>
        <time>2019-06-12T13:05:28Z</time>
      </trkpt>
      <trkpt lat="44.46564" lon="5.88532">
        <ele>1119</ele>
        <time>2019-06-12T13:05:29Z</time>
      </trkpt>
      <trkpt lat="44.46563" lon="5.88529">
        <ele>1119</ele>
        <time>2019-06-12T13:05:30Z</time>
      </trkpt>
      <trkpt lat="44.46562" lon="5.88526">
        <ele>1120</ele>
        <time>2019-06-12T13:05:31Z</time>
      </trkpt>
      <trkpt lat="44.46561" lon="5.88522">
        <ele>1120</ele>
        <time>2019-06-12T13:05:32Z</time>
      </trkpt>
      <trkpt lat="44.4656" lon="5.88519">
        <ele>1120</ele>
        <time>2019-06-12T13:05:33Z</time>
      </trkpt>
      <trkpt lat="44.46559" lon="5.88516">
        <ele>1120</ele>
        <time>2019-06-12T13:05:34Z</time>
      </trkpt>
      <trkpt lat="44.46558" lon="5.88512">
        <ele>1120</ele>
        <time>2019-06-12T13:05:35Z</time>
      </trkpt>
      <trkpt lat="44.46557" lon="5.88509">
        <ele>1120</ele>
        <time>2019-06-12T13:05:36Z</time>
      </trkpt>
      <trkpt lat="44.46555" lon="5.88506">
        <ele>1121</ele>
        <time>2019-06-12T13:05:37Z</time>
      </trkpt>
      <trkpt lat="44.46554" lon="5.88503">
        <ele>1121</ele>
        <time>2019-06-12T13:05:38Z</time>
      </trkpt>
      <trkpt lat="44.46553" lon="5.885">
        <ele>1121</ele>
        <time>2019-06-12T13:05:39Z</time>
      </trkpt>
      <trkpt lat="44.46552" lon="5.88497">
        <ele>1121</ele>
        <time>2019-06-12T13:05:40Z</time>
      </trkpt>
      <trkpt lat="44.4655" lon="5.88494">
        <ele>1121</ele>
        <time>2019-06-12T13:05:41Z</time>
      </trkpt>
      <trkpt lat="44.46549" lon="5.88491">
        <ele>1121</ele>
        <time>2019-06-12T13:05:42Z</time>
      </trkpt>
      <trkpt lat="44.46548" lon="5.88488">
        <ele>1122</ele>
        <time>2019-06-12T13:05:43Z</time>
      </trkpt>
      <trkpt lat="44.46547" lon="5.88484">
        <ele>1122</ele>
        <time>2019-06-12T13:05:44Z</time>
      </trkpt>
      <trkpt lat="44.46545" lon="5.88481">
        <ele>1122</ele>
        <time>2019-06-12T13:05:45Z</time>
      </trkpt>
      <trkpt lat="44.46544" lon="5.88478">
        <ele>1123</ele>
        <time>2019-06-12T13:05:46Z</time>
      </trkpt>
      <trkpt lat="44.46542" lon="5.88474">
        <ele>1123</ele>
        <time>2019-06-12T13:05:47Z</time>
      </trkpt>
      <trkpt lat="44.46542" lon="5.88471">
        <ele>1124</ele>
        <time>2019-06-12T13:05:48Z</time>
      </trkpt>
      <trkpt lat="44.46541" lon="5.88467">
        <ele>1124</ele>
        <time>2019-06-12T13:05:49Z</time>
      </trkpt>
      <trkpt lat="44.4654" lon="5.88463">
        <ele>1125</ele>
        <time>2019-06-12T13:05:50Z</time>
      </trkpt>
      <trkpt lat="44.46539" lon="5.8846">
        <ele>1125</ele>
        <time>2019-06-12T13:05:51Z</time>
      </trkpt>
      <trkpt lat="44.46538" lon="5.88456">
        <ele>1126</ele>
        <time>2019-06-12T13:05:52Z</time>
      </trkpt>
      <trkpt lat="44.46537" lon="5.88453">
        <ele>1126</ele>
        <time>2019-06-12T13:05:53Z</time>
      </trkpt>
      <trkpt lat="44.46536" lon="5.88451">
        <ele>1126</ele>
        <time>2019-06-12T13:05:54Z</time>
      </trkpt>
      <trkpt lat="44.46535" lon="5.88448">
        <ele>1127</ele>
        <time>2019-06-12T13:05:55Z</time>
      </trkpt>
      <trkpt lat="44.46534" lon="5.88445">
        <ele>1127</ele>
        <time>2019-06-12T13:05:56Z</time>
      </trkpt>
      <trkpt lat="44.46533" lon="5.88441">
        <ele>1127</ele>
        <time>2019-06-12T13:05:57Z</time>
      </trkpt>
      <trkpt lat="44.46532" lon="5.88437">
        <ele>1128</ele>
        <time>2019-06-12T13:05:58Z</time>
      </trkpt>
      <trkpt lat="44.46532" lon="5.88434">
        <ele>1129</ele>
        <time>2019-06-12T13:05:59Z</time>
      </trkpt>
      <trkpt lat="44.46531" lon="5.8843">
        <ele>1130</ele>
        <time>2019-06-12T13:06:00Z</time>
      </trkpt>
      <trkpt lat="44.46531" lon="5.88426">
        <ele>1131</ele>
        <time>2019-06-12T13:06:01Z</time>
      </trkpt>
      <trkpt lat="44.46532" lon="5.88423">
        <ele>1132</ele>
        <time>2019-06-12T13:06:02Z</time>
      </trkpt>
      <trkpt lat="44.46535" lon="5.88421">
        <ele>1133</ele>
        <time>2019-06-12T13:06:03Z</time>
      </trkpt>
      <trkpt lat="44.46538" lon="5.88418">
        <ele>1134</ele>
        <time>2019-06-12T13:06:04Z</time>
      </trkpt>
      <trkpt lat="44.46542" lon="5.88417">
        <ele>1134</ele>
        <time>2019-06-12T13:06:05Z</time>
      </trkpt>
      <trkpt lat="44.46545" lon="5.88416">
        <ele>1135</ele>
        <time>2019-06-12T13:06:06Z</time>
      </trkpt>
      <trkpt lat="44.46549" lon="5.88416">
        <ele>1136</ele>
        <time>2019-06-12T13:06:07Z</time>
      </trkpt>
      <trkpt lat="44.46552" lon="5.88417">
        <ele>1136</ele>
        <time>2019-06-12T13:06:08Z</time>
      </trkpt>
      <trkpt lat="44.46555" lon="5.88417">
        <ele>1136</ele>
        <time>2019-06-12T13:06:09Z</time>
      </trkpt>
      <trkpt lat="44.46558" lon="5.88417">
        <ele>1137</ele>
        <time>2019-06-12T13:06:10Z</time>
      </trkpt>
      <trkpt lat="44.46561" lon="5.88416">
        <ele>1137</ele>
        <time>2019-06-12T13:06:11Z</time>
      </trkpt>
      <trkpt lat="44.46565" lon="5.88416">
        <ele>1137</ele>
        <time>2019-06-12T13:06:12Z</time>
      </trkpt>
      <trkpt lat="44.46568" lon="5.88416">
        <ele>1137</ele>
        <time>2019-06-12T13:06:13Z</time>
      </trkpt>
      <trkpt lat="44.46571" lon="5.88414">
        <ele>1137</ele>
        <time>2019-06-12T13:06:14Z</time>
      </trkpt>
      <trkpt lat="44.46574" lon="5.88411">
        <ele>1137</ele>
        <time>2019-06-12T13:06:15Z</time>
      </trkpt>
      <trkpt lat="44.46577" lon="5.88408">
        <ele>1137</ele>
        <time>2019-06-12T13:06:16Z</time>
      </trkpt>
      <trkpt lat="44.46578" lon="5.88404">
        <ele>1137</ele>
        <time>2019-06-12T13:06:17Z</time>
      </trkpt>
      <trkpt lat="44.46579" lon="5.88399">
        <ele>1137</ele>
        <time>2019-06-12T13:06:18Z</time>
      </trkpt>
      <trkpt lat="44.4658" lon="5.88395">
        <ele>1137</ele>
        <time>2019-06-12T13:06:19Z</time>
      </trkpt>
      <trkpt lat="44.4658" lon="5.88391">
        <ele>1137</ele>
        <time>2019-06-12T13:06:20Z</time>
      </trkpt>
      <trkpt lat="44.46581" lon="5.88387">
        <ele>1137</ele>
        <time>2019-06-12T13:06:21Z</time>
      </trkpt>
      <trkpt lat="44.46581" lon="5.88384">
        <ele>1137</ele>
        <time>2019-06-12T13:06:22Z</time>
      </trkpt>
      <trkpt lat="44.46582" lon="5.8838">
        <ele>1137</ele>
        <time>2019-06-12T13:06:23Z</time>
      </trkpt>
      <trkpt lat="44.46581" lon="5.88377">
        <ele>1137</ele>
        <time>2019-06-12T13:06:24Z</time>
      </trkpt>
      <trkpt lat="44.46581" lon="5.88373">
        <ele>1137</ele>
        <time>2019-06-12T13:06:25Z</time>
      </trkpt>
      <trkpt lat="44.4658" lon="5.88369">
        <ele>1137</ele>
        <time>2019-06-12T13:06:26Z</time>
      </trkpt>
      <trkpt lat="44.46581" lon="5.88366">
        <ele>1137</ele>
        <time>2019-06-12T13:06:27Z</time>
      </trkpt>
      <trkpt lat="44.46581" lon="5.88363">
        <ele>1137</ele>
        <time>2019-06-12T13:06:28Z</time>
      </trkpt>
      <trkpt lat="44.46582" lon="5.8836">
        <ele>1137</ele>
        <time>2019-06-12T13:06:29Z</time>
      </trkpt>
      <trkpt lat="44.46582" lon="5.88357">
        <ele>1137</ele>
        <time>2019-06-12T13:06:30Z</time>
      </trkpt>
      <trkpt lat="44.46583" lon="5.88354">
        <ele>1137</ele>
        <time>2019-06-12T13:06:31Z</time>
      </trkpt>
      <trkpt lat="44.46584" lon="5.88351">
        <ele>1137</ele>
        <time>2019-06-12T13:06:32Z</time>
      </trkpt>
      <trkpt lat="44.46584" lon="5.88348">
        <ele>1137</ele>
        <time>2019-06-12T13:06:33Z</time>
      </trkpt>
      <trkpt lat="44.46585" lon="5.88344">
        <ele>1137</ele>
        <time>2019-06-12T13:06:34Z</time>
      </trkpt>
      <trkpt lat="44.46587" lon="5.88342">
        <ele>1137</ele>
        <time>2019-06-12T13:06:35Z</time>
      </trkpt>
      <trkpt lat="44.46587" lon="5.88339">
        <ele>1137</ele>
        <time>2019-06-12T13:06:36Z</time>
      </trkpt>
      <trkpt lat="44.46589" lon="5.88335">
        <ele>1137</ele>
        <time>2019-06-12T13:06:37Z</time>
      </trkpt>
      <trkpt lat="44.4659" lon="5.88332">
        <ele>1137</ele>
        <time>2019-06-12T13:06:38Z</time>
      </trkpt>
      <trkpt lat="44.46591" lon="5.88329">
        <ele>1137</ele>
        <time>2019-06-12T13:06:39Z</time>
      </trkpt>
      <trkpt lat="44.46592" lon="5.88326">
        <ele>1137</ele>
        <time>2019-06-12T13:06:40Z</time>
      </trkpt>
      <trkpt lat="44.46593" lon="5.88323">
        <ele>1137</ele>
        <time>2019-06-12T13:06:41Z</time>
      </trkpt>
      <trkpt lat="44.46594" lon="5.8832">
        <ele>1137</ele>
        <time>2019-06-12T13:06:42Z</time>
      </trkpt>
      <trkpt lat="44.46595" lon="5.88316">
        <ele>1137</ele>
        <time>2019-06-12T13:06:43Z</time>
      </trkpt>
      <trkpt lat="44.46596" lon="5.88313">
        <ele>1137</ele>
        <time>2019-06-12T13:06:44Z</time>
      </trkpt>
      <trkpt lat="44.46596" lon="5.8831">
        <ele>1137</ele>
        <time>2019-06-12T13:06:45Z</time>
      </trkpt>
      <trkpt lat="44.46597" lon="5.88307">
        <ele>1137</ele>
        <time>2019-06-12T13:06:46Z</time>
      </trkpt>
      <trkpt lat="44.46598" lon="5.88303">
        <ele>1137</ele>
        <time>2019-06-12T13:06:47Z</time>
      </trkpt>
      <trkpt lat="44.46598" lon="5.883">
        <ele>1137</ele>
        <time>2019-06-12T13:06:48Z</time>
      </trkpt>
      <trkpt lat="44.46598" lon="5.88296">
        <ele>1137</ele>
        <time>2019-06-12T13:06:49Z</time>
      </trkpt>
      <trkpt lat="44.46599" lon="5.88293">
        <ele>1137</ele>
        <time>2019-06-12T13:06:50Z</time>
      </trkpt>
      <trkpt lat="44.466" lon="5.8829">
        <ele>1137</ele>
        <time>2019-06-12T13:06:51Z</time>
      </trkpt>
      <trkpt lat="44.46601" lon="5.88287">
        <ele>1137</ele>
        <time>2019-06-12T13:06:52Z</time>
      </trkpt>
      <trkpt lat="44.46603" lon="5.88284">
        <ele>1137</ele>
        <time>2019-06-12T13:06:53Z</time>
      </trkpt>
      <trkpt lat="44.46605" lon="5.88282">
        <ele>1137</ele>
        <time>2019-06-12T13:06:54Z</time>
      </trkpt>
      <trkpt lat="44.46607" lon="5.88281">
        <ele>1137</ele>
        <time>2019-06-12T13:06:55Z</time>
      </trkpt>
      <trkpt lat="44.46609" lon="5.88281">
        <ele>1137</ele>
        <time>2019-06-12T13:06:56Z</time>
      </trkpt>
      <trkpt lat="44.46612" lon="5.8828">
        <ele>1137</ele>
        <time>2019-06-12T13:06:57Z</time>
      </trkpt>
      <trkpt lat="44.46614" lon="5.88279">
        <ele>1138</ele>
        <time>2019-06-12T13:06:58Z</time>
      </trkpt>
      <trkpt lat="44.46616" lon="5.88278">
        <ele>1138</ele>
        <time>2019-06-12T13:06:59Z</time>
      </trkpt>
      <trkpt lat="44.46619" lon="5.88278">
        <ele>1138</ele>
        <time>2019-06-12T13:07:00Z</time>
      </trkpt>
      <trkpt lat="44.46621" lon="5.88278">
        <ele>1139</ele>
        <time>2019-06-12T13:07:01Z</time>
      </trkpt>
      <trkpt lat="44.46624" lon="5.88277">
        <ele>1139</ele>
        <time>2019-06-12T13:07:02Z</time>
      </trkpt>
      <trkpt lat="44.46626" lon="5.88277">
        <ele>1139</ele>
        <time>2019-06-12T13:07:03Z</time>
      </trkpt>
      <trkpt lat="44.46629" lon="5.88277">
        <ele>1139</ele>
        <time>2019-06-12T13:07:04Z</time>
      </trkpt>
      <trkpt lat="44.46631" lon="5.88277">
        <ele>1139</ele>
        <time>2019-06-12T13:07:05Z</time>
      </trkpt>
      <trkpt lat="44.46634" lon="5.88277">
        <ele>1140</ele>
        <time>2019-06-12T13:07:06Z</time>
      </trkpt>
      <trkpt lat="44.46636" lon="5.88278">
        <ele>1140</ele>
        <time>2019-06-12T13:07:07Z</time>
      </trkpt>
      <trkpt lat="44.46639" lon="5.88279">
        <ele>1141</ele>
        <time>2019-06-12T13:07:08Z</time>
      </trkpt>
      <trkpt lat="44.46641" lon="5.8828">
        <ele>1141</ele>
        <time>2019-06-12T13:07:09Z</time>
      </trkpt>
      <trkpt lat="44.46644" lon="5.88281">
        <ele>1141</ele>
        <time>2019-06-12T13:07:10Z</time>
      </trkpt>
      <trkpt lat="44.46646" lon="5.88282">
        <ele>1142</ele>
        <time>2019-06-12T13:07:11Z</time>
      </trkpt>
      <trkpt lat="44.46648" lon="5.88284">
        <ele>1142</ele>
        <time>2019-06-12T13:07:12Z</time>
      </trkpt>
      <trkpt lat="44.4665" lon="5.88285">
        <ele>1142</ele>
        <time>2019-06-12T13:07:13Z</time>
      </trkpt>
      <trkpt lat="44.46652" lon="5.88288">
        <ele>1142</ele>
        <time>2019-06-12T13:07:14Z</time>
      </trkpt>
      <trkpt lat="44.46654" lon="5.8829">
        <ele>1143</ele>
        <time>2019-06-12T13:07:15Z</time>
      </trkpt>
      <trkpt lat="44.46656" lon="5.88293">
        <ele>1143</ele>
        <time>2019-06-12T13:07:16Z</time>
      </trkpt>
      <trkpt lat="44.46657" lon="5.88296">
        <ele>1143</ele>
        <time>2019-06-12T13:07:17Z</time>
      </trkpt>
      <trkpt lat="44.46658" lon="5.88299">
        <ele>1143</ele>
        <time>2019-06-12T13:07:18Z</time>
      </trkpt>
      <trkpt lat="44.4666" lon="5.88302">
        <ele>1143</ele>
        <time>2019-06-12T13:07:19Z</time>
      </trkpt>
      <trkpt lat="44.46662" lon="5.88304">
        <ele>1144</ele>
        <time>2019-06-12T13:07:20Z</time>
      </trkpt>
      <trkpt lat="44.46664" lon="5.88307">
        <ele>1144</ele>
        <time>2019-06-12T13:07:21Z</time>
      </trkpt>
      <trkpt lat="44.46665" lon="5.8831">
        <ele>1144</ele>
        <time>2019-06-12T13:07:22Z</time>
      </trkpt>
      <trkpt lat="44.46667" lon="5.88312">
        <ele>1144</ele>
        <time>2019-06-12T13:07:23Z</time>
      </trkpt>
      <trkpt lat="44.46668" lon="5.88315">
        <ele>1144</ele>
        <time>2019-06-12T13:07:24Z</time>
      </trkpt>
      <trkpt lat="44.4667" lon="5.88318">
        <ele>1144</ele>
        <time>2019-06-12T13:07:25Z</time>
      </trkpt>
      <trkpt lat="44.46672" lon="5.88322">
        <ele>1144</ele>
        <time>2019-06-12T13:07:26Z</time>
      </trkpt>
      <trkpt lat="44.46673" lon="5.88325">
        <ele>1144</ele>
        <time>2019-06-12T13:07:27Z</time>
      </trkpt>
      <trkpt lat="44.46676" lon="5.88328">
        <ele>1145</ele>
        <time>2019-06-12T13:07:28Z</time>
      </trkpt>
      <trkpt lat="44.46677" lon="5.88331">
        <ele>1145</ele>
        <time>2019-06-12T13:07:29Z</time>
      </trkpt>
      <trkpt lat="44.46679" lon="5.88334">
        <ele>1145</ele>
        <time>2019-06-12T13:07:30Z</time>
      </trkpt>
      <trkpt lat="44.46681" lon="5.88337">
        <ele>1145</ele>
        <time>2019-06-12T13:07:31Z</time>
      </trkpt>
      <trkpt lat="44.46683" lon="5.8834">
        <ele>1145</ele>
        <time>2019-06-12T13:07:32Z</time>
      </trkpt>
      <trkpt lat="44.46685" lon="5.88343">
        <ele>1145</ele>
        <time>2019-06-12T13:07:33Z</time>
      </trkpt>
      <trkpt lat="44.46687" lon="5.88347">
        <ele>1145</ele>
        <time>2019-06-12T13:07:34Z</time>
      </trkpt>
      <trkpt lat="44.46689" lon="5.8835">
        <ele>1145</ele>
        <time>2019-06-12T13:07:35Z</time>
      </trkpt>
      <trkpt lat="44.4669" lon="5.88353">
        <ele>1145</ele>
        <time>2019-06-12T13:07:36Z</time>
      </trkpt>
      <trkpt lat="44.46692" lon="5.88356">
        <ele>1145</ele>
        <time>2019-06-12T13:07:37Z</time>
      </trkpt>
      <trkpt lat="44.46694" lon="5.88359">
        <ele>1145</ele>
        <time>2019-06-12T13:07:38Z</time>
      </trkpt>
      <trkpt lat="44.46696" lon="5.88362">
        <ele>1145</ele>
        <time>2019-06-12T13:07:39Z</time>
      </trkpt>
      <trkpt lat="44.46698" lon="5.88365">
        <ele>1146</ele>
        <time>2019-06-12T13:07:40Z</time>
      </trkpt>
      <trkpt lat="44.467" lon="5.88368">
        <ele>1146</ele>
        <time>2019-06-12T13:07:41Z</time>
      </trkpt>
      <trkpt lat="44.46702" lon="5.88371">
        <ele>1147</ele>
        <time>2019-06-12T13:07:42Z</time>
      </trkpt>
      <trkpt lat="44.46705" lon="5.88374">
        <ele>1147</ele>
        <time>2019-06-12T13:07:43Z</time>
      </trkpt>
      <trkpt lat="44.46708" lon="5.88377">
        <ele>1147</ele>
        <time>2019-06-12T13:07:44Z</time>
      </trkpt>
      <trkpt lat="44.4671" lon="5.88379">
        <ele>1147</ele>
        <time>2019-06-12T13:07:45Z</time>
      </trkpt>
      <trkpt lat="44.46712" lon="5.88382">
        <ele>1147</ele>
        <time>2019-06-12T13:07:46Z</time>
      </trkpt>
      <trkpt lat="44.46715" lon="5.88384">
        <ele>1147</ele>
        <time>2019-06-12T13:07:47Z</time>
      </trkpt>
      <trkpt lat="44.46718" lon="5.88386">
        <ele>1148</ele>
        <time>2019-06-12T13:07:48Z</time>
      </trkpt>
      <trkpt lat="44.46721" lon="5.88388">
        <ele>1148</ele>
        <time>2019-06-12T13:07:49Z</time>
      </trkpt>
      <trkpt lat="44.46724" lon="5.8839">
        <ele>1148</ele>
        <time>2019-06-12T13:07:50Z</time>
      </trkpt>
      <trkpt lat="44.46727" lon="5.88392">
        <ele>1148</ele>
        <time>2019-06-12T13:07:51Z</time>
      </trkpt>
      <trkpt lat="44.4673" lon="5.88393">
        <ele>1148</ele>
        <time>2019-06-12T13:07:52Z</time>
      </trkpt>
      <trkpt lat="44.46733" lon="5.88394">
        <ele>1148</ele>
        <time>2019-06-12T13:07:53Z</time>
      </trkpt>
      <trkpt lat="44.46736" lon="5.88396">
        <ele>1149</ele>
        <time>2019-06-12T13:07:54Z</time>
      </trkpt>
      <trkpt lat="44.46739" lon="5.88396">
        <ele>1149</ele>
        <time>2019-06-12T13:07:55Z</time>
      </trkpt>
      <trkpt lat="44.46742" lon="5.88397">
        <ele>1149</ele>
        <time>2019-06-12T13:07:56Z</time>
      </trkpt>
      <trkpt lat="44.46746" lon="5.88399">
        <ele>1149</ele>
        <time>2019-06-12T13:07:57Z</time>
      </trkpt>
      <trkpt lat="44.46749" lon="5.884">
        <ele>1149</ele>
        <time>2019-06-12T13:07:58Z</time>
      </trkpt>
      <trkpt lat="44.46752" lon="5.88402">
        <ele>1149</ele>
        <time>2019-06-12T13:07:59Z</time>
      </trkpt>
      <trkpt lat="44.46756" lon="5.88404">
        <ele>1149</ele>
        <time>2019-06-12T13:08:00Z</time>
      </trkpt>
      <trkpt lat="44.46759" lon="5.88407">
        <ele>1149</ele>
        <time>2019-06-12T13:08:01Z</time>
      </trkpt>
      <trkpt lat="44.46762" lon="5.8841">
        <ele>1149</ele>
        <time>2019-06-12T13:08:02Z</time>
      </trkpt>
      <trkpt lat="44.46766" lon="5.88413">
        <ele>1149</ele>
        <time>2019-06-12T13:08:03Z</time>
      </trkpt>
      <trkpt lat="44.46769" lon="5.88416">
        <ele>1149</ele>
        <time>2019-06-12T13:08:04Z</time>
      </trkpt>
      <trkpt lat="44.46772" lon="5.8842">
        <ele>1149</ele>
        <time>2019-06-12T13:08:05Z</time>
      </trkpt>
      <trkpt lat="44.46776" lon="5.88423">
        <ele>1149</ele>
        <time>2019-06-12T13:08:06Z</time>
      </trkpt>
      <trkpt lat="44.46779" lon="5.88427">
        <ele>1149</ele>
        <time>2019-06-12T13:08:07Z</time>
      </trkpt>
      <trkpt lat="44.46782" lon="5.88432">
        <ele>1149</ele>
        <time>2019-06-12T13:08:08Z</time>
      </trkpt>
      <trkpt lat="44.46785" lon="5.88436">
        <ele>1149</ele>
        <time>2019-06-12T13:08:09Z</time>
      </trkpt>
      <trkpt lat="44.46788" lon="5.88441">
        <ele>1149</ele>
        <time>2019-06-12T13:08:10Z</time>
      </trkpt>
      <trkpt lat="44.46792" lon="5.88446">
        <ele>1149</ele>
        <time>2019-06-12T13:08:11Z</time>
      </trkpt>
      <trkpt lat="44.46795" lon="5.88451">
        <ele>1149</ele>
        <time>2019-06-12T13:08:12Z</time>
      </trkpt>
      <trkpt lat="44.46798" lon="5.88457">
        <ele>1149</ele>
        <time>2019-06-12T13:08:13Z</time>
      </trkpt>
      <trkpt lat="44.46801" lon="5.88463">
        <ele>1149</ele>
        <time>2019-06-12T13:08:14Z</time>
      </trkpt>
      <trkpt lat="44.46803" lon="5.8847">
        <ele>1149</ele>
        <time>2019-06-12T13:08:15Z</time>
      </trkpt>
      <trkpt lat="44.46804" lon="5.88477">
        <ele>1149</ele>
        <time>2019-06-12T13:08:16Z</time>
      </trkpt>
      <trkpt lat="44.46805" lon="5.88484">
        <ele>1149</ele>
        <time>2019-06-12T13:08:17Z</time>
      </trkpt>
      <trkpt lat="44.46806" lon="5.88491">
        <ele>1149</ele>
        <time>2019-06-12T13:08:18Z</time>
      </trkpt>
      <trkpt lat="44.46807" lon="5.88498">
        <ele>1149</ele>
        <time>2019-06-12T13:08:19Z</time>
      </trkpt>
      <trkpt lat="44.46808" lon="5.88505">
        <ele>1149</ele>
        <time>2019-06-12T13:08:20Z</time>
      </trkpt>
      <trkpt lat="44.46809" lon="5.88512">
        <ele>1149</ele>
        <time>2019-06-12T13:08:21Z</time>
      </trkpt>
      <trkpt lat="44.46809" lon="5.88519">
        <ele>1149</ele>
        <time>2019-06-12T13:08:22Z</time>
      </trkpt>
      <trkpt lat="44.4681" lon="5.88526">
        <ele>1149</ele>
        <time>2019-06-12T13:08:23Z</time>
      </trkpt>
      <trkpt lat="44.46809" lon="5.88533">
        <ele>1149</ele>
        <time>2019-06-12T13:08:24Z</time>
      </trkpt>
      <trkpt lat="44.46809" lon="5.8854">
        <ele>1149</ele>
        <time>2019-06-12T13:08:25Z</time>
      </trkpt>
      <trkpt lat="44.46808" lon="5.88547">
        <ele>1149</ele>
        <time>2019-06-12T13:08:26Z</time>
      </trkpt>
      <trkpt lat="44.46808" lon="5.88554">
        <ele>1149</ele>
        <time>2019-06-12T13:08:27Z</time>
      </trkpt>
      <trkpt lat="44.46808" lon="5.88561">
        <ele>1149</ele>
        <time>2019-06-12T13:08:28Z</time>
      </trkpt>
      <trkpt lat="44.46808" lon="5.88567">
        <ele>1149</ele>
        <time>2019-06-12T13:08:29Z</time>
      </trkpt>
      <trkpt lat="44.46809" lon="5.88574">
        <ele>1149</ele>
        <time>2019-06-12T13:08:30Z</time>
      </trkpt>
      <trkpt lat="44.46812" lon="5.8858">
        <ele>1149</ele>
        <time>2019-06-12T13:08:31Z</time>
      </trkpt>
      <trkpt lat="44.46815" lon="5.88583">
        <ele>1149</ele>
        <time>2019-06-12T13:08:32Z</time>
      </trkpt>
      <trkpt lat="44.4682" lon="5.88582">
        <ele>1149</ele>
        <time>2019-06-12T13:08:33Z</time>
      </trkpt>
      <trkpt lat="44.46824" lon="5.88579">
        <ele>1149</ele>
        <time>2019-06-12T13:08:34Z</time>
      </trkpt>
      <trkpt lat="44.46827" lon="5.88575">
        <ele>1149</ele>
        <time>2019-06-12T13:08:35Z</time>
      </trkpt>
      <trkpt lat="44.46832" lon="5.88571">
        <ele>1149</ele>
        <time>2019-06-12T13:08:36Z</time>
      </trkpt>
      <trkpt lat="44.46836" lon="5.88568">
        <ele>1149</ele>
        <time>2019-06-12T13:08:37Z</time>
      </trkpt>
      <trkpt lat="44.46841" lon="5.88567">
        <ele>1149</ele>
        <time>2019-06-12T13:08:38Z</time>
      </trkpt>
      <trkpt lat="44.46845" lon="5.88566">
        <ele>1149</ele>
        <time>2019-06-12T13:08:39Z</time>
      </trkpt>
      <trkpt lat="44.4685" lon="5.88565">
        <ele>1149</ele>
        <time>2019-06-12T13:08:40Z</time>
      </trkpt>
      <trkpt lat="44.46854" lon="5.88564">
        <ele>1149</ele>
        <time>2019-06-12T13:08:41Z</time>
      </trkpt>
      <trkpt lat="44.46859" lon="5.88564">
        <ele>1149</ele>
        <time>2019-06-12T13:08:42Z</time>
      </trkpt>
      <trkpt lat="44.46863" lon="5.88563">
        <ele>1149</ele>
        <time>2019-06-12T13:08:43Z</time>
      </trkpt>
      <trkpt lat="44.46868" lon="5.88562">
        <ele>1149</ele>
        <time>2019-06-12T13:08:44Z</time>
      </trkpt>
      <trkpt lat="44.46872" lon="5.8856">
        <ele>1149</ele>
        <time>2019-06-12T13:08:45Z</time>
      </trkpt>
      <trkpt lat="44.46877" lon="5.88558">
        <ele>1149</ele>
        <time>2019-06-12T13:08:46Z</time>
      </trkpt>
      <trkpt lat="44.46881" lon="5.88556">
        <ele>1149</ele>
        <time>2019-06-12T13:08:47Z</time>
      </trkpt>
      <trkpt lat="44.46886" lon="5.88554">
        <ele>1149</ele>
        <time>2019-06-12T13:08:48Z</time>
      </trkpt>
      <trkpt lat="44.46891" lon="5.88555">
        <ele>1149</ele>
        <time>2019-06-12T13:08:49Z</time>
      </trkpt>
      <trkpt lat="44.46895" lon="5.88558">
        <ele>1150</ele>
        <time>2019-06-12T13:08:50Z</time>
      </trkpt>
      <trkpt lat="44.46898" lon="5.88563">
        <ele>1150</ele>
        <time>2019-06-12T13:08:51Z</time>
      </trkpt>
      <trkpt lat="44.46901" lon="5.88569">
        <ele>1150</ele>
        <time>2019-06-12T13:08:52Z</time>
      </trkpt>
      <trkpt lat="44.46904" lon="5.88575">
        <ele>1150</ele>
        <time>2019-06-12T13:08:53Z</time>
      </trkpt>
      <trkpt lat="44.46907" lon="5.88581">
        <ele>1150</ele>
        <time>2019-06-12T13:08:54Z</time>
      </trkpt>
      <trkpt lat="44.46909" lon="5.88587">
        <ele>1150</ele>
        <time>2019-06-12T13:08:55Z</time>
      </trkpt>
      <trkpt lat="44.46912" lon="5.88593">
        <ele>1150</ele>
        <time>2019-06-12T13:08:56Z</time>
      </trkpt>
      <trkpt lat="44.46915" lon="5.88598">
        <ele>1150</ele>
        <time>2019-06-12T13:08:57Z</time>
      </trkpt>
      <trkpt lat="44.46919" lon="5.88604">
        <ele>1150</ele>
        <time>2019-06-12T13:08:58Z</time>
      </trkpt>
      <trkpt lat="44.46923" lon="5.88609">
        <ele>1150</ele>
        <time>2019-06-12T13:08:59Z</time>
      </trkpt>
      <trkpt lat="44.46926" lon="5.88615">
        <ele>1150</ele>
        <time>2019-06-12T13:09:00Z</time>
      </trkpt>
      <trkpt lat="44.4693" lon="5.8862">
        <ele>1150</ele>
        <time>2019-06-12T13:09:01Z</time>
      </trkpt>
      <trkpt lat="44.46934" lon="5.88625">
        <ele>1150</ele>
        <time>2019-06-12T13:09:02Z</time>
      </trkpt>
      <trkpt lat="44.46938" lon="5.88629">
        <ele>1150</ele>
        <time>2019-06-12T13:09:03Z</time>
      </trkpt>
      <trkpt lat="44.46943" lon="5.88632">
        <ele>1150</ele>
        <time>2019-06-12T13:09:04Z</time>
      </trkpt>
      <trkpt lat="44.46949" lon="5.88634">
        <ele>1150</ele>
        <time>2019-06-12T13:09:05Z</time>
      </trkpt>
      <trkpt lat="44.46954" lon="5.88635">
        <ele>1151</ele>
        <time>2019-06-12T13:09:06Z</time>
      </trkpt>
      <trkpt lat="44.46959" lon="5.88636">
        <ele>1151</ele>
        <time>2019-06-12T13:09:07Z</time>
      </trkpt>
      <trkpt lat="44.46965" lon="5.88636">
        <ele>1151</ele>
        <time>2019-06-12T13:09:08Z</time>
      </trkpt>
      <trkpt lat="44.4697" lon="5.88636">
        <ele>1151</ele>
        <time>2019-06-12T13:09:09Z</time>
      </trkpt>
      <trkpt lat="44.46975" lon="5.88636">
        <ele>1151</ele>
        <time>2019-06-12T13:09:10Z</time>
      </trkpt>
      <trkpt lat="44.46981" lon="5.88635">
        <ele>1151</ele>
        <time>2019-06-12T13:09:11Z</time>
      </trkpt>
      <trkpt lat="44.46986" lon="5.88634">
        <ele>1151</ele>
        <time>2019-06-12T13:09:12Z</time>
      </trkpt>
      <trkpt lat="44.46991" lon="5.88633">
        <ele>1151</ele>
        <time>2019-06-12T13:09:13Z</time>
      </trkpt>
      <trkpt lat="44.46996" lon="5.8863">
        <ele>1151</ele>
        <time>2019-06-12T13:09:14Z</time>
      </trkpt>
      <trkpt lat="44.47" lon="5.88626">
        <ele>1151</ele>
        <time>2019-06-12T13:09:15Z</time>
      </trkpt>
      <trkpt lat="44.47005" lon="5.88622">
        <ele>1151</ele>
        <time>2019-06-12T13:09:16Z</time>
      </trkpt>
      <trkpt lat="44.47009" lon="5.88618">
        <ele>1151</ele>
        <time>2019-06-12T13:09:17Z</time>
      </trkpt>
      <trkpt lat="44.47013" lon="5.88613">
        <ele>1151</ele>
        <time>2019-06-12T13:09:18Z</time>
      </trkpt>
      <trkpt lat="44.47018" lon="5.88608">
        <ele>1151</ele>
        <time>2019-06-12T13:09:19Z</time>
      </trkpt>
      <trkpt lat="44.47022" lon="5.88603">
        <ele>1152</ele>
        <time>2019-06-12T13:09:20Z</time>
      </trkpt>
      <trkpt lat="44.47026" lon="5.88598">
        <ele>1152</ele>
        <time>2019-06-12T13:09:21Z</time>
      </trkpt>
      <trkpt lat="44.4703" lon="5.88593">
        <ele>1152</ele>
        <time>2019-06-12T13:09:22Z</time>
      </trkpt>
      <trkpt lat="44.47034" lon="5.88588">
        <ele>1152</ele>
        <time>2019-06-12T13:09:23Z</time>
      </trkpt>
      <trkpt lat="44.47038" lon="5.88584">
        <ele>1152</ele>
        <time>2019-06-12T13:09:24Z</time>
      </trkpt>
      <trkpt lat="44.47042" lon="5.8858">
        <ele>1152</ele>
        <time>2019-06-12T13:09:25Z</time>
      </trkpt>
      <trkpt lat="44.47047" lon="5.88575">
        <ele>1152</ele>
        <time>2019-06-12T13:09:26Z</time>
      </trkpt>
      <trkpt lat="44.4705" lon="5.8857">
        <ele>1152</ele>
        <time>2019-06-12T13:09:27Z</time>
      </trkpt>
      <trkpt lat="44.47054" lon="5.88565">
        <ele>1152</ele>
        <time>2019-06-12T13:09:28Z</time>
      </trkpt>
      <trkpt lat="44.47057" lon="5.88561">
        <ele>1152</ele>
        <time>2019-06-12T13:09:29Z</time>
      </trkpt>
      <trkpt lat="44.47061" lon="5.88559">
        <ele>1152</ele>
        <time>2019-06-12T13:09:30Z</time>
      </trkpt>
      <trkpt lat="44.47065" lon="5.88559">
        <ele>1152</ele>
        <time>2019-06-12T13:09:31Z</time>
      </trkpt>
      <trkpt lat="44.47069" lon="5.88562">
        <ele>1152</ele>
        <time>2019-06-12T13:09:32Z</time>
      </trkpt>
      <trkpt lat="44.47071" lon="5.88568">
        <ele>1152</ele>
        <time>2019-06-12T13:09:33Z</time>
      </trkpt>
      <trkpt lat="44.47072" lon="5.88575">
        <ele>1152</ele>
        <time>2019-06-12T13:09:34Z</time>
      </trkpt>
      <trkpt lat="44.47073" lon="5.88582">
        <ele>1152</ele>
        <time>2019-06-12T13:09:35Z</time>
      </trkpt>
      <trkpt lat="44.47075" lon="5.88589">
        <ele>1152</ele>
        <time>2019-06-12T13:09:36Z</time>
      </trkpt>
      <trkpt lat="44.47078" lon="5.88594">
        <ele>1152</ele>
        <time>2019-06-12T13:09:37Z</time>
      </trkpt>
      <trkpt lat="44.47083" lon="5.88598">
        <ele>1152</ele>
        <time>2019-06-12T13:09:38Z</time>
      </trkpt>
      <trkpt lat="44.47088" lon="5.886">
        <ele>1152</ele>
        <time>2019-06-12T13:09:39Z</time>
      </trkpt>
      <trkpt lat="44.47093" lon="5.88601">
        <ele>1152</ele>
        <time>2019-06-12T13:09:40Z</time>
      </trkpt>
      <trkpt lat="44.47099" lon="5.886">
        <ele>1152</ele>
        <time>2019-06-12T13:09:41Z</time>
      </trkpt>
      <trkpt lat="44.47103" lon="5.886">
        <ele>1153</ele>
        <time>2019-06-12T13:09:42Z</time>
      </trkpt>
      <trkpt lat="44.47108" lon="5.88601">
        <ele>1153</ele>
        <time>2019-06-12T13:09:43Z</time>
      </trkpt>
      <trkpt lat="44.47113" lon="5.88605">
        <ele>1153</ele>
        <time>2019-06-12T13:09:44Z</time>
      </trkpt>
      <trkpt lat="44.47115" lon="5.88611">
        <ele>1153</ele>
        <time>2019-06-12T13:09:45Z</time>
      </trkpt>
      <trkpt lat="44.47116" lon="5.88618">
        <ele>1153</ele>
        <time>2019-06-12T13:09:46Z</time>
      </trkpt>
      <trkpt lat="44.47115" lon="5.88626">
        <ele>1153</ele>
        <time>2019-06-12T13:09:47Z</time>
      </trkpt>
      <trkpt lat="44.47114" lon="5.88633">
        <ele>1153</ele>
        <time>2019-06-12T13:09:48Z</time>
      </trkpt>
      <trkpt lat="44.47113" lon="5.88641">
        <ele>1154</ele>
        <time>2019-06-12T13:09:49Z</time>
      </trkpt>
      <trkpt lat="44.47111" lon="5.88648">
        <ele>1154</ele>
        <time>2019-06-12T13:09:50Z</time>
      </trkpt>
      <trkpt lat="44.4711" lon="5.88656">
        <ele>1155</ele>
        <time>2019-06-12T13:09:51Z</time>
      </trkpt>
      <trkpt lat="44.4711" lon="5.88663">
        <ele>1155</ele>
        <time>2019-06-12T13:09:52Z</time>
      </trkpt>
      <trkpt lat="44.47112" lon="5.88669">
        <ele>1155</ele>
        <time>2019-06-12T13:09:53Z</time>
      </trkpt>
      <trkpt lat="44.47116" lon="5.88673">
        <ele>1156</ele>
        <time>2019-06-12T13:09:54Z</time>
      </trkpt>
      <trkpt lat="44.47122" lon="5.88674">
        <ele>1156</ele>
        <time>2019-06-12T13:09:55Z</time>
      </trkpt>
      <trkpt lat="44.47127" lon="5.88674">
        <ele>1156</ele>
        <time>2019-06-12T13:09:56Z</time>
      </trkpt>
      <trkpt lat="44.47132" lon="5.88673">
        <ele>1156</ele>
        <time>2019-06-12T13:09:57Z</time>
      </trkpt>
      <trkpt lat="44.47137" lon="5.8867">
        <ele>1156</ele>
        <time>2019-06-12T13:09:58Z</time>
      </trkpt>
      <trkpt lat="44.47143" lon="5.88667">
        <ele>1156</ele>
        <time>2019-06-12T13:09:59Z</time>
      </trkpt>
      <trkpt lat="44.47147" lon="5.88662">
        <ele>1156</ele>
        <time>2019-06-12T13:10:00Z</time>
      </trkpt>
      <trkpt lat="44.47152" lon="5.88659">
        <ele>1156</ele>
        <time>2019-06-12T13:10:01Z</time>
      </trkpt>
      <trkpt lat="44.47157" lon="5.88656">
        <ele>1156</ele>
        <time>2019-06-12T13:10:02Z</time>
      </trkpt>
      <trkpt lat="44.47162" lon="5.88655">
        <ele>1156</ele>
        <time>2019-06-12T13:10:03Z</time>
      </trkpt>
      <trkpt lat="44.47168" lon="5.88657">
        <ele>1156</ele>
        <time>2019-06-12T13:10:04Z</time>
      </trkpt>
      <trkpt lat="44.47172" lon="5.88661">
        <ele>1156</ele>
        <time>2019-06-12T13:10:05Z</time>
      </trkpt>
      <trkpt lat="44.47176" lon="5.88666">
        <ele>1156</ele>
        <time>2019-06-12T13:10:06Z</time>
      </trkpt>
      <trkpt lat="44.4718" lon="5.8867">
        <ele>1156</ele>
        <time>2019-06-12T13:10:07Z</time>
      </trkpt>
      <trkpt lat="44.47184" lon="5.88674">
        <ele>1156</ele>
        <time>2019-06-12T13:10:08Z</time>
      </trkpt>
      <trkpt lat="44.47188" lon="5.88676">
        <ele>1156</ele>
        <time>2019-06-12T13:10:09Z</time>
      </trkpt>
      <trkpt lat="44.47193" lon="5.88678">
        <ele>1157</ele>
        <time>2019-06-12T13:10:10Z</time>
      </trkpt>
      <trkpt lat="44.47198" lon="5.88678">
        <ele>1157</ele>
        <time>2019-06-12T13:10:11Z</time>
      </trkpt>
      <trkpt lat="44.47203" lon="5.88676">
        <ele>1157</ele>
        <time>2019-06-12T13:10:12Z</time>
      </trkpt>
      <trkpt lat="44.47207" lon="5.88673">
        <ele>1157</ele>
        <time>2019-06-12T13:10:13Z</time>
      </trkpt>
      <trkpt lat="44.47212" lon="5.88669">
        <ele>1157</ele>
        <time>2019-06-12T13:10:14Z</time>
      </trkpt>
      <trkpt lat="44.47216" lon="5.88665">
        <ele>1157</ele>
        <time>2019-06-12T13:10:15Z</time>
      </trkpt>
      <trkpt lat="44.47219" lon="5.8866">
        <ele>1157</ele>
        <time>2019-06-12T13:10:16Z</time>
      </trkpt>
      <trkpt lat="44.47222" lon="5.88655">
        <ele>1157</ele>
        <time>2019-06-12T13:10:17Z</time>
      </trkpt>
      <trkpt lat="44.47224" lon="5.88649">
        <ele>1157</ele>
        <time>2019-06-12T13:10:18Z</time>
      </trkpt>
      <trkpt lat="44.47227" lon="5.88643">
        <ele>1157</ele>
        <time>2019-06-12T13:10:19Z</time>
      </trkpt>
      <trkpt lat="44.47231" lon="5.88638">
        <ele>1157</ele>
        <time>2019-06-12T13:10:20Z</time>
      </trkpt>
      <trkpt lat="44.47235" lon="5.88634">
        <ele>1157</ele>
        <time>2019-06-12T13:10:21Z</time>
      </trkpt>
      <trkpt lat="44.47239" lon="5.88631">
        <ele>1157</ele>
        <time>2019-06-12T13:10:22Z</time>
      </trkpt>
      <trkpt lat="44.47244" lon="5.88628">
        <ele>1157</ele>
        <time>2019-06-12T13:10:23Z</time>
      </trkpt>
      <trkpt lat="44.47248" lon="5.88625">
        <ele>1157</ele>
        <time>2019-06-12T13:10:24Z</time>
      </trkpt>
      <trkpt lat="44.47253" lon="5.88623">
        <ele>1157</ele>
        <time>2019-06-12T13:10:25Z</time>
      </trkpt>
      <trkpt lat="44.47258" lon="5.88621">
        <ele>1157</ele>
        <time>2019-06-12T13:10:26Z</time>
      </trkpt>
      <trkpt lat="44.47263" lon="5.88619">
        <ele>1157</ele>
        <time>2019-06-12T13:10:27Z</time>
      </trkpt>
      <trkpt lat="44.47267" lon="5.88619">
        <ele>1157</ele>
        <time>2019-06-12T13:10:28Z</time>
      </trkpt>
      <trkpt lat="44.47271" lon="5.88622">
        <ele>1157</ele>
        <time>2019-06-12T13:10:29Z</time>
      </trkpt>
      <trkpt lat="44.47274" lon="5.88627">
        <ele>1157</ele>
        <time>2019-06-12T13:10:30Z</time>
      </trkpt>
      <trkpt lat="44.47275" lon="5.88633">
        <ele>1157</ele>
        <time>2019-06-12T13:10:31Z</time>
      </trkpt>
      <trkpt lat="44.47274" lon="5.8864">
        <ele>1157</ele>
        <time>2019-06-12T13:10:32Z</time>
      </trkpt>
      <trkpt lat="44.47272" lon="5.88647">
        <ele>1157</ele>
        <time>2019-06-12T13:10:33Z</time>
      </trkpt>
      <trkpt lat="44.47271" lon="5.88653">
        <ele>1157</ele>
        <time>2019-06-12T13:10:34Z</time>
      </trkpt>
      <trkpt lat="44.47269" lon="5.8866">
        <ele>1157</ele>
        <time>2019-06-12T13:10:35Z</time>
      </trkpt>
      <trkpt lat="44.47267" lon="5.88666">
        <ele>1157</ele>
        <time>2019-06-12T13:10:36Z</time>
      </trkpt>
      <trkpt lat="44.47265" lon="5.88674">
        <ele>1157</ele>
        <time>2019-06-12T13:10:37Z</time>
      </trkpt>
      <trkpt lat="44.47264" lon="5.88681">
        <ele>1157</ele>
        <time>2019-06-12T13:10:38Z</time>
      </trkpt>
      <trkpt lat="44.47263" lon="5.88689">
        <ele>1157</ele>
        <time>2019-06-12T13:10:39Z</time>
      </trkpt>
      <trkpt lat="44.47263" lon="5.88696">
        <ele>1157</ele>
        <time>2019-06-12T13:10:40Z</time>
      </trkpt>
      <trkpt lat="44.47264" lon="5.88704">
        <ele>1157</ele>
        <time>2019-06-12T13:10:41Z</time>
      </trkpt>
      <trkpt lat="44.47267" lon="5.88711">
        <ele>1157</ele>
        <time>2019-06-12T13:10:42Z</time>
      </trkpt>
      <trkpt lat="44.4727" lon="5.88717">
        <ele>1157</ele>
        <time>2019-06-12T13:10:43Z</time>
      </trkpt>
      <trkpt lat="44.47274" lon="5.88722">
        <ele>1157</ele>
        <time>2019-06-12T13:10:44Z</time>
      </trkpt>
      <trkpt lat="44.47279" lon="5.88725">
        <ele>1157</ele>
        <time>2019-06-12T13:10:45Z</time>
      </trkpt>
      <trkpt lat="44.47284" lon="5.88729">
        <ele>1157</ele>
        <time>2019-06-12T13:10:46Z</time>
      </trkpt>
      <trkpt lat="44.47288" lon="5.88732">
        <ele>1158</ele>
        <time>2019-06-12T13:10:47Z</time>
      </trkpt>
      <trkpt lat="44.47293" lon="5.88734">
        <ele>1158</ele>
        <time>2019-06-12T13:10:48Z</time>
      </trkpt>
      <trkpt lat="44.47298" lon="5.88738">
        <ele>1158</ele>
        <time>2019-06-12T13:10:49Z</time>
      </trkpt>
      <trkpt lat="44.47303" lon="5.88741">
        <ele>1158</ele>
        <time>2019-06-12T13:10:50Z</time>
      </trkpt>
      <trkpt lat="44.47307" lon="5.88745">
        <ele>1158</ele>
        <time>2019-06-12T13:10:51Z</time>
      </trkpt>
      <trkpt lat="44.47312" lon="5.88749">
        <ele>1158</ele>
        <time>2019-06-12T13:10:52Z</time>
      </trkpt>
      <trkpt lat="44.47316" lon="5.88753">
        <ele>1158</ele>
        <time>2019-06-12T13:10:53Z</time>
      </trkpt>
      <trkpt lat="44.47321" lon="5.88758">
        <ele>1158</ele>
        <time>2019-06-12T13:10:54Z</time>
      </trkpt>
      <trkpt lat="44.47324" lon="5.88764">
        <ele>1158</ele>
        <time>2019-06-12T13:10:55Z</time>
      </trkpt>
      <trkpt lat="44.47326" lon="5.8877">
        <ele>1158</ele>
        <time>2019-06-12T13:10:56Z</time>
      </trkpt>
      <trkpt lat="44.47326" lon="5.88777">
        <ele>1158</ele>
        <time>2019-06-12T13:10:57Z</time>
      </trkpt>
      <trkpt lat="44.47324" lon="5.88784">
        <ele>1158</ele>
        <time>2019-06-12T13:10:58Z</time>
      </trkpt>
      <trkpt lat="44.4732" lon="5.88789">
        <ele>1158</ele>
        <time>2019-06-12T13:10:59Z</time>
      </trkpt>
      <trkpt lat="44.47317" lon="5.88794">
        <ele>1158</ele>
        <time>2019-06-12T13:11:00Z</time>
      </trkpt>
      <trkpt lat="44.47315" lon="5.888">
        <ele>1158</ele>
        <time>2019-06-12T13:11:01Z</time>
      </trkpt>
      <trkpt lat="44.47314" lon="5.88807">
        <ele>1158</ele>
        <time>2019-06-12T13:11:02Z</time>
      </trkpt>
      <trkpt lat="44.47316" lon="5.88814">
        <ele>1158</ele>
        <time>2019-06-12T13:11:03Z</time>
      </trkpt>
      <trkpt lat="44.47319" lon="5.8882">
        <ele>1158</ele>
        <time>2019-06-12T13:11:04Z</time>
      </trkpt>
      <trkpt lat="44.47322" lon="5.88826">
        <ele>1158</ele>
        <time>2019-06-12T13:11:05Z</time>
      </trkpt>
      <trkpt lat="44.47325" lon="5.88831">
        <ele>1158</ele>
        <time>2019-06-12T13:11:06Z</time>
      </trkpt>
      <trkpt lat="44.47328" lon="5.88836">
        <ele>1158</ele>
        <time>2019-06-12T13:11:07Z</time>
      </trkpt>
      <trkpt lat="44.47331" lon="5.88841">
        <ele>1159</ele>
        <time>2019-06-12T13:11:08Z</time>
      </trkpt>
      <trkpt lat="44.47334" lon="5.88845">
        <ele>1159</ele>
        <time>2019-06-12T13:11:09Z</time>
      </trkpt>
      <trkpt lat="44.47338" lon="5.88849">
        <ele>1159</ele>
        <time>2019-06-12T13:11:10Z</time>
      </trkpt>
      <trkpt lat="44.47341" lon="5.88852">
        <ele>1160</ele>
        <time>2019-06-12T13:11:11Z</time>
      </trkpt>
      <trkpt lat="44.47345" lon="5.88855">
        <ele>1160</ele>
        <time>2019-06-12T13:11:12Z</time>
      </trkpt>
      <trkpt lat="44.47348" lon="5.88857">
        <ele>1160</ele>
        <time>2019-06-12T13:11:13Z</time>
      </trkpt>
      <trkpt lat="44.4735" lon="5.88859">
        <ele>1160</ele>
        <time>2019-06-12T13:11:14Z</time>
      </trkpt>
      <trkpt lat="44.47353" lon="5.88861">
        <ele>1161</ele>
        <time>2019-06-12T13:11:15Z</time>
      </trkpt>
      <trkpt lat="44.47354" lon="5.88861">
        <ele>1161</ele>
        <time>2019-06-12T13:11:16Z</time>
      </trkpt>
      <trkpt lat="44.47353" lon="5.8886">
        <ele>1162</ele>
        <time>2019-06-12T13:12:32Z</time>
      </trkpt>
      <trkpt lat="44.47352" lon="5.88859">
        <ele>1164</ele>
        <time>2019-06-12T13:12:36Z</time>
      </trkpt>
      <trkpt lat="44.47351" lon="5.88858">
        <ele>1166</ele>
        <time>2019-06-12T13:13:16Z</time>
      </trkpt>
      <trkpt lat="44.47352" lon="5.88858">
        <ele>1166</ele>
        <time>2019-06-12T13:13:37Z</time>
      </trkpt>
      <trkpt lat="44.47351" lon="5.88859">
        <ele>1166</ele>
        <time>2019-06-12T13:13:42Z</time>
      </trkpt>
      <trkpt lat="44.47351" lon="5.88861">
        <ele>1166</ele>
        <time>2019-06-12T13:13:52Z</time>
      </trkpt>
      <trkpt lat="44.47352" lon="5.8886">
        <ele>1166</ele>
        <time>2019-06-12T13:14:16Z</time>
      </trkpt>
      <trkpt lat="44.47352" lon="5.88862">
        <ele>1166</ele>
        <time>2019-06-12T13:14:21Z</time>
      </trkpt>
      <trkpt lat="44.4735" lon="5.88862">
        <ele>1166</ele>
        <time>2019-06-12T13:14:37Z</time>
      </trkpt>
      <trkpt lat="44.47349" lon="5.88862">
        <ele>1166</ele>
        <time>2019-06-12T13:14:57Z</time>
      </trkpt>
      <trkpt lat="44.47348" lon="5.88861">
        <ele>1166</ele>
        <time>2019-06-12T13:15:05Z</time>
      </trkpt>
      <trkpt lat="44.47347" lon="5.88862">
        <ele>1166</ele>
        <time>2019-06-12T13:15:17Z</time>
      </trkpt>
      <trkpt lat="44.47346" lon="5.88863">
        <ele>1166</ele>
        <time>2019-06-12T13:15:30Z</time>
      </trkpt>
      <trkpt lat="44.47345" lon="5.88863">
        <ele>1166</ele>
        <time>2019-06-12T13:15:41Z</time>
      </trkpt>
      <trkpt lat="44.47344" lon="5.88863">
        <ele>1166</ele>
        <time>2019-06-12T13:15:50Z</time>
      </trkpt>
      <trkpt lat="44.47343" lon="5.88862">
        <ele>1166</ele>
        <time>2019-06-12T13:16:31Z</time>
      </trkpt>
      <trkpt lat="44.47344" lon="5.88862">
        <ele>1166</ele>
        <time>2019-06-12T13:16:43Z</time>
      </trkpt>
      <trkpt lat="44.47345" lon="5.8886">
        <ele>1166</ele>
        <time>2019-06-12T13:16:57Z</time>
      </trkpt>
      <trkpt lat="44.47346" lon="5.8886">
        <ele>1166</ele>
        <time>2019-06-12T13:17:16Z</time>
      </trkpt>
      <trkpt lat="44.47347" lon="5.8886">
        <ele>1166</ele>
        <time>2019-06-12T13:18:52Z</time>
      </trkpt>
      <trkpt lat="44.47346" lon="5.88861">
        <ele>1164</ele>
        <time>2019-06-12T13:19:16Z</time>
      </trkpt>
      <trkpt lat="44.47347" lon="5.88862">
        <ele>1162</ele>
        <time>2019-06-12T13:22:49Z</time>
      </trkpt>
      <trkpt lat="44.47348" lon="5.88862">
        <ele>1162</ele>
        <time>2019-06-12T13:24:47Z</time>
      </trkpt>
      <trkpt lat="44.47347" lon="5.88862">
        <ele>1162</ele>
        <time>2019-06-12T13:26:17Z</time>
      </trkpt>
      <trkpt lat="44.47348" lon="5.8886">
        <ele>1162</ele>
        <time>2019-06-12T13:26:28Z</time>
      </trkpt>
      <trkpt lat="44.4735" lon="5.88859">
        <ele>1162</ele>
        <time>2019-06-12T13:26:34Z</time>
      </trkpt>
      <trkpt lat="44.47349" lon="5.88857">
        <ele>1163</ele>
        <time>2019-06-12T13:26:49Z</time>
      </trkpt>
      <trkpt lat="44.47351" lon="5.88858">
        <ele>1164</ele>
        <time>2019-06-12T13:26:57Z</time>
      </trkpt>
      <trkpt lat="44.47353" lon="5.88857">
        <ele>1164</ele>
        <time>2019-06-12T13:26:59Z</time>
      </trkpt>
      <trkpt lat="44.47354" lon="5.88856">
        <ele>1164</ele>
        <time>2019-06-12T13:27:00Z</time>
      </trkpt>
      <trkpt lat="44.47355" lon="5.88856">
        <ele>1164</ele>
        <time>2019-06-12T13:27:01Z</time>
      </trkpt>
      <trkpt lat="44.47356" lon="5.88856">
        <ele>1164</ele>
        <time>2019-06-12T13:27:02Z</time>
      </trkpt>
      <trkpt lat="44.47358" lon="5.88856">
        <ele>1164</ele>
        <time>2019-06-12T13:27:03Z</time>
      </trkpt>
      <trkpt lat="44.47359" lon="5.88856">
        <ele>1164</ele>
        <time>2019-06-12T13:27:04Z</time>
      </trkpt>
      <trkpt lat="44.4736" lon="5.88857">
        <ele>1164</ele>
        <time>2019-06-12T13:27:05Z</time>
      </trkpt>
      <trkpt lat="44.47362" lon="5.88856">
        <ele>1164</ele>
        <time>2019-06-12T13:27:06Z</time>
      </trkpt>
      <trkpt lat="44.47363" lon="5.88856">
        <ele>1164</ele>
        <time>2019-06-12T13:27:07Z</time>
      </trkpt>
      <trkpt lat="44.47364" lon="5.88855">
        <ele>1164</ele>
        <time>2019-06-12T13:27:08Z</time>
      </trkpt>
      <trkpt lat="44.47366" lon="5.88854">
        <ele>1164</ele>
        <time>2019-06-12T13:27:09Z</time>
      </trkpt>
      <trkpt lat="44.47367" lon="5.88854">
        <ele>1164</ele>
        <time>2019-06-12T13:27:10Z</time>
      </trkpt>
      <trkpt lat="44.47369" lon="5.88853">
        <ele>1164</ele>
        <time>2019-06-12T13:27:11Z</time>
      </trkpt>
      <trkpt lat="44.47372" lon="5.88853">
        <ele>1164</ele>
        <time>2019-06-12T13:27:12Z</time>
      </trkpt>
      <trkpt lat="44.47374" lon="5.88853">
        <ele>1164</ele>
        <time>2019-06-12T13:27:13Z</time>
      </trkpt>
      <trkpt lat="44.47377" lon="5.88854">
        <ele>1164</ele>
        <time>2019-06-12T13:27:14Z</time>
      </trkpt>
      <trkpt lat="44.4738" lon="5.88855">
        <ele>1164</ele>
        <time>2019-06-12T13:27:15Z</time>
      </trkpt>
      <trkpt lat="44.47382" lon="5.88856">
        <ele>1164</ele>
        <time>2019-06-12T13:27:16Z</time>
      </trkpt>
      <trkpt lat="44.47385" lon="5.88858">
        <ele>1164</ele>
        <time>2019-06-12T13:27:17Z</time>
      </trkpt>
      <trkpt lat="44.47387" lon="5.88859">
        <ele>1164</ele>
        <time>2019-06-12T13:27:18Z</time>
      </trkpt>
      <trkpt lat="44.4739" lon="5.88861">
        <ele>1164</ele>
        <time>2019-06-12T13:27:19Z</time>
      </trkpt>
      <trkpt lat="44.47393" lon="5.88863">
        <ele>1164</ele>
        <time>2019-06-12T13:27:20Z</time>
      </trkpt>
      <trkpt lat="44.47396" lon="5.88865">
        <ele>1164</ele>
        <time>2019-06-12T13:27:21Z</time>
      </trkpt>
      <trkpt lat="44.47399" lon="5.88867">
        <ele>1164</ele>
        <time>2019-06-12T13:27:22Z</time>
      </trkpt>
      <trkpt lat="44.47403" lon="5.88868">
        <ele>1164</ele>
        <time>2019-06-12T13:27:23Z</time>
      </trkpt>
      <trkpt lat="44.47406" lon="5.88868">
        <ele>1164</ele>
        <time>2019-06-12T13:27:24Z</time>
      </trkpt>
      <trkpt lat="44.4741" lon="5.88868">
        <ele>1164</ele>
        <time>2019-06-12T13:27:25Z</time>
      </trkpt>
      <trkpt lat="44.47414" lon="5.88868">
        <ele>1164</ele>
        <time>2019-06-12T13:27:26Z</time>
      </trkpt>
      <trkpt lat="44.47418" lon="5.88869">
        <ele>1164</ele>
        <time>2019-06-12T13:27:27Z</time>
      </trkpt>
      <trkpt lat="44.47422" lon="5.88871">
        <ele>1164</ele>
        <time>2019-06-12T13:27:28Z</time>
      </trkpt>
      <trkpt lat="44.47426" lon="5.88873">
        <ele>1164</ele>
        <time>2019-06-12T13:27:29Z</time>
      </trkpt>
      <trkpt lat="44.47429" lon="5.88876">
        <ele>1164</ele>
        <time>2019-06-12T13:27:30Z</time>
      </trkpt>
      <trkpt lat="44.47433" lon="5.8888">
        <ele>1164</ele>
        <time>2019-06-12T13:27:31Z</time>
      </trkpt>
      <trkpt lat="44.47436" lon="5.88882">
        <ele>1164</ele>
        <time>2019-06-12T13:27:32Z</time>
      </trkpt>
      <trkpt lat="44.4744" lon="5.88884">
        <ele>1164</ele>
        <time>2019-06-12T13:27:33Z</time>
      </trkpt>
      <trkpt lat="44.47444" lon="5.88886">
        <ele>1164</ele>
        <time>2019-06-12T13:27:34Z</time>
      </trkpt>
      <trkpt lat="44.47448" lon="5.88886">
        <ele>1164</ele>
        <time>2019-06-12T13:27:35Z</time>
      </trkpt>
      <trkpt lat="44.47451" lon="5.88885">
        <ele>1164</ele>
        <time>2019-06-12T13:27:36Z</time>
      </trkpt>
      <trkpt lat="44.47455" lon="5.88885">
        <ele>1164</ele>
        <time>2019-06-12T13:27:37Z</time>
      </trkpt>
      <trkpt lat="44.47459" lon="5.88885">
        <ele>1164</ele>
        <time>2019-06-12T13:27:38Z</time>
      </trkpt>
      <trkpt lat="44.47463" lon="5.88886">
        <ele>1164</ele>
        <time>2019-06-12T13:27:39Z</time>
      </trkpt>
      <trkpt lat="44.47467" lon="5.88887">
        <ele>1164</ele>
        <time>2019-06-12T13:27:40Z</time>
      </trkpt>
      <trkpt lat="44.47471" lon="5.88889">
        <ele>1164</ele>
        <time>2019-06-12T13:27:41Z</time>
      </trkpt>
      <trkpt lat="44.47475" lon="5.88891">
        <ele>1164</ele>
        <time>2019-06-12T13:27:42Z</time>
      </trkpt>
      <trkpt lat="44.47479" lon="5.88893">
        <ele>1164</ele>
        <time>2019-06-12T13:27:43Z</time>
      </trkpt>
      <trkpt lat="44.47483" lon="5.88895">
        <ele>1164</ele>
        <time>2019-06-12T13:27:44Z</time>
      </trkpt>
      <trkpt lat="44.47487" lon="5.88897">
        <ele>1164</ele>
        <time>2019-06-12T13:27:45Z</time>
      </trkpt>
      <trkpt lat="44.47491" lon="5.88899">
        <ele>1164</ele>
        <time>2019-06-12T13:27:46Z</time>
      </trkpt>
      <trkpt lat="44.47495" lon="5.88902">
        <ele>1164</ele>
        <time>2019-06-12T13:27:47Z</time>
      </trkpt>
      <trkpt lat="44.47498" lon="5.88906">
        <ele>1164</ele>
        <time>2019-06-12T13:27:48Z</time>
      </trkpt>
      <trkpt lat="44.47501" lon="5.88912">
        <ele>1164</ele>
        <time>2019-06-12T13:27:49Z</time>
      </trkpt>
      <trkpt lat="44.47504" lon="5.88917">
        <ele>1164</ele>
        <time>2019-06-12T13:27:50Z</time>
      </trkpt>
      <trkpt lat="44.47506" lon="5.88923">
        <ele>1164</ele>
        <time>2019-06-12T13:27:51Z</time>
      </trkpt>
      <trkpt lat="44.47508" lon="5.88929">
        <ele>1164</ele>
        <time>2019-06-12T13:27:52Z</time>
      </trkpt>
      <trkpt lat="44.47511" lon="5.88934">
        <ele>1164</ele>
        <time>2019-06-12T13:27:53Z</time>
      </trkpt>
      <trkpt lat="44.47514" lon="5.88939">
        <ele>1164</ele>
        <time>2019-06-12T13:27:54Z</time>
      </trkpt>
      <trkpt lat="44.47517" lon="5.88944">
        <ele>1164</ele>
        <time>2019-06-12T13:27:55Z</time>
      </trkpt>
      <trkpt lat="44.47521" lon="5.88948">
        <ele>1163</ele>
        <time>2019-06-12T13:27:56Z</time>
      </trkpt>
      <trkpt lat="44.47525" lon="5.88952">
        <ele>1163</ele>
        <time>2019-06-12T13:27:57Z</time>
      </trkpt>
      <trkpt lat="44.4753" lon="5.88954">
        <ele>1163</ele>
        <time>2019-06-12T13:27:58Z</time>
      </trkpt>
      <trkpt lat="44.47535" lon="5.88954">
        <ele>1163</ele>
        <time>2019-06-12T13:27:59Z</time>
      </trkpt>
      <trkpt lat="44.47539" lon="5.88953">
        <ele>1163</ele>
        <time>2019-06-12T13:28:00Z</time>
      </trkpt>
      <trkpt lat="44.47544" lon="5.88951">
        <ele>1163</ele>
        <time>2019-06-12T13:28:01Z</time>
      </trkpt>
      <trkpt lat="44.47548" lon="5.88948">
        <ele>1163</ele>
        <time>2019-06-12T13:28:02Z</time>
      </trkpt>
      <trkpt lat="44.47553" lon="5.88944">
        <ele>1162</ele>
        <time>2019-06-12T13:28:03Z</time>
      </trkpt>
      <trkpt lat="44.47557" lon="5.88941">
        <ele>1162</ele>
        <time>2019-06-12T13:28:04Z</time>
      </trkpt>
      <trkpt lat="44.47562" lon="5.88937">
        <ele>1162</ele>
        <time>2019-06-12T13:28:05Z</time>
      </trkpt>
      <trkpt lat="44.47567" lon="5.88934">
        <ele>1162</ele>
        <time>2019-06-12T13:28:06Z</time>
      </trkpt>
      <trkpt lat="44.47572" lon="5.88929">
        <ele>1162</ele>
        <time>2019-06-12T13:28:07Z</time>
      </trkpt>
      <trkpt lat="44.47576" lon="5.88925">
        <ele>1162</ele>
        <time>2019-06-12T13:28:08Z</time>
      </trkpt>
      <trkpt lat="44.47581" lon="5.8892">
        <ele>1161</ele>
        <time>2019-06-12T13:28:09Z</time>
      </trkpt>
      <trkpt lat="44.47586" lon="5.88916">
        <ele>1161</ele>
        <time>2019-06-12T13:28:10Z</time>
      </trkpt>
      <trkpt lat="44.47591" lon="5.88911">
        <ele>1161</ele>
        <time>2019-06-12T13:28:11Z</time>
      </trkpt>
      <trkpt lat="44.47596" lon="5.88907">
        <ele>1161</ele>
        <time>2019-06-12T13:28:12Z</time>
      </trkpt>
      <trkpt lat="44.47602" lon="5.88904">
        <ele>1161</ele>
        <time>2019-06-12T13:28:13Z</time>
      </trkpt>
      <trkpt lat="44.47608" lon="5.88904">
        <ele>1161</ele>
        <time>2019-06-12T13:28:14Z</time>
      </trkpt>
      <trkpt lat="44.47614" lon="5.88907">
        <ele>1161</ele>
        <time>2019-06-12T13:28:15Z</time>
      </trkpt>
      <trkpt lat="44.47619" lon="5.88911">
        <ele>1161</ele>
        <time>2019-06-12T13:28:16Z</time>
      </trkpt>
      <trkpt lat="44.47624" lon="5.88915">
        <ele>1161</ele>
        <time>2019-06-12T13:28:17Z</time>
      </trkpt>
      <trkpt lat="44.47628" lon="5.8892">
        <ele>1161</ele>
        <time>2019-06-12T13:28:18Z</time>
      </trkpt>
      <trkpt lat="44.47633" lon="5.88925">
        <ele>1161</ele>
        <time>2019-06-12T13:28:19Z</time>
      </trkpt>
      <trkpt lat="44.47638" lon="5.88929">
        <ele>1161</ele>
        <time>2019-06-12T13:28:20Z</time>
      </trkpt>
      <trkpt lat="44.47643" lon="5.88934">
        <ele>1161</ele>
        <time>2019-06-12T13:28:21Z</time>
      </trkpt>
      <trkpt lat="44.47647" lon="5.88938">
        <ele>1161</ele>
        <time>2019-06-12T13:28:22Z</time>
      </trkpt>
      <trkpt lat="44.47653" lon="5.88941">
        <ele>1161</ele>
        <time>2019-06-12T13:28:23Z</time>
      </trkpt>
      <trkpt lat="44.47658" lon="5.88944">
        <ele>1161</ele>
        <time>2019-06-12T13:28:24Z</time>
      </trkpt>
      <trkpt lat="44.47664" lon="5.88947">
        <ele>1161</ele>
        <time>2019-06-12T13:28:25Z</time>
      </trkpt>
      <trkpt lat="44.4767" lon="5.8895">
        <ele>1161</ele>
        <time>2019-06-12T13:28:26Z</time>
      </trkpt>
      <trkpt lat="44.47676" lon="5.88952">
        <ele>1161</ele>
        <time>2019-06-12T13:28:27Z</time>
      </trkpt>
      <trkpt lat="44.47682" lon="5.88956">
        <ele>1161</ele>
        <time>2019-06-12T13:28:28Z</time>
      </trkpt>
      <trkpt lat="44.47688" lon="5.8896">
        <ele>1161</ele>
        <time>2019-06-12T13:28:29Z</time>
      </trkpt>
      <trkpt lat="44.47694" lon="5.88963">
        <ele>1160</ele>
        <time>2019-06-12T13:28:30Z</time>
      </trkpt>
      <trkpt lat="44.47701" lon="5.88967">
        <ele>1160</ele>
        <time>2019-06-12T13:28:31Z</time>
      </trkpt>
      <trkpt lat="44.47707" lon="5.88969">
        <ele>1160</ele>
        <time>2019-06-12T13:28:32Z</time>
      </trkpt>
      <trkpt lat="44.47714" lon="5.88969">
        <ele>1160</ele>
        <time>2019-06-12T13:28:33Z</time>
      </trkpt>
      <trkpt lat="44.4772" lon="5.88967">
        <ele>1160</ele>
        <time>2019-06-12T13:28:34Z</time>
      </trkpt>
      <trkpt lat="44.47725" lon="5.88963">
        <ele>1160</ele>
        <time>2019-06-12T13:28:35Z</time>
      </trkpt>
      <trkpt lat="44.4773" lon="5.88956">
        <ele>1160</ele>
        <time>2019-06-12T13:28:36Z</time>
      </trkpt>
      <trkpt lat="44.47734" lon="5.88949">
        <ele>1160</ele>
        <time>2019-06-12T13:28:37Z</time>
      </trkpt>
      <trkpt lat="44.47736" lon="5.8894">
        <ele>1159</ele>
        <time>2019-06-12T13:28:38Z</time>
      </trkpt>
      <trkpt lat="44.47738" lon="5.88931">
        <ele>1159</ele>
        <time>2019-06-12T13:28:39Z</time>
      </trkpt>
      <trkpt lat="44.47738" lon="5.88921">
        <ele>1159</ele>
        <time>2019-06-12T13:28:40Z</time>
      </trkpt>
      <trkpt lat="44.47739" lon="5.88911">
        <ele>1158</ele>
        <time>2019-06-12T13:28:41Z</time>
      </trkpt>
      <trkpt lat="44.47739" lon="5.88902">
        <ele>1158</ele>
        <time>2019-06-12T13:28:42Z</time>
      </trkpt>
      <trkpt lat="44.47739" lon="5.88892">
        <ele>1157</ele>
        <time>2019-06-12T13:28:43Z</time>
      </trkpt>
      <trkpt lat="44.47739" lon="5.88882">
        <ele>1157</ele>
        <time>2019-06-12T13:28:44Z</time>
      </trkpt>
      <trkpt lat="44.47739" lon="5.88872">
        <ele>1157</ele>
        <time>2019-06-12T13:28:45Z</time>
      </trkpt>
      <trkpt lat="44.47739" lon="5.88863">
        <ele>1156</ele>
        <time>2019-06-12T13:28:46Z</time>
      </trkpt>
      <trkpt lat="44.47738" lon="5.88854">
        <ele>1156</ele>
        <time>2019-06-12T13:28:47Z</time>
      </trkpt>
      <trkpt lat="44.47736" lon="5.88845">
        <ele>1156</ele>
        <time>2019-06-12T13:28:48Z</time>
      </trkpt>
      <trkpt lat="44.47733" lon="5.88837">
        <ele>1155</ele>
        <time>2019-06-12T13:28:49Z</time>
      </trkpt>
      <trkpt lat="44.47729" lon="5.8883">
        <ele>1155</ele>
        <time>2019-06-12T13:28:50Z</time>
      </trkpt>
      <trkpt lat="44.47725" lon="5.88824">
        <ele>1155</ele>
        <time>2019-06-12T13:28:51Z</time>
      </trkpt>
      <trkpt lat="44.47722" lon="5.88816">
        <ele>1155</ele>
        <time>2019-06-12T13:28:52Z</time>
      </trkpt>
      <trkpt lat="44.47721" lon="5.88807">
        <ele>1154</ele>
        <time>2019-06-12T13:28:53Z</time>
      </trkpt>
      <trkpt lat="44.47721" lon="5.88798">
        <ele>1154</ele>
        <time>2019-06-12T13:28:54Z</time>
      </trkpt>
      <trkpt lat="44.47721" lon="5.88789">
        <ele>1154</ele>
        <time>2019-06-12T13:28:55Z</time>
      </trkpt>
      <trkpt lat="44.47722" lon="5.8878">
        <ele>1153</ele>
        <time>2019-06-12T13:28:56Z</time>
      </trkpt>
      <trkpt lat="44.47723" lon="5.88772">
        <ele>1153</ele>
        <time>2019-06-12T13:28:57Z</time>
      </trkpt>
      <trkpt lat="44.47725" lon="5.88764">
        <ele>1153</ele>
        <time>2019-06-12T13:28:58Z</time>
      </trkpt>
      <trkpt lat="44.47728" lon="5.88757">
        <ele>1153</ele>
        <time>2019-06-12T13:28:59Z</time>
      </trkpt>
      <trkpt lat="44.47732" lon="5.88751">
        <ele>1152</ele>
        <time>2019-06-12T13:29:00Z</time>
      </trkpt>
      <trkpt lat="44.47737" lon="5.88746">
        <ele>1152</ele>
        <time>2019-06-12T13:29:01Z</time>
      </trkpt>
      <trkpt lat="44.47743" lon="5.88743">
        <ele>1152</ele>
        <time>2019-06-12T13:29:02Z</time>
      </trkpt>
      <trkpt lat="44.47749" lon="5.88741">
        <ele>1152</ele>
        <time>2019-06-12T13:29:03Z</time>
      </trkpt>
      <trkpt lat="44.47754" lon="5.8874">
        <ele>1152</ele>
        <time>2019-06-12T13:29:04Z</time>
      </trkpt>
      <trkpt lat="44.47758" lon="5.8874">
        <ele>1152</ele>
        <time>2019-06-12T13:29:05Z</time>
      </trkpt>
      <trkpt lat="44.47763" lon="5.8874">
        <ele>1152</ele>
        <time>2019-06-12T13:29:06Z</time>
      </trkpt>
      <trkpt lat="44.47766" lon="5.8874">
        <ele>1152</ele>
        <time>2019-06-12T13:29:07Z</time>
      </trkpt>
      <trkpt lat="44.4777" lon="5.88741">
        <ele>1152</ele>
        <time>2019-06-12T13:29:08Z</time>
      </trkpt>
      <trkpt lat="44.47774" lon="5.88741">
        <ele>1152</ele>
        <time>2019-06-12T13:29:09Z</time>
      </trkpt>
      <trkpt lat="44.47777" lon="5.88742">
        <ele>1152</ele>
        <time>2019-06-12T13:29:10Z</time>
      </trkpt>
      <trkpt lat="44.4778" lon="5.88743">
        <ele>1152</ele>
        <time>2019-06-12T13:29:11Z</time>
      </trkpt>
      <trkpt lat="44.47783" lon="5.88745">
        <ele>1152</ele>
        <time>2019-06-12T13:29:12Z</time>
      </trkpt>
      <trkpt lat="44.47785" lon="5.88747">
        <ele>1152</ele>
        <time>2019-06-12T13:29:13Z</time>
      </trkpt>
      <trkpt lat="44.47788" lon="5.88749">
        <ele>1152</ele>
        <time>2019-06-12T13:29:14Z</time>
      </trkpt>
      <trkpt lat="44.4779" lon="5.88752">
        <ele>1152</ele>
        <time>2019-06-12T13:29:15Z</time>
      </trkpt>
      <trkpt lat="44.47792" lon="5.88756">
        <ele>1151</ele>
        <time>2019-06-12T13:29:16Z</time>
      </trkpt>
      <trkpt lat="44.47794" lon="5.8876">
        <ele>1151</ele>
        <time>2019-06-12T13:29:17Z</time>
      </trkpt>
      <trkpt lat="44.47795" lon="5.88764">
        <ele>1151</ele>
        <time>2019-06-12T13:29:18Z</time>
      </trkpt>
      <trkpt lat="44.47797" lon="5.88769">
        <ele>1151</ele>
        <time>2019-06-12T13:29:19Z</time>
      </trkpt>
      <trkpt lat="44.47798" lon="5.88774">
        <ele>1151</ele>
        <time>2019-06-12T13:29:20Z</time>
      </trkpt>
      <trkpt lat="44.478" lon="5.88779">
        <ele>1151</ele>
        <time>2019-06-12T13:29:21Z</time>
      </trkpt>
      <trkpt lat="44.478" lon="5.88785">
        <ele>1151</ele>
        <time>2019-06-12T13:29:22Z</time>
      </trkpt>
      <trkpt lat="44.47802" lon="5.8879">
        <ele>1151</ele>
        <time>2019-06-12T13:29:23Z</time>
      </trkpt>
      <trkpt lat="44.47803" lon="5.88796">
        <ele>1151</ele>
        <time>2019-06-12T13:29:24Z</time>
      </trkpt>
      <trkpt lat="44.47805" lon="5.88802">
        <ele>1151</ele>
        <time>2019-06-12T13:29:25Z</time>
      </trkpt>
      <trkpt lat="44.47806" lon="5.88809">
        <ele>1151</ele>
        <time>2019-06-12T13:29:26Z</time>
      </trkpt>
      <trkpt lat="44.47808" lon="5.88815">
        <ele>1151</ele>
        <time>2019-06-12T13:29:27Z</time>
      </trkpt>
      <trkpt lat="44.4781" lon="5.88822">
        <ele>1151</ele>
        <time>2019-06-12T13:29:28Z</time>
      </trkpt>
      <trkpt lat="44.47812" lon="5.88828">
        <ele>1151</ele>
        <time>2019-06-12T13:29:29Z</time>
      </trkpt>
      <trkpt lat="44.47815" lon="5.88834">
        <ele>1151</ele>
        <time>2019-06-12T13:29:30Z</time>
      </trkpt>
      <trkpt lat="44.47818" lon="5.8884">
        <ele>1150</ele>
        <time>2019-06-12T13:29:31Z</time>
      </trkpt>
      <trkpt lat="44.47823" lon="5.88845">
        <ele>1150</ele>
        <time>2019-06-12T13:29:32Z</time>
      </trkpt>
      <trkpt lat="44.47828" lon="5.88848">
        <ele>1150</ele>
        <time>2019-06-12T13:29:33Z</time>
      </trkpt>
      <trkpt lat="44.47834" lon="5.8885">
        <ele>1150</ele>
        <time>2019-06-12T13:29:34Z</time>
      </trkpt>
      <trkpt lat="44.4784" lon="5.88852">
        <ele>1149</ele>
        <time>2019-06-12T13:29:35Z</time>
      </trkpt>
      <trkpt lat="44.47847" lon="5.88853">
        <ele>1149</ele>
        <time>2019-06-12T13:29:36Z</time>
      </trkpt>
      <trkpt lat="44.47854" lon="5.88854">
        <ele>1149</ele>
        <time>2019-06-12T13:29:37Z</time>
      </trkpt>
      <trkpt lat="44.47861" lon="5.88855">
        <ele>1148</ele>
        <time>2019-06-12T13:29:38Z</time>
      </trkpt>
      <trkpt lat="44.47868" lon="5.88856">
        <ele>1148</ele>
        <time>2019-06-12T13:29:39Z</time>
      </trkpt>
      <trkpt lat="44.47876" lon="5.88857">
        <ele>1148</ele>
        <time>2019-06-12T13:29:40Z</time>
      </trkpt>
      <trkpt lat="44.47883" lon="5.88857">
        <ele>1148</ele>
        <time>2019-06-12T13:29:41Z</time>
      </trkpt>
      <trkpt lat="44.47891" lon="5.88858">
        <ele>1147</ele>
        <time>2019-06-12T13:29:42Z</time>
      </trkpt>
      <trkpt lat="44.47899" lon="5.88859">
        <ele>1147</ele>
        <time>2019-06-12T13:29:43Z</time>
      </trkpt>
      <trkpt lat="44.47907" lon="5.8886">
        <ele>1147</ele>
        <time>2019-06-12T13:29:44Z</time>
      </trkpt>
      <trkpt lat="44.47915" lon="5.88861">
        <ele>1146</ele>
        <time>2019-06-12T13:29:45Z</time>
      </trkpt>
      <trkpt lat="44.47924" lon="5.88863">
        <ele>1146</ele>
        <time>2019-06-12T13:29:46Z</time>
      </trkpt>
      <trkpt lat="44.47932" lon="5.88866">
        <ele>1146</ele>
        <time>2019-06-12T13:29:47Z</time>
      </trkpt>
      <trkpt lat="44.4794" lon="5.88871">
        <ele>1146</ele>
        <time>2019-06-12T13:29:48Z</time>
      </trkpt>
      <trkpt lat="44.47947" lon="5.88877">
        <ele>1145</ele>
        <time>2019-06-12T13:29:49Z</time>
      </trkpt>
      <trkpt lat="44.47954" lon="5.88883">
        <ele>1145</ele>
        <time>2019-06-12T13:29:50Z</time>
      </trkpt>
      <trkpt lat="44.47961" lon="5.88891">
        <ele>1145</ele>
        <time>2019-06-12T13:29:51Z</time>
      </trkpt>
      <trkpt lat="44.47968" lon="5.88897">
        <ele>1144</ele>
        <time>2019-06-12T13:29:52Z</time>
      </trkpt>
      <trkpt lat="44.47976" lon="5.88901">
        <ele>1144</ele>
        <time>2019-06-12T13:29:53Z</time>
      </trkpt>
      <trkpt lat="44.47984" lon="5.88903">
        <ele>1143</ele>
        <time>2019-06-12T13:29:54Z</time>
      </trkpt>
      <trkpt lat="44.47992" lon="5.88902">
        <ele>1143</ele>
        <time>2019-06-12T13:29:55Z</time>
      </trkpt>
      <trkpt lat="44.48" lon="5.88901">
        <ele>1143</ele>
        <time>2019-06-12T13:29:56Z</time>
      </trkpt>
      <trkpt lat="44.48007" lon="5.88899">
        <ele>1142</ele>
        <time>2019-06-12T13:29:57Z</time>
      </trkpt>
      <trkpt lat="44.48015" lon="5.88896">
        <ele>1142</ele>
        <time>2019-06-12T13:29:58Z</time>
      </trkpt>
      <trkpt lat="44.48023" lon="5.88893">
        <ele>1142</ele>
        <time>2019-06-12T13:29:59Z</time>
      </trkpt>
      <trkpt lat="44.48031" lon="5.8889">
        <ele>1141</ele>
        <time>2019-06-12T13:30:00Z</time>
      </trkpt>
      <trkpt lat="44.48038" lon="5.88886">
        <ele>1141</ele>
        <time>2019-06-12T13:30:01Z</time>
      </trkpt>
      <trkpt lat="44.48046" lon="5.88883">
        <ele>1141</ele>
        <time>2019-06-12T13:30:02Z</time>
      </trkpt>
      <trkpt lat="44.48054" lon="5.88879">
        <ele>1140</ele>
        <time>2019-06-12T13:30:03Z</time>
      </trkpt>
      <trkpt lat="44.48062" lon="5.88876">
        <ele>1140</ele>
        <time>2019-06-12T13:30:04Z</time>
      </trkpt>
      <trkpt lat="44.48071" lon="5.88872">
        <ele>1140</ele>
        <time>2019-06-12T13:30:05Z</time>
      </trkpt>
      <trkpt lat="44.48079" lon="5.88869">
        <ele>1140</ele>
        <time>2019-06-12T13:30:06Z</time>
      </trkpt>
      <trkpt lat="44.48088" lon="5.88867">
        <ele>1140</ele>
        <time>2019-06-12T13:30:07Z</time>
      </trkpt>
      <trkpt lat="44.48096" lon="5.88865">
        <ele>1139</ele>
        <time>2019-06-12T13:30:08Z</time>
      </trkpt>
      <trkpt lat="44.48105" lon="5.88864">
        <ele>1139</ele>
        <time>2019-06-12T13:30:09Z</time>
      </trkpt>
      <trkpt lat="44.48114" lon="5.88861">
        <ele>1139</ele>
        <time>2019-06-12T13:30:10Z</time>
      </trkpt>
      <trkpt lat="44.48121" lon="5.88857">
        <ele>1138</ele>
        <time>2019-06-12T13:30:11Z</time>
      </trkpt>
      <trkpt lat="44.48129" lon="5.88853">
        <ele>1138</ele>
        <time>2019-06-12T13:30:12Z</time>
      </trkpt>
      <trkpt lat="44.48137" lon="5.88848">
        <ele>1137</ele>
        <time>2019-06-12T13:30:13Z</time>
      </trkpt>
      <trkpt lat="44.48145" lon="5.88843">
        <ele>1137</ele>
        <time>2019-06-12T13:30:14Z</time>
      </trkpt>
      <trkpt lat="44.48153" lon="5.88839">
        <ele>1137</ele>
        <time>2019-06-12T13:30:15Z</time>
      </trkpt>
      <trkpt lat="44.48161" lon="5.88836">
        <ele>1136</ele>
        <time>2019-06-12T13:30:16Z</time>
      </trkpt>
      <trkpt lat="44.48168" lon="5.88834">
        <ele>1136</ele>
        <time>2019-06-12T13:30:17Z</time>
      </trkpt>
      <trkpt lat="44.48176" lon="5.88832">
        <ele>1136</ele>
        <time>2019-06-12T13:30:18Z</time>
      </trkpt>
      <trkpt lat="44.48183" lon="5.8883">
        <ele>1136</ele>
        <time>2019-06-12T13:30:19Z</time>
      </trkpt>
      <trkpt lat="44.4819" lon="5.88828">
        <ele>1135</ele>
        <time>2019-06-12T13:30:20Z</time>
      </trkpt>
      <trkpt lat="44.48197" lon="5.88828">
        <ele>1135</ele>
        <time>2019-06-12T13:30:21Z</time>
      </trkpt>
      <trkpt lat="44.48203" lon="5.88828">
        <ele>1134</ele>
        <time>2019-06-12T13:30:22Z</time>
      </trkpt>
      <trkpt lat="44.48207" lon="5.88829">
        <ele>1134</ele>
        <time>2019-06-12T13:30:23Z</time>
      </trkpt>
      <trkpt lat="44.48211" lon="5.88829">
        <ele>1133</ele>
        <time>2019-06-12T13:30:24Z</time>
      </trkpt>
      <trkpt lat="44.48215" lon="5.8883">
        <ele>1133</ele>
        <time>2019-06-12T13:30:25Z</time>
      </trkpt>
      <trkpt lat="44.48218" lon="5.88831">
        <ele>1133</ele>
        <time>2019-06-12T13:30:26Z</time>
      </trkpt>
      <trkpt lat="44.48222" lon="5.88832">
        <ele>1132</ele>
        <time>2019-06-12T13:30:27Z</time>
      </trkpt>
      <trkpt lat="44.48225" lon="5.88832">
        <ele>1132</ele>
        <time>2019-06-12T13:30:28Z</time>
      </trkpt>
      <trkpt lat="44.4823" lon="5.88833">
        <ele>1132</ele>
        <time>2019-06-12T13:30:29Z</time>
      </trkpt>
      <trkpt lat="44.48234" lon="5.88833">
        <ele>1131</ele>
        <time>2019-06-12T13:30:30Z</time>
      </trkpt>
      <trkpt lat="44.48239" lon="5.88833">
        <ele>1131</ele>
        <time>2019-06-12T13:30:31Z</time>
      </trkpt>
      <trkpt lat="44.48245" lon="5.88832">
        <ele>1130</ele>
        <time>2019-06-12T13:30:32Z</time>
      </trkpt>
      <trkpt lat="44.48251" lon="5.88831">
        <ele>1130</ele>
        <time>2019-06-12T13:30:33Z</time>
      </trkpt>
      <trkpt lat="44.48257" lon="5.8883">
        <ele>1130</ele>
        <time>2019-06-12T13:30:34Z</time>
      </trkpt>
      <trkpt lat="44.48263" lon="5.88829">
        <ele>1129</ele>
        <time>2019-06-12T13:30:35Z</time>
      </trkpt>
      <trkpt lat="44.4827" lon="5.88829">
        <ele>1129</ele>
        <time>2019-06-12T13:30:36Z</time>
      </trkpt>
      <trkpt lat="44.48277" lon="5.8883">
        <ele>1128</ele>
        <time>2019-06-12T13:30:37Z</time>
      </trkpt>
      <trkpt lat="44.48284" lon="5.88831">
        <ele>1128</ele>
        <time>2019-06-12T13:30:38Z</time>
      </trkpt>
      <trkpt lat="44.48292" lon="5.88833">
        <ele>1127</ele>
        <time>2019-06-12T13:30:39Z</time>
      </trkpt>
      <trkpt lat="44.483" lon="5.88833">
        <ele>1127</ele>
        <time>2019-06-12T13:30:40Z</time>
      </trkpt>
      <trkpt lat="44.48307" lon="5.88833">
        <ele>1126</ele>
        <time>2019-06-12T13:30:41Z</time>
      </trkpt>
      <trkpt lat="44.48315" lon="5.88832">
        <ele>1126</ele>
        <time>2019-06-12T13:30:42Z</time>
      </trkpt>
      <trkpt lat="44.48323" lon="5.88831">
        <ele>1125</ele>
        <time>2019-06-12T13:30:43Z</time>
      </trkpt>
      <trkpt lat="44.4833" lon="5.8883">
        <ele>1125</ele>
        <time>2019-06-12T13:30:44Z</time>
      </trkpt>
      <trkpt lat="44.48338" lon="5.88827">
        <ele>1125</ele>
        <time>2019-06-12T13:30:45Z</time>
      </trkpt>
      <trkpt lat="44.48345" lon="5.88824">
        <ele>1124</ele>
        <time>2019-06-12T13:30:46Z</time>
      </trkpt>
      <trkpt lat="44.48353" lon="5.8882">
        <ele>1124</ele>
        <time>2019-06-12T13:30:47Z</time>
      </trkpt>
      <trkpt lat="44.4836" lon="5.88816">
        <ele>1124</ele>
        <time>2019-06-12T13:30:48Z</time>
      </trkpt>
      <trkpt lat="44.48368" lon="5.88814">
        <ele>1123</ele>
        <time>2019-06-12T13:30:49Z</time>
      </trkpt>
      <trkpt lat="44.48376" lon="5.88811">
        <ele>1123</ele>
        <time>2019-06-12T13:30:50Z</time>
      </trkpt>
      <trkpt lat="44.48384" lon="5.88809">
        <ele>1122</ele>
        <time>2019-06-12T13:30:51Z</time>
      </trkpt>
      <trkpt lat="44.48392" lon="5.88807">
        <ele>1122</ele>
        <time>2019-06-12T13:30:52Z</time>
      </trkpt>
      <trkpt lat="44.48399" lon="5.88806">
        <ele>1121</ele>
        <time>2019-06-12T13:30:53Z</time>
      </trkpt>
      <trkpt lat="44.48407" lon="5.88805">
        <ele>1121</ele>
        <time>2019-06-12T13:30:54Z</time>
      </trkpt>
      <trkpt lat="44.48414" lon="5.88803">
        <ele>1120</ele>
        <time>2019-06-12T13:30:55Z</time>
      </trkpt>
      <trkpt lat="44.48422" lon="5.88802">
        <ele>1119</ele>
        <time>2019-06-12T13:30:56Z</time>
      </trkpt>
      <trkpt lat="44.48429" lon="5.88801">
        <ele>1119</ele>
        <time>2019-06-12T13:30:57Z</time>
      </trkpt>
      <trkpt lat="44.48436" lon="5.888">
        <ele>1118</ele>
        <time>2019-06-12T13:30:58Z</time>
      </trkpt>
      <trkpt lat="44.48443" lon="5.88802">
        <ele>1117</ele>
        <time>2019-06-12T13:30:59Z</time>
      </trkpt>
      <trkpt lat="44.48449" lon="5.88805">
        <ele>1117</ele>
        <time>2019-06-12T13:31:00Z</time>
      </trkpt>
      <trkpt lat="44.48455" lon="5.8881">
        <ele>1116</ele>
        <time>2019-06-12T13:31:01Z</time>
      </trkpt>
      <trkpt lat="44.48461" lon="5.88817">
        <ele>1115</ele>
        <time>2019-06-12T13:31:02Z</time>
      </trkpt>
      <trkpt lat="44.48466" lon="5.88824">
        <ele>1114</ele>
        <time>2019-06-12T13:31:03Z</time>
      </trkpt>
      <trkpt lat="44.48471" lon="5.88831">
        <ele>1114</ele>
        <time>2019-06-12T13:31:04Z</time>
      </trkpt>
      <trkpt lat="44.48476" lon="5.88836">
        <ele>1113</ele>
        <time>2019-06-12T13:31:05Z</time>
      </trkpt>
      <trkpt lat="44.48482" lon="5.88841">
        <ele>1112</ele>
        <time>2019-06-12T13:31:06Z</time>
      </trkpt>
      <trkpt lat="44.48488" lon="5.88846">
        <ele>1111</ele>
        <time>2019-06-12T13:31:07Z</time>
      </trkpt>
      <trkpt lat="44.48494" lon="5.88849">
        <ele>1111</ele>
        <time>2019-06-12T13:31:08Z</time>
      </trkpt>
      <trkpt lat="44.485" lon="5.88853">
        <ele>1110</ele>
        <time>2019-06-12T13:31:09Z</time>
      </trkpt>
      <trkpt lat="44.48505" lon="5.88857">
        <ele>1109</ele>
        <time>2019-06-12T13:31:10Z</time>
      </trkpt>
      <trkpt lat="44.48511" lon="5.88861">
        <ele>1109</ele>
        <time>2019-06-12T13:31:11Z</time>
      </trkpt>
      <trkpt lat="44.48518" lon="5.88865">
        <ele>1108</ele>
        <time>2019-06-12T13:31:12Z</time>
      </trkpt>
      <trkpt lat="44.48524" lon="5.88869">
        <ele>1108</ele>
        <time>2019-06-12T13:31:13Z</time>
      </trkpt>
      <trkpt lat="44.48531" lon="5.88874">
        <ele>1107</ele>
        <time>2019-06-12T13:31:14Z</time>
      </trkpt>
      <trkpt lat="44.48537" lon="5.88879">
        <ele>1107</ele>
        <time>2019-06-12T13:31:15Z</time>
      </trkpt>
      <trkpt lat="44.48543" lon="5.88884">
        <ele>1107</ele>
        <time>2019-06-12T13:31:16Z</time>
      </trkpt>
      <trkpt lat="44.48549" lon="5.8889">
        <ele>1107</ele>
        <time>2019-06-12T13:31:17Z</time>
      </trkpt>
      <trkpt lat="44.48555" lon="5.88896">
        <ele>1107</ele>
        <time>2019-06-12T13:31:18Z</time>
      </trkpt>
      <trkpt lat="44.4856" lon="5.88903">
        <ele>1107</ele>
        <time>2019-06-12T13:31:19Z</time>
      </trkpt>
      <trkpt lat="44.48566" lon="5.88909">
        <ele>1107</ele>
        <time>2019-06-12T13:31:20Z</time>
      </trkpt>
      <trkpt lat="44.48569" lon="5.88918">
        <ele>1107</ele>
        <time>2019-06-12T13:31:21Z</time>
      </trkpt>
      <trkpt lat="44.48573" lon="5.88925">
        <ele>1107</ele>
        <time>2019-06-12T13:31:22Z</time>
      </trkpt>
      <trkpt lat="44.48576" lon="5.88932">
        <ele>1107</ele>
        <time>2019-06-12T13:31:23Z</time>
      </trkpt>
      <trkpt lat="44.48578" lon="5.88939">
        <ele>1107</ele>
        <time>2019-06-12T13:31:24Z</time>
      </trkpt>
      <trkpt lat="44.48581" lon="5.88944">
        <ele>1107</ele>
        <time>2019-06-12T13:31:25Z</time>
      </trkpt>
      <trkpt lat="44.48586" lon="5.88947">
        <ele>1107</ele>
        <time>2019-06-12T13:31:26Z</time>
      </trkpt>
      <trkpt lat="44.48591" lon="5.88948">
        <ele>1107</ele>
        <time>2019-06-12T13:31:27Z</time>
      </trkpt>
      <trkpt lat="44.48597" lon="5.88946">
        <ele>1107</ele>
        <time>2019-06-12T13:31:28Z</time>
      </trkpt>
      <trkpt lat="44.48602" lon="5.88944">
        <ele>1107</ele>
        <time>2019-06-12T13:31:29Z</time>
      </trkpt>
      <trkpt lat="44.48607" lon="5.8894">
        <ele>1107</ele>
        <time>2019-06-12T13:31:30Z</time>
      </trkpt>
      <trkpt lat="44.48613" lon="5.88936">
        <ele>1106</ele>
        <time>2019-06-12T13:31:31Z</time>
      </trkpt>
      <trkpt lat="44.48618" lon="5.88934">
        <ele>1105</ele>
        <time>2019-06-12T13:31:32Z</time>
      </trkpt>
      <trkpt lat="44.48625" lon="5.88931">
        <ele>1104</ele>
        <time>2019-06-12T13:31:33Z</time>
      </trkpt>
      <trkpt lat="44.48631" lon="5.88928">
        <ele>1104</ele>
        <time>2019-06-12T13:31:34Z</time>
      </trkpt>
      <trkpt lat="44.48639" lon="5.88926">
        <ele>1103</ele>
        <time>2019-06-12T13:31:35Z</time>
      </trkpt>
      <trkpt lat="44.48647" lon="5.88923">
        <ele>1102</ele>
        <time>2019-06-12T13:31:36Z</time>
      </trkpt>
      <trkpt lat="44.48654" lon="5.88921">
        <ele>1101</ele>
        <time>2019-06-12T13:31:37Z</time>
      </trkpt>
      <trkpt lat="44.4866" lon="5.88919">
        <ele>1100</ele>
        <time>2019-06-12T13:31:38Z</time>
      </trkpt>
      <trkpt lat="44.48666" lon="5.88917">
        <ele>1099</ele>
        <time>2019-06-12T13:31:39Z</time>
      </trkpt>
      <trkpt lat="44.48671" lon="5.88916">
        <ele>1099</ele>
        <time>2019-06-12T13:31:40Z</time>
      </trkpt>
      <trkpt lat="44.48675" lon="5.88916">
        <ele>1098</ele>
        <time>2019-06-12T13:31:41Z</time>
      </trkpt>
      <trkpt lat="44.4868" lon="5.88916">
        <ele>1097</ele>
        <time>2019-06-12T13:31:42Z</time>
      </trkpt>
      <trkpt lat="44.48684" lon="5.88916">
        <ele>1096</ele>
        <time>2019-06-12T13:31:43Z</time>
      </trkpt>
      <trkpt lat="44.48689" lon="5.88918">
        <ele>1095</ele>
        <time>2019-06-12T13:31:44Z</time>
      </trkpt>
      <trkpt lat="44.48693" lon="5.8892">
        <ele>1095</ele>
        <time>2019-06-12T13:31:45Z</time>
      </trkpt>
      <trkpt lat="44.48698" lon="5.88922">
        <ele>1094</ele>
        <time>2019-06-12T13:31:46Z</time>
      </trkpt>
      <trkpt lat="44.48702" lon="5.88924">
        <ele>1093</ele>
        <time>2019-06-12T13:31:47Z</time>
      </trkpt>
      <trkpt lat="44.48708" lon="5.88926">
        <ele>1093</ele>
        <time>2019-06-12T13:31:48Z</time>
      </trkpt>
      <trkpt lat="44.48713" lon="5.88929">
        <ele>1092</ele>
        <time>2019-06-12T13:31:49Z</time>
      </trkpt>
      <trkpt lat="44.48719" lon="5.88931">
        <ele>1091</ele>
        <time>2019-06-12T13:31:50Z</time>
      </trkpt>
      <trkpt lat="44.48725" lon="5.88934">
        <ele>1091</ele>
        <time>2019-06-12T13:31:51Z</time>
      </trkpt>
      <trkpt lat="44.4873" lon="5.88938">
        <ele>1090</ele>
        <time>2019-06-12T13:31:52Z</time>
      </trkpt>
      <trkpt lat="44.48735" lon="5.88943">
        <ele>1090</ele>
        <time>2019-06-12T13:31:53Z</time>
      </trkpt>
      <trkpt lat="44.4874" lon="5.88948">
        <ele>1089</ele>
        <time>2019-06-12T13:31:54Z</time>
      </trkpt>
      <trkpt lat="44.48745" lon="5.88953">
        <ele>1089</ele>
        <time>2019-06-12T13:31:55Z</time>
      </trkpt>
      <trkpt lat="44.4875" lon="5.8896">
        <ele>1088</ele>
        <time>2019-06-12T13:31:56Z</time>
      </trkpt>
      <trkpt lat="44.48755" lon="5.88966">
        <ele>1088</ele>
        <time>2019-06-12T13:31:57Z</time>
      </trkpt>
      <trkpt lat="44.48759" lon="5.88974">
        <ele>1087</ele>
        <time>2019-06-12T13:31:58Z</time>
      </trkpt>
      <trkpt lat="44.48764" lon="5.88981">
        <ele>1087</ele>
        <time>2019-06-12T13:31:59Z</time>
      </trkpt>
      <trkpt lat="44.48769" lon="5.88987">
        <ele>1087</ele>
        <time>2019-06-12T13:32:00Z</time>
      </trkpt>
      <trkpt lat="44.48775" lon="5.88991">
        <ele>1087</ele>
        <time>2019-06-12T13:32:01Z</time>
      </trkpt>
      <trkpt lat="44.48782" lon="5.88993">
        <ele>1087</ele>
        <time>2019-06-12T13:32:02Z</time>
      </trkpt>
      <trkpt lat="44.48788" lon="5.88994">
        <ele>1087</ele>
        <time>2019-06-12T13:32:03Z</time>
      </trkpt>
      <trkpt lat="44.48795" lon="5.88995">
        <ele>1087</ele>
        <time>2019-06-12T13:32:04Z</time>
      </trkpt>
      <trkpt lat="44.48801" lon="5.88995">
        <ele>1087</ele>
        <time>2019-06-12T13:32:05Z</time>
      </trkpt>
      <trkpt lat="44.48807" lon="5.88997">
        <ele>1087</ele>
        <time>2019-06-12T13:32:06Z</time>
      </trkpt>
      <trkpt lat="44.48814" lon="5.89">
        <ele>1087</ele>
        <time>2019-06-12T13:32:07Z</time>
      </trkpt>
      <trkpt lat="44.48819" lon="5.89004">
        <ele>1087</ele>
        <time>2019-06-12T13:32:08Z</time>
      </trkpt>
      <trkpt lat="44.48826" lon="5.89006">
        <ele>1087</ele>
        <time>2019-06-12T13:32:09Z</time>
      </trkpt>
      <trkpt lat="44.48833" lon="5.89008">
        <ele>1087</ele>
        <time>2019-06-12T13:32:10Z</time>
      </trkpt>
      <trkpt lat="44.48839" lon="5.89011">
        <ele>1087</ele>
        <time>2019-06-12T13:32:11Z</time>
      </trkpt>
      <trkpt lat="44.48846" lon="5.89015">
        <ele>1087</ele>
        <time>2019-06-12T13:32:12Z</time>
      </trkpt>
      <trkpt lat="44.48851" lon="5.89021">
        <ele>1087</ele>
        <time>2019-06-12T13:32:13Z</time>
      </trkpt>
      <trkpt lat="44.48855" lon="5.89028">
        <ele>1086</ele>
        <time>2019-06-12T13:32:14Z</time>
      </trkpt>
      <trkpt lat="44.48859" lon="5.89035">
        <ele>1085</ele>
        <time>2019-06-12T13:32:15Z</time>
      </trkpt>
      <trkpt lat="44.48863" lon="5.89043">
        <ele>1084</ele>
        <time>2019-06-12T13:32:16Z</time>
      </trkpt>
      <trkpt lat="44.48866" lon="5.89051">
        <ele>1083</ele>
        <time>2019-06-12T13:32:17Z</time>
      </trkpt>
      <trkpt lat="44.48869" lon="5.89058">
        <ele>1082</ele>
        <time>2019-06-12T13:32:18Z</time>
      </trkpt>
      <trkpt lat="44.48873" lon="5.89064">
        <ele>1081</ele>
        <time>2019-06-12T13:32:19Z</time>
      </trkpt>
      <trkpt lat="44.48878" lon="5.89068">
        <ele>1080</ele>
        <time>2019-06-12T13:32:20Z</time>
      </trkpt>
      <trkpt lat="44.48883" lon="5.8907">
        <ele>1079</ele>
        <time>2019-06-12T13:32:21Z</time>
      </trkpt>
      <trkpt lat="44.48889" lon="5.89069">
        <ele>1078</ele>
        <time>2019-06-12T13:32:22Z</time>
      </trkpt>
      <trkpt lat="44.48894" lon="5.89068">
        <ele>1076</ele>
        <time>2019-06-12T13:32:23Z</time>
      </trkpt>
      <trkpt lat="44.48901" lon="5.89064">
        <ele>1075</ele>
        <time>2019-06-12T13:32:24Z</time>
      </trkpt>
      <trkpt lat="44.48906" lon="5.89061">
        <ele>1074</ele>
        <time>2019-06-12T13:32:25Z</time>
      </trkpt>
      <trkpt lat="44.48911" lon="5.89058">
        <ele>1073</ele>
        <time>2019-06-12T13:32:26Z</time>
      </trkpt>
      <trkpt lat="44.48917" lon="5.89056">
        <ele>1072</ele>
        <time>2019-06-12T13:32:27Z</time>
      </trkpt>
      <trkpt lat="44.48923" lon="5.89054">
        <ele>1071</ele>
        <time>2019-06-12T13:32:28Z</time>
      </trkpt>
      <trkpt lat="44.48928" lon="5.89051">
        <ele>1070</ele>
        <time>2019-06-12T13:32:29Z</time>
      </trkpt>
      <trkpt lat="44.48934" lon="5.89047">
        <ele>1069</ele>
        <time>2019-06-12T13:32:30Z</time>
      </trkpt>
      <trkpt lat="44.48939" lon="5.89043">
        <ele>1069</ele>
        <time>2019-06-12T13:32:31Z</time>
      </trkpt>
      <trkpt lat="44.48945" lon="5.89039">
        <ele>1068</ele>
        <time>2019-06-12T13:32:32Z</time>
      </trkpt>
      <trkpt lat="44.4895" lon="5.89036">
        <ele>1068</ele>
        <time>2019-06-12T13:32:33Z</time>
      </trkpt>
      <trkpt lat="44.48954" lon="5.89035">
        <ele>1067</ele>
        <time>2019-06-12T13:32:34Z</time>
      </trkpt>
      <trkpt lat="44.48958" lon="5.89036">
        <ele>1067</ele>
        <time>2019-06-12T13:32:35Z</time>
      </trkpt>
      <trkpt lat="44.48961" lon="5.89039">
        <ele>1067</ele>
        <time>2019-06-12T13:32:36Z</time>
      </trkpt>
      <trkpt lat="44.48963" lon="5.89045">
        <ele>1066</ele>
        <time>2019-06-12T13:32:37Z</time>
      </trkpt>
      <trkpt lat="44.48962" lon="5.89052">
        <ele>1066</ele>
        <time>2019-06-12T13:32:38Z</time>
      </trkpt>
      <trkpt lat="44.48959" lon="5.89058">
        <ele>1066</ele>
        <time>2019-06-12T13:32:39Z</time>
      </trkpt>
      <trkpt lat="44.48955" lon="5.89063">
        <ele>1066</ele>
        <time>2019-06-12T13:32:40Z</time>
      </trkpt>
      <trkpt lat="44.48951" lon="5.89069">
        <ele>1065</ele>
        <time>2019-06-12T13:32:41Z</time>
      </trkpt>
      <trkpt lat="44.48948" lon="5.89075">
        <ele>1065</ele>
        <time>2019-06-12T13:32:42Z</time>
      </trkpt>
      <trkpt lat="44.48944" lon="5.89081">
        <ele>1065</ele>
        <time>2019-06-12T13:32:43Z</time>
      </trkpt>
      <trkpt lat="44.48941" lon="5.89088">
        <ele>1064</ele>
        <time>2019-06-12T13:32:44Z</time>
      </trkpt>
      <trkpt lat="44.48938" lon="5.89096">
        <ele>1064</ele>
        <time>2019-06-12T13:32:45Z</time>
      </trkpt>
      <trkpt lat="44.48935" lon="5.89104">
        <ele>1064</ele>
        <time>2019-06-12T13:32:46Z</time>
      </trkpt>
      <trkpt lat="44.48932" lon="5.89111">
        <ele>1064</ele>
        <time>2019-06-12T13:32:47Z</time>
      </trkpt>
      <trkpt lat="44.48928" lon="5.89118">
        <ele>1064</ele>
        <time>2019-06-12T13:32:48Z</time>
      </trkpt>
      <trkpt lat="44.48923" lon="5.89124">
        <ele>1064</ele>
        <time>2019-06-12T13:32:49Z</time>
      </trkpt>
      <trkpt lat="44.48918" lon="5.8913">
        <ele>1064</ele>
        <time>2019-06-12T13:32:50Z</time>
      </trkpt>
      <trkpt lat="44.48914" lon="5.89136">
        <ele>1064</ele>
        <time>2019-06-12T13:32:51Z</time>
      </trkpt>
      <trkpt lat="44.4891" lon="5.89143">
        <ele>1064</ele>
        <time>2019-06-12T13:32:52Z</time>
      </trkpt>
      <trkpt lat="44.48907" lon="5.89151">
        <ele>1064</ele>
        <time>2019-06-12T13:32:53Z</time>
      </trkpt>
      <trkpt lat="44.48906" lon="5.89159">
        <ele>1064</ele>
        <time>2019-06-12T13:32:54Z</time>
      </trkpt>
      <trkpt lat="44.48906" lon="5.89169">
        <ele>1063</ele>
        <time>2019-06-12T13:32:55Z</time>
      </trkpt>
      <trkpt lat="44.48907" lon="5.89177">
        <ele>1063</ele>
        <time>2019-06-12T13:32:56Z</time>
      </trkpt>
      <trkpt lat="44.4891" lon="5.89186">
        <ele>1063</ele>
        <time>2019-06-12T13:32:57Z</time>
      </trkpt>
      <trkpt lat="44.48913" lon="5.89194">
        <ele>1063</ele>
        <time>2019-06-12T13:32:58Z</time>
      </trkpt>
      <trkpt lat="44.48917" lon="5.89203">
        <ele>1062</ele>
        <time>2019-06-12T13:32:59Z</time>
      </trkpt>
      <trkpt lat="44.4892" lon="5.89211">
        <ele>1062</ele>
        <time>2019-06-12T13:33:00Z</time>
      </trkpt>
      <trkpt lat="44.48925" lon="5.8922">
        <ele>1061</ele>
        <time>2019-06-12T13:33:01Z</time>
      </trkpt>
      <trkpt lat="44.4893" lon="5.89227">
        <ele>1061</ele>
        <time>2019-06-12T13:33:02Z</time>
      </trkpt>
      <trkpt lat="44.48935" lon="5.89234">
        <ele>1060</ele>
        <time>2019-06-12T13:33:03Z</time>
      </trkpt>
      <trkpt lat="44.4894" lon="5.89241">
        <ele>1060</ele>
        <time>2019-06-12T13:33:04Z</time>
      </trkpt>
      <trkpt lat="44.48944" lon="5.89249">
        <ele>1059</ele>
        <time>2019-06-12T13:33:05Z</time>
      </trkpt>
      <trkpt lat="44.48947" lon="5.89258">
        <ele>1059</ele>
        <time>2019-06-12T13:33:06Z</time>
      </trkpt>
      <trkpt lat="44.48949" lon="5.89267">
        <ele>1058</ele>
        <time>2019-06-12T13:33:07Z</time>
      </trkpt>
      <trkpt lat="44.4895" lon="5.89278">
        <ele>1057</ele>
        <time>2019-06-12T13:33:08Z</time>
      </trkpt>
      <trkpt lat="44.48951" lon="5.89288">
        <ele>1057</ele>
        <time>2019-06-12T13:33:09Z</time>
      </trkpt>
      <trkpt lat="44.48952" lon="5.89299">
        <ele>1056</ele>
        <time>2019-06-12T13:33:10Z</time>
      </trkpt>
      <trkpt lat="44.48954" lon="5.89311">
        <ele>1056</ele>
        <time>2019-06-12T13:33:11Z</time>
      </trkpt>
      <trkpt lat="44.48957" lon="5.89322">
        <ele>1055</ele>
        <time>2019-06-12T13:33:12Z</time>
      </trkpt>
      <trkpt lat="44.4896" lon="5.89332">
        <ele>1055</ele>
        <time>2019-06-12T13:33:13Z</time>
      </trkpt>
      <trkpt lat="44.48963" lon="5.89341">
        <ele>1054</ele>
        <time>2019-06-12T13:33:14Z</time>
      </trkpt>
      <trkpt lat="44.48967" lon="5.89347">
        <ele>1053</ele>
        <time>2019-06-12T13:33:15Z</time>
      </trkpt>
      <trkpt lat="44.48971" lon="5.89352">
        <ele>1053</ele>
        <time>2019-06-12T13:33:16Z</time>
      </trkpt>
      <trkpt lat="44.48977" lon="5.89353">
        <ele>1053</ele>
        <time>2019-06-12T13:33:17Z</time>
      </trkpt>
      <trkpt lat="44.48984" lon="5.89352">
        <ele>1053</ele>
        <time>2019-06-12T13:33:18Z</time>
      </trkpt>
      <trkpt lat="44.48992" lon="5.8935">
        <ele>1053</ele>
        <time>2019-06-12T13:33:19Z</time>
      </trkpt>
      <trkpt lat="44.48999" lon="5.89349">
        <ele>1053</ele>
        <time>2019-06-12T13:33:20Z</time>
      </trkpt>
      <trkpt lat="44.49007" lon="5.8935">
        <ele>1053</ele>
        <time>2019-06-12T13:33:21Z</time>
      </trkpt>
      <trkpt lat="44.49015" lon="5.89351">
        <ele>1053</ele>
        <time>2019-06-12T13:33:22Z</time>
      </trkpt>
      <trkpt lat="44.49022" lon="5.89354">
        <ele>1053</ele>
        <time>2019-06-12T13:33:23Z</time>
      </trkpt>
      <trkpt lat="44.4903" lon="5.89356">
        <ele>1053</ele>
        <time>2019-06-12T13:33:24Z</time>
      </trkpt>
      <trkpt lat="44.49038" lon="5.89358">
        <ele>1053</ele>
        <time>2019-06-12T13:33:25Z</time>
      </trkpt>
      <trkpt lat="44.49046" lon="5.8936">
        <ele>1053</ele>
        <time>2019-06-12T13:33:26Z</time>
      </trkpt>
      <trkpt lat="44.49053" lon="5.89364">
        <ele>1053</ele>
        <time>2019-06-12T13:33:27Z</time>
      </trkpt>
      <trkpt lat="44.4906" lon="5.89368">
        <ele>1053</ele>
        <time>2019-06-12T13:33:28Z</time>
      </trkpt>
      <trkpt lat="44.49066" lon="5.89373">
        <ele>1053</ele>
        <time>2019-06-12T13:33:29Z</time>
      </trkpt>
      <trkpt lat="44.49071" lon="5.8938">
        <ele>1053</ele>
        <time>2019-06-12T13:33:30Z</time>
      </trkpt>
      <trkpt lat="44.49075" lon="5.89388">
        <ele>1053</ele>
        <time>2019-06-12T13:33:31Z</time>
      </trkpt>
      <trkpt lat="44.49079" lon="5.89396">
        <ele>1053</ele>
        <time>2019-06-12T13:33:32Z</time>
      </trkpt>
      <trkpt lat="44.49083" lon="5.89404">
        <ele>1053</ele>
        <time>2019-06-12T13:33:33Z</time>
      </trkpt>
      <trkpt lat="44.49088" lon="5.89412">
        <ele>1053</ele>
        <time>2019-06-12T13:33:34Z</time>
      </trkpt>
      <trkpt lat="44.4909" lon="5.89422">
        <ele>1053</ele>
        <time>2019-06-12T13:33:35Z</time>
      </trkpt>
      <trkpt lat="44.49092" lon="5.89432">
        <ele>1053</ele>
        <time>2019-06-12T13:33:36Z</time>
      </trkpt>
      <trkpt lat="44.49094" lon="5.89442">
        <ele>1052</ele>
        <time>2019-06-12T13:33:37Z</time>
      </trkpt>
      <trkpt lat="44.49096" lon="5.89452">
        <ele>1051</ele>
        <time>2019-06-12T13:33:38Z</time>
      </trkpt>
      <trkpt lat="44.49098" lon="5.89462">
        <ele>1050</ele>
        <time>2019-06-12T13:33:39Z</time>
      </trkpt>
      <trkpt lat="44.49101" lon="5.8947">
        <ele>1049</ele>
        <time>2019-06-12T13:33:40Z</time>
      </trkpt>
      <trkpt lat="44.49105" lon="5.89478">
        <ele>1049</ele>
        <time>2019-06-12T13:33:41Z</time>
      </trkpt>
      <trkpt lat="44.4911" lon="5.89484">
        <ele>1048</ele>
        <time>2019-06-12T13:33:42Z</time>
      </trkpt>
      <trkpt lat="44.49116" lon="5.89488">
        <ele>1047</ele>
        <time>2019-06-12T13:33:43Z</time>
      </trkpt>
      <trkpt lat="44.49121" lon="5.89491">
        <ele>1046</ele>
        <time>2019-06-12T13:33:44Z</time>
      </trkpt>
      <trkpt lat="44.49127" lon="5.89492">
        <ele>1045</ele>
        <time>2019-06-12T13:33:45Z</time>
      </trkpt>
      <trkpt lat="44.49134" lon="5.89492">
        <ele>1044</ele>
        <time>2019-06-12T13:33:46Z</time>
      </trkpt>
      <trkpt lat="44.49141" lon="5.89492">
        <ele>1043</ele>
        <time>2019-06-12T13:33:47Z</time>
      </trkpt>
      <trkpt lat="44.49148" lon="5.89495">
        <ele>1042</ele>
        <time>2019-06-12T13:33:48Z</time>
      </trkpt>
      <trkpt lat="44.49156" lon="5.89499">
        <ele>1041</ele>
        <time>2019-06-12T13:33:49Z</time>
      </trkpt>
      <trkpt lat="44.49163" lon="5.89503">
        <ele>1040</ele>
        <time>2019-06-12T13:33:50Z</time>
      </trkpt>
      <trkpt lat="44.4917" lon="5.89509">
        <ele>1039</ele>
        <time>2019-06-12T13:33:51Z</time>
      </trkpt>
      <trkpt lat="44.49175" lon="5.89515">
        <ele>1038</ele>
        <time>2019-06-12T13:33:52Z</time>
      </trkpt>
      <trkpt lat="44.49181" lon="5.8952">
        <ele>1037</ele>
        <time>2019-06-12T13:33:53Z</time>
      </trkpt>
      <trkpt lat="44.49187" lon="5.89523">
        <ele>1036</ele>
        <time>2019-06-12T13:33:54Z</time>
      </trkpt>
      <trkpt lat="44.49194" lon="5.89524">
        <ele>1035</ele>
        <time>2019-06-12T13:33:55Z</time>
      </trkpt>
      <trkpt lat="44.492" lon="5.89526">
        <ele>1034</ele>
        <time>2019-06-12T13:33:56Z</time>
      </trkpt>
      <trkpt lat="44.49205" lon="5.89529">
        <ele>1033</ele>
        <time>2019-06-12T13:33:57Z</time>
      </trkpt>
      <trkpt lat="44.4921" lon="5.89534">
        <ele>1032</ele>
        <time>2019-06-12T13:33:58Z</time>
      </trkpt>
      <trkpt lat="44.49213" lon="5.89541">
        <ele>1031</ele>
        <time>2019-06-12T13:33:59Z</time>
      </trkpt>
      <trkpt lat="44.49215" lon="5.89549">
        <ele>1031</ele>
        <time>2019-06-12T13:34:00Z</time>
      </trkpt>
      <trkpt lat="44.49215" lon="5.89558">
        <ele>1030</ele>
        <time>2019-06-12T13:34:01Z</time>
      </trkpt>
      <trkpt lat="44.49214" lon="5.89567">
        <ele>1029</ele>
        <time>2019-06-12T13:34:02Z</time>
      </trkpt>
      <trkpt lat="44.49215" lon="5.89576">
        <ele>1029</ele>
        <time>2019-06-12T13:34:03Z</time>
      </trkpt>
      <trkpt lat="44.49216" lon="5.89585">
        <ele>1028</ele>
        <time>2019-06-12T13:34:04Z</time>
      </trkpt>
      <trkpt lat="44.4922" lon="5.89593">
        <ele>1027</ele>
        <time>2019-06-12T13:34:05Z</time>
      </trkpt>
      <trkpt lat="44.49224" lon="5.89602">
        <ele>1026</ele>
        <time>2019-06-12T13:34:06Z</time>
      </trkpt>
      <trkpt lat="44.49229" lon="5.89608">
        <ele>1026</ele>
        <time>2019-06-12T13:34:07Z</time>
      </trkpt>
      <trkpt lat="44.49235" lon="5.89615">
        <ele>1026</ele>
        <time>2019-06-12T13:34:08Z</time>
      </trkpt>
      <trkpt lat="44.4924" lon="5.89621">
        <ele>1026</ele>
        <time>2019-06-12T13:34:09Z</time>
      </trkpt>
      <trkpt lat="44.49245" lon="5.89628">
        <ele>1026</ele>
        <time>2019-06-12T13:34:10Z</time>
      </trkpt>
      <trkpt lat="44.49251" lon="5.89632">
        <ele>1026</ele>
        <time>2019-06-12T13:34:11Z</time>
      </trkpt>
      <trkpt lat="44.49257" lon="5.89635">
        <ele>1026</ele>
        <time>2019-06-12T13:34:12Z</time>
      </trkpt>
      <trkpt lat="44.49263" lon="5.89639">
        <ele>1026</ele>
        <time>2019-06-12T13:34:13Z</time>
      </trkpt>
      <trkpt lat="44.49269" lon="5.89644">
        <ele>1026</ele>
        <time>2019-06-12T13:34:14Z</time>
      </trkpt>
      <trkpt lat="44.49275" lon="5.89651">
        <ele>1025</ele>
        <time>2019-06-12T13:34:15Z</time>
      </trkpt>
      <trkpt lat="44.4928" lon="5.89658">
        <ele>1025</ele>
        <time>2019-06-12T13:34:16Z</time>
      </trkpt>
      <trkpt lat="44.49284" lon="5.89665">
        <ele>1025</ele>
        <time>2019-06-12T13:34:17Z</time>
      </trkpt>
      <trkpt lat="44.49289" lon="5.89673">
        <ele>1024</ele>
        <time>2019-06-12T13:34:18Z</time>
      </trkpt>
      <trkpt lat="44.49293" lon="5.89682">
        <ele>1024</ele>
        <time>2019-06-12T13:34:19Z</time>
      </trkpt>
      <trkpt lat="44.49297" lon="5.89691">
        <ele>1024</ele>
        <time>2019-06-12T13:34:20Z</time>
      </trkpt>
      <trkpt lat="44.493" lon="5.897">
        <ele>1024</ele>
        <time>2019-06-12T13:34:21Z</time>
      </trkpt>
      <trkpt lat="44.49304" lon="5.89708">
        <ele>1023</ele>
        <time>2019-06-12T13:34:22Z</time>
      </trkpt>
      <trkpt lat="44.49308" lon="5.89715">
        <ele>1023</ele>
        <time>2019-06-12T13:34:23Z</time>
      </trkpt>
      <trkpt lat="44.49313" lon="5.89722">
        <ele>1023</ele>
        <time>2019-06-12T13:34:24Z</time>
      </trkpt>
      <trkpt lat="44.49318" lon="5.89729">
        <ele>1023</ele>
        <time>2019-06-12T13:34:25Z</time>
      </trkpt>
      <trkpt lat="44.49324" lon="5.89736">
        <ele>1023</ele>
        <time>2019-06-12T13:34:26Z</time>
      </trkpt>
      <trkpt lat="44.4933" lon="5.89743">
        <ele>1023</ele>
        <time>2019-06-12T13:34:27Z</time>
      </trkpt>
      <trkpt lat="44.49335" lon="5.8975">
        <ele>1023</ele>
        <time>2019-06-12T13:34:28Z</time>
      </trkpt>
      <trkpt lat="44.4934" lon="5.89757">
        <ele>1023</ele>
        <time>2019-06-12T13:34:29Z</time>
      </trkpt>
      <trkpt lat="44.49344" lon="5.89762">
        <ele>1023</ele>
        <time>2019-06-12T13:34:30Z</time>
      </trkpt>
      <trkpt lat="44.49348" lon="5.89765">
        <ele>1023</ele>
        <time>2019-06-12T13:34:31Z</time>
      </trkpt>
      <trkpt lat="44.49353" lon="5.89767">
        <ele>1023</ele>
        <time>2019-06-12T13:34:32Z</time>
      </trkpt>
      <trkpt lat="44.49357" lon="5.89768">
        <ele>1023</ele>
        <time>2019-06-12T13:34:33Z</time>
      </trkpt>
      <trkpt lat="44.49362" lon="5.89769">
        <ele>1023</ele>
        <time>2019-06-12T13:34:34Z</time>
      </trkpt>
      <trkpt lat="44.49367" lon="5.8977">
        <ele>1023</ele>
        <time>2019-06-12T13:34:35Z</time>
      </trkpt>
      <trkpt lat="44.49372" lon="5.89772">
        <ele>1023</ele>
        <time>2019-06-12T13:34:36Z</time>
      </trkpt>
      <trkpt lat="44.49378" lon="5.89773">
        <ele>1023</ele>
        <time>2019-06-12T13:34:37Z</time>
      </trkpt>
      <trkpt lat="44.49384" lon="5.89774">
        <ele>1023</ele>
        <time>2019-06-12T13:34:38Z</time>
      </trkpt>
      <trkpt lat="44.49391" lon="5.89773">
        <ele>1023</ele>
        <time>2019-06-12T13:34:39Z</time>
      </trkpt>
      <trkpt lat="44.49399" lon="5.89772">
        <ele>1023</ele>
        <time>2019-06-12T13:34:40Z</time>
      </trkpt>
      <trkpt lat="44.49406" lon="5.89772">
        <ele>1023</ele>
        <time>2019-06-12T13:34:41Z</time>
      </trkpt>
      <trkpt lat="44.49413" lon="5.89772">
        <ele>1023</ele>
        <time>2019-06-12T13:34:42Z</time>
      </trkpt>
      <trkpt lat="44.4942" lon="5.8977">
        <ele>1023</ele>
        <time>2019-06-12T13:34:43Z</time>
      </trkpt>
      <trkpt lat="44.49428" lon="5.89769">
        <ele>1022</ele>
        <time>2019-06-12T13:34:44Z</time>
      </trkpt>
      <trkpt lat="44.49435" lon="5.89768">
        <ele>1021</ele>
        <time>2019-06-12T13:34:45Z</time>
      </trkpt>
      <trkpt lat="44.49442" lon="5.89767">
        <ele>1020</ele>
        <time>2019-06-12T13:34:46Z</time>
      </trkpt>
      <trkpt lat="44.49449" lon="5.89764">
        <ele>1019</ele>
        <time>2019-06-12T13:34:47Z</time>
      </trkpt>
      <trkpt lat="44.49455" lon="5.89759">
        <ele>1018</ele>
        <time>2019-06-12T13:34:48Z</time>
      </trkpt>
      <trkpt lat="44.49461" lon="5.89753">
        <ele>1017</ele>
        <time>2019-06-12T13:34:49Z</time>
      </trkpt>
      <trkpt lat="44.49468" lon="5.89746">
        <ele>1016</ele>
        <time>2019-06-12T13:34:50Z</time>
      </trkpt>
      <trkpt lat="44.49474" lon="5.8974">
        <ele>1015</ele>
        <time>2019-06-12T13:34:51Z</time>
      </trkpt>
      <trkpt lat="44.4948" lon="5.89733">
        <ele>1014</ele>
        <time>2019-06-12T13:34:52Z</time>
      </trkpt>
      <trkpt lat="44.49485" lon="5.89726">
        <ele>1013</ele>
        <time>2019-06-12T13:34:53Z</time>
      </trkpt>
      <trkpt lat="44.4949" lon="5.89718">
        <ele>1012</ele>
        <time>2019-06-12T13:34:54Z</time>
      </trkpt>
      <trkpt lat="44.49496" lon="5.8971">
        <ele>1011</ele>
        <time>2019-06-12T13:34:55Z</time>
      </trkpt>
      <trkpt lat="44.49501" lon="5.89701">
        <ele>1010</ele>
        <time>2019-06-12T13:34:56Z</time>
      </trkpt>
      <trkpt lat="44.49507" lon="5.89693">
        <ele>1009</ele>
        <time>2019-06-12T13:34:57Z</time>
      </trkpt>
      <trkpt lat="44.49513" lon="5.89686">
        <ele>1008</ele>
        <time>2019-06-12T13:34:58Z</time>
      </trkpt>
      <trkpt lat="44.4952" lon="5.89679">
        <ele>1007</ele>
        <time>2019-06-12T13:34:59Z</time>
      </trkpt>
      <trkpt lat="44.49528" lon="5.89674">
        <ele>1006</ele>
        <time>2019-06-12T13:35:00Z</time>
      </trkpt>
      <trkpt lat="44.49535" lon="5.89668">
        <ele>1005</ele>
        <time>2019-06-12T13:35:01Z</time>
      </trkpt>
      <trkpt lat="44.49543" lon="5.89663">
        <ele>1005</ele>
        <time>2019-06-12T13:35:02Z</time>
      </trkpt>
      <trkpt lat="44.4955" lon="5.89656">
        <ele>1004</ele>
        <time>2019-06-12T13:35:03Z</time>
      </trkpt>
      <trkpt lat="44.49557" lon="5.89649">
        <ele>1003</ele>
        <time>2019-06-12T13:35:04Z</time>
      </trkpt>
      <trkpt lat="44.49565" lon="5.89642">
        <ele>1002</ele>
        <time>2019-06-12T13:35:05Z</time>
      </trkpt>
      <trkpt lat="44.49572" lon="5.89635">
        <ele>1001</ele>
        <time>2019-06-12T13:35:06Z</time>
      </trkpt>
      <trkpt lat="44.49579" lon="5.89629">
        <ele>1000</ele>
        <time>2019-06-12T13:35:07Z</time>
      </trkpt>
      <trkpt lat="44.49586" lon="5.89624">
        <ele>999</ele>
        <time>2019-06-12T13:35:08Z</time>
      </trkpt>
      <trkpt lat="44.49594" lon="5.89618">
        <ele>998</ele>
        <time>2019-06-12T13:35:09Z</time>
      </trkpt>
      <trkpt lat="44.49602" lon="5.89612">
        <ele>998</ele>
        <time>2019-06-12T13:35:10Z</time>
      </trkpt>
      <trkpt lat="44.49609" lon="5.89606">
        <ele>997</ele>
        <time>2019-06-12T13:35:11Z</time>
      </trkpt>
      <trkpt lat="44.49615" lon="5.89598">
        <ele>996</ele>
        <time>2019-06-12T13:35:12Z</time>
      </trkpt>
      <trkpt lat="44.4962" lon="5.89591">
        <ele>995</ele>
        <time>2019-06-12T13:35:13Z</time>
      </trkpt>
      <trkpt lat="44.49625" lon="5.89584">
        <ele>995</ele>
        <time>2019-06-12T13:35:14Z</time>
      </trkpt>
      <trkpt lat="44.49631" lon="5.89577">
        <ele>994</ele>
        <time>2019-06-12T13:35:15Z</time>
      </trkpt>
      <trkpt lat="44.49636" lon="5.89572">
        <ele>993</ele>
        <time>2019-06-12T13:35:16Z</time>
      </trkpt>
      <trkpt lat="44.49642" lon="5.89566">
        <ele>992</ele>
        <time>2019-06-12T13:35:17Z</time>
      </trkpt>
      <trkpt lat="44.49648" lon="5.89561">
        <ele>991</ele>
        <time>2019-06-12T13:35:18Z</time>
      </trkpt>
      <trkpt lat="44.49654" lon="5.89558">
        <ele>990</ele>
        <time>2019-06-12T13:35:19Z</time>
      </trkpt>
      <trkpt lat="44.49662" lon="5.89558">
        <ele>990</ele>
        <time>2019-06-12T13:35:20Z</time>
      </trkpt>
      <trkpt lat="44.4967" lon="5.89556">
        <ele>989</ele>
        <time>2019-06-12T13:35:21Z</time>
      </trkpt>
      <trkpt lat="44.49677" lon="5.89554">
        <ele>989</ele>
        <time>2019-06-12T13:35:22Z</time>
      </trkpt>
      <trkpt lat="44.49684" lon="5.89551">
        <ele>989</ele>
        <time>2019-06-12T13:35:23Z</time>
      </trkpt>
      <trkpt lat="44.49691" lon="5.89546">
        <ele>988</ele>
        <time>2019-06-12T13:35:24Z</time>
      </trkpt>
      <trkpt lat="44.49698" lon="5.89542">
        <ele>988</ele>
        <time>2019-06-12T13:35:25Z</time>
      </trkpt>
      <trkpt lat="44.49704" lon="5.89539">
        <ele>988</ele>
        <time>2019-06-12T13:35:26Z</time>
      </trkpt>
      <trkpt lat="44.49709" lon="5.89537">
        <ele>988</ele>
        <time>2019-06-12T13:35:27Z</time>
      </trkpt>
      <trkpt lat="44.49714" lon="5.89538">
        <ele>987</ele>
        <time>2019-06-12T13:35:28Z</time>
      </trkpt>
      <trkpt lat="44.49718" lon="5.89541">
        <ele>987</ele>
        <time>2019-06-12T13:35:29Z</time>
      </trkpt>
      <trkpt lat="44.4972" lon="5.89547">
        <ele>987</ele>
        <time>2019-06-12T13:35:30Z</time>
      </trkpt>
      <trkpt lat="44.49722" lon="5.89554">
        <ele>987</ele>
        <time>2019-06-12T13:35:31Z</time>
      </trkpt>
      <trkpt lat="44.49724" lon="5.89561">
        <ele>987</ele>
        <time>2019-06-12T13:35:32Z</time>
      </trkpt>
      <trkpt lat="44.49725" lon="5.89568">
        <ele>987</ele>
        <time>2019-06-12T13:35:33Z</time>
      </trkpt>
      <trkpt lat="44.49728" lon="5.89574">
        <ele>987</ele>
        <time>2019-06-12T13:35:34Z</time>
      </trkpt>
      <trkpt lat="44.49731" lon="5.89581">
        <ele>987</ele>
        <time>2019-06-12T13:35:35Z</time>
      </trkpt>
      <trkpt lat="44.49735" lon="5.89586">
        <ele>987</ele>
        <time>2019-06-12T13:35:36Z</time>
      </trkpt>
      <trkpt lat="44.49739" lon="5.89591">
        <ele>987</ele>
        <time>2019-06-12T13:35:37Z</time>
      </trkpt>
      <trkpt lat="44.49743" lon="5.89595">
        <ele>987</ele>
        <time>2019-06-12T13:35:38Z</time>
      </trkpt>
      <trkpt lat="44.49748" lon="5.89599">
        <ele>987</ele>
        <time>2019-06-12T13:35:39Z</time>
      </trkpt>
      <trkpt lat="44.49753" lon="5.89602">
        <ele>987</ele>
        <time>2019-06-12T13:35:40Z</time>
      </trkpt>
      <trkpt lat="44.49758" lon="5.89604">
        <ele>987</ele>
        <time>2019-06-12T13:35:41Z</time>
      </trkpt>
      <trkpt lat="44.49763" lon="5.89607">
        <ele>987</ele>
        <time>2019-06-12T13:35:42Z</time>
      </trkpt>
      <trkpt lat="44.49769" lon="5.89609">
        <ele>987</ele>
        <time>2019-06-12T13:35:43Z</time>
      </trkpt>
      <trkpt lat="44.49774" lon="5.89611">
        <ele>987</ele>
        <time>2019-06-12T13:35:44Z</time>
      </trkpt>
      <trkpt lat="44.4978" lon="5.89613">
        <ele>987</ele>
        <time>2019-06-12T13:35:45Z</time>
      </trkpt>
      <trkpt lat="44.49786" lon="5.89614">
        <ele>987</ele>
        <time>2019-06-12T13:35:46Z</time>
      </trkpt>
      <trkpt lat="44.49791" lon="5.89614">
        <ele>987</ele>
        <time>2019-06-12T13:35:47Z</time>
      </trkpt>
      <trkpt lat="44.49797" lon="5.89614">
        <ele>987</ele>
        <time>2019-06-12T13:35:48Z</time>
      </trkpt>
      <trkpt lat="44.49804" lon="5.89613">
        <ele>987</ele>
        <time>2019-06-12T13:35:49Z</time>
      </trkpt>
      <trkpt lat="44.4981" lon="5.89611">
        <ele>987</ele>
        <time>2019-06-12T13:35:50Z</time>
      </trkpt>
      <trkpt lat="44.49815" lon="5.89609">
        <ele>987</ele>
        <time>2019-06-12T13:35:51Z</time>
      </trkpt>
      <trkpt lat="44.49821" lon="5.89607">
        <ele>987</ele>
        <time>2019-06-12T13:35:52Z</time>
      </trkpt>
      <trkpt lat="44.49826" lon="5.89605">
        <ele>987</ele>
        <time>2019-06-12T13:35:53Z</time>
      </trkpt>
      <trkpt lat="44.49832" lon="5.89602">
        <ele>987</ele>
        <time>2019-06-12T13:35:54Z</time>
      </trkpt>
      <trkpt lat="44.49838" lon="5.89599">
        <ele>987</ele>
        <time>2019-06-12T13:35:55Z</time>
      </trkpt>
      <trkpt lat="44.49844" lon="5.89597">
        <ele>987</ele>
        <time>2019-06-12T13:35:56Z</time>
      </trkpt>
      <trkpt lat="44.49849" lon="5.89594">
        <ele>987</ele>
        <time>2019-06-12T13:35:57Z</time>
      </trkpt>
      <trkpt lat="44.49855" lon="5.89591">
        <ele>987</ele>
        <time>2019-06-12T13:35:58Z</time>
      </trkpt>
      <trkpt lat="44.49861" lon="5.89588">
        <ele>987</ele>
        <time>2019-06-12T13:35:59Z</time>
      </trkpt>
      <trkpt lat="44.49867" lon="5.89585">
        <ele>987</ele>
        <time>2019-06-12T13:36:00Z</time>
      </trkpt>
      <trkpt lat="44.49873" lon="5.89583">
        <ele>987</ele>
        <time>2019-06-12T13:36:01Z</time>
      </trkpt>
      <trkpt lat="44.4988" lon="5.8958">
        <ele>987</ele>
        <time>2019-06-12T13:36:02Z</time>
      </trkpt>
      <trkpt lat="44.49886" lon="5.89577">
        <ele>987</ele>
        <time>2019-06-12T13:36:03Z</time>
      </trkpt>
      <trkpt lat="44.49892" lon="5.89573">
        <ele>987</ele>
        <time>2019-06-12T13:36:04Z</time>
      </trkpt>
      <trkpt lat="44.49899" lon="5.89568">
        <ele>987</ele>
        <time>2019-06-12T13:36:05Z</time>
      </trkpt>
      <trkpt lat="44.49903" lon="5.89563">
        <ele>987</ele>
        <time>2019-06-12T13:36:06Z</time>
      </trkpt>
      <trkpt lat="44.49908" lon="5.89556">
        <ele>987</ele>
        <time>2019-06-12T13:36:07Z</time>
      </trkpt>
      <trkpt lat="44.49911" lon="5.89549">
        <ele>987</ele>
        <time>2019-06-12T13:36:08Z</time>
      </trkpt>
      <trkpt lat="44.49914" lon="5.89541">
        <ele>987</ele>
        <time>2019-06-12T13:36:09Z</time>
      </trkpt>
      <trkpt lat="44.49917" lon="5.89533">
        <ele>987</ele>
        <time>2019-06-12T13:36:10Z</time>
      </trkpt>
      <trkpt lat="44.4992" lon="5.89524">
        <ele>986</ele>
        <time>2019-06-12T13:36:11Z</time>
      </trkpt>
      <trkpt lat="44.49922" lon="5.89516">
        <ele>985</ele>
        <time>2019-06-12T13:36:12Z</time>
      </trkpt>
      <trkpt lat="44.49924" lon="5.89508">
        <ele>984</ele>
        <time>2019-06-12T13:36:13Z</time>
      </trkpt>
      <trkpt lat="44.49928" lon="5.895">
        <ele>984</ele>
        <time>2019-06-12T13:36:14Z</time>
      </trkpt>
      <trkpt lat="44.49932" lon="5.89493">
        <ele>983</ele>
        <time>2019-06-12T13:36:15Z</time>
      </trkpt>
      <trkpt lat="44.49937" lon="5.89485">
        <ele>983</ele>
        <time>2019-06-12T13:36:16Z</time>
      </trkpt>
      <trkpt lat="44.49941" lon="5.89478">
        <ele>982</ele>
        <time>2019-06-12T13:36:17Z</time>
      </trkpt>
      <trkpt lat="44.49946" lon="5.89471">
        <ele>982</ele>
        <time>2019-06-12T13:36:18Z</time>
      </trkpt>
      <trkpt lat="44.4995" lon="5.89464">
        <ele>982</ele>
        <time>2019-06-12T13:36:19Z</time>
      </trkpt>
      <trkpt lat="44.49954" lon="5.89456">
        <ele>981</ele>
        <time>2019-06-12T13:36:20Z</time>
      </trkpt>
      <trkpt lat="44.49958" lon="5.89447">
        <ele>981</ele>
        <time>2019-06-12T13:36:21Z</time>
      </trkpt>
      <trkpt lat="44.49963" lon="5.89439">
        <ele>981</ele>
        <time>2019-06-12T13:36:22Z</time>
      </trkpt>
      <trkpt lat="44.49967" lon="5.89431">
        <ele>981</ele>
        <time>2019-06-12T13:36:23Z</time>
      </trkpt>
      <trkpt lat="44.49972" lon="5.89423">
        <ele>981</ele>
        <time>2019-06-12T13:36:24Z</time>
      </trkpt>
      <trkpt lat="44.49977" lon="5.89416">
        <ele>981</ele>
        <time>2019-06-12T13:36:25Z</time>
      </trkpt>
      <trkpt lat="44.49982" lon="5.89409">
        <ele>981</ele>
        <time>2019-06-12T13:36:26Z</time>
      </trkpt>
      <trkpt lat="44.49988" lon="5.89402">
        <ele>981</ele>
        <time>2019-06-12T13:36:27Z</time>
      </trkpt>
      <trkpt lat="44.49994" lon="5.89397">
        <ele>981</ele>
        <time>2019-06-12T13:36:28Z</time>
      </trkpt>
      <trkpt lat="44.49999" lon="5.89392">
        <ele>980</ele>
        <time>2019-06-12T13:36:29Z</time>
      </trkpt>
      <trkpt lat="44.50004" lon="5.89386">
        <ele>980</ele>
        <time>2019-06-12T13:36:30Z</time>
      </trkpt>
      <trkpt lat="44.50009" lon="5.89381">
        <ele>980</ele>
        <time>2019-06-12T13:36:31Z</time>
      </trkpt>
      <trkpt lat="44.50014" lon="5.89376">
        <ele>979</ele>
        <time>2019-06-12T13:36:32Z</time>
      </trkpt>
      <trkpt lat="44.50019" lon="5.8937">
        <ele>979</ele>
        <time>2019-06-12T13:36:33Z</time>
      </trkpt>
      <trkpt lat="44.50025" lon="5.89364">
        <ele>978</ele>
        <time>2019-06-12T13:36:34Z</time>
      </trkpt>
      <trkpt lat="44.50031" lon="5.89359">
        <ele>978</ele>
        <time>2019-06-12T13:36:35Z</time>
      </trkpt>
      <trkpt lat="44.50036" lon="5.89353">
        <ele>978</ele>
        <time>2019-06-12T13:36:36Z</time>
      </trkpt>
      <trkpt lat="44.50042" lon="5.89347">
        <ele>978</ele>
        <time>2019-06-12T13:36:37Z</time>
      </trkpt>
      <trkpt lat="44.50047" lon="5.89342">
        <ele>978</ele>
        <time>2019-06-12T13:36:38Z</time>
      </trkpt>
      <trkpt lat="44.50052" lon="5.89336">
        <ele>978</ele>
        <time>2019-06-12T13:36:39Z</time>
      </trkpt>
      <trkpt lat="44.50057" lon="5.89331">
        <ele>978</ele>
        <time>2019-06-12T13:36:40Z</time>
      </trkpt>
      <trkpt lat="44.50062" lon="5.89326">
        <ele>978</ele>
        <time>2019-06-12T13:36:41Z</time>
      </trkpt>
      <trkpt lat="44.50067" lon="5.8932">
        <ele>977</ele>
        <time>2019-06-12T13:36:42Z</time>
      </trkpt>
      <trkpt lat="44.50071" lon="5.89314">
        <ele>977</ele>
        <time>2019-06-12T13:36:43Z</time>
      </trkpt>
      <trkpt lat="44.50075" lon="5.89307">
        <ele>976</ele>
        <time>2019-06-12T13:36:44Z</time>
      </trkpt>
      <trkpt lat="44.50079" lon="5.89299">
        <ele>976</ele>
        <time>2019-06-12T13:36:45Z</time>
      </trkpt>
      <trkpt lat="44.50082" lon="5.89291">
        <ele>976</ele>
        <time>2019-06-12T13:36:46Z</time>
      </trkpt>
      <trkpt lat="44.50085" lon="5.89283">
        <ele>975</ele>
        <time>2019-06-12T13:36:47Z</time>
      </trkpt>
      <trkpt lat="44.50087" lon="5.89274">
        <ele>975</ele>
        <time>2019-06-12T13:36:48Z</time>
      </trkpt>
      <trkpt lat="44.50088" lon="5.89265">
        <ele>975</ele>
        <time>2019-06-12T13:36:49Z</time>
      </trkpt>
      <trkpt lat="44.50089" lon="5.89256">
        <ele>975</ele>
        <time>2019-06-12T13:36:50Z</time>
      </trkpt>
      <trkpt lat="44.5009" lon="5.89246">
        <ele>974</ele>
        <time>2019-06-12T13:36:51Z</time>
      </trkpt>
      <trkpt lat="44.50091" lon="5.89237">
        <ele>974</ele>
        <time>2019-06-12T13:36:52Z</time>
      </trkpt>
      <trkpt lat="44.50092" lon="5.89228">
        <ele>973</ele>
        <time>2019-06-12T13:36:53Z</time>
      </trkpt>
      <trkpt lat="44.50093" lon="5.89218">
        <ele>973</ele>
        <time>2019-06-12T13:36:54Z</time>
      </trkpt>
      <trkpt lat="44.50093" lon="5.89209">
        <ele>972</ele>
        <time>2019-06-12T13:36:55Z</time>
      </trkpt>
      <trkpt lat="44.50094" lon="5.89199">
        <ele>972</ele>
        <time>2019-06-12T13:36:56Z</time>
      </trkpt>
      <trkpt lat="44.50096" lon="5.89189">
        <ele>972</ele>
        <time>2019-06-12T13:36:57Z</time>
      </trkpt>
      <trkpt lat="44.50098" lon="5.8918">
        <ele>971</ele>
        <time>2019-06-12T13:36:58Z</time>
      </trkpt>
      <trkpt lat="44.50101" lon="5.89171">
        <ele>971</ele>
        <time>2019-06-12T13:36:59Z</time>
      </trkpt>
      <trkpt lat="44.50104" lon="5.89162">
        <ele>970</ele>
        <time>2019-06-12T13:37:00Z</time>
      </trkpt>
      <trkpt lat="44.50107" lon="5.89153">
        <ele>970</ele>
        <time>2019-06-12T13:37:01Z</time>
      </trkpt>
      <trkpt lat="44.5011" lon="5.89144">
        <ele>970</ele>
        <time>2019-06-12T13:37:02Z</time>
      </trkpt>
      <trkpt lat="44.50112" lon="5.89134">
        <ele>969</ele>
        <time>2019-06-12T13:37:03Z</time>
      </trkpt>
      <trkpt lat="44.50113" lon="5.89124">
        <ele>969</ele>
        <time>2019-06-12T13:37:04Z</time>
      </trkpt>
      <trkpt lat="44.50114" lon="5.89114">
        <ele>969</ele>
        <time>2019-06-12T13:37:05Z</time>
      </trkpt>
      <trkpt lat="44.50115" lon="5.89104">
        <ele>969</ele>
        <time>2019-06-12T13:37:06Z</time>
      </trkpt>
      <trkpt lat="44.50115" lon="5.89093">
        <ele>969</ele>
        <time>2019-06-12T13:37:07Z</time>
      </trkpt>
      <trkpt lat="44.50116" lon="5.89083">
        <ele>968</ele>
        <time>2019-06-12T13:37:08Z</time>
      </trkpt>
      <trkpt lat="44.50115" lon="5.89073">
        <ele>968</ele>
        <time>2019-06-12T13:37:09Z</time>
      </trkpt>
      <trkpt lat="44.50115" lon="5.89063">
        <ele>968</ele>
        <time>2019-06-12T13:37:10Z</time>
      </trkpt>
      <trkpt lat="44.50115" lon="5.89053">
        <ele>968</ele>
        <time>2019-06-12T13:37:11Z</time>
      </trkpt>
      <trkpt lat="44.50115" lon="5.89044">
        <ele>967</ele>
        <time>2019-06-12T13:37:12Z</time>
      </trkpt>
      <trkpt lat="44.50116" lon="5.89034">
        <ele>967</ele>
        <time>2019-06-12T13:37:13Z</time>
      </trkpt>
      <trkpt lat="44.50118" lon="5.89025">
        <ele>967</ele>
        <time>2019-06-12T13:37:14Z</time>
      </trkpt>
      <trkpt lat="44.50121" lon="5.89016">
        <ele>967</ele>
        <time>2019-06-12T13:37:16Z</time>
      </trkpt>
      <trkpt lat="44.50124" lon="5.89008">
        <ele>966</ele>
        <time>2019-06-12T13:37:16Z</time>
      </trkpt>
      <trkpt lat="44.50127" lon="5.89">
        <ele>966</ele>
        <time>2019-06-12T13:37:17Z</time>
      </trkpt>
      <trkpt lat="44.50131" lon="5.88993">
        <ele>966</ele>
        <time>2019-06-12T13:37:18Z</time>
      </trkpt>
      <trkpt lat="44.50135" lon="5.88985">
        <ele>965</ele>
        <time>2019-06-12T13:37:19Z</time>
      </trkpt>
      <trkpt lat="44.50139" lon="5.88977">
        <ele>965</ele>
        <time>2019-06-12T13:37:20Z</time>
      </trkpt>
      <trkpt lat="44.50144" lon="5.8897">
        <ele>965</ele>
        <time>2019-06-12T13:37:21Z</time>
      </trkpt>
      <trkpt lat="44.50148" lon="5.88962">
        <ele>965</ele>
        <time>2019-06-12T13:37:22Z</time>
      </trkpt>
      <trkpt lat="44.50152" lon="5.88954">
        <ele>965</ele>
        <time>2019-06-12T13:37:23Z</time>
      </trkpt>
      <trkpt lat="44.50156" lon="5.88947">
        <ele>965</ele>
        <time>2019-06-12T13:37:24Z</time>
      </trkpt>
      <trkpt lat="44.5016" lon="5.8894">
        <ele>965</ele>
        <time>2019-06-12T13:37:25Z</time>
      </trkpt>
      <trkpt lat="44.50164" lon="5.88932">
        <ele>965</ele>
        <time>2019-06-12T13:37:26Z</time>
      </trkpt>
      <trkpt lat="44.50168" lon="5.88925">
        <ele>965</ele>
        <time>2019-06-12T13:37:27Z</time>
      </trkpt>
      <trkpt lat="44.50172" lon="5.88918">
        <ele>964</ele>
        <time>2019-06-12T13:37:28Z</time>
      </trkpt>
      <trkpt lat="44.50177" lon="5.88912">
        <ele>964</ele>
        <time>2019-06-12T13:37:29Z</time>
      </trkpt>
      <trkpt lat="44.50182" lon="5.88907">
        <ele>964</ele>
        <time>2019-06-12T13:37:30Z</time>
      </trkpt>
      <trkpt lat="44.50188" lon="5.88902">
        <ele>964</ele>
        <time>2019-06-12T13:37:31Z</time>
      </trkpt>
      <trkpt lat="44.50194" lon="5.88897">
        <ele>964</ele>
        <time>2019-06-12T13:37:32Z</time>
      </trkpt>
      <trkpt lat="44.502" lon="5.88893">
        <ele>964</ele>
        <time>2019-06-12T13:37:33Z</time>
      </trkpt>
      <trkpt lat="44.50205" lon="5.88888">
        <ele>964</ele>
        <time>2019-06-12T13:37:34Z</time>
      </trkpt>
      <trkpt lat="44.50211" lon="5.88883">
        <ele>964</ele>
        <time>2019-06-12T13:37:35Z</time>
      </trkpt>
      <trkpt lat="44.50217" lon="5.88878">
        <ele>964</ele>
        <time>2019-06-12T13:37:36Z</time>
      </trkpt>
      <trkpt lat="44.50223" lon="5.88873">
        <ele>964</ele>
        <time>2019-06-12T13:37:37Z</time>
      </trkpt>
      <trkpt lat="44.50229" lon="5.88869">
        <ele>964</ele>
        <time>2019-06-12T13:37:38Z</time>
      </trkpt>
      <trkpt lat="44.50234" lon="5.88864">
        <ele>964</ele>
        <time>2019-06-12T13:37:39Z</time>
      </trkpt>
      <trkpt lat="44.5024" lon="5.88859">
        <ele>964</ele>
        <time>2019-06-12T13:37:40Z</time>
      </trkpt>
      <trkpt lat="44.50245" lon="5.88854">
        <ele>964</ele>
        <time>2019-06-12T13:37:41Z</time>
      </trkpt>
      <trkpt lat="44.5025" lon="5.88849">
        <ele>964</ele>
        <time>2019-06-12T13:37:42Z</time>
      </trkpt>
      <trkpt lat="44.50255" lon="5.88844">
        <ele>964</ele>
        <time>2019-06-12T13:37:43Z</time>
      </trkpt>
      <trkpt lat="44.50259" lon="5.88838">
        <ele>964</ele>
        <time>2019-06-12T13:37:44Z</time>
      </trkpt>
      <trkpt lat="44.50264" lon="5.88832">
        <ele>964</ele>
        <time>2019-06-12T13:37:45Z</time>
      </trkpt>
      <trkpt lat="44.50268" lon="5.88825">
        <ele>964</ele>
        <time>2019-06-12T13:37:46Z</time>
      </trkpt>
      <trkpt lat="44.50272" lon="5.88818">
        <ele>964</ele>
        <time>2019-06-12T13:37:47Z</time>
      </trkpt>
      <trkpt lat="44.50276" lon="5.88811">
        <ele>963</ele>
        <time>2019-06-12T13:37:48Z</time>
      </trkpt>
      <trkpt lat="44.50281" lon="5.88805">
        <ele>963</ele>
        <time>2019-06-12T13:37:49Z</time>
      </trkpt>
      <trkpt lat="44.50285" lon="5.888">
        <ele>963</ele>
        <time>2019-06-12T13:37:50Z</time>
      </trkpt>
      <trkpt lat="44.50291" lon="5.88794">
        <ele>963</ele>
        <time>2019-06-12T13:37:51Z</time>
      </trkpt>
      <trkpt lat="44.50296" lon="5.88789">
        <ele>963</ele>
        <time>2019-06-12T13:37:52Z</time>
      </trkpt>
      <trkpt lat="44.50301" lon="5.88784">
        <ele>963</ele>
        <time>2019-06-12T13:37:53Z</time>
      </trkpt>
      <trkpt lat="44.50307" lon="5.8878">
        <ele>963</ele>
        <time>2019-06-12T13:37:54Z</time>
      </trkpt>
      <trkpt lat="44.50313" lon="5.88775">
        <ele>963</ele>
        <time>2019-06-12T13:37:55Z</time>
      </trkpt>
      <trkpt lat="44.50319" lon="5.88771">
        <ele>962</ele>
        <time>2019-06-12T13:37:56Z</time>
      </trkpt>
      <trkpt lat="44.50324" lon="5.88766">
        <ele>962</ele>
        <time>2019-06-12T13:37:57Z</time>
      </trkpt>
      <trkpt lat="44.5033" lon="5.88762">
        <ele>962</ele>
        <time>2019-06-12T13:37:58Z</time>
      </trkpt>
      <trkpt lat="44.50336" lon="5.88757">
        <ele>962</ele>
        <time>2019-06-12T13:37:59Z</time>
      </trkpt>
      <trkpt lat="44.50342" lon="5.88753">
        <ele>962</ele>
        <time>2019-06-12T13:38:00Z</time>
      </trkpt>
      <trkpt lat="44.50348" lon="5.88748">
        <ele>962</ele>
        <time>2019-06-12T13:38:01Z</time>
      </trkpt>
      <trkpt lat="44.50354" lon="5.88743">
        <ele>962</ele>
        <time>2019-06-12T13:38:02Z</time>
      </trkpt>
      <trkpt lat="44.5036" lon="5.88739">
        <ele>961</ele>
        <time>2019-06-12T13:38:03Z</time>
      </trkpt>
      <trkpt lat="44.50366" lon="5.88734">
        <ele>961</ele>
        <time>2019-06-12T13:38:04Z</time>
      </trkpt>
      <trkpt lat="44.50372" lon="5.88729">
        <ele>961</ele>
        <time>2019-06-12T13:38:05Z</time>
      </trkpt>
      <trkpt lat="44.50378" lon="5.88725">
        <ele>961</ele>
        <time>2019-06-12T13:38:06Z</time>
      </trkpt>
      <trkpt lat="44.50384" lon="5.88721">
        <ele>960</ele>
        <time>2019-06-12T13:38:07Z</time>
      </trkpt>
      <trkpt lat="44.5039" lon="5.88716">
        <ele>960</ele>
        <time>2019-06-12T13:38:08Z</time>
      </trkpt>
      <trkpt lat="44.50396" lon="5.88712">
        <ele>960</ele>
        <time>2019-06-12T13:38:09Z</time>
      </trkpt>
      <trkpt lat="44.50401" lon="5.88707">
        <ele>959</ele>
        <time>2019-06-12T13:38:10Z</time>
      </trkpt>
      <trkpt lat="44.50407" lon="5.88703">
        <ele>959</ele>
        <time>2019-06-12T13:38:11Z</time>
      </trkpt>
      <trkpt lat="44.50412" lon="5.88699">
        <ele>958</ele>
        <time>2019-06-12T13:38:12Z</time>
      </trkpt>
      <trkpt lat="44.50418" lon="5.88695">
        <ele>958</ele>
        <time>2019-06-12T13:38:13Z</time>
      </trkpt>
      <trkpt lat="44.50424" lon="5.8869">
        <ele>958</ele>
        <time>2019-06-12T13:38:14Z</time>
      </trkpt>
      <trkpt lat="44.50429" lon="5.88685">
        <ele>957</ele>
        <time>2019-06-12T13:38:15Z</time>
      </trkpt>
      <trkpt lat="44.50434" lon="5.8868">
        <ele>957</ele>
        <time>2019-06-12T13:38:16Z</time>
      </trkpt>
      <trkpt lat="44.5044" lon="5.88675">
        <ele>957</ele>
        <time>2019-06-12T13:38:17Z</time>
      </trkpt>
      <trkpt lat="44.50445" lon="5.88669">
        <ele>957</ele>
        <time>2019-06-12T13:38:18Z</time>
      </trkpt>
      <trkpt lat="44.50449" lon="5.88663">
        <ele>956</ele>
        <time>2019-06-12T13:38:19Z</time>
      </trkpt>
      <trkpt lat="44.50454" lon="5.88656">
        <ele>956</ele>
        <time>2019-06-12T13:38:20Z</time>
      </trkpt>
      <trkpt lat="44.50459" lon="5.88649">
        <ele>956</ele>
        <time>2019-06-12T13:38:21Z</time>
      </trkpt>
      <trkpt lat="44.50464" lon="5.88642">
        <ele>955</ele>
        <time>2019-06-12T13:38:22Z</time>
      </trkpt>
      <trkpt lat="44.50469" lon="5.88635">
        <ele>955</ele>
        <time>2019-06-12T13:38:23Z</time>
      </trkpt>
      <trkpt lat="44.50473" lon="5.88627">
        <ele>955</ele>
        <time>2019-06-12T13:38:24Z</time>
      </trkpt>
      <trkpt lat="44.50478" lon="5.8862">
        <ele>954</ele>
        <time>2019-06-12T13:38:25Z</time>
      </trkpt>
      <trkpt lat="44.50482" lon="5.88611">
        <ele>954</ele>
        <time>2019-06-12T13:38:26Z</time>
      </trkpt>
      <trkpt lat="44.50485" lon="5.88603">
        <ele>953</ele>
        <time>2019-06-12T13:38:27Z</time>
      </trkpt>
      <trkpt lat="44.50488" lon="5.88595">
        <ele>952</ele>
        <time>2019-06-12T13:38:28Z</time>
      </trkpt>
      <trkpt lat="44.50489" lon="5.88588">
        <ele>951</ele>
        <time>2019-06-12T13:38:29Z</time>
      </trkpt>
      <trkpt lat="44.5049" lon="5.88581">
        <ele>951</ele>
        <time>2019-06-12T13:38:30Z</time>
      </trkpt>
      <trkpt lat="44.50491" lon="5.88576">
        <ele>950</ele>
        <time>2019-06-12T13:38:31Z</time>
      </trkpt>
      <trkpt lat="44.50491" lon="5.88571">
        <ele>949</ele>
        <time>2019-06-12T13:38:32Z</time>
      </trkpt>
      <trkpt lat="44.50492" lon="5.88567">
        <ele>949</ele>
        <time>2019-06-12T13:38:33Z</time>
      </trkpt>
      <trkpt lat="44.50491" lon="5.88562">
        <ele>948</ele>
        <time>2019-06-12T13:38:34Z</time>
      </trkpt>
      <trkpt lat="44.50492" lon="5.8856">
        <ele>948</ele>
        <time>2019-06-12T13:38:35Z</time>
      </trkpt>
      <trkpt lat="44.50494" lon="5.88558">
        <ele>947</ele>
        <time>2019-06-12T13:38:36Z</time>
      </trkpt>
      <trkpt lat="44.50494" lon="5.88556">
        <ele>947</ele>
        <time>2019-06-12T13:38:37Z</time>
      </trkpt>
      <trkpt lat="44.50496" lon="5.88554">
        <ele>947</ele>
        <time>2019-06-12T13:38:38Z</time>
      </trkpt>
      <trkpt lat="44.50497" lon="5.88552">
        <ele>947</ele>
        <time>2019-06-12T13:38:39Z</time>
      </trkpt>
      <trkpt lat="44.50498" lon="5.8855">
        <ele>947</ele>
        <time>2019-06-12T13:38:40Z</time>
      </trkpt>
      <trkpt lat="44.50501" lon="5.88549">
        <ele>946</ele>
        <time>2019-06-12T13:38:41Z</time>
      </trkpt>
      <trkpt lat="44.50503" lon="5.88548">
        <ele>946</ele>
        <time>2019-06-12T13:38:42Z</time>
      </trkpt>
      <trkpt lat="44.50505" lon="5.88547">
        <ele>946</ele>
        <time>2019-06-12T13:38:43Z</time>
      </trkpt>
      <trkpt lat="44.50508" lon="5.88546">
        <ele>946</ele>
        <time>2019-06-12T13:38:44Z</time>
      </trkpt>
      <trkpt lat="44.5051" lon="5.88547">
        <ele>946</ele>
        <time>2019-06-12T13:38:45Z</time>
      </trkpt>
      <trkpt lat="44.50513" lon="5.88547">
        <ele>946</ele>
        <time>2019-06-12T13:38:46Z</time>
      </trkpt>
      <trkpt lat="44.50517" lon="5.88548">
        <ele>946</ele>
        <time>2019-06-12T13:38:47Z</time>
      </trkpt>
      <trkpt lat="44.5052" lon="5.88549">
        <ele>946</ele>
        <time>2019-06-12T13:38:48Z</time>
      </trkpt>
      <trkpt lat="44.50523" lon="5.88549">
        <ele>946</ele>
        <time>2019-06-12T13:38:49Z</time>
      </trkpt>
      <trkpt lat="44.50526" lon="5.88549">
        <ele>946</ele>
        <time>2019-06-12T13:38:50Z</time>
      </trkpt>
      <trkpt lat="44.5053" lon="5.88549">
        <ele>945</ele>
        <time>2019-06-12T13:38:51Z</time>
      </trkpt>
      <trkpt lat="44.50534" lon="5.88548">
        <ele>945</ele>
        <time>2019-06-12T13:38:52Z</time>
      </trkpt>
      <trkpt lat="44.50538" lon="5.88547">
        <ele>945</ele>
        <time>2019-06-12T13:38:53Z</time>
      </trkpt>
      <trkpt lat="44.50542" lon="5.88545">
        <ele>945</ele>
        <time>2019-06-12T13:38:54Z</time>
      </trkpt>
      <trkpt lat="44.50546" lon="5.88541">
        <ele>945</ele>
        <time>2019-06-12T13:38:55Z</time>
      </trkpt>
      <trkpt lat="44.5055" lon="5.88537">
        <ele>945</ele>
        <time>2019-06-12T13:38:56Z</time>
      </trkpt>
      <trkpt lat="44.50554" lon="5.88531">
        <ele>944</ele>
        <time>2019-06-12T13:38:57Z</time>
      </trkpt>
      <trkpt lat="44.50557" lon="5.88525">
        <ele>944</ele>
        <time>2019-06-12T13:38:58Z</time>
      </trkpt>
      <trkpt lat="44.5056" lon="5.8852">
        <ele>944</ele>
        <time>2019-06-12T13:38:59Z</time>
      </trkpt>
      <trkpt lat="44.50563" lon="5.88514">
        <ele>944</ele>
        <time>2019-06-12T13:39:00Z</time>
      </trkpt>
      <trkpt lat="44.50566" lon="5.88509">
        <ele>943</ele>
        <time>2019-06-12T13:39:01Z</time>
      </trkpt>
      <trkpt lat="44.50569" lon="5.88502">
        <ele>943</ele>
        <time>2019-06-12T13:39:02Z</time>
      </trkpt>
      <trkpt lat="44.50572" lon="5.88495">
        <ele>943</ele>
        <time>2019-06-12T13:39:03Z</time>
      </trkpt>
      <trkpt lat="44.50574" lon="5.88488">
        <ele>943</ele>
        <time>2019-06-12T13:39:04Z</time>
      </trkpt>
      <trkpt lat="44.50576" lon="5.88482">
        <ele>942</ele>
        <time>2019-06-12T13:39:05Z</time>
      </trkpt>
      <trkpt lat="44.50577" lon="5.88475">
        <ele>942</ele>
        <time>2019-06-12T13:39:06Z</time>
      </trkpt>
      <trkpt lat="44.50577" lon="5.88467">
        <ele>942</ele>
        <time>2019-06-12T13:39:07Z</time>
      </trkpt>
      <trkpt lat="44.50576" lon="5.8846">
        <ele>942</ele>
        <time>2019-06-12T13:39:08Z</time>
      </trkpt>
      <trkpt lat="44.50576" lon="5.88453">
        <ele>942</ele>
        <time>2019-06-12T13:39:09Z</time>
      </trkpt>
      <trkpt lat="44.50574" lon="5.88447">
        <ele>942</ele>
        <time>2019-06-12T13:39:10Z</time>
      </trkpt>
      <trkpt lat="44.50573" lon="5.88441">
        <ele>941</ele>
        <time>2019-06-12T13:39:11Z</time>
      </trkpt>
      <trkpt lat="44.50571" lon="5.88434">
        <ele>941</ele>
        <time>2019-06-12T13:39:12Z</time>
      </trkpt>
      <trkpt lat="44.5057" lon="5.88428">
        <ele>941</ele>
        <time>2019-06-12T13:39:13Z</time>
      </trkpt>
      <trkpt lat="44.50569" lon="5.88422">
        <ele>941</ele>
        <time>2019-06-12T13:39:14Z</time>
      </trkpt>
      <trkpt lat="44.50567" lon="5.88416">
        <ele>941</ele>
        <time>2019-06-12T13:39:15Z</time>
      </trkpt>
      <trkpt lat="44.50565" lon="5.88409">
        <ele>941</ele>
        <time>2019-06-12T13:39:16Z</time>
      </trkpt>
      <trkpt lat="44.50563" lon="5.88403">
        <ele>941</ele>
        <time>2019-06-12T13:39:17Z</time>
      </trkpt>
      <trkpt lat="44.50562" lon="5.88397">
        <ele>941</ele>
        <time>2019-06-12T13:39:18Z</time>
      </trkpt>
      <trkpt lat="44.5056" lon="5.8839">
        <ele>941</ele>
        <time>2019-06-12T13:39:19Z</time>
      </trkpt>
      <trkpt lat="44.50558" lon="5.88384">
        <ele>941</ele>
        <time>2019-06-12T13:39:20Z</time>
      </trkpt>
      <trkpt lat="44.50557" lon="5.88378">
        <ele>941</ele>
        <time>2019-06-12T13:39:21Z</time>
      </trkpt>
      <trkpt lat="44.50556" lon="5.88372">
        <ele>941</ele>
        <time>2019-06-12T13:39:22Z</time>
      </trkpt>
      <trkpt lat="44.50555" lon="5.88366">
        <ele>941</ele>
        <time>2019-06-12T13:39:23Z</time>
      </trkpt>
      <trkpt lat="44.50555" lon="5.88359">
        <ele>941</ele>
        <time>2019-06-12T13:39:24Z</time>
      </trkpt>
      <trkpt lat="44.50556" lon="5.88353">
        <ele>941</ele>
        <time>2019-06-12T13:39:25Z</time>
      </trkpt>
      <trkpt lat="44.50558" lon="5.88347">
        <ele>941</ele>
        <time>2019-06-12T13:39:26Z</time>
      </trkpt>
      <trkpt lat="44.50561" lon="5.88342">
        <ele>941</ele>
        <time>2019-06-12T13:39:27Z</time>
      </trkpt>
      <trkpt lat="44.50565" lon="5.88338">
        <ele>941</ele>
        <time>2019-06-12T13:39:28Z</time>
      </trkpt>
      <trkpt lat="44.50568" lon="5.88334">
        <ele>941</ele>
        <time>2019-06-12T13:39:29Z</time>
      </trkpt>
      <trkpt lat="44.50573" lon="5.8833">
        <ele>941</ele>
        <time>2019-06-12T13:39:30Z</time>
      </trkpt>
      <trkpt lat="44.50577" lon="5.88326">
        <ele>941</ele>
        <time>2019-06-12T13:39:31Z</time>
      </trkpt>
      <trkpt lat="44.50582" lon="5.88322">
        <ele>941</ele>
        <time>2019-06-12T13:39:32Z</time>
      </trkpt>
      <trkpt lat="44.50587" lon="5.88319">
        <ele>941</ele>
        <time>2019-06-12T13:39:33Z</time>
      </trkpt>
      <trkpt lat="44.50592" lon="5.88315">
        <ele>941</ele>
        <time>2019-06-12T13:39:34Z</time>
      </trkpt>
      <trkpt lat="44.50598" lon="5.88311">
        <ele>941</ele>
        <time>2019-06-12T13:39:35Z</time>
      </trkpt>
      <trkpt lat="44.50603" lon="5.88307">
        <ele>941</ele>
        <time>2019-06-12T13:39:36Z</time>
      </trkpt>
      <trkpt lat="44.50609" lon="5.88303">
        <ele>941</ele>
        <time>2019-06-12T13:39:37Z</time>
      </trkpt>
      <trkpt lat="44.50614" lon="5.88298">
        <ele>941</ele>
        <time>2019-06-12T13:39:38Z</time>
      </trkpt>
      <trkpt lat="44.5062" lon="5.88293">
        <ele>941</ele>
        <time>2019-06-12T13:39:39Z</time>
      </trkpt>
      <trkpt lat="44.50626" lon="5.88289">
        <ele>941</ele>
        <time>2019-06-12T13:39:40Z</time>
      </trkpt>
      <trkpt lat="44.50632" lon="5.88284">
        <ele>941</ele>
        <time>2019-06-12T13:39:41Z</time>
      </trkpt>
      <trkpt lat="44.50638" lon="5.88279">
        <ele>941</ele>
        <time>2019-06-12T13:39:42Z</time>
      </trkpt>
      <trkpt lat="44.50644" lon="5.88274">
        <ele>941</ele>
        <time>2019-06-12T13:39:43Z</time>
      </trkpt>
      <trkpt lat="44.5065" lon="5.88269">
        <ele>941</ele>
        <time>2019-06-12T13:39:44Z</time>
      </trkpt>
      <trkpt lat="44.50655" lon="5.88264">
        <ele>941</ele>
        <time>2019-06-12T13:39:45Z</time>
      </trkpt>
      <trkpt lat="44.50662" lon="5.88259">
        <ele>941</ele>
        <time>2019-06-12T13:39:46Z</time>
      </trkpt>
      <trkpt lat="44.50668" lon="5.88254">
        <ele>941</ele>
        <time>2019-06-12T13:39:47Z</time>
      </trkpt>
      <trkpt lat="44.50674" lon="5.88249">
        <ele>940</ele>
        <time>2019-06-12T13:39:48Z</time>
      </trkpt>
      <trkpt lat="44.50681" lon="5.88244">
        <ele>940</ele>
        <time>2019-06-12T13:39:49Z</time>
      </trkpt>
      <trkpt lat="44.50687" lon="5.88239">
        <ele>940</ele>
        <time>2019-06-12T13:39:50Z</time>
      </trkpt>
      <trkpt lat="44.50693" lon="5.88234">
        <ele>940</ele>
        <time>2019-06-12T13:39:51Z</time>
      </trkpt>
      <trkpt lat="44.50699" lon="5.88229">
        <ele>940</ele>
        <time>2019-06-12T13:39:52Z</time>
      </trkpt>
      <trkpt lat="44.50706" lon="5.88224">
        <ele>939</ele>
        <time>2019-06-12T13:39:53Z</time>
      </trkpt>
      <trkpt lat="44.50712" lon="5.88219">
        <ele>939</ele>
        <time>2019-06-12T13:39:54Z</time>
      </trkpt>
      <trkpt lat="44.50718" lon="5.88214">
        <ele>939</ele>
        <time>2019-06-12T13:39:55Z</time>
      </trkpt>
      <trkpt lat="44.50724" lon="5.88209">
        <ele>939</ele>
        <time>2019-06-12T13:39:56Z</time>
      </trkpt>
      <trkpt lat="44.5073" lon="5.88204">
        <ele>939</ele>
        <time>2019-06-12T13:39:57Z</time>
      </trkpt>
      <trkpt lat="44.50736" lon="5.882">
        <ele>938</ele>
        <time>2019-06-12T13:39:58Z</time>
      </trkpt>
      <trkpt lat="44.50742" lon="5.88195">
        <ele>938</ele>
        <time>2019-06-12T13:39:59Z</time>
      </trkpt>
      <trkpt lat="44.50748" lon="5.8819">
        <ele>938</ele>
        <time>2019-06-12T13:40:00Z</time>
      </trkpt>
      <trkpt lat="44.50754" lon="5.88185">
        <ele>938</ele>
        <time>2019-06-12T13:40:01Z</time>
      </trkpt>
      <trkpt lat="44.5076" lon="5.8818">
        <ele>937</ele>
        <time>2019-06-12T13:40:02Z</time>
      </trkpt>
      <trkpt lat="44.50766" lon="5.88175">
        <ele>937</ele>
        <time>2019-06-12T13:40:03Z</time>
      </trkpt>
      <trkpt lat="44.50772" lon="5.8817">
        <ele>937</ele>
        <time>2019-06-12T13:40:04Z</time>
      </trkpt>
      <trkpt lat="44.50778" lon="5.88166">
        <ele>937</ele>
        <time>2019-06-12T13:40:05Z</time>
      </trkpt>
      <trkpt lat="44.50784" lon="5.88161">
        <ele>936</ele>
        <time>2019-06-12T13:40:06Z</time>
      </trkpt>
      <trkpt lat="44.5079" lon="5.88156">
        <ele>936</ele>
        <time>2019-06-12T13:40:07Z</time>
      </trkpt>
      <trkpt lat="44.50795" lon="5.88152">
        <ele>936</ele>
        <time>2019-06-12T13:40:08Z</time>
      </trkpt>
      <trkpt lat="44.50801" lon="5.88147">
        <ele>936</ele>
        <time>2019-06-12T13:40:09Z</time>
      </trkpt>
      <trkpt lat="44.50807" lon="5.88142">
        <ele>935</ele>
        <time>2019-06-12T13:40:10Z</time>
      </trkpt>
      <trkpt lat="44.50813" lon="5.88137">
        <ele>935</ele>
        <time>2019-06-12T13:40:11Z</time>
      </trkpt>
      <trkpt lat="44.50819" lon="5.88132">
        <ele>935</ele>
        <time>2019-06-12T13:40:12Z</time>
      </trkpt>
      <trkpt lat="44.50825" lon="5.88127">
        <ele>935</ele>
        <time>2019-06-12T13:40:13Z</time>
      </trkpt>
      <trkpt lat="44.50831" lon="5.88123">
        <ele>934</ele>
        <time>2019-06-12T13:40:14Z</time>
      </trkpt>
      <trkpt lat="44.50837" lon="5.88118">
        <ele>934</ele>
        <time>2019-06-12T13:40:15Z</time>
      </trkpt>
      <trkpt lat="44.50843" lon="5.88113">
        <ele>934</ele>
        <time>2019-06-12T13:40:16Z</time>
      </trkpt>
      <trkpt lat="44.50849" lon="5.88109">
        <ele>934</ele>
        <time>2019-06-12T13:40:17Z</time>
      </trkpt>
      <trkpt lat="44.50855" lon="5.88104">
        <ele>934</ele>
        <time>2019-06-12T13:40:18Z</time>
      </trkpt>
      <trkpt lat="44.5086" lon="5.881">
        <ele>934</ele>
        <time>2019-06-12T13:40:19Z</time>
      </trkpt>
      <trkpt lat="44.50866" lon="5.88095">
        <ele>933</ele>
        <time>2019-06-12T13:40:20Z</time>
      </trkpt>
      <trkpt lat="44.50871" lon="5.88091">
        <ele>933</ele>
        <time>2019-06-12T13:40:21Z</time>
      </trkpt>
      <trkpt lat="44.50877" lon="5.88087">
        <ele>933</ele>
        <time>2019-06-12T13:40:22Z</time>
      </trkpt>
      <trkpt lat="44.50882" lon="5.88082">
        <ele>933</ele>
        <time>2019-06-12T13:40:23Z</time>
      </trkpt>
      <trkpt lat="44.50888" lon="5.88078">
        <ele>933</ele>
        <time>2019-06-12T13:40:24Z</time>
      </trkpt>
      <trkpt lat="44.50893" lon="5.88073">
        <ele>932</ele>
        <time>2019-06-12T13:40:25Z</time>
      </trkpt>
      <trkpt lat="44.50899" lon="5.88069">
        <ele>932</ele>
        <time>2019-06-12T13:40:26Z</time>
      </trkpt>
      <trkpt lat="44.50904" lon="5.88064">
        <ele>932</ele>
        <time>2019-06-12T13:40:27Z</time>
      </trkpt>
      <trkpt lat="44.5091" lon="5.8806">
        <ele>932</ele>
        <time>2019-06-12T13:40:28Z</time>
      </trkpt>
      <trkpt lat="44.50916" lon="5.88055">
        <ele>932</ele>
        <time>2019-06-12T13:40:29Z</time>
      </trkpt>
      <trkpt lat="44.50922" lon="5.88051">
        <ele>931</ele>
        <time>2019-06-12T13:40:30Z</time>
      </trkpt>
      <trkpt lat="44.50928" lon="5.88046">
        <ele>931</ele>
        <time>2019-06-12T13:40:31Z</time>
      </trkpt>
      <trkpt lat="44.50933" lon="5.88041">
        <ele>931</ele>
        <time>2019-06-12T13:40:32Z</time>
      </trkpt>
      <trkpt lat="44.5094" lon="5.88036">
        <ele>931</ele>
        <time>2019-06-12T13:40:33Z</time>
      </trkpt>
      <trkpt lat="44.50946" lon="5.88031">
        <ele>931</ele>
        <time>2019-06-12T13:40:34Z</time>
      </trkpt>
      <trkpt lat="44.50952" lon="5.88026">
        <ele>930</ele>
        <time>2019-06-12T13:40:35Z</time>
      </trkpt>
      <trkpt lat="44.50958" lon="5.88021">
        <ele>930</ele>
        <time>2019-06-12T13:40:36Z</time>
      </trkpt>
      <trkpt lat="44.50964" lon="5.88017">
        <ele>930</ele>
        <time>2019-06-12T13:40:37Z</time>
      </trkpt>
      <trkpt lat="44.5097" lon="5.88012">
        <ele>930</ele>
        <time>2019-06-12T13:40:38Z</time>
      </trkpt>
      <trkpt lat="44.50976" lon="5.88007">
        <ele>929</ele>
        <time>2019-06-12T13:40:39Z</time>
      </trkpt>
      <trkpt lat="44.50982" lon="5.88002">
        <ele>929</ele>
        <time>2019-06-12T13:40:40Z</time>
      </trkpt>
      <trkpt lat="44.50988" lon="5.87997">
        <ele>929</ele>
        <time>2019-06-12T13:40:41Z</time>
      </trkpt>
      <trkpt lat="44.50994" lon="5.87993">
        <ele>929</ele>
        <time>2019-06-12T13:40:42Z</time>
      </trkpt>
      <trkpt lat="44.50999" lon="5.87988">
        <ele>929</ele>
        <time>2019-06-12T13:40:43Z</time>
      </trkpt>
      <trkpt lat="44.51005" lon="5.87984">
        <ele>929</ele>
        <time>2019-06-12T13:40:44Z</time>
      </trkpt>
      <trkpt lat="44.5101" lon="5.8798">
        <ele>929</ele>
        <time>2019-06-12T13:40:45Z</time>
      </trkpt>
      <trkpt lat="44.51016" lon="5.87975">
        <ele>929</ele>
        <time>2019-06-12T13:40:46Z</time>
      </trkpt>
      <trkpt lat="44.51021" lon="5.87971">
        <ele>928</ele>
        <time>2019-06-12T13:40:47Z</time>
      </trkpt>
      <trkpt lat="44.51026" lon="5.87967">
        <ele>928</ele>
        <time>2019-06-12T13:40:48Z</time>
      </trkpt>
      <trkpt lat="44.51031" lon="5.87963">
        <ele>928</ele>
        <time>2019-06-12T13:40:49Z</time>
      </trkpt>
      <trkpt lat="44.51036" lon="5.87959">
        <ele>928</ele>
        <time>2019-06-12T13:40:50Z</time>
      </trkpt>
      <trkpt lat="44.51041" lon="5.87955">
        <ele>928</ele>
        <time>2019-06-12T13:40:51Z</time>
      </trkpt>
      <trkpt lat="44.51046" lon="5.87951">
        <ele>928</ele>
        <time>2019-06-12T13:40:52Z</time>
      </trkpt>
      <trkpt lat="44.51051" lon="5.87947">
        <ele>928</ele>
        <time>2019-06-12T13:40:53Z</time>
      </trkpt>
      <trkpt lat="44.51056" lon="5.87943">
        <ele>927</ele>
        <time>2019-06-12T13:40:54Z</time>
      </trkpt>
      <trkpt lat="44.51061" lon="5.87939">
        <ele>927</ele>
        <time>2019-06-12T13:40:55Z</time>
      </trkpt>
      <trkpt lat="44.51066" lon="5.87935">
        <ele>927</ele>
        <time>2019-06-12T13:40:56Z</time>
      </trkpt>
      <trkpt lat="44.51071" lon="5.87931">
        <ele>927</ele>
        <time>2019-06-12T13:40:57Z</time>
      </trkpt>
      <trkpt lat="44.51076" lon="5.87927">
        <ele>926</ele>
        <time>2019-06-12T13:40:58Z</time>
      </trkpt>
      <trkpt lat="44.5108" lon="5.87923">
        <ele>926</ele>
        <time>2019-06-12T13:40:59Z</time>
      </trkpt>
      <trkpt lat="44.51085" lon="5.8792">
        <ele>926</ele>
        <time>2019-06-12T13:41:00Z</time>
      </trkpt>
      <trkpt lat="44.5109" lon="5.87917">
        <ele>926</ele>
        <time>2019-06-12T13:41:01Z</time>
      </trkpt>
      <trkpt lat="44.51094" lon="5.87913">
        <ele>925</ele>
        <time>2019-06-12T13:41:02Z</time>
      </trkpt>
      <trkpt lat="44.51099" lon="5.87909">
        <ele>925</ele>
        <time>2019-06-12T13:41:03Z</time>
      </trkpt>
      <trkpt lat="44.51103" lon="5.87906">
        <ele>925</ele>
        <time>2019-06-12T13:41:04Z</time>
      </trkpt>
      <trkpt lat="44.51107" lon="5.87902">
        <ele>925</ele>
        <time>2019-06-12T13:41:05Z</time>
      </trkpt>
      <trkpt lat="44.51111" lon="5.87899">
        <ele>924</ele>
        <time>2019-06-12T13:41:06Z</time>
      </trkpt>
      <trkpt lat="44.51115" lon="5.87896">
        <ele>924</ele>
        <time>2019-06-12T13:41:07Z</time>
      </trkpt>
      <trkpt lat="44.51119" lon="5.87893">
        <ele>924</ele>
        <time>2019-06-12T13:41:08Z</time>
      </trkpt>
      <trkpt lat="44.51122" lon="5.8789">
        <ele>924</ele>
        <time>2019-06-12T13:41:09Z</time>
      </trkpt>
      <trkpt lat="44.51125" lon="5.87887">
        <ele>923</ele>
        <time>2019-06-12T13:41:10Z</time>
      </trkpt>
      <trkpt lat="44.51128" lon="5.87884">
        <ele>923</ele>
        <time>2019-06-12T13:41:11Z</time>
      </trkpt>
      <trkpt lat="44.51131" lon="5.87882">
        <ele>923</ele>
        <time>2019-06-12T13:41:12Z</time>
      </trkpt>
      <trkpt lat="44.51133" lon="5.87879">
        <ele>923</ele>
        <time>2019-06-12T13:41:13Z</time>
      </trkpt>
      <trkpt lat="44.51136" lon="5.87875">
        <ele>923</ele>
        <time>2019-06-12T13:41:14Z</time>
      </trkpt>
      <trkpt lat="44.51137" lon="5.8787">
        <ele>922</ele>
        <time>2019-06-12T13:41:15Z</time>
      </trkpt>
      <trkpt lat="44.51136" lon="5.87864">
        <ele>922</ele>
        <time>2019-06-12T13:41:16Z</time>
      </trkpt>
      <trkpt lat="44.51135" lon="5.87858">
        <ele>922</ele>
        <time>2019-06-12T13:41:17Z</time>
      </trkpt>
      <trkpt lat="44.51133" lon="5.87852">
        <ele>922</ele>
        <time>2019-06-12T13:41:18Z</time>
      </trkpt>
      <trkpt lat="44.5113" lon="5.87846">
        <ele>922</ele>
        <time>2019-06-12T13:41:19Z</time>
      </trkpt>
      <trkpt lat="44.51127" lon="5.8784">
        <ele>922</ele>
        <time>2019-06-12T13:41:20Z</time>
      </trkpt>
      <trkpt lat="44.51124" lon="5.87833">
        <ele>922</ele>
        <time>2019-06-12T13:41:21Z</time>
      </trkpt>
      <trkpt lat="44.51122" lon="5.87826">
        <ele>922</ele>
        <time>2019-06-12T13:41:22Z</time>
      </trkpt>
      <trkpt lat="44.5112" lon="5.87818">
        <ele>922</ele>
        <time>2019-06-12T13:41:23Z</time>
      </trkpt>
      <trkpt lat="44.51118" lon="5.87811">
        <ele>922</ele>
        <time>2019-06-12T13:41:24Z</time>
      </trkpt>
      <trkpt lat="44.51117" lon="5.87803">
        <ele>922</ele>
        <time>2019-06-12T13:41:25Z</time>
      </trkpt>
      <trkpt lat="44.51116" lon="5.87796">
        <ele>922</ele>
        <time>2019-06-12T13:41:26Z</time>
      </trkpt>
      <trkpt lat="44.51116" lon="5.87788">
        <ele>922</ele>
        <time>2019-06-12T13:41:27Z</time>
      </trkpt>
      <trkpt lat="44.51115" lon="5.87782">
        <ele>922</ele>
        <time>2019-06-12T13:41:28Z</time>
      </trkpt>
      <trkpt lat="44.51115" lon="5.87775">
        <ele>922</ele>
        <time>2019-06-12T13:41:29Z</time>
      </trkpt>
      <trkpt lat="44.51115" lon="5.87769">
        <ele>922</ele>
        <time>2019-06-12T13:41:30Z</time>
      </trkpt>
      <trkpt lat="44.51114" lon="5.87763">
        <ele>922</ele>
        <time>2019-06-12T13:41:31Z</time>
      </trkpt>
      <trkpt lat="44.51114" lon="5.87758">
        <ele>922</ele>
        <time>2019-06-12T13:41:32Z</time>
      </trkpt>
      <trkpt lat="44.51114" lon="5.87752">
        <ele>922</ele>
        <time>2019-06-12T13:41:33Z</time>
      </trkpt>
      <trkpt lat="44.51114" lon="5.87747">
        <ele>922</ele>
        <time>2019-06-12T13:41:34Z</time>
      </trkpt>
      <trkpt lat="44.51114" lon="5.87742">
        <ele>922</ele>
        <time>2019-06-12T13:41:35Z</time>
      </trkpt>
      <trkpt lat="44.51114" lon="5.87737">
        <ele>923</ele>
        <time>2019-06-12T13:41:36Z</time>
      </trkpt>
      <trkpt lat="44.51113" lon="5.87732">
        <ele>923</ele>
        <time>2019-06-12T13:41:37Z</time>
      </trkpt>
      <trkpt lat="44.51113" lon="5.87726">
        <ele>923</ele>
        <time>2019-06-12T13:41:38Z</time>
      </trkpt>
      <trkpt lat="44.51113" lon="5.87721">
        <ele>924</ele>
        <time>2019-06-12T13:41:39Z</time>
      </trkpt>
      <trkpt lat="44.51113" lon="5.87716">
        <ele>924</ele>
        <time>2019-06-12T13:41:40Z</time>
      </trkpt>
      <trkpt lat="44.51112" lon="5.87712">
        <ele>924</ele>
        <time>2019-06-12T13:41:41Z</time>
      </trkpt>
      <trkpt lat="44.51112" lon="5.87707">
        <ele>924</ele>
        <time>2019-06-12T13:41:42Z</time>
      </trkpt>
      <trkpt lat="44.51112" lon="5.87702">
        <ele>924</ele>
        <time>2019-06-12T13:41:43Z</time>
      </trkpt>
      <trkpt lat="44.51112" lon="5.87698">
        <ele>924</ele>
        <time>2019-06-12T13:41:44Z</time>
      </trkpt>
      <trkpt lat="44.51112" lon="5.87693">
        <ele>925</ele>
        <time>2019-06-12T13:41:45Z</time>
      </trkpt>
      <trkpt lat="44.51112" lon="5.87688">
        <ele>925</ele>
        <time>2019-06-12T13:41:46Z</time>
      </trkpt>
      <trkpt lat="44.51112" lon="5.87684">
        <ele>925</ele>
        <time>2019-06-12T13:41:47Z</time>
      </trkpt>
      <trkpt lat="44.51112" lon="5.87679">
        <ele>925</ele>
        <time>2019-06-12T13:41:48Z</time>
      </trkpt>
      <trkpt lat="44.51112" lon="5.87675">
        <ele>925</ele>
        <time>2019-06-12T13:41:49Z</time>
      </trkpt>
      <trkpt lat="44.51112" lon="5.8767">
        <ele>925</ele>
        <time>2019-06-12T13:41:50Z</time>
      </trkpt>
      <trkpt lat="44.51111" lon="5.87665">
        <ele>925</ele>
        <time>2019-06-12T13:41:51Z</time>
      </trkpt>
      <trkpt lat="44.51111" lon="5.87661">
        <ele>925</ele>
        <time>2019-06-12T13:41:52Z</time>
      </trkpt>
      <trkpt lat="44.51111" lon="5.87656">
        <ele>925</ele>
        <time>2019-06-12T13:41:53Z</time>
      </trkpt>
      <trkpt lat="44.51111" lon="5.87651">
        <ele>926</ele>
        <time>2019-06-12T13:41:54Z</time>
      </trkpt>
      <trkpt lat="44.51111" lon="5.87646">
        <ele>926</ele>
        <time>2019-06-12T13:41:55Z</time>
      </trkpt>
      <trkpt lat="44.51112" lon="5.87641">
        <ele>926</ele>
        <time>2019-06-12T13:41:56Z</time>
      </trkpt>
      <trkpt lat="44.51112" lon="5.87636">
        <ele>926</ele>
        <time>2019-06-12T13:41:57Z</time>
      </trkpt>
      <trkpt lat="44.51112" lon="5.87631">
        <ele>926</ele>
        <time>2019-06-12T13:41:58Z</time>
      </trkpt>
      <trkpt lat="44.51112" lon="5.87626">
        <ele>927</ele>
        <time>2019-06-12T13:41:59Z</time>
      </trkpt>
      <trkpt lat="44.51112" lon="5.87621">
        <ele>927</ele>
        <time>2019-06-12T13:42:00Z</time>
      </trkpt>
      <trkpt lat="44.51112" lon="5.87616">
        <ele>927</ele>
        <time>2019-06-12T13:42:01Z</time>
      </trkpt>
      <trkpt lat="44.51112" lon="5.87611">
        <ele>927</ele>
        <time>2019-06-12T13:42:02Z</time>
      </trkpt>
      <trkpt lat="44.51112" lon="5.87607">
        <ele>927</ele>
        <time>2019-06-12T13:42:03Z</time>
      </trkpt>
      <trkpt lat="44.51112" lon="5.87603">
        <ele>927</ele>
        <time>2019-06-12T13:42:04Z</time>
      </trkpt>
      <trkpt lat="44.51112" lon="5.876">
        <ele>927</ele>
        <time>2019-06-12T13:42:05Z</time>
      </trkpt>
      <trkpt lat="44.51112" lon="5.87596">
        <ele>928</ele>
        <time>2019-06-12T13:42:06Z</time>
      </trkpt>
      <trkpt lat="44.51112" lon="5.87592">
        <ele>928</ele>
        <time>2019-06-12T13:42:07Z</time>
      </trkpt>
      <trkpt lat="44.51111" lon="5.87588">
        <ele>928</ele>
        <time>2019-06-12T13:42:08Z</time>
      </trkpt>
      <trkpt lat="44.5111" lon="5.87583">
        <ele>928</ele>
        <time>2019-06-12T13:42:09Z</time>
      </trkpt>
      <trkpt lat="44.5111" lon="5.8758">
        <ele>928</ele>
        <time>2019-06-12T13:42:10Z</time>
      </trkpt>
      <trkpt lat="44.5111" lon="5.87576">
        <ele>928</ele>
        <time>2019-06-12T13:42:11Z</time>
      </trkpt>
      <trkpt lat="44.51109" lon="5.87571">
        <ele>929</ele>
        <time>2019-06-12T13:42:12Z</time>
      </trkpt>
      <trkpt lat="44.51109" lon="5.87567">
        <ele>929</ele>
        <time>2019-06-12T13:42:13Z</time>
      </trkpt>
      <trkpt lat="44.51108" lon="5.87563">
        <ele>929</ele>
        <time>2019-06-12T13:42:14Z</time>
      </trkpt>
      <trkpt lat="44.51107" lon="5.87559">
        <ele>929</ele>
        <time>2019-06-12T13:42:15Z</time>
      </trkpt>
      <trkpt lat="44.51107" lon="5.87555">
        <ele>930</ele>
        <time>2019-06-12T13:42:16Z</time>
      </trkpt>
      <trkpt lat="44.51107" lon="5.87551">
        <ele>930</ele>
        <time>2019-06-12T13:42:17Z</time>
      </trkpt>
      <trkpt lat="44.51108" lon="5.87548">
        <ele>930</ele>
        <time>2019-06-12T13:42:18Z</time>
      </trkpt>
      <trkpt lat="44.51108" lon="5.87544">
        <ele>930</ele>
        <time>2019-06-12T13:42:19Z</time>
      </trkpt>
      <trkpt lat="44.51107" lon="5.8754">
        <ele>931</ele>
        <time>2019-06-12T13:42:20Z</time>
      </trkpt>
      <trkpt lat="44.51107" lon="5.87536">
        <ele>931</ele>
        <time>2019-06-12T13:42:21Z</time>
      </trkpt>
      <trkpt lat="44.51106" lon="5.87533">
        <ele>931</ele>
        <time>2019-06-12T13:42:22Z</time>
      </trkpt>
      <trkpt lat="44.51107" lon="5.8753">
        <ele>931</ele>
        <time>2019-06-12T13:42:23Z</time>
      </trkpt>
      <trkpt lat="44.51107" lon="5.87527">
        <ele>931</ele>
        <time>2019-06-12T13:42:24Z</time>
      </trkpt>
      <trkpt lat="44.51107" lon="5.87523">
        <ele>931</ele>
        <time>2019-06-12T13:42:25Z</time>
      </trkpt>
      <trkpt lat="44.51107" lon="5.87519">
        <ele>931</ele>
        <time>2019-06-12T13:42:26Z</time>
      </trkpt>
      <trkpt lat="44.51107" lon="5.87515">
        <ele>932</ele>
        <time>2019-06-12T13:42:27Z</time>
      </trkpt>
      <trkpt lat="44.51107" lon="5.87511">
        <ele>932</ele>
        <time>2019-06-12T13:42:28Z</time>
      </trkpt>
      <trkpt lat="44.51107" lon="5.87507">
        <ele>932</ele>
        <time>2019-06-12T13:42:29Z</time>
      </trkpt>
      <trkpt lat="44.51107" lon="5.87502">
        <ele>932</ele>
        <time>2019-06-12T13:42:30Z</time>
      </trkpt>
      <trkpt lat="44.51107" lon="5.87498">
        <ele>932</ele>
        <time>2019-06-12T13:42:31Z</time>
      </trkpt>
      <trkpt lat="44.51107" lon="5.87494">
        <ele>932</ele>
        <time>2019-06-12T13:42:32Z</time>
      </trkpt>
      <trkpt lat="44.51107" lon="5.8749">
        <ele>932</ele>
        <time>2019-06-12T13:42:33Z</time>
      </trkpt>
      <trkpt lat="44.51107" lon="5.87485">
        <ele>933</ele>
        <time>2019-06-12T13:42:34Z</time>
      </trkpt>
      <trkpt lat="44.51106" lon="5.87481">
        <ele>933</ele>
        <time>2019-06-12T13:42:35Z</time>
      </trkpt>
      <trkpt lat="44.51106" lon="5.87477">
        <ele>933</ele>
        <time>2019-06-12T13:42:36Z</time>
      </trkpt>
      <trkpt lat="44.51106" lon="5.87472">
        <ele>933</ele>
        <time>2019-06-12T13:42:37Z</time>
      </trkpt>
      <trkpt lat="44.51106" lon="5.87468">
        <ele>934</ele>
        <time>2019-06-12T13:42:38Z</time>
      </trkpt>
      <trkpt lat="44.51106" lon="5.87464">
        <ele>934</ele>
        <time>2019-06-12T13:42:39Z</time>
      </trkpt>
      <trkpt lat="44.51106" lon="5.8746">
        <ele>934</ele>
        <time>2019-06-12T13:42:40Z</time>
      </trkpt>
      <trkpt lat="44.51106" lon="5.87457">
        <ele>934</ele>
        <time>2019-06-12T13:42:41Z</time>
      </trkpt>
      <trkpt lat="44.51106" lon="5.87453">
        <ele>934</ele>
        <time>2019-06-12T13:42:42Z</time>
      </trkpt>
      <trkpt lat="44.51106" lon="5.87448">
        <ele>935</ele>
        <time>2019-06-12T13:42:43Z</time>
      </trkpt>
      <trkpt lat="44.51106" lon="5.87444">
        <ele>935</ele>
        <time>2019-06-12T13:42:44Z</time>
      </trkpt>
      <trkpt lat="44.51105" lon="5.8744">
        <ele>935</ele>
        <time>2019-06-12T13:42:45Z</time>
      </trkpt>
      <trkpt lat="44.51105" lon="5.87436">
        <ele>936</ele>
        <time>2019-06-12T13:42:46Z</time>
      </trkpt>
      <trkpt lat="44.51105" lon="5.87432">
        <ele>936</ele>
        <time>2019-06-12T13:42:47Z</time>
      </trkpt>
      <trkpt lat="44.51104" lon="5.87429">
        <ele>936</ele>
        <time>2019-06-12T13:42:48Z</time>
      </trkpt>
      <trkpt lat="44.51104" lon="5.87425">
        <ele>936</ele>
        <time>2019-06-12T13:42:49Z</time>
      </trkpt>
      <trkpt lat="44.51104" lon="5.87421">
        <ele>937</ele>
        <time>2019-06-12T13:42:50Z</time>
      </trkpt>
      <trkpt lat="44.51104" lon="5.87417">
        <ele>937</ele>
        <time>2019-06-12T13:42:51Z</time>
      </trkpt>
      <trkpt lat="44.51104" lon="5.87413">
        <ele>937</ele>
        <time>2019-06-12T13:42:52Z</time>
      </trkpt>
      <trkpt lat="44.51104" lon="5.87409">
        <ele>938</ele>
        <time>2019-06-12T13:42:53Z</time>
      </trkpt>
      <trkpt lat="44.51104" lon="5.87405">
        <ele>938</ele>
        <time>2019-06-12T13:42:54Z</time>
      </trkpt>
      <trkpt lat="44.51104" lon="5.87401">
        <ele>938</ele>
        <time>2019-06-12T13:42:55Z</time>
      </trkpt>
      <trkpt lat="44.51104" lon="5.87396">
        <ele>938</ele>
        <time>2019-06-12T13:42:56Z</time>
      </trkpt>
      <trkpt lat="44.51104" lon="5.87393">
        <ele>939</ele>
        <time>2019-06-12T13:42:57Z</time>
      </trkpt>
      <trkpt lat="44.51104" lon="5.87388">
        <ele>939</ele>
        <time>2019-06-12T13:42:58Z</time>
      </trkpt>
      <trkpt lat="44.51104" lon="5.87384">
        <ele>939</ele>
        <time>2019-06-12T13:42:59Z</time>
      </trkpt>
      <trkpt lat="44.51105" lon="5.8738">
        <ele>940</ele>
        <time>2019-06-12T13:43:00Z</time>
      </trkpt>
      <trkpt lat="44.51105" lon="5.87375">
        <ele>940</ele>
        <time>2019-06-12T13:43:01Z</time>
      </trkpt>
      <trkpt lat="44.51105" lon="5.87371">
        <ele>940</ele>
        <time>2019-06-12T13:43:02Z</time>
      </trkpt>
      <trkpt lat="44.51105" lon="5.87367">
        <ele>940</ele>
        <time>2019-06-12T13:43:03Z</time>
      </trkpt>
      <trkpt lat="44.51105" lon="5.87362">
        <ele>941</ele>
        <time>2019-06-12T13:43:04Z</time>
      </trkpt>
      <trkpt lat="44.51105" lon="5.87358">
        <ele>941</ele>
        <time>2019-06-12T13:43:05Z</time>
      </trkpt>
      <trkpt lat="44.51106" lon="5.87354">
        <ele>941</ele>
        <time>2019-06-12T13:43:06Z</time>
      </trkpt>
      <trkpt lat="44.51106" lon="5.8735">
        <ele>941</ele>
        <time>2019-06-12T13:43:07Z</time>
      </trkpt>
      <trkpt lat="44.51106" lon="5.87345">
        <ele>942</ele>
        <time>2019-06-12T13:43:08Z</time>
      </trkpt>
      <trkpt lat="44.51106" lon="5.87341">
        <ele>942</ele>
        <time>2019-06-12T13:43:09Z</time>
      </trkpt>
      <trkpt lat="44.51106" lon="5.87336">
        <ele>942</ele>
        <time>2019-06-12T13:43:10Z</time>
      </trkpt>
      <trkpt lat="44.51107" lon="5.87332">
        <ele>942</ele>
        <time>2019-06-12T13:43:11Z</time>
      </trkpt>
      <trkpt lat="44.51107" lon="5.87327">
        <ele>942</ele>
        <time>2019-06-12T13:43:12Z</time>
      </trkpt>
      <trkpt lat="44.51107" lon="5.87323">
        <ele>942</ele>
        <time>2019-06-12T13:43:13Z</time>
      </trkpt>
      <trkpt lat="44.51107" lon="5.87319">
        <ele>943</ele>
        <time>2019-06-12T13:43:14Z</time>
      </trkpt>
      <trkpt lat="44.51108" lon="5.87314">
        <ele>943</ele>
        <time>2019-06-12T13:43:15Z</time>
      </trkpt>
      <trkpt lat="44.51108" lon="5.8731">
        <ele>943</ele>
        <time>2019-06-12T13:43:16Z</time>
      </trkpt>
      <trkpt lat="44.51109" lon="5.87306">
        <ele>943</ele>
        <time>2019-06-12T13:43:17Z</time>
      </trkpt>
      <trkpt lat="44.51109" lon="5.87302">
        <ele>943</ele>
        <time>2019-06-12T13:43:18Z</time>
      </trkpt>
      <trkpt lat="44.51109" lon="5.87297">
        <ele>944</ele>
        <time>2019-06-12T13:43:19Z</time>
      </trkpt>
      <trkpt lat="44.5111" lon="5.87293">
        <ele>944</ele>
        <time>2019-06-12T13:43:20Z</time>
      </trkpt>
      <trkpt lat="44.5111" lon="5.87289">
        <ele>944</ele>
        <time>2019-06-12T13:43:21Z</time>
      </trkpt>
      <trkpt lat="44.5111" lon="5.87284">
        <ele>944</ele>
        <time>2019-06-12T13:43:22Z</time>
      </trkpt>
      <trkpt lat="44.51111" lon="5.87279">
        <ele>944</ele>
        <time>2019-06-12T13:43:23Z</time>
      </trkpt>
      <trkpt lat="44.51111" lon="5.87275">
        <ele>945</ele>
        <time>2019-06-12T13:43:24Z</time>
      </trkpt>
      <trkpt lat="44.51112" lon="5.8727">
        <ele>945</ele>
        <time>2019-06-12T13:43:25Z</time>
      </trkpt>
      <trkpt lat="44.51112" lon="5.87265">
        <ele>945</ele>
        <time>2019-06-12T13:43:26Z</time>
      </trkpt>
      <trkpt lat="44.51112" lon="5.8726">
        <ele>945</ele>
        <time>2019-06-12T13:43:27Z</time>
      </trkpt>
      <trkpt lat="44.51113" lon="5.87255">
        <ele>945</ele>
        <time>2019-06-12T13:43:28Z</time>
      </trkpt>
      <trkpt lat="44.51113" lon="5.8725">
        <ele>945</ele>
        <time>2019-06-12T13:43:29Z</time>
      </trkpt>
      <trkpt lat="44.51113" lon="5.87244">
        <ele>946</ele>
        <time>2019-06-12T13:43:30Z</time>
      </trkpt>
      <trkpt lat="44.51113" lon="5.87239">
        <ele>946</ele>
        <time>2019-06-12T13:43:31Z</time>
      </trkpt>
      <trkpt lat="44.51114" lon="5.87233">
        <ele>946</ele>
        <time>2019-06-12T13:43:32Z</time>
      </trkpt>
      <trkpt lat="44.51114" lon="5.87227">
        <ele>946</ele>
        <time>2019-06-12T13:43:33Z</time>
      </trkpt>
      <trkpt lat="44.51114" lon="5.87221">
        <ele>946</ele>
        <time>2019-06-12T13:43:34Z</time>
      </trkpt>
      <trkpt lat="44.51115" lon="5.87215">
        <ele>946</ele>
        <time>2019-06-12T13:43:35Z</time>
      </trkpt>
      <trkpt lat="44.51115" lon="5.8721">
        <ele>946</ele>
        <time>2019-06-12T13:43:36Z</time>
      </trkpt>
      <trkpt lat="44.51115" lon="5.87203">
        <ele>946</ele>
        <time>2019-06-12T13:43:37Z</time>
      </trkpt>
      <trkpt lat="44.51116" lon="5.87197">
        <ele>947</ele>
        <time>2019-06-12T13:43:38Z</time>
      </trkpt>
      <trkpt lat="44.51116" lon="5.87191">
        <ele>947</ele>
        <time>2019-06-12T13:43:39Z</time>
      </trkpt>
      <trkpt lat="44.51117" lon="5.87186">
        <ele>947</ele>
        <time>2019-06-12T13:43:40Z</time>
      </trkpt>
      <trkpt lat="44.51118" lon="5.87179">
        <ele>947</ele>
        <time>2019-06-12T13:43:41Z</time>
      </trkpt>
      <trkpt lat="44.51118" lon="5.87173">
        <ele>947</ele>
        <time>2019-06-12T13:43:42Z</time>
      </trkpt>
      <trkpt lat="44.51118" lon="5.87167">
        <ele>947</ele>
        <time>2019-06-12T13:43:43Z</time>
      </trkpt>
      <trkpt lat="44.51119" lon="5.87161">
        <ele>947</ele>
        <time>2019-06-12T13:43:44Z</time>
      </trkpt>
      <trkpt lat="44.5112" lon="5.87156">
        <ele>947</ele>
        <time>2019-06-12T13:43:45Z</time>
      </trkpt>
      <trkpt lat="44.5112" lon="5.8715">
        <ele>947</ele>
        <time>2019-06-12T13:43:46Z</time>
      </trkpt>
      <trkpt lat="44.5112" lon="5.87145">
        <ele>947</ele>
        <time>2019-06-12T13:43:47Z</time>
      </trkpt>
      <trkpt lat="44.5112" lon="5.8714">
        <ele>947</ele>
        <time>2019-06-12T13:43:48Z</time>
      </trkpt>
      <trkpt lat="44.51118" lon="5.87135">
        <ele>947</ele>
        <time>2019-06-12T13:43:49Z</time>
      </trkpt>
      <trkpt lat="44.51116" lon="5.87129">
        <ele>947</ele>
        <time>2019-06-12T13:43:50Z</time>
      </trkpt>
      <trkpt lat="44.51113" lon="5.87126">
        <ele>947</ele>
        <time>2019-06-12T13:43:51Z</time>
      </trkpt>
      <trkpt lat="44.5111" lon="5.87122">
        <ele>948</ele>
        <time>2019-06-12T13:43:52Z</time>
      </trkpt>
      <trkpt lat="44.51108" lon="5.87118">
        <ele>948</ele>
        <time>2019-06-12T13:43:53Z</time>
      </trkpt>
      <trkpt lat="44.51105" lon="5.87113">
        <ele>948</ele>
        <time>2019-06-12T13:43:54Z</time>
      </trkpt>
      <trkpt lat="44.51103" lon="5.87108">
        <ele>948</ele>
        <time>2019-06-12T13:43:55Z</time>
      </trkpt>
      <trkpt lat="44.51102" lon="5.87103">
        <ele>948</ele>
        <time>2019-06-12T13:43:56Z</time>
      </trkpt>
      <trkpt lat="44.51102" lon="5.87097">
        <ele>948</ele>
        <time>2019-06-12T13:43:57Z</time>
      </trkpt>
      <trkpt lat="44.51102" lon="5.87091">
        <ele>948</ele>
        <time>2019-06-12T13:43:58Z</time>
      </trkpt>
      <trkpt lat="44.51102" lon="5.87086">
        <ele>949</ele>
        <time>2019-06-12T13:43:59Z</time>
      </trkpt>
      <trkpt lat="44.51102" lon="5.87081">
        <ele>949</ele>
        <time>2019-06-12T13:44:00Z</time>
      </trkpt>
      <trkpt lat="44.51102" lon="5.87077">
        <ele>949</ele>
        <time>2019-06-12T13:44:01Z</time>
      </trkpt>
      <trkpt lat="44.51102" lon="5.87072">
        <ele>949</ele>
        <time>2019-06-12T13:44:02Z</time>
      </trkpt>
      <trkpt lat="44.51102" lon="5.87067">
        <ele>950</ele>
        <time>2019-06-12T13:44:03Z</time>
      </trkpt>
      <trkpt lat="44.51102" lon="5.87062">
        <ele>950</ele>
        <time>2019-06-12T13:44:04Z</time>
      </trkpt>
      <trkpt lat="44.51102" lon="5.87058">
        <ele>950</ele>
        <time>2019-06-12T13:44:05Z</time>
      </trkpt>
      <trkpt lat="44.51102" lon="5.87053">
        <ele>950</ele>
        <time>2019-06-12T13:44:06Z</time>
      </trkpt>
      <trkpt lat="44.51102" lon="5.87048">
        <ele>950</ele>
        <time>2019-06-12T13:44:07Z</time>
      </trkpt>
      <trkpt lat="44.51103" lon="5.87044">
        <ele>950</ele>
        <time>2019-06-12T13:44:08Z</time>
      </trkpt>
      <trkpt lat="44.51102" lon="5.87039">
        <ele>951</ele>
        <time>2019-06-12T13:44:09Z</time>
      </trkpt>
      <trkpt lat="44.51103" lon="5.87035">
        <ele>951</ele>
        <time>2019-06-12T13:44:10Z</time>
      </trkpt>
      <trkpt lat="44.51103" lon="5.8703">
        <ele>951</ele>
        <time>2019-06-12T13:44:11Z</time>
      </trkpt>
      <trkpt lat="44.51103" lon="5.87026">
        <ele>951</ele>
        <time>2019-06-12T13:44:12Z</time>
      </trkpt>
      <trkpt lat="44.51104" lon="5.87021">
        <ele>951</ele>
        <time>2019-06-12T13:44:13Z</time>
      </trkpt>
      <trkpt lat="44.51104" lon="5.87017">
        <ele>951</ele>
        <time>2019-06-12T13:44:14Z</time>
      </trkpt>
      <trkpt lat="44.51104" lon="5.87012">
        <ele>951</ele>
        <time>2019-06-12T13:44:15Z</time>
      </trkpt>
      <trkpt lat="44.51104" lon="5.87008">
        <ele>952</ele>
        <time>2019-06-12T13:44:16Z</time>
      </trkpt>
      <trkpt lat="44.51105" lon="5.87004">
        <ele>952</ele>
        <time>2019-06-12T13:44:17Z</time>
      </trkpt>
      <trkpt lat="44.51106" lon="5.86999">
        <ele>952</ele>
        <time>2019-06-12T13:44:18Z</time>
      </trkpt>
      <trkpt lat="44.51107" lon="5.86995">
        <ele>952</ele>
        <time>2019-06-12T13:44:19Z</time>
      </trkpt>
      <trkpt lat="44.51107" lon="5.8699">
        <ele>952</ele>
        <time>2019-06-12T13:44:20Z</time>
      </trkpt>
      <trkpt lat="44.51108" lon="5.86985">
        <ele>952</ele>
        <time>2019-06-12T13:44:21Z</time>
      </trkpt>
      <trkpt lat="44.51109" lon="5.86981">
        <ele>952</ele>
        <time>2019-06-12T13:44:22Z</time>
      </trkpt>
      <trkpt lat="44.51109" lon="5.86976">
        <ele>953</ele>
        <time>2019-06-12T13:44:23Z</time>
      </trkpt>
      <trkpt lat="44.5111" lon="5.86971">
        <ele>953</ele>
        <time>2019-06-12T13:44:24Z</time>
      </trkpt>
      <trkpt lat="44.5111" lon="5.86966">
        <ele>953</ele>
        <time>2019-06-12T13:44:25Z</time>
      </trkpt>
      <trkpt lat="44.5111" lon="5.86962">
        <ele>953</ele>
        <time>2019-06-12T13:44:26Z</time>
      </trkpt>
      <trkpt lat="44.5111" lon="5.86957">
        <ele>953</ele>
        <time>2019-06-12T13:44:27Z</time>
      </trkpt>
      <trkpt lat="44.5111" lon="5.86952">
        <ele>953</ele>
        <time>2019-06-12T13:44:28Z</time>
      </trkpt>
      <trkpt lat="44.51109" lon="5.86948">
        <ele>953</ele>
        <time>2019-06-12T13:44:29Z</time>
      </trkpt>
      <trkpt lat="44.51107" lon="5.86943">
        <ele>953</ele>
        <time>2019-06-12T13:44:30Z</time>
      </trkpt>
      <trkpt lat="44.51105" lon="5.86939">
        <ele>954</ele>
        <time>2019-06-12T13:44:31Z</time>
      </trkpt>
      <trkpt lat="44.51103" lon="5.86935">
        <ele>954</ele>
        <time>2019-06-12T13:44:32Z</time>
      </trkpt>
      <trkpt lat="44.51101" lon="5.86931">
        <ele>954</ele>
        <time>2019-06-12T13:44:33Z</time>
      </trkpt>
      <trkpt lat="44.51098" lon="5.86928">
        <ele>954</ele>
        <time>2019-06-12T13:44:34Z</time>
      </trkpt>
      <trkpt lat="44.51094" lon="5.86925">
        <ele>954</ele>
        <time>2019-06-12T13:44:35Z</time>
      </trkpt>
      <trkpt lat="44.51091" lon="5.86921">
        <ele>954</ele>
        <time>2019-06-12T13:44:36Z</time>
      </trkpt>
      <trkpt lat="44.51088" lon="5.86918">
        <ele>954</ele>
        <time>2019-06-12T13:44:37Z</time>
      </trkpt>
      <trkpt lat="44.51085" lon="5.86916">
        <ele>954</ele>
        <time>2019-06-12T13:44:38Z</time>
      </trkpt>
      <trkpt lat="44.51082" lon="5.86913">
        <ele>955</ele>
        <time>2019-06-12T13:44:39Z</time>
      </trkpt>
      <trkpt lat="44.51079" lon="5.86909">
        <ele>955</ele>
        <time>2019-06-12T13:44:40Z</time>
      </trkpt>
      <trkpt lat="44.51076" lon="5.86906">
        <ele>955</ele>
        <time>2019-06-12T13:44:41Z</time>
      </trkpt>
      <trkpt lat="44.51072" lon="5.86903">
        <ele>955</ele>
        <time>2019-06-12T13:44:42Z</time>
      </trkpt>
      <trkpt lat="44.51069" lon="5.86899">
        <ele>956</ele>
        <time>2019-06-12T13:44:43Z</time>
      </trkpt>
      <trkpt lat="44.51066" lon="5.86895">
        <ele>956</ele>
        <time>2019-06-12T13:44:44Z</time>
      </trkpt>
      <trkpt lat="44.51063" lon="5.86891">
        <ele>956</ele>
        <time>2019-06-12T13:44:45Z</time>
      </trkpt>
      <trkpt lat="44.5106" lon="5.86887">
        <ele>956</ele>
        <time>2019-06-12T13:44:46Z</time>
      </trkpt>
      <trkpt lat="44.51057" lon="5.86882">
        <ele>956</ele>
        <time>2019-06-12T13:44:47Z</time>
      </trkpt>
      <trkpt lat="44.51055" lon="5.86877">
        <ele>956</ele>
        <time>2019-06-12T13:44:48Z</time>
      </trkpt>
      <trkpt lat="44.51053" lon="5.86872">
        <ele>956</ele>
        <time>2019-06-12T13:44:49Z</time>
      </trkpt>
      <trkpt lat="44.51053" lon="5.86866">
        <ele>956</ele>
        <time>2019-06-12T13:44:50Z</time>
      </trkpt>
      <trkpt lat="44.51053" lon="5.86859">
        <ele>956</ele>
        <time>2019-06-12T13:44:51Z</time>
      </trkpt>
      <trkpt lat="44.51055" lon="5.86853">
        <ele>956</ele>
        <time>2019-06-12T13:44:52Z</time>
      </trkpt>
      <trkpt lat="44.51057" lon="5.86847">
        <ele>956</ele>
        <time>2019-06-12T13:44:53Z</time>
      </trkpt>
      <trkpt lat="44.5106" lon="5.86842">
        <ele>956</ele>
        <time>2019-06-12T13:44:54Z</time>
      </trkpt>
      <trkpt lat="44.51064" lon="5.86837">
        <ele>956</ele>
        <time>2019-06-12T13:44:55Z</time>
      </trkpt>
      <trkpt lat="44.51068" lon="5.86833">
        <ele>956</ele>
        <time>2019-06-12T13:44:56Z</time>
      </trkpt>
      <trkpt lat="44.51071" lon="5.86828">
        <ele>956</ele>
        <time>2019-06-12T13:44:57Z</time>
      </trkpt>
      <trkpt lat="44.51074" lon="5.86823">
        <ele>956</ele>
        <time>2019-06-12T13:44:58Z</time>
      </trkpt>
      <trkpt lat="44.51077" lon="5.86818">
        <ele>956</ele>
        <time>2019-06-12T13:44:59Z</time>
      </trkpt>
      <trkpt lat="44.51078" lon="5.86812">
        <ele>956</ele>
        <time>2019-06-12T13:45:00Z</time>
      </trkpt>
      <trkpt lat="44.5108" lon="5.86806">
        <ele>956</ele>
        <time>2019-06-12T13:45:01Z</time>
      </trkpt>
      <trkpt lat="44.51082" lon="5.868">
        <ele>956</ele>
        <time>2019-06-12T13:45:02Z</time>
      </trkpt>
      <trkpt lat="44.51084" lon="5.86794">
        <ele>956</ele>
        <time>2019-06-12T13:45:03Z</time>
      </trkpt>
      <trkpt lat="44.51086" lon="5.86789">
        <ele>956</ele>
        <time>2019-06-12T13:45:04Z</time>
      </trkpt>
      <trkpt lat="44.51087" lon="5.86783">
        <ele>956</ele>
        <time>2019-06-12T13:45:05Z</time>
      </trkpt>
      <trkpt lat="44.51088" lon="5.86777">
        <ele>957</ele>
        <time>2019-06-12T13:45:06Z</time>
      </trkpt>
      <trkpt lat="44.5109" lon="5.86772">
        <ele>957</ele>
        <time>2019-06-12T13:45:07Z</time>
      </trkpt>
      <trkpt lat="44.51091" lon="5.86767">
        <ele>957</ele>
        <time>2019-06-12T13:45:08Z</time>
      </trkpt>
      <trkpt lat="44.51092" lon="5.86762">
        <ele>957</ele>
        <time>2019-06-12T13:45:09Z</time>
      </trkpt>
      <trkpt lat="44.51094" lon="5.86757">
        <ele>957</ele>
        <time>2019-06-12T13:45:10Z</time>
      </trkpt>
      <trkpt lat="44.51095" lon="5.86753">
        <ele>957</ele>
        <time>2019-06-12T13:45:11Z</time>
      </trkpt>
      <trkpt lat="44.51097" lon="5.86748">
        <ele>957</ele>
        <time>2019-06-12T13:45:12Z</time>
      </trkpt>
      <trkpt lat="44.51098" lon="5.86743">
        <ele>958</ele>
        <time>2019-06-12T13:45:13Z</time>
      </trkpt>
      <trkpt lat="44.51099" lon="5.86739">
        <ele>958</ele>
        <time>2019-06-12T13:45:14Z</time>
      </trkpt>
      <trkpt lat="44.51101" lon="5.86735">
        <ele>958</ele>
        <time>2019-06-12T13:45:15Z</time>
      </trkpt>
      <trkpt lat="44.51102" lon="5.86731">
        <ele>958</ele>
        <time>2019-06-12T13:45:16Z</time>
      </trkpt>
      <trkpt lat="44.51103" lon="5.86727">
        <ele>958</ele>
        <time>2019-06-12T13:45:17Z</time>
      </trkpt>
      <trkpt lat="44.51104" lon="5.86722">
        <ele>959</ele>
        <time>2019-06-12T13:45:18Z</time>
      </trkpt>
      <trkpt lat="44.51105" lon="5.86718">
        <ele>959</ele>
        <time>2019-06-12T13:45:19Z</time>
      </trkpt>
      <trkpt lat="44.51106" lon="5.86714">
        <ele>959</ele>
        <time>2019-06-12T13:45:20Z</time>
      </trkpt>
      <trkpt lat="44.51107" lon="5.86711">
        <ele>959</ele>
        <time>2019-06-12T13:45:21Z</time>
      </trkpt>
      <trkpt lat="44.51109" lon="5.86706">
        <ele>960</ele>
        <time>2019-06-12T13:45:22Z</time>
      </trkpt>
      <trkpt lat="44.5111" lon="5.86702">
        <ele>960</ele>
        <time>2019-06-12T13:45:23Z</time>
      </trkpt>
      <trkpt lat="44.51112" lon="5.86698">
        <ele>960</ele>
        <time>2019-06-12T13:45:24Z</time>
      </trkpt>
      <trkpt lat="44.51114" lon="5.86693">
        <ele>960</ele>
        <time>2019-06-12T13:45:25Z</time>
      </trkpt>
      <trkpt lat="44.51115" lon="5.86689">
        <ele>960</ele>
        <time>2019-06-12T13:45:26Z</time>
      </trkpt>
      <trkpt lat="44.51116" lon="5.86685">
        <ele>961</ele>
        <time>2019-06-12T13:45:27Z</time>
      </trkpt>
      <trkpt lat="44.51117" lon="5.86681">
        <ele>961</ele>
        <time>2019-06-12T13:45:28Z</time>
      </trkpt>
      <trkpt lat="44.51118" lon="5.86677">
        <ele>961</ele>
        <time>2019-06-12T13:45:29Z</time>
      </trkpt>
      <trkpt lat="44.51119" lon="5.86673">
        <ele>961</ele>
        <time>2019-06-12T13:45:30Z</time>
      </trkpt>
      <trkpt lat="44.51119" lon="5.86669">
        <ele>962</ele>
        <time>2019-06-12T13:45:31Z</time>
      </trkpt>
      <trkpt lat="44.5112" lon="5.86665">
        <ele>962</ele>
        <time>2019-06-12T13:45:32Z</time>
      </trkpt>
      <trkpt lat="44.5112" lon="5.86661">
        <ele>962</ele>
        <time>2019-06-12T13:45:33Z</time>
      </trkpt>
      <trkpt lat="44.5112" lon="5.86656">
        <ele>962</ele>
        <time>2019-06-12T13:45:34Z</time>
      </trkpt>
      <trkpt lat="44.51121" lon="5.86652">
        <ele>962</ele>
        <time>2019-06-12T13:45:35Z</time>
      </trkpt>
      <trkpt lat="44.51122" lon="5.86647">
        <ele>962</ele>
        <time>2019-06-12T13:45:36Z</time>
      </trkpt>
      <trkpt lat="44.51122" lon="5.86643">
        <ele>962</ele>
        <time>2019-06-12T13:45:37Z</time>
      </trkpt>
      <trkpt lat="44.51123" lon="5.86638">
        <ele>963</ele>
        <time>2019-06-12T13:45:38Z</time>
      </trkpt>
      <trkpt lat="44.51124" lon="5.86634">
        <ele>963</ele>
        <time>2019-06-12T13:45:39Z</time>
      </trkpt>
      <trkpt lat="44.51125" lon="5.8663">
        <ele>963</ele>
        <time>2019-06-12T13:45:40Z</time>
      </trkpt>
      <trkpt lat="44.51126" lon="5.86626">
        <ele>964</ele>
        <time>2019-06-12T13:45:41Z</time>
      </trkpt>
      <trkpt lat="44.51128" lon="5.86622">
        <ele>964</ele>
        <time>2019-06-12T13:45:42Z</time>
      </trkpt>
      <trkpt lat="44.51129" lon="5.86618">
        <ele>964</ele>
        <time>2019-06-12T13:45:43Z</time>
      </trkpt>
      <trkpt lat="44.51131" lon="5.86616">
        <ele>964</ele>
        <time>2019-06-12T13:45:44Z</time>
      </trkpt>
      <trkpt lat="44.51133" lon="5.86614">
        <ele>965</ele>
        <time>2019-06-12T13:45:45Z</time>
      </trkpt>
      <trkpt lat="44.51135" lon="5.8661">
        <ele>965</ele>
        <time>2019-06-12T13:45:46Z</time>
      </trkpt>
      <trkpt lat="44.51136" lon="5.86606">
        <ele>965</ele>
        <time>2019-06-12T13:45:47Z</time>
      </trkpt>
      <trkpt lat="44.51137" lon="5.86602">
        <ele>965</ele>
        <time>2019-06-12T13:45:48Z</time>
      </trkpt>
      <trkpt lat="44.51138" lon="5.86599">
        <ele>965</ele>
        <time>2019-06-12T13:45:49Z</time>
      </trkpt>
      <trkpt lat="44.5114" lon="5.86596">
        <ele>965</ele>
        <time>2019-06-12T13:45:50Z</time>
      </trkpt>
      <trkpt lat="44.51142" lon="5.86593">
        <ele>965</ele>
        <time>2019-06-12T13:45:51Z</time>
      </trkpt>
      <trkpt lat="44.51144" lon="5.86589">
        <ele>965</ele>
        <time>2019-06-12T13:45:52Z</time>
      </trkpt>
      <trkpt lat="44.51145" lon="5.86586">
        <ele>965</ele>
        <time>2019-06-12T13:45:53Z</time>
      </trkpt>
      <trkpt lat="44.51146" lon="5.86583">
        <ele>965</ele>
        <time>2019-06-12T13:45:54Z</time>
      </trkpt>
      <trkpt lat="44.51147" lon="5.86579">
        <ele>965</ele>
        <time>2019-06-12T13:45:55Z</time>
      </trkpt>
      <trkpt lat="44.51148" lon="5.86576">
        <ele>965</ele>
        <time>2019-06-12T13:45:56Z</time>
      </trkpt>
      <trkpt lat="44.51149" lon="5.86572">
        <ele>965</ele>
        <time>2019-06-12T13:45:57Z</time>
      </trkpt>
      <trkpt lat="44.5115" lon="5.86569">
        <ele>966</ele>
        <time>2019-06-12T13:45:58Z</time>
      </trkpt>
      <trkpt lat="44.51152" lon="5.86566">
        <ele>966</ele>
        <time>2019-06-12T13:45:59Z</time>
      </trkpt>
      <trkpt lat="44.51153" lon="5.86563">
        <ele>966</ele>
        <time>2019-06-12T13:46:00Z</time>
      </trkpt>
      <trkpt lat="44.51154" lon="5.8656">
        <ele>966</ele>
        <time>2019-06-12T13:46:01Z</time>
      </trkpt>
      <trkpt lat="44.51154" lon="5.86558">
        <ele>967</ele>
        <time>2019-06-12T13:46:02Z</time>
      </trkpt>
      <trkpt lat="44.51155" lon="5.86555">
        <ele>967</ele>
        <time>2019-06-12T13:46:03Z</time>
      </trkpt>
      <trkpt lat="44.51155" lon="5.86553">
        <ele>967</ele>
        <time>2019-06-12T13:46:04Z</time>
      </trkpt>
      <trkpt lat="44.51156" lon="5.86551">
        <ele>967</ele>
        <time>2019-06-12T13:46:05Z</time>
      </trkpt>
      <trkpt lat="44.51157" lon="5.86549">
        <ele>968</ele>
        <time>2019-06-12T13:46:06Z</time>
      </trkpt>
      <trkpt lat="44.51157" lon="5.86546">
        <ele>968</ele>
        <time>2019-06-12T13:46:07Z</time>
      </trkpt>
      <trkpt lat="44.51158" lon="5.86544">
        <ele>968</ele>
        <time>2019-06-12T13:46:08Z</time>
      </trkpt>
      <trkpt lat="44.51158" lon="5.86542">
        <ele>968</ele>
        <time>2019-06-12T13:46:09Z</time>
      </trkpt>
      <trkpt lat="44.51159" lon="5.86539">
        <ele>969</ele>
        <time>2019-06-12T13:46:10Z</time>
      </trkpt>
      <trkpt lat="44.5116" lon="5.86536">
        <ele>969</ele>
        <time>2019-06-12T13:46:11Z</time>
      </trkpt>
      <trkpt lat="44.51162" lon="5.86534">
        <ele>969</ele>
        <time>2019-06-12T13:46:12Z</time>
      </trkpt>
      <trkpt lat="44.51163" lon="5.86531">
        <ele>969</ele>
        <time>2019-06-12T13:46:13Z</time>
      </trkpt>
      <trkpt lat="44.51165" lon="5.86528">
        <ele>969</ele>
        <time>2019-06-12T13:46:14Z</time>
      </trkpt>
      <trkpt lat="44.51166" lon="5.86524">
        <ele>970</ele>
        <time>2019-06-12T13:46:15Z</time>
      </trkpt>
      <trkpt lat="44.51167" lon="5.86521">
        <ele>970</ele>
        <time>2019-06-12T13:46:16Z</time>
      </trkpt>
      <trkpt lat="44.51168" lon="5.86517">
        <ele>970</ele>
        <time>2019-06-12T13:46:17Z</time>
      </trkpt>
      <trkpt lat="44.51169" lon="5.86514">
        <ele>971</ele>
        <time>2019-06-12T13:46:18Z</time>
      </trkpt>
      <trkpt lat="44.5117" lon="5.8651">
        <ele>971</ele>
        <time>2019-06-12T13:46:19Z</time>
      </trkpt>
      <trkpt lat="44.51172" lon="5.86507">
        <ele>971</ele>
        <time>2019-06-12T13:46:20Z</time>
      </trkpt>
      <trkpt lat="44.51173" lon="5.86504">
        <ele>972</ele>
        <time>2019-06-12T13:46:21Z</time>
      </trkpt>
      <trkpt lat="44.51173" lon="5.865">
        <ele>972</ele>
        <time>2019-06-12T13:46:22Z</time>
      </trkpt>
      <trkpt lat="44.51174" lon="5.86496">
        <ele>972</ele>
        <time>2019-06-12T13:46:23Z</time>
      </trkpt>
      <trkpt lat="44.51175" lon="5.86493">
        <ele>972</ele>
        <time>2019-06-12T13:46:24Z</time>
      </trkpt>
      <trkpt lat="44.51175" lon="5.8649">
        <ele>972</ele>
        <time>2019-06-12T13:46:25Z</time>
      </trkpt>
      <trkpt lat="44.51176" lon="5.86487">
        <ele>972</ele>
        <time>2019-06-12T13:46:26Z</time>
      </trkpt>
      <trkpt lat="44.51176" lon="5.86484">
        <ele>972</ele>
        <time>2019-06-12T13:46:27Z</time>
      </trkpt>
      <trkpt lat="44.51177" lon="5.86482">
        <ele>972</ele>
        <time>2019-06-12T13:46:28Z</time>
      </trkpt>
      <trkpt lat="44.51178" lon="5.86479">
        <ele>972</ele>
        <time>2019-06-12T13:46:29Z</time>
      </trkpt>
      <trkpt lat="44.5118" lon="5.86477">
        <ele>972</ele>
        <time>2019-06-12T13:46:30Z</time>
      </trkpt>
      <trkpt lat="44.51181" lon="5.86473">
        <ele>972</ele>
        <time>2019-06-12T13:46:31Z</time>
      </trkpt>
      <trkpt lat="44.51181" lon="5.8647">
        <ele>972</ele>
        <time>2019-06-12T13:46:32Z</time>
      </trkpt>
      <trkpt lat="44.51181" lon="5.86466">
        <ele>973</ele>
        <time>2019-06-12T13:46:33Z</time>
      </trkpt>
      <trkpt lat="44.51181" lon="5.86462">
        <ele>973</ele>
        <time>2019-06-12T13:46:34Z</time>
      </trkpt>
      <trkpt lat="44.51181" lon="5.86459">
        <ele>973</ele>
        <time>2019-06-12T13:46:35Z</time>
      </trkpt>
      <trkpt lat="44.5118" lon="5.86456">
        <ele>974</ele>
        <time>2019-06-12T13:46:36Z</time>
      </trkpt>
      <trkpt lat="44.51179" lon="5.86453">
        <ele>974</ele>
        <time>2019-06-12T13:46:37Z</time>
      </trkpt>
      <trkpt lat="44.51178" lon="5.8645">
        <ele>974</ele>
        <time>2019-06-12T13:46:38Z</time>
      </trkpt>
      <trkpt lat="44.51176" lon="5.86448">
        <ele>974</ele>
        <time>2019-06-12T13:46:39Z</time>
      </trkpt>
      <trkpt lat="44.51175" lon="5.86446">
        <ele>974</ele>
        <time>2019-06-12T13:46:40Z</time>
      </trkpt>
      <trkpt lat="44.51173" lon="5.86444">
        <ele>974</ele>
        <time>2019-06-12T13:46:41Z</time>
      </trkpt>
      <trkpt lat="44.51171" lon="5.86441">
        <ele>975</ele>
        <time>2019-06-12T13:46:42Z</time>
      </trkpt>
      <trkpt lat="44.51169" lon="5.86439">
        <ele>975</ele>
        <time>2019-06-12T13:46:43Z</time>
      </trkpt>
      <trkpt lat="44.51166" lon="5.86436">
        <ele>975</ele>
        <time>2019-06-12T13:46:44Z</time>
      </trkpt>
      <trkpt lat="44.51162" lon="5.86433">
        <ele>975</ele>
        <time>2019-06-12T13:46:45Z</time>
      </trkpt>
      <trkpt lat="44.51159" lon="5.8643">
        <ele>975</ele>
        <time>2019-06-12T13:46:46Z</time>
      </trkpt>
      <trkpt lat="44.51156" lon="5.86428">
        <ele>975</ele>
        <time>2019-06-12T13:46:47Z</time>
      </trkpt>
      <trkpt lat="44.51152" lon="5.86426">
        <ele>975</ele>
        <time>2019-06-12T13:46:48Z</time>
      </trkpt>
      <trkpt lat="44.51149" lon="5.86422">
        <ele>975</ele>
        <time>2019-06-12T13:46:49Z</time>
      </trkpt>
      <trkpt lat="44.51145" lon="5.86419">
        <ele>975</ele>
        <time>2019-06-12T13:46:50Z</time>
      </trkpt>
      <trkpt lat="44.51141" lon="5.86415">
        <ele>975</ele>
        <time>2019-06-12T13:46:51Z</time>
      </trkpt>
      <trkpt lat="44.51137" lon="5.86412">
        <ele>975</ele>
        <time>2019-06-12T13:46:52Z</time>
      </trkpt>
      <trkpt lat="44.51133" lon="5.86408">
        <ele>975</ele>
        <time>2019-06-12T13:46:53Z</time>
      </trkpt>
      <trkpt lat="44.51131" lon="5.86404">
        <ele>975</ele>
        <time>2019-06-12T13:46:54Z</time>
      </trkpt>
      <trkpt lat="44.51128" lon="5.864">
        <ele>975</ele>
        <time>2019-06-12T13:46:55Z</time>
      </trkpt>
      <trkpt lat="44.51125" lon="5.86395">
        <ele>975</ele>
        <time>2019-06-12T13:46:56Z</time>
      </trkpt>
      <trkpt lat="44.51122" lon="5.86389">
        <ele>975</ele>
        <time>2019-06-12T13:46:57Z</time>
      </trkpt>
      <trkpt lat="44.5112" lon="5.86383">
        <ele>975</ele>
        <time>2019-06-12T13:46:58Z</time>
      </trkpt>
      <trkpt lat="44.51117" lon="5.86377">
        <ele>975</ele>
        <time>2019-06-12T13:46:59Z</time>
      </trkpt>
      <trkpt lat="44.51114" lon="5.86372">
        <ele>975</ele>
        <time>2019-06-12T13:47:00Z</time>
      </trkpt>
      <trkpt lat="44.51111" lon="5.86366">
        <ele>975</ele>
        <time>2019-06-12T13:47:01Z</time>
      </trkpt>
      <trkpt lat="44.51109" lon="5.8636">
        <ele>975</ele>
        <time>2019-06-12T13:47:02Z</time>
      </trkpt>
      <trkpt lat="44.51107" lon="5.86354">
        <ele>975</ele>
        <time>2019-06-12T13:47:03Z</time>
      </trkpt>
      <trkpt lat="44.51105" lon="5.86348">
        <ele>975</ele>
        <time>2019-06-12T13:47:04Z</time>
      </trkpt>
      <trkpt lat="44.51102" lon="5.86342">
        <ele>975</ele>
        <time>2019-06-12T13:47:05Z</time>
      </trkpt>
      <trkpt lat="44.511" lon="5.86336">
        <ele>975</ele>
        <time>2019-06-12T13:47:06Z</time>
      </trkpt>
      <trkpt lat="44.51098" lon="5.8633">
        <ele>975</ele>
        <time>2019-06-12T13:47:07Z</time>
      </trkpt>
      <trkpt lat="44.51095" lon="5.86325">
        <ele>975</ele>
        <time>2019-06-12T13:47:08Z</time>
      </trkpt>
      <trkpt lat="44.51093" lon="5.86319">
        <ele>975</ele>
        <time>2019-06-12T13:47:09Z</time>
      </trkpt>
      <trkpt lat="44.51091" lon="5.86313">
        <ele>975</ele>
        <time>2019-06-12T13:47:10Z</time>
      </trkpt>
      <trkpt lat="44.51088" lon="5.86307">
        <ele>975</ele>
        <time>2019-06-12T13:47:11Z</time>
      </trkpt>
      <trkpt lat="44.51085" lon="5.86302">
        <ele>975</ele>
        <time>2019-06-12T13:47:12Z</time>
      </trkpt>
      <trkpt lat="44.51083" lon="5.86296">
        <ele>975</ele>
        <time>2019-06-12T13:47:13Z</time>
      </trkpt>
      <trkpt lat="44.5108" lon="5.8629">
        <ele>975</ele>
        <time>2019-06-12T13:47:14Z</time>
      </trkpt>
      <trkpt lat="44.51077" lon="5.86285">
        <ele>975</ele>
        <time>2019-06-12T13:47:15Z</time>
      </trkpt>
      <trkpt lat="44.51073" lon="5.86279">
        <ele>975</ele>
        <time>2019-06-12T13:47:16Z</time>
      </trkpt>
      <trkpt lat="44.51069" lon="5.86275">
        <ele>975</ele>
        <time>2019-06-12T13:47:17Z</time>
      </trkpt>
      <trkpt lat="44.51065" lon="5.8627">
        <ele>975</ele>
        <time>2019-06-12T13:47:18Z</time>
      </trkpt>
      <trkpt lat="44.5106" lon="5.86267">
        <ele>975</ele>
        <time>2019-06-12T13:47:19Z</time>
      </trkpt>
      <trkpt lat="44.51056" lon="5.86264">
        <ele>975</ele>
        <time>2019-06-12T13:47:20Z</time>
      </trkpt>
      <trkpt lat="44.51051" lon="5.86261">
        <ele>975</ele>
        <time>2019-06-12T13:47:21Z</time>
      </trkpt>
      <trkpt lat="44.51047" lon="5.86259">
        <ele>975</ele>
        <time>2019-06-12T13:47:22Z</time>
      </trkpt>
      <trkpt lat="44.51043" lon="5.86256">
        <ele>975</ele>
        <time>2019-06-12T13:47:23Z</time>
      </trkpt>
      <trkpt lat="44.51039" lon="5.86254">
        <ele>976</ele>
        <time>2019-06-12T13:47:24Z</time>
      </trkpt>
      <trkpt lat="44.51036" lon="5.86251">
        <ele>976</ele>
        <time>2019-06-12T13:47:25Z</time>
      </trkpt>
      <trkpt lat="44.51033" lon="5.86249">
        <ele>977</ele>
        <time>2019-06-12T13:47:26Z</time>
      </trkpt>
      <trkpt lat="44.51029" lon="5.86246">
        <ele>977</ele>
        <time>2019-06-12T13:47:27Z</time>
      </trkpt>
      <trkpt lat="44.51026" lon="5.86244">
        <ele>977</ele>
        <time>2019-06-12T13:47:28Z</time>
      </trkpt>
      <trkpt lat="44.51023" lon="5.86242">
        <ele>978</ele>
        <time>2019-06-12T13:47:29Z</time>
      </trkpt>
      <trkpt lat="44.5102" lon="5.86239">
        <ele>978</ele>
        <time>2019-06-12T13:47:30Z</time>
      </trkpt>
      <trkpt lat="44.51018" lon="5.86238">
        <ele>978</ele>
        <time>2019-06-12T13:47:31Z</time>
      </trkpt>
      <trkpt lat="44.51015" lon="5.86236">
        <ele>978</ele>
        <time>2019-06-12T13:47:32Z</time>
      </trkpt>
      <trkpt lat="44.51012" lon="5.86234">
        <ele>978</ele>
        <time>2019-06-12T13:47:33Z</time>
      </trkpt>
      <trkpt lat="44.51009" lon="5.86231">
        <ele>979</ele>
        <time>2019-06-12T13:47:34Z</time>
      </trkpt>
      <trkpt lat="44.51007" lon="5.8623">
        <ele>979</ele>
        <time>2019-06-12T13:47:35Z</time>
      </trkpt>
      <trkpt lat="44.51004" lon="5.86227">
        <ele>979</ele>
        <time>2019-06-12T13:47:36Z</time>
      </trkpt>
      <trkpt lat="44.51002" lon="5.86225">
        <ele>979</ele>
        <time>2019-06-12T13:47:37Z</time>
      </trkpt>
      <trkpt lat="44.50999" lon="5.86222">
        <ele>980</ele>
        <time>2019-06-12T13:47:38Z</time>
      </trkpt>
      <trkpt lat="44.50996" lon="5.8622">
        <ele>980</ele>
        <time>2019-06-12T13:47:39Z</time>
      </trkpt>
      <trkpt lat="44.50993" lon="5.86218">
        <ele>980</ele>
        <time>2019-06-12T13:47:40Z</time>
      </trkpt>
      <trkpt lat="44.50991" lon="5.86215">
        <ele>980</ele>
        <time>2019-06-12T13:47:41Z</time>
      </trkpt>
      <trkpt lat="44.50988" lon="5.86212">
        <ele>981</ele>
        <time>2019-06-12T13:47:42Z</time>
      </trkpt>
      <trkpt lat="44.50985" lon="5.86209">
        <ele>981</ele>
        <time>2019-06-12T13:47:43Z</time>
      </trkpt>
      <trkpt lat="44.50982" lon="5.86206">
        <ele>981</ele>
        <time>2019-06-12T13:47:44Z</time>
      </trkpt>
      <trkpt lat="44.50979" lon="5.86204">
        <ele>981</ele>
        <time>2019-06-12T13:47:45Z</time>
      </trkpt>
      <trkpt lat="44.50976" lon="5.86201">
        <ele>981</ele>
        <time>2019-06-12T13:47:46Z</time>
      </trkpt>
      <trkpt lat="44.50974" lon="5.86198">
        <ele>981</ele>
        <time>2019-06-12T13:47:47Z</time>
      </trkpt>
      <trkpt lat="44.50971" lon="5.86196">
        <ele>981</ele>
        <time>2019-06-12T13:47:48Z</time>
      </trkpt>
      <trkpt lat="44.50968" lon="5.86193">
        <ele>982</ele>
        <time>2019-06-12T13:47:49Z</time>
      </trkpt>
      <trkpt lat="44.50965" lon="5.8619">
        <ele>982</ele>
        <time>2019-06-12T13:47:50Z</time>
      </trkpt>
      <trkpt lat="44.50962" lon="5.86187">
        <ele>982</ele>
        <time>2019-06-12T13:47:51Z</time>
      </trkpt>
      <trkpt lat="44.50959" lon="5.86183">
        <ele>982</ele>
        <time>2019-06-12T13:47:52Z</time>
      </trkpt>
      <trkpt lat="44.50956" lon="5.8618">
        <ele>982</ele>
        <time>2019-06-12T13:47:53Z</time>
      </trkpt>
      <trkpt lat="44.50954" lon="5.86177">
        <ele>982</ele>
        <time>2019-06-12T13:47:54Z</time>
      </trkpt>
      <trkpt lat="44.50951" lon="5.86174">
        <ele>982</ele>
        <time>2019-06-12T13:47:55Z</time>
      </trkpt>
      <trkpt lat="44.50948" lon="5.86171">
        <ele>983</ele>
        <time>2019-06-12T13:47:56Z</time>
      </trkpt>
      <trkpt lat="44.50945" lon="5.86168">
        <ele>983</ele>
        <time>2019-06-12T13:47:57Z</time>
      </trkpt>
      <trkpt lat="44.50943" lon="5.86166">
        <ele>983</ele>
        <time>2019-06-12T13:47:58Z</time>
      </trkpt>
      <trkpt lat="44.5094" lon="5.86163">
        <ele>983</ele>
        <time>2019-06-12T13:47:59Z</time>
      </trkpt>
      <trkpt lat="44.50937" lon="5.8616">
        <ele>983</ele>
        <time>2019-06-12T13:48:00Z</time>
      </trkpt>
      <trkpt lat="44.50934" lon="5.86157">
        <ele>983</ele>
        <time>2019-06-12T13:48:01Z</time>
      </trkpt>
      <trkpt lat="44.50932" lon="5.86154">
        <ele>983</ele>
        <time>2019-06-12T13:48:02Z</time>
      </trkpt>
      <trkpt lat="44.50929" lon="5.86151">
        <ele>984</ele>
        <time>2019-06-12T13:48:03Z</time>
      </trkpt>
      <trkpt lat="44.50926" lon="5.86149">
        <ele>984</ele>
        <time>2019-06-12T13:48:04Z</time>
      </trkpt>
      <trkpt lat="44.50923" lon="5.86147">
        <ele>984</ele>
        <time>2019-06-12T13:48:05Z</time>
      </trkpt>
      <trkpt lat="44.5092" lon="5.86145">
        <ele>984</ele>
        <time>2019-06-12T13:48:06Z</time>
      </trkpt>
      <trkpt lat="44.50917" lon="5.86144">
        <ele>984</ele>
        <time>2019-06-12T13:48:07Z</time>
      </trkpt>
      <trkpt lat="44.50914" lon="5.86142">
        <ele>984</ele>
        <time>2019-06-12T13:48:08Z</time>
      </trkpt>
      <trkpt lat="44.50912" lon="5.8614">
        <ele>985</ele>
        <time>2019-06-12T13:48:09Z</time>
      </trkpt>
      <trkpt lat="44.50909" lon="5.86138">
        <ele>985</ele>
        <time>2019-06-12T13:48:10Z</time>
      </trkpt>
      <trkpt lat="44.50906" lon="5.86136">
        <ele>985</ele>
        <time>2019-06-12T13:48:11Z</time>
      </trkpt>
      <trkpt lat="44.50903" lon="5.86133">
        <ele>985</ele>
        <time>2019-06-12T13:48:12Z</time>
      </trkpt>
      <trkpt lat="44.50901" lon="5.86131">
        <ele>985</ele>
        <time>2019-06-12T13:48:13Z</time>
      </trkpt>
      <trkpt lat="44.50898" lon="5.86129">
        <ele>986</ele>
        <time>2019-06-12T13:48:14Z</time>
      </trkpt>
      <trkpt lat="44.50896" lon="5.86126">
        <ele>986</ele>
        <time>2019-06-12T13:48:15Z</time>
      </trkpt>
      <trkpt lat="44.50893" lon="5.86123">
        <ele>986</ele>
        <time>2019-06-12T13:48:16Z</time>
      </trkpt>
      <trkpt lat="44.50891" lon="5.8612">
        <ele>986</ele>
        <time>2019-06-12T13:48:17Z</time>
      </trkpt>
      <trkpt lat="44.50889" lon="5.86117">
        <ele>986</ele>
        <time>2019-06-12T13:48:18Z</time>
      </trkpt>
      <trkpt lat="44.50888" lon="5.86114">
        <ele>986</ele>
        <time>2019-06-12T13:48:19Z</time>
      </trkpt>
      <trkpt lat="44.50886" lon="5.8611">
        <ele>987</ele>
        <time>2019-06-12T13:48:20Z</time>
      </trkpt>
      <trkpt lat="44.50885" lon="5.86105">
        <ele>987</ele>
        <time>2019-06-12T13:48:21Z</time>
      </trkpt>
      <trkpt lat="44.50883" lon="5.86101">
        <ele>987</ele>
        <time>2019-06-12T13:48:22Z</time>
      </trkpt>
      <trkpt lat="44.50881" lon="5.86097">
        <ele>987</ele>
        <time>2019-06-12T13:48:23Z</time>
      </trkpt>
      <trkpt lat="44.5088" lon="5.86093">
        <ele>987</ele>
        <time>2019-06-12T13:48:24Z</time>
      </trkpt>
      <trkpt lat="44.50878" lon="5.86089">
        <ele>988</ele>
        <time>2019-06-12T13:48:25Z</time>
      </trkpt>
      <trkpt lat="44.50876" lon="5.86085">
        <ele>988</ele>
        <time>2019-06-12T13:48:26Z</time>
      </trkpt>
      <trkpt lat="44.50873" lon="5.86082">
        <ele>988</ele>
        <time>2019-06-12T13:48:27Z</time>
      </trkpt>
      <trkpt lat="44.50871" lon="5.86079">
        <ele>989</ele>
        <time>2019-06-12T13:48:28Z</time>
      </trkpt>
      <trkpt lat="44.50869" lon="5.86076">
        <ele>989</ele>
        <time>2019-06-12T13:48:29Z</time>
      </trkpt>
      <trkpt lat="44.50867" lon="5.86072">
        <ele>989</ele>
        <time>2019-06-12T13:48:30Z</time>
      </trkpt>
      <trkpt lat="44.50865" lon="5.86069">
        <ele>989</ele>
        <time>2019-06-12T13:48:31Z</time>
      </trkpt>
      <trkpt lat="44.50863" lon="5.86065">
        <ele>990</ele>
        <time>2019-06-12T13:48:32Z</time>
      </trkpt>
      <trkpt lat="44.5086" lon="5.86062">
        <ele>990</ele>
        <time>2019-06-12T13:48:33Z</time>
      </trkpt>
      <trkpt lat="44.50858" lon="5.8606">
        <ele>990</ele>
        <time>2019-06-12T13:48:34Z</time>
      </trkpt>
      <trkpt lat="44.50855" lon="5.86057">
        <ele>991</ele>
        <time>2019-06-12T13:48:35Z</time>
      </trkpt>
      <trkpt lat="44.50853" lon="5.86055">
        <ele>991</ele>
        <time>2019-06-12T13:48:36Z</time>
      </trkpt>
      <trkpt lat="44.50851" lon="5.86054">
        <ele>991</ele>
        <time>2019-06-12T13:48:37Z</time>
      </trkpt>
      <trkpt lat="44.50849" lon="5.86052">
        <ele>992</ele>
        <time>2019-06-12T13:48:38Z</time>
      </trkpt>
      <trkpt lat="44.50846" lon="5.8605">
        <ele>992</ele>
        <time>2019-06-12T13:48:39Z</time>
      </trkpt>
      <trkpt lat="44.50844" lon="5.86048">
        <ele>993</ele>
        <time>2019-06-12T13:48:40Z</time>
      </trkpt>
      <trkpt lat="44.50841" lon="5.86046">
        <ele>993</ele>
        <time>2019-06-12T13:48:41Z</time>
      </trkpt>
      <trkpt lat="44.50839" lon="5.86045">
        <ele>993</ele>
        <time>2019-06-12T13:48:42Z</time>
      </trkpt>
      <trkpt lat="44.50837" lon="5.86043">
        <ele>994</ele>
        <time>2019-06-12T13:48:43Z</time>
      </trkpt>
      <trkpt lat="44.50834" lon="5.86042">
        <ele>994</ele>
        <time>2019-06-12T13:48:44Z</time>
      </trkpt>
      <trkpt lat="44.50832" lon="5.8604">
        <ele>995</ele>
        <time>2019-06-12T13:48:45Z</time>
      </trkpt>
      <trkpt lat="44.50829" lon="5.86038">
        <ele>995</ele>
        <time>2019-06-12T13:48:46Z</time>
      </trkpt>
      <trkpt lat="44.50827" lon="5.86037">
        <ele>995</ele>
        <time>2019-06-12T13:48:47Z</time>
      </trkpt>
      <trkpt lat="44.50826" lon="5.86035">
        <ele>996</ele>
        <time>2019-06-12T13:48:48Z</time>
      </trkpt>
      <trkpt lat="44.50823" lon="5.86033">
        <ele>996</ele>
        <time>2019-06-12T13:48:49Z</time>
      </trkpt>
      <trkpt lat="44.50821" lon="5.86031">
        <ele>996</ele>
        <time>2019-06-12T13:48:50Z</time>
      </trkpt>
      <trkpt lat="44.50819" lon="5.86029">
        <ele>996</ele>
        <time>2019-06-12T13:48:51Z</time>
      </trkpt>
      <trkpt lat="44.50818" lon="5.86027">
        <ele>997</ele>
        <time>2019-06-12T13:48:52Z</time>
      </trkpt>
      <trkpt lat="44.50816" lon="5.86024">
        <ele>997</ele>
        <time>2019-06-12T13:48:53Z</time>
      </trkpt>
      <trkpt lat="44.50814" lon="5.86021">
        <ele>997</ele>
        <time>2019-06-12T13:48:54Z</time>
      </trkpt>
      <trkpt lat="44.50812" lon="5.86018">
        <ele>997</ele>
        <time>2019-06-12T13:48:55Z</time>
      </trkpt>
      <trkpt lat="44.50811" lon="5.86015">
        <ele>997</ele>
        <time>2019-06-12T13:48:56Z</time>
      </trkpt>
      <trkpt lat="44.50809" lon="5.86012">
        <ele>997</ele>
        <time>2019-06-12T13:48:57Z</time>
      </trkpt>
      <trkpt lat="44.50808" lon="5.86008">
        <ele>997</ele>
        <time>2019-06-12T13:48:58Z</time>
      </trkpt>
      <trkpt lat="44.50806" lon="5.86004">
        <ele>997</ele>
        <time>2019-06-12T13:48:59Z</time>
      </trkpt>
      <trkpt lat="44.50806" lon="5.86">
        <ele>998</ele>
        <time>2019-06-12T13:49:00Z</time>
      </trkpt>
      <trkpt lat="44.50804" lon="5.85995">
        <ele>998</ele>
        <time>2019-06-12T13:49:01Z</time>
      </trkpt>
      <trkpt lat="44.50803" lon="5.85991">
        <ele>998</ele>
        <time>2019-06-12T13:49:02Z</time>
      </trkpt>
      <trkpt lat="44.50802" lon="5.85987">
        <ele>998</ele>
        <time>2019-06-12T13:49:03Z</time>
      </trkpt>
      <trkpt lat="44.50801" lon="5.85983">
        <ele>998</ele>
        <time>2019-06-12T13:49:04Z</time>
      </trkpt>
      <trkpt lat="44.508" lon="5.85979">
        <ele>998</ele>
        <time>2019-06-12T13:49:05Z</time>
      </trkpt>
      <trkpt lat="44.508" lon="5.85975">
        <ele>998</ele>
        <time>2019-06-12T13:49:06Z</time>
      </trkpt>
      <trkpt lat="44.50799" lon="5.85971">
        <ele>999</ele>
        <time>2019-06-12T13:49:07Z</time>
      </trkpt>
      <trkpt lat="44.50799" lon="5.85967">
        <ele>999</ele>
        <time>2019-06-12T13:49:08Z</time>
      </trkpt>
      <trkpt lat="44.50798" lon="5.85963">
        <ele>999</ele>
        <time>2019-06-12T13:49:09Z</time>
      </trkpt>
      <trkpt lat="44.50798" lon="5.85959">
        <ele>999</ele>
        <time>2019-06-12T13:49:10Z</time>
      </trkpt>
      <trkpt lat="44.50797" lon="5.85955">
        <ele>999</ele>
        <time>2019-06-12T13:49:11Z</time>
      </trkpt>
      <trkpt lat="44.50797" lon="5.85951">
        <ele>1000</ele>
        <time>2019-06-12T13:49:12Z</time>
      </trkpt>
      <trkpt lat="44.50798" lon="5.85948">
        <ele>1000</ele>
        <time>2019-06-12T13:49:13Z</time>
      </trkpt>
      <trkpt lat="44.50797" lon="5.85943">
        <ele>1000</ele>
        <time>2019-06-12T13:49:14Z</time>
      </trkpt>
      <trkpt lat="44.50797" lon="5.85939">
        <ele>1000</ele>
        <time>2019-06-12T13:49:15Z</time>
      </trkpt>
      <trkpt lat="44.50797" lon="5.85936">
        <ele>1001</ele>
        <time>2019-06-12T13:49:16Z</time>
      </trkpt>
      <trkpt lat="44.50797" lon="5.85933">
        <ele>1001</ele>
        <time>2019-06-12T13:49:17Z</time>
      </trkpt>
      <trkpt lat="44.50798" lon="5.85929">
        <ele>1001</ele>
        <time>2019-06-12T13:49:18Z</time>
      </trkpt>
      <trkpt lat="44.50798" lon="5.85925">
        <ele>1002</ele>
        <time>2019-06-12T13:49:19Z</time>
      </trkpt>
      <trkpt lat="44.50798" lon="5.85921">
        <ele>1002</ele>
        <time>2019-06-12T13:49:20Z</time>
      </trkpt>
      <trkpt lat="44.50798" lon="5.85916">
        <ele>1002</ele>
        <time>2019-06-12T13:49:21Z</time>
      </trkpt>
      <trkpt lat="44.50798" lon="5.85912">
        <ele>1002</ele>
        <time>2019-06-12T13:49:22Z</time>
      </trkpt>
      <trkpt lat="44.50798" lon="5.85907">
        <ele>1002</ele>
        <time>2019-06-12T13:49:23Z</time>
      </trkpt>
      <trkpt lat="44.50797" lon="5.85902">
        <ele>1002</ele>
        <time>2019-06-12T13:49:24Z</time>
      </trkpt>
      <trkpt lat="44.50796" lon="5.85897">
        <ele>1002</ele>
        <time>2019-06-12T13:49:25Z</time>
      </trkpt>
      <trkpt lat="44.50796" lon="5.85893">
        <ele>1003</ele>
        <time>2019-06-12T13:49:26Z</time>
      </trkpt>
      <trkpt lat="44.50795" lon="5.85888">
        <ele>1003</ele>
        <time>2019-06-12T13:49:27Z</time>
      </trkpt>
      <trkpt lat="44.50795" lon="5.85884">
        <ele>1003</ele>
        <time>2019-06-12T13:49:28Z</time>
      </trkpt>
      <trkpt lat="44.50794" lon="5.8588">
        <ele>1003</ele>
        <time>2019-06-12T13:49:29Z</time>
      </trkpt>
      <trkpt lat="44.50794" lon="5.85875">
        <ele>1003</ele>
        <time>2019-06-12T13:49:30Z</time>
      </trkpt>
      <trkpt lat="44.50794" lon="5.85871">
        <ele>1004</ele>
        <time>2019-06-12T13:49:31Z</time>
      </trkpt>
      <trkpt lat="44.50793" lon="5.85867">
        <ele>1004</ele>
        <time>2019-06-12T13:49:32Z</time>
      </trkpt>
      <trkpt lat="44.50792" lon="5.85862">
        <ele>1004</ele>
        <time>2019-06-12T13:49:33Z</time>
      </trkpt>
      <trkpt lat="44.5079" lon="5.85858">
        <ele>1004</ele>
        <time>2019-06-12T13:49:34Z</time>
      </trkpt>
      <trkpt lat="44.50789" lon="5.85853">
        <ele>1005</ele>
        <time>2019-06-12T13:49:35Z</time>
      </trkpt>
      <trkpt lat="44.50787" lon="5.85848">
        <ele>1005</ele>
        <time>2019-06-12T13:49:36Z</time>
      </trkpt>
      <trkpt lat="44.50785" lon="5.85843">
        <ele>1005</ele>
        <time>2019-06-12T13:49:37Z</time>
      </trkpt>
      <trkpt lat="44.50784" lon="5.85838">
        <ele>1005</ele>
        <time>2019-06-12T13:49:38Z</time>
      </trkpt>
      <trkpt lat="44.50782" lon="5.85834">
        <ele>1005</ele>
        <time>2019-06-12T13:49:39Z</time>
      </trkpt>
      <trkpt lat="44.50779" lon="5.85829">
        <ele>1005</ele>
        <time>2019-06-12T13:49:40Z</time>
      </trkpt>
      <trkpt lat="44.50777" lon="5.85825">
        <ele>1005</ele>
        <time>2019-06-12T13:49:41Z</time>
      </trkpt>
      <trkpt lat="44.50774" lon="5.85821">
        <ele>1005</ele>
        <time>2019-06-12T13:49:42Z</time>
      </trkpt>
      <trkpt lat="44.50772" lon="5.85817">
        <ele>1005</ele>
        <time>2019-06-12T13:49:43Z</time>
      </trkpt>
      <trkpt lat="44.5077" lon="5.85813">
        <ele>1005</ele>
        <time>2019-06-12T13:49:44Z</time>
      </trkpt>
      <trkpt lat="44.50767" lon="5.8581">
        <ele>1006</ele>
        <time>2019-06-12T13:49:45Z</time>
      </trkpt>
      <trkpt lat="44.50764" lon="5.85806">
        <ele>1006</ele>
        <time>2019-06-12T13:49:46Z</time>
      </trkpt>
      <trkpt lat="44.50761" lon="5.85803">
        <ele>1006</ele>
        <time>2019-06-12T13:49:47Z</time>
      </trkpt>
      <trkpt lat="44.50759" lon="5.85799">
        <ele>1006</ele>
        <time>2019-06-12T13:49:48Z</time>
      </trkpt>
      <trkpt lat="44.50756" lon="5.85795">
        <ele>1006</ele>
        <time>2019-06-12T13:49:49Z</time>
      </trkpt>
      <trkpt lat="44.50754" lon="5.85791">
        <ele>1006</ele>
        <time>2019-06-12T13:49:50Z</time>
      </trkpt>
      <trkpt lat="44.50751" lon="5.85787">
        <ele>1006</ele>
        <time>2019-06-12T13:49:51Z</time>
      </trkpt>
      <trkpt lat="44.50749" lon="5.85782">
        <ele>1006</ele>
        <time>2019-06-12T13:49:52Z</time>
      </trkpt>
      <trkpt lat="44.50747" lon="5.85778">
        <ele>1007</ele>
        <time>2019-06-12T13:49:53Z</time>
      </trkpt>
      <trkpt lat="44.50745" lon="5.85774">
        <ele>1007</ele>
        <time>2019-06-12T13:49:54Z</time>
      </trkpt>
      <trkpt lat="44.50744" lon="5.85769">
        <ele>1007</ele>
        <time>2019-06-12T13:49:55Z</time>
      </trkpt>
      <trkpt lat="44.50742" lon="5.85765">
        <ele>1007</ele>
        <time>2019-06-12T13:49:56Z</time>
      </trkpt>
      <trkpt lat="44.50741" lon="5.8576">
        <ele>1007</ele>
        <time>2019-06-12T13:49:57Z</time>
      </trkpt>
      <trkpt lat="44.5074" lon="5.85756">
        <ele>1008</ele>
        <time>2019-06-12T13:49:58Z</time>
      </trkpt>
      <trkpt lat="44.50738" lon="5.85751">
        <ele>1008</ele>
        <time>2019-06-12T13:49:59Z</time>
      </trkpt>
      <trkpt lat="44.50737" lon="5.85747">
        <ele>1008</ele>
        <time>2019-06-12T13:50:00Z</time>
      </trkpt>
      <trkpt lat="44.50736" lon="5.85743">
        <ele>1008</ele>
        <time>2019-06-12T13:50:01Z</time>
      </trkpt>
      <trkpt lat="44.50734" lon="5.85739">
        <ele>1008</ele>
        <time>2019-06-12T13:50:02Z</time>
      </trkpt>
      <trkpt lat="44.50733" lon="5.85735">
        <ele>1009</ele>
        <time>2019-06-12T13:50:03Z</time>
      </trkpt>
      <trkpt lat="44.50732" lon="5.85731">
        <ele>1009</ele>
        <time>2019-06-12T13:50:04Z</time>
      </trkpt>
      <trkpt lat="44.50731" lon="5.85726">
        <ele>1009</ele>
        <time>2019-06-12T13:50:05Z</time>
      </trkpt>
      <trkpt lat="44.5073" lon="5.85723">
        <ele>1009</ele>
        <time>2019-06-12T13:50:06Z</time>
      </trkpt>
      <trkpt lat="44.50729" lon="5.85719">
        <ele>1009</ele>
        <time>2019-06-12T13:50:07Z</time>
      </trkpt>
      <trkpt lat="44.50727" lon="5.85715">
        <ele>1010</ele>
        <time>2019-06-12T13:50:08Z</time>
      </trkpt>
      <trkpt lat="44.50726" lon="5.85712">
        <ele>1010</ele>
        <time>2019-06-12T13:50:09Z</time>
      </trkpt>
      <trkpt lat="44.50724" lon="5.85708">
        <ele>1010</ele>
        <time>2019-06-12T13:50:10Z</time>
      </trkpt>
      <trkpt lat="44.50722" lon="5.85704">
        <ele>1010</ele>
        <time>2019-06-12T13:50:11Z</time>
      </trkpt>
      <trkpt lat="44.5072" lon="5.857">
        <ele>1011</ele>
        <time>2019-06-12T13:50:12Z</time>
      </trkpt>
      <trkpt lat="44.50718" lon="5.85696">
        <ele>1011</ele>
        <time>2019-06-12T13:50:13Z</time>
      </trkpt>
      <trkpt lat="44.50716" lon="5.85692">
        <ele>1011</ele>
        <time>2019-06-12T13:50:14Z</time>
      </trkpt>
      <trkpt lat="44.50714" lon="5.85689">
        <ele>1011</ele>
        <time>2019-06-12T13:50:15Z</time>
      </trkpt>
      <trkpt lat="44.50712" lon="5.85686">
        <ele>1012</ele>
        <time>2019-06-12T13:50:16Z</time>
      </trkpt>
      <trkpt lat="44.50711" lon="5.85683">
        <ele>1012</ele>
        <time>2019-06-12T13:50:17Z</time>
      </trkpt>
      <trkpt lat="44.50708" lon="5.8568">
        <ele>1012</ele>
        <time>2019-06-12T13:50:18Z</time>
      </trkpt>
      <trkpt lat="44.50706" lon="5.85676">
        <ele>1013</ele>
        <time>2019-06-12T13:50:19Z</time>
      </trkpt>
      <trkpt lat="44.50705" lon="5.85673">
        <ele>1013</ele>
        <time>2019-06-12T13:50:20Z</time>
      </trkpt>
      <trkpt lat="44.50703" lon="5.8567">
        <ele>1014</ele>
        <time>2019-06-12T13:50:21Z</time>
      </trkpt>
      <trkpt lat="44.507" lon="5.85667">
        <ele>1014</ele>
        <time>2019-06-12T13:50:22Z</time>
      </trkpt>
      <trkpt lat="44.50698" lon="5.85663">
        <ele>1014</ele>
        <time>2019-06-12T13:50:23Z</time>
      </trkpt>
      <trkpt lat="44.50697" lon="5.8566">
        <ele>1015</ele>
        <time>2019-06-12T13:50:24Z</time>
      </trkpt>
      <trkpt lat="44.50695" lon="5.85658">
        <ele>1015</ele>
        <time>2019-06-12T13:50:25Z</time>
      </trkpt>
      <trkpt lat="44.50693" lon="5.85655">
        <ele>1015</ele>
        <time>2019-06-12T13:50:26Z</time>
      </trkpt>
      <trkpt lat="44.50691" lon="5.85652">
        <ele>1015</ele>
        <time>2019-06-12T13:50:27Z</time>
      </trkpt>
      <trkpt lat="44.50689" lon="5.8565">
        <ele>1016</ele>
        <time>2019-06-12T13:50:28Z</time>
      </trkpt>
      <trkpt lat="44.50688" lon="5.85648">
        <ele>1016</ele>
        <time>2019-06-12T13:50:29Z</time>
      </trkpt>
      <trkpt lat="44.50687" lon="5.85646">
        <ele>1016</ele>
        <time>2019-06-12T13:50:30Z</time>
      </trkpt>
      <trkpt lat="44.50686" lon="5.85644">
        <ele>1016</ele>
        <time>2019-06-12T13:50:31Z</time>
      </trkpt>
      <trkpt lat="44.50685" lon="5.85641">
        <ele>1017</ele>
        <time>2019-06-12T13:50:32Z</time>
      </trkpt>
      <trkpt lat="44.50684" lon="5.85639">
        <ele>1017</ele>
        <time>2019-06-12T13:50:33Z</time>
      </trkpt>
      <trkpt lat="44.50682" lon="5.85637">
        <ele>1017</ele>
        <time>2019-06-12T13:50:34Z</time>
      </trkpt>
      <trkpt lat="44.50681" lon="5.85635">
        <ele>1017</ele>
        <time>2019-06-12T13:50:35Z</time>
      </trkpt>
      <trkpt lat="44.50679" lon="5.85633">
        <ele>1018</ele>
        <time>2019-06-12T13:50:36Z</time>
      </trkpt>
      <trkpt lat="44.50678" lon="5.85632">
        <ele>1018</ele>
        <time>2019-06-12T13:50:37Z</time>
      </trkpt>
      <trkpt lat="44.50677" lon="5.85631">
        <ele>1018</ele>
        <time>2019-06-12T13:50:38Z</time>
      </trkpt>
      <trkpt lat="44.50676" lon="5.85628">
        <ele>1018</ele>
        <time>2019-06-12T13:50:39Z</time>
      </trkpt>
      <trkpt lat="44.50674" lon="5.85626">
        <ele>1018</ele>
        <time>2019-06-12T13:50:40Z</time>
      </trkpt>
      <trkpt lat="44.50672" lon="5.85624">
        <ele>1019</ele>
        <time>2019-06-12T13:50:41Z</time>
      </trkpt>
      <trkpt lat="44.50671" lon="5.85622">
        <ele>1019</ele>
        <time>2019-06-12T13:50:42Z</time>
      </trkpt>
      <trkpt lat="44.50669" lon="5.8562">
        <ele>1019</ele>
        <time>2019-06-12T13:50:43Z</time>
      </trkpt>
      <trkpt lat="44.50668" lon="5.85619">
        <ele>1019</ele>
        <time>2019-06-12T13:50:44Z</time>
      </trkpt>
      <trkpt lat="44.50666" lon="5.85616">
        <ele>1019</ele>
        <time>2019-06-12T13:50:46Z</time>
      </trkpt>
      <trkpt lat="44.50665" lon="5.85615">
        <ele>1019</ele>
        <time>2019-06-12T13:50:47Z</time>
      </trkpt>
      <trkpt lat="44.50664" lon="5.85613">
        <ele>1020</ele>
        <time>2019-06-12T13:50:48Z</time>
      </trkpt>
      <trkpt lat="44.50663" lon="5.85612">
        <ele>1020</ele>
        <time>2019-06-12T13:50:49Z</time>
      </trkpt>
      <trkpt lat="44.50662" lon="5.85611">
        <ele>1020</ele>
        <time>2019-06-12T13:50:50Z</time>
      </trkpt>
      <trkpt lat="44.5066" lon="5.85608">
        <ele>1021</ele>
        <time>2019-06-12T13:50:52Z</time>
      </trkpt>
      <trkpt lat="44.50658" lon="5.85605">
        <ele>1021</ele>
        <time>2019-06-12T13:50:54Z</time>
      </trkpt>
      <trkpt lat="44.50657" lon="5.85604">
        <ele>1021</ele>
        <time>2019-06-12T13:50:55Z</time>
      </trkpt>
      <trkpt lat="44.50655" lon="5.85603">
        <ele>1022</ele>
        <time>2019-06-12T13:50:56Z</time>
      </trkpt>
      <trkpt lat="44.50654" lon="5.85601">
        <ele>1022</ele>
        <time>2019-06-12T13:50:57Z</time>
      </trkpt>
      <trkpt lat="44.50653" lon="5.856">
        <ele>1022</ele>
        <time>2019-06-12T13:50:58Z</time>
      </trkpt>
      <trkpt lat="44.50652" lon="5.85598">
        <ele>1022</ele>
        <time>2019-06-12T13:50:59Z</time>
      </trkpt>
      <trkpt lat="44.50651" lon="5.85596">
        <ele>1023</ele>
        <time>2019-06-12T13:51:00Z</time>
      </trkpt>
      <trkpt lat="44.5065" lon="5.85594">
        <ele>1023</ele>
        <time>2019-06-12T13:51:01Z</time>
      </trkpt>
      <trkpt lat="44.5065" lon="5.85592">
        <ele>1023</ele>
        <time>2019-06-12T13:51:02Z</time>
      </trkpt>
      <trkpt lat="44.50649" lon="5.8559">
        <ele>1023</ele>
        <time>2019-06-12T13:51:03Z</time>
      </trkpt>
      <trkpt lat="44.50647" lon="5.85588">
        <ele>1023</ele>
        <time>2019-06-12T13:51:04Z</time>
      </trkpt>
      <trkpt lat="44.50647" lon="5.85587">
        <ele>1024</ele>
        <time>2019-06-12T13:51:05Z</time>
      </trkpt>
      <trkpt lat="44.50646" lon="5.85584">
        <ele>1024</ele>
        <time>2019-06-12T13:51:06Z</time>
      </trkpt>
      <trkpt lat="44.50645" lon="5.85582">
        <ele>1024</ele>
        <time>2019-06-12T13:51:07Z</time>
      </trkpt>
      <trkpt lat="44.50644" lon="5.8558">
        <ele>1024</ele>
        <time>2019-06-12T13:51:08Z</time>
      </trkpt>
      <trkpt lat="44.50643" lon="5.85578">
        <ele>1025</ele>
        <time>2019-06-12T13:51:09Z</time>
      </trkpt>
      <trkpt lat="44.50642" lon="5.85576">
        <ele>1025</ele>
        <time>2019-06-12T13:51:10Z</time>
      </trkpt>
      <trkpt lat="44.50642" lon="5.85574">
        <ele>1025</ele>
        <time>2019-06-12T13:51:11Z</time>
      </trkpt>
      <trkpt lat="44.50641" lon="5.85572">
        <ele>1025</ele>
        <time>2019-06-12T13:51:12Z</time>
      </trkpt>
      <trkpt lat="44.5064" lon="5.8557">
        <ele>1026</ele>
        <time>2019-06-12T13:51:13Z</time>
      </trkpt>
      <trkpt lat="44.50639" lon="5.85568">
        <ele>1026</ele>
        <time>2019-06-12T13:51:14Z</time>
      </trkpt>
      <trkpt lat="44.50638" lon="5.85566">
        <ele>1026</ele>
        <time>2019-06-12T13:51:15Z</time>
      </trkpt>
      <trkpt lat="44.50637" lon="5.85564">
        <ele>1026</ele>
        <time>2019-06-12T13:51:16Z</time>
      </trkpt>
      <trkpt lat="44.50637" lon="5.85562">
        <ele>1027</ele>
        <time>2019-06-12T13:51:17Z</time>
      </trkpt>
      <trkpt lat="44.50636" lon="5.8556">
        <ele>1027</ele>
        <time>2019-06-12T13:51:18Z</time>
      </trkpt>
      <trkpt lat="44.50635" lon="5.85558">
        <ele>1027</ele>
        <time>2019-06-12T13:51:19Z</time>
      </trkpt>
      <trkpt lat="44.50635" lon="5.85556">
        <ele>1027</ele>
        <time>2019-06-12T13:51:20Z</time>
      </trkpt>
      <trkpt lat="44.50634" lon="5.85554">
        <ele>1028</ele>
        <time>2019-06-12T13:51:21Z</time>
      </trkpt>
      <trkpt lat="44.50633" lon="5.85551">
        <ele>1028</ele>
        <time>2019-06-12T13:51:22Z</time>
      </trkpt>
      <trkpt lat="44.50632" lon="5.85549">
        <ele>1028</ele>
        <time>2019-06-12T13:51:23Z</time>
      </trkpt>
      <trkpt lat="44.50632" lon="5.85547">
        <ele>1028</ele>
        <time>2019-06-12T13:51:24Z</time>
      </trkpt>
      <trkpt lat="44.50632" lon="5.85545">
        <ele>1029</ele>
        <time>2019-06-12T13:51:25Z</time>
      </trkpt>
      <trkpt lat="44.50631" lon="5.85543">
        <ele>1029</ele>
        <time>2019-06-12T13:51:26Z</time>
      </trkpt>
      <trkpt lat="44.5063" lon="5.8554">
        <ele>1029</ele>
        <time>2019-06-12T13:51:27Z</time>
      </trkpt>
      <trkpt lat="44.5063" lon="5.85538">
        <ele>1029</ele>
        <time>2019-06-12T13:51:28Z</time>
      </trkpt>
      <trkpt lat="44.50629" lon="5.85536">
        <ele>1029</ele>
        <time>2019-06-12T13:51:29Z</time>
      </trkpt>
      <trkpt lat="44.50628" lon="5.85534">
        <ele>1030</ele>
        <time>2019-06-12T13:51:30Z</time>
      </trkpt>
      <trkpt lat="44.50627" lon="5.85533">
        <ele>1030</ele>
        <time>2019-06-12T13:51:31Z</time>
      </trkpt>
      <trkpt lat="44.50626" lon="5.85531">
        <ele>1030</ele>
        <time>2019-06-12T13:51:32Z</time>
      </trkpt>
      <trkpt lat="44.50626" lon="5.85528">
        <ele>1030</ele>
        <time>2019-06-12T13:51:33Z</time>
      </trkpt>
      <trkpt lat="44.50626" lon="5.85526">
        <ele>1031</ele>
        <time>2019-06-12T13:51:34Z</time>
      </trkpt>
      <trkpt lat="44.50625" lon="5.85523">
        <ele>1031</ele>
        <time>2019-06-12T13:51:35Z</time>
      </trkpt>
      <trkpt lat="44.50625" lon="5.85521">
        <ele>1031</ele>
        <time>2019-06-12T13:51:36Z</time>
      </trkpt>
      <trkpt lat="44.50624" lon="5.85518">
        <ele>1031</ele>
        <time>2019-06-12T13:51:37Z</time>
      </trkpt>
      <trkpt lat="44.50623" lon="5.85516">
        <ele>1031</ele>
        <time>2019-06-12T13:51:38Z</time>
      </trkpt>
      <trkpt lat="44.50622" lon="5.85514">
        <ele>1032</ele>
        <time>2019-06-12T13:51:39Z</time>
      </trkpt>
      <trkpt lat="44.50622" lon="5.85511">
        <ele>1032</ele>
        <time>2019-06-12T13:51:40Z</time>
      </trkpt>
      <trkpt lat="44.50621" lon="5.85509">
        <ele>1032</ele>
        <time>2019-06-12T13:51:41Z</time>
      </trkpt>
      <trkpt lat="44.50621" lon="5.85507">
        <ele>1032</ele>
        <time>2019-06-12T13:51:42Z</time>
      </trkpt>
      <trkpt lat="44.5062" lon="5.85505">
        <ele>1033</ele>
        <time>2019-06-12T13:51:43Z</time>
      </trkpt>
      <trkpt lat="44.5062" lon="5.85503">
        <ele>1033</ele>
        <time>2019-06-12T13:51:44Z</time>
      </trkpt>
      <trkpt lat="44.50619" lon="5.85501">
        <ele>1033</ele>
        <time>2019-06-12T13:51:45Z</time>
      </trkpt>
      <trkpt lat="44.50618" lon="5.85498">
        <ele>1033</ele>
        <time>2019-06-12T13:51:46Z</time>
      </trkpt>
      <trkpt lat="44.50617" lon="5.85495">
        <ele>1034</ele>
        <time>2019-06-12T13:51:47Z</time>
      </trkpt>
      <trkpt lat="44.50616" lon="5.85492">
        <ele>1034</ele>
        <time>2019-06-12T13:51:48Z</time>
      </trkpt>
      <trkpt lat="44.50616" lon="5.85488">
        <ele>1034</ele>
        <time>2019-06-12T13:51:49Z</time>
      </trkpt>
      <trkpt lat="44.50616" lon="5.85485">
        <ele>1034</ele>
        <time>2019-06-12T13:51:50Z</time>
      </trkpt>
      <trkpt lat="44.50616" lon="5.85482">
        <ele>1034</ele>
        <time>2019-06-12T13:51:51Z</time>
      </trkpt>
      <trkpt lat="44.50615" lon="5.85478">
        <ele>1034</ele>
        <time>2019-06-12T13:51:52Z</time>
      </trkpt>
      <trkpt lat="44.50615" lon="5.85474">
        <ele>1035</ele>
        <time>2019-06-12T13:51:53Z</time>
      </trkpt>
      <trkpt lat="44.50615" lon="5.8547">
        <ele>1035</ele>
        <time>2019-06-12T13:51:54Z</time>
      </trkpt>
      <trkpt lat="44.50615" lon="5.85467">
        <ele>1035</ele>
        <time>2019-06-12T13:51:55Z</time>
      </trkpt>
      <trkpt lat="44.50616" lon="5.85465">
        <ele>1035</ele>
        <time>2019-06-12T13:51:56Z</time>
      </trkpt>
      <trkpt lat="44.50616" lon="5.85462">
        <ele>1035</ele>
        <time>2019-06-12T13:51:57Z</time>
      </trkpt>
      <trkpt lat="44.50617" lon="5.8546">
        <ele>1036</ele>
        <time>2019-06-12T13:51:58Z</time>
      </trkpt>
      <trkpt lat="44.50618" lon="5.85458">
        <ele>1036</ele>
        <time>2019-06-12T13:51:59Z</time>
      </trkpt>
      <trkpt lat="44.50619" lon="5.85456">
        <ele>1036</ele>
        <time>2019-06-12T13:52:00Z</time>
      </trkpt>
      <trkpt lat="44.50621" lon="5.85453">
        <ele>1036</ele>
        <time>2019-06-12T13:52:01Z</time>
      </trkpt>
      <trkpt lat="44.50622" lon="5.85451">
        <ele>1036</ele>
        <time>2019-06-12T13:52:02Z</time>
      </trkpt>
      <trkpt lat="44.50623" lon="5.85448">
        <ele>1036</ele>
        <time>2019-06-12T13:52:03Z</time>
      </trkpt>
      <trkpt lat="44.50624" lon="5.85446">
        <ele>1036</ele>
        <time>2019-06-12T13:52:04Z</time>
      </trkpt>
      <trkpt lat="44.50625" lon="5.85444">
        <ele>1036</ele>
        <time>2019-06-12T13:52:05Z</time>
      </trkpt>
      <trkpt lat="44.50626" lon="5.85442">
        <ele>1036</ele>
        <time>2019-06-12T13:52:06Z</time>
      </trkpt>
      <trkpt lat="44.50627" lon="5.8544">
        <ele>1036</ele>
        <time>2019-06-12T13:52:07Z</time>
      </trkpt>
      <trkpt lat="44.50628" lon="5.85438">
        <ele>1036</ele>
        <time>2019-06-12T13:52:08Z</time>
      </trkpt>
      <trkpt lat="44.50629" lon="5.85436">
        <ele>1036</ele>
        <time>2019-06-12T13:52:09Z</time>
      </trkpt>
      <trkpt lat="44.5063" lon="5.85434">
        <ele>1036</ele>
        <time>2019-06-12T13:52:10Z</time>
      </trkpt>
      <trkpt lat="44.50631" lon="5.85432">
        <ele>1036</ele>
        <time>2019-06-12T13:52:11Z</time>
      </trkpt>
      <trkpt lat="44.50632" lon="5.85431">
        <ele>1036</ele>
        <time>2019-06-12T13:52:12Z</time>
      </trkpt>
      <trkpt lat="44.50633" lon="5.85429">
        <ele>1036</ele>
        <time>2019-06-12T13:52:13Z</time>
      </trkpt>
      <trkpt lat="44.50634" lon="5.85427">
        <ele>1036</ele>
        <time>2019-06-12T13:52:14Z</time>
      </trkpt>
      <trkpt lat="44.50634" lon="5.85425">
        <ele>1036</ele>
        <time>2019-06-12T13:52:15Z</time>
      </trkpt>
      <trkpt lat="44.50636" lon="5.85424">
        <ele>1036</ele>
        <time>2019-06-12T13:52:16Z</time>
      </trkpt>
      <trkpt lat="44.50637" lon="5.85423">
        <ele>1036</ele>
        <time>2019-06-12T13:52:17Z</time>
      </trkpt>
      <trkpt lat="44.50639" lon="5.85421">
        <ele>1036</ele>
        <time>2019-06-12T13:52:18Z</time>
      </trkpt>
      <trkpt lat="44.5064" lon="5.85419">
        <ele>1037</ele>
        <time>2019-06-12T13:52:19Z</time>
      </trkpt>
      <trkpt lat="44.50641" lon="5.85418">
        <ele>1037</ele>
        <time>2019-06-12T13:52:20Z</time>
      </trkpt>
      <trkpt lat="44.50642" lon="5.85416">
        <ele>1037</ele>
        <time>2019-06-12T13:52:21Z</time>
      </trkpt>
      <trkpt lat="44.50644" lon="5.85415">
        <ele>1037</ele>
        <time>2019-06-12T13:52:22Z</time>
      </trkpt>
      <trkpt lat="44.50645" lon="5.85413">
        <ele>1037</ele>
        <time>2019-06-12T13:52:23Z</time>
      </trkpt>
      <trkpt lat="44.50646" lon="5.85412">
        <ele>1037</ele>
        <time>2019-06-12T13:52:24Z</time>
      </trkpt>
      <trkpt lat="44.50647" lon="5.8541">
        <ele>1037</ele>
        <time>2019-06-12T13:52:25Z</time>
      </trkpt>
      <trkpt lat="44.50648" lon="5.85409">
        <ele>1037</ele>
        <time>2019-06-12T13:52:26Z</time>
      </trkpt>
      <trkpt lat="44.5065" lon="5.85407">
        <ele>1038</ele>
        <time>2019-06-12T13:52:27Z</time>
      </trkpt>
      <trkpt lat="44.50651" lon="5.85405">
        <ele>1038</ele>
        <time>2019-06-12T13:52:28Z</time>
      </trkpt>
      <trkpt lat="44.50652" lon="5.85404">
        <ele>1038</ele>
        <time>2019-06-12T13:52:29Z</time>
      </trkpt>
      <trkpt lat="44.50653" lon="5.85402">
        <ele>1039</ele>
        <time>2019-06-12T13:52:30Z</time>
      </trkpt>
      <trkpt lat="44.50654" lon="5.854">
        <ele>1039</ele>
        <time>2019-06-12T13:52:31Z</time>
      </trkpt>
      <trkpt lat="44.50655" lon="5.85399">
        <ele>1040</ele>
        <time>2019-06-12T13:52:32Z</time>
      </trkpt>
      <trkpt lat="44.50656" lon="5.85397">
        <ele>1040</ele>
        <time>2019-06-12T13:52:33Z</time>
      </trkpt>
      <trkpt lat="44.50657" lon="5.85396">
        <ele>1041</ele>
        <time>2019-06-12T13:52:34Z</time>
      </trkpt>
      <trkpt lat="44.50658" lon="5.85394">
        <ele>1041</ele>
        <time>2019-06-12T13:52:35Z</time>
      </trkpt>
      <trkpt lat="44.50659" lon="5.85393">
        <ele>1042</ele>
        <time>2019-06-12T13:52:36Z</time>
      </trkpt>
      <trkpt lat="44.5066" lon="5.85391">
        <ele>1042</ele>
        <time>2019-06-12T13:52:37Z</time>
      </trkpt>
      <trkpt lat="44.50661" lon="5.85389">
        <ele>1042</ele>
        <time>2019-06-12T13:52:38Z</time>
      </trkpt>
      <trkpt lat="44.50661" lon="5.85387">
        <ele>1042</ele>
        <time>2019-06-12T13:52:39Z</time>
      </trkpt>
      <trkpt lat="44.50662" lon="5.85385">
        <ele>1043</ele>
        <time>2019-06-12T13:52:40Z</time>
      </trkpt>
      <trkpt lat="44.50662" lon="5.85383">
        <ele>1043</ele>
        <time>2019-06-12T13:52:41Z</time>
      </trkpt>
      <trkpt lat="44.50662" lon="5.8538">
        <ele>1043</ele>
        <time>2019-06-12T13:52:42Z</time>
      </trkpt>
      <trkpt lat="44.50663" lon="5.85378">
        <ele>1044</ele>
        <time>2019-06-12T13:52:43Z</time>
      </trkpt>
      <trkpt lat="44.50663" lon="5.85376">
        <ele>1044</ele>
        <time>2019-06-12T13:52:44Z</time>
      </trkpt>
      <trkpt lat="44.50663" lon="5.85373">
        <ele>1044</ele>
        <time>2019-06-12T13:52:45Z</time>
      </trkpt>
      <trkpt lat="44.50663" lon="5.85371">
        <ele>1044</ele>
        <time>2019-06-12T13:52:46Z</time>
      </trkpt>
      <trkpt lat="44.50664" lon="5.85369">
        <ele>1045</ele>
        <time>2019-06-12T13:52:47Z</time>
      </trkpt>
      <trkpt lat="44.50664" lon="5.85366">
        <ele>1045</ele>
        <time>2019-06-12T13:52:48Z</time>
      </trkpt>
      <trkpt lat="44.50664" lon="5.85364">
        <ele>1045</ele>
        <time>2019-06-12T13:52:49Z</time>
      </trkpt>
      <trkpt lat="44.50664" lon="5.85362">
        <ele>1045</ele>
        <time>2019-06-12T13:52:50Z</time>
      </trkpt>
      <trkpt lat="44.50663" lon="5.85359">
        <ele>1046</ele>
        <time>2019-06-12T13:52:51Z</time>
      </trkpt>
      <trkpt lat="44.50663" lon="5.85357">
        <ele>1046</ele>
        <time>2019-06-12T13:52:52Z</time>
      </trkpt>
      <trkpt lat="44.50663" lon="5.85355">
        <ele>1046</ele>
        <time>2019-06-12T13:52:53Z</time>
      </trkpt>
      <trkpt lat="44.50662" lon="5.85353">
        <ele>1046</ele>
        <time>2019-06-12T13:52:54Z</time>
      </trkpt>
      <trkpt lat="44.50661" lon="5.85351">
        <ele>1046</ele>
        <time>2019-06-12T13:52:55Z</time>
      </trkpt>
      <trkpt lat="44.5066" lon="5.85348">
        <ele>1047</ele>
        <time>2019-06-12T13:52:56Z</time>
      </trkpt>
      <trkpt lat="44.50659" lon="5.85346">
        <ele>1047</ele>
        <time>2019-06-12T13:52:57Z</time>
      </trkpt>
      <trkpt lat="44.50658" lon="5.85344">
        <ele>1047</ele>
        <time>2019-06-12T13:52:58Z</time>
      </trkpt>
      <trkpt lat="44.50657" lon="5.85342">
        <ele>1047</ele>
        <time>2019-06-12T13:52:59Z</time>
      </trkpt>
      <trkpt lat="44.50656" lon="5.85339">
        <ele>1048</ele>
        <time>2019-06-12T13:53:00Z</time>
      </trkpt>
      <trkpt lat="44.50655" lon="5.85337">
        <ele>1048</ele>
        <time>2019-06-12T13:53:01Z</time>
      </trkpt>
      <trkpt lat="44.50654" lon="5.85336">
        <ele>1048</ele>
        <time>2019-06-12T13:53:02Z</time>
      </trkpt>
      <trkpt lat="44.50652" lon="5.85334">
        <ele>1048</ele>
        <time>2019-06-12T13:53:03Z</time>
      </trkpt>
      <trkpt lat="44.50651" lon="5.85332">
        <ele>1049</ele>
        <time>2019-06-12T13:53:04Z</time>
      </trkpt>
      <trkpt lat="44.5065" lon="5.8533">
        <ele>1049</ele>
        <time>2019-06-12T13:53:05Z</time>
      </trkpt>
      <trkpt lat="44.50648" lon="5.85329">
        <ele>1049</ele>
        <time>2019-06-12T13:53:06Z</time>
      </trkpt>
      <trkpt lat="44.50647" lon="5.85327">
        <ele>1049</ele>
        <time>2019-06-12T13:53:07Z</time>
      </trkpt>
      <trkpt lat="44.50645" lon="5.85325">
        <ele>1050</ele>
        <time>2019-06-12T13:53:08Z</time>
      </trkpt>
      <trkpt lat="44.50643" lon="5.85324">
        <ele>1050</ele>
        <time>2019-06-12T13:53:09Z</time>
      </trkpt>
      <trkpt lat="44.50641" lon="5.85323">
        <ele>1050</ele>
        <time>2019-06-12T13:53:10Z</time>
      </trkpt>
      <trkpt lat="44.50639" lon="5.85321">
        <ele>1050</ele>
        <time>2019-06-12T13:53:11Z</time>
      </trkpt>
      <trkpt lat="44.50637" lon="5.8532">
        <ele>1050</ele>
        <time>2019-06-12T13:53:12Z</time>
      </trkpt>
      <trkpt lat="44.50634" lon="5.85318">
        <ele>1050</ele>
        <time>2019-06-12T13:53:13Z</time>
      </trkpt>
      <trkpt lat="44.50632" lon="5.85315">
        <ele>1050</ele>
        <time>2019-06-12T13:53:14Z</time>
      </trkpt>
      <trkpt lat="44.50629" lon="5.85313">
        <ele>1050</ele>
        <time>2019-06-12T13:53:15Z</time>
      </trkpt>
      <trkpt lat="44.50627" lon="5.8531">
        <ele>1050</ele>
        <time>2019-06-12T13:53:16Z</time>
      </trkpt>
      <trkpt lat="44.50624" lon="5.85306">
        <ele>1050</ele>
        <time>2019-06-12T13:53:17Z</time>
      </trkpt>
      <trkpt lat="44.50621" lon="5.85303">
        <ele>1050</ele>
        <time>2019-06-12T13:53:18Z</time>
      </trkpt>
      <trkpt lat="44.50618" lon="5.85299">
        <ele>1050</ele>
        <time>2019-06-12T13:53:19Z</time>
      </trkpt>
      <trkpt lat="44.50615" lon="5.85294">
        <ele>1050</ele>
        <time>2019-06-12T13:53:20Z</time>
      </trkpt>
      <trkpt lat="44.50611" lon="5.85289">
        <ele>1050</ele>
        <time>2019-06-12T13:53:21Z</time>
      </trkpt>
      <trkpt lat="44.50607" lon="5.85284">
        <ele>1050</ele>
        <time>2019-06-12T13:53:22Z</time>
      </trkpt>
      <trkpt lat="44.50603" lon="5.85278">
        <ele>1050</ele>
        <time>2019-06-12T13:53:23Z</time>
      </trkpt>
      <trkpt lat="44.50598" lon="5.85272">
        <ele>1050</ele>
        <time>2019-06-12T13:53:24Z</time>
      </trkpt>
      <trkpt lat="44.50593" lon="5.85266">
        <ele>1050</ele>
        <time>2019-06-12T13:53:25Z</time>
      </trkpt>
      <trkpt lat="44.50588" lon="5.8526">
        <ele>1050</ele>
        <time>2019-06-12T13:53:26Z</time>
      </trkpt>
      <trkpt lat="44.50583" lon="5.85253">
        <ele>1050</ele>
        <time>2019-06-12T13:53:27Z</time>
      </trkpt>
      <trkpt lat="44.50578" lon="5.85244">
        <ele>1050</ele>
        <time>2019-06-12T13:53:28Z</time>
      </trkpt>
      <trkpt lat="44.50575" lon="5.85235">
        <ele>1050</ele>
        <time>2019-06-12T13:53:29Z</time>
      </trkpt>
      <trkpt lat="44.50573" lon="5.85224">
        <ele>1050</ele>
        <time>2019-06-12T13:53:30Z</time>
      </trkpt>
      <trkpt lat="44.50572" lon="5.85212">
        <ele>1049</ele>
        <time>2019-06-12T13:53:31Z</time>
      </trkpt>
      <trkpt lat="44.5057" lon="5.852">
        <ele>1048</ele>
        <time>2019-06-12T13:53:32Z</time>
      </trkpt>
      <trkpt lat="44.50568" lon="5.85187">
        <ele>1048</ele>
        <time>2019-06-12T13:53:33Z</time>
      </trkpt>
      <trkpt lat="44.50567" lon="5.85175">
        <ele>1047</ele>
        <time>2019-06-12T13:53:34Z</time>
      </trkpt>
      <trkpt lat="44.50566" lon="5.85163">
        <ele>1046</ele>
        <time>2019-06-12T13:53:35Z</time>
      </trkpt>
      <trkpt lat="44.50567" lon="5.8515">
        <ele>1046</ele>
        <time>2019-06-12T13:53:36Z</time>
      </trkpt>
      <trkpt lat="44.50568" lon="5.85137">
        <ele>1045</ele>
        <time>2019-06-12T13:53:37Z</time>
      </trkpt>
      <trkpt lat="44.5057" lon="5.85124">
        <ele>1044</ele>
        <time>2019-06-12T13:53:38Z</time>
      </trkpt>
      <trkpt lat="44.50571" lon="5.8511">
        <ele>1044</ele>
        <time>2019-06-12T13:53:39Z</time>
      </trkpt>
      <trkpt lat="44.50573" lon="5.85096">
        <ele>1043</ele>
        <time>2019-06-12T13:53:40Z</time>
      </trkpt>
      <trkpt lat="44.50574" lon="5.85082">
        <ele>1042</ele>
        <time>2019-06-12T13:53:41Z</time>
      </trkpt>
      <trkpt lat="44.50574" lon="5.85068">
        <ele>1041</ele>
        <time>2019-06-12T13:53:42Z</time>
      </trkpt>
      <trkpt lat="44.50572" lon="5.85053">
        <ele>1041</ele>
        <time>2019-06-12T13:53:43Z</time>
      </trkpt>
      <trkpt lat="44.50568" lon="5.85039">
        <ele>1040</ele>
        <time>2019-06-12T13:53:44Z</time>
      </trkpt>
      <trkpt lat="44.50563" lon="5.85026">
        <ele>1039</ele>
        <time>2019-06-12T13:53:45Z</time>
      </trkpt>
      <trkpt lat="44.50556" lon="5.85013">
        <ele>1038</ele>
        <time>2019-06-12T13:53:46Z</time>
      </trkpt>
      <trkpt lat="44.50548" lon="5.85002">
        <ele>1037</ele>
        <time>2019-06-12T13:53:47Z</time>
      </trkpt>
      <trkpt lat="44.50539" lon="5.84992">
        <ele>1036</ele>
        <time>2019-06-12T13:53:48Z</time>
      </trkpt>
      <trkpt lat="44.50531" lon="5.84985">
        <ele>1035</ele>
        <time>2019-06-12T13:53:49Z</time>
      </trkpt>
      <trkpt lat="44.50523" lon="5.84979">
        <ele>1034</ele>
        <time>2019-06-12T13:53:50Z</time>
      </trkpt>
      <trkpt lat="44.50516" lon="5.84975">
        <ele>1033</ele>
        <time>2019-06-12T13:53:51Z</time>
      </trkpt>
      <trkpt lat="44.5051" lon="5.84972">
        <ele>1032</ele>
        <time>2019-06-12T13:53:52Z</time>
      </trkpt>
      <trkpt lat="44.50504" lon="5.84968">
        <ele>1031</ele>
        <time>2019-06-12T13:53:53Z</time>
      </trkpt>
      <trkpt lat="44.50498" lon="5.84965">
        <ele>1030</ele>
        <time>2019-06-12T13:53:54Z</time>
      </trkpt>
      <trkpt lat="44.50492" lon="5.84962">
        <ele>1029</ele>
        <time>2019-06-12T13:53:55Z</time>
      </trkpt>
      <trkpt lat="44.50486" lon="5.84959">
        <ele>1028</ele>
        <time>2019-06-12T13:53:56Z</time>
      </trkpt>
      <trkpt lat="44.50479" lon="5.84957">
        <ele>1027</ele>
        <time>2019-06-12T13:53:57Z</time>
      </trkpt>
      <trkpt lat="44.50472" lon="5.84955">
        <ele>1026</ele>
        <time>2019-06-12T13:53:58Z</time>
      </trkpt>
      <trkpt lat="44.50464" lon="5.84954">
        <ele>1025</ele>
        <time>2019-06-12T13:53:59Z</time>
      </trkpt>
      <trkpt lat="44.50455" lon="5.84954">
        <ele>1024</ele>
        <time>2019-06-12T13:54:00Z</time>
      </trkpt>
      <trkpt lat="44.50446" lon="5.84955">
        <ele>1023</ele>
        <time>2019-06-12T13:54:01Z</time>
      </trkpt>
      <trkpt lat="44.50436" lon="5.84956">
        <ele>1022</ele>
        <time>2019-06-12T13:54:02Z</time>
      </trkpt>
      <trkpt lat="44.50426" lon="5.84956">
        <ele>1021</ele>
        <time>2019-06-12T13:54:03Z</time>
      </trkpt>
      <trkpt lat="44.50417" lon="5.84954">
        <ele>1020</ele>
        <time>2019-06-12T13:54:04Z</time>
      </trkpt>
      <trkpt lat="44.50409" lon="5.84949">
        <ele>1019</ele>
        <time>2019-06-12T13:54:05Z</time>
      </trkpt>
      <trkpt lat="44.50405" lon="5.84939">
        <ele>1018</ele>
        <time>2019-06-12T13:54:06Z</time>
      </trkpt>
      <trkpt lat="44.50402" lon="5.84928">
        <ele>1017</ele>
        <time>2019-06-12T13:54:07Z</time>
      </trkpt>
      <trkpt lat="44.50399" lon="5.84917">
        <ele>1016</ele>
        <time>2019-06-12T13:54:08Z</time>
      </trkpt>
      <trkpt lat="44.50396" lon="5.84906">
        <ele>1015</ele>
        <time>2019-06-12T13:54:09Z</time>
      </trkpt>
      <trkpt lat="44.50391" lon="5.84897">
        <ele>1014</ele>
        <time>2019-06-12T13:54:10Z</time>
      </trkpt>
      <trkpt lat="44.50384" lon="5.8489">
        <ele>1013</ele>
        <time>2019-06-12T13:54:11Z</time>
      </trkpt>
      <trkpt lat="44.50377" lon="5.84885">
        <ele>1012</ele>
        <time>2019-06-12T13:54:12Z</time>
      </trkpt>
      <trkpt lat="44.50369" lon="5.84881">
        <ele>1012</ele>
        <time>2019-06-12T13:54:13Z</time>
      </trkpt>
      <trkpt lat="44.50362" lon="5.84879">
        <ele>1011</ele>
        <time>2019-06-12T13:54:14Z</time>
      </trkpt>
      <trkpt lat="44.50353" lon="5.84878">
        <ele>1010</ele>
        <time>2019-06-12T13:54:15Z</time>
      </trkpt>
      <trkpt lat="44.50345" lon="5.84878">
        <ele>1009</ele>
        <time>2019-06-12T13:54:16Z</time>
      </trkpt>
      <trkpt lat="44.50335" lon="5.84879">
        <ele>1008</ele>
        <time>2019-06-12T13:54:17Z</time>
      </trkpt>
      <trkpt lat="44.50326" lon="5.8488">
        <ele>1007</ele>
        <time>2019-06-12T13:54:18Z</time>
      </trkpt>
      <trkpt lat="44.50316" lon="5.84881">
        <ele>1006</ele>
        <time>2019-06-12T13:54:19Z</time>
      </trkpt>
      <trkpt lat="44.50306" lon="5.84883">
        <ele>1006</ele>
        <time>2019-06-12T13:54:20Z</time>
      </trkpt>
      <trkpt lat="44.50295" lon="5.84885">
        <ele>1006</ele>
        <time>2019-06-12T13:54:21Z</time>
      </trkpt>
      <trkpt lat="44.50284" lon="5.84888">
        <ele>1005</ele>
        <time>2019-06-12T13:54:22Z</time>
      </trkpt>
      <trkpt lat="44.50274" lon="5.8489">
        <ele>1005</ele>
        <time>2019-06-12T13:54:23Z</time>
      </trkpt>
      <trkpt lat="44.50262" lon="5.84892">
        <ele>1005</ele>
        <time>2019-06-12T13:54:24Z</time>
      </trkpt>
      <trkpt lat="44.50252" lon="5.84891">
        <ele>1004</ele>
        <time>2019-06-12T13:54:25Z</time>
      </trkpt>
      <trkpt lat="44.50241" lon="5.84889">
        <ele>1003</ele>
        <time>2019-06-12T13:54:26Z</time>
      </trkpt>
      <trkpt lat="44.50231" lon="5.84885">
        <ele>1003</ele>
        <time>2019-06-12T13:54:27Z</time>
      </trkpt>
      <trkpt lat="44.5022" lon="5.84881">
        <ele>1002</ele>
        <time>2019-06-12T13:54:28Z</time>
      </trkpt>
      <trkpt lat="44.50211" lon="5.84876">
        <ele>1002</ele>
        <time>2019-06-12T13:54:29Z</time>
      </trkpt>
      <trkpt lat="44.50201" lon="5.84873">
        <ele>1001</ele>
        <time>2019-06-12T13:54:30Z</time>
      </trkpt>
      <trkpt lat="44.50191" lon="5.84869">
        <ele>1001</ele>
        <time>2019-06-12T13:54:31Z</time>
      </trkpt>
      <trkpt lat="44.50182" lon="5.84865">
        <ele>1000</ele>
        <time>2019-06-12T13:54:32Z</time>
      </trkpt>
      <trkpt lat="44.50173" lon="5.84861">
        <ele>1000</ele>
        <time>2019-06-12T13:54:33Z</time>
      </trkpt>
      <trkpt lat="44.50164" lon="5.84858">
        <ele>999</ele>
        <time>2019-06-12T13:54:34Z</time>
      </trkpt>
      <trkpt lat="44.50155" lon="5.84853">
        <ele>999</ele>
        <time>2019-06-12T13:54:35Z</time>
      </trkpt>
      <trkpt lat="44.50146" lon="5.84849">
        <ele>998</ele>
        <time>2019-06-12T13:54:36Z</time>
      </trkpt>
      <trkpt lat="44.50137" lon="5.84843">
        <ele>997</ele>
        <time>2019-06-12T13:54:37Z</time>
      </trkpt>
      <trkpt lat="44.50129" lon="5.84835">
        <ele>997</ele>
        <time>2019-06-12T13:54:38Z</time>
      </trkpt>
      <trkpt lat="44.50122" lon="5.84826">
        <ele>996</ele>
        <time>2019-06-12T13:54:39Z</time>
      </trkpt>
      <trkpt lat="44.50115" lon="5.84816">
        <ele>995</ele>
        <time>2019-06-12T13:54:40Z</time>
      </trkpt>
      <trkpt lat="44.50108" lon="5.84805">
        <ele>994</ele>
        <time>2019-06-12T13:54:41Z</time>
      </trkpt>
      <trkpt lat="44.50101" lon="5.84794">
        <ele>993</ele>
        <time>2019-06-12T13:54:42Z</time>
      </trkpt>
      <trkpt lat="44.50094" lon="5.84783">
        <ele>992</ele>
        <time>2019-06-12T13:54:43Z</time>
      </trkpt>
      <trkpt lat="44.50087" lon="5.84773">
        <ele>991</ele>
        <time>2019-06-12T13:54:44Z</time>
      </trkpt>
      <trkpt lat="44.50079" lon="5.84763">
        <ele>991</ele>
        <time>2019-06-12T13:54:45Z</time>
      </trkpt>
      <trkpt lat="44.50071" lon="5.84754">
        <ele>990</ele>
        <time>2019-06-12T13:54:46Z</time>
      </trkpt>
      <trkpt lat="44.50062" lon="5.84748">
        <ele>989</ele>
        <time>2019-06-12T13:54:47Z</time>
      </trkpt>
      <trkpt lat="44.50054" lon="5.84742">
        <ele>988</ele>
        <time>2019-06-12T13:54:48Z</time>
      </trkpt>
      <trkpt lat="44.50045" lon="5.84737">
        <ele>988</ele>
        <time>2019-06-12T13:54:49Z</time>
      </trkpt>
      <trkpt lat="44.50037" lon="5.84733">
        <ele>987</ele>
        <time>2019-06-12T13:54:50Z</time>
      </trkpt>
      <trkpt lat="44.50028" lon="5.84728">
        <ele>986</ele>
        <time>2019-06-12T13:54:51Z</time>
      </trkpt>
      <trkpt lat="44.50019" lon="5.84724">
        <ele>986</ele>
        <time>2019-06-12T13:54:52Z</time>
      </trkpt>
      <trkpt lat="44.50009" lon="5.8472">
        <ele>985</ele>
        <time>2019-06-12T13:54:53Z</time>
      </trkpt>
      <trkpt lat="44.5" lon="5.84717">
        <ele>984</ele>
        <time>2019-06-12T13:54:54Z</time>
      </trkpt>
      <trkpt lat="44.4999" lon="5.84714">
        <ele>983</ele>
        <time>2019-06-12T13:54:55Z</time>
      </trkpt>
      <trkpt lat="44.49981" lon="5.84711">
        <ele>983</ele>
        <time>2019-06-12T13:54:56Z</time>
      </trkpt>
      <trkpt lat="44.49971" lon="5.84708">
        <ele>982</ele>
        <time>2019-06-12T13:54:57Z</time>
      </trkpt>
      <trkpt lat="44.49962" lon="5.84704">
        <ele>981</ele>
        <time>2019-06-12T13:54:58Z</time>
      </trkpt>
      <trkpt lat="44.49953" lon="5.84699">
        <ele>980</ele>
        <time>2019-06-12T13:54:59Z</time>
      </trkpt>
      <trkpt lat="44.49945" lon="5.84693">
        <ele>979</ele>
        <time>2019-06-12T13:55:00Z</time>
      </trkpt>
      <trkpt lat="44.49937" lon="5.84685">
        <ele>979</ele>
        <time>2019-06-12T13:55:01Z</time>
      </trkpt>
      <trkpt lat="44.49929" lon="5.84675">
        <ele>978</ele>
        <time>2019-06-12T13:55:02Z</time>
      </trkpt>
      <trkpt lat="44.49921" lon="5.84665">
        <ele>977</ele>
        <time>2019-06-12T13:55:03Z</time>
      </trkpt>
      <trkpt lat="44.49913" lon="5.84656">
        <ele>976</ele>
        <time>2019-06-12T13:55:04Z</time>
      </trkpt>
      <trkpt lat="44.49903" lon="5.84647">
        <ele>975</ele>
        <time>2019-06-12T13:55:05Z</time>
      </trkpt>
      <trkpt lat="44.49894" lon="5.84638">
        <ele>974</ele>
        <time>2019-06-12T13:55:06Z</time>
      </trkpt>
      <trkpt lat="44.49885" lon="5.8463">
        <ele>973</ele>
        <time>2019-06-12T13:55:07Z</time>
      </trkpt>
      <trkpt lat="44.49876" lon="5.84622">
        <ele>972</ele>
        <time>2019-06-12T13:55:08Z</time>
      </trkpt>
      <trkpt lat="44.49868" lon="5.84614">
        <ele>971</ele>
        <time>2019-06-12T13:55:09Z</time>
      </trkpt>
      <trkpt lat="44.49861" lon="5.84605">
        <ele>971</ele>
        <time>2019-06-12T13:55:10Z</time>
      </trkpt>
      <trkpt lat="44.49854" lon="5.84595">
        <ele>970</ele>
        <time>2019-06-12T13:55:11Z</time>
      </trkpt>
      <trkpt lat="44.49849" lon="5.84585">
        <ele>969</ele>
        <time>2019-06-12T13:55:12Z</time>
      </trkpt>
      <trkpt lat="44.49843" lon="5.84574">
        <ele>968</ele>
        <time>2019-06-12T13:55:13Z</time>
      </trkpt>
      <trkpt lat="44.49838" lon="5.84565">
        <ele>967</ele>
        <time>2019-06-12T13:55:14Z</time>
      </trkpt>
      <trkpt lat="44.49832" lon="5.84556">
        <ele>966</ele>
        <time>2019-06-12T13:55:15Z</time>
      </trkpt>
      <trkpt lat="44.49825" lon="5.84549">
        <ele>966</ele>
        <time>2019-06-12T13:55:16Z</time>
      </trkpt>
      <trkpt lat="44.49818" lon="5.84544">
        <ele>965</ele>
        <time>2019-06-12T13:55:17Z</time>
      </trkpt>
      <trkpt lat="44.4981" lon="5.8454">
        <ele>964</ele>
        <time>2019-06-12T13:55:18Z</time>
      </trkpt>
      <trkpt lat="44.49801" lon="5.84538">
        <ele>964</ele>
        <time>2019-06-12T13:55:19Z</time>
      </trkpt>
      <trkpt lat="44.49792" lon="5.84536">
        <ele>963</ele>
        <time>2019-06-12T13:55:20Z</time>
      </trkpt>
      <trkpt lat="44.49783" lon="5.84535">
        <ele>962</ele>
        <time>2019-06-12T13:55:21Z</time>
      </trkpt>
      <trkpt lat="44.49774" lon="5.84532">
        <ele>962</ele>
        <time>2019-06-12T13:55:22Z</time>
      </trkpt>
      <trkpt lat="44.49765" lon="5.84527">
        <ele>961</ele>
        <time>2019-06-12T13:55:23Z</time>
      </trkpt>
      <trkpt lat="44.49756" lon="5.84521">
        <ele>960</ele>
        <time>2019-06-12T13:55:24Z</time>
      </trkpt>
      <trkpt lat="44.49748" lon="5.84514">
        <ele>960</ele>
        <time>2019-06-12T13:55:25Z</time>
      </trkpt>
      <trkpt lat="44.4974" lon="5.84505">
        <ele>959</ele>
        <time>2019-06-12T13:55:26Z</time>
      </trkpt>
      <trkpt lat="44.49732" lon="5.84495">
        <ele>958</ele>
        <time>2019-06-12T13:55:27Z</time>
      </trkpt>
      <trkpt lat="44.49725" lon="5.84484">
        <ele>957</ele>
        <time>2019-06-12T13:55:28Z</time>
      </trkpt>
      <trkpt lat="44.49718" lon="5.84473">
        <ele>957</ele>
        <time>2019-06-12T13:55:29Z</time>
      </trkpt>
      <trkpt lat="44.49711" lon="5.84462">
        <ele>956</ele>
        <time>2019-06-12T13:55:30Z</time>
      </trkpt>
      <trkpt lat="44.49704" lon="5.84452">
        <ele>955</ele>
        <time>2019-06-12T13:55:31Z</time>
      </trkpt>
      <trkpt lat="44.49696" lon="5.84441">
        <ele>954</ele>
        <time>2019-06-12T13:55:32Z</time>
      </trkpt>
      <trkpt lat="44.49689" lon="5.84431">
        <ele>954</ele>
        <time>2019-06-12T13:55:33Z</time>
      </trkpt>
      <trkpt lat="44.49683" lon="5.84421">
        <ele>953</ele>
        <time>2019-06-12T13:55:34Z</time>
      </trkpt>
      <trkpt lat="44.49678" lon="5.84413">
        <ele>952</ele>
        <time>2019-06-12T13:55:35Z</time>
      </trkpt>
      <trkpt lat="44.49673" lon="5.84406">
        <ele>951</ele>
        <time>2019-06-12T13:55:36Z</time>
      </trkpt>
      <trkpt lat="44.49668" lon="5.84399">
        <ele>951</ele>
        <time>2019-06-12T13:55:37Z</time>
      </trkpt>
      <trkpt lat="44.49662" lon="5.84396">
        <ele>950</ele>
        <time>2019-06-12T13:55:38Z</time>
      </trkpt>
      <trkpt lat="44.49656" lon="5.84396">
        <ele>949</ele>
        <time>2019-06-12T13:55:39Z</time>
      </trkpt>
      <trkpt lat="44.49651" lon="5.84399">
        <ele>949</ele>
        <time>2019-06-12T13:55:40Z</time>
      </trkpt>
      <trkpt lat="44.49648" lon="5.84406">
        <ele>948</ele>
        <time>2019-06-12T13:55:41Z</time>
      </trkpt>
      <trkpt lat="44.49645" lon="5.84414">
        <ele>948</ele>
        <time>2019-06-12T13:55:42Z</time>
      </trkpt>
      <trkpt lat="44.49643" lon="5.84423">
        <ele>947</ele>
        <time>2019-06-12T13:55:43Z</time>
      </trkpt>
      <trkpt lat="44.49641" lon="5.84431">
        <ele>947</ele>
        <time>2019-06-12T13:55:44Z</time>
      </trkpt>
      <trkpt lat="44.49639" lon="5.8444">
        <ele>947</ele>
        <time>2019-06-12T13:55:45Z</time>
      </trkpt>
      <trkpt lat="44.49636" lon="5.8445">
        <ele>946</ele>
        <time>2019-06-12T13:55:46Z</time>
      </trkpt>
      <trkpt lat="44.49632" lon="5.84459">
        <ele>946</ele>
        <time>2019-06-12T13:55:47Z</time>
      </trkpt>
      <trkpt lat="44.49628" lon="5.84468">
        <ele>945</ele>
        <time>2019-06-12T13:55:48Z</time>
      </trkpt>
      <trkpt lat="44.49623" lon="5.84476">
        <ele>944</ele>
        <time>2019-06-12T13:55:49Z</time>
      </trkpt>
      <trkpt lat="44.49617" lon="5.84483">
        <ele>943</ele>
        <time>2019-06-12T13:55:50Z</time>
      </trkpt>
      <trkpt lat="44.49611" lon="5.8449">
        <ele>943</ele>
        <time>2019-06-12T13:55:51Z</time>
      </trkpt>
      <trkpt lat="44.49605" lon="5.84496">
        <ele>943</ele>
        <time>2019-06-12T13:55:52Z</time>
      </trkpt>
      <trkpt lat="44.496" lon="5.84501">
        <ele>942</ele>
        <time>2019-06-12T13:55:53Z</time>
      </trkpt>
      <trkpt lat="44.49596" lon="5.84506">
        <ele>942</ele>
        <time>2019-06-12T13:55:54Z</time>
      </trkpt>
      <trkpt lat="44.49591" lon="5.8451">
        <ele>942</ele>
        <time>2019-06-12T13:55:55Z</time>
      </trkpt>
      <trkpt lat="44.49586" lon="5.84513">
        <ele>941</ele>
        <time>2019-06-12T13:55:56Z</time>
      </trkpt>
      <trkpt lat="44.49581" lon="5.84516">
        <ele>941</ele>
        <time>2019-06-12T13:55:57Z</time>
      </trkpt>
      <trkpt lat="44.49576" lon="5.8452">
        <ele>940</ele>
        <time>2019-06-12T13:55:58Z</time>
      </trkpt>
      <trkpt lat="44.49571" lon="5.84523">
        <ele>940</ele>
        <time>2019-06-12T13:55:59Z</time>
      </trkpt>
      <trkpt lat="44.49567" lon="5.84526">
        <ele>940</ele>
        <time>2019-06-12T13:56:00Z</time>
      </trkpt>
      <trkpt lat="44.49563" lon="5.84529">
        <ele>940</ele>
        <time>2019-06-12T13:56:01Z</time>
      </trkpt>
      <trkpt lat="44.49559" lon="5.8453">
        <ele>939</ele>
        <time>2019-06-12T13:56:02Z</time>
      </trkpt>
      <trkpt lat="44.49556" lon="5.84531">
        <ele>939</ele>
        <time>2019-06-12T13:56:03Z</time>
      </trkpt>
      <trkpt lat="44.49552" lon="5.84532">
        <ele>939</ele>
        <time>2019-06-12T13:56:04Z</time>
      </trkpt>
      <trkpt lat="44.49549" lon="5.84532">
        <ele>939</ele>
        <time>2019-06-12T13:56:05Z</time>
      </trkpt>
      <trkpt lat="44.49546" lon="5.84532">
        <ele>938</ele>
        <time>2019-06-12T13:56:06Z</time>
      </trkpt>
      <trkpt lat="44.49541" lon="5.8453">
        <ele>938</ele>
        <time>2019-06-12T13:56:07Z</time>
      </trkpt>
      <trkpt lat="44.49537" lon="5.84528">
        <ele>938</ele>
        <time>2019-06-12T13:56:08Z</time>
      </trkpt>
      <trkpt lat="44.49532" lon="5.84525">
        <ele>937</ele>
        <time>2019-06-12T13:56:09Z</time>
      </trkpt>
      <trkpt lat="44.49526" lon="5.8452">
        <ele>937</ele>
        <time>2019-06-12T13:56:10Z</time>
      </trkpt>
      <trkpt lat="44.49521" lon="5.84514">
        <ele>936</ele>
        <time>2019-06-12T13:56:11Z</time>
      </trkpt>
      <trkpt lat="44.49517" lon="5.84507">
        <ele>936</ele>
        <time>2019-06-12T13:56:12Z</time>
      </trkpt>
      <trkpt lat="44.49512" lon="5.84499">
        <ele>935</ele>
        <time>2019-06-12T13:56:13Z</time>
      </trkpt>
      <trkpt lat="44.49508" lon="5.84489">
        <ele>935</ele>
        <time>2019-06-12T13:56:14Z</time>
      </trkpt>
      <trkpt lat="44.49506" lon="5.84479">
        <ele>934</ele>
        <time>2019-06-12T13:56:15Z</time>
      </trkpt>
      <trkpt lat="44.49504" lon="5.84468">
        <ele>933</ele>
        <time>2019-06-12T13:56:16Z</time>
      </trkpt>
      <trkpt lat="44.49504" lon="5.84456">
        <ele>933</ele>
        <time>2019-06-12T13:56:17Z</time>
      </trkpt>
      <trkpt lat="44.49504" lon="5.84444">
        <ele>932</ele>
        <time>2019-06-12T13:56:18Z</time>
      </trkpt>
      <trkpt lat="44.49504" lon="5.84432">
        <ele>932</ele>
        <time>2019-06-12T13:56:19Z</time>
      </trkpt>
      <trkpt lat="44.49504" lon="5.84419">
        <ele>932</ele>
        <time>2019-06-12T13:56:20Z</time>
      </trkpt>
      <trkpt lat="44.49504" lon="5.84407">
        <ele>931</ele>
        <time>2019-06-12T13:56:21Z</time>
      </trkpt>
      <trkpt lat="44.49505" lon="5.84395">
        <ele>931</ele>
        <time>2019-06-12T13:56:22Z</time>
      </trkpt>
      <trkpt lat="44.49507" lon="5.84383">
        <ele>931</ele>
        <time>2019-06-12T13:56:23Z</time>
      </trkpt>
      <trkpt lat="44.4951" lon="5.84373">
        <ele>931</ele>
        <time>2019-06-12T13:56:24Z</time>
      </trkpt>
      <trkpt lat="44.49512" lon="5.84362">
        <ele>931</ele>
        <time>2019-06-12T13:56:25Z</time>
      </trkpt>
      <trkpt lat="44.49516" lon="5.84352">
        <ele>931</ele>
        <time>2019-06-12T13:56:26Z</time>
      </trkpt>
      <trkpt lat="44.49519" lon="5.84343">
        <ele>931</ele>
        <time>2019-06-12T13:56:27Z</time>
      </trkpt>
      <trkpt lat="44.49522" lon="5.84334">
        <ele>931</ele>
        <time>2019-06-12T13:56:28Z</time>
      </trkpt>
      <trkpt lat="44.49525" lon="5.84324">
        <ele>931</ele>
        <time>2019-06-12T13:56:29Z</time>
      </trkpt>
      <trkpt lat="44.49527" lon="5.84315">
        <ele>931</ele>
        <time>2019-06-12T13:56:30Z</time>
      </trkpt>
      <trkpt lat="44.49529" lon="5.84305">
        <ele>931</ele>
        <time>2019-06-12T13:56:31Z</time>
      </trkpt>
      <trkpt lat="44.49529" lon="5.84296">
        <ele>931</ele>
        <time>2019-06-12T13:56:32Z</time>
      </trkpt>
      <trkpt lat="44.49529" lon="5.84287">
        <ele>931</ele>
        <time>2019-06-12T13:56:33Z</time>
      </trkpt>
      <trkpt lat="44.49529" lon="5.84278">
        <ele>931</ele>
        <time>2019-06-12T13:56:34Z</time>
      </trkpt>
      <trkpt lat="44.49527" lon="5.84269">
        <ele>931</ele>
        <time>2019-06-12T13:56:35Z</time>
      </trkpt>
      <trkpt lat="44.49525" lon="5.84261">
        <ele>931</ele>
        <time>2019-06-12T13:56:36Z</time>
      </trkpt>
      <trkpt lat="44.49521" lon="5.84254">
        <ele>931</ele>
        <time>2019-06-12T13:56:37Z</time>
      </trkpt>
      <trkpt lat="44.49518" lon="5.84247">
        <ele>931</ele>
        <time>2019-06-12T13:56:38Z</time>
      </trkpt>
      <trkpt lat="44.49514" lon="5.84241">
        <ele>931</ele>
        <time>2019-06-12T13:56:39Z</time>
      </trkpt>
      <trkpt lat="44.49509" lon="5.84235">
        <ele>931</ele>
        <time>2019-06-12T13:56:40Z</time>
      </trkpt>
      <trkpt lat="44.49505" lon="5.8423">
        <ele>931</ele>
        <time>2019-06-12T13:56:41Z</time>
      </trkpt>
      <trkpt lat="44.495" lon="5.84223">
        <ele>931</ele>
        <time>2019-06-12T13:56:42Z</time>
      </trkpt>
      <trkpt lat="44.49496" lon="5.84216">
        <ele>931</ele>
        <time>2019-06-12T13:56:43Z</time>
      </trkpt>
      <trkpt lat="44.49491" lon="5.84209">
        <ele>931</ele>
        <time>2019-06-12T13:56:44Z</time>
      </trkpt>
      <trkpt lat="44.49487" lon="5.84202">
        <ele>931</ele>
        <time>2019-06-12T13:56:45Z</time>
      </trkpt>
      <trkpt lat="44.49482" lon="5.84195">
        <ele>931</ele>
        <time>2019-06-12T13:56:46Z</time>
      </trkpt>
      <trkpt lat="44.49478" lon="5.84187">
        <ele>931</ele>
        <time>2019-06-12T13:56:47Z</time>
      </trkpt>
      <trkpt lat="44.49474" lon="5.84179">
        <ele>930</ele>
        <time>2019-06-12T13:56:48Z</time>
      </trkpt>
      <trkpt lat="44.49471" lon="5.8417">
        <ele>930</ele>
        <time>2019-06-12T13:56:49Z</time>
      </trkpt>
      <trkpt lat="44.49467" lon="5.84162">
        <ele>930</ele>
        <time>2019-06-12T13:56:50Z</time>
      </trkpt>
      <trkpt lat="44.49464" lon="5.84153">
        <ele>930</ele>
        <time>2019-06-12T13:56:51Z</time>
      </trkpt>
      <trkpt lat="44.4946" lon="5.84145">
        <ele>930</ele>
        <time>2019-06-12T13:56:52Z</time>
      </trkpt>
      <trkpt lat="44.49456" lon="5.84136">
        <ele>930</ele>
        <time>2019-06-12T13:56:53Z</time>
      </trkpt>
      <trkpt lat="44.49452" lon="5.84128">
        <ele>930</ele>
        <time>2019-06-12T13:56:54Z</time>
      </trkpt>
      <trkpt lat="44.49448" lon="5.8412">
        <ele>930</ele>
        <time>2019-06-12T13:56:55Z</time>
      </trkpt>
      <trkpt lat="44.49444" lon="5.84111">
        <ele>929</ele>
        <time>2019-06-12T13:56:56Z</time>
      </trkpt>
      <trkpt lat="44.4944" lon="5.84103">
        <ele>929</ele>
        <time>2019-06-12T13:56:57Z</time>
      </trkpt>
      <trkpt lat="44.49436" lon="5.84095">
        <ele>929</ele>
        <time>2019-06-12T13:56:58Z</time>
      </trkpt>
      <trkpt lat="44.49432" lon="5.84087">
        <ele>929</ele>
        <time>2019-06-12T13:56:59Z</time>
      </trkpt>
      <trkpt lat="44.49428" lon="5.84078">
        <ele>929</ele>
        <time>2019-06-12T13:57:00Z</time>
      </trkpt>
      <trkpt lat="44.49423" lon="5.8407">
        <ele>929</ele>
        <time>2019-06-12T13:57:01Z</time>
      </trkpt>
      <trkpt lat="44.49419" lon="5.84062">
        <ele>929</ele>
        <time>2019-06-12T13:57:02Z</time>
      </trkpt>
      <trkpt lat="44.49415" lon="5.84054">
        <ele>929</ele>
        <time>2019-06-12T13:57:03Z</time>
      </trkpt>
      <trkpt lat="44.49411" lon="5.84045">
        <ele>929</ele>
        <time>2019-06-12T13:57:04Z</time>
      </trkpt>
      <trkpt lat="44.49407" lon="5.84036">
        <ele>928</ele>
        <time>2019-06-12T13:57:05Z</time>
      </trkpt>
      <trkpt lat="44.49403" lon="5.84028">
        <ele>928</ele>
        <time>2019-06-12T13:57:06Z</time>
      </trkpt>
      <trkpt lat="44.49399" lon="5.84019">
        <ele>928</ele>
        <time>2019-06-12T13:57:07Z</time>
      </trkpt>
      <trkpt lat="44.49396" lon="5.8401">
        <ele>928</ele>
        <time>2019-06-12T13:57:08Z</time>
      </trkpt>
      <trkpt lat="44.49392" lon="5.84001">
        <ele>927</ele>
        <time>2019-06-12T13:57:09Z</time>
      </trkpt>
      <trkpt lat="44.49388" lon="5.83992">
        <ele>927</ele>
        <time>2019-06-12T13:57:10Z</time>
      </trkpt>
      <trkpt lat="44.49385" lon="5.83984">
        <ele>927</ele>
        <time>2019-06-12T13:57:11Z</time>
      </trkpt>
      <trkpt lat="44.49381" lon="5.83975">
        <ele>927</ele>
        <time>2019-06-12T13:57:12Z</time>
      </trkpt>
      <trkpt lat="44.49377" lon="5.83966">
        <ele>926</ele>
        <time>2019-06-12T13:57:13Z</time>
      </trkpt>
      <trkpt lat="44.49373" lon="5.83957">
        <ele>926</ele>
        <time>2019-06-12T13:57:14Z</time>
      </trkpt>
      <trkpt lat="44.49369" lon="5.83947">
        <ele>926</ele>
        <time>2019-06-12T13:57:15Z</time>
      </trkpt>
      <trkpt lat="44.49365" lon="5.83939">
        <ele>926</ele>
        <time>2019-06-12T13:57:16Z</time>
      </trkpt>
      <trkpt lat="44.49361" lon="5.8393">
        <ele>925</ele>
        <time>2019-06-12T13:57:17Z</time>
      </trkpt>
      <trkpt lat="44.49358" lon="5.83923">
        <ele>925</ele>
        <time>2019-06-12T13:57:18Z</time>
      </trkpt>
      <trkpt lat="44.49355" lon="5.83917">
        <ele>925</ele>
        <time>2019-06-12T13:57:19Z</time>
      </trkpt>
      <trkpt lat="44.49352" lon="5.83909">
        <ele>924</ele>
        <time>2019-06-12T13:57:20Z</time>
      </trkpt>
      <trkpt lat="44.49349" lon="5.83902">
        <ele>924</ele>
        <time>2019-06-12T13:57:21Z</time>
      </trkpt>
      <trkpt lat="44.49347" lon="5.83893">
        <ele>924</ele>
        <time>2019-06-12T13:57:22Z</time>
      </trkpt>
      <trkpt lat="44.49344" lon="5.83883">
        <ele>923</ele>
        <time>2019-06-12T13:57:23Z</time>
      </trkpt>
      <trkpt lat="44.49341" lon="5.83873">
        <ele>923</ele>
        <time>2019-06-12T13:57:24Z</time>
      </trkpt>
      <trkpt lat="44.49338" lon="5.83862">
        <ele>922</ele>
        <time>2019-06-12T13:57:25Z</time>
      </trkpt>
      <trkpt lat="44.49336" lon="5.83851">
        <ele>922</ele>
        <time>2019-06-12T13:57:26Z</time>
      </trkpt>
      <trkpt lat="44.49333" lon="5.8384">
        <ele>922</ele>
        <time>2019-06-12T13:57:27Z</time>
      </trkpt>
      <trkpt lat="44.4933" lon="5.83828">
        <ele>921</ele>
        <time>2019-06-12T13:57:28Z</time>
      </trkpt>
      <trkpt lat="44.49327" lon="5.83815">
        <ele>920</ele>
        <time>2019-06-12T13:57:29Z</time>
      </trkpt>
      <trkpt lat="44.49324" lon="5.83803">
        <ele>920</ele>
        <time>2019-06-12T13:57:30Z</time>
      </trkpt>
      <trkpt lat="44.49321" lon="5.8379">
        <ele>919</ele>
        <time>2019-06-12T13:57:31Z</time>
      </trkpt>
      <trkpt lat="44.49318" lon="5.83776">
        <ele>918</ele>
        <time>2019-06-12T13:57:32Z</time>
      </trkpt>
      <trkpt lat="44.49314" lon="5.83763">
        <ele>917</ele>
        <time>2019-06-12T13:57:33Z</time>
      </trkpt>
      <trkpt lat="44.49311" lon="5.83749">
        <ele>917</ele>
        <time>2019-06-12T13:57:34Z</time>
      </trkpt>
      <trkpt lat="44.49307" lon="5.83735">
        <ele>916</ele>
        <time>2019-06-12T13:57:35Z</time>
      </trkpt>
      <trkpt lat="44.49304" lon="5.83721">
        <ele>915</ele>
        <time>2019-06-12T13:57:36Z</time>
      </trkpt>
      <trkpt lat="44.49301" lon="5.83706">
        <ele>914</ele>
        <time>2019-06-12T13:57:37Z</time>
      </trkpt>
      <trkpt lat="44.49298" lon="5.83691">
        <ele>913</ele>
        <time>2019-06-12T13:57:38Z</time>
      </trkpt>
      <trkpt lat="44.49295" lon="5.83676">
        <ele>912</ele>
        <time>2019-06-12T13:57:39Z</time>
      </trkpt>
      <trkpt lat="44.49291" lon="5.83661">
        <ele>912</ele>
        <time>2019-06-12T13:57:40Z</time>
      </trkpt>
      <trkpt lat="44.49287" lon="5.83645">
        <ele>911</ele>
        <time>2019-06-12T13:57:41Z</time>
      </trkpt>
      <trkpt lat="44.49283" lon="5.83631">
        <ele>910</ele>
        <time>2019-06-12T13:57:42Z</time>
      </trkpt>
      <trkpt lat="44.4928" lon="5.83616">
        <ele>909</ele>
        <time>2019-06-12T13:57:43Z</time>
      </trkpt>
      <trkpt lat="44.49277" lon="5.83602">
        <ele>908</ele>
        <time>2019-06-12T13:57:44Z</time>
      </trkpt>
      <trkpt lat="44.49274" lon="5.83587">
        <ele>907</ele>
        <time>2019-06-12T13:57:45Z</time>
      </trkpt>
      <trkpt lat="44.49271" lon="5.83573">
        <ele>907</ele>
        <time>2019-06-12T13:57:46Z</time>
      </trkpt>
      <trkpt lat="44.49268" lon="5.83559">
        <ele>906</ele>
        <time>2019-06-12T13:57:47Z</time>
      </trkpt>
      <trkpt lat="44.49264" lon="5.83544">
        <ele>905</ele>
        <time>2019-06-12T13:57:48Z</time>
      </trkpt>
      <trkpt lat="44.49261" lon="5.83531">
        <ele>905</ele>
        <time>2019-06-12T13:57:49Z</time>
      </trkpt>
      <trkpt lat="44.49259" lon="5.83519">
        <ele>905</ele>
        <time>2019-06-12T13:57:50Z</time>
      </trkpt>
      <trkpt lat="44.49256" lon="5.83506">
        <ele>905</ele>
        <time>2019-06-12T13:57:51Z</time>
      </trkpt>
      <trkpt lat="44.49254" lon="5.83494">
        <ele>905</ele>
        <time>2019-06-12T13:57:52Z</time>
      </trkpt>
      <trkpt lat="44.49253" lon="5.83482">
        <ele>905</ele>
        <time>2019-06-12T13:57:53Z</time>
      </trkpt>
      <trkpt lat="44.49252" lon="5.83471">
        <ele>905</ele>
        <time>2019-06-12T13:57:54Z</time>
      </trkpt>
      <trkpt lat="44.49251" lon="5.8346">
        <ele>905</ele>
        <time>2019-06-12T13:57:55Z</time>
      </trkpt>
      <trkpt lat="44.4925" lon="5.83448">
        <ele>905</ele>
        <time>2019-06-12T13:57:56Z</time>
      </trkpt>
      <trkpt lat="44.4925" lon="5.83437">
        <ele>905</ele>
        <time>2019-06-12T13:57:57Z</time>
      </trkpt>
      <trkpt lat="44.4925" lon="5.83427">
        <ele>905</ele>
        <time>2019-06-12T13:57:58Z</time>
      </trkpt>
      <trkpt lat="44.4925" lon="5.83416">
        <ele>905</ele>
        <time>2019-06-12T13:57:59Z</time>
      </trkpt>
      <trkpt lat="44.49249" lon="5.83406">
        <ele>905</ele>
        <time>2019-06-12T13:58:00Z</time>
      </trkpt>
      <trkpt lat="44.49249" lon="5.83395">
        <ele>905</ele>
        <time>2019-06-12T13:58:01Z</time>
      </trkpt>
      <trkpt lat="44.4925" lon="5.83385">
        <ele>904</ele>
        <time>2019-06-12T13:58:02Z</time>
      </trkpt>
      <trkpt lat="44.4925" lon="5.83374">
        <ele>904</ele>
        <time>2019-06-12T13:58:03Z</time>
      </trkpt>
      <trkpt lat="44.4925" lon="5.83363">
        <ele>904</ele>
        <time>2019-06-12T13:58:04Z</time>
      </trkpt>
      <trkpt lat="44.4925" lon="5.83353">
        <ele>904</ele>
        <time>2019-06-12T13:58:05Z</time>
      </trkpt>
      <trkpt lat="44.49249" lon="5.83341">
        <ele>904</ele>
        <time>2019-06-12T13:58:06Z</time>
      </trkpt>
      <trkpt lat="44.49249" lon="5.8333">
        <ele>904</ele>
        <time>2019-06-12T13:58:07Z</time>
      </trkpt>
      <trkpt lat="44.49248" lon="5.83319">
        <ele>904</ele>
        <time>2019-06-12T13:58:08Z</time>
      </trkpt>
      <trkpt lat="44.49246" lon="5.83308">
        <ele>903</ele>
        <time>2019-06-12T13:58:09Z</time>
      </trkpt>
      <trkpt lat="44.49243" lon="5.83298">
        <ele>903</ele>
        <time>2019-06-12T13:58:10Z</time>
      </trkpt>
      <trkpt lat="44.49239" lon="5.83289">
        <ele>903</ele>
        <time>2019-06-12T13:58:11Z</time>
      </trkpt>
      <trkpt lat="44.49234" lon="5.8328">
        <ele>902</ele>
        <time>2019-06-12T13:58:12Z</time>
      </trkpt>
      <trkpt lat="44.49228" lon="5.83271">
        <ele>902</ele>
        <time>2019-06-12T13:58:13Z</time>
      </trkpt>
      <trkpt lat="44.49223" lon="5.83261">
        <ele>902</ele>
        <time>2019-06-12T13:58:14Z</time>
      </trkpt>
      <trkpt lat="44.49217" lon="5.83252">
        <ele>901</ele>
        <time>2019-06-12T13:58:15Z</time>
      </trkpt>
      <trkpt lat="44.49211" lon="5.83243">
        <ele>901</ele>
        <time>2019-06-12T13:58:16Z</time>
      </trkpt>
      <trkpt lat="44.49205" lon="5.83233">
        <ele>900</ele>
        <time>2019-06-12T13:58:17Z</time>
      </trkpt>
      <trkpt lat="44.49199" lon="5.83223">
        <ele>900</ele>
        <time>2019-06-12T13:58:18Z</time>
      </trkpt>
      <trkpt lat="44.49192" lon="5.83214">
        <ele>899</ele>
        <time>2019-06-12T13:58:19Z</time>
      </trkpt>
      <trkpt lat="44.49186" lon="5.83205">
        <ele>899</ele>
        <time>2019-06-12T13:58:20Z</time>
      </trkpt>
      <trkpt lat="44.4918" lon="5.83196">
        <ele>898</ele>
        <time>2019-06-12T13:58:21Z</time>
      </trkpt>
      <trkpt lat="44.49174" lon="5.83186">
        <ele>898</ele>
        <time>2019-06-12T13:58:22Z</time>
      </trkpt>
      <trkpt lat="44.49168" lon="5.83177">
        <ele>898</ele>
        <time>2019-06-12T13:58:23Z</time>
      </trkpt>
      <trkpt lat="44.49162" lon="5.83167">
        <ele>897</ele>
        <time>2019-06-12T13:58:24Z</time>
      </trkpt>
      <trkpt lat="44.49156" lon="5.83158">
        <ele>897</ele>
        <time>2019-06-12T13:58:25Z</time>
      </trkpt>
      <trkpt lat="44.4915" lon="5.83148">
        <ele>897</ele>
        <time>2019-06-12T13:58:26Z</time>
      </trkpt>
      <trkpt lat="44.49146" lon="5.83138">
        <ele>896</ele>
        <time>2019-06-12T13:58:27Z</time>
      </trkpt>
      <trkpt lat="44.49142" lon="5.83126">
        <ele>896</ele>
        <time>2019-06-12T13:58:28Z</time>
      </trkpt>
      <trkpt lat="44.49139" lon="5.83114">
        <ele>896</ele>
        <time>2019-06-12T13:58:29Z</time>
      </trkpt>
      <trkpt lat="44.49139" lon="5.83102">
        <ele>895</ele>
        <time>2019-06-12T13:58:30Z</time>
      </trkpt>
      <trkpt lat="44.49141" lon="5.83088">
        <ele>895</ele>
        <time>2019-06-12T13:58:31Z</time>
      </trkpt>
      <trkpt lat="44.49143" lon="5.83076">
        <ele>894</ele>
        <time>2019-06-12T13:58:32Z</time>
      </trkpt>
      <trkpt lat="44.49147" lon="5.83063">
        <ele>894</ele>
        <time>2019-06-12T13:58:33Z</time>
      </trkpt>
      <trkpt lat="44.4915" lon="5.83052">
        <ele>893</ele>
        <time>2019-06-12T13:58:34Z</time>
      </trkpt>
      <trkpt lat="44.49153" lon="5.83041">
        <ele>892</ele>
        <time>2019-06-12T13:58:35Z</time>
      </trkpt>
      <trkpt lat="44.49156" lon="5.83031">
        <ele>892</ele>
        <time>2019-06-12T13:58:36Z</time>
      </trkpt>
      <trkpt lat="44.4916" lon="5.83021">
        <ele>891</ele>
        <time>2019-06-12T13:58:37Z</time>
      </trkpt>
      <trkpt lat="44.49162" lon="5.83013">
        <ele>890</ele>
        <time>2019-06-12T13:58:38Z</time>
      </trkpt>
      <trkpt lat="44.49165" lon="5.83004">
        <ele>890</ele>
        <time>2019-06-12T13:58:39Z</time>
      </trkpt>
      <trkpt lat="44.49168" lon="5.82997">
        <ele>889</ele>
        <time>2019-06-12T13:58:40Z</time>
      </trkpt>
      <trkpt lat="44.49169" lon="5.82989">
        <ele>888</ele>
        <time>2019-06-12T13:58:41Z</time>
      </trkpt>
      <trkpt lat="44.49168" lon="5.82982">
        <ele>888</ele>
        <time>2019-06-12T13:58:42Z</time>
      </trkpt>
      <trkpt lat="44.49166" lon="5.82977">
        <ele>887</ele>
        <time>2019-06-12T13:58:43Z</time>
      </trkpt>
      <trkpt lat="44.49161" lon="5.82973">
        <ele>887</ele>
        <time>2019-06-12T13:58:44Z</time>
      </trkpt>
      <trkpt lat="44.49156" lon="5.82974">
        <ele>887</ele>
        <time>2019-06-12T13:58:45Z</time>
      </trkpt>
      <trkpt lat="44.49151" lon="5.82975">
        <ele>887</ele>
        <time>2019-06-12T13:58:46Z</time>
      </trkpt>
      <trkpt lat="44.49146" lon="5.82978">
        <ele>887</ele>
        <time>2019-06-12T13:58:47Z</time>
      </trkpt>
      <trkpt lat="44.49141" lon="5.8298">
        <ele>887</ele>
        <time>2019-06-12T13:58:48Z</time>
      </trkpt>
      <trkpt lat="44.49137" lon="5.82983">
        <ele>887</ele>
        <time>2019-06-12T13:58:49Z</time>
      </trkpt>
      <trkpt lat="44.49132" lon="5.82986">
        <ele>887</ele>
        <time>2019-06-12T13:58:50Z</time>
      </trkpt>
      <trkpt lat="44.49128" lon="5.82988">
        <ele>887</ele>
        <time>2019-06-12T13:58:51Z</time>
      </trkpt>
      <trkpt lat="44.49124" lon="5.8299">
        <ele>887</ele>
        <time>2019-06-12T13:58:52Z</time>
      </trkpt>
      <trkpt lat="44.4912" lon="5.82992">
        <ele>887</ele>
        <time>2019-06-12T13:58:53Z</time>
      </trkpt>
      <trkpt lat="44.49117" lon="5.82995">
        <ele>887</ele>
        <time>2019-06-12T13:58:54Z</time>
      </trkpt>
      <trkpt lat="44.49113" lon="5.82997">
        <ele>887</ele>
        <time>2019-06-12T13:58:55Z</time>
      </trkpt>
      <trkpt lat="44.49109" lon="5.82998">
        <ele>887</ele>
        <time>2019-06-12T13:58:56Z</time>
      </trkpt>
      <trkpt lat="44.49105" lon="5.82999">
        <ele>887</ele>
        <time>2019-06-12T13:58:57Z</time>
      </trkpt>
      <trkpt lat="44.49102" lon="5.82999">
        <ele>887</ele>
        <time>2019-06-12T13:58:58Z</time>
      </trkpt>
      <trkpt lat="44.49098" lon="5.83">
        <ele>887</ele>
        <time>2019-06-12T13:58:59Z</time>
      </trkpt>
      <trkpt lat="44.49094" lon="5.83001">
        <ele>887</ele>
        <time>2019-06-12T13:59:00Z</time>
      </trkpt>
      <trkpt lat="44.49089" lon="5.83003">
        <ele>887</ele>
        <time>2019-06-12T13:59:01Z</time>
      </trkpt>
      <trkpt lat="44.49085" lon="5.83004">
        <ele>887</ele>
        <time>2019-06-12T13:59:02Z</time>
      </trkpt>
      <trkpt lat="44.49081" lon="5.83005">
        <ele>887</ele>
        <time>2019-06-12T13:59:03Z</time>
      </trkpt>
      <trkpt lat="44.49077" lon="5.83005">
        <ele>887</ele>
        <time>2019-06-12T13:59:04Z</time>
      </trkpt>
      <trkpt lat="44.49073" lon="5.83006">
        <ele>887</ele>
        <time>2019-06-12T13:59:05Z</time>
      </trkpt>
      <trkpt lat="44.49069" lon="5.83006">
        <ele>887</ele>
        <time>2019-06-12T13:59:06Z</time>
      </trkpt>
      <trkpt lat="44.49065" lon="5.83006">
        <ele>887</ele>
        <time>2019-06-12T13:59:07Z</time>
      </trkpt>
      <trkpt lat="44.49061" lon="5.83006">
        <ele>887</ele>
        <time>2019-06-12T13:59:08Z</time>
      </trkpt>
      <trkpt lat="44.49057" lon="5.83006">
        <ele>887</ele>
        <time>2019-06-12T13:59:09Z</time>
      </trkpt>
      <trkpt lat="44.49052" lon="5.83006">
        <ele>887</ele>
        <time>2019-06-12T13:59:10Z</time>
      </trkpt>
      <trkpt lat="44.49048" lon="5.83007">
        <ele>887</ele>
        <time>2019-06-12T13:59:11Z</time>
      </trkpt>
      <trkpt lat="44.49043" lon="5.83007">
        <ele>887</ele>
        <time>2019-06-12T13:59:12Z</time>
      </trkpt>
      <trkpt lat="44.49038" lon="5.83007">
        <ele>887</ele>
        <time>2019-06-12T13:59:13Z</time>
      </trkpt>
      <trkpt lat="44.49033" lon="5.83007">
        <ele>887</ele>
        <time>2019-06-12T13:59:14Z</time>
      </trkpt>
      <trkpt lat="44.49027" lon="5.83007">
        <ele>887</ele>
        <time>2019-06-12T13:59:15Z</time>
      </trkpt>
      <trkpt lat="44.49022" lon="5.83007">
        <ele>887</ele>
        <time>2019-06-12T13:59:16Z</time>
      </trkpt>
      <trkpt lat="44.49016" lon="5.83008">
        <ele>887</ele>
        <time>2019-06-12T13:59:17Z</time>
      </trkpt>
      <trkpt lat="44.4901" lon="5.83009">
        <ele>887</ele>
        <time>2019-06-12T13:59:18Z</time>
      </trkpt>
      <trkpt lat="44.49004" lon="5.8301">
        <ele>887</ele>
        <time>2019-06-12T13:59:19Z</time>
      </trkpt>
      <trkpt lat="44.48999" lon="5.83013">
        <ele>887</ele>
        <time>2019-06-12T13:59:20Z</time>
      </trkpt>
      <trkpt lat="44.48993" lon="5.83016">
        <ele>887</ele>
        <time>2019-06-12T13:59:21Z</time>
      </trkpt>
      <trkpt lat="44.48988" lon="5.83019">
        <ele>887</ele>
        <time>2019-06-12T13:59:22Z</time>
      </trkpt>
      <trkpt lat="44.48983" lon="5.83023">
        <ele>887</ele>
        <time>2019-06-12T13:59:23Z</time>
      </trkpt>
      <trkpt lat="44.48978" lon="5.83027">
        <ele>887</ele>
        <time>2019-06-12T13:59:24Z</time>
      </trkpt>
      <trkpt lat="44.48972" lon="5.83031">
        <ele>887</ele>
        <time>2019-06-12T13:59:25Z</time>
      </trkpt>
      <trkpt lat="44.48967" lon="5.83034">
        <ele>887</ele>
        <time>2019-06-12T13:59:26Z</time>
      </trkpt>
      <trkpt lat="44.48961" lon="5.83037">
        <ele>887</ele>
        <time>2019-06-12T13:59:27Z</time>
      </trkpt>
      <trkpt lat="44.48955" lon="5.8304">
        <ele>887</ele>
        <time>2019-06-12T13:59:28Z</time>
      </trkpt>
      <trkpt lat="44.48948" lon="5.83041">
        <ele>887</ele>
        <time>2019-06-12T13:59:29Z</time>
      </trkpt>
      <trkpt lat="44.48942" lon="5.83042">
        <ele>887</ele>
        <time>2019-06-12T13:59:30Z</time>
      </trkpt>
      <trkpt lat="44.48935" lon="5.83043">
        <ele>887</ele>
        <time>2019-06-12T13:59:31Z</time>
      </trkpt>
      <trkpt lat="44.48929" lon="5.83043">
        <ele>887</ele>
        <time>2019-06-12T13:59:32Z</time>
      </trkpt>
      <trkpt lat="44.48922" lon="5.83043">
        <ele>887</ele>
        <time>2019-06-12T13:59:33Z</time>
      </trkpt>
      <trkpt lat="44.48915" lon="5.83042">
        <ele>887</ele>
        <time>2019-06-12T13:59:34Z</time>
      </trkpt>
      <trkpt lat="44.48909" lon="5.83041">
        <ele>887</ele>
        <time>2019-06-12T13:59:35Z</time>
      </trkpt>
      <trkpt lat="44.48902" lon="5.83039">
        <ele>887</ele>
        <time>2019-06-12T13:59:36Z</time>
      </trkpt>
      <trkpt lat="44.48895" lon="5.83037">
        <ele>886</ele>
        <time>2019-06-12T13:59:37Z</time>
      </trkpt>
      <trkpt lat="44.48888" lon="5.83034">
        <ele>886</ele>
        <time>2019-06-12T13:59:38Z</time>
      </trkpt>
      <trkpt lat="44.4888" lon="5.83032">
        <ele>886</ele>
        <time>2019-06-12T13:59:39Z</time>
      </trkpt>
      <trkpt lat="44.48873" lon="5.83029">
        <ele>886</ele>
        <time>2019-06-12T13:59:40Z</time>
      </trkpt>
      <trkpt lat="44.48866" lon="5.83025">
        <ele>885</ele>
        <time>2019-06-12T13:59:41Z</time>
      </trkpt>
      <trkpt lat="44.48859" lon="5.83021">
        <ele>885</ele>
        <time>2019-06-12T13:59:42Z</time>
      </trkpt>
      <trkpt lat="44.48852" lon="5.83016">
        <ele>885</ele>
        <time>2019-06-12T13:59:43Z</time>
      </trkpt>
      <trkpt lat="44.48845" lon="5.8301">
        <ele>884</ele>
        <time>2019-06-12T13:59:44Z</time>
      </trkpt>
      <trkpt lat="44.48838" lon="5.83003">
        <ele>884</ele>
        <time>2019-06-12T13:59:45Z</time>
      </trkpt>
      <trkpt lat="44.48832" lon="5.82996">
        <ele>883</ele>
        <time>2019-06-12T13:59:46Z</time>
      </trkpt>
      <trkpt lat="44.48826" lon="5.82988">
        <ele>883</ele>
        <time>2019-06-12T13:59:47Z</time>
      </trkpt>
      <trkpt lat="44.4882" lon="5.82981">
        <ele>882</ele>
        <time>2019-06-12T13:59:48Z</time>
      </trkpt>
      <trkpt lat="44.48814" lon="5.82973">
        <ele>881</ele>
        <time>2019-06-12T13:59:49Z</time>
      </trkpt>
      <trkpt lat="44.48808" lon="5.82967">
        <ele>880</ele>
        <time>2019-06-12T13:59:50Z</time>
      </trkpt>
      <trkpt lat="44.48801" lon="5.82961">
        <ele>879</ele>
        <time>2019-06-12T13:59:51Z</time>
      </trkpt>
      <trkpt lat="44.48793" lon="5.82958">
        <ele>878</ele>
        <time>2019-06-12T13:59:52Z</time>
      </trkpt>
      <trkpt lat="44.48785" lon="5.82958">
        <ele>877</ele>
        <time>2019-06-12T13:59:53Z</time>
      </trkpt>
      <trkpt lat="44.48777" lon="5.8296">
        <ele>877</ele>
        <time>2019-06-12T13:59:54Z</time>
      </trkpt>
      <trkpt lat="44.48768" lon="5.82964">
        <ele>876</ele>
        <time>2019-06-12T13:59:55Z</time>
      </trkpt>
      <trkpt lat="44.4876" lon="5.82969">
        <ele>876</ele>
        <time>2019-06-12T13:59:56Z</time>
      </trkpt>
      <trkpt lat="44.48752" lon="5.82975">
        <ele>875</ele>
        <time>2019-06-12T13:59:57Z</time>
      </trkpt>
      <trkpt lat="44.48744" lon="5.82981">
        <ele>875</ele>
        <time>2019-06-12T13:59:58Z</time>
      </trkpt>
      <trkpt lat="44.48736" lon="5.82988">
        <ele>874</ele>
        <time>2019-06-12T13:59:59Z</time>
      </trkpt>
      <trkpt lat="44.48728" lon="5.82995">
        <ele>873</ele>
        <time>2019-06-12T14:00:00Z</time>
      </trkpt>
      <trkpt lat="44.4872" lon="5.83001">
        <ele>873</ele>
        <time>2019-06-12T14:00:01Z</time>
      </trkpt>
      <trkpt lat="44.48712" lon="5.83007">
        <ele>872</ele>
        <time>2019-06-12T14:00:02Z</time>
      </trkpt>
      <trkpt lat="44.48703" lon="5.83012">
        <ele>872</ele>
        <time>2019-06-12T14:00:03Z</time>
      </trkpt>
      <trkpt lat="44.48695" lon="5.83017">
        <ele>871</ele>
        <time>2019-06-12T14:00:04Z</time>
      </trkpt>
      <trkpt lat="44.48686" lon="5.8302">
        <ele>871</ele>
        <time>2019-06-12T14:00:05Z</time>
      </trkpt>
      <trkpt lat="44.48677" lon="5.83024">
        <ele>871</ele>
        <time>2019-06-12T14:00:06Z</time>
      </trkpt>
      <trkpt lat="44.48668" lon="5.83026">
        <ele>870</ele>
        <time>2019-06-12T14:00:07Z</time>
      </trkpt>
      <trkpt lat="44.4866" lon="5.83029">
        <ele>870</ele>
        <time>2019-06-12T14:00:08Z</time>
      </trkpt>
      <trkpt lat="44.48651" lon="5.83031">
        <ele>869</ele>
        <time>2019-06-12T14:00:09Z</time>
      </trkpt>
      <trkpt lat="44.48642" lon="5.83033">
        <ele>869</ele>
        <time>2019-06-12T14:00:10Z</time>
      </trkpt>
      <trkpt lat="44.48633" lon="5.83035">
        <ele>868</ele>
        <time>2019-06-12T14:00:11Z</time>
      </trkpt>
      <trkpt lat="44.48624" lon="5.83037">
        <ele>868</ele>
        <time>2019-06-12T14:00:12Z</time>
      </trkpt>
      <trkpt lat="44.48615" lon="5.83039">
        <ele>867</ele>
        <time>2019-06-12T14:00:13Z</time>
      </trkpt>
      <trkpt lat="44.48606" lon="5.83041">
        <ele>867</ele>
        <time>2019-06-12T14:00:14Z</time>
      </trkpt>
      <trkpt lat="44.48596" lon="5.83043">
        <ele>867</ele>
        <time>2019-06-12T14:00:15Z</time>
      </trkpt>
      <trkpt lat="44.48586" lon="5.83046">
        <ele>866</ele>
        <time>2019-06-12T14:00:16Z</time>
      </trkpt>
      <trkpt lat="44.48576" lon="5.83049">
        <ele>866</ele>
        <time>2019-06-12T14:00:17Z</time>
      </trkpt>
      <trkpt lat="44.48566" lon="5.83053">
        <ele>865</ele>
        <time>2019-06-12T14:00:18Z</time>
      </trkpt>
      <trkpt lat="44.48557" lon="5.83057">
        <ele>865</ele>
        <time>2019-06-12T14:00:19Z</time>
      </trkpt>
      <trkpt lat="44.48547" lon="5.83062">
        <ele>864</ele>
        <time>2019-06-12T14:00:20Z</time>
      </trkpt>
      <trkpt lat="44.48537" lon="5.83067">
        <ele>864</ele>
        <time>2019-06-12T14:00:21Z</time>
      </trkpt>
      <trkpt lat="44.48528" lon="5.83071">
        <ele>863</ele>
        <time>2019-06-12T14:00:22Z</time>
      </trkpt>
      <trkpt lat="44.48518" lon="5.83074">
        <ele>863</ele>
        <time>2019-06-12T14:00:23Z</time>
      </trkpt>
      <trkpt lat="44.48509" lon="5.83076">
        <ele>862</ele>
        <time>2019-06-12T14:00:24Z</time>
      </trkpt>
      <trkpt lat="44.48499" lon="5.83078">
        <ele>862</ele>
        <time>2019-06-12T14:00:25Z</time>
      </trkpt>
      <trkpt lat="44.4849" lon="5.83079">
        <ele>862</ele>
        <time>2019-06-12T14:00:26Z</time>
      </trkpt>
      <trkpt lat="44.48481" lon="5.8308">
        <ele>861</ele>
        <time>2019-06-12T14:00:27Z</time>
      </trkpt>
      <trkpt lat="44.48471" lon="5.83081">
        <ele>861</ele>
        <time>2019-06-12T14:00:28Z</time>
      </trkpt>
      <trkpt lat="44.48462" lon="5.83082">
        <ele>861</ele>
        <time>2019-06-12T14:00:29Z</time>
      </trkpt>
      <trkpt lat="44.48452" lon="5.83082">
        <ele>860</ele>
        <time>2019-06-12T14:00:30Z</time>
      </trkpt>
      <trkpt lat="44.48443" lon="5.83082">
        <ele>860</ele>
        <time>2019-06-12T14:00:31Z</time>
      </trkpt>
      <trkpt lat="44.48433" lon="5.83081">
        <ele>860</ele>
        <time>2019-06-12T14:00:32Z</time>
      </trkpt>
      <trkpt lat="44.48424" lon="5.8308">
        <ele>860</ele>
        <time>2019-06-12T14:00:33Z</time>
      </trkpt>
      <trkpt lat="44.48414" lon="5.83079">
        <ele>860</ele>
        <time>2019-06-12T14:00:34Z</time>
      </trkpt>
      <trkpt lat="44.48405" lon="5.83077">
        <ele>860</ele>
        <time>2019-06-12T14:00:35Z</time>
      </trkpt>
      <trkpt lat="44.48396" lon="5.83076">
        <ele>859</ele>
        <time>2019-06-12T14:00:36Z</time>
      </trkpt>
      <trkpt lat="44.48386" lon="5.83074">
        <ele>859</ele>
        <time>2019-06-12T14:00:37Z</time>
      </trkpt>
      <trkpt lat="44.48377" lon="5.83074">
        <ele>859</ele>
        <time>2019-06-12T14:00:38Z</time>
      </trkpt>
      <trkpt lat="44.48369" lon="5.83073">
        <ele>859</ele>
        <time>2019-06-12T14:00:39Z</time>
      </trkpt>
      <trkpt lat="44.48361" lon="5.83073">
        <ele>859</ele>
        <time>2019-06-12T14:00:40Z</time>
      </trkpt>
      <trkpt lat="44.48353" lon="5.83071">
        <ele>858</ele>
        <time>2019-06-12T14:00:41Z</time>
      </trkpt>
      <trkpt lat="44.48346" lon="5.83069">
        <ele>858</ele>
        <time>2019-06-12T14:00:42Z</time>
      </trkpt>
      <trkpt lat="44.48338" lon="5.83065">
        <ele>858</ele>
        <time>2019-06-12T14:00:43Z</time>
      </trkpt>
      <trkpt lat="44.48331" lon="5.83062">
        <ele>858</ele>
        <time>2019-06-12T14:00:44Z</time>
      </trkpt>
      <trkpt lat="44.48323" lon="5.83057">
        <ele>857</ele>
        <time>2019-06-12T14:00:45Z</time>
      </trkpt>
      <trkpt lat="44.48315" lon="5.83053">
        <ele>857</ele>
        <time>2019-06-12T14:00:46Z</time>
      </trkpt>
      <trkpt lat="44.48307" lon="5.83048">
        <ele>857</ele>
        <time>2019-06-12T14:00:47Z</time>
      </trkpt>
      <trkpt lat="44.483" lon="5.83043">
        <ele>856</ele>
        <time>2019-06-12T14:00:48Z</time>
      </trkpt>
      <trkpt lat="44.48293" lon="5.83036">
        <ele>856</ele>
        <time>2019-06-12T14:00:49Z</time>
      </trkpt>
      <trkpt lat="44.48286" lon="5.83029">
        <ele>856</ele>
        <time>2019-06-12T14:00:50Z</time>
      </trkpt>
      <trkpt lat="44.48278" lon="5.83022">
        <ele>856</ele>
        <time>2019-06-12T14:00:51Z</time>
      </trkpt>
      <trkpt lat="44.4827" lon="5.83016">
        <ele>856</ele>
        <time>2019-06-12T14:00:52Z</time>
      </trkpt>
      <trkpt lat="44.48262" lon="5.83012">
        <ele>856</ele>
        <time>2019-06-12T14:00:53Z</time>
      </trkpt>
      <trkpt lat="44.48254" lon="5.83009">
        <ele>856</ele>
        <time>2019-06-12T14:00:54Z</time>
      </trkpt>
      <trkpt lat="44.48245" lon="5.83007">
        <ele>856</ele>
        <time>2019-06-12T14:00:55Z</time>
      </trkpt>
      <trkpt lat="44.48236" lon="5.83005">
        <ele>856</ele>
        <time>2019-06-12T14:00:56Z</time>
      </trkpt>
      <trkpt lat="44.48228" lon="5.83003">
        <ele>856</ele>
        <time>2019-06-12T14:00:57Z</time>
      </trkpt>
      <trkpt lat="44.48219" lon="5.83001">
        <ele>856</ele>
        <time>2019-06-12T14:00:58Z</time>
      </trkpt>
      <trkpt lat="44.48211" lon="5.83">
        <ele>855</ele>
        <time>2019-06-12T14:00:59Z</time>
      </trkpt>
      <trkpt lat="44.48203" lon="5.82997">
        <ele>855</ele>
        <time>2019-06-12T14:01:00Z</time>
      </trkpt>
      <trkpt lat="44.48195" lon="5.82994">
        <ele>855</ele>
        <time>2019-06-12T14:01:01Z</time>
      </trkpt>
      <trkpt lat="44.48188" lon="5.8299">
        <ele>854</ele>
        <time>2019-06-12T14:01:02Z</time>
      </trkpt>
      <trkpt lat="44.4818" lon="5.82986">
        <ele>854</ele>
        <time>2019-06-12T14:01:03Z</time>
      </trkpt>
      <trkpt lat="44.48172" lon="5.82981">
        <ele>853</ele>
        <time>2019-06-12T14:01:04Z</time>
      </trkpt>
      <trkpt lat="44.48164" lon="5.82977">
        <ele>852</ele>
        <time>2019-06-12T14:01:05Z</time>
      </trkpt>
      <trkpt lat="44.48156" lon="5.82973">
        <ele>852</ele>
        <time>2019-06-12T14:01:06Z</time>
      </trkpt>
      <trkpt lat="44.48148" lon="5.82968">
        <ele>852</ele>
        <time>2019-06-12T14:01:07Z</time>
      </trkpt>
      <trkpt lat="44.4814" lon="5.82963">
        <ele>851</ele>
        <time>2019-06-12T14:01:08Z</time>
      </trkpt>
      <trkpt lat="44.48132" lon="5.82958">
        <ele>851</ele>
        <time>2019-06-12T14:01:09Z</time>
      </trkpt>
      <trkpt lat="44.48124" lon="5.82953">
        <ele>851</ele>
        <time>2019-06-12T14:01:10Z</time>
      </trkpt>
      <trkpt lat="44.48116" lon="5.82947">
        <ele>850</ele>
        <time>2019-06-12T14:01:11Z</time>
      </trkpt>
      <trkpt lat="44.48108" lon="5.8294">
        <ele>849</ele>
        <time>2019-06-12T14:01:12Z</time>
      </trkpt>
      <trkpt lat="44.481" lon="5.82932">
        <ele>849</ele>
        <time>2019-06-12T14:01:13Z</time>
      </trkpt>
      <trkpt lat="44.48093" lon="5.82924">
        <ele>848</ele>
        <time>2019-06-12T14:01:14Z</time>
      </trkpt>
      <trkpt lat="44.48086" lon="5.82915">
        <ele>848</ele>
        <time>2019-06-12T14:01:15Z</time>
      </trkpt>
      <trkpt lat="44.4808" lon="5.82905">
        <ele>848</ele>
        <time>2019-06-12T14:01:16Z</time>
      </trkpt>
      <trkpt lat="44.48074" lon="5.82896">
        <ele>847</ele>
        <time>2019-06-12T14:01:17Z</time>
      </trkpt>
      <trkpt lat="44.48067" lon="5.82886">
        <ele>847</ele>
        <time>2019-06-12T14:01:18Z</time>
      </trkpt>
      <trkpt lat="44.48061" lon="5.82877">
        <ele>847</ele>
        <time>2019-06-12T14:01:19Z</time>
      </trkpt>
      <trkpt lat="44.48056" lon="5.82867">
        <ele>846</ele>
        <time>2019-06-12T14:01:20Z</time>
      </trkpt>
      <trkpt lat="44.4805" lon="5.82858">
        <ele>846</ele>
        <time>2019-06-12T14:01:21Z</time>
      </trkpt>
      <trkpt lat="44.48044" lon="5.82849">
        <ele>846</ele>
        <time>2019-06-12T14:01:22Z</time>
      </trkpt>
      <trkpt lat="44.48038" lon="5.82839">
        <ele>845</ele>
        <time>2019-06-12T14:01:23Z</time>
      </trkpt>
      <trkpt lat="44.48032" lon="5.82831">
        <ele>845</ele>
        <time>2019-06-12T14:01:24Z</time>
      </trkpt>
      <trkpt lat="44.48026" lon="5.82822">
        <ele>845</ele>
        <time>2019-06-12T14:01:25Z</time>
      </trkpt>
      <trkpt lat="44.48021" lon="5.82813">
        <ele>844</ele>
        <time>2019-06-12T14:01:26Z</time>
      </trkpt>
      <trkpt lat="44.48015" lon="5.82804">
        <ele>844</ele>
        <time>2019-06-12T14:01:27Z</time>
      </trkpt>
      <trkpt lat="44.48009" lon="5.82795">
        <ele>844</ele>
        <time>2019-06-12T14:01:28Z</time>
      </trkpt>
      <trkpt lat="44.48003" lon="5.82786">
        <ele>843</ele>
        <time>2019-06-12T14:01:29Z</time>
      </trkpt>
      <trkpt lat="44.47998" lon="5.82778">
        <ele>843</ele>
        <time>2019-06-12T14:01:30Z</time>
      </trkpt>
      <trkpt lat="44.47992" lon="5.82769">
        <ele>843</ele>
        <time>2019-06-12T14:01:31Z</time>
      </trkpt>
      <trkpt lat="44.47987" lon="5.82761">
        <ele>843</ele>
        <time>2019-06-12T14:01:32Z</time>
      </trkpt>
      <trkpt lat="44.47981" lon="5.82753">
        <ele>843</ele>
        <time>2019-06-12T14:01:33Z</time>
      </trkpt>
      <trkpt lat="44.47976" lon="5.82745">
        <ele>843</ele>
        <time>2019-06-12T14:01:34Z</time>
      </trkpt>
      <trkpt lat="44.47971" lon="5.82736">
        <ele>842</ele>
        <time>2019-06-12T14:01:35Z</time>
      </trkpt>
      <trkpt lat="44.47966" lon="5.82728">
        <ele>842</ele>
        <time>2019-06-12T14:01:36Z</time>
      </trkpt>
      <trkpt lat="44.47961" lon="5.82721">
        <ele>842</ele>
        <time>2019-06-12T14:01:37Z</time>
      </trkpt>
      <trkpt lat="44.47956" lon="5.82713">
        <ele>842</ele>
        <time>2019-06-12T14:01:38Z</time>
      </trkpt>
      <trkpt lat="44.47951" lon="5.82706">
        <ele>842</ele>
        <time>2019-06-12T14:01:39Z</time>
      </trkpt>
      <trkpt lat="44.47946" lon="5.82698">
        <ele>842</ele>
        <time>2019-06-12T14:01:40Z</time>
      </trkpt>
      <trkpt lat="44.47941" lon="5.8269">
        <ele>841</ele>
        <time>2019-06-12T14:01:41Z</time>
      </trkpt>
      <trkpt lat="44.47937" lon="5.82681">
        <ele>841</ele>
        <time>2019-06-12T14:01:42Z</time>
      </trkpt>
      <trkpt lat="44.47933" lon="5.82672">
        <ele>841</ele>
        <time>2019-06-12T14:01:43Z</time>
      </trkpt>
      <trkpt lat="44.4793" lon="5.82663">
        <ele>841</ele>
        <time>2019-06-12T14:01:44Z</time>
      </trkpt>
      <trkpt lat="44.47927" lon="5.82653">
        <ele>841</ele>
        <time>2019-06-12T14:01:45Z</time>
      </trkpt>
      <trkpt lat="44.47925" lon="5.82643">
        <ele>841</ele>
        <time>2019-06-12T14:01:46Z</time>
      </trkpt>
      <trkpt lat="44.47923" lon="5.82633">
        <ele>840</ele>
        <time>2019-06-12T14:01:47Z</time>
      </trkpt>
      <trkpt lat="44.4792" lon="5.82623">
        <ele>840</ele>
        <time>2019-06-12T14:01:48Z</time>
      </trkpt>
      <trkpt lat="44.47918" lon="5.82613">
        <ele>840</ele>
        <time>2019-06-12T14:01:49Z</time>
      </trkpt>
      <trkpt lat="44.47916" lon="5.82603">
        <ele>840</ele>
        <time>2019-06-12T14:01:50Z</time>
      </trkpt>
      <trkpt lat="44.47914" lon="5.82592">
        <ele>840</ele>
        <time>2019-06-12T14:01:51Z</time>
      </trkpt>
      <trkpt lat="44.47912" lon="5.82582">
        <ele>839</ele>
        <time>2019-06-12T14:01:52Z</time>
      </trkpt>
      <trkpt lat="44.4791" lon="5.82573">
        <ele>839</ele>
        <time>2019-06-12T14:01:53Z</time>
      </trkpt>
      <trkpt lat="44.47908" lon="5.82563">
        <ele>839</ele>
        <time>2019-06-12T14:01:54Z</time>
      </trkpt>
      <trkpt lat="44.47906" lon="5.82553">
        <ele>839</ele>
        <time>2019-06-12T14:01:55Z</time>
      </trkpt>
      <trkpt lat="44.47904" lon="5.82544">
        <ele>839</ele>
        <time>2019-06-12T14:01:56Z</time>
      </trkpt>
      <trkpt lat="44.47902" lon="5.82534">
        <ele>839</ele>
        <time>2019-06-12T14:01:57Z</time>
      </trkpt>
      <trkpt lat="44.479" lon="5.82524">
        <ele>839</ele>
        <time>2019-06-12T14:01:58Z</time>
      </trkpt>
      <trkpt lat="44.47898" lon="5.82515">
        <ele>839</ele>
        <time>2019-06-12T14:01:59Z</time>
      </trkpt>
      <trkpt lat="44.47896" lon="5.82506">
        <ele>839</ele>
        <time>2019-06-12T14:02:00Z</time>
      </trkpt>
      <trkpt lat="44.47894" lon="5.82496">
        <ele>838</ele>
        <time>2019-06-12T14:02:01Z</time>
      </trkpt>
      <trkpt lat="44.47892" lon="5.82487">
        <ele>838</ele>
        <time>2019-06-12T14:02:02Z</time>
      </trkpt>
      <trkpt lat="44.4789" lon="5.82478">
        <ele>838</ele>
        <time>2019-06-12T14:02:03Z</time>
      </trkpt>
      <trkpt lat="44.47889" lon="5.82469">
        <ele>838</ele>
        <time>2019-06-12T14:02:04Z</time>
      </trkpt>
      <trkpt lat="44.47887" lon="5.8246">
        <ele>838</ele>
        <time>2019-06-12T14:02:05Z</time>
      </trkpt>
      <trkpt lat="44.47885" lon="5.82451">
        <ele>838</ele>
        <time>2019-06-12T14:02:06Z</time>
      </trkpt>
      <trkpt lat="44.47883" lon="5.82443">
        <ele>838</ele>
        <time>2019-06-12T14:02:07Z</time>
      </trkpt>
      <trkpt lat="44.47882" lon="5.82435">
        <ele>837</ele>
        <time>2019-06-12T14:02:08Z</time>
      </trkpt>
      <trkpt lat="44.4788" lon="5.82426">
        <ele>837</ele>
        <time>2019-06-12T14:02:09Z</time>
      </trkpt>
      <trkpt lat="44.47879" lon="5.82417">
        <ele>837</ele>
        <time>2019-06-12T14:02:10Z</time>
      </trkpt>
      <trkpt lat="44.47878" lon="5.82408">
        <ele>837</ele>
        <time>2019-06-12T14:02:11Z</time>
      </trkpt>
      <trkpt lat="44.47876" lon="5.82399">
        <ele>837</ele>
        <time>2019-06-12T14:02:12Z</time>
      </trkpt>
      <trkpt lat="44.47874" lon="5.8239">
        <ele>837</ele>
        <time>2019-06-12T14:02:13Z</time>
      </trkpt>
      <trkpt lat="44.47872" lon="5.8238">
        <ele>837</ele>
        <time>2019-06-12T14:02:14Z</time>
      </trkpt>
      <trkpt lat="44.4787" lon="5.82371">
        <ele>837</ele>
        <time>2019-06-12T14:02:15Z</time>
      </trkpt>
      <trkpt lat="44.47867" lon="5.82362">
        <ele>837</ele>
        <time>2019-06-12T14:02:16Z</time>
      </trkpt>
      <trkpt lat="44.47864" lon="5.82354">
        <ele>837</ele>
        <time>2019-06-12T14:02:17Z</time>
      </trkpt>
      <trkpt lat="44.4786" lon="5.82346">
        <ele>837</ele>
        <time>2019-06-12T14:02:18Z</time>
      </trkpt>
      <trkpt lat="44.47856" lon="5.82338">
        <ele>836</ele>
        <time>2019-06-12T14:02:19Z</time>
      </trkpt>
      <trkpt lat="44.4785" lon="5.82332">
        <ele>836</ele>
        <time>2019-06-12T14:02:20Z</time>
      </trkpt>
      <trkpt lat="44.47844" lon="5.82327">
        <ele>836</ele>
        <time>2019-06-12T14:02:21Z</time>
      </trkpt>
      <trkpt lat="44.47837" lon="5.82324">
        <ele>836</ele>
        <time>2019-06-12T14:02:22Z</time>
      </trkpt>
      <trkpt lat="44.4783" lon="5.82322">
        <ele>836</ele>
        <time>2019-06-12T14:02:23Z</time>
      </trkpt>
      <trkpt lat="44.47823" lon="5.82323">
        <ele>836</ele>
        <time>2019-06-12T14:02:24Z</time>
      </trkpt>
      <trkpt lat="44.47815" lon="5.82323">
        <ele>836</ele>
        <time>2019-06-12T14:02:25Z</time>
      </trkpt>
      <trkpt lat="44.47808" lon="5.82324">
        <ele>835</ele>
        <time>2019-06-12T14:02:26Z</time>
      </trkpt>
      <trkpt lat="44.478" lon="5.82325">
        <ele>835</ele>
        <time>2019-06-12T14:02:27Z</time>
      </trkpt>
      <trkpt lat="44.47793" lon="5.82326">
        <ele>835</ele>
        <time>2019-06-12T14:02:28Z</time>
      </trkpt>
      <trkpt lat="44.47785" lon="5.82327">
        <ele>835</ele>
        <time>2019-06-12T14:02:29Z</time>
      </trkpt>
      <trkpt lat="44.47777" lon="5.82328">
        <ele>835</ele>
        <time>2019-06-12T14:02:30Z</time>
      </trkpt>
      <trkpt lat="44.47769" lon="5.82329">
        <ele>834</ele>
        <time>2019-06-12T14:02:31Z</time>
      </trkpt>
      <trkpt lat="44.47762" lon="5.82331">
        <ele>834</ele>
        <time>2019-06-12T14:02:32Z</time>
      </trkpt>
      <trkpt lat="44.47754" lon="5.82333">
        <ele>834</ele>
        <time>2019-06-12T14:02:33Z</time>
      </trkpt>
      <trkpt lat="44.47746" lon="5.82336">
        <ele>834</ele>
        <time>2019-06-12T14:02:34Z</time>
      </trkpt>
      <trkpt lat="44.47739" lon="5.8234">
        <ele>833</ele>
        <time>2019-06-12T14:02:35Z</time>
      </trkpt>
      <trkpt lat="44.47731" lon="5.82344">
        <ele>833</ele>
        <time>2019-06-12T14:02:36Z</time>
      </trkpt>
      <trkpt lat="44.47725" lon="5.82348">
        <ele>833</ele>
        <time>2019-06-12T14:02:37Z</time>
      </trkpt>
      <trkpt lat="44.47718" lon="5.82351">
        <ele>833</ele>
        <time>2019-06-12T14:02:38Z</time>
      </trkpt>
      <trkpt lat="44.47711" lon="5.82355">
        <ele>833</ele>
        <time>2019-06-12T14:02:39Z</time>
      </trkpt>
      <trkpt lat="44.47705" lon="5.82358">
        <ele>832</ele>
        <time>2019-06-12T14:02:40Z</time>
      </trkpt>
      <trkpt lat="44.47699" lon="5.82362">
        <ele>832</ele>
        <time>2019-06-12T14:02:41Z</time>
      </trkpt>
      <trkpt lat="44.47693" lon="5.82365">
        <ele>831</ele>
        <time>2019-06-12T14:02:42Z</time>
      </trkpt>
      <trkpt lat="44.47687" lon="5.82368">
        <ele>830</ele>
        <time>2019-06-12T14:02:43Z</time>
      </trkpt>
      <trkpt lat="44.47681" lon="5.82371">
        <ele>830</ele>
        <time>2019-06-12T14:02:44Z</time>
      </trkpt>
      <trkpt lat="44.47676" lon="5.82372">
        <ele>830</ele>
        <time>2019-06-12T14:02:45Z</time>
      </trkpt>
      <trkpt lat="44.4767" lon="5.8237">
        <ele>829</ele>
        <time>2019-06-12T14:02:46Z</time>
      </trkpt>
      <trkpt lat="44.47665" lon="5.82366">
        <ele>829</ele>
        <time>2019-06-12T14:02:47Z</time>
      </trkpt>
      <trkpt lat="44.47659" lon="5.82361">
        <ele>829</ele>
        <time>2019-06-12T14:02:48Z</time>
      </trkpt>
      <trkpt lat="44.47654" lon="5.82354">
        <ele>828</ele>
        <time>2019-06-12T14:02:49Z</time>
      </trkpt>
      <trkpt lat="44.47649" lon="5.82346">
        <ele>828</ele>
        <time>2019-06-12T14:02:50Z</time>
      </trkpt>
      <trkpt lat="44.47644" lon="5.82337">
        <ele>828</ele>
        <time>2019-06-12T14:02:51Z</time>
      </trkpt>
      <trkpt lat="44.4764" lon="5.82327">
        <ele>828</ele>
        <time>2019-06-12T14:02:52Z</time>
      </trkpt>
      <trkpt lat="44.47637" lon="5.82317">
        <ele>827</ele>
        <time>2019-06-12T14:02:53Z</time>
      </trkpt>
      <trkpt lat="44.47634" lon="5.82307">
        <ele>827</ele>
        <time>2019-06-12T14:02:54Z</time>
      </trkpt>
      <trkpt lat="44.47632" lon="5.82297">
        <ele>827</ele>
        <time>2019-06-12T14:02:55Z</time>
      </trkpt>
      <trkpt lat="44.47629" lon="5.82287">
        <ele>826</ele>
        <time>2019-06-12T14:02:56Z</time>
      </trkpt>
      <trkpt lat="44.47626" lon="5.82277">
        <ele>826</ele>
        <time>2019-06-12T14:02:57Z</time>
      </trkpt>
      <trkpt lat="44.47623" lon="5.82267">
        <ele>826</ele>
        <time>2019-06-12T14:02:58Z</time>
      </trkpt>
      <trkpt lat="44.4762" lon="5.82257">
        <ele>825</ele>
        <time>2019-06-12T14:02:59Z</time>
      </trkpt>
      <trkpt lat="44.47617" lon="5.82247">
        <ele>824</ele>
        <time>2019-06-12T14:03:00Z</time>
      </trkpt>
      <trkpt lat="44.47613" lon="5.82238">
        <ele>824</ele>
        <time>2019-06-12T14:03:01Z</time>
      </trkpt>
      <trkpt lat="44.4761" lon="5.82229">
        <ele>823</ele>
        <time>2019-06-12T14:03:02Z</time>
      </trkpt>
      <trkpt lat="44.47606" lon="5.8222">
        <ele>823</ele>
        <time>2019-06-12T14:03:03Z</time>
      </trkpt>
      <trkpt lat="44.47602" lon="5.82211">
        <ele>822</ele>
        <time>2019-06-12T14:03:04Z</time>
      </trkpt>
      <trkpt lat="44.47598" lon="5.82203">
        <ele>822</ele>
        <time>2019-06-12T14:03:05Z</time>
      </trkpt>
      <trkpt lat="44.47594" lon="5.82195">
        <ele>822</ele>
        <time>2019-06-12T14:03:06Z</time>
      </trkpt>
      <trkpt lat="44.47589" lon="5.82187">
        <ele>822</ele>
        <time>2019-06-12T14:03:07Z</time>
      </trkpt>
      <trkpt lat="44.47585" lon="5.82179">
        <ele>822</ele>
        <time>2019-06-12T14:03:08Z</time>
      </trkpt>
      <trkpt lat="44.47581" lon="5.82171">
        <ele>821</ele>
        <time>2019-06-12T14:03:09Z</time>
      </trkpt>
      <trkpt lat="44.47577" lon="5.82164">
        <ele>821</ele>
        <time>2019-06-12T14:03:10Z</time>
      </trkpt>
      <trkpt lat="44.47573" lon="5.82157">
        <ele>821</ele>
        <time>2019-06-12T14:03:11Z</time>
      </trkpt>
      <trkpt lat="44.4757" lon="5.8215">
        <ele>820</ele>
        <time>2019-06-12T14:03:12Z</time>
      </trkpt>
      <trkpt lat="44.47566" lon="5.82142">
        <ele>820</ele>
        <time>2019-06-12T14:03:13Z</time>
      </trkpt>
      <trkpt lat="44.47562" lon="5.82134">
        <ele>819</ele>
        <time>2019-06-12T14:03:14Z</time>
      </trkpt>
      <trkpt lat="44.47558" lon="5.82127">
        <ele>819</ele>
        <time>2019-06-12T14:03:15Z</time>
      </trkpt>
      <trkpt lat="44.47554" lon="5.8212">
        <ele>818</ele>
        <time>2019-06-12T14:03:16Z</time>
      </trkpt>
      <trkpt lat="44.4755" lon="5.82113">
        <ele>818</ele>
        <time>2019-06-12T14:03:17Z</time>
      </trkpt>
      <trkpt lat="44.47547" lon="5.82106">
        <ele>818</ele>
        <time>2019-06-12T14:03:18Z</time>
      </trkpt>
      <trkpt lat="44.47544" lon="5.82098">
        <ele>818</ele>
        <time>2019-06-12T14:03:19Z</time>
      </trkpt>
      <trkpt lat="44.47542" lon="5.82091">
        <ele>818</ele>
        <time>2019-06-12T14:03:20Z</time>
      </trkpt>
      <trkpt lat="44.47541" lon="5.82082">
        <ele>818</ele>
        <time>2019-06-12T14:03:21Z</time>
      </trkpt>
      <trkpt lat="44.47541" lon="5.82073">
        <ele>818</ele>
        <time>2019-06-12T14:03:22Z</time>
      </trkpt>
      <trkpt lat="44.47542" lon="5.82064">
        <ele>818</ele>
        <time>2019-06-12T14:03:23Z</time>
      </trkpt>
      <trkpt lat="44.47543" lon="5.82054">
        <ele>818</ele>
        <time>2019-06-12T14:03:24Z</time>
      </trkpt>
      <trkpt lat="44.47544" lon="5.82043">
        <ele>818</ele>
        <time>2019-06-12T14:03:25Z</time>
      </trkpt>
      <trkpt lat="44.47545" lon="5.82033">
        <ele>818</ele>
        <time>2019-06-12T14:03:26Z</time>
      </trkpt>
      <trkpt lat="44.47546" lon="5.82022">
        <ele>818</ele>
        <time>2019-06-12T14:03:27Z</time>
      </trkpt>
      <trkpt lat="44.47548" lon="5.82011">
        <ele>818</ele>
        <time>2019-06-12T14:03:28Z</time>
      </trkpt>
      <trkpt lat="44.47549" lon="5.82">
        <ele>818</ele>
        <time>2019-06-12T14:03:29Z</time>
      </trkpt>
      <trkpt lat="44.4755" lon="5.81989">
        <ele>818</ele>
        <time>2019-06-12T14:03:30Z</time>
      </trkpt>
      <trkpt lat="44.47551" lon="5.81979">
        <ele>818</ele>
        <time>2019-06-12T14:03:31Z</time>
      </trkpt>
      <trkpt lat="44.47553" lon="5.81968">
        <ele>818</ele>
        <time>2019-06-12T14:03:32Z</time>
      </trkpt>
      <trkpt lat="44.47554" lon="5.81957">
        <ele>818</ele>
        <time>2019-06-12T14:03:33Z</time>
      </trkpt>
      <trkpt lat="44.47556" lon="5.81947">
        <ele>818</ele>
        <time>2019-06-12T14:03:34Z</time>
      </trkpt>
      <trkpt lat="44.47557" lon="5.81936">
        <ele>818</ele>
        <time>2019-06-12T14:03:35Z</time>
      </trkpt>
      <trkpt lat="44.47558" lon="5.81925">
        <ele>818</ele>
        <time>2019-06-12T14:03:36Z</time>
      </trkpt>
      <trkpt lat="44.4756" lon="5.81914">
        <ele>818</ele>
        <time>2019-06-12T14:03:37Z</time>
      </trkpt>
      <trkpt lat="44.47561" lon="5.81904">
        <ele>818</ele>
        <time>2019-06-12T14:03:38Z</time>
      </trkpt>
      <trkpt lat="44.47562" lon="5.81893">
        <ele>818</ele>
        <time>2019-06-12T14:03:39Z</time>
      </trkpt>
      <trkpt lat="44.47564" lon="5.81882">
        <ele>818</ele>
        <time>2019-06-12T14:03:40Z</time>
      </trkpt>
      <trkpt lat="44.47565" lon="5.81872">
        <ele>818</ele>
        <time>2019-06-12T14:03:41Z</time>
      </trkpt>
      <trkpt lat="44.47566" lon="5.81861">
        <ele>818</ele>
        <time>2019-06-12T14:03:42Z</time>
      </trkpt>
      <trkpt lat="44.47567" lon="5.8185">
        <ele>818</ele>
        <time>2019-06-12T14:03:43Z</time>
      </trkpt>
      <trkpt lat="44.47569" lon="5.81839">
        <ele>818</ele>
        <time>2019-06-12T14:03:44Z</time>
      </trkpt>
      <trkpt lat="44.4757" lon="5.81828">
        <ele>818</ele>
        <time>2019-06-12T14:03:45Z</time>
      </trkpt>
      <trkpt lat="44.47572" lon="5.81818">
        <ele>818</ele>
        <time>2019-06-12T14:03:46Z</time>
      </trkpt>
      <trkpt lat="44.47573" lon="5.81807">
        <ele>817</ele>
        <time>2019-06-12T14:03:47Z</time>
      </trkpt>
      <trkpt lat="44.47575" lon="5.81796">
        <ele>817</ele>
        <time>2019-06-12T14:03:48Z</time>
      </trkpt>
      <trkpt lat="44.47576" lon="5.81785">
        <ele>817</ele>
        <time>2019-06-12T14:03:49Z</time>
      </trkpt>
      <trkpt lat="44.47578" lon="5.81774">
        <ele>817</ele>
        <time>2019-06-12T14:03:50Z</time>
      </trkpt>
      <trkpt lat="44.47579" lon="5.81763">
        <ele>817</ele>
        <time>2019-06-12T14:03:51Z</time>
      </trkpt>
      <trkpt lat="44.47581" lon="5.81752">
        <ele>817</ele>
        <time>2019-06-12T14:03:52Z</time>
      </trkpt>
      <trkpt lat="44.47582" lon="5.81741">
        <ele>817</ele>
        <time>2019-06-12T14:03:53Z</time>
      </trkpt>
      <trkpt lat="44.47583" lon="5.8173">
        <ele>817</ele>
        <time>2019-06-12T14:03:54Z</time>
      </trkpt>
      <trkpt lat="44.47585" lon="5.81719">
        <ele>817</ele>
        <time>2019-06-12T14:03:55Z</time>
      </trkpt>
      <trkpt lat="44.47586" lon="5.81708">
        <ele>816</ele>
        <time>2019-06-12T14:03:56Z</time>
      </trkpt>
      <trkpt lat="44.47588" lon="5.81697">
        <ele>816</ele>
        <time>2019-06-12T14:03:57Z</time>
      </trkpt>
      <trkpt lat="44.47589" lon="5.81686">
        <ele>816</ele>
        <time>2019-06-12T14:03:58Z</time>
      </trkpt>
      <trkpt lat="44.47591" lon="5.81676">
        <ele>816</ele>
        <time>2019-06-12T14:03:59Z</time>
      </trkpt>
      <trkpt lat="44.47592" lon="5.81665">
        <ele>816</ele>
        <time>2019-06-12T14:04:00Z</time>
      </trkpt>
      <trkpt lat="44.47594" lon="5.81654">
        <ele>816</ele>
        <time>2019-06-12T14:04:01Z</time>
      </trkpt>
      <trkpt lat="44.47595" lon="5.81643">
        <ele>816</ele>
        <time>2019-06-12T14:04:02Z</time>
      </trkpt>
      <trkpt lat="44.47597" lon="5.81632">
        <ele>815</ele>
        <time>2019-06-12T14:04:03Z</time>
      </trkpt>
      <trkpt lat="44.47599" lon="5.81621">
        <ele>815</ele>
        <time>2019-06-12T14:04:04Z</time>
      </trkpt>
      <trkpt lat="44.476" lon="5.81611">
        <ele>815</ele>
        <time>2019-06-12T14:04:05Z</time>
      </trkpt>
      <trkpt lat="44.47602" lon="5.816">
        <ele>815</ele>
        <time>2019-06-12T14:04:06Z</time>
      </trkpt>
      <trkpt lat="44.47604" lon="5.8159">
        <ele>815</ele>
        <time>2019-06-12T14:04:07Z</time>
      </trkpt>
      <trkpt lat="44.47606" lon="5.81579">
        <ele>815</ele>
        <time>2019-06-12T14:04:08Z</time>
      </trkpt>
      <trkpt lat="44.47608" lon="5.81569">
        <ele>815</ele>
        <time>2019-06-12T14:04:09Z</time>
      </trkpt>
      <trkpt lat="44.4761" lon="5.81559">
        <ele>815</ele>
        <time>2019-06-12T14:04:10Z</time>
      </trkpt>
      <trkpt lat="44.47612" lon="5.81549">
        <ele>815</ele>
        <time>2019-06-12T14:04:11Z</time>
      </trkpt>
      <trkpt lat="44.47614" lon="5.81538">
        <ele>815</ele>
        <time>2019-06-12T14:04:12Z</time>
      </trkpt>
      <trkpt lat="44.47617" lon="5.81529">
        <ele>814</ele>
        <time>2019-06-12T14:04:13Z</time>
      </trkpt>
      <trkpt lat="44.47619" lon="5.81519">
        <ele>814</ele>
        <time>2019-06-12T14:04:14Z</time>
      </trkpt>
      <trkpt lat="44.47621" lon="5.81509">
        <ele>814</ele>
        <time>2019-06-12T14:04:15Z</time>
      </trkpt>
      <trkpt lat="44.47623" lon="5.81499">
        <ele>814</ele>
        <time>2019-06-12T14:04:16Z</time>
      </trkpt>
      <trkpt lat="44.47625" lon="5.81488">
        <ele>813</ele>
        <time>2019-06-12T14:04:17Z</time>
      </trkpt>
      <trkpt lat="44.47627" lon="5.81477">
        <ele>813</ele>
        <time>2019-06-12T14:04:18Z</time>
      </trkpt>
      <trkpt lat="44.47629" lon="5.81467">
        <ele>812</ele>
        <time>2019-06-12T14:04:19Z</time>
      </trkpt>
      <trkpt lat="44.47631" lon="5.81458">
        <ele>811</ele>
        <time>2019-06-12T14:04:20Z</time>
      </trkpt>
      <trkpt lat="44.47634" lon="5.81448">
        <ele>810</ele>
        <time>2019-06-12T14:04:21Z</time>
      </trkpt>
      <trkpt lat="44.47638" lon="5.81439">
        <ele>809</ele>
        <time>2019-06-12T14:04:22Z</time>
      </trkpt>
      <trkpt lat="44.47642" lon="5.81431">
        <ele>808</ele>
        <time>2019-06-12T14:04:23Z</time>
      </trkpt>
      <trkpt lat="44.47646" lon="5.81423">
        <ele>808</ele>
        <time>2019-06-12T14:04:24Z</time>
      </trkpt>
      <trkpt lat="44.47649" lon="5.81414">
        <ele>808</ele>
        <time>2019-06-12T14:04:25Z</time>
      </trkpt>
      <trkpt lat="44.47652" lon="5.81405">
        <ele>807</ele>
        <time>2019-06-12T14:04:26Z</time>
      </trkpt>
      <trkpt lat="44.47654" lon="5.81396">
        <ele>807</ele>
        <time>2019-06-12T14:04:27Z</time>
      </trkpt>
      <trkpt lat="44.47656" lon="5.81387">
        <ele>807</ele>
        <time>2019-06-12T14:04:28Z</time>
      </trkpt>
      <trkpt lat="44.47658" lon="5.81378">
        <ele>807</ele>
        <time>2019-06-12T14:04:29Z</time>
      </trkpt>
      <trkpt lat="44.47659" lon="5.81369">
        <ele>807</ele>
        <time>2019-06-12T14:04:30Z</time>
      </trkpt>
      <trkpt lat="44.4766" lon="5.8136">
        <ele>807</ele>
        <time>2019-06-12T14:04:31Z</time>
      </trkpt>
      <trkpt lat="44.4766" lon="5.81351">
        <ele>807</ele>
        <time>2019-06-12T14:04:32Z</time>
      </trkpt>
      <trkpt lat="44.47661" lon="5.81343">
        <ele>807</ele>
        <time>2019-06-12T14:04:33Z</time>
      </trkpt>
      <trkpt lat="44.47661" lon="5.81335">
        <ele>807</ele>
        <time>2019-06-12T14:04:34Z</time>
      </trkpt>
      <trkpt lat="44.47662" lon="5.81327">
        <ele>807</ele>
        <time>2019-06-12T14:04:35Z</time>
      </trkpt>
      <trkpt lat="44.47662" lon="5.8132">
        <ele>807</ele>
        <time>2019-06-12T14:04:36Z</time>
      </trkpt>
      <trkpt lat="44.47662" lon="5.81312">
        <ele>807</ele>
        <time>2019-06-12T14:04:37Z</time>
      </trkpt>
      <trkpt lat="44.47662" lon="5.81305">
        <ele>807</ele>
        <time>2019-06-12T14:04:38Z</time>
      </trkpt>
      <trkpt lat="44.47662" lon="5.81297">
        <ele>807</ele>
        <time>2019-06-12T14:04:39Z</time>
      </trkpt>
      <trkpt lat="44.47662" lon="5.81289">
        <ele>807</ele>
        <time>2019-06-12T14:04:40Z</time>
      </trkpt>
      <trkpt lat="44.47661" lon="5.81281">
        <ele>807</ele>
        <time>2019-06-12T14:04:41Z</time>
      </trkpt>
      <trkpt lat="44.47661" lon="5.81273">
        <ele>807</ele>
        <time>2019-06-12T14:04:42Z</time>
      </trkpt>
      <trkpt lat="44.47661" lon="5.81264">
        <ele>807</ele>
        <time>2019-06-12T14:04:43Z</time>
      </trkpt>
      <trkpt lat="44.4766" lon="5.81255">
        <ele>807</ele>
        <time>2019-06-12T14:04:44Z</time>
      </trkpt>
      <trkpt lat="44.4766" lon="5.81245">
        <ele>807</ele>
        <time>2019-06-12T14:04:45Z</time>
      </trkpt>
      <trkpt lat="44.4766" lon="5.81236">
        <ele>807</ele>
        <time>2019-06-12T14:04:46Z</time>
      </trkpt>
      <trkpt lat="44.47659" lon="5.81226">
        <ele>807</ele>
        <time>2019-06-12T14:04:47Z</time>
      </trkpt>
      <trkpt lat="44.47658" lon="5.81216">
        <ele>807</ele>
        <time>2019-06-12T14:04:48Z</time>
      </trkpt>
      <trkpt lat="44.47658" lon="5.81207">
        <ele>807</ele>
        <time>2019-06-12T14:04:49Z</time>
      </trkpt>
      <trkpt lat="44.47657" lon="5.81198">
        <ele>807</ele>
        <time>2019-06-12T14:04:50Z</time>
      </trkpt>
      <trkpt lat="44.47657" lon="5.81189">
        <ele>807</ele>
        <time>2019-06-12T14:04:51Z</time>
      </trkpt>
      <trkpt lat="44.47657" lon="5.81179">
        <ele>807</ele>
        <time>2019-06-12T14:04:52Z</time>
      </trkpt>
      <trkpt lat="44.47657" lon="5.8117">
        <ele>807</ele>
        <time>2019-06-12T14:04:53Z</time>
      </trkpt>
      <trkpt lat="44.47656" lon="5.8116">
        <ele>807</ele>
        <time>2019-06-12T14:04:54Z</time>
      </trkpt>
      <trkpt lat="44.47655" lon="5.8115">
        <ele>807</ele>
        <time>2019-06-12T14:04:55Z</time>
      </trkpt>
      <trkpt lat="44.47655" lon="5.8114">
        <ele>807</ele>
        <time>2019-06-12T14:04:56Z</time>
      </trkpt>
      <trkpt lat="44.47655" lon="5.81131">
        <ele>807</ele>
        <time>2019-06-12T14:04:57Z</time>
      </trkpt>
      <trkpt lat="44.47654" lon="5.8112">
        <ele>807</ele>
        <time>2019-06-12T14:04:58Z</time>
      </trkpt>
      <trkpt lat="44.47654" lon="5.8111">
        <ele>807</ele>
        <time>2019-06-12T14:04:59Z</time>
      </trkpt>
      <trkpt lat="44.47654" lon="5.811">
        <ele>806</ele>
        <time>2019-06-12T14:05:00Z</time>
      </trkpt>
      <trkpt lat="44.47654" lon="5.81089">
        <ele>806</ele>
        <time>2019-06-12T14:05:01Z</time>
      </trkpt>
      <trkpt lat="44.47655" lon="5.81078">
        <ele>806</ele>
        <time>2019-06-12T14:05:02Z</time>
      </trkpt>
      <trkpt lat="44.47655" lon="5.81067">
        <ele>806</ele>
        <time>2019-06-12T14:05:03Z</time>
      </trkpt>
      <trkpt lat="44.47656" lon="5.81056">
        <ele>806</ele>
        <time>2019-06-12T14:05:04Z</time>
      </trkpt>
      <trkpt lat="44.47656" lon="5.81045">
        <ele>806</ele>
        <time>2019-06-12T14:05:05Z</time>
      </trkpt>
      <trkpt lat="44.47657" lon="5.81035">
        <ele>806</ele>
        <time>2019-06-12T14:05:06Z</time>
      </trkpt>
      <trkpt lat="44.47658" lon="5.81024">
        <ele>806</ele>
        <time>2019-06-12T14:05:07Z</time>
      </trkpt>
      <trkpt lat="44.47659" lon="5.81014">
        <ele>806</ele>
        <time>2019-06-12T14:05:08Z</time>
      </trkpt>
      <trkpt lat="44.47659" lon="5.81004">
        <ele>806</ele>
        <time>2019-06-12T14:05:09Z</time>
      </trkpt>
      <trkpt lat="44.4766" lon="5.80995">
        <ele>806</ele>
        <time>2019-06-12T14:05:10Z</time>
      </trkpt>
      <trkpt lat="44.4766" lon="5.80985">
        <ele>806</ele>
        <time>2019-06-12T14:05:11Z</time>
      </trkpt>
      <trkpt lat="44.4766" lon="5.80975">
        <ele>806</ele>
        <time>2019-06-12T14:05:12Z</time>
      </trkpt>
      <trkpt lat="44.47661" lon="5.80967">
        <ele>806</ele>
        <time>2019-06-12T14:05:13Z</time>
      </trkpt>
      <trkpt lat="44.47662" lon="5.80958">
        <ele>806</ele>
        <time>2019-06-12T14:05:14Z</time>
      </trkpt>
      <trkpt lat="44.47662" lon="5.80949">
        <ele>806</ele>
        <time>2019-06-12T14:05:15Z</time>
      </trkpt>
      <trkpt lat="44.47663" lon="5.80939">
        <ele>805</ele>
        <time>2019-06-12T14:05:16Z</time>
      </trkpt>
      <trkpt lat="44.47664" lon="5.8093">
        <ele>805</ele>
        <time>2019-06-12T14:05:17Z</time>
      </trkpt>
      <trkpt lat="44.47665" lon="5.80921">
        <ele>804</ele>
        <time>2019-06-12T14:05:18Z</time>
      </trkpt>
      <trkpt lat="44.47666" lon="5.80912">
        <ele>803</ele>
        <time>2019-06-12T14:05:19Z</time>
      </trkpt>
      <trkpt lat="44.47667" lon="5.80903">
        <ele>802</ele>
        <time>2019-06-12T14:05:20Z</time>
      </trkpt>
      <trkpt lat="44.47667" lon="5.80895">
        <ele>801</ele>
        <time>2019-06-12T14:05:21Z</time>
      </trkpt>
      <trkpt lat="44.47668" lon="5.80886">
        <ele>800</ele>
        <time>2019-06-12T14:05:22Z</time>
      </trkpt>
      <trkpt lat="44.47669" lon="5.80877">
        <ele>799</ele>
        <time>2019-06-12T14:05:23Z</time>
      </trkpt>
      <trkpt lat="44.4767" lon="5.80868">
        <ele>799</ele>
        <time>2019-06-12T14:05:24Z</time>
      </trkpt>
      <trkpt lat="44.4767" lon="5.80859">
        <ele>799</ele>
        <time>2019-06-12T14:05:25Z</time>
      </trkpt>
      <trkpt lat="44.4767" lon="5.80851">
        <ele>798</ele>
        <time>2019-06-12T14:05:26Z</time>
      </trkpt>
      <trkpt lat="44.47671" lon="5.80842">
        <ele>798</ele>
        <time>2019-06-12T14:05:27Z</time>
      </trkpt>
      <trkpt lat="44.47671" lon="5.80834">
        <ele>798</ele>
        <time>2019-06-12T14:05:28Z</time>
      </trkpt>
      <trkpt lat="44.47671" lon="5.80826">
        <ele>798</ele>
        <time>2019-06-12T14:05:29Z</time>
      </trkpt>
      <trkpt lat="44.47671" lon="5.80818">
        <ele>798</ele>
        <time>2019-06-12T14:05:30Z</time>
      </trkpt>
      <trkpt lat="44.4767" lon="5.8081">
        <ele>798</ele>
        <time>2019-06-12T14:05:31Z</time>
      </trkpt>
      <trkpt lat="44.4767" lon="5.80802">
        <ele>798</ele>
        <time>2019-06-12T14:05:32Z</time>
      </trkpt>
      <trkpt lat="44.4767" lon="5.80795">
        <ele>798</ele>
        <time>2019-06-12T14:05:33Z</time>
      </trkpt>
      <trkpt lat="44.4767" lon="5.80787">
        <ele>798</ele>
        <time>2019-06-12T14:05:34Z</time>
      </trkpt>
      <trkpt lat="44.47669" lon="5.8078">
        <ele>798</ele>
        <time>2019-06-12T14:05:35Z</time>
      </trkpt>
      <trkpt lat="44.47669" lon="5.80772">
        <ele>798</ele>
        <time>2019-06-12T14:05:36Z</time>
      </trkpt>
      <trkpt lat="44.47668" lon="5.80765">
        <ele>798</ele>
        <time>2019-06-12T14:05:37Z</time>
      </trkpt>
      <trkpt lat="44.47668" lon="5.80758">
        <ele>798</ele>
        <time>2019-06-12T14:05:38Z</time>
      </trkpt>
      <trkpt lat="44.47668" lon="5.80751">
        <ele>798</ele>
        <time>2019-06-12T14:05:39Z</time>
      </trkpt>
      <trkpt lat="44.47667" lon="5.80743">
        <ele>798</ele>
        <time>2019-06-12T14:05:40Z</time>
      </trkpt>
      <trkpt lat="44.47667" lon="5.80735">
        <ele>798</ele>
        <time>2019-06-12T14:05:41Z</time>
      </trkpt>
      <trkpt lat="44.47667" lon="5.80727">
        <ele>798</ele>
        <time>2019-06-12T14:05:42Z</time>
      </trkpt>
      <trkpt lat="44.47667" lon="5.80718">
        <ele>798</ele>
        <time>2019-06-12T14:05:43Z</time>
      </trkpt>
      <trkpt lat="44.47667" lon="5.80709">
        <ele>798</ele>
        <time>2019-06-12T14:05:44Z</time>
      </trkpt>
      <trkpt lat="44.47667" lon="5.807">
        <ele>798</ele>
        <time>2019-06-12T14:05:45Z</time>
      </trkpt>
      <trkpt lat="44.47667" lon="5.8069">
        <ele>798</ele>
        <time>2019-06-12T14:05:46Z</time>
      </trkpt>
      <trkpt lat="44.47667" lon="5.80681">
        <ele>798</ele>
        <time>2019-06-12T14:05:47Z</time>
      </trkpt>
      <trkpt lat="44.47668" lon="5.8067">
        <ele>797</ele>
        <time>2019-06-12T14:05:48Z</time>
      </trkpt>
      <trkpt lat="44.47669" lon="5.8066">
        <ele>797</ele>
        <time>2019-06-12T14:05:49Z</time>
      </trkpt>
      <trkpt lat="44.4767" lon="5.80649">
        <ele>797</ele>
        <time>2019-06-12T14:05:50Z</time>
      </trkpt>
      <trkpt lat="44.47671" lon="5.80638">
        <ele>796</ele>
        <time>2019-06-12T14:05:51Z</time>
      </trkpt>
      <trkpt lat="44.47672" lon="5.80626">
        <ele>796</ele>
        <time>2019-06-12T14:05:52Z</time>
      </trkpt>
      <trkpt lat="44.47672" lon="5.80615">
        <ele>796</ele>
        <time>2019-06-12T14:05:53Z</time>
      </trkpt>
      <trkpt lat="44.47672" lon="5.80604">
        <ele>796</ele>
        <time>2019-06-12T14:05:54Z</time>
      </trkpt>
      <trkpt lat="44.47672" lon="5.80593">
        <ele>796</ele>
        <time>2019-06-12T14:05:55Z</time>
      </trkpt>
      <trkpt lat="44.47671" lon="5.80583">
        <ele>796</ele>
        <time>2019-06-12T14:05:56Z</time>
      </trkpt>
      <trkpt lat="44.47669" lon="5.80574">
        <ele>796</ele>
        <time>2019-06-12T14:05:57Z</time>
      </trkpt>
      <trkpt lat="44.47666" lon="5.80565">
        <ele>796</ele>
        <time>2019-06-12T14:05:58Z</time>
      </trkpt>
      <trkpt lat="44.47662" lon="5.80557">
        <ele>796</ele>
        <time>2019-06-12T14:05:59Z</time>
      </trkpt>
      <trkpt lat="44.47657" lon="5.80552">
        <ele>796</ele>
        <time>2019-06-12T14:06:00Z</time>
      </trkpt>
      <trkpt lat="44.47651" lon="5.80548">
        <ele>796</ele>
        <time>2019-06-12T14:06:01Z</time>
      </trkpt>
      <trkpt lat="44.47645" lon="5.80545">
        <ele>796</ele>
        <time>2019-06-12T14:06:02Z</time>
      </trkpt>
      <trkpt lat="44.47639" lon="5.80543">
        <ele>796</ele>
        <time>2019-06-12T14:06:03Z</time>
      </trkpt>
      <trkpt lat="44.47634" lon="5.80541">
        <ele>796</ele>
        <time>2019-06-12T14:06:04Z</time>
      </trkpt>
      <trkpt lat="44.47628" lon="5.8054">
        <ele>796</ele>
        <time>2019-06-12T14:06:05Z</time>
      </trkpt>
      <trkpt lat="44.47622" lon="5.80538">
        <ele>796</ele>
        <time>2019-06-12T14:06:06Z</time>
      </trkpt>
      <trkpt lat="44.47617" lon="5.80536">
        <ele>796</ele>
        <time>2019-06-12T14:06:07Z</time>
      </trkpt>
      <trkpt lat="44.47611" lon="5.80534">
        <ele>796</ele>
        <time>2019-06-12T14:06:08Z</time>
      </trkpt>
      <trkpt lat="44.47606" lon="5.8053">
        <ele>796</ele>
        <time>2019-06-12T14:06:09Z</time>
      </trkpt>
      <trkpt lat="44.47601" lon="5.80525">
        <ele>796</ele>
        <time>2019-06-12T14:06:10Z</time>
      </trkpt>
      <trkpt lat="44.47597" lon="5.8052">
        <ele>796</ele>
        <time>2019-06-12T14:06:11Z</time>
      </trkpt>
      <trkpt lat="44.47594" lon="5.80514">
        <ele>796</ele>
        <time>2019-06-12T14:06:12Z</time>
      </trkpt>
      <trkpt lat="44.47591" lon="5.80507">
        <ele>796</ele>
        <time>2019-06-12T14:06:13Z</time>
      </trkpt>
      <trkpt lat="44.47588" lon="5.805">
        <ele>796</ele>
        <time>2019-06-12T14:06:14Z</time>
      </trkpt>
      <trkpt lat="44.47586" lon="5.80493">
        <ele>796</ele>
        <time>2019-06-12T14:06:15Z</time>
      </trkpt>
      <trkpt lat="44.47584" lon="5.80486">
        <ele>796</ele>
        <time>2019-06-12T14:06:16Z</time>
      </trkpt>
      <trkpt lat="44.47583" lon="5.80479">
        <ele>796</ele>
        <time>2019-06-12T14:06:17Z</time>
      </trkpt>
      <trkpt lat="44.47582" lon="5.80471">
        <ele>796</ele>
        <time>2019-06-12T14:06:18Z</time>
      </trkpt>
      <trkpt lat="44.47582" lon="5.80464">
        <ele>796</ele>
        <time>2019-06-12T14:06:19Z</time>
      </trkpt>
      <trkpt lat="44.47582" lon="5.80457">
        <ele>796</ele>
        <time>2019-06-12T14:06:20Z</time>
      </trkpt>
      <trkpt lat="44.47581" lon="5.8045">
        <ele>796</ele>
        <time>2019-06-12T14:06:21Z</time>
      </trkpt>
      <trkpt lat="44.47581" lon="5.80443">
        <ele>796</ele>
        <time>2019-06-12T14:06:22Z</time>
      </trkpt>
      <trkpt lat="44.4758" lon="5.80436">
        <ele>796</ele>
        <time>2019-06-12T14:06:23Z</time>
      </trkpt>
      <trkpt lat="44.4758" lon="5.80428">
        <ele>796</ele>
        <time>2019-06-12T14:06:24Z</time>
      </trkpt>
      <trkpt lat="44.47579" lon="5.80421">
        <ele>796</ele>
        <time>2019-06-12T14:06:25Z</time>
      </trkpt>
      <trkpt lat="44.47578" lon="5.80414">
        <ele>796</ele>
        <time>2019-06-12T14:06:26Z</time>
      </trkpt>
      <trkpt lat="44.47578" lon="5.80406">
        <ele>796</ele>
        <time>2019-06-12T14:06:27Z</time>
      </trkpt>
      <trkpt lat="44.47577" lon="5.80398">
        <ele>796</ele>
        <time>2019-06-12T14:06:28Z</time>
      </trkpt>
      <trkpt lat="44.47577" lon="5.80389">
        <ele>796</ele>
        <time>2019-06-12T14:06:29Z</time>
      </trkpt>
      <trkpt lat="44.47577" lon="5.8038">
        <ele>796</ele>
        <time>2019-06-12T14:06:30Z</time>
      </trkpt>
      <trkpt lat="44.47577" lon="5.80372">
        <ele>796</ele>
        <time>2019-06-12T14:06:31Z</time>
      </trkpt>
      <trkpt lat="44.47578" lon="5.80363">
        <ele>796</ele>
        <time>2019-06-12T14:06:32Z</time>
      </trkpt>
      <trkpt lat="44.47579" lon="5.80355">
        <ele>796</ele>
        <time>2019-06-12T14:06:33Z</time>
      </trkpt>
      <trkpt lat="44.4758" lon="5.80347">
        <ele>796</ele>
        <time>2019-06-12T14:06:34Z</time>
      </trkpt>
      <trkpt lat="44.47581" lon="5.80338">
        <ele>796</ele>
        <time>2019-06-12T14:06:35Z</time>
      </trkpt>
      <trkpt lat="44.47583" lon="5.80331">
        <ele>796</ele>
        <time>2019-06-12T14:06:36Z</time>
      </trkpt>
      <trkpt lat="44.47585" lon="5.80323">
        <ele>796</ele>
        <time>2019-06-12T14:06:37Z</time>
      </trkpt>
      <trkpt lat="44.47587" lon="5.80315">
        <ele>796</ele>
        <time>2019-06-12T14:06:38Z</time>
      </trkpt>
      <trkpt lat="44.47589" lon="5.80307">
        <ele>796</ele>
        <time>2019-06-12T14:06:39Z</time>
      </trkpt>
      <trkpt lat="44.47592" lon="5.80299">
        <ele>796</ele>
        <time>2019-06-12T14:06:40Z</time>
      </trkpt>
      <trkpt lat="44.47594" lon="5.80292">
        <ele>796</ele>
        <time>2019-06-12T14:06:41Z</time>
      </trkpt>
      <trkpt lat="44.47597" lon="5.80284">
        <ele>796</ele>
        <time>2019-06-12T14:06:42Z</time>
      </trkpt>
      <trkpt lat="44.476" lon="5.80275">
        <ele>795</ele>
        <time>2019-06-12T14:06:43Z</time>
      </trkpt>
      <trkpt lat="44.47602" lon="5.80267">
        <ele>795</ele>
        <time>2019-06-12T14:06:44Z</time>
      </trkpt>
      <trkpt lat="44.47604" lon="5.80259">
        <ele>795</ele>
        <time>2019-06-12T14:06:45Z</time>
      </trkpt>
      <trkpt lat="44.47605" lon="5.80251">
        <ele>795</ele>
        <time>2019-06-12T14:06:46Z</time>
      </trkpt>
      <trkpt lat="44.47607" lon="5.80243">
        <ele>795</ele>
        <time>2019-06-12T14:06:47Z</time>
      </trkpt>
      <trkpt lat="44.47608" lon="5.80235">
        <ele>795</ele>
        <time>2019-06-12T14:06:48Z</time>
      </trkpt>
      <trkpt lat="44.47609" lon="5.80226">
        <ele>794</ele>
        <time>2019-06-12T14:06:49Z</time>
      </trkpt>
      <trkpt lat="44.47609" lon="5.80217">
        <ele>794</ele>
        <time>2019-06-12T14:06:50Z</time>
      </trkpt>
      <trkpt lat="44.47609" lon="5.80207">
        <ele>794</ele>
        <time>2019-06-12T14:06:51Z</time>
      </trkpt>
      <trkpt lat="44.47609" lon="5.80197">
        <ele>794</ele>
        <time>2019-06-12T14:06:52Z</time>
      </trkpt>
      <trkpt lat="44.47609" lon="5.80186">
        <ele>794</ele>
        <time>2019-06-12T14:06:53Z</time>
      </trkpt>
      <trkpt lat="44.47608" lon="5.80176">
        <ele>794</ele>
        <time>2019-06-12T14:06:54Z</time>
      </trkpt>
      <trkpt lat="44.47608" lon="5.80166">
        <ele>793</ele>
        <time>2019-06-12T14:06:55Z</time>
      </trkpt>
      <trkpt lat="44.47607" lon="5.80155">
        <ele>793</ele>
        <time>2019-06-12T14:06:56Z</time>
      </trkpt>
      <trkpt lat="44.47607" lon="5.80145">
        <ele>793</ele>
        <time>2019-06-12T14:06:57Z</time>
      </trkpt>
      <trkpt lat="44.47606" lon="5.80134">
        <ele>793</ele>
        <time>2019-06-12T14:06:58Z</time>
      </trkpt>
      <trkpt lat="44.47606" lon="5.80124">
        <ele>793</ele>
        <time>2019-06-12T14:06:59Z</time>
      </trkpt>
      <trkpt lat="44.47605" lon="5.80114">
        <ele>793</ele>
        <time>2019-06-12T14:07:00Z</time>
      </trkpt>
      <trkpt lat="44.47604" lon="5.80104">
        <ele>793</ele>
        <time>2019-06-12T14:07:01Z</time>
      </trkpt>
      <trkpt lat="44.47604" lon="5.80094">
        <ele>793</ele>
        <time>2019-06-12T14:07:02Z</time>
      </trkpt>
      <trkpt lat="44.47603" lon="5.80085">
        <ele>793</ele>
        <time>2019-06-12T14:07:03Z</time>
      </trkpt>
      <trkpt lat="44.47602" lon="5.80076">
        <ele>793</ele>
        <time>2019-06-12T14:07:04Z</time>
      </trkpt>
      <trkpt lat="44.47601" lon="5.80068">
        <ele>793</ele>
        <time>2019-06-12T14:07:05Z</time>
      </trkpt>
      <trkpt lat="44.47601" lon="5.8006">
        <ele>793</ele>
        <time>2019-06-12T14:07:06Z</time>
      </trkpt>
      <trkpt lat="44.47601" lon="5.80052">
        <ele>793</ele>
        <time>2019-06-12T14:07:07Z</time>
      </trkpt>
      <trkpt lat="44.476" lon="5.80044">
        <ele>793</ele>
        <time>2019-06-12T14:07:08Z</time>
      </trkpt>
      <trkpt lat="44.47599" lon="5.80037">
        <ele>793</ele>
        <time>2019-06-12T14:07:09Z</time>
      </trkpt>
      <trkpt lat="44.47599" lon="5.8003">
        <ele>793</ele>
        <time>2019-06-12T14:07:10Z</time>
      </trkpt>
      <trkpt lat="44.47599" lon="5.80023">
        <ele>793</ele>
        <time>2019-06-12T14:07:11Z</time>
      </trkpt>
      <trkpt lat="44.47599" lon="5.80017">
        <ele>793</ele>
        <time>2019-06-12T14:07:12Z</time>
      </trkpt>
      <trkpt lat="44.47598" lon="5.8001">
        <ele>793</ele>
        <time>2019-06-12T14:07:13Z</time>
      </trkpt>
      <trkpt lat="44.47598" lon="5.80003">
        <ele>793</ele>
        <time>2019-06-12T14:07:14Z</time>
      </trkpt>
      <trkpt lat="44.47598" lon="5.79997">
        <ele>793</ele>
        <time>2019-06-12T14:07:15Z</time>
      </trkpt>
      <trkpt lat="44.47597" lon="5.7999">
        <ele>793</ele>
        <time>2019-06-12T14:07:16Z</time>
      </trkpt>
      <trkpt lat="44.47596" lon="5.79984">
        <ele>793</ele>
        <time>2019-06-12T14:07:17Z</time>
      </trkpt>
      <trkpt lat="44.47596" lon="5.79977">
        <ele>793</ele>
        <time>2019-06-12T14:07:18Z</time>
      </trkpt>
      <trkpt lat="44.47596" lon="5.79971">
        <ele>793</ele>
        <time>2019-06-12T14:07:19Z</time>
      </trkpt>
      <trkpt lat="44.47596" lon="5.79965">
        <ele>793</ele>
        <time>2019-06-12T14:07:20Z</time>
      </trkpt>
      <trkpt lat="44.47595" lon="5.79958">
        <ele>793</ele>
        <time>2019-06-12T14:07:21Z</time>
      </trkpt>
      <trkpt lat="44.47594" lon="5.79951">
        <ele>793</ele>
        <time>2019-06-12T14:07:22Z</time>
      </trkpt>
      <trkpt lat="44.47594" lon="5.79944">
        <ele>793</ele>
        <time>2019-06-12T14:07:23Z</time>
      </trkpt>
      <trkpt lat="44.47593" lon="5.79937">
        <ele>793</ele>
        <time>2019-06-12T14:07:24Z</time>
      </trkpt>
      <trkpt lat="44.47592" lon="5.7993">
        <ele>793</ele>
        <time>2019-06-12T14:07:25Z</time>
      </trkpt>
      <trkpt lat="44.47591" lon="5.79923">
        <ele>793</ele>
        <time>2019-06-12T14:07:26Z</time>
      </trkpt>
      <trkpt lat="44.4759" lon="5.79916">
        <ele>793</ele>
        <time>2019-06-12T14:07:27Z</time>
      </trkpt>
      <trkpt lat="44.47589" lon="5.79909">
        <ele>793</ele>
        <time>2019-06-12T14:07:28Z</time>
      </trkpt>
      <trkpt lat="44.47588" lon="5.79901">
        <ele>793</ele>
        <time>2019-06-12T14:07:29Z</time>
      </trkpt>
      <trkpt lat="44.47586" lon="5.79893">
        <ele>793</ele>
        <time>2019-06-12T14:07:30Z</time>
      </trkpt>
      <trkpt lat="44.47585" lon="5.79885">
        <ele>793</ele>
        <time>2019-06-12T14:07:31Z</time>
      </trkpt>
      <trkpt lat="44.47584" lon="5.79876">
        <ele>793</ele>
        <time>2019-06-12T14:07:32Z</time>
      </trkpt>
      <trkpt lat="44.47583" lon="5.79867">
        <ele>793</ele>
        <time>2019-06-12T14:07:33Z</time>
      </trkpt>
      <trkpt lat="44.47581" lon="5.79857">
        <ele>793</ele>
        <time>2019-06-12T14:07:34Z</time>
      </trkpt>
      <trkpt lat="44.4758" lon="5.79847">
        <ele>793</ele>
        <time>2019-06-12T14:07:35Z</time>
      </trkpt>
      <trkpt lat="44.47578" lon="5.79836">
        <ele>793</ele>
        <time>2019-06-12T14:07:36Z</time>
      </trkpt>
      <trkpt lat="44.47577" lon="5.79825">
        <ele>793</ele>
        <time>2019-06-12T14:07:37Z</time>
      </trkpt>
      <trkpt lat="44.47577" lon="5.79814">
        <ele>793</ele>
        <time>2019-06-12T14:07:38Z</time>
      </trkpt>
      <trkpt lat="44.47576" lon="5.79802">
        <ele>793</ele>
        <time>2019-06-12T14:07:39Z</time>
      </trkpt>
      <trkpt lat="44.47577" lon="5.7979">
        <ele>793</ele>
        <time>2019-06-12T14:07:40Z</time>
      </trkpt>
      <trkpt lat="44.47577" lon="5.79777">
        <ele>793</ele>
        <time>2019-06-12T14:07:41Z</time>
      </trkpt>
      <trkpt lat="44.47578" lon="5.79765">
        <ele>793</ele>
        <time>2019-06-12T14:07:42Z</time>
      </trkpt>
      <trkpt lat="44.47579" lon="5.79751">
        <ele>793</ele>
        <time>2019-06-12T14:07:43Z</time>
      </trkpt>
      <trkpt lat="44.4758" lon="5.79738">
        <ele>793</ele>
        <time>2019-06-12T14:07:44Z</time>
      </trkpt>
      <trkpt lat="44.47582" lon="5.79725">
        <ele>793</ele>
        <time>2019-06-12T14:07:45Z</time>
      </trkpt>
      <trkpt lat="44.47583" lon="5.79711">
        <ele>793</ele>
        <time>2019-06-12T14:07:46Z</time>
      </trkpt>
      <trkpt lat="44.47584" lon="5.79698">
        <ele>793</ele>
        <time>2019-06-12T14:07:47Z</time>
      </trkpt>
      <trkpt lat="44.47585" lon="5.79684">
        <ele>792</ele>
        <time>2019-06-12T14:07:48Z</time>
      </trkpt>
      <trkpt lat="44.47586" lon="5.79671">
        <ele>792</ele>
        <time>2019-06-12T14:07:49Z</time>
      </trkpt>
      <trkpt lat="44.47587" lon="5.79658">
        <ele>792</ele>
        <time>2019-06-12T14:07:50Z</time>
      </trkpt>
      <trkpt lat="44.47588" lon="5.79645">
        <ele>792</ele>
        <time>2019-06-12T14:07:51Z</time>
      </trkpt>
      <trkpt lat="44.47588" lon="5.79633">
        <ele>792</ele>
        <time>2019-06-12T14:07:52Z</time>
      </trkpt>
      <trkpt lat="44.47588" lon="5.79621">
        <ele>792</ele>
        <time>2019-06-12T14:07:53Z</time>
      </trkpt>
      <trkpt lat="44.47589" lon="5.79609">
        <ele>792</ele>
        <time>2019-06-12T14:07:54Z</time>
      </trkpt>
      <trkpt lat="44.47589" lon="5.79599">
        <ele>792</ele>
        <time>2019-06-12T14:07:55Z</time>
      </trkpt>
      <trkpt lat="44.47589" lon="5.79588">
        <ele>792</ele>
        <time>2019-06-12T14:07:56Z</time>
      </trkpt>
      <trkpt lat="44.47589" lon="5.79578">
        <ele>792</ele>
        <time>2019-06-12T14:07:57Z</time>
      </trkpt>
      <trkpt lat="44.47589" lon="5.79568">
        <ele>792</ele>
        <time>2019-06-12T14:07:58Z</time>
      </trkpt>
      <trkpt lat="44.47589" lon="5.79558">
        <ele>792</ele>
        <time>2019-06-12T14:07:59Z</time>
      </trkpt>
      <trkpt lat="44.47589" lon="5.79549">
        <ele>792</ele>
        <time>2019-06-12T14:08:00Z</time>
      </trkpt>
      <trkpt lat="44.47588" lon="5.7954">
        <ele>792</ele>
        <time>2019-06-12T14:08:01Z</time>
      </trkpt>
      <trkpt lat="44.47588" lon="5.79532">
        <ele>792</ele>
        <time>2019-06-12T14:08:02Z</time>
      </trkpt>
      <trkpt lat="44.47588" lon="5.79524">
        <ele>792</ele>
        <time>2019-06-12T14:08:03Z</time>
      </trkpt>
      <trkpt lat="44.47587" lon="5.79516">
        <ele>792</ele>
        <time>2019-06-12T14:08:04Z</time>
      </trkpt>
      <trkpt lat="44.47587" lon="5.79509">
        <ele>792</ele>
        <time>2019-06-12T14:08:05Z</time>
      </trkpt>
      <trkpt lat="44.47587" lon="5.79502">
        <ele>792</ele>
        <time>2019-06-12T14:08:06Z</time>
      </trkpt>
      <trkpt lat="44.47587" lon="5.79495">
        <ele>792</ele>
        <time>2019-06-12T14:08:07Z</time>
      </trkpt>
      <trkpt lat="44.47586" lon="5.79488">
        <ele>792</ele>
        <time>2019-06-12T14:08:08Z</time>
      </trkpt>
      <trkpt lat="44.47586" lon="5.7948">
        <ele>792</ele>
        <time>2019-06-12T14:08:09Z</time>
      </trkpt>
      <trkpt lat="44.47587" lon="5.79473">
        <ele>792</ele>
        <time>2019-06-12T14:08:10Z</time>
      </trkpt>
      <trkpt lat="44.47588" lon="5.79466">
        <ele>792</ele>
        <time>2019-06-12T14:08:11Z</time>
      </trkpt>
      <trkpt lat="44.47589" lon="5.7946">
        <ele>792</ele>
        <time>2019-06-12T14:08:12Z</time>
      </trkpt>
      <trkpt lat="44.47591" lon="5.79453">
        <ele>791</ele>
        <time>2019-06-12T14:08:13Z</time>
      </trkpt>
      <trkpt lat="44.47592" lon="5.79447">
        <ele>790</ele>
        <time>2019-06-12T14:08:14Z</time>
      </trkpt>
      <trkpt lat="44.47594" lon="5.7944">
        <ele>790</ele>
        <time>2019-06-12T14:08:15Z</time>
      </trkpt>
      <trkpt lat="44.47596" lon="5.79433">
        <ele>789</ele>
        <time>2019-06-12T14:08:16Z</time>
      </trkpt>
      <trkpt lat="44.47597" lon="5.79425">
        <ele>788</ele>
        <time>2019-06-12T14:08:17Z</time>
      </trkpt>
      <trkpt lat="44.47599" lon="5.79418">
        <ele>788</ele>
        <time>2019-06-12T14:08:18Z</time>
      </trkpt>
      <trkpt lat="44.47601" lon="5.79411">
        <ele>787</ele>
        <time>2019-06-12T14:08:19Z</time>
      </trkpt>
      <trkpt lat="44.47603" lon="5.79403">
        <ele>787</ele>
        <time>2019-06-12T14:08:20Z</time>
      </trkpt>
      <trkpt lat="44.47605" lon="5.79395">
        <ele>787</ele>
        <time>2019-06-12T14:08:21Z</time>
      </trkpt>
      <trkpt lat="44.47607" lon="5.79387">
        <ele>786</ele>
        <time>2019-06-12T14:08:22Z</time>
      </trkpt>
      <trkpt lat="44.4761" lon="5.79379">
        <ele>786</ele>
        <time>2019-06-12T14:08:23Z</time>
      </trkpt>
      <trkpt lat="44.47613" lon="5.79372">
        <ele>786</ele>
        <time>2019-06-12T14:08:24Z</time>
      </trkpt>
      <trkpt lat="44.47615" lon="5.79363">
        <ele>786</ele>
        <time>2019-06-12T14:08:25Z</time>
      </trkpt>
      <trkpt lat="44.47617" lon="5.79354">
        <ele>786</ele>
        <time>2019-06-12T14:08:26Z</time>
      </trkpt>
      <trkpt lat="44.47618" lon="5.79345">
        <ele>786</ele>
        <time>2019-06-12T14:08:27Z</time>
      </trkpt>
      <trkpt lat="44.4762" lon="5.79336">
        <ele>786</ele>
        <time>2019-06-12T14:08:28Z</time>
      </trkpt>
      <trkpt lat="44.47622" lon="5.79328">
        <ele>786</ele>
        <time>2019-06-12T14:08:29Z</time>
      </trkpt>
      <trkpt lat="44.47623" lon="5.7932">
        <ele>786</ele>
        <time>2019-06-12T14:08:30Z</time>
      </trkpt>
      <trkpt lat="44.47625" lon="5.79311">
        <ele>786</ele>
        <time>2019-06-12T14:08:31Z</time>
      </trkpt>
      <trkpt lat="44.47626" lon="5.79302">
        <ele>786</ele>
        <time>2019-06-12T14:08:32Z</time>
      </trkpt>
      <trkpt lat="44.47627" lon="5.79292">
        <ele>786</ele>
        <time>2019-06-12T14:08:33Z</time>
      </trkpt>
      <trkpt lat="44.47628" lon="5.79282">
        <ele>786</ele>
        <time>2019-06-12T14:08:34Z</time>
      </trkpt>
      <trkpt lat="44.47629" lon="5.79272">
        <ele>786</ele>
        <time>2019-06-12T14:08:35Z</time>
      </trkpt>
      <trkpt lat="44.4763" lon="5.79262">
        <ele>785</ele>
        <time>2019-06-12T14:08:36Z</time>
      </trkpt>
      <trkpt lat="44.4763" lon="5.79251">
        <ele>785</ele>
        <time>2019-06-12T14:08:37Z</time>
      </trkpt>
      <trkpt lat="44.4763" lon="5.79241">
        <ele>784</ele>
        <time>2019-06-12T14:08:38Z</time>
      </trkpt>
      <trkpt lat="44.47629" lon="5.7923">
        <ele>784</ele>
        <time>2019-06-12T14:08:39Z</time>
      </trkpt>
      <trkpt lat="44.47627" lon="5.79218">
        <ele>783</ele>
        <time>2019-06-12T14:08:40Z</time>
      </trkpt>
      <trkpt lat="44.47625" lon="5.79206">
        <ele>783</ele>
        <time>2019-06-12T14:08:41Z</time>
      </trkpt>
      <trkpt lat="44.47624" lon="5.79194">
        <ele>782</ele>
        <time>2019-06-12T14:08:42Z</time>
      </trkpt>
      <trkpt lat="44.47622" lon="5.79182">
        <ele>782</ele>
        <time>2019-06-12T14:08:43Z</time>
      </trkpt>
      <trkpt lat="44.4762" lon="5.7917">
        <ele>781</ele>
        <time>2019-06-12T14:08:44Z</time>
      </trkpt>
      <trkpt lat="44.47618" lon="5.79158">
        <ele>781</ele>
        <time>2019-06-12T14:08:45Z</time>
      </trkpt>
      <trkpt lat="44.47617" lon="5.79146">
        <ele>781</ele>
        <time>2019-06-12T14:08:46Z</time>
      </trkpt>
      <trkpt lat="44.47615" lon="5.79135">
        <ele>781</ele>
        <time>2019-06-12T14:08:47Z</time>
      </trkpt>
      <trkpt lat="44.47614" lon="5.79123">
        <ele>780</ele>
        <time>2019-06-12T14:08:48Z</time>
      </trkpt>
      <trkpt lat="44.47614" lon="5.79111">
        <ele>780</ele>
        <time>2019-06-12T14:08:49Z</time>
      </trkpt>
      <trkpt lat="44.47614" lon="5.79099">
        <ele>780</ele>
        <time>2019-06-12T14:08:50Z</time>
      </trkpt>
      <trkpt lat="44.47614" lon="5.79088">
        <ele>780</ele>
        <time>2019-06-12T14:08:51Z</time>
      </trkpt>
      <trkpt lat="44.47615" lon="5.79076">
        <ele>780</ele>
        <time>2019-06-12T14:08:52Z</time>
      </trkpt>
      <trkpt lat="44.47615" lon="5.79066">
        <ele>780</ele>
        <time>2019-06-12T14:08:53Z</time>
      </trkpt>
      <trkpt lat="44.47616" lon="5.79057">
        <ele>780</ele>
        <time>2019-06-12T14:08:54Z</time>
      </trkpt>
      <trkpt lat="44.47616" lon="5.79047">
        <ele>780</ele>
        <time>2019-06-12T14:08:55Z</time>
      </trkpt>
      <trkpt lat="44.47615" lon="5.79038">
        <ele>780</ele>
        <time>2019-06-12T14:08:56Z</time>
      </trkpt>
      <trkpt lat="44.47614" lon="5.79029">
        <ele>780</ele>
        <time>2019-06-12T14:08:57Z</time>
      </trkpt>
      <trkpt lat="44.47612" lon="5.79021">
        <ele>780</ele>
        <time>2019-06-12T14:08:58Z</time>
      </trkpt>
      <trkpt lat="44.4761" lon="5.79012">
        <ele>779</ele>
        <time>2019-06-12T14:08:59Z</time>
      </trkpt>
      <trkpt lat="44.47607" lon="5.79003">
        <ele>779</ele>
        <time>2019-06-12T14:09:00Z</time>
      </trkpt>
      <trkpt lat="44.47604" lon="5.78994">
        <ele>779</ele>
        <time>2019-06-12T14:09:01Z</time>
      </trkpt>
      <trkpt lat="44.47601" lon="5.78985">
        <ele>779</ele>
        <time>2019-06-12T14:09:02Z</time>
      </trkpt>
      <trkpt lat="44.47598" lon="5.78976">
        <ele>779</ele>
        <time>2019-06-12T14:09:03Z</time>
      </trkpt>
      <trkpt lat="44.47595" lon="5.78967">
        <ele>779</ele>
        <time>2019-06-12T14:09:04Z</time>
      </trkpt>
      <trkpt lat="44.47592" lon="5.78958">
        <ele>779</ele>
        <time>2019-06-12T14:09:05Z</time>
      </trkpt>
      <trkpt lat="44.47589" lon="5.78948">
        <ele>778</ele>
        <time>2019-06-12T14:09:06Z</time>
      </trkpt>
      <trkpt lat="44.47586" lon="5.78939">
        <ele>778</ele>
        <time>2019-06-12T14:09:07Z</time>
      </trkpt>
      <trkpt lat="44.47583" lon="5.78929">
        <ele>778</ele>
        <time>2019-06-12T14:09:08Z</time>
      </trkpt>
      <trkpt lat="44.4758" lon="5.78919">
        <ele>778</ele>
        <time>2019-06-12T14:09:09Z</time>
      </trkpt>
      <trkpt lat="44.47578" lon="5.78908">
        <ele>778</ele>
        <time>2019-06-12T14:09:10Z</time>
      </trkpt>
      <trkpt lat="44.47575" lon="5.78898">
        <ele>778</ele>
        <time>2019-06-12T14:09:11Z</time>
      </trkpt>
      <trkpt lat="44.47572" lon="5.78889">
        <ele>777</ele>
        <time>2019-06-12T14:09:12Z</time>
      </trkpt>
      <trkpt lat="44.47569" lon="5.78879">
        <ele>777</ele>
        <time>2019-06-12T14:09:13Z</time>
      </trkpt>
      <trkpt lat="44.47566" lon="5.78868">
        <ele>777</ele>
        <time>2019-06-12T14:09:14Z</time>
      </trkpt>
      <trkpt lat="44.47563" lon="5.78859">
        <ele>777</ele>
        <time>2019-06-12T14:09:15Z</time>
      </trkpt>
      <trkpt lat="44.47561" lon="5.78849">
        <ele>777</ele>
        <time>2019-06-12T14:09:16Z</time>
      </trkpt>
      <trkpt lat="44.47559" lon="5.78839">
        <ele>777</ele>
        <time>2019-06-12T14:09:17Z</time>
      </trkpt>
      <trkpt lat="44.47558" lon="5.78829">
        <ele>777</ele>
        <time>2019-06-12T14:09:18Z</time>
      </trkpt>
      <trkpt lat="44.47557" lon="5.78819">
        <ele>777</ele>
        <time>2019-06-12T14:09:19Z</time>
      </trkpt>
      <trkpt lat="44.47557" lon="5.78809">
        <ele>776</ele>
        <time>2019-06-12T14:09:20Z</time>
      </trkpt>
      <trkpt lat="44.47558" lon="5.78799">
        <ele>776</ele>
        <time>2019-06-12T14:09:21Z</time>
      </trkpt>
      <trkpt lat="44.47559" lon="5.7879">
        <ele>776</ele>
        <time>2019-06-12T14:09:22Z</time>
      </trkpt>
      <trkpt lat="44.4756" lon="5.78781">
        <ele>776</ele>
        <time>2019-06-12T14:09:23Z</time>
      </trkpt>
      <trkpt lat="44.47561" lon="5.78772">
        <ele>776</ele>
        <time>2019-06-12T14:09:24Z</time>
      </trkpt>
      <trkpt lat="44.47562" lon="5.78763">
        <ele>776</ele>
        <time>2019-06-12T14:09:25Z</time>
      </trkpt>
      <trkpt lat="44.47562" lon="5.78755">
        <ele>776</ele>
        <time>2019-06-12T14:09:26Z</time>
      </trkpt>
      <trkpt lat="44.47563" lon="5.78747">
        <ele>776</ele>
        <time>2019-06-12T14:09:27Z</time>
      </trkpt>
      <trkpt lat="44.47564" lon="5.78738">
        <ele>776</ele>
        <time>2019-06-12T14:09:28Z</time>
      </trkpt>
      <trkpt lat="44.47565" lon="5.7873">
        <ele>776</ele>
        <time>2019-06-12T14:09:29Z</time>
      </trkpt>
      <trkpt lat="44.47565" lon="5.78722">
        <ele>776</ele>
        <time>2019-06-12T14:09:30Z</time>
      </trkpt>
      <trkpt lat="44.47566" lon="5.78715">
        <ele>776</ele>
        <time>2019-06-12T14:09:31Z</time>
      </trkpt>
      <trkpt lat="44.47566" lon="5.78707">
        <ele>776</ele>
        <time>2019-06-12T14:09:32Z</time>
      </trkpt>
      <trkpt lat="44.47567" lon="5.78699">
        <ele>776</ele>
        <time>2019-06-12T14:09:33Z</time>
      </trkpt>
      <trkpt lat="44.47567" lon="5.78692">
        <ele>776</ele>
        <time>2019-06-12T14:09:34Z</time>
      </trkpt>
      <trkpt lat="44.47569" lon="5.78685">
        <ele>776</ele>
        <time>2019-06-12T14:09:35Z</time>
      </trkpt>
      <trkpt lat="44.4757" lon="5.78678">
        <ele>776</ele>
        <time>2019-06-12T14:09:36Z</time>
      </trkpt>
      <trkpt lat="44.47572" lon="5.78671">
        <ele>776</ele>
        <time>2019-06-12T14:09:37Z</time>
      </trkpt>
      <trkpt lat="44.47573" lon="5.78663">
        <ele>776</ele>
        <time>2019-06-12T14:09:38Z</time>
      </trkpt>
      <trkpt lat="44.47575" lon="5.78656">
        <ele>776</ele>
        <time>2019-06-12T14:09:39Z</time>
      </trkpt>
      <trkpt lat="44.47578" lon="5.7865">
        <ele>776</ele>
        <time>2019-06-12T14:09:40Z</time>
      </trkpt>
      <trkpt lat="44.4758" lon="5.78643">
        <ele>776</ele>
        <time>2019-06-12T14:09:41Z</time>
      </trkpt>
      <trkpt lat="44.47583" lon="5.78637">
        <ele>776</ele>
        <time>2019-06-12T14:09:42Z</time>
      </trkpt>
      <trkpt lat="44.47586" lon="5.7863">
        <ele>776</ele>
        <time>2019-06-12T14:09:43Z</time>
      </trkpt>
      <trkpt lat="44.47588" lon="5.78624">
        <ele>776</ele>
        <time>2019-06-12T14:09:44Z</time>
      </trkpt>
      <trkpt lat="44.47591" lon="5.78618">
        <ele>776</ele>
        <time>2019-06-12T14:09:45Z</time>
      </trkpt>
      <trkpt lat="44.47594" lon="5.78612">
        <ele>776</ele>
        <time>2019-06-12T14:09:46Z</time>
      </trkpt>
      <trkpt lat="44.47596" lon="5.78605">
        <ele>776</ele>
        <time>2019-06-12T14:09:47Z</time>
      </trkpt>
      <trkpt lat="44.47599" lon="5.78598">
        <ele>776</ele>
        <time>2019-06-12T14:09:48Z</time>
      </trkpt>
      <trkpt lat="44.47601" lon="5.78591">
        <ele>776</ele>
        <time>2019-06-12T14:09:49Z</time>
      </trkpt>
      <trkpt lat="44.47603" lon="5.78584">
        <ele>776</ele>
        <time>2019-06-12T14:09:50Z</time>
      </trkpt>
      <trkpt lat="44.47604" lon="5.78578">
        <ele>776</ele>
        <time>2019-06-12T14:09:51Z</time>
      </trkpt>
      <trkpt lat="44.47606" lon="5.78571">
        <ele>776</ele>
        <time>2019-06-12T14:09:52Z</time>
      </trkpt>
      <trkpt lat="44.47607" lon="5.78564">
        <ele>776</ele>
        <time>2019-06-12T14:09:53Z</time>
      </trkpt>
      <trkpt lat="44.47609" lon="5.78557">
        <ele>776</ele>
        <time>2019-06-12T14:09:54Z</time>
      </trkpt>
      <trkpt lat="44.47609" lon="5.78551">
        <ele>776</ele>
        <time>2019-06-12T14:09:55Z</time>
      </trkpt>
      <trkpt lat="44.4761" lon="5.78544">
        <ele>776</ele>
        <time>2019-06-12T14:09:56Z</time>
      </trkpt>
      <trkpt lat="44.47611" lon="5.78538">
        <ele>776</ele>
        <time>2019-06-12T14:09:57Z</time>
      </trkpt>
      <trkpt lat="44.47612" lon="5.78532">
        <ele>776</ele>
        <time>2019-06-12T14:09:58Z</time>
      </trkpt>
      <trkpt lat="44.47613" lon="5.78525">
        <ele>776</ele>
        <time>2019-06-12T14:09:59Z</time>
      </trkpt>
      <trkpt lat="44.47614" lon="5.78519">
        <ele>776</ele>
        <time>2019-06-12T14:10:00Z</time>
      </trkpt>
      <trkpt lat="44.47615" lon="5.78513">
        <ele>776</ele>
        <time>2019-06-12T14:10:01Z</time>
      </trkpt>
      <trkpt lat="44.47616" lon="5.78507">
        <ele>776</ele>
        <time>2019-06-12T14:10:02Z</time>
      </trkpt>
      <trkpt lat="44.47617" lon="5.785">
        <ele>776</ele>
        <time>2019-06-12T14:10:03Z</time>
      </trkpt>
      <trkpt lat="44.47618" lon="5.78494">
        <ele>776</ele>
        <time>2019-06-12T14:10:04Z</time>
      </trkpt>
      <trkpt lat="44.4762" lon="5.78488">
        <ele>776</ele>
        <time>2019-06-12T14:10:05Z</time>
      </trkpt>
      <trkpt lat="44.47622" lon="5.78482">
        <ele>776</ele>
        <time>2019-06-12T14:10:06Z</time>
      </trkpt>
      <trkpt lat="44.47624" lon="5.78476">
        <ele>776</ele>
        <time>2019-06-12T14:10:07Z</time>
      </trkpt>
      <trkpt lat="44.47626" lon="5.78471">
        <ele>776</ele>
        <time>2019-06-12T14:10:08Z</time>
      </trkpt>
      <trkpt lat="44.47628" lon="5.78466">
        <ele>776</ele>
        <time>2019-06-12T14:10:09Z</time>
      </trkpt>
      <trkpt lat="44.47631" lon="5.78461">
        <ele>776</ele>
        <time>2019-06-12T14:10:10Z</time>
      </trkpt>
      <trkpt lat="44.47634" lon="5.78456">
        <ele>776</ele>
        <time>2019-06-12T14:10:11Z</time>
      </trkpt>
      <trkpt lat="44.47636" lon="5.78451">
        <ele>776</ele>
        <time>2019-06-12T14:10:12Z</time>
      </trkpt>
      <trkpt lat="44.47639" lon="5.78446">
        <ele>776</ele>
        <time>2019-06-12T14:10:13Z</time>
      </trkpt>
      <trkpt lat="44.47641" lon="5.78441">
        <ele>776</ele>
        <time>2019-06-12T14:10:14Z</time>
      </trkpt>
      <trkpt lat="44.47644" lon="5.78436">
        <ele>776</ele>
        <time>2019-06-12T14:10:15Z</time>
      </trkpt>
      <trkpt lat="44.47647" lon="5.78431">
        <ele>776</ele>
        <time>2019-06-12T14:10:16Z</time>
      </trkpt>
      <trkpt lat="44.4765" lon="5.78427">
        <ele>776</ele>
        <time>2019-06-12T14:10:17Z</time>
      </trkpt>
      <trkpt lat="44.47653" lon="5.78423">
        <ele>776</ele>
        <time>2019-06-12T14:10:18Z</time>
      </trkpt>
      <trkpt lat="44.47655" lon="5.78418">
        <ele>776</ele>
        <time>2019-06-12T14:10:19Z</time>
      </trkpt>
      <trkpt lat="44.47658" lon="5.78413">
        <ele>776</ele>
        <time>2019-06-12T14:10:20Z</time>
      </trkpt>
      <trkpt lat="44.4766" lon="5.78409">
        <ele>776</ele>
        <time>2019-06-12T14:10:21Z</time>
      </trkpt>
      <trkpt lat="44.47662" lon="5.78403">
        <ele>776</ele>
        <time>2019-06-12T14:10:22Z</time>
      </trkpt>
      <trkpt lat="44.47664" lon="5.78397">
        <ele>776</ele>
        <time>2019-06-12T14:10:23Z</time>
      </trkpt>
      <trkpt lat="44.47665" lon="5.7839">
        <ele>776</ele>
        <time>2019-06-12T14:10:24Z</time>
      </trkpt>
      <trkpt lat="44.47665" lon="5.78383">
        <ele>776</ele>
        <time>2019-06-12T14:10:25Z</time>
      </trkpt>
      <trkpt lat="44.47665" lon="5.78378">
        <ele>776</ele>
        <time>2019-06-12T14:10:26Z</time>
      </trkpt>
      <trkpt lat="44.47663" lon="5.78374">
        <ele>776</ele>
        <time>2019-06-12T14:10:27Z</time>
      </trkpt>
      <trkpt lat="44.47663" lon="5.7837">
        <ele>776</ele>
        <time>2019-06-12T14:10:28Z</time>
      </trkpt>
      <trkpt lat="44.47662" lon="5.78365">
        <ele>776</ele>
        <time>2019-06-12T14:10:29Z</time>
      </trkpt>
      <trkpt lat="44.4766" lon="5.7836">
        <ele>776</ele>
        <time>2019-06-12T14:10:30Z</time>
      </trkpt>
      <trkpt lat="44.47658" lon="5.78355">
        <ele>776</ele>
        <time>2019-06-12T14:10:31Z</time>
      </trkpt>
      <trkpt lat="44.47655" lon="5.78351">
        <ele>776</ele>
        <time>2019-06-12T14:10:32Z</time>
      </trkpt>
      <trkpt lat="44.47651" lon="5.78347">
        <ele>776</ele>
        <time>2019-06-12T14:10:33Z</time>
      </trkpt>
      <trkpt lat="44.47647" lon="5.78343">
        <ele>776</ele>
        <time>2019-06-12T14:10:34Z</time>
      </trkpt>
      <trkpt lat="44.47643" lon="5.7834">
        <ele>776</ele>
        <time>2019-06-12T14:10:35Z</time>
      </trkpt>
      <trkpt lat="44.47639" lon="5.78336">
        <ele>776</ele>
        <time>2019-06-12T14:10:36Z</time>
      </trkpt>
      <trkpt lat="44.47635" lon="5.78333">
        <ele>776</ele>
        <time>2019-06-12T14:10:37Z</time>
      </trkpt>
      <trkpt lat="44.4763" lon="5.7833">
        <ele>776</ele>
        <time>2019-06-12T14:10:38Z</time>
      </trkpt>
      <trkpt lat="44.47625" lon="5.78327">
        <ele>776</ele>
        <time>2019-06-12T14:10:39Z</time>
      </trkpt>
      <trkpt lat="44.4762" lon="5.78324">
        <ele>775</ele>
        <time>2019-06-12T14:10:40Z</time>
      </trkpt>
      <trkpt lat="44.47615" lon="5.78321">
        <ele>775</ele>
        <time>2019-06-12T14:10:41Z</time>
      </trkpt>
      <trkpt lat="44.4761" lon="5.78319">
        <ele>775</ele>
        <time>2019-06-12T14:10:42Z</time>
      </trkpt>
      <trkpt lat="44.47604" lon="5.78316">
        <ele>775</ele>
        <time>2019-06-12T14:10:43Z</time>
      </trkpt>
      <trkpt lat="44.47599" lon="5.78313">
        <ele>774</ele>
        <time>2019-06-12T14:10:44Z</time>
      </trkpt>
      <trkpt lat="44.47593" lon="5.7831">
        <ele>774</ele>
        <time>2019-06-12T14:10:45Z</time>
      </trkpt>
      <trkpt lat="44.47588" lon="5.78306">
        <ele>774</ele>
        <time>2019-06-12T14:10:46Z</time>
      </trkpt>
      <trkpt lat="44.47582" lon="5.78301">
        <ele>774</ele>
        <time>2019-06-12T14:10:47Z</time>
      </trkpt>
      <trkpt lat="44.47577" lon="5.78297">
        <ele>774</ele>
        <time>2019-06-12T14:10:48Z</time>
      </trkpt>
      <trkpt lat="44.47572" lon="5.78292">
        <ele>774</ele>
        <time>2019-06-12T14:10:49Z</time>
      </trkpt>
      <trkpt lat="44.47567" lon="5.78286">
        <ele>774</ele>
        <time>2019-06-12T14:10:50Z</time>
      </trkpt>
      <trkpt lat="44.47562" lon="5.7828">
        <ele>774</ele>
        <time>2019-06-12T14:10:51Z</time>
      </trkpt>
      <trkpt lat="44.47558" lon="5.78274">
        <ele>774</ele>
        <time>2019-06-12T14:10:52Z</time>
      </trkpt>
      <trkpt lat="44.47554" lon="5.78268">
        <ele>774</ele>
        <time>2019-06-12T14:10:53Z</time>
      </trkpt>
      <trkpt lat="44.4755" lon="5.78262">
        <ele>774</ele>
        <time>2019-06-12T14:10:54Z</time>
      </trkpt>
      <trkpt lat="44.47546" lon="5.78256">
        <ele>774</ele>
        <time>2019-06-12T14:10:55Z</time>
      </trkpt>
      <trkpt lat="44.47543" lon="5.78249">
        <ele>774</ele>
        <time>2019-06-12T14:10:56Z</time>
      </trkpt>
      <trkpt lat="44.47539" lon="5.78242">
        <ele>774</ele>
        <time>2019-06-12T14:10:57Z</time>
      </trkpt>
      <trkpt lat="44.47534" lon="5.78236">
        <ele>774</ele>
        <time>2019-06-12T14:10:58Z</time>
      </trkpt>
      <trkpt lat="44.4753" lon="5.7823">
        <ele>774</ele>
        <time>2019-06-12T14:10:59Z</time>
      </trkpt>
      <trkpt lat="44.47525" lon="5.78224">
        <ele>774</ele>
        <time>2019-06-12T14:11:00Z</time>
      </trkpt>
      <trkpt lat="44.47519" lon="5.78218">
        <ele>774</ele>
        <time>2019-06-12T14:11:01Z</time>
      </trkpt>
      <trkpt lat="44.47513" lon="5.78212">
        <ele>773</ele>
        <time>2019-06-12T14:11:02Z</time>
      </trkpt>
      <trkpt lat="44.47506" lon="5.78207">
        <ele>773</ele>
        <time>2019-06-12T14:11:03Z</time>
      </trkpt>
      <trkpt lat="44.47499" lon="5.78202">
        <ele>773</ele>
        <time>2019-06-12T14:11:04Z</time>
      </trkpt>
      <trkpt lat="44.47492" lon="5.78198">
        <ele>772</ele>
        <time>2019-06-12T14:11:05Z</time>
      </trkpt>
      <trkpt lat="44.47485" lon="5.78194">
        <ele>772</ele>
        <time>2019-06-12T14:11:06Z</time>
      </trkpt>
      <trkpt lat="44.47477" lon="5.78191">
        <ele>772</ele>
        <time>2019-06-12T14:11:07Z</time>
      </trkpt>
      <trkpt lat="44.4747" lon="5.78188">
        <ele>771</ele>
        <time>2019-06-12T14:11:08Z</time>
      </trkpt>
      <trkpt lat="44.47463" lon="5.78186">
        <ele>771</ele>
        <time>2019-06-12T14:11:09Z</time>
      </trkpt>
      <trkpt lat="44.47456" lon="5.78183">
        <ele>771</ele>
        <time>2019-06-12T14:11:10Z</time>
      </trkpt>
      <trkpt lat="44.47448" lon="5.7818">
        <ele>771</ele>
        <time>2019-06-12T14:11:11Z</time>
      </trkpt>
      <trkpt lat="44.47441" lon="5.78176">
        <ele>770</ele>
        <time>2019-06-12T14:11:12Z</time>
      </trkpt>
      <trkpt lat="44.47434" lon="5.78174">
        <ele>770</ele>
        <time>2019-06-12T14:11:13Z</time>
      </trkpt>
      <trkpt lat="44.47427" lon="5.78171">
        <ele>770</ele>
        <time>2019-06-12T14:11:14Z</time>
      </trkpt>
      <trkpt lat="44.4742" lon="5.78168">
        <ele>770</ele>
        <time>2019-06-12T14:11:15Z</time>
      </trkpt>
      <trkpt lat="44.47414" lon="5.78165">
        <ele>770</ele>
        <time>2019-06-12T14:11:16Z</time>
      </trkpt>
      <trkpt lat="44.47408" lon="5.78162">
        <ele>770</ele>
        <time>2019-06-12T14:11:17Z</time>
      </trkpt>
      <trkpt lat="44.47402" lon="5.78158">
        <ele>770</ele>
        <time>2019-06-12T14:11:18Z</time>
      </trkpt>
      <trkpt lat="44.47396" lon="5.78155">
        <ele>770</ele>
        <time>2019-06-12T14:11:19Z</time>
      </trkpt>
      <trkpt lat="44.47391" lon="5.78154">
        <ele>770</ele>
        <time>2019-06-12T14:11:20Z</time>
      </trkpt>
      <trkpt lat="44.47386" lon="5.78152">
        <ele>770</ele>
        <time>2019-06-12T14:11:21Z</time>
      </trkpt>
      <trkpt lat="44.47381" lon="5.78153">
        <ele>770</ele>
        <time>2019-06-12T14:11:22Z</time>
      </trkpt>
      <trkpt lat="44.47376" lon="5.78155">
        <ele>770</ele>
        <time>2019-06-12T14:11:23Z</time>
      </trkpt>
      <trkpt lat="44.47372" lon="5.7816">
        <ele>770</ele>
        <time>2019-06-12T14:11:24Z</time>
      </trkpt>
      <trkpt lat="44.47369" lon="5.78166">
        <ele>770</ele>
        <time>2019-06-12T14:11:25Z</time>
      </trkpt>
      <trkpt lat="44.47366" lon="5.78172">
        <ele>769</ele>
        <time>2019-06-12T14:11:26Z</time>
      </trkpt>
      <trkpt lat="44.47362" lon="5.78179">
        <ele>769</ele>
        <time>2019-06-12T14:11:27Z</time>
      </trkpt>
      <trkpt lat="44.47358" lon="5.78186">
        <ele>769</ele>
        <time>2019-06-12T14:11:28Z</time>
      </trkpt>
      <trkpt lat="44.47354" lon="5.78193">
        <ele>769</ele>
        <time>2019-06-12T14:11:29Z</time>
      </trkpt>
      <trkpt lat="44.4735" lon="5.782">
        <ele>768</ele>
        <time>2019-06-12T14:11:30Z</time>
      </trkpt>
      <trkpt lat="44.47346" lon="5.78207">
        <ele>768</ele>
        <time>2019-06-12T14:11:31Z</time>
      </trkpt>
      <trkpt lat="44.47342" lon="5.78215">
        <ele>768</ele>
        <time>2019-06-12T14:11:32Z</time>
      </trkpt>
      <trkpt lat="44.47338" lon="5.78222">
        <ele>768</ele>
        <time>2019-06-12T14:11:33Z</time>
      </trkpt>
      <trkpt lat="44.47334" lon="5.7823">
        <ele>767</ele>
        <time>2019-06-12T14:11:34Z</time>
      </trkpt>
      <trkpt lat="44.47329" lon="5.78237">
        <ele>767</ele>
        <time>2019-06-12T14:11:35Z</time>
      </trkpt>
      <trkpt lat="44.47325" lon="5.78245">
        <ele>767</ele>
        <time>2019-06-12T14:11:36Z</time>
      </trkpt>
      <trkpt lat="44.47321" lon="5.78253">
        <ele>767</ele>
        <time>2019-06-12T14:11:37Z</time>
      </trkpt>
      <trkpt lat="44.47317" lon="5.78261">
        <ele>767</ele>
        <time>2019-06-12T14:11:38Z</time>
      </trkpt>
      <trkpt lat="44.47313" lon="5.78268">
        <ele>767</ele>
        <time>2019-06-12T14:11:39Z</time>
      </trkpt>
      <trkpt lat="44.47308" lon="5.78276">
        <ele>766</ele>
        <time>2019-06-12T14:11:40Z</time>
      </trkpt>
      <trkpt lat="44.47303" lon="5.78284">
        <ele>766</ele>
        <time>2019-06-12T14:11:41Z</time>
      </trkpt>
      <trkpt lat="44.47299" lon="5.78292">
        <ele>766</ele>
        <time>2019-06-12T14:11:42Z</time>
      </trkpt>
      <trkpt lat="44.47294" lon="5.783">
        <ele>766</ele>
        <time>2019-06-12T14:11:43Z</time>
      </trkpt>
      <trkpt lat="44.4729" lon="5.78308">
        <ele>766</ele>
        <time>2019-06-12T14:11:44Z</time>
      </trkpt>
      <trkpt lat="44.47285" lon="5.78316">
        <ele>766</ele>
        <time>2019-06-12T14:11:45Z</time>
      </trkpt>
      <trkpt lat="44.47281" lon="5.78324">
        <ele>766</ele>
        <time>2019-06-12T14:11:46Z</time>
      </trkpt>
      <trkpt lat="44.47276" lon="5.78332">
        <ele>766</ele>
        <time>2019-06-12T14:11:47Z</time>
      </trkpt>
      <trkpt lat="44.47272" lon="5.78339">
        <ele>765</ele>
        <time>2019-06-12T14:11:48Z</time>
      </trkpt>
      <trkpt lat="44.47267" lon="5.78348">
        <ele>765</ele>
        <time>2019-06-12T14:11:49Z</time>
      </trkpt>
      <trkpt lat="44.47263" lon="5.78356">
        <ele>765</ele>
        <time>2019-06-12T14:11:50Z</time>
      </trkpt>
      <trkpt lat="44.47258" lon="5.78363">
        <ele>765</ele>
        <time>2019-06-12T14:11:51Z</time>
      </trkpt>
      <trkpt lat="44.47254" lon="5.78371">
        <ele>765</ele>
        <time>2019-06-12T14:11:52Z</time>
      </trkpt>
      <trkpt lat="44.4725" lon="5.78379">
        <ele>765</ele>
        <time>2019-06-12T14:11:53Z</time>
      </trkpt>
      <trkpt lat="44.47245" lon="5.78387">
        <ele>765</ele>
        <time>2019-06-12T14:11:54Z</time>
      </trkpt>
      <trkpt lat="44.47241" lon="5.78395">
        <ele>765</ele>
        <time>2019-06-12T14:11:55Z</time>
      </trkpt>
      <trkpt lat="44.47236" lon="5.78402">
        <ele>765</ele>
        <time>2019-06-12T14:11:56Z</time>
      </trkpt>
      <trkpt lat="44.47232" lon="5.7841">
        <ele>765</ele>
        <time>2019-06-12T14:11:57Z</time>
      </trkpt>
      <trkpt lat="44.47227" lon="5.78417">
        <ele>765</ele>
        <time>2019-06-12T14:11:58Z</time>
      </trkpt>
      <trkpt lat="44.47223" lon="5.78425">
        <ele>765</ele>
        <time>2019-06-12T14:11:59Z</time>
      </trkpt>
      <trkpt lat="44.47219" lon="5.78433">
        <ele>765</ele>
        <time>2019-06-12T14:12:00Z</time>
      </trkpt>
      <trkpt lat="44.47215" lon="5.78441">
        <ele>765</ele>
        <time>2019-06-12T14:12:01Z</time>
      </trkpt>
      <trkpt lat="44.4721" lon="5.78448">
        <ele>765</ele>
        <time>2019-06-12T14:12:02Z</time>
      </trkpt>
      <trkpt lat="44.47206" lon="5.78455">
        <ele>765</ele>
        <time>2019-06-12T14:12:03Z</time>
      </trkpt>
      <trkpt lat="44.47202" lon="5.78463">
        <ele>765</ele>
        <time>2019-06-12T14:12:04Z</time>
      </trkpt>
      <trkpt lat="44.47197" lon="5.7847">
        <ele>765</ele>
        <time>2019-06-12T14:12:05Z</time>
      </trkpt>
      <trkpt lat="44.47193" lon="5.78478">
        <ele>765</ele>
        <time>2019-06-12T14:12:06Z</time>
      </trkpt>
      <trkpt lat="44.47189" lon="5.78485">
        <ele>765</ele>
        <time>2019-06-12T14:12:07Z</time>
      </trkpt>
      <trkpt lat="44.47185" lon="5.78492">
        <ele>765</ele>
        <time>2019-06-12T14:12:08Z</time>
      </trkpt>
      <trkpt lat="44.47181" lon="5.785">
        <ele>765</ele>
        <time>2019-06-12T14:12:09Z</time>
      </trkpt>
      <trkpt lat="44.47176" lon="5.78507">
        <ele>765</ele>
        <time>2019-06-12T14:12:10Z</time>
      </trkpt>
      <trkpt lat="44.47172" lon="5.78514">
        <ele>765</ele>
        <time>2019-06-12T14:12:11Z</time>
      </trkpt>
      <trkpt lat="44.47168" lon="5.78521">
        <ele>765</ele>
        <time>2019-06-12T14:12:12Z</time>
      </trkpt>
      <trkpt lat="44.47164" lon="5.78528">
        <ele>765</ele>
        <time>2019-06-12T14:12:13Z</time>
      </trkpt>
      <trkpt lat="44.4716" lon="5.78535">
        <ele>765</ele>
        <time>2019-06-12T14:12:14Z</time>
      </trkpt>
      <trkpt lat="44.47156" lon="5.78542">
        <ele>765</ele>
        <time>2019-06-12T14:12:15Z</time>
      </trkpt>
      <trkpt lat="44.47152" lon="5.78548">
        <ele>765</ele>
        <time>2019-06-12T14:12:16Z</time>
      </trkpt>
      <trkpt lat="44.47149" lon="5.78555">
        <ele>765</ele>
        <time>2019-06-12T14:12:17Z</time>
      </trkpt>
      <trkpt lat="44.47145" lon="5.78561">
        <ele>765</ele>
        <time>2019-06-12T14:12:18Z</time>
      </trkpt>
      <trkpt lat="44.47141" lon="5.78568">
        <ele>765</ele>
        <time>2019-06-12T14:12:19Z</time>
      </trkpt>
      <trkpt lat="44.47137" lon="5.78574">
        <ele>765</ele>
        <time>2019-06-12T14:12:20Z</time>
      </trkpt>
      <trkpt lat="44.47134" lon="5.78581">
        <ele>765</ele>
        <time>2019-06-12T14:12:21Z</time>
      </trkpt>
      <trkpt lat="44.4713" lon="5.78587">
        <ele>765</ele>
        <time>2019-06-12T14:12:22Z</time>
      </trkpt>
      <trkpt lat="44.47126" lon="5.78593">
        <ele>765</ele>
        <time>2019-06-12T14:12:23Z</time>
      </trkpt>
      <trkpt lat="44.47123" lon="5.786">
        <ele>765</ele>
        <time>2019-06-12T14:12:24Z</time>
      </trkpt>
      <trkpt lat="44.4712" lon="5.78606">
        <ele>765</ele>
        <time>2019-06-12T14:12:25Z</time>
      </trkpt>
      <trkpt lat="44.47116" lon="5.78612">
        <ele>765</ele>
        <time>2019-06-12T14:12:26Z</time>
      </trkpt>
      <trkpt lat="44.47112" lon="5.78618">
        <ele>764</ele>
        <time>2019-06-12T14:12:27Z</time>
      </trkpt>
      <trkpt lat="44.47109" lon="5.78624">
        <ele>764</ele>
        <time>2019-06-12T14:12:28Z</time>
      </trkpt>
      <trkpt lat="44.47105" lon="5.78631">
        <ele>764</ele>
        <time>2019-06-12T14:12:29Z</time>
      </trkpt>
      <trkpt lat="44.47102" lon="5.78638">
        <ele>764</ele>
        <time>2019-06-12T14:12:30Z</time>
      </trkpt>
      <trkpt lat="44.47098" lon="5.78644">
        <ele>763</ele>
        <time>2019-06-12T14:12:31Z</time>
      </trkpt>
      <trkpt lat="44.47094" lon="5.78651">
        <ele>763</ele>
        <time>2019-06-12T14:12:32Z</time>
      </trkpt>
      <trkpt lat="44.4709" lon="5.78657">
        <ele>763</ele>
        <time>2019-06-12T14:12:33Z</time>
      </trkpt>
      <trkpt lat="44.47086" lon="5.78664">
        <ele>763</ele>
        <time>2019-06-12T14:12:34Z</time>
      </trkpt>
      <trkpt lat="44.47081" lon="5.78672">
        <ele>763</ele>
        <time>2019-06-12T14:12:35Z</time>
      </trkpt>
      <trkpt lat="44.47077" lon="5.78679">
        <ele>763</ele>
        <time>2019-06-12T14:12:36Z</time>
      </trkpt>
      <trkpt lat="44.47073" lon="5.78686">
        <ele>763</ele>
        <time>2019-06-12T14:12:37Z</time>
      </trkpt>
      <trkpt lat="44.47069" lon="5.78693">
        <ele>762</ele>
        <time>2019-06-12T14:12:38Z</time>
      </trkpt>
      <trkpt lat="44.47065" lon="5.787">
        <ele>762</ele>
        <time>2019-06-12T14:12:39Z</time>
      </trkpt>
      <trkpt lat="44.4706" lon="5.78708">
        <ele>762</ele>
        <time>2019-06-12T14:12:40Z</time>
      </trkpt>
      <trkpt lat="44.47056" lon="5.78715">
        <ele>762</ele>
        <time>2019-06-12T14:12:41Z</time>
      </trkpt>
      <trkpt lat="44.47052" lon="5.78723">
        <ele>762</ele>
        <time>2019-06-12T14:12:42Z</time>
      </trkpt>
      <trkpt lat="44.47048" lon="5.7873">
        <ele>762</ele>
        <time>2019-06-12T14:12:43Z</time>
      </trkpt>
      <trkpt lat="44.47043" lon="5.78737">
        <ele>762</ele>
        <time>2019-06-12T14:12:44Z</time>
      </trkpt>
      <trkpt lat="44.47039" lon="5.78743">
        <ele>762</ele>
        <time>2019-06-12T14:12:45Z</time>
      </trkpt>
      <trkpt lat="44.47033" lon="5.78749">
        <ele>762</ele>
        <time>2019-06-12T14:12:46Z</time>
      </trkpt>
      <trkpt lat="44.47027" lon="5.78753">
        <ele>762</ele>
        <time>2019-06-12T14:12:47Z</time>
      </trkpt>
      <trkpt lat="44.4702" lon="5.78755">
        <ele>762</ele>
        <time>2019-06-12T14:12:48Z</time>
      </trkpt>
      <trkpt lat="44.47014" lon="5.78755">
        <ele>762</ele>
        <time>2019-06-12T14:12:49Z</time>
      </trkpt>
      <trkpt lat="44.47008" lon="5.78754">
        <ele>762</ele>
        <time>2019-06-12T14:12:50Z</time>
      </trkpt>
      <trkpt lat="44.47002" lon="5.78752">
        <ele>762</ele>
        <time>2019-06-12T14:12:51Z</time>
      </trkpt>
      <trkpt lat="44.46996" lon="5.7875">
        <ele>762</ele>
        <time>2019-06-12T14:12:52Z</time>
      </trkpt>
      <trkpt lat="44.46991" lon="5.78747">
        <ele>762</ele>
        <time>2019-06-12T14:12:53Z</time>
      </trkpt>
      <trkpt lat="44.46985" lon="5.78744">
        <ele>762</ele>
        <time>2019-06-12T14:12:54Z</time>
      </trkpt>
      <trkpt lat="44.4698" lon="5.7874">
        <ele>762</ele>
        <time>2019-06-12T14:12:55Z</time>
      </trkpt>
      <trkpt lat="44.46974" lon="5.78736">
        <ele>762</ele>
        <time>2019-06-12T14:12:56Z</time>
      </trkpt>
      <trkpt lat="44.4697" lon="5.78732">
        <ele>762</ele>
        <time>2019-06-12T14:12:57Z</time>
      </trkpt>
      <trkpt lat="44.46965" lon="5.78727">
        <ele>762</ele>
        <time>2019-06-12T14:12:58Z</time>
      </trkpt>
      <trkpt lat="44.4696" lon="5.78721">
        <ele>762</ele>
        <time>2019-06-12T14:12:59Z</time>
      </trkpt>
      <trkpt lat="44.46957" lon="5.78715">
        <ele>762</ele>
        <time>2019-06-12T14:13:00Z</time>
      </trkpt>
      <trkpt lat="44.46953" lon="5.78709">
        <ele>762</ele>
        <time>2019-06-12T14:13:01Z</time>
      </trkpt>
      <trkpt lat="44.4695" lon="5.78703">
        <ele>762</ele>
        <time>2019-06-12T14:13:02Z</time>
      </trkpt>
      <trkpt lat="44.46947" lon="5.78697">
        <ele>762</ele>
        <time>2019-06-12T14:13:03Z</time>
      </trkpt>
      <trkpt lat="44.46943" lon="5.78691">
        <ele>762</ele>
        <time>2019-06-12T14:13:04Z</time>
      </trkpt>
      <trkpt lat="44.4694" lon="5.78686">
        <ele>762</ele>
        <time>2019-06-12T14:13:05Z</time>
      </trkpt>
      <trkpt lat="44.46936" lon="5.78682">
        <ele>762</ele>
        <time>2019-06-12T14:13:06Z</time>
      </trkpt>
      <trkpt lat="44.46931" lon="5.78677">
        <ele>762</ele>
        <time>2019-06-12T14:13:07Z</time>
      </trkpt>
      <trkpt lat="44.46926" lon="5.78673">
        <ele>762</ele>
        <time>2019-06-12T14:13:08Z</time>
      </trkpt>
      <trkpt lat="44.46922" lon="5.7867">
        <ele>762</ele>
        <time>2019-06-12T14:13:09Z</time>
      </trkpt>
      <trkpt lat="44.46916" lon="5.78667">
        <ele>762</ele>
        <time>2019-06-12T14:13:10Z</time>
      </trkpt>
      <trkpt lat="44.46911" lon="5.78664">
        <ele>762</ele>
        <time>2019-06-12T14:13:11Z</time>
      </trkpt>
      <trkpt lat="44.46906" lon="5.78661">
        <ele>762</ele>
        <time>2019-06-12T14:13:12Z</time>
      </trkpt>
      <trkpt lat="44.469" lon="5.78658">
        <ele>762</ele>
        <time>2019-06-12T14:13:13Z</time>
      </trkpt>
      <trkpt lat="44.46894" lon="5.78655">
        <ele>762</ele>
        <time>2019-06-12T14:13:14Z</time>
      </trkpt>
      <trkpt lat="44.46888" lon="5.78651">
        <ele>762</ele>
        <time>2019-06-12T14:13:15Z</time>
      </trkpt>
      <trkpt lat="44.46883" lon="5.78647">
        <ele>762</ele>
        <time>2019-06-12T14:13:16Z</time>
      </trkpt>
      <trkpt lat="44.46877" lon="5.78643">
        <ele>762</ele>
        <time>2019-06-12T14:13:17Z</time>
      </trkpt>
      <trkpt lat="44.46871" lon="5.78639">
        <ele>762</ele>
        <time>2019-06-12T14:13:18Z</time>
      </trkpt>
      <trkpt lat="44.46865" lon="5.78634">
        <ele>762</ele>
        <time>2019-06-12T14:13:19Z</time>
      </trkpt>
      <trkpt lat="44.46859" lon="5.78629">
        <ele>762</ele>
        <time>2019-06-12T14:13:20Z</time>
      </trkpt>
      <trkpt lat="44.46854" lon="5.78624">
        <ele>762</ele>
        <time>2019-06-12T14:13:21Z</time>
      </trkpt>
      <trkpt lat="44.46848" lon="5.78619">
        <ele>762</ele>
        <time>2019-06-12T14:13:22Z</time>
      </trkpt>
      <trkpt lat="44.46842" lon="5.78614">
        <ele>762</ele>
        <time>2019-06-12T14:13:23Z</time>
      </trkpt>
      <trkpt lat="44.46837" lon="5.78609">
        <ele>762</ele>
        <time>2019-06-12T14:13:24Z</time>
      </trkpt>
      <trkpt lat="44.46832" lon="5.78604">
        <ele>762</ele>
        <time>2019-06-12T14:13:25Z</time>
      </trkpt>
      <trkpt lat="44.46826" lon="5.78599">
        <ele>762</ele>
        <time>2019-06-12T14:13:26Z</time>
      </trkpt>
      <trkpt lat="44.46821" lon="5.78594">
        <ele>762</ele>
        <time>2019-06-12T14:13:27Z</time>
      </trkpt>
      <trkpt lat="44.46816" lon="5.7859">
        <ele>762</ele>
        <time>2019-06-12T14:13:28Z</time>
      </trkpt>
      <trkpt lat="44.46811" lon="5.78585">
        <ele>762</ele>
        <time>2019-06-12T14:13:29Z</time>
      </trkpt>
      <trkpt lat="44.46806" lon="5.78581">
        <ele>762</ele>
        <time>2019-06-12T14:13:30Z</time>
      </trkpt>
      <trkpt lat="44.46801" lon="5.78576">
        <ele>762</ele>
        <time>2019-06-12T14:13:31Z</time>
      </trkpt>
      <trkpt lat="44.46796" lon="5.78571">
        <ele>762</ele>
        <time>2019-06-12T14:13:32Z</time>
      </trkpt>
      <trkpt lat="44.4679" lon="5.78566">
        <ele>762</ele>
        <time>2019-06-12T14:13:33Z</time>
      </trkpt>
      <trkpt lat="44.46785" lon="5.78561">
        <ele>762</ele>
        <time>2019-06-12T14:13:34Z</time>
      </trkpt>
      <trkpt lat="44.4678" lon="5.78556">
        <ele>762</ele>
        <time>2019-06-12T14:13:35Z</time>
      </trkpt>
      <trkpt lat="44.46776" lon="5.78552">
        <ele>762</ele>
        <time>2019-06-12T14:13:36Z</time>
      </trkpt>
      <trkpt lat="44.46771" lon="5.78547">
        <ele>762</ele>
        <time>2019-06-12T14:13:37Z</time>
      </trkpt>
      <trkpt lat="44.46766" lon="5.78543">
        <ele>762</ele>
        <time>2019-06-12T14:13:38Z</time>
      </trkpt>
      <trkpt lat="44.46762" lon="5.78539">
        <ele>762</ele>
        <time>2019-06-12T14:13:39Z</time>
      </trkpt>
      <trkpt lat="44.46757" lon="5.78536">
        <ele>762</ele>
        <time>2019-06-12T14:13:40Z</time>
      </trkpt>
      <trkpt lat="44.46753" lon="5.78532">
        <ele>762</ele>
        <time>2019-06-12T14:13:41Z</time>
      </trkpt>
      <trkpt lat="44.46748" lon="5.78528">
        <ele>762</ele>
        <time>2019-06-12T14:13:42Z</time>
      </trkpt>
      <trkpt lat="44.46743" lon="5.78524">
        <ele>762</ele>
        <time>2019-06-12T14:13:43Z</time>
      </trkpt>
      <trkpt lat="44.46739" lon="5.7852">
        <ele>762</ele>
        <time>2019-06-12T14:13:44Z</time>
      </trkpt>
      <trkpt lat="44.46735" lon="5.78516">
        <ele>762</ele>
        <time>2019-06-12T14:13:45Z</time>
      </trkpt>
      <trkpt lat="44.46731" lon="5.78513">
        <ele>762</ele>
        <time>2019-06-12T14:13:46Z</time>
      </trkpt>
      <trkpt lat="44.46727" lon="5.7851">
        <ele>762</ele>
        <time>2019-06-12T14:13:47Z</time>
      </trkpt>
      <trkpt lat="44.46723" lon="5.78506">
        <ele>762</ele>
        <time>2019-06-12T14:13:48Z</time>
      </trkpt>
      <trkpt lat="44.46719" lon="5.78503">
        <ele>762</ele>
        <time>2019-06-12T14:13:49Z</time>
      </trkpt>
      <trkpt lat="44.46715" lon="5.78499">
        <ele>762</ele>
        <time>2019-06-12T14:13:50Z</time>
      </trkpt>
      <trkpt lat="44.46711" lon="5.78496">
        <ele>762</ele>
        <time>2019-06-12T14:13:51Z</time>
      </trkpt>
      <trkpt lat="44.46707" lon="5.78492">
        <ele>762</ele>
        <time>2019-06-12T14:13:52Z</time>
      </trkpt>
      <trkpt lat="44.46703" lon="5.78487">
        <ele>762</ele>
        <time>2019-06-12T14:13:53Z</time>
      </trkpt>
      <trkpt lat="44.46699" lon="5.78483">
        <ele>762</ele>
        <time>2019-06-12T14:13:54Z</time>
      </trkpt>
      <trkpt lat="44.46695" lon="5.78477">
        <ele>762</ele>
        <time>2019-06-12T14:13:55Z</time>
      </trkpt>
      <trkpt lat="44.46691" lon="5.78472">
        <ele>762</ele>
        <time>2019-06-12T14:13:56Z</time>
      </trkpt>
      <trkpt lat="44.46688" lon="5.78466">
        <ele>762</ele>
        <time>2019-06-12T14:13:57Z</time>
      </trkpt>
      <trkpt lat="44.46685" lon="5.7846">
        <ele>762</ele>
        <time>2019-06-12T14:13:58Z</time>
      </trkpt>
      <trkpt lat="44.46682" lon="5.78453">
        <ele>762</ele>
        <time>2019-06-12T14:13:59Z</time>
      </trkpt>
      <trkpt lat="44.46679" lon="5.78446">
        <ele>762</ele>
        <time>2019-06-12T14:14:00Z</time>
      </trkpt>
      <trkpt lat="44.46677" lon="5.78439">
        <ele>762</ele>
        <time>2019-06-12T14:14:01Z</time>
      </trkpt>
      <trkpt lat="44.46674" lon="5.78432">
        <ele>762</ele>
        <time>2019-06-12T14:14:02Z</time>
      </trkpt>
      <trkpt lat="44.46671" lon="5.78425">
        <ele>762</ele>
        <time>2019-06-12T14:14:03Z</time>
      </trkpt>
      <trkpt lat="44.46669" lon="5.78419">
        <ele>762</ele>
        <time>2019-06-12T14:14:04Z</time>
      </trkpt>
      <trkpt lat="44.46666" lon="5.78412">
        <ele>762</ele>
        <time>2019-06-12T14:14:05Z</time>
      </trkpt>
      <trkpt lat="44.46662" lon="5.78407">
        <ele>762</ele>
        <time>2019-06-12T14:14:06Z</time>
      </trkpt>
      <trkpt lat="44.46658" lon="5.78402">
        <ele>762</ele>
        <time>2019-06-12T14:14:07Z</time>
      </trkpt>
      <trkpt lat="44.46654" lon="5.78397">
        <ele>762</ele>
        <time>2019-06-12T14:14:08Z</time>
      </trkpt>
      <trkpt lat="44.4665" lon="5.78392">
        <ele>762</ele>
        <time>2019-06-12T14:14:09Z</time>
      </trkpt>
      <trkpt lat="44.46645" lon="5.78389">
        <ele>762</ele>
        <time>2019-06-12T14:14:10Z</time>
      </trkpt>
      <trkpt lat="44.4664" lon="5.78385">
        <ele>762</ele>
        <time>2019-06-12T14:14:11Z</time>
      </trkpt>
      <trkpt lat="44.46635" lon="5.78382">
        <ele>762</ele>
        <time>2019-06-12T14:14:12Z</time>
      </trkpt>
      <trkpt lat="44.4663" lon="5.78378">
        <ele>762</ele>
        <time>2019-06-12T14:14:13Z</time>
      </trkpt>
      <trkpt lat="44.46625" lon="5.78375">
        <ele>762</ele>
        <time>2019-06-12T14:14:14Z</time>
      </trkpt>
      <trkpt lat="44.4662" lon="5.78372">
        <ele>762</ele>
        <time>2019-06-12T14:14:15Z</time>
      </trkpt>
      <trkpt lat="44.46615" lon="5.78369">
        <ele>762</ele>
        <time>2019-06-12T14:14:16Z</time>
      </trkpt>
      <trkpt lat="44.46611" lon="5.78365">
        <ele>762</ele>
        <time>2019-06-12T14:14:17Z</time>
      </trkpt>
      <trkpt lat="44.46606" lon="5.78362">
        <ele>762</ele>
        <time>2019-06-12T14:14:18Z</time>
      </trkpt>
      <trkpt lat="44.46601" lon="5.78359">
        <ele>762</ele>
        <time>2019-06-12T14:14:19Z</time>
      </trkpt>
      <trkpt lat="44.46596" lon="5.78356">
        <ele>762</ele>
        <time>2019-06-12T14:14:20Z</time>
      </trkpt>
      <trkpt lat="44.46592" lon="5.78352">
        <ele>762</ele>
        <time>2019-06-12T14:14:21Z</time>
      </trkpt>
      <trkpt lat="44.46587" lon="5.78349">
        <ele>762</ele>
        <time>2019-06-12T14:14:22Z</time>
      </trkpt>
      <trkpt lat="44.46582" lon="5.78346">
        <ele>762</ele>
        <time>2019-06-12T14:14:23Z</time>
      </trkpt>
      <trkpt lat="44.46578" lon="5.78343">
        <ele>762</ele>
        <time>2019-06-12T14:14:24Z</time>
      </trkpt>
      <trkpt lat="44.46574" lon="5.78339">
        <ele>762</ele>
        <time>2019-06-12T14:14:25Z</time>
      </trkpt>
      <trkpt lat="44.46569" lon="5.78336">
        <ele>762</ele>
        <time>2019-06-12T14:14:26Z</time>
      </trkpt>
      <trkpt lat="44.46564" lon="5.78333">
        <ele>762</ele>
        <time>2019-06-12T14:14:27Z</time>
      </trkpt>
      <trkpt lat="44.4656" lon="5.78331">
        <ele>763</ele>
        <time>2019-06-12T14:14:28Z</time>
      </trkpt>
      <trkpt lat="44.46555" lon="5.78329">
        <ele>763</ele>
        <time>2019-06-12T14:14:29Z</time>
      </trkpt>
      <trkpt lat="44.4655" lon="5.78327">
        <ele>763</ele>
        <time>2019-06-12T14:14:30Z</time>
      </trkpt>
      <trkpt lat="44.46545" lon="5.78325">
        <ele>763</ele>
        <time>2019-06-12T14:14:31Z</time>
      </trkpt>
      <trkpt lat="44.4654" lon="5.78323">
        <ele>764</ele>
        <time>2019-06-12T14:14:32Z</time>
      </trkpt>
      <trkpt lat="44.46534" lon="5.78321">
        <ele>764</ele>
        <time>2019-06-12T14:14:33Z</time>
      </trkpt>
      <trkpt lat="44.46529" lon="5.78319">
        <ele>764</ele>
        <time>2019-06-12T14:14:34Z</time>
      </trkpt>
      <trkpt lat="44.46524" lon="5.78318">
        <ele>764</ele>
        <time>2019-06-12T14:14:35Z</time>
      </trkpt>
      <trkpt lat="44.46519" lon="5.78316">
        <ele>764</ele>
        <time>2019-06-12T14:14:36Z</time>
      </trkpt>
      <trkpt lat="44.46513" lon="5.78315">
        <ele>764</ele>
        <time>2019-06-12T14:14:37Z</time>
      </trkpt>
      <trkpt lat="44.46508" lon="5.78313">
        <ele>765</ele>
        <time>2019-06-12T14:14:38Z</time>
      </trkpt>
      <trkpt lat="44.46503" lon="5.78311">
        <ele>765</ele>
        <time>2019-06-12T14:14:39Z</time>
      </trkpt>
      <trkpt lat="44.46498" lon="5.7831">
        <ele>765</ele>
        <time>2019-06-12T14:14:40Z</time>
      </trkpt>
      <trkpt lat="44.46492" lon="5.78308">
        <ele>765</ele>
        <time>2019-06-12T14:14:41Z</time>
      </trkpt>
      <trkpt lat="44.46487" lon="5.78306">
        <ele>765</ele>
        <time>2019-06-12T14:14:42Z</time>
      </trkpt>
      <trkpt lat="44.46483" lon="5.78304">
        <ele>765</ele>
        <time>2019-06-12T14:14:43Z</time>
      </trkpt>
      <trkpt lat="44.46478" lon="5.78302">
        <ele>765</ele>
        <time>2019-06-12T14:14:44Z</time>
      </trkpt>
      <trkpt lat="44.46473" lon="5.78301">
        <ele>765</ele>
        <time>2019-06-12T14:14:45Z</time>
      </trkpt>
      <trkpt lat="44.46467" lon="5.783">
        <ele>766</ele>
        <time>2019-06-12T14:14:46Z</time>
      </trkpt>
      <trkpt lat="44.46462" lon="5.783">
        <ele>766</ele>
        <time>2019-06-12T14:14:47Z</time>
      </trkpt>
      <trkpt lat="44.46457" lon="5.783">
        <ele>766</ele>
        <time>2019-06-12T14:14:48Z</time>
      </trkpt>
      <trkpt lat="44.46452" lon="5.78301">
        <ele>766</ele>
        <time>2019-06-12T14:14:49Z</time>
      </trkpt>
      <trkpt lat="44.46447" lon="5.78302">
        <ele>766</ele>
        <time>2019-06-12T14:14:50Z</time>
      </trkpt>
      <trkpt lat="44.46442" lon="5.78304">
        <ele>766</ele>
        <time>2019-06-12T14:14:51Z</time>
      </trkpt>
      <trkpt lat="44.46436" lon="5.78306">
        <ele>767</ele>
        <time>2019-06-12T14:14:52Z</time>
      </trkpt>
      <trkpt lat="44.46431" lon="5.78309">
        <ele>767</ele>
        <time>2019-06-12T14:14:53Z</time>
      </trkpt>
      <trkpt lat="44.46426" lon="5.78312">
        <ele>767</ele>
        <time>2019-06-12T14:14:54Z</time>
      </trkpt>
      <trkpt lat="44.46421" lon="5.78315">
        <ele>767</ele>
        <time>2019-06-12T14:14:55Z</time>
      </trkpt>
      <trkpt lat="44.46416" lon="5.78318">
        <ele>768</ele>
        <time>2019-06-12T14:14:56Z</time>
      </trkpt>
      <trkpt lat="44.46411" lon="5.78321">
        <ele>768</ele>
        <time>2019-06-12T14:14:57Z</time>
      </trkpt>
      <trkpt lat="44.46406" lon="5.78323">
        <ele>768</ele>
        <time>2019-06-12T14:14:58Z</time>
      </trkpt>
      <trkpt lat="44.46401" lon="5.78325">
        <ele>768</ele>
        <time>2019-06-12T14:14:59Z</time>
      </trkpt>
      <trkpt lat="44.46395" lon="5.78326">
        <ele>768</ele>
        <time>2019-06-12T14:15:00Z</time>
      </trkpt>
      <trkpt lat="44.46389" lon="5.78326">
        <ele>768</ele>
        <time>2019-06-12T14:15:01Z</time>
      </trkpt>
      <trkpt lat="44.46384" lon="5.78325">
        <ele>769</ele>
        <time>2019-06-12T14:15:02Z</time>
      </trkpt>
      <trkpt lat="44.46378" lon="5.78324">
        <ele>769</ele>
        <time>2019-06-12T14:15:03Z</time>
      </trkpt>
      <trkpt lat="44.46373" lon="5.78322">
        <ele>769</ele>
        <time>2019-06-12T14:15:04Z</time>
      </trkpt>
      <trkpt lat="44.46367" lon="5.78321">
        <ele>769</ele>
        <time>2019-06-12T14:15:05Z</time>
      </trkpt>
      <trkpt lat="44.46362" lon="5.7832">
        <ele>769</ele>
        <time>2019-06-12T14:15:06Z</time>
      </trkpt>
      <trkpt lat="44.46356" lon="5.78319">
        <ele>769</ele>
        <time>2019-06-12T14:15:07Z</time>
      </trkpt>
      <trkpt lat="44.4635" lon="5.78319">
        <ele>769</ele>
        <time>2019-06-12T14:15:08Z</time>
      </trkpt>
      <trkpt lat="44.46345" lon="5.78318">
        <ele>769</ele>
        <time>2019-06-12T14:15:09Z</time>
      </trkpt>
      <trkpt lat="44.46339" lon="5.78317">
        <ele>769</ele>
        <time>2019-06-12T14:15:10Z</time>
      </trkpt>
      <trkpt lat="44.46334" lon="5.78317">
        <ele>769</ele>
        <time>2019-06-12T14:15:11Z</time>
      </trkpt>
      <trkpt lat="44.46328" lon="5.78318">
        <ele>769</ele>
        <time>2019-06-12T14:15:12Z</time>
      </trkpt>
      <trkpt lat="44.46322" lon="5.78318">
        <ele>769</ele>
        <time>2019-06-12T14:15:13Z</time>
      </trkpt>
      <trkpt lat="44.46316" lon="5.78319">
        <ele>769</ele>
        <time>2019-06-12T14:15:14Z</time>
      </trkpt>
      <trkpt lat="44.4631" lon="5.78318">
        <ele>769</ele>
        <time>2019-06-12T14:15:15Z</time>
      </trkpt>
      <trkpt lat="44.46304" lon="5.78317">
        <ele>769</ele>
        <time>2019-06-12T14:15:16Z</time>
      </trkpt>
      <trkpt lat="44.46298" lon="5.78316">
        <ele>769</ele>
        <time>2019-06-12T14:15:17Z</time>
      </trkpt>
      <trkpt lat="44.46292" lon="5.78314">
        <ele>769</ele>
        <time>2019-06-12T14:15:18Z</time>
      </trkpt>
      <trkpt lat="44.46287" lon="5.78311">
        <ele>769</ele>
        <time>2019-06-12T14:15:19Z</time>
      </trkpt>
      <trkpt lat="44.46281" lon="5.78307">
        <ele>769</ele>
        <time>2019-06-12T14:15:20Z</time>
      </trkpt>
      <trkpt lat="44.46276" lon="5.78303">
        <ele>769</ele>
        <time>2019-06-12T14:15:21Z</time>
      </trkpt>
      <trkpt lat="44.46271" lon="5.783">
        <ele>769</ele>
        <time>2019-06-12T14:15:22Z</time>
      </trkpt>
      <trkpt lat="44.46266" lon="5.78296">
        <ele>770</ele>
        <time>2019-06-12T14:15:23Z</time>
      </trkpt>
      <trkpt lat="44.46262" lon="5.78293">
        <ele>770</ele>
        <time>2019-06-12T14:15:24Z</time>
      </trkpt>
      <trkpt lat="44.46257" lon="5.78289">
        <ele>770</ele>
        <time>2019-06-12T14:15:25Z</time>
      </trkpt>
      <trkpt lat="44.46252" lon="5.78286">
        <ele>770</ele>
        <time>2019-06-12T14:15:26Z</time>
      </trkpt>
      <trkpt lat="44.46247" lon="5.78282">
        <ele>770</ele>
        <time>2019-06-12T14:15:27Z</time>
      </trkpt>
      <trkpt lat="44.46242" lon="5.78279">
        <ele>770</ele>
        <time>2019-06-12T14:15:28Z</time>
      </trkpt>
      <trkpt lat="44.46238" lon="5.78275">
        <ele>770</ele>
        <time>2019-06-12T14:15:29Z</time>
      </trkpt>
      <trkpt lat="44.46233" lon="5.78272">
        <ele>770</ele>
        <time>2019-06-12T14:15:30Z</time>
      </trkpt>
      <trkpt lat="44.46228" lon="5.78268">
        <ele>770</ele>
        <time>2019-06-12T14:15:31Z</time>
      </trkpt>
      <trkpt lat="44.46224" lon="5.78265">
        <ele>770</ele>
        <time>2019-06-12T14:15:32Z</time>
      </trkpt>
      <trkpt lat="44.4622" lon="5.78262">
        <ele>770</ele>
        <time>2019-06-12T14:15:33Z</time>
      </trkpt>
      <trkpt lat="44.46215" lon="5.78259">
        <ele>771</ele>
        <time>2019-06-12T14:15:34Z</time>
      </trkpt>
      <trkpt lat="44.4621" lon="5.78257">
        <ele>771</ele>
        <time>2019-06-12T14:15:35Z</time>
      </trkpt>
      <trkpt lat="44.46206" lon="5.78254">
        <ele>771</ele>
        <time>2019-06-12T14:15:36Z</time>
      </trkpt>
      <trkpt lat="44.46201" lon="5.78252">
        <ele>771</ele>
        <time>2019-06-12T14:15:37Z</time>
      </trkpt>
      <trkpt lat="44.46196" lon="5.7825">
        <ele>771</ele>
        <time>2019-06-12T14:15:38Z</time>
      </trkpt>
      <trkpt lat="44.46192" lon="5.78249">
        <ele>771</ele>
        <time>2019-06-12T14:15:39Z</time>
      </trkpt>
      <trkpt lat="44.46187" lon="5.78249">
        <ele>772</ele>
        <time>2019-06-12T14:15:40Z</time>
      </trkpt>
      <trkpt lat="44.46183" lon="5.78249">
        <ele>772</ele>
        <time>2019-06-12T14:15:41Z</time>
      </trkpt>
      <trkpt lat="44.46178" lon="5.78249">
        <ele>772</ele>
        <time>2019-06-12T14:15:42Z</time>
      </trkpt>
      <trkpt lat="44.46173" lon="5.78248">
        <ele>772</ele>
        <time>2019-06-12T14:15:43Z</time>
      </trkpt>
      <trkpt lat="44.46168" lon="5.78248">
        <ele>772</ele>
        <time>2019-06-12T14:15:44Z</time>
      </trkpt>
      <trkpt lat="44.46164" lon="5.78249">
        <ele>772</ele>
        <time>2019-06-12T14:15:45Z</time>
      </trkpt>
      <trkpt lat="44.46159" lon="5.78249">
        <ele>772</ele>
        <time>2019-06-12T14:15:46Z</time>
      </trkpt>
      <trkpt lat="44.46154" lon="5.78249">
        <ele>772</ele>
        <time>2019-06-12T14:15:47Z</time>
      </trkpt>
      <trkpt lat="44.4615" lon="5.7825">
        <ele>773</ele>
        <time>2019-06-12T14:15:48Z</time>
      </trkpt>
      <trkpt lat="44.46145" lon="5.7825">
        <ele>773</ele>
        <time>2019-06-12T14:15:49Z</time>
      </trkpt>
      <trkpt lat="44.46141" lon="5.78251">
        <ele>773</ele>
        <time>2019-06-12T14:15:50Z</time>
      </trkpt>
      <trkpt lat="44.46136" lon="5.78251">
        <ele>773</ele>
        <time>2019-06-12T14:15:51Z</time>
      </trkpt>
      <trkpt lat="44.46132" lon="5.78252">
        <ele>773</ele>
        <time>2019-06-12T14:15:52Z</time>
      </trkpt>
      <trkpt lat="44.46127" lon="5.78253">
        <ele>774</ele>
        <time>2019-06-12T14:15:53Z</time>
      </trkpt>
      <trkpt lat="44.46122" lon="5.78253">
        <ele>774</ele>
        <time>2019-06-12T14:15:54Z</time>
      </trkpt>
      <trkpt lat="44.46118" lon="5.78254">
        <ele>774</ele>
        <time>2019-06-12T14:15:55Z</time>
      </trkpt>
      <trkpt lat="44.46113" lon="5.78254">
        <ele>774</ele>
        <time>2019-06-12T14:15:56Z</time>
      </trkpt>
      <trkpt lat="44.46109" lon="5.78255">
        <ele>774</ele>
        <time>2019-06-12T14:15:57Z</time>
      </trkpt>
      <trkpt lat="44.46104" lon="5.78257">
        <ele>775</ele>
        <time>2019-06-12T14:15:58Z</time>
      </trkpt>
      <trkpt lat="44.461" lon="5.78259">
        <ele>775</ele>
        <time>2019-06-12T14:15:59Z</time>
      </trkpt>
      <trkpt lat="44.46096" lon="5.78261">
        <ele>775</ele>
        <time>2019-06-12T14:16:00Z</time>
      </trkpt>
      <trkpt lat="44.46092" lon="5.78264">
        <ele>775</ele>
        <time>2019-06-12T14:16:01Z</time>
      </trkpt>
      <trkpt lat="44.46088" lon="5.78267">
        <ele>776</ele>
        <time>2019-06-12T14:16:02Z</time>
      </trkpt>
      <trkpt lat="44.46084" lon="5.78271">
        <ele>776</ele>
        <time>2019-06-12T14:16:03Z</time>
      </trkpt>
      <trkpt lat="44.4608" lon="5.78275">
        <ele>776</ele>
        <time>2019-06-12T14:16:04Z</time>
      </trkpt>
      <trkpt lat="44.46077" lon="5.7828">
        <ele>776</ele>
        <time>2019-06-12T14:16:05Z</time>
      </trkpt>
      <trkpt lat="44.46074" lon="5.78285">
        <ele>776</ele>
        <time>2019-06-12T14:16:06Z</time>
      </trkpt>
      <trkpt lat="44.4607" lon="5.7829">
        <ele>776</ele>
        <time>2019-06-12T14:16:07Z</time>
      </trkpt>
      <trkpt lat="44.46067" lon="5.78296">
        <ele>776</ele>
        <time>2019-06-12T14:16:08Z</time>
      </trkpt>
      <trkpt lat="44.46063" lon="5.78301">
        <ele>776</ele>
        <time>2019-06-12T14:16:09Z</time>
      </trkpt>
      <trkpt lat="44.46059" lon="5.78306">
        <ele>776</ele>
        <time>2019-06-12T14:16:10Z</time>
      </trkpt>
      <trkpt lat="44.46055" lon="5.78311">
        <ele>776</ele>
        <time>2019-06-12T14:16:11Z</time>
      </trkpt>
      <trkpt lat="44.4605" lon="5.78316">
        <ele>776</ele>
        <time>2019-06-12T14:16:12Z</time>
      </trkpt>
      <trkpt lat="44.46046" lon="5.7832">
        <ele>776</ele>
        <time>2019-06-12T14:16:13Z</time>
      </trkpt>
      <trkpt lat="44.4604" lon="5.78324">
        <ele>776</ele>
        <time>2019-06-12T14:16:14Z</time>
      </trkpt>
      <trkpt lat="44.46035" lon="5.78327">
        <ele>776</ele>
        <time>2019-06-12T14:16:15Z</time>
      </trkpt>
      <trkpt lat="44.46029" lon="5.78328">
        <ele>776</ele>
        <time>2019-06-12T14:16:16Z</time>
      </trkpt>
      <trkpt lat="44.46023" lon="5.78329">
        <ele>776</ele>
        <time>2019-06-12T14:16:17Z</time>
      </trkpt>
      <trkpt lat="44.46017" lon="5.78329">
        <ele>776</ele>
        <time>2019-06-12T14:16:18Z</time>
      </trkpt>
      <trkpt lat="44.46012" lon="5.7833">
        <ele>776</ele>
        <time>2019-06-12T14:16:19Z</time>
      </trkpt>
      <trkpt lat="44.46006" lon="5.7833">
        <ele>776</ele>
        <time>2019-06-12T14:16:20Z</time>
      </trkpt>
      <trkpt lat="44.46" lon="5.7833">
        <ele>776</ele>
        <time>2019-06-12T14:16:21Z</time>
      </trkpt>
      <trkpt lat="44.45995" lon="5.78329">
        <ele>776</ele>
        <time>2019-06-12T14:16:22Z</time>
      </trkpt>
      <trkpt lat="44.45989" lon="5.78329">
        <ele>776</ele>
        <time>2019-06-12T14:16:23Z</time>
      </trkpt>
      <trkpt lat="44.45983" lon="5.78329">
        <ele>776</ele>
        <time>2019-06-12T14:16:24Z</time>
      </trkpt>
      <trkpt lat="44.45978" lon="5.78328">
        <ele>776</ele>
        <time>2019-06-12T14:16:25Z</time>
      </trkpt>
      <trkpt lat="44.45972" lon="5.78328">
        <ele>776</ele>
        <time>2019-06-12T14:16:26Z</time>
      </trkpt>
      <trkpt lat="44.45967" lon="5.78327">
        <ele>776</ele>
        <time>2019-06-12T14:16:27Z</time>
      </trkpt>
      <trkpt lat="44.45962" lon="5.78326">
        <ele>776</ele>
        <time>2019-06-12T14:16:28Z</time>
      </trkpt>
      <trkpt lat="44.45957" lon="5.78323">
        <ele>776</ele>
        <time>2019-06-12T14:16:29Z</time>
      </trkpt>
      <trkpt lat="44.45953" lon="5.7832">
        <ele>776</ele>
        <time>2019-06-12T14:16:30Z</time>
      </trkpt>
      <trkpt lat="44.4595" lon="5.78315">
        <ele>776</ele>
        <time>2019-06-12T14:16:31Z</time>
      </trkpt>
      <trkpt lat="44.45946" lon="5.7831">
        <ele>776</ele>
        <time>2019-06-12T14:16:32Z</time>
      </trkpt>
      <trkpt lat="44.45943" lon="5.78306">
        <ele>776</ele>
        <time>2019-06-12T14:16:33Z</time>
      </trkpt>
      <trkpt lat="44.4594" lon="5.78301">
        <ele>776</ele>
        <time>2019-06-12T14:16:34Z</time>
      </trkpt>
      <trkpt lat="44.45938" lon="5.78296">
        <ele>777</ele>
        <time>2019-06-12T14:16:35Z</time>
      </trkpt>
      <trkpt lat="44.45935" lon="5.78292">
        <ele>777</ele>
        <time>2019-06-12T14:16:36Z</time>
      </trkpt>
      <trkpt lat="44.45932" lon="5.78289">
        <ele>777</ele>
        <time>2019-06-12T14:16:37Z</time>
      </trkpt>
      <trkpt lat="44.45929" lon="5.78287">
        <ele>777</ele>
        <time>2019-06-12T14:16:38Z</time>
      </trkpt>
      <trkpt lat="44.45927" lon="5.78284">
        <ele>778</ele>
        <time>2019-06-12T14:16:39Z</time>
      </trkpt>
      <trkpt lat="44.45923" lon="5.78282">
        <ele>778</ele>
        <time>2019-06-12T14:16:40Z</time>
      </trkpt>
      <trkpt lat="44.4592" lon="5.7828">
        <ele>778</ele>
        <time>2019-06-12T14:16:41Z</time>
      </trkpt>
      <trkpt lat="44.45916" lon="5.78279">
        <ele>778</ele>
        <time>2019-06-12T14:16:42Z</time>
      </trkpt>
      <trkpt lat="44.45913" lon="5.78279">
        <ele>778</ele>
        <time>2019-06-12T14:16:43Z</time>
      </trkpt>
      <trkpt lat="44.45909" lon="5.78279">
        <ele>778</ele>
        <time>2019-06-12T14:16:44Z</time>
      </trkpt>
      <trkpt lat="44.45906" lon="5.78278">
        <ele>778</ele>
        <time>2019-06-12T14:16:45Z</time>
      </trkpt>
      <trkpt lat="44.45902" lon="5.78278">
        <ele>778</ele>
        <time>2019-06-12T14:16:46Z</time>
      </trkpt>
      <trkpt lat="44.45898" lon="5.78277">
        <ele>778</ele>
        <time>2019-06-12T14:16:47Z</time>
      </trkpt>
      <trkpt lat="44.45895" lon="5.78277">
        <ele>778</ele>
        <time>2019-06-12T14:16:48Z</time>
      </trkpt>
      <trkpt lat="44.4589" lon="5.78277">
        <ele>779</ele>
        <time>2019-06-12T14:16:49Z</time>
      </trkpt>
      <trkpt lat="44.45887" lon="5.78278">
        <ele>779</ele>
        <time>2019-06-12T14:16:50Z</time>
      </trkpt>
      <trkpt lat="44.45883" lon="5.78278">
        <ele>779</ele>
        <time>2019-06-12T14:16:51Z</time>
      </trkpt>
      <trkpt lat="44.45879" lon="5.78279">
        <ele>779</ele>
        <time>2019-06-12T14:16:52Z</time>
      </trkpt>
      <trkpt lat="44.45875" lon="5.7828">
        <ele>779</ele>
        <time>2019-06-12T14:16:53Z</time>
      </trkpt>
      <trkpt lat="44.45871" lon="5.78281">
        <ele>779</ele>
        <time>2019-06-12T14:16:54Z</time>
      </trkpt>
      <trkpt lat="44.45868" lon="5.78282">
        <ele>779</ele>
        <time>2019-06-12T14:16:55Z</time>
      </trkpt>
      <trkpt lat="44.45864" lon="5.78284">
        <ele>779</ele>
        <time>2019-06-12T14:16:56Z</time>
      </trkpt>
      <trkpt lat="44.4586" lon="5.78287">
        <ele>780</ele>
        <time>2019-06-12T14:16:57Z</time>
      </trkpt>
      <trkpt lat="44.45857" lon="5.78289">
        <ele>780</ele>
        <time>2019-06-12T14:16:58Z</time>
      </trkpt>
      <trkpt lat="44.45853" lon="5.78291">
        <ele>780</ele>
        <time>2019-06-12T14:16:59Z</time>
      </trkpt>
      <trkpt lat="44.4585" lon="5.78293">
        <ele>780</ele>
        <time>2019-06-12T14:17:00Z</time>
      </trkpt>
      <trkpt lat="44.45847" lon="5.78296">
        <ele>780</ele>
        <time>2019-06-12T14:17:01Z</time>
      </trkpt>
      <trkpt lat="44.45844" lon="5.78299">
        <ele>781</ele>
        <time>2019-06-12T14:17:02Z</time>
      </trkpt>
      <trkpt lat="44.45841" lon="5.78301">
        <ele>781</ele>
        <time>2019-06-12T14:17:03Z</time>
      </trkpt>
      <trkpt lat="44.45838" lon="5.78304">
        <ele>781</ele>
        <time>2019-06-12T14:17:04Z</time>
      </trkpt>
      <trkpt lat="44.45835" lon="5.78308">
        <ele>782</ele>
        <time>2019-06-12T14:17:05Z</time>
      </trkpt>
      <trkpt lat="44.45832" lon="5.78311">
        <ele>782</ele>
        <time>2019-06-12T14:17:06Z</time>
      </trkpt>
      <trkpt lat="44.45829" lon="5.78315">
        <ele>782</ele>
        <time>2019-06-12T14:17:07Z</time>
      </trkpt>
      <trkpt lat="44.45826" lon="5.78319">
        <ele>782</ele>
        <time>2019-06-12T14:17:08Z</time>
      </trkpt>
      <trkpt lat="44.45823" lon="5.78323">
        <ele>782</ele>
        <time>2019-06-12T14:17:09Z</time>
      </trkpt>
      <trkpt lat="44.45821" lon="5.78326">
        <ele>782</ele>
        <time>2019-06-12T14:17:10Z</time>
      </trkpt>
      <trkpt lat="44.45818" lon="5.7833">
        <ele>782</ele>
        <time>2019-06-12T14:17:11Z</time>
      </trkpt>
      <trkpt lat="44.45815" lon="5.78333">
        <ele>782</ele>
        <time>2019-06-12T14:17:12Z</time>
      </trkpt>
      <trkpt lat="44.45813" lon="5.78336">
        <ele>782</ele>
        <time>2019-06-12T14:17:13Z</time>
      </trkpt>
      <trkpt lat="44.4581" lon="5.78339">
        <ele>782</ele>
        <time>2019-06-12T14:17:14Z</time>
      </trkpt>
      <trkpt lat="44.45808" lon="5.78342">
        <ele>782</ele>
        <time>2019-06-12T14:17:15Z</time>
      </trkpt>
      <trkpt lat="44.45805" lon="5.78345">
        <ele>782</ele>
        <time>2019-06-12T14:17:16Z</time>
      </trkpt>
      <trkpt lat="44.45802" lon="5.78348">
        <ele>782</ele>
        <time>2019-06-12T14:17:17Z</time>
      </trkpt>
      <trkpt lat="44.458" lon="5.78351">
        <ele>782</ele>
        <time>2019-06-12T14:17:18Z</time>
      </trkpt>
      <trkpt lat="44.45797" lon="5.78354">
        <ele>782</ele>
        <time>2019-06-12T14:17:19Z</time>
      </trkpt>
      <trkpt lat="44.45795" lon="5.78357">
        <ele>782</ele>
        <time>2019-06-12T14:17:20Z</time>
      </trkpt>
      <trkpt lat="44.45792" lon="5.78361">
        <ele>782</ele>
        <time>2019-06-12T14:17:21Z</time>
      </trkpt>
      <trkpt lat="44.45789" lon="5.78364">
        <ele>782</ele>
        <time>2019-06-12T14:17:22Z</time>
      </trkpt>
      <trkpt lat="44.45787" lon="5.78368">
        <ele>782</ele>
        <time>2019-06-12T14:17:23Z</time>
      </trkpt>
      <trkpt lat="44.45784" lon="5.78371">
        <ele>782</ele>
        <time>2019-06-12T14:17:24Z</time>
      </trkpt>
      <trkpt lat="44.45781" lon="5.78374">
        <ele>782</ele>
        <time>2019-06-12T14:17:25Z</time>
      </trkpt>
      <trkpt lat="44.45779" lon="5.78377">
        <ele>782</ele>
        <time>2019-06-12T14:17:26Z</time>
      </trkpt>
      <trkpt lat="44.45776" lon="5.78381">
        <ele>782</ele>
        <time>2019-06-12T14:17:27Z</time>
      </trkpt>
      <trkpt lat="44.45773" lon="5.78384">
        <ele>782</ele>
        <time>2019-06-12T14:17:28Z</time>
      </trkpt>
      <trkpt lat="44.45771" lon="5.78388">
        <ele>782</ele>
        <time>2019-06-12T14:17:29Z</time>
      </trkpt>
      <trkpt lat="44.45768" lon="5.78392">
        <ele>782</ele>
        <time>2019-06-12T14:17:30Z</time>
      </trkpt>
      <trkpt lat="44.45765" lon="5.78395">
        <ele>782</ele>
        <time>2019-06-12T14:17:31Z</time>
      </trkpt>
      <trkpt lat="44.45761" lon="5.78398">
        <ele>782</ele>
        <time>2019-06-12T14:17:32Z</time>
      </trkpt>
      <trkpt lat="44.45758" lon="5.78401">
        <ele>782</ele>
        <time>2019-06-12T14:17:33Z</time>
      </trkpt>
      <trkpt lat="44.45754" lon="5.78403">
        <ele>782</ele>
        <time>2019-06-12T14:17:34Z</time>
      </trkpt>
      <trkpt lat="44.4575" lon="5.78405">
        <ele>782</ele>
        <time>2019-06-12T14:17:35Z</time>
      </trkpt>
      <trkpt lat="44.45745" lon="5.78407">
        <ele>782</ele>
        <time>2019-06-12T14:17:36Z</time>
      </trkpt>
      <trkpt lat="44.45741" lon="5.78408">
        <ele>782</ele>
        <time>2019-06-12T14:17:37Z</time>
      </trkpt>
      <trkpt lat="44.45736" lon="5.78409">
        <ele>782</ele>
        <time>2019-06-12T14:17:38Z</time>
      </trkpt>
      <trkpt lat="44.45731" lon="5.78409">
        <ele>782</ele>
        <time>2019-06-12T14:17:39Z</time>
      </trkpt>
      <trkpt lat="44.45726" lon="5.78408">
        <ele>782</ele>
        <time>2019-06-12T14:17:40Z</time>
      </trkpt>
      <trkpt lat="44.45721" lon="5.78407">
        <ele>782</ele>
        <time>2019-06-12T14:17:41Z</time>
      </trkpt>
      <trkpt lat="44.45716" lon="5.78406">
        <ele>782</ele>
        <time>2019-06-12T14:17:42Z</time>
      </trkpt>
      <trkpt lat="44.45711" lon="5.78405">
        <ele>782</ele>
        <time>2019-06-12T14:17:43Z</time>
      </trkpt>
      <trkpt lat="44.45707" lon="5.78403">
        <ele>782</ele>
        <time>2019-06-12T14:17:44Z</time>
      </trkpt>
      <trkpt lat="44.45702" lon="5.78402">
        <ele>782</ele>
        <time>2019-06-12T14:17:45Z</time>
      </trkpt>
      <trkpt lat="44.45698" lon="5.78399">
        <ele>782</ele>
        <time>2019-06-12T14:17:46Z</time>
      </trkpt>
      <trkpt lat="44.45694" lon="5.78396">
        <ele>782</ele>
        <time>2019-06-12T14:17:47Z</time>
      </trkpt>
      <trkpt lat="44.4569" lon="5.78392">
        <ele>782</ele>
        <time>2019-06-12T14:17:48Z</time>
      </trkpt>
      <trkpt lat="44.45687" lon="5.78388">
        <ele>782</ele>
        <time>2019-06-12T14:17:49Z</time>
      </trkpt>
      <trkpt lat="44.45685" lon="5.78384">
        <ele>782</ele>
        <time>2019-06-12T14:17:50Z</time>
      </trkpt>
      <trkpt lat="44.45682" lon="5.78379">
        <ele>782</ele>
        <time>2019-06-12T14:17:51Z</time>
      </trkpt>
      <trkpt lat="44.4568" lon="5.78375">
        <ele>782</ele>
        <time>2019-06-12T14:17:52Z</time>
      </trkpt>
      <trkpt lat="44.45678" lon="5.78371">
        <ele>782</ele>
        <time>2019-06-12T14:17:53Z</time>
      </trkpt>
      <trkpt lat="44.45676" lon="5.78367">
        <ele>783</ele>
        <time>2019-06-12T14:17:54Z</time>
      </trkpt>
      <trkpt lat="44.45675" lon="5.78362">
        <ele>783</ele>
        <time>2019-06-12T14:17:55Z</time>
      </trkpt>
      <trkpt lat="44.45673" lon="5.78357">
        <ele>783</ele>
        <time>2019-06-12T14:17:56Z</time>
      </trkpt>
      <trkpt lat="44.45671" lon="5.78352">
        <ele>784</ele>
        <time>2019-06-12T14:17:57Z</time>
      </trkpt>
      <trkpt lat="44.45669" lon="5.78347">
        <ele>784</ele>
        <time>2019-06-12T14:17:58Z</time>
      </trkpt>
      <trkpt lat="44.45668" lon="5.78342">
        <ele>784</ele>
        <time>2019-06-12T14:17:59Z</time>
      </trkpt>
      <trkpt lat="44.45666" lon="5.78337">
        <ele>784</ele>
        <time>2019-06-12T14:18:00Z</time>
      </trkpt>
      <trkpt lat="44.45665" lon="5.78331">
        <ele>785</ele>
        <time>2019-06-12T14:18:01Z</time>
      </trkpt>
      <trkpt lat="44.45663" lon="5.78326">
        <ele>785</ele>
        <time>2019-06-12T14:18:02Z</time>
      </trkpt>
      <trkpt lat="44.45661" lon="5.78321">
        <ele>785</ele>
        <time>2019-06-12T14:18:03Z</time>
      </trkpt>
      <trkpt lat="44.4566" lon="5.78316">
        <ele>786</ele>
        <time>2019-06-12T14:18:04Z</time>
      </trkpt>
      <trkpt lat="44.45658" lon="5.78311">
        <ele>786</ele>
        <time>2019-06-12T14:18:05Z</time>
      </trkpt>
      <trkpt lat="44.45656" lon="5.78306">
        <ele>786</ele>
        <time>2019-06-12T14:18:06Z</time>
      </trkpt>
      <trkpt lat="44.45654" lon="5.78302">
        <ele>787</ele>
        <time>2019-06-12T14:18:07Z</time>
      </trkpt>
      <trkpt lat="44.45653" lon="5.78297">
        <ele>787</ele>
        <time>2019-06-12T14:18:08Z</time>
      </trkpt>
      <trkpt lat="44.45651" lon="5.78292">
        <ele>787</ele>
        <time>2019-06-12T14:18:09Z</time>
      </trkpt>
      <trkpt lat="44.45649" lon="5.78287">
        <ele>788</ele>
        <time>2019-06-12T14:18:10Z</time>
      </trkpt>
      <trkpt lat="44.45648" lon="5.78282">
        <ele>788</ele>
        <time>2019-06-12T14:18:11Z</time>
      </trkpt>
      <trkpt lat="44.45646" lon="5.78278">
        <ele>788</ele>
        <time>2019-06-12T14:18:12Z</time>
      </trkpt>
      <trkpt lat="44.45644" lon="5.78274">
        <ele>789</ele>
        <time>2019-06-12T14:18:13Z</time>
      </trkpt>
      <trkpt lat="44.45641" lon="5.7827">
        <ele>789</ele>
        <time>2019-06-12T14:18:14Z</time>
      </trkpt>
      <trkpt lat="44.45639" lon="5.78267">
        <ele>790</ele>
        <time>2019-06-12T14:18:15Z</time>
      </trkpt>
      <trkpt lat="44.45636" lon="5.78265">
        <ele>790</ele>
        <time>2019-06-12T14:18:16Z</time>
      </trkpt>
      <trkpt lat="44.45633" lon="5.78263">
        <ele>790</ele>
        <time>2019-06-12T14:18:17Z</time>
      </trkpt>
      <trkpt lat="44.4563" lon="5.78261">
        <ele>790</ele>
        <time>2019-06-12T14:18:18Z</time>
      </trkpt>
      <trkpt lat="44.45627" lon="5.7826">
        <ele>791</ele>
        <time>2019-06-12T14:18:19Z</time>
      </trkpt>
      <trkpt lat="44.45623" lon="5.7826">
        <ele>791</ele>
        <time>2019-06-12T14:18:20Z</time>
      </trkpt>
      <trkpt lat="44.4562" lon="5.7826">
        <ele>791</ele>
        <time>2019-06-12T14:18:21Z</time>
      </trkpt>
      <trkpt lat="44.45616" lon="5.78262">
        <ele>791</ele>
        <time>2019-06-12T14:18:22Z</time>
      </trkpt>
      <trkpt lat="44.45612" lon="5.78264">
        <ele>791</ele>
        <time>2019-06-12T14:18:23Z</time>
      </trkpt>
      <trkpt lat="44.45609" lon="5.78266">
        <ele>791</ele>
        <time>2019-06-12T14:18:24Z</time>
      </trkpt>
      <trkpt lat="44.45606" lon="5.78269">
        <ele>791</ele>
        <time>2019-06-12T14:18:25Z</time>
      </trkpt>
      <trkpt lat="44.45604" lon="5.78273">
        <ele>791</ele>
        <time>2019-06-12T14:18:26Z</time>
      </trkpt>
      <trkpt lat="44.45601" lon="5.78276">
        <ele>791</ele>
        <time>2019-06-12T14:18:27Z</time>
      </trkpt>
      <trkpt lat="44.45598" lon="5.78279">
        <ele>792</ele>
        <time>2019-06-12T14:18:28Z</time>
      </trkpt>
      <trkpt lat="44.45596" lon="5.78282">
        <ele>792</ele>
        <time>2019-06-12T14:18:29Z</time>
      </trkpt>
      <trkpt lat="44.45593" lon="5.78286">
        <ele>792</ele>
        <time>2019-06-12T14:18:30Z</time>
      </trkpt>
      <trkpt lat="44.45591" lon="5.7829">
        <ele>792</ele>
        <time>2019-06-12T14:18:31Z</time>
      </trkpt>
      <trkpt lat="44.45589" lon="5.78294">
        <ele>792</ele>
        <time>2019-06-12T14:18:32Z</time>
      </trkpt>
      <trkpt lat="44.45586" lon="5.78297">
        <ele>792</ele>
        <time>2019-06-12T14:18:33Z</time>
      </trkpt>
      <trkpt lat="44.45583" lon="5.783">
        <ele>792</ele>
        <time>2019-06-12T14:18:34Z</time>
      </trkpt>
      <trkpt lat="44.45581" lon="5.78303">
        <ele>792</ele>
        <time>2019-06-12T14:18:35Z</time>
      </trkpt>
      <trkpt lat="44.45578" lon="5.78307">
        <ele>792</ele>
        <time>2019-06-12T14:18:36Z</time>
      </trkpt>
      <trkpt lat="44.45575" lon="5.7831">
        <ele>793</ele>
        <time>2019-06-12T14:18:37Z</time>
      </trkpt>
      <trkpt lat="44.45571" lon="5.78312">
        <ele>793</ele>
        <time>2019-06-12T14:18:38Z</time>
      </trkpt>
      <trkpt lat="44.45568" lon="5.78314">
        <ele>793</ele>
        <time>2019-06-12T14:18:39Z</time>
      </trkpt>
      <trkpt lat="44.45564" lon="5.78316">
        <ele>793</ele>
        <time>2019-06-12T14:18:40Z</time>
      </trkpt>
      <trkpt lat="44.4556" lon="5.78317">
        <ele>793</ele>
        <time>2019-06-12T14:18:41Z</time>
      </trkpt>
      <trkpt lat="44.45557" lon="5.78317">
        <ele>793</ele>
        <time>2019-06-12T14:18:42Z</time>
      </trkpt>
      <trkpt lat="44.45552" lon="5.78318">
        <ele>794</ele>
        <time>2019-06-12T14:18:43Z</time>
      </trkpt>
      <trkpt lat="44.45549" lon="5.78318">
        <ele>794</ele>
        <time>2019-06-12T14:18:44Z</time>
      </trkpt>
      <trkpt lat="44.45545" lon="5.78318">
        <ele>794</ele>
        <time>2019-06-12T14:18:45Z</time>
      </trkpt>
      <trkpt lat="44.45541" lon="5.78318">
        <ele>794</ele>
        <time>2019-06-12T14:18:46Z</time>
      </trkpt>
      <trkpt lat="44.45537" lon="5.78318">
        <ele>794</ele>
        <time>2019-06-12T14:18:47Z</time>
      </trkpt>
      <trkpt lat="44.45533" lon="5.78318">
        <ele>795</ele>
        <time>2019-06-12T14:18:48Z</time>
      </trkpt>
      <trkpt lat="44.4553" lon="5.78317">
        <ele>795</ele>
        <time>2019-06-12T14:18:49Z</time>
      </trkpt>
      <trkpt lat="44.45526" lon="5.78317">
        <ele>795</ele>
        <time>2019-06-12T14:18:50Z</time>
      </trkpt>
      <trkpt lat="44.45522" lon="5.78317">
        <ele>795</ele>
        <time>2019-06-12T14:18:51Z</time>
      </trkpt>
      <trkpt lat="44.45518" lon="5.78317">
        <ele>795</ele>
        <time>2019-06-12T14:18:52Z</time>
      </trkpt>
      <trkpt lat="44.45514" lon="5.78316">
        <ele>796</ele>
        <time>2019-06-12T14:18:53Z</time>
      </trkpt>
      <trkpt lat="44.4551" lon="5.78316">
        <ele>796</ele>
        <time>2019-06-12T14:18:54Z</time>
      </trkpt>
      <trkpt lat="44.45506" lon="5.78316">
        <ele>796</ele>
        <time>2019-06-12T14:18:55Z</time>
      </trkpt>
      <trkpt lat="44.45502" lon="5.78315">
        <ele>796</ele>
        <time>2019-06-12T14:18:56Z</time>
      </trkpt>
      <trkpt lat="44.45498" lon="5.78315">
        <ele>796</ele>
        <time>2019-06-12T14:18:57Z</time>
      </trkpt>
      <trkpt lat="44.45494" lon="5.78314">
        <ele>796</ele>
        <time>2019-06-12T14:18:58Z</time>
      </trkpt>
      <trkpt lat="44.45491" lon="5.78314">
        <ele>797</ele>
        <time>2019-06-12T14:18:59Z</time>
      </trkpt>
      <trkpt lat="44.45487" lon="5.78314">
        <ele>797</ele>
        <time>2019-06-12T14:19:00Z</time>
      </trkpt>
      <trkpt lat="44.45483" lon="5.78313">
        <ele>797</ele>
        <time>2019-06-12T14:19:01Z</time>
      </trkpt>
      <trkpt lat="44.45479" lon="5.78313">
        <ele>797</ele>
        <time>2019-06-12T14:19:02Z</time>
      </trkpt>
      <trkpt lat="44.45475" lon="5.78313">
        <ele>797</ele>
        <time>2019-06-12T14:19:03Z</time>
      </trkpt>
      <trkpt lat="44.45471" lon="5.78313">
        <ele>797</ele>
        <time>2019-06-12T14:19:04Z</time>
      </trkpt>
      <trkpt lat="44.45467" lon="5.78313">
        <ele>798</ele>
        <time>2019-06-12T14:19:05Z</time>
      </trkpt>
      <trkpt lat="44.45464" lon="5.78313">
        <ele>798</ele>
        <time>2019-06-12T14:19:06Z</time>
      </trkpt>
      <trkpt lat="44.4546" lon="5.78313">
        <ele>798</ele>
        <time>2019-06-12T14:19:07Z</time>
      </trkpt>
      <trkpt lat="44.45456" lon="5.78314">
        <ele>798</ele>
        <time>2019-06-12T14:19:08Z</time>
      </trkpt>
      <trkpt lat="44.45452" lon="5.78314">
        <ele>798</ele>
        <time>2019-06-12T14:19:09Z</time>
      </trkpt>
      <trkpt lat="44.45449" lon="5.78315">
        <ele>798</ele>
        <time>2019-06-12T14:19:10Z</time>
      </trkpt>
      <trkpt lat="44.45445" lon="5.78316">
        <ele>798</ele>
        <time>2019-06-12T14:19:11Z</time>
      </trkpt>
      <trkpt lat="44.45441" lon="5.78317">
        <ele>798</ele>
        <time>2019-06-12T14:19:12Z</time>
      </trkpt>
      <trkpt lat="44.45438" lon="5.78318">
        <ele>799</ele>
        <time>2019-06-12T14:19:13Z</time>
      </trkpt>
      <trkpt lat="44.45434" lon="5.78319">
        <ele>799</ele>
        <time>2019-06-12T14:19:14Z</time>
      </trkpt>
      <trkpt lat="44.45431" lon="5.7832">
        <ele>799</ele>
        <time>2019-06-12T14:19:15Z</time>
      </trkpt>
      <trkpt lat="44.45428" lon="5.78322">
        <ele>799</ele>
        <time>2019-06-12T14:19:16Z</time>
      </trkpt>
      <trkpt lat="44.45425" lon="5.78325">
        <ele>799</ele>
        <time>2019-06-12T14:19:17Z</time>
      </trkpt>
      <trkpt lat="44.45421" lon="5.78327">
        <ele>799</ele>
        <time>2019-06-12T14:19:18Z</time>
      </trkpt>
      <trkpt lat="44.45418" lon="5.7833">
        <ele>799</ele>
        <time>2019-06-12T14:19:19Z</time>
      </trkpt>
      <trkpt lat="44.45415" lon="5.78334">
        <ele>799</ele>
        <time>2019-06-12T14:19:20Z</time>
      </trkpt>
      <trkpt lat="44.45411" lon="5.78338">
        <ele>799</ele>
        <time>2019-06-12T14:19:21Z</time>
      </trkpt>
      <trkpt lat="44.45408" lon="5.78342">
        <ele>799</ele>
        <time>2019-06-12T14:19:22Z</time>
      </trkpt>
      <trkpt lat="44.45404" lon="5.78347">
        <ele>799</ele>
        <time>2019-06-12T14:19:23Z</time>
      </trkpt>
      <trkpt lat="44.454" lon="5.78352">
        <ele>799</ele>
        <time>2019-06-12T14:19:24Z</time>
      </trkpt>
      <trkpt lat="44.45396" lon="5.78358">
        <ele>799</ele>
        <time>2019-06-12T14:19:25Z</time>
      </trkpt>
      <trkpt lat="44.45391" lon="5.78364">
        <ele>799</ele>
        <time>2019-06-12T14:19:26Z</time>
      </trkpt>
      <trkpt lat="44.45387" lon="5.7837">
        <ele>799</ele>
        <time>2019-06-12T14:19:27Z</time>
      </trkpt>
      <trkpt lat="44.45382" lon="5.78377">
        <ele>799</ele>
        <time>2019-06-12T14:19:28Z</time>
      </trkpt>
      <trkpt lat="44.45376" lon="5.78383">
        <ele>799</ele>
        <time>2019-06-12T14:19:29Z</time>
      </trkpt>
      <trkpt lat="44.4537" lon="5.7839">
        <ele>799</ele>
        <time>2019-06-12T14:19:30Z</time>
      </trkpt>
      <trkpt lat="44.45364" lon="5.78397">
        <ele>799</ele>
        <time>2019-06-12T14:19:31Z</time>
      </trkpt>
      <trkpt lat="44.45358" lon="5.78405">
        <ele>799</ele>
        <time>2019-06-12T14:19:32Z</time>
      </trkpt>
      <trkpt lat="44.45352" lon="5.78413">
        <ele>799</ele>
        <time>2019-06-12T14:19:33Z</time>
      </trkpt>
      <trkpt lat="44.45346" lon="5.78422">
        <ele>799</ele>
        <time>2019-06-12T14:19:34Z</time>
      </trkpt>
      <trkpt lat="44.4534" lon="5.78431">
        <ele>798</ele>
        <time>2019-06-12T14:19:35Z</time>
      </trkpt>
      <trkpt lat="44.45333" lon="5.78439">
        <ele>798</ele>
        <time>2019-06-12T14:19:36Z</time>
      </trkpt>
      <trkpt lat="44.45327" lon="5.78448">
        <ele>797</ele>
        <time>2019-06-12T14:19:37Z</time>
      </trkpt>
      <trkpt lat="44.4532" lon="5.78457">
        <ele>797</ele>
        <time>2019-06-12T14:19:38Z</time>
      </trkpt>
      <trkpt lat="44.45313" lon="5.78466">
        <ele>797</ele>
        <time>2019-06-12T14:19:39Z</time>
      </trkpt>
      <trkpt lat="44.45306" lon="5.78475">
        <ele>796</ele>
        <time>2019-06-12T14:19:40Z</time>
      </trkpt>
      <trkpt lat="44.453" lon="5.78484">
        <ele>796</ele>
        <time>2019-06-12T14:19:41Z</time>
      </trkpt>
      <trkpt lat="44.45292" lon="5.78492">
        <ele>795</ele>
        <time>2019-06-12T14:19:42Z</time>
      </trkpt>
      <trkpt lat="44.45285" lon="5.78499">
        <ele>795</ele>
        <time>2019-06-12T14:19:43Z</time>
      </trkpt>
      <trkpt lat="44.45277" lon="5.78504">
        <ele>794</ele>
        <time>2019-06-12T14:19:44Z</time>
      </trkpt>
      <trkpt lat="44.45268" lon="5.78505">
        <ele>794</ele>
        <time>2019-06-12T14:19:45Z</time>
      </trkpt>
      <trkpt lat="44.45259" lon="5.78503">
        <ele>793</ele>
        <time>2019-06-12T14:19:46Z</time>
      </trkpt>
      <trkpt lat="44.45251" lon="5.78497">
        <ele>793</ele>
        <time>2019-06-12T14:19:47Z</time>
      </trkpt>
      <trkpt lat="44.45244" lon="5.7849">
        <ele>793</ele>
        <time>2019-06-12T14:19:48Z</time>
      </trkpt>
      <trkpt lat="44.45238" lon="5.78482">
        <ele>792</ele>
        <time>2019-06-12T14:19:49Z</time>
      </trkpt>
      <trkpt lat="44.45232" lon="5.78475">
        <ele>792</ele>
        <time>2019-06-12T14:19:50Z</time>
      </trkpt>
      <trkpt lat="44.45226" lon="5.78467">
        <ele>792</ele>
        <time>2019-06-12T14:19:51Z</time>
      </trkpt>
      <trkpt lat="44.45221" lon="5.78459">
        <ele>791</ele>
        <time>2019-06-12T14:19:52Z</time>
      </trkpt>
      <trkpt lat="44.45215" lon="5.78452">
        <ele>791</ele>
        <time>2019-06-12T14:19:53Z</time>
      </trkpt>
      <trkpt lat="44.4521" lon="5.78445">
        <ele>791</ele>
        <time>2019-06-12T14:19:54Z</time>
      </trkpt>
      <trkpt lat="44.45205" lon="5.78439">
        <ele>791</ele>
        <time>2019-06-12T14:19:55Z</time>
      </trkpt>
      <trkpt lat="44.452" lon="5.78433">
        <ele>790</ele>
        <time>2019-06-12T14:19:56Z</time>
      </trkpt>
      <trkpt lat="44.45195" lon="5.78428">
        <ele>790</ele>
        <time>2019-06-12T14:19:57Z</time>
      </trkpt>
      <trkpt lat="44.45189" lon="5.78422">
        <ele>790</ele>
        <time>2019-06-12T14:19:58Z</time>
      </trkpt>
      <trkpt lat="44.45184" lon="5.78418">
        <ele>790</ele>
        <time>2019-06-12T14:19:59Z</time>
      </trkpt>
      <trkpt lat="44.45178" lon="5.78416">
        <ele>790</ele>
        <time>2019-06-12T14:20:00Z</time>
      </trkpt>
      <trkpt lat="44.45172" lon="5.78416">
        <ele>790</ele>
        <time>2019-06-12T14:20:01Z</time>
      </trkpt>
      <trkpt lat="44.45166" lon="5.78417">
        <ele>790</ele>
        <time>2019-06-12T14:20:02Z</time>
      </trkpt>
      <trkpt lat="44.4516" lon="5.7842">
        <ele>790</ele>
        <time>2019-06-12T14:20:03Z</time>
      </trkpt>
      <trkpt lat="44.45155" lon="5.78425">
        <ele>790</ele>
        <time>2019-06-12T14:20:04Z</time>
      </trkpt>
      <trkpt lat="44.4515" lon="5.7843">
        <ele>790</ele>
        <time>2019-06-12T14:20:05Z</time>
      </trkpt>
      <trkpt lat="44.45146" lon="5.78435">
        <ele>790</ele>
        <time>2019-06-12T14:20:06Z</time>
      </trkpt>
      <trkpt lat="44.45142" lon="5.78441">
        <ele>790</ele>
        <time>2019-06-12T14:20:07Z</time>
      </trkpt>
      <trkpt lat="44.45137" lon="5.78445">
        <ele>790</ele>
        <time>2019-06-12T14:20:08Z</time>
      </trkpt>
      <trkpt lat="44.45132" lon="5.78449">
        <ele>790</ele>
        <time>2019-06-12T14:20:09Z</time>
      </trkpt>
      <trkpt lat="44.45126" lon="5.78451">
        <ele>790</ele>
        <time>2019-06-12T14:20:10Z</time>
      </trkpt>
      <trkpt lat="44.45121" lon="5.78451">
        <ele>790</ele>
        <time>2019-06-12T14:20:11Z</time>
      </trkpt>
      <trkpt lat="44.45115" lon="5.78448">
        <ele>790</ele>
        <time>2019-06-12T14:20:12Z</time>
      </trkpt>
      <trkpt lat="44.4511" lon="5.78444">
        <ele>790</ele>
        <time>2019-06-12T14:20:13Z</time>
      </trkpt>
      <trkpt lat="44.45106" lon="5.7844">
        <ele>790</ele>
        <time>2019-06-12T14:20:14Z</time>
      </trkpt>
      <trkpt lat="44.45102" lon="5.78434">
        <ele>790</ele>
        <time>2019-06-12T14:20:15Z</time>
      </trkpt>
      <trkpt lat="44.45098" lon="5.7843">
        <ele>790</ele>
        <time>2019-06-12T14:20:16Z</time>
      </trkpt>
      <trkpt lat="44.45093" lon="5.78426">
        <ele>790</ele>
        <time>2019-06-12T14:20:17Z</time>
      </trkpt>
      <trkpt lat="44.45089" lon="5.78424">
        <ele>790</ele>
        <time>2019-06-12T14:20:18Z</time>
      </trkpt>
      <trkpt lat="44.45083" lon="5.78422">
        <ele>790</ele>
        <time>2019-06-12T14:20:19Z</time>
      </trkpt>
      <trkpt lat="44.45078" lon="5.78422">
        <ele>790</ele>
        <time>2019-06-12T14:20:20Z</time>
      </trkpt>
      <trkpt lat="44.45073" lon="5.78423">
        <ele>790</ele>
        <time>2019-06-12T14:20:21Z</time>
      </trkpt>
      <trkpt lat="44.45067" lon="5.78426">
        <ele>790</ele>
        <time>2019-06-12T14:20:22Z</time>
      </trkpt>
      <trkpt lat="44.45062" lon="5.78429">
        <ele>790</ele>
        <time>2019-06-12T14:20:23Z</time>
      </trkpt>
      <trkpt lat="44.45058" lon="5.78433">
        <ele>790</ele>
        <time>2019-06-12T14:20:24Z</time>
      </trkpt>
      <trkpt lat="44.45053" lon="5.78436">
        <ele>790</ele>
        <time>2019-06-12T14:20:25Z</time>
      </trkpt>
      <trkpt lat="44.45048" lon="5.78439">
        <ele>790</ele>
        <time>2019-06-12T14:20:26Z</time>
      </trkpt>
      <trkpt lat="44.45043" lon="5.78443">
        <ele>790</ele>
        <time>2019-06-12T14:20:27Z</time>
      </trkpt>
      <trkpt lat="44.45039" lon="5.78446">
        <ele>790</ele>
        <time>2019-06-12T14:20:28Z</time>
      </trkpt>
      <trkpt lat="44.45034" lon="5.78449">
        <ele>790</ele>
        <time>2019-06-12T14:20:29Z</time>
      </trkpt>
      <trkpt lat="44.45029" lon="5.7845">
        <ele>790</ele>
        <time>2019-06-12T14:20:30Z</time>
      </trkpt>
      <trkpt lat="44.45023" lon="5.78449">
        <ele>790</ele>
        <time>2019-06-12T14:20:31Z</time>
      </trkpt>
      <trkpt lat="44.45018" lon="5.78445">
        <ele>790</ele>
        <time>2019-06-12T14:20:32Z</time>
      </trkpt>
      <trkpt lat="44.45014" lon="5.78441">
        <ele>790</ele>
        <time>2019-06-12T14:20:33Z</time>
      </trkpt>
      <trkpt lat="44.45011" lon="5.78434">
        <ele>790</ele>
        <time>2019-06-12T14:20:34Z</time>
      </trkpt>
      <trkpt lat="44.4501" lon="5.78426">
        <ele>790</ele>
        <time>2019-06-12T14:20:35Z</time>
      </trkpt>
      <trkpt lat="44.4501" lon="5.78418">
        <ele>790</ele>
        <time>2019-06-12T14:20:36Z</time>
      </trkpt>
      <trkpt lat="44.4501" lon="5.7841">
        <ele>790</ele>
        <time>2019-06-12T14:20:37Z</time>
      </trkpt>
      <trkpt lat="44.45012" lon="5.78402">
        <ele>790</ele>
        <time>2019-06-12T14:20:38Z</time>
      </trkpt>
      <trkpt lat="44.45014" lon="5.78394">
        <ele>790</ele>
        <time>2019-06-12T14:20:39Z</time>
      </trkpt>
      <trkpt lat="44.45016" lon="5.78386">
        <ele>790</ele>
        <time>2019-06-12T14:20:40Z</time>
      </trkpt>
      <trkpt lat="44.45018" lon="5.78378">
        <ele>790</ele>
        <time>2019-06-12T14:20:41Z</time>
      </trkpt>
      <trkpt lat="44.45021" lon="5.7837">
        <ele>790</ele>
        <time>2019-06-12T14:20:42Z</time>
      </trkpt>
      <trkpt lat="44.45022" lon="5.78362">
        <ele>791</ele>
        <time>2019-06-12T14:20:43Z</time>
      </trkpt>
      <trkpt lat="44.45023" lon="5.78353">
        <ele>791</ele>
        <time>2019-06-12T14:20:44Z</time>
      </trkpt>
      <trkpt lat="44.45023" lon="5.78345">
        <ele>791</ele>
        <time>2019-06-12T14:20:45Z</time>
      </trkpt>
      <trkpt lat="44.45021" lon="5.78337">
        <ele>791</ele>
        <time>2019-06-12T14:20:46Z</time>
      </trkpt>
      <trkpt lat="44.45019" lon="5.7833">
        <ele>791</ele>
        <time>2019-06-12T14:20:47Z</time>
      </trkpt>
      <trkpt lat="44.45016" lon="5.78324">
        <ele>791</ele>
        <time>2019-06-12T14:20:48Z</time>
      </trkpt>
      <trkpt lat="44.45012" lon="5.78319">
        <ele>791</ele>
        <time>2019-06-12T14:20:49Z</time>
      </trkpt>
      <trkpt lat="44.45007" lon="5.78314">
        <ele>792</ele>
        <time>2019-06-12T14:20:50Z</time>
      </trkpt>
      <trkpt lat="44.45003" lon="5.78309">
        <ele>792</ele>
        <time>2019-06-12T14:20:51Z</time>
      </trkpt>
      <trkpt lat="44.44998" lon="5.78305">
        <ele>792</ele>
        <time>2019-06-12T14:20:52Z</time>
      </trkpt>
      <trkpt lat="44.44994" lon="5.78301">
        <ele>792</ele>
        <time>2019-06-12T14:20:53Z</time>
      </trkpt>
      <trkpt lat="44.44989" lon="5.78296">
        <ele>792</ele>
        <time>2019-06-12T14:20:54Z</time>
      </trkpt>
      <trkpt lat="44.44984" lon="5.78292">
        <ele>793</ele>
        <time>2019-06-12T14:20:55Z</time>
      </trkpt>
      <trkpt lat="44.4498" lon="5.78288">
        <ele>793</ele>
        <time>2019-06-12T14:20:56Z</time>
      </trkpt>
      <trkpt lat="44.44975" lon="5.78283">
        <ele>793</ele>
        <time>2019-06-12T14:20:57Z</time>
      </trkpt>
      <trkpt lat="44.4497" lon="5.78278">
        <ele>793</ele>
        <time>2019-06-12T14:20:58Z</time>
      </trkpt>
      <trkpt lat="44.44965" lon="5.78274">
        <ele>793</ele>
        <time>2019-06-12T14:20:59Z</time>
      </trkpt>
      <trkpt lat="44.4496" lon="5.78269">
        <ele>793</ele>
        <time>2019-06-12T14:21:00Z</time>
      </trkpt>
      <trkpt lat="44.44955" lon="5.78265">
        <ele>793</ele>
        <time>2019-06-12T14:21:01Z</time>
      </trkpt>
      <trkpt lat="44.4495" lon="5.7826">
        <ele>793</ele>
        <time>2019-06-12T14:21:02Z</time>
      </trkpt>
      <trkpt lat="44.44945" lon="5.78255">
        <ele>793</ele>
        <time>2019-06-12T14:21:03Z</time>
      </trkpt>
      <trkpt lat="44.4494" lon="5.7825">
        <ele>793</ele>
        <time>2019-06-12T14:21:04Z</time>
      </trkpt>
      <trkpt lat="44.44935" lon="5.78245">
        <ele>793</ele>
        <time>2019-06-12T14:21:05Z</time>
      </trkpt>
      <trkpt lat="44.4493" lon="5.7824">
        <ele>793</ele>
        <time>2019-06-12T14:21:06Z</time>
      </trkpt>
      <trkpt lat="44.44924" lon="5.78235">
        <ele>793</ele>
        <time>2019-06-12T14:21:07Z</time>
      </trkpt>
      <trkpt lat="44.44919" lon="5.7823">
        <ele>793</ele>
        <time>2019-06-12T14:21:08Z</time>
      </trkpt>
      <trkpt lat="44.44913" lon="5.78225">
        <ele>793</ele>
        <time>2019-06-12T14:21:09Z</time>
      </trkpt>
      <trkpt lat="44.44907" lon="5.7822">
        <ele>793</ele>
        <time>2019-06-12T14:21:10Z</time>
      </trkpt>
      <trkpt lat="44.44901" lon="5.78215">
        <ele>793</ele>
        <time>2019-06-12T14:21:11Z</time>
      </trkpt>
      <trkpt lat="44.44894" lon="5.78211">
        <ele>793</ele>
        <time>2019-06-12T14:21:12Z</time>
      </trkpt>
      <trkpt lat="44.44886" lon="5.78207">
        <ele>793</ele>
        <time>2019-06-12T14:21:13Z</time>
      </trkpt>
      <trkpt lat="44.44879" lon="5.78204">
        <ele>793</ele>
        <time>2019-06-12T14:21:14Z</time>
      </trkpt>
      <trkpt lat="44.44871" lon="5.78202">
        <ele>793</ele>
        <time>2019-06-12T14:21:15Z</time>
      </trkpt>
      <trkpt lat="44.44864" lon="5.782">
        <ele>793</ele>
        <time>2019-06-12T14:21:16Z</time>
      </trkpt>
      <trkpt lat="44.44856" lon="5.78198">
        <ele>793</ele>
        <time>2019-06-12T14:21:17Z</time>
      </trkpt>
      <trkpt lat="44.44849" lon="5.78197">
        <ele>793</ele>
        <time>2019-06-12T14:21:18Z</time>
      </trkpt>
      <trkpt lat="44.44841" lon="5.78196">
        <ele>793</ele>
        <time>2019-06-12T14:21:19Z</time>
      </trkpt>
      <trkpt lat="44.44834" lon="5.78195">
        <ele>793</ele>
        <time>2019-06-12T14:21:20Z</time>
      </trkpt>
      <trkpt lat="44.44827" lon="5.78194">
        <ele>793</ele>
        <time>2019-06-12T14:21:21Z</time>
      </trkpt>
      <trkpt lat="44.4482" lon="5.78193">
        <ele>793</ele>
        <time>2019-06-12T14:21:22Z</time>
      </trkpt>
      <trkpt lat="44.44813" lon="5.78192">
        <ele>793</ele>
        <time>2019-06-12T14:21:23Z</time>
      </trkpt>
      <trkpt lat="44.44807" lon="5.78191">
        <ele>793</ele>
        <time>2019-06-12T14:21:24Z</time>
      </trkpt>
      <trkpt lat="44.448" lon="5.7819">
        <ele>793</ele>
        <time>2019-06-12T14:21:25Z</time>
      </trkpt>
      <trkpt lat="44.44794" lon="5.7819">
        <ele>793</ele>
        <time>2019-06-12T14:21:26Z</time>
      </trkpt>
      <trkpt lat="44.44787" lon="5.7819">
        <ele>793</ele>
        <time>2019-06-12T14:21:27Z</time>
      </trkpt>
      <trkpt lat="44.44781" lon="5.7819">
        <ele>793</ele>
        <time>2019-06-12T14:21:28Z</time>
      </trkpt>
      <trkpt lat="44.44775" lon="5.78192">
        <ele>793</ele>
        <time>2019-06-12T14:21:29Z</time>
      </trkpt>
      <trkpt lat="44.44769" lon="5.78193">
        <ele>792</ele>
        <time>2019-06-12T14:21:30Z</time>
      </trkpt>
      <trkpt lat="44.44763" lon="5.78195">
        <ele>792</ele>
        <time>2019-06-12T14:21:31Z</time>
      </trkpt>
      <trkpt lat="44.44756" lon="5.78198">
        <ele>792</ele>
        <time>2019-06-12T14:21:32Z</time>
      </trkpt>
      <trkpt lat="44.44751" lon="5.78202">
        <ele>792</ele>
        <time>2019-06-12T14:21:33Z</time>
      </trkpt>
      <trkpt lat="44.44745" lon="5.78206">
        <ele>791</ele>
        <time>2019-06-12T14:21:34Z</time>
      </trkpt>
      <trkpt lat="44.44739" lon="5.78211">
        <ele>791</ele>
        <time>2019-06-12T14:21:35Z</time>
      </trkpt>
      <trkpt lat="44.44733" lon="5.78216">
        <ele>791</ele>
        <time>2019-06-12T14:21:36Z</time>
      </trkpt>
      <trkpt lat="44.44728" lon="5.78222">
        <ele>790</ele>
        <time>2019-06-12T14:21:37Z</time>
      </trkpt>
      <trkpt lat="44.44723" lon="5.78227">
        <ele>790</ele>
        <time>2019-06-12T14:21:38Z</time>
      </trkpt>
      <trkpt lat="44.44717" lon="5.78233">
        <ele>790</ele>
        <time>2019-06-12T14:21:39Z</time>
      </trkpt>
      <trkpt lat="44.44711" lon="5.78238">
        <ele>789</ele>
        <time>2019-06-12T14:21:40Z</time>
      </trkpt>
      <trkpt lat="44.44706" lon="5.78244">
        <ele>789</ele>
        <time>2019-06-12T14:21:41Z</time>
      </trkpt>
      <trkpt lat="44.447" lon="5.7825">
        <ele>788</ele>
        <time>2019-06-12T14:21:42Z</time>
      </trkpt>
      <trkpt lat="44.44694" lon="5.78256">
        <ele>788</ele>
        <time>2019-06-12T14:21:43Z</time>
      </trkpt>
      <trkpt lat="44.44688" lon="5.78262">
        <ele>788</ele>
        <time>2019-06-12T14:21:44Z</time>
      </trkpt>
      <trkpt lat="44.44681" lon="5.78267">
        <ele>787</ele>
        <time>2019-06-12T14:21:45Z</time>
      </trkpt>
      <trkpt lat="44.44675" lon="5.78273">
        <ele>787</ele>
        <time>2019-06-12T14:21:46Z</time>
      </trkpt>
      <trkpt lat="44.44669" lon="5.78279">
        <ele>787</ele>
        <time>2019-06-12T14:21:47Z</time>
      </trkpt>
      <trkpt lat="44.44662" lon="5.78285">
        <ele>787</ele>
        <time>2019-06-12T14:21:48Z</time>
      </trkpt>
      <trkpt lat="44.44657" lon="5.78291">
        <ele>787</ele>
        <time>2019-06-12T14:21:49Z</time>
      </trkpt>
      <trkpt lat="44.44651" lon="5.78296">
        <ele>787</ele>
        <time>2019-06-12T14:21:50Z</time>
      </trkpt>
      <trkpt lat="44.44646" lon="5.78301">
        <ele>787</ele>
        <time>2019-06-12T14:21:51Z</time>
      </trkpt>
      <trkpt lat="44.4464" lon="5.78306">
        <ele>786</ele>
        <time>2019-06-12T14:21:52Z</time>
      </trkpt>
      <trkpt lat="44.44635" lon="5.78312">
        <ele>786</ele>
        <time>2019-06-12T14:21:53Z</time>
      </trkpt>
      <trkpt lat="44.4463" lon="5.78317">
        <ele>786</ele>
        <time>2019-06-12T14:21:54Z</time>
      </trkpt>
      <trkpt lat="44.44624" lon="5.78322">
        <ele>786</ele>
        <time>2019-06-12T14:21:55Z</time>
      </trkpt>
      <trkpt lat="44.44618" lon="5.78327">
        <ele>786</ele>
        <time>2019-06-12T14:21:56Z</time>
      </trkpt>
      <trkpt lat="44.44612" lon="5.78331">
        <ele>785</ele>
        <time>2019-06-12T14:21:57Z</time>
      </trkpt>
      <trkpt lat="44.44606" lon="5.78334">
        <ele>785</ele>
        <time>2019-06-12T14:21:58Z</time>
      </trkpt>
      <trkpt lat="44.44598" lon="5.78336">
        <ele>785</ele>
        <time>2019-06-12T14:21:59Z</time>
      </trkpt>
      <trkpt lat="44.44591" lon="5.78335">
        <ele>785</ele>
        <time>2019-06-12T14:22:00Z</time>
      </trkpt>
      <trkpt lat="44.44583" lon="5.78332">
        <ele>784</ele>
        <time>2019-06-12T14:22:01Z</time>
      </trkpt>
      <trkpt lat="44.44576" lon="5.78328">
        <ele>784</ele>
        <time>2019-06-12T14:22:02Z</time>
      </trkpt>
      <trkpt lat="44.44569" lon="5.78323">
        <ele>784</ele>
        <time>2019-06-12T14:22:03Z</time>
      </trkpt>
      <trkpt lat="44.44563" lon="5.78318">
        <ele>783</ele>
        <time>2019-06-12T14:22:04Z</time>
      </trkpt>
      <trkpt lat="44.44556" lon="5.78313">
        <ele>783</ele>
        <time>2019-06-12T14:22:05Z</time>
      </trkpt>
      <trkpt lat="44.4455" lon="5.7831">
        <ele>783</ele>
        <time>2019-06-12T14:22:06Z</time>
      </trkpt>
      <trkpt lat="44.44544" lon="5.78308">
        <ele>783</ele>
        <time>2019-06-12T14:22:07Z</time>
      </trkpt>
      <trkpt lat="44.44537" lon="5.78308">
        <ele>783</ele>
        <time>2019-06-12T14:22:08Z</time>
      </trkpt>
      <trkpt lat="44.44532" lon="5.78309">
        <ele>783</ele>
        <time>2019-06-12T14:22:09Z</time>
      </trkpt>
      <trkpt lat="44.44527" lon="5.78312">
        <ele>783</ele>
        <time>2019-06-12T14:22:10Z</time>
      </trkpt>
      <trkpt lat="44.44523" lon="5.78316">
        <ele>783</ele>
        <time>2019-06-12T14:22:11Z</time>
      </trkpt>
      <trkpt lat="44.4452" lon="5.78321">
        <ele>783</ele>
        <time>2019-06-12T14:22:12Z</time>
      </trkpt>
      <trkpt lat="44.44516" lon="5.78326">
        <ele>783</ele>
        <time>2019-06-12T14:22:13Z</time>
      </trkpt>
      <trkpt lat="44.44513" lon="5.78331">
        <ele>783</ele>
        <time>2019-06-12T14:22:14Z</time>
      </trkpt>
      <trkpt lat="44.44511" lon="5.78336">
        <ele>783</ele>
        <time>2019-06-12T14:22:15Z</time>
      </trkpt>
      <trkpt lat="44.44508" lon="5.78341">
        <ele>783</ele>
        <time>2019-06-12T14:22:16Z</time>
      </trkpt>
      <trkpt lat="44.44506" lon="5.78346">
        <ele>783</ele>
        <time>2019-06-12T14:22:17Z</time>
      </trkpt>
      <trkpt lat="44.44504" lon="5.78351">
        <ele>783</ele>
        <time>2019-06-12T14:22:18Z</time>
      </trkpt>
      <trkpt lat="44.44502" lon="5.78357">
        <ele>783</ele>
        <time>2019-06-12T14:22:19Z</time>
      </trkpt>
      <trkpt lat="44.445" lon="5.78361">
        <ele>783</ele>
        <time>2019-06-12T14:22:20Z</time>
      </trkpt>
      <trkpt lat="44.44498" lon="5.78366">
        <ele>783</ele>
        <time>2019-06-12T14:22:21Z</time>
      </trkpt>
      <trkpt lat="44.44496" lon="5.78371">
        <ele>783</ele>
        <time>2019-06-12T14:22:22Z</time>
      </trkpt>
      <trkpt lat="44.44494" lon="5.78377">
        <ele>783</ele>
        <time>2019-06-12T14:22:23Z</time>
      </trkpt>
      <trkpt lat="44.44492" lon="5.78382">
        <ele>783</ele>
        <time>2019-06-12T14:22:24Z</time>
      </trkpt>
      <trkpt lat="44.4449" lon="5.78387">
        <ele>783</ele>
        <time>2019-06-12T14:22:25Z</time>
      </trkpt>
      <trkpt lat="44.44487" lon="5.78392">
        <ele>783</ele>
        <time>2019-06-12T14:22:26Z</time>
      </trkpt>
      <trkpt lat="44.44485" lon="5.78397">
        <ele>783</ele>
        <time>2019-06-12T14:22:27Z</time>
      </trkpt>
      <trkpt lat="44.44483" lon="5.78402">
        <ele>783</ele>
        <time>2019-06-12T14:22:28Z</time>
      </trkpt>
      <trkpt lat="44.44481" lon="5.78407">
        <ele>783</ele>
        <time>2019-06-12T14:22:29Z</time>
      </trkpt>
      <trkpt lat="44.44479" lon="5.78412">
        <ele>783</ele>
        <time>2019-06-12T14:22:30Z</time>
      </trkpt>
      <trkpt lat="44.44477" lon="5.78417">
        <ele>783</ele>
        <time>2019-06-12T14:22:31Z</time>
      </trkpt>
      <trkpt lat="44.44474" lon="5.78422">
        <ele>783</ele>
        <time>2019-06-12T14:22:32Z</time>
      </trkpt>
      <trkpt lat="44.44472" lon="5.78427">
        <ele>783</ele>
        <time>2019-06-12T14:22:33Z</time>
      </trkpt>
      <trkpt lat="44.4447" lon="5.78432">
        <ele>783</ele>
        <time>2019-06-12T14:22:34Z</time>
      </trkpt>
      <trkpt lat="44.44468" lon="5.78436">
        <ele>783</ele>
        <time>2019-06-12T14:22:35Z</time>
      </trkpt>
      <trkpt lat="44.44466" lon="5.78441">
        <ele>783</ele>
        <time>2019-06-12T14:22:36Z</time>
      </trkpt>
      <trkpt lat="44.44464" lon="5.78446">
        <ele>783</ele>
        <time>2019-06-12T14:22:37Z</time>
      </trkpt>
      <trkpt lat="44.44462" lon="5.78451">
        <ele>783</ele>
        <time>2019-06-12T14:22:38Z</time>
      </trkpt>
      <trkpt lat="44.4446" lon="5.78455">
        <ele>783</ele>
        <time>2019-06-12T14:22:39Z</time>
      </trkpt>
      <trkpt lat="44.44458" lon="5.7846">
        <ele>783</ele>
        <time>2019-06-12T14:22:40Z</time>
      </trkpt>
      <trkpt lat="44.44457" lon="5.78465">
        <ele>783</ele>
        <time>2019-06-12T14:22:41Z</time>
      </trkpt>
      <trkpt lat="44.44455" lon="5.7847">
        <ele>783</ele>
        <time>2019-06-12T14:22:42Z</time>
      </trkpt>
      <trkpt lat="44.44453" lon="5.78474">
        <ele>783</ele>
        <time>2019-06-12T14:22:43Z</time>
      </trkpt>
      <trkpt lat="44.44451" lon="5.78479">
        <ele>783</ele>
        <time>2019-06-12T14:22:44Z</time>
      </trkpt>
      <trkpt lat="44.44449" lon="5.78483">
        <ele>783</ele>
        <time>2019-06-12T14:22:45Z</time>
      </trkpt>
      <trkpt lat="44.44447" lon="5.78488">
        <ele>783</ele>
        <time>2019-06-12T14:22:46Z</time>
      </trkpt>
      <trkpt lat="44.44445" lon="5.78492">
        <ele>783</ele>
        <time>2019-06-12T14:22:47Z</time>
      </trkpt>
      <trkpt lat="44.44444" lon="5.78497">
        <ele>783</ele>
        <time>2019-06-12T14:22:48Z</time>
      </trkpt>
      <trkpt lat="44.44442" lon="5.78501">
        <ele>783</ele>
        <time>2019-06-12T14:22:49Z</time>
      </trkpt>
      <trkpt lat="44.4444" lon="5.78506">
        <ele>783</ele>
        <time>2019-06-12T14:22:50Z</time>
      </trkpt>
      <trkpt lat="44.44438" lon="5.7851">
        <ele>783</ele>
        <time>2019-06-12T14:22:51Z</time>
      </trkpt>
      <trkpt lat="44.44436" lon="5.78515">
        <ele>783</ele>
        <time>2019-06-12T14:22:52Z</time>
      </trkpt>
      <trkpt lat="44.44434" lon="5.7852">
        <ele>783</ele>
        <time>2019-06-12T14:22:53Z</time>
      </trkpt>
      <trkpt lat="44.44432" lon="5.78525">
        <ele>783</ele>
        <time>2019-06-12T14:22:54Z</time>
      </trkpt>
      <trkpt lat="44.44431" lon="5.7853">
        <ele>783</ele>
        <time>2019-06-12T14:22:55Z</time>
      </trkpt>
      <trkpt lat="44.4443" lon="5.78536">
        <ele>783</ele>
        <time>2019-06-12T14:22:56Z</time>
      </trkpt>
      <trkpt lat="44.44429" lon="5.78541">
        <ele>783</ele>
        <time>2019-06-12T14:22:57Z</time>
      </trkpt>
      <trkpt lat="44.44428" lon="5.78546">
        <ele>783</ele>
        <time>2019-06-12T14:22:58Z</time>
      </trkpt>
      <trkpt lat="44.44428" lon="5.78552">
        <ele>783</ele>
        <time>2019-06-12T14:22:59Z</time>
      </trkpt>
      <trkpt lat="44.44427" lon="5.78557">
        <ele>783</ele>
        <time>2019-06-12T14:23:00Z</time>
      </trkpt>
      <trkpt lat="44.44427" lon="5.78563">
        <ele>784</ele>
        <time>2019-06-12T14:23:01Z</time>
      </trkpt>
      <trkpt lat="44.44426" lon="5.78569">
        <ele>784</ele>
        <time>2019-06-12T14:23:02Z</time>
      </trkpt>
      <trkpt lat="44.44426" lon="5.78574">
        <ele>785</ele>
        <time>2019-06-12T14:23:03Z</time>
      </trkpt>
      <trkpt lat="44.44426" lon="5.78579">
        <ele>785</ele>
        <time>2019-06-12T14:23:04Z</time>
      </trkpt>
      <trkpt lat="44.44425" lon="5.78584">
        <ele>786</ele>
        <time>2019-06-12T14:23:05Z</time>
      </trkpt>
      <trkpt lat="44.44424" lon="5.78589">
        <ele>787</ele>
        <time>2019-06-12T14:23:06Z</time>
      </trkpt>
      <trkpt lat="44.44424" lon="5.78594">
        <ele>787</ele>
        <time>2019-06-12T14:23:07Z</time>
      </trkpt>
      <trkpt lat="44.44423" lon="5.786">
        <ele>788</ele>
        <time>2019-06-12T14:23:08Z</time>
      </trkpt>
      <trkpt lat="44.44422" lon="5.78605">
        <ele>788</ele>
        <time>2019-06-12T14:23:09Z</time>
      </trkpt>
      <trkpt lat="44.44421" lon="5.7861">
        <ele>789</ele>
        <time>2019-06-12T14:23:10Z</time>
      </trkpt>
      <trkpt lat="44.44421" lon="5.78615">
        <ele>790</ele>
        <time>2019-06-12T14:23:11Z</time>
      </trkpt>
      <trkpt lat="44.44419" lon="5.78619">
        <ele>790</ele>
        <time>2019-06-12T14:23:12Z</time>
      </trkpt>
      <trkpt lat="44.44418" lon="5.78624">
        <ele>791</ele>
        <time>2019-06-12T14:23:13Z</time>
      </trkpt>
      <trkpt lat="44.44416" lon="5.78628">
        <ele>792</ele>
        <time>2019-06-12T14:23:14Z</time>
      </trkpt>
      <trkpt lat="44.44415" lon="5.78632">
        <ele>792</ele>
        <time>2019-06-12T14:23:15Z</time>
      </trkpt>
      <trkpt lat="44.44413" lon="5.78636">
        <ele>793</ele>
        <time>2019-06-12T14:23:16Z</time>
      </trkpt>
      <trkpt lat="44.44412" lon="5.78639">
        <ele>793</ele>
        <time>2019-06-12T14:23:17Z</time>
      </trkpt>
      <trkpt lat="44.44411" lon="5.78642">
        <ele>793</ele>
        <time>2019-06-12T14:23:18Z</time>
      </trkpt>
      <trkpt lat="44.4441" lon="5.78646">
        <ele>793</ele>
        <time>2019-06-12T14:23:19Z</time>
      </trkpt>
      <trkpt lat="44.44408" lon="5.78649">
        <ele>794</ele>
        <time>2019-06-12T14:23:20Z</time>
      </trkpt>
      <trkpt lat="44.44407" lon="5.78652">
        <ele>794</ele>
        <time>2019-06-12T14:23:21Z</time>
      </trkpt>
      <trkpt lat="44.44406" lon="5.78656">
        <ele>794</ele>
        <time>2019-06-12T14:23:22Z</time>
      </trkpt>
      <trkpt lat="44.44405" lon="5.78659">
        <ele>795</ele>
        <time>2019-06-12T14:23:23Z</time>
      </trkpt>
      <trkpt lat="44.44403" lon="5.78662">
        <ele>795</ele>
        <time>2019-06-12T14:23:24Z</time>
      </trkpt>
      <trkpt lat="44.44402" lon="5.78666">
        <ele>796</ele>
        <time>2019-06-12T14:23:25Z</time>
      </trkpt>
      <trkpt lat="44.44402" lon="5.7867">
        <ele>796</ele>
        <time>2019-06-12T14:23:26Z</time>
      </trkpt>
      <trkpt lat="44.44401" lon="5.78673">
        <ele>797</ele>
        <time>2019-06-12T14:23:27Z</time>
      </trkpt>
      <trkpt lat="44.444" lon="5.78677">
        <ele>797</ele>
        <time>2019-06-12T14:23:28Z</time>
      </trkpt>
      <trkpt lat="44.44399" lon="5.78681">
        <ele>797</ele>
        <time>2019-06-12T14:23:29Z</time>
      </trkpt>
      <trkpt lat="44.44399" lon="5.78684">
        <ele>798</ele>
        <time>2019-06-12T14:23:30Z</time>
      </trkpt>
      <trkpt lat="44.44398" lon="5.78688">
        <ele>798</ele>
        <time>2019-06-12T14:23:31Z</time>
      </trkpt>
      <trkpt lat="44.44397" lon="5.78691">
        <ele>799</ele>
        <time>2019-06-12T14:23:32Z</time>
      </trkpt>
      <trkpt lat="44.44395" lon="5.78695">
        <ele>800</ele>
        <time>2019-06-12T14:23:33Z</time>
      </trkpt>
      <trkpt lat="44.44395" lon="5.78698">
        <ele>800</ele>
        <time>2019-06-12T14:23:34Z</time>
      </trkpt>
      <trkpt lat="44.44394" lon="5.78702">
        <ele>801</ele>
        <time>2019-06-12T14:23:35Z</time>
      </trkpt>
      <trkpt lat="44.44394" lon="5.78705">
        <ele>801</ele>
        <time>2019-06-12T14:23:36Z</time>
      </trkpt>
      <trkpt lat="44.44393" lon="5.78709">
        <ele>802</ele>
        <time>2019-06-12T14:23:37Z</time>
      </trkpt>
      <trkpt lat="44.44392" lon="5.78712">
        <ele>802</ele>
        <time>2019-06-12T14:23:38Z</time>
      </trkpt>
      <trkpt lat="44.44392" lon="5.78716">
        <ele>802</ele>
        <time>2019-06-12T14:23:39Z</time>
      </trkpt>
      <trkpt lat="44.44391" lon="5.7872">
        <ele>803</ele>
        <time>2019-06-12T14:23:40Z</time>
      </trkpt>
      <trkpt lat="44.4439" lon="5.78723">
        <ele>803</ele>
        <time>2019-06-12T14:23:41Z</time>
      </trkpt>
      <trkpt lat="44.4439" lon="5.78727">
        <ele>803</ele>
        <time>2019-06-12T14:23:42Z</time>
      </trkpt>
      <trkpt lat="44.44389" lon="5.7873">
        <ele>803</ele>
        <time>2019-06-12T14:23:43Z</time>
      </trkpt>
      <trkpt lat="44.44389" lon="5.78734">
        <ele>803</ele>
        <time>2019-06-12T14:23:44Z</time>
      </trkpt>
      <trkpt lat="44.44388" lon="5.78737">
        <ele>803</ele>
        <time>2019-06-12T14:23:45Z</time>
      </trkpt>
      <trkpt lat="44.44388" lon="5.78741">
        <ele>804</ele>
        <time>2019-06-12T14:23:46Z</time>
      </trkpt>
      <trkpt lat="44.44388" lon="5.78744">
        <ele>804</ele>
        <time>2019-06-12T14:23:47Z</time>
      </trkpt>
      <trkpt lat="44.44387" lon="5.78747">
        <ele>804</ele>
        <time>2019-06-12T14:23:48Z</time>
      </trkpt>
      <trkpt lat="44.44387" lon="5.78751">
        <ele>804</ele>
        <time>2019-06-12T14:23:49Z</time>
      </trkpt>
      <trkpt lat="44.44386" lon="5.78754">
        <ele>805</ele>
        <time>2019-06-12T14:23:50Z</time>
      </trkpt>
      <trkpt lat="44.44386" lon="5.78758">
        <ele>805</ele>
        <time>2019-06-12T14:23:51Z</time>
      </trkpt>
      <trkpt lat="44.44385" lon="5.78761">
        <ele>805</ele>
        <time>2019-06-12T14:23:52Z</time>
      </trkpt>
      <trkpt lat="44.44385" lon="5.78765">
        <ele>805</ele>
        <time>2019-06-12T14:23:53Z</time>
      </trkpt>
      <trkpt lat="44.44384" lon="5.78768">
        <ele>806</ele>
        <time>2019-06-12T14:23:54Z</time>
      </trkpt>
      <trkpt lat="44.44384" lon="5.78771">
        <ele>806</ele>
        <time>2019-06-12T14:23:55Z</time>
      </trkpt>
      <trkpt lat="44.44383" lon="5.78774">
        <ele>806</ele>
        <time>2019-06-12T14:23:56Z</time>
      </trkpt>
      <trkpt lat="44.44383" lon="5.78778">
        <ele>807</ele>
        <time>2019-06-12T14:23:57Z</time>
      </trkpt>
      <trkpt lat="44.44382" lon="5.78781">
        <ele>807</ele>
        <time>2019-06-12T14:23:58Z</time>
      </trkpt>
      <trkpt lat="44.44382" lon="5.78784">
        <ele>807</ele>
        <time>2019-06-12T14:23:59Z</time>
      </trkpt>
      <trkpt lat="44.44382" lon="5.78787">
        <ele>807</ele>
        <time>2019-06-12T14:24:00Z</time>
      </trkpt>
      <trkpt lat="44.44381" lon="5.7879">
        <ele>807</ele>
        <time>2019-06-12T14:24:01Z</time>
      </trkpt>
      <trkpt lat="44.44381" lon="5.78794">
        <ele>808</ele>
        <time>2019-06-12T14:24:02Z</time>
      </trkpt>
      <trkpt lat="44.4438" lon="5.78797">
        <ele>808</ele>
        <time>2019-06-12T14:24:03Z</time>
      </trkpt>
      <trkpt lat="44.44379" lon="5.788">
        <ele>808</ele>
        <time>2019-06-12T14:24:04Z</time>
      </trkpt>
      <trkpt lat="44.44379" lon="5.78803">
        <ele>808</ele>
        <time>2019-06-12T14:24:05Z</time>
      </trkpt>
      <trkpt lat="44.44378" lon="5.78806">
        <ele>808</ele>
        <time>2019-06-12T14:24:06Z</time>
      </trkpt>
      <trkpt lat="44.44378" lon="5.78809">
        <ele>808</ele>
        <time>2019-06-12T14:24:07Z</time>
      </trkpt>
      <trkpt lat="44.44377" lon="5.78813">
        <ele>808</ele>
        <time>2019-06-12T14:24:08Z</time>
      </trkpt>
      <trkpt lat="44.44377" lon="5.78816">
        <ele>808</ele>
        <time>2019-06-12T14:24:09Z</time>
      </trkpt>
      <trkpt lat="44.44376" lon="5.78819">
        <ele>808</ele>
        <time>2019-06-12T14:24:10Z</time>
      </trkpt>
      <trkpt lat="44.44376" lon="5.78822">
        <ele>809</ele>
        <time>2019-06-12T14:24:11Z</time>
      </trkpt>
      <trkpt lat="44.44375" lon="5.78825">
        <ele>809</ele>
        <time>2019-06-12T14:24:12Z</time>
      </trkpt>
      <trkpt lat="44.44374" lon="5.78828">
        <ele>809</ele>
        <time>2019-06-12T14:24:13Z</time>
      </trkpt>
      <trkpt lat="44.44373" lon="5.7883">
        <ele>809</ele>
        <time>2019-06-12T14:24:14Z</time>
      </trkpt>
      <trkpt lat="44.44372" lon="5.78833">
        <ele>809</ele>
        <time>2019-06-12T14:24:15Z</time>
      </trkpt>
      <trkpt lat="44.44371" lon="5.78836">
        <ele>809</ele>
        <time>2019-06-12T14:24:16Z</time>
      </trkpt>
      <trkpt lat="44.44371" lon="5.78839">
        <ele>809</ele>
        <time>2019-06-12T14:24:17Z</time>
      </trkpt>
      <trkpt lat="44.4437" lon="5.78842">
        <ele>809</ele>
        <time>2019-06-12T14:24:18Z</time>
      </trkpt>
      <trkpt lat="44.44369" lon="5.78845">
        <ele>809</ele>
        <time>2019-06-12T14:24:19Z</time>
      </trkpt>
      <trkpt lat="44.44368" lon="5.78848">
        <ele>809</ele>
        <time>2019-06-12T14:24:20Z</time>
      </trkpt>
      <trkpt lat="44.44367" lon="5.78851">
        <ele>809</ele>
        <time>2019-06-12T14:24:21Z</time>
      </trkpt>
      <trkpt lat="44.44366" lon="5.78854">
        <ele>809</ele>
        <time>2019-06-12T14:24:22Z</time>
      </trkpt>
      <trkpt lat="44.44365" lon="5.78857">
        <ele>809</ele>
        <time>2019-06-12T14:24:23Z</time>
      </trkpt>
      <trkpt lat="44.44363" lon="5.7886">
        <ele>809</ele>
        <time>2019-06-12T14:24:24Z</time>
      </trkpt>
      <trkpt lat="44.44362" lon="5.78862">
        <ele>809</ele>
        <time>2019-06-12T14:24:25Z</time>
      </trkpt>
      <trkpt lat="44.4436" lon="5.78865">
        <ele>809</ele>
        <time>2019-06-12T14:24:26Z</time>
      </trkpt>
      <trkpt lat="44.44359" lon="5.78868">
        <ele>809</ele>
        <time>2019-06-12T14:24:27Z</time>
      </trkpt>
      <trkpt lat="44.44358" lon="5.7887">
        <ele>809</ele>
        <time>2019-06-12T14:24:28Z</time>
      </trkpt>
      <trkpt lat="44.44356" lon="5.78873">
        <ele>809</ele>
        <time>2019-06-12T14:24:29Z</time>
      </trkpt>
      <trkpt lat="44.44354" lon="5.78875">
        <ele>809</ele>
        <time>2019-06-12T14:24:30Z</time>
      </trkpt>
      <trkpt lat="44.44352" lon="5.78878">
        <ele>809</ele>
        <time>2019-06-12T14:24:31Z</time>
      </trkpt>
      <trkpt lat="44.4435" lon="5.7888">
        <ele>809</ele>
        <time>2019-06-12T14:24:32Z</time>
      </trkpt>
      <trkpt lat="44.44348" lon="5.78882">
        <ele>809</ele>
        <time>2019-06-12T14:24:33Z</time>
      </trkpt>
      <trkpt lat="44.44346" lon="5.78885">
        <ele>809</ele>
        <time>2019-06-12T14:24:34Z</time>
      </trkpt>
      <trkpt lat="44.44344" lon="5.78887">
        <ele>809</ele>
        <time>2019-06-12T14:24:35Z</time>
      </trkpt>
      <trkpt lat="44.44342" lon="5.7889">
        <ele>809</ele>
        <time>2019-06-12T14:24:36Z</time>
      </trkpt>
      <trkpt lat="44.4434" lon="5.78892">
        <ele>809</ele>
        <time>2019-06-12T14:24:37Z</time>
      </trkpt>
      <trkpt lat="44.44338" lon="5.78894">
        <ele>810</ele>
        <time>2019-06-12T14:24:38Z</time>
      </trkpt>
      <trkpt lat="44.44336" lon="5.78896">
        <ele>810</ele>
        <time>2019-06-12T14:24:39Z</time>
      </trkpt>
      <trkpt lat="44.44333" lon="5.78898">
        <ele>811</ele>
        <time>2019-06-12T14:24:40Z</time>
      </trkpt>
      <trkpt lat="44.44331" lon="5.78899">
        <ele>811</ele>
        <time>2019-06-12T14:24:41Z</time>
      </trkpt>
      <trkpt lat="44.44329" lon="5.78901">
        <ele>811</ele>
        <time>2019-06-12T14:24:42Z</time>
      </trkpt>
      <trkpt lat="44.44326" lon="5.78903">
        <ele>812</ele>
        <time>2019-06-12T14:24:43Z</time>
      </trkpt>
      <trkpt lat="44.44324" lon="5.78904">
        <ele>812</ele>
        <time>2019-06-12T14:24:44Z</time>
      </trkpt>
      <trkpt lat="44.44322" lon="5.78906">
        <ele>812</ele>
        <time>2019-06-12T14:24:45Z</time>
      </trkpt>
      <trkpt lat="44.4432" lon="5.78908">
        <ele>813</ele>
        <time>2019-06-12T14:24:46Z</time>
      </trkpt>
      <trkpt lat="44.44318" lon="5.78909">
        <ele>813</ele>
        <time>2019-06-12T14:24:47Z</time>
      </trkpt>
      <trkpt lat="44.44316" lon="5.78911">
        <ele>813</ele>
        <time>2019-06-12T14:24:48Z</time>
      </trkpt>
      <trkpt lat="44.44313" lon="5.78912">
        <ele>814</ele>
        <time>2019-06-12T14:24:49Z</time>
      </trkpt>
      <trkpt lat="44.44311" lon="5.78914">
        <ele>814</ele>
        <time>2019-06-12T14:24:50Z</time>
      </trkpt>
      <trkpt lat="44.44309" lon="5.78915">
        <ele>814</ele>
        <time>2019-06-12T14:24:51Z</time>
      </trkpt>
      <trkpt lat="44.44307" lon="5.78917">
        <ele>814</ele>
        <time>2019-06-12T14:24:52Z</time>
      </trkpt>
      <trkpt lat="44.44304" lon="5.78919">
        <ele>815</ele>
        <time>2019-06-12T14:24:53Z</time>
      </trkpt>
      <trkpt lat="44.44302" lon="5.7892">
        <ele>815</ele>
        <time>2019-06-12T14:24:54Z</time>
      </trkpt>
      <trkpt lat="44.443" lon="5.78922">
        <ele>815</ele>
        <time>2019-06-12T14:24:55Z</time>
      </trkpt>
      <trkpt lat="44.44297" lon="5.78923">
        <ele>815</ele>
        <time>2019-06-12T14:24:56Z</time>
      </trkpt>
      <trkpt lat="44.44295" lon="5.78925">
        <ele>816</ele>
        <time>2019-06-12T14:24:57Z</time>
      </trkpt>
      <trkpt lat="44.44293" lon="5.78927">
        <ele>816</ele>
        <time>2019-06-12T14:24:58Z</time>
      </trkpt>
      <trkpt lat="44.4429" lon="5.78928">
        <ele>816</ele>
        <time>2019-06-12T14:24:59Z</time>
      </trkpt>
      <trkpt lat="44.44288" lon="5.7893">
        <ele>817</ele>
        <time>2019-06-12T14:25:00Z</time>
      </trkpt>
      <trkpt lat="44.44286" lon="5.78932">
        <ele>817</ele>
        <time>2019-06-12T14:25:01Z</time>
      </trkpt>
      <trkpt lat="44.44283" lon="5.78933">
        <ele>817</ele>
        <time>2019-06-12T14:25:02Z</time>
      </trkpt>
      <trkpt lat="44.44281" lon="5.78935">
        <ele>818</ele>
        <time>2019-06-12T14:25:03Z</time>
      </trkpt>
      <trkpt lat="44.44278" lon="5.78937">
        <ele>818</ele>
        <time>2019-06-12T14:25:04Z</time>
      </trkpt>
      <trkpt lat="44.44276" lon="5.78938">
        <ele>818</ele>
        <time>2019-06-12T14:25:05Z</time>
      </trkpt>
      <trkpt lat="44.44273" lon="5.7894">
        <ele>819</ele>
        <time>2019-06-12T14:25:06Z</time>
      </trkpt>
      <trkpt lat="44.4427" lon="5.78941">
        <ele>819</ele>
        <time>2019-06-12T14:25:07Z</time>
      </trkpt>
      <trkpt lat="44.44268" lon="5.78943">
        <ele>819</ele>
        <time>2019-06-12T14:25:08Z</time>
      </trkpt>
      <trkpt lat="44.44265" lon="5.78945">
        <ele>819</ele>
        <time>2019-06-12T14:25:09Z</time>
      </trkpt>
      <trkpt lat="44.44263" lon="5.78947">
        <ele>819</ele>
        <time>2019-06-12T14:25:10Z</time>
      </trkpt>
      <trkpt lat="44.4426" lon="5.78949">
        <ele>819</ele>
        <time>2019-06-12T14:25:11Z</time>
      </trkpt>
      <trkpt lat="44.44258" lon="5.78951">
        <ele>819</ele>
        <time>2019-06-12T14:25:12Z</time>
      </trkpt>
      <trkpt lat="44.44255" lon="5.78952">
        <ele>819</ele>
        <time>2019-06-12T14:25:13Z</time>
      </trkpt>
      <trkpt lat="44.44252" lon="5.78954">
        <ele>820</ele>
        <time>2019-06-12T14:25:14Z</time>
      </trkpt>
      <trkpt lat="44.44249" lon="5.78955">
        <ele>820</ele>
        <time>2019-06-12T14:25:15Z</time>
      </trkpt>
      <trkpt lat="44.44246" lon="5.78956">
        <ele>821</ele>
        <time>2019-06-12T14:25:16Z</time>
      </trkpt>
      <trkpt lat="44.44244" lon="5.78957">
        <ele>821</ele>
        <time>2019-06-12T14:25:17Z</time>
      </trkpt>
      <trkpt lat="44.44241" lon="5.78959">
        <ele>822</ele>
        <time>2019-06-12T14:25:18Z</time>
      </trkpt>
      <trkpt lat="44.44238" lon="5.7896">
        <ele>822</ele>
        <time>2019-06-12T14:25:19Z</time>
      </trkpt>
      <trkpt lat="44.44235" lon="5.78961">
        <ele>822</ele>
        <time>2019-06-12T14:25:20Z</time>
      </trkpt>
      <trkpt lat="44.44232" lon="5.78962">
        <ele>822</ele>
        <time>2019-06-12T14:25:21Z</time>
      </trkpt>
      <trkpt lat="44.44229" lon="5.78963">
        <ele>823</ele>
        <time>2019-06-12T14:25:22Z</time>
      </trkpt>
      <trkpt lat="44.44227" lon="5.78964">
        <ele>823</ele>
        <time>2019-06-12T14:25:23Z</time>
      </trkpt>
      <trkpt lat="44.44224" lon="5.78965">
        <ele>823</ele>
        <time>2019-06-12T14:25:24Z</time>
      </trkpt>
      <trkpt lat="44.44221" lon="5.78966">
        <ele>823</ele>
        <time>2019-06-12T14:25:25Z</time>
      </trkpt>
      <trkpt lat="44.44218" lon="5.78966">
        <ele>823</ele>
        <time>2019-06-12T14:25:26Z</time>
      </trkpt>
      <trkpt lat="44.44216" lon="5.78967">
        <ele>823</ele>
        <time>2019-06-12T14:25:27Z</time>
      </trkpt>
      <trkpt lat="44.44213" lon="5.78969">
        <ele>824</ele>
        <time>2019-06-12T14:25:28Z</time>
      </trkpt>
      <trkpt lat="44.44211" lon="5.78971">
        <ele>824</ele>
        <time>2019-06-12T14:25:29Z</time>
      </trkpt>
      <trkpt lat="44.44209" lon="5.78972">
        <ele>824</ele>
        <time>2019-06-12T14:25:30Z</time>
      </trkpt>
      <trkpt lat="44.44206" lon="5.78974">
        <ele>824</ele>
        <time>2019-06-12T14:25:31Z</time>
      </trkpt>
      <trkpt lat="44.44204" lon="5.78976">
        <ele>825</ele>
        <time>2019-06-12T14:25:32Z</time>
      </trkpt>
      <trkpt lat="44.44202" lon="5.78978">
        <ele>825</ele>
        <time>2019-06-12T14:25:33Z</time>
      </trkpt>
      <trkpt lat="44.44199" lon="5.7898">
        <ele>825</ele>
        <time>2019-06-12T14:25:34Z</time>
      </trkpt>
      <trkpt lat="44.44197" lon="5.78983">
        <ele>825</ele>
        <time>2019-06-12T14:25:35Z</time>
      </trkpt>
      <trkpt lat="44.44195" lon="5.78986">
        <ele>825</ele>
        <time>2019-06-12T14:25:36Z</time>
      </trkpt>
      <trkpt lat="44.44193" lon="5.78989">
        <ele>825</ele>
        <time>2019-06-12T14:25:37Z</time>
      </trkpt>
      <trkpt lat="44.44191" lon="5.78992">
        <ele>825</ele>
        <time>2019-06-12T14:25:38Z</time>
      </trkpt>
      <trkpt lat="44.44189" lon="5.78995">
        <ele>825</ele>
        <time>2019-06-12T14:25:39Z</time>
      </trkpt>
      <trkpt lat="44.44188" lon="5.78999">
        <ele>825</ele>
        <time>2019-06-12T14:25:40Z</time>
      </trkpt>
      <trkpt lat="44.44186" lon="5.79002">
        <ele>825</ele>
        <time>2019-06-12T14:25:41Z</time>
      </trkpt>
      <trkpt lat="44.44184" lon="5.79005">
        <ele>825</ele>
        <time>2019-06-12T14:25:42Z</time>
      </trkpt>
      <trkpt lat="44.44182" lon="5.79009">
        <ele>825</ele>
        <time>2019-06-12T14:25:43Z</time>
      </trkpt>
      <trkpt lat="44.44181" lon="5.79012">
        <ele>825</ele>
        <time>2019-06-12T14:25:44Z</time>
      </trkpt>
      <trkpt lat="44.44179" lon="5.79016">
        <ele>826</ele>
        <time>2019-06-12T14:25:45Z</time>
      </trkpt>
      <trkpt lat="44.44177" lon="5.79019">
        <ele>826</ele>
        <time>2019-06-12T14:25:46Z</time>
      </trkpt>
      <trkpt lat="44.44175" lon="5.79023">
        <ele>826</ele>
        <time>2019-06-12T14:25:47Z</time>
      </trkpt>
      <trkpt lat="44.44173" lon="5.79026">
        <ele>827</ele>
        <time>2019-06-12T14:25:48Z</time>
      </trkpt>
      <trkpt lat="44.44172" lon="5.7903">
        <ele>827</ele>
        <time>2019-06-12T14:25:49Z</time>
      </trkpt>
      <trkpt lat="44.4417" lon="5.79034">
        <ele>827</ele>
        <time>2019-06-12T14:25:50Z</time>
      </trkpt>
      <trkpt lat="44.44169" lon="5.79038">
        <ele>827</ele>
        <time>2019-06-12T14:25:51Z</time>
      </trkpt>
      <trkpt lat="44.44167" lon="5.79042">
        <ele>827</ele>
        <time>2019-06-12T14:25:52Z</time>
      </trkpt>
      <trkpt lat="44.44166" lon="5.79046">
        <ele>827</ele>
        <time>2019-06-12T14:25:53Z</time>
      </trkpt>
      <trkpt lat="44.44164" lon="5.7905">
        <ele>827</ele>
        <time>2019-06-12T14:25:54Z</time>
      </trkpt>
      <trkpt lat="44.44162" lon="5.79054">
        <ele>827</ele>
        <time>2019-06-12T14:25:55Z</time>
      </trkpt>
      <trkpt lat="44.44161" lon="5.79059">
        <ele>827</ele>
        <time>2019-06-12T14:25:56Z</time>
      </trkpt>
      <trkpt lat="44.44159" lon="5.79063">
        <ele>827</ele>
        <time>2019-06-12T14:25:57Z</time>
      </trkpt>
      <trkpt lat="44.44157" lon="5.79067">
        <ele>827</ele>
        <time>2019-06-12T14:25:58Z</time>
      </trkpt>
      <trkpt lat="44.44155" lon="5.79071">
        <ele>828</ele>
        <time>2019-06-12T14:25:59Z</time>
      </trkpt>
      <trkpt lat="44.44153" lon="5.79075">
        <ele>828</ele>
        <time>2019-06-12T14:26:00Z</time>
      </trkpt>
      <trkpt lat="44.44152" lon="5.79079">
        <ele>828</ele>
        <time>2019-06-12T14:26:01Z</time>
      </trkpt>
      <trkpt lat="44.4415" lon="5.79083">
        <ele>828</ele>
        <time>2019-06-12T14:26:02Z</time>
      </trkpt>
      <trkpt lat="44.44148" lon="5.79087">
        <ele>828</ele>
        <time>2019-06-12T14:26:03Z</time>
      </trkpt>
      <trkpt lat="44.44146" lon="5.79092">
        <ele>828</ele>
        <time>2019-06-12T14:26:04Z</time>
      </trkpt>
      <trkpt lat="44.44145" lon="5.79096">
        <ele>828</ele>
        <time>2019-06-12T14:26:05Z</time>
      </trkpt>
      <trkpt lat="44.44143" lon="5.791">
        <ele>828</ele>
        <time>2019-06-12T14:26:06Z</time>
      </trkpt>
      <trkpt lat="44.44141" lon="5.79104">
        <ele>828</ele>
        <time>2019-06-12T14:26:07Z</time>
      </trkpt>
      <trkpt lat="44.44139" lon="5.79108">
        <ele>828</ele>
        <time>2019-06-12T14:26:08Z</time>
      </trkpt>
      <trkpt lat="44.44137" lon="5.79113">
        <ele>829</ele>
        <time>2019-06-12T14:26:09Z</time>
      </trkpt>
      <trkpt lat="44.44135" lon="5.79118">
        <ele>829</ele>
        <time>2019-06-12T14:26:10Z</time>
      </trkpt>
      <trkpt lat="44.44132" lon="5.79123">
        <ele>829</ele>
        <time>2019-06-12T14:26:11Z</time>
      </trkpt>
      <trkpt lat="44.4413" lon="5.79128">
        <ele>829</ele>
        <time>2019-06-12T14:26:12Z</time>
      </trkpt>
      <trkpt lat="44.44127" lon="5.79133">
        <ele>829</ele>
        <time>2019-06-12T14:26:13Z</time>
      </trkpt>
      <trkpt lat="44.44125" lon="5.79138">
        <ele>830</ele>
        <time>2019-06-12T14:26:14Z</time>
      </trkpt>
      <trkpt lat="44.44122" lon="5.79143">
        <ele>830</ele>
        <time>2019-06-12T14:26:15Z</time>
      </trkpt>
      <trkpt lat="44.4412" lon="5.79148">
        <ele>830</ele>
        <time>2019-06-12T14:26:16Z</time>
      </trkpt>
      <trkpt lat="44.44117" lon="5.79153">
        <ele>830</ele>
        <time>2019-06-12T14:26:17Z</time>
      </trkpt>
      <trkpt lat="44.44114" lon="5.79158">
        <ele>830</ele>
        <time>2019-06-12T14:26:18Z</time>
      </trkpt>
      <trkpt lat="44.44111" lon="5.79163">
        <ele>830</ele>
        <time>2019-06-12T14:26:19Z</time>
      </trkpt>
      <trkpt lat="44.44108" lon="5.79169">
        <ele>830</ele>
        <time>2019-06-12T14:26:20Z</time>
      </trkpt>
      <trkpt lat="44.44105" lon="5.79174">
        <ele>830</ele>
        <time>2019-06-12T14:26:21Z</time>
      </trkpt>
      <trkpt lat="44.44102" lon="5.79179">
        <ele>830</ele>
        <time>2019-06-12T14:26:22Z</time>
      </trkpt>
      <trkpt lat="44.44099" lon="5.79184">
        <ele>830</ele>
        <time>2019-06-12T14:26:23Z</time>
      </trkpt>
      <trkpt lat="44.44097" lon="5.79189">
        <ele>830</ele>
        <time>2019-06-12T14:26:24Z</time>
      </trkpt>
      <trkpt lat="44.44094" lon="5.79194">
        <ele>831</ele>
        <time>2019-06-12T14:26:25Z</time>
      </trkpt>
      <trkpt lat="44.44092" lon="5.79198">
        <ele>832</ele>
        <time>2019-06-12T14:26:26Z</time>
      </trkpt>
      <trkpt lat="44.44089" lon="5.79203">
        <ele>832</ele>
        <time>2019-06-12T14:26:27Z</time>
      </trkpt>
      <trkpt lat="44.44087" lon="5.79208">
        <ele>832</ele>
        <time>2019-06-12T14:26:28Z</time>
      </trkpt>
      <trkpt lat="44.44084" lon="5.79212">
        <ele>833</ele>
        <time>2019-06-12T14:26:29Z</time>
      </trkpt>
      <trkpt lat="44.44082" lon="5.79217">
        <ele>833</ele>
        <time>2019-06-12T14:26:30Z</time>
      </trkpt>
      <trkpt lat="44.44079" lon="5.79221">
        <ele>833</ele>
        <time>2019-06-12T14:26:31Z</time>
      </trkpt>
      <trkpt lat="44.44077" lon="5.79225">
        <ele>833</ele>
        <time>2019-06-12T14:26:32Z</time>
      </trkpt>
      <trkpt lat="44.44074" lon="5.79229">
        <ele>834</ele>
        <time>2019-06-12T14:26:33Z</time>
      </trkpt>
      <trkpt lat="44.44071" lon="5.79233">
        <ele>834</ele>
        <time>2019-06-12T14:26:34Z</time>
      </trkpt>
      <trkpt lat="44.44068" lon="5.79236">
        <ele>834</ele>
        <time>2019-06-12T14:26:35Z</time>
      </trkpt>
      <trkpt lat="44.44065" lon="5.79239">
        <ele>834</ele>
        <time>2019-06-12T14:26:36Z</time>
      </trkpt>
      <trkpt lat="44.44062" lon="5.79242">
        <ele>834</ele>
        <time>2019-06-12T14:26:37Z</time>
      </trkpt>
      <trkpt lat="44.44059" lon="5.79246">
        <ele>834</ele>
        <time>2019-06-12T14:26:38Z</time>
      </trkpt>
      <trkpt lat="44.44056" lon="5.79249">
        <ele>834</ele>
        <time>2019-06-12T14:26:39Z</time>
      </trkpt>
      <trkpt lat="44.44053" lon="5.79252">
        <ele>834</ele>
        <time>2019-06-12T14:26:40Z</time>
      </trkpt>
      <trkpt lat="44.44049" lon="5.79254">
        <ele>834</ele>
        <time>2019-06-12T14:26:41Z</time>
      </trkpt>
      <trkpt lat="44.44046" lon="5.79257">
        <ele>834</ele>
        <time>2019-06-12T14:26:42Z</time>
      </trkpt>
      <trkpt lat="44.44042" lon="5.79259">
        <ele>834</ele>
        <time>2019-06-12T14:26:43Z</time>
      </trkpt>
      <trkpt lat="44.44038" lon="5.79261">
        <ele>834</ele>
        <time>2019-06-12T14:26:44Z</time>
      </trkpt>
      <trkpt lat="44.44035" lon="5.79263">
        <ele>834</ele>
        <time>2019-06-12T14:26:45Z</time>
      </trkpt>
      <trkpt lat="44.44031" lon="5.79266">
        <ele>835</ele>
        <time>2019-06-12T14:26:46Z</time>
      </trkpt>
      <trkpt lat="44.44028" lon="5.79268">
        <ele>835</ele>
        <time>2019-06-12T14:26:47Z</time>
      </trkpt>
      <trkpt lat="44.44024" lon="5.7927">
        <ele>835</ele>
        <time>2019-06-12T14:26:48Z</time>
      </trkpt>
      <trkpt lat="44.44021" lon="5.79272">
        <ele>835</ele>
        <time>2019-06-12T14:26:49Z</time>
      </trkpt>
      <trkpt lat="44.44018" lon="5.79273">
        <ele>835</ele>
        <time>2019-06-12T14:26:50Z</time>
      </trkpt>
      <trkpt lat="44.44015" lon="5.79274">
        <ele>835</ele>
        <time>2019-06-12T14:26:51Z</time>
      </trkpt>
      <trkpt lat="44.44013" lon="5.79275">
        <ele>836</ele>
        <time>2019-06-12T14:26:52Z</time>
      </trkpt>
      <trkpt lat="44.44011" lon="5.79276">
        <ele>836</ele>
        <time>2019-06-12T14:26:53Z</time>
      </trkpt>
      <trkpt lat="44.4401" lon="5.79276">
        <ele>837</ele>
        <time>2019-06-12T14:26:55Z</time>
      </trkpt>
      <trkpt lat="44.44009" lon="5.79277">
        <ele>838</ele>
        <time>2019-06-12T14:27:04Z</time>
      </trkpt>
      <trkpt lat="44.44007" lon="5.79278">
        <ele>839</ele>
        <time>2019-06-12T14:27:10Z</time>
      </trkpt>
      <trkpt lat="44.44006" lon="5.79278">
        <ele>839</ele>
        <time>2019-06-12T14:27:13Z</time>
      </trkpt>
      <trkpt lat="44.44006" lon="5.7928">
        <ele>840</ele>
        <time>2019-06-12T14:27:37Z</time>
      </trkpt>
      <trkpt lat="44.44005" lon="5.79281">
        <ele>845</ele>
        <time>2019-06-12T14:27:57Z</time>
      </trkpt>
      <trkpt lat="44.44006" lon="5.79281">
        <ele>850</ele>
        <time>2019-06-12T14:28:32Z</time>
      </trkpt>
      <trkpt lat="44.44007" lon="5.7928">
        <ele>854</ele>
        <time>2019-06-12T14:28:41Z</time>
      </trkpt>
      <trkpt lat="44.44007" lon="5.79281">
        <ele>854</ele>
        <time>2019-06-12T14:28:56Z</time>
      </trkpt>
      <trkpt lat="44.44009" lon="5.7928">
        <ele>854</ele>
        <time>2019-06-12T14:29:08Z</time>
      </trkpt>
      <trkpt lat="44.4401" lon="5.79278">
        <ele>854</ele>
        <time>2019-06-12T14:29:11Z</time>
      </trkpt>
      <trkpt lat="44.44011" lon="5.79277">
        <ele>857</ele>
        <time>2019-06-12T14:29:16Z</time>
      </trkpt>
      <trkpt lat="44.4401" lon="5.79277">
        <ele>854</ele>
        <time>2019-06-12T14:29:55Z</time>
      </trkpt>
      <trkpt lat="44.44009" lon="5.79279">
        <ele>850</ele>
        <time>2019-06-12T14:30:02Z</time>
      </trkpt>
      <trkpt lat="44.4401" lon="5.79277">
        <ele>848</ele>
        <time>2019-06-12T14:30:31Z</time>
      </trkpt>
      <trkpt lat="44.44011" lon="5.79277">
        <ele>848</ele>
        <time>2019-06-12T14:30:34Z</time>
      </trkpt>
      <trkpt lat="44.44012" lon="5.79276">
        <ele>848</ele>
        <time>2019-06-12T14:30:40Z</time>
      </trkpt>
      <trkpt lat="44.44013" lon="5.79276">
        <ele>848</ele>
        <time>2019-06-12T14:30:42Z</time>
      </trkpt>
      <trkpt lat="44.44014" lon="5.79275">
        <ele>848</ele>
        <time>2019-06-12T14:30:44Z</time>
      </trkpt>
      <trkpt lat="44.44016" lon="5.79273">
        <ele>848</ele>
        <time>2019-06-12T14:30:46Z</time>
      </trkpt>
      <trkpt lat="44.44016" lon="5.79271">
        <ele>848</ele>
        <time>2019-06-12T14:30:49Z</time>
      </trkpt>
      <trkpt lat="44.44015" lon="5.79272">
        <ele>848</ele>
        <time>2019-06-12T14:31:00Z</time>
      </trkpt>
      <trkpt lat="44.44014" lon="5.79272">
        <ele>847</ele>
        <time>2019-06-12T14:31:02Z</time>
      </trkpt>
      <trkpt lat="44.44012" lon="5.79272">
        <ele>847</ele>
        <time>2019-06-12T14:31:04Z</time>
      </trkpt>
      <trkpt lat="44.44011" lon="5.79273">
        <ele>847</ele>
        <time>2019-06-12T14:31:07Z</time>
      </trkpt>
      <trkpt lat="44.44009" lon="5.79274">
        <ele>846</ele>
        <time>2019-06-12T14:31:10Z</time>
      </trkpt>
      <trkpt lat="44.44008" lon="5.79275">
        <ele>846</ele>
        <time>2019-06-12T14:31:13Z</time>
      </trkpt>
      <trkpt lat="44.44008" lon="5.79276">
        <ele>845</ele>
        <time>2019-06-12T14:32:06Z</time>
      </trkpt>
      <trkpt lat="44.44007" lon="5.79278">
        <ele>845</ele>
        <time>2019-06-12T14:32:10Z</time>
      </trkpt>
      <trkpt lat="44.44006" lon="5.79279">
        <ele>845</ele>
        <time>2019-06-12T14:32:14Z</time>
      </trkpt>
      <trkpt lat="44.44005" lon="5.7928">
        <ele>845</ele>
        <time>2019-06-12T14:32:20Z</time>
      </trkpt>
      <trkpt lat="44.44003" lon="5.79281">
        <ele>845</ele>
        <time>2019-06-12T14:32:22Z</time>
      </trkpt>
      <trkpt lat="44.44001" lon="5.79282">
        <ele>845</ele>
        <time>2019-06-12T14:32:24Z</time>
      </trkpt>
      <trkpt lat="44.43999" lon="5.79283">
        <ele>845</ele>
        <time>2019-06-12T14:32:26Z</time>
      </trkpt>
      <trkpt lat="44.43998" lon="5.79284">
        <ele>845</ele>
        <time>2019-06-12T14:32:27Z</time>
      </trkpt>
      <trkpt lat="44.43997" lon="5.79285">
        <ele>845</ele>
        <time>2019-06-12T14:32:28Z</time>
      </trkpt>
      <trkpt lat="44.43995" lon="5.79285">
        <ele>845</ele>
        <time>2019-06-12T14:32:29Z</time>
      </trkpt>
      <trkpt lat="44.43994" lon="5.79286">
        <ele>845</ele>
        <time>2019-06-12T14:32:30Z</time>
      </trkpt>
      <trkpt lat="44.43993" lon="5.79287">
        <ele>845</ele>
        <time>2019-06-12T14:32:31Z</time>
      </trkpt>
      <trkpt lat="44.43991" lon="5.79287">
        <ele>845</ele>
        <time>2019-06-12T14:32:32Z</time>
      </trkpt>
      <trkpt lat="44.43989" lon="5.79287">
        <ele>845</ele>
        <time>2019-06-12T14:32:33Z</time>
      </trkpt>
      <trkpt lat="44.43987" lon="5.79288">
        <ele>845</ele>
        <time>2019-06-12T14:32:34Z</time>
      </trkpt>
      <trkpt lat="44.43984" lon="5.79288">
        <ele>845</ele>
        <time>2019-06-12T14:32:35Z</time>
      </trkpt>
      <trkpt lat="44.43982" lon="5.79289">
        <ele>845</ele>
        <time>2019-06-12T14:32:36Z</time>
      </trkpt>
      <trkpt lat="44.43979" lon="5.79291">
        <ele>845</ele>
        <time>2019-06-12T14:32:37Z</time>
      </trkpt>
      <trkpt lat="44.43976" lon="5.79292">
        <ele>845</ele>
        <time>2019-06-12T14:32:38Z</time>
      </trkpt>
      <trkpt lat="44.43973" lon="5.79293">
        <ele>845</ele>
        <time>2019-06-12T14:32:39Z</time>
      </trkpt>
      <trkpt lat="44.4397" lon="5.79293">
        <ele>845</ele>
        <time>2019-06-12T14:32:40Z</time>
      </trkpt>
      <trkpt lat="44.43966" lon="5.79294">
        <ele>845</ele>
        <time>2019-06-12T14:32:41Z</time>
      </trkpt>
      <trkpt lat="44.43963" lon="5.79295">
        <ele>845</ele>
        <time>2019-06-12T14:32:42Z</time>
      </trkpt>
      <trkpt lat="44.43959" lon="5.79296">
        <ele>845</ele>
        <time>2019-06-12T14:32:43Z</time>
      </trkpt>
      <trkpt lat="44.43955" lon="5.79297">
        <ele>845</ele>
        <time>2019-06-12T14:32:44Z</time>
      </trkpt>
      <trkpt lat="44.43951" lon="5.79298">
        <ele>845</ele>
        <time>2019-06-12T14:32:45Z</time>
      </trkpt>
      <trkpt lat="44.43947" lon="5.79298">
        <ele>845</ele>
        <time>2019-06-12T14:32:46Z</time>
      </trkpt>
      <trkpt lat="44.43943" lon="5.79299">
        <ele>845</ele>
        <time>2019-06-12T14:32:47Z</time>
      </trkpt>
      <trkpt lat="44.43939" lon="5.79299">
        <ele>845</ele>
        <time>2019-06-12T14:32:48Z</time>
      </trkpt>
      <trkpt lat="44.43934" lon="5.793">
        <ele>845</ele>
        <time>2019-06-12T14:32:49Z</time>
      </trkpt>
      <trkpt lat="44.4393" lon="5.793">
        <ele>845</ele>
        <time>2019-06-12T14:32:50Z</time>
      </trkpt>
      <trkpt lat="44.43925" lon="5.79301">
        <ele>845</ele>
        <time>2019-06-12T14:32:51Z</time>
      </trkpt>
      <trkpt lat="44.43921" lon="5.79302">
        <ele>845</ele>
        <time>2019-06-12T14:32:52Z</time>
      </trkpt>
      <trkpt lat="44.43916" lon="5.79302">
        <ele>845</ele>
        <time>2019-06-12T14:32:53Z</time>
      </trkpt>
      <trkpt lat="44.43911" lon="5.79303">
        <ele>845</ele>
        <time>2019-06-12T14:32:54Z</time>
      </trkpt>
      <trkpt lat="44.43907" lon="5.79303">
        <ele>845</ele>
        <time>2019-06-12T14:32:55Z</time>
      </trkpt>
      <trkpt lat="44.43902" lon="5.79304">
        <ele>845</ele>
        <time>2019-06-12T14:32:56Z</time>
      </trkpt>
      <trkpt lat="44.43897" lon="5.79306">
        <ele>845</ele>
        <time>2019-06-12T14:32:57Z</time>
      </trkpt>
      <trkpt lat="44.43893" lon="5.79307">
        <ele>845</ele>
        <time>2019-06-12T14:32:58Z</time>
      </trkpt>
      <trkpt lat="44.43887" lon="5.79309">
        <ele>845</ele>
        <time>2019-06-12T14:32:59Z</time>
      </trkpt>
      <trkpt lat="44.43882" lon="5.7931">
        <ele>845</ele>
        <time>2019-06-12T14:33:00Z</time>
      </trkpt>
      <trkpt lat="44.43877" lon="5.79312">
        <ele>845</ele>
        <time>2019-06-12T14:33:01Z</time>
      </trkpt>
      <trkpt lat="44.43872" lon="5.79314">
        <ele>845</ele>
        <time>2019-06-12T14:33:02Z</time>
      </trkpt>
      <trkpt lat="44.43867" lon="5.79316">
        <ele>845</ele>
        <time>2019-06-12T14:33:03Z</time>
      </trkpt>
      <trkpt lat="44.43863" lon="5.79318">
        <ele>845</ele>
        <time>2019-06-12T14:33:04Z</time>
      </trkpt>
      <trkpt lat="44.43858" lon="5.7932">
        <ele>845</ele>
        <time>2019-06-12T14:33:05Z</time>
      </trkpt>
      <trkpt lat="44.43853" lon="5.79322">
        <ele>845</ele>
        <time>2019-06-12T14:33:06Z</time>
      </trkpt>
      <trkpt lat="44.43848" lon="5.79324">
        <ele>845</ele>
        <time>2019-06-12T14:33:07Z</time>
      </trkpt>
      <trkpt lat="44.43844" lon="5.79325">
        <ele>845</ele>
        <time>2019-06-12T14:33:08Z</time>
      </trkpt>
      <trkpt lat="44.43839" lon="5.79327">
        <ele>845</ele>
        <time>2019-06-12T14:33:09Z</time>
      </trkpt>
      <trkpt lat="44.43834" lon="5.79329">
        <ele>845</ele>
        <time>2019-06-12T14:33:10Z</time>
      </trkpt>
      <trkpt lat="44.4383" lon="5.79331">
        <ele>845</ele>
        <time>2019-06-12T14:33:11Z</time>
      </trkpt>
      <trkpt lat="44.43825" lon="5.79333">
        <ele>845</ele>
        <time>2019-06-12T14:33:12Z</time>
      </trkpt>
      <trkpt lat="44.4382" lon="5.79335">
        <ele>845</ele>
        <time>2019-06-12T14:33:13Z</time>
      </trkpt>
      <trkpt lat="44.43816" lon="5.79338">
        <ele>845</ele>
        <time>2019-06-12T14:33:14Z</time>
      </trkpt>
      <trkpt lat="44.43811" lon="5.7934">
        <ele>845</ele>
        <time>2019-06-12T14:33:15Z</time>
      </trkpt>
      <trkpt lat="44.43807" lon="5.79342">
        <ele>845</ele>
        <time>2019-06-12T14:33:16Z</time>
      </trkpt>
      <trkpt lat="44.43802" lon="5.79344">
        <ele>845</ele>
        <time>2019-06-12T14:33:17Z</time>
      </trkpt>
      <trkpt lat="44.43798" lon="5.79347">
        <ele>845</ele>
        <time>2019-06-12T14:33:18Z</time>
      </trkpt>
      <trkpt lat="44.43793" lon="5.79349">
        <ele>845</ele>
        <time>2019-06-12T14:33:19Z</time>
      </trkpt>
      <trkpt lat="44.43789" lon="5.79352">
        <ele>845</ele>
        <time>2019-06-12T14:33:20Z</time>
      </trkpt>
      <trkpt lat="44.43784" lon="5.79354">
        <ele>845</ele>
        <time>2019-06-12T14:33:21Z</time>
      </trkpt>
      <trkpt lat="44.4378" lon="5.79356">
        <ele>845</ele>
        <time>2019-06-12T14:33:22Z</time>
      </trkpt>
      <trkpt lat="44.43775" lon="5.79359">
        <ele>845</ele>
        <time>2019-06-12T14:33:23Z</time>
      </trkpt>
      <trkpt lat="44.43771" lon="5.79361">
        <ele>845</ele>
        <time>2019-06-12T14:33:24Z</time>
      </trkpt>
      <trkpt lat="44.43766" lon="5.79363">
        <ele>845</ele>
        <time>2019-06-12T14:33:25Z</time>
      </trkpt>
      <trkpt lat="44.43761" lon="5.79365">
        <ele>845</ele>
        <time>2019-06-12T14:33:26Z</time>
      </trkpt>
      <trkpt lat="44.43757" lon="5.79368">
        <ele>845</ele>
        <time>2019-06-12T14:33:27Z</time>
      </trkpt>
      <trkpt lat="44.43752" lon="5.7937">
        <ele>845</ele>
        <time>2019-06-12T14:33:28Z</time>
      </trkpt>
      <trkpt lat="44.43748" lon="5.79373">
        <ele>845</ele>
        <time>2019-06-12T14:33:29Z</time>
      </trkpt>
      <trkpt lat="44.43743" lon="5.79375">
        <ele>845</ele>
        <time>2019-06-12T14:33:30Z</time>
      </trkpt>
      <trkpt lat="44.43739" lon="5.79377">
        <ele>845</ele>
        <time>2019-06-12T14:33:31Z</time>
      </trkpt>
      <trkpt lat="44.43734" lon="5.7938">
        <ele>845</ele>
        <time>2019-06-12T14:33:32Z</time>
      </trkpt>
      <trkpt lat="44.4373" lon="5.79382">
        <ele>845</ele>
        <time>2019-06-12T14:33:33Z</time>
      </trkpt>
      <trkpt lat="44.43726" lon="5.79384">
        <ele>845</ele>
        <time>2019-06-12T14:33:34Z</time>
      </trkpt>
      <trkpt lat="44.43722" lon="5.79386">
        <ele>845</ele>
        <time>2019-06-12T14:33:35Z</time>
      </trkpt>
      <trkpt lat="44.43718" lon="5.79387">
        <ele>845</ele>
        <time>2019-06-12T14:33:36Z</time>
      </trkpt>
      <trkpt lat="44.43715" lon="5.79389">
        <ele>845</ele>
        <time>2019-06-12T14:33:37Z</time>
      </trkpt>
      <trkpt lat="44.4371" lon="5.7939">
        <ele>845</ele>
        <time>2019-06-12T14:33:38Z</time>
      </trkpt>
      <trkpt lat="44.43706" lon="5.79392">
        <ele>845</ele>
        <time>2019-06-12T14:33:39Z</time>
      </trkpt>
      <trkpt lat="44.43702" lon="5.79393">
        <ele>845</ele>
        <time>2019-06-12T14:33:40Z</time>
      </trkpt>
      <trkpt lat="44.43697" lon="5.79395">
        <ele>845</ele>
        <time>2019-06-12T14:33:41Z</time>
      </trkpt>
      <trkpt lat="44.43692" lon="5.79396">
        <ele>845</ele>
        <time>2019-06-12T14:33:42Z</time>
      </trkpt>
      <trkpt lat="44.43687" lon="5.79398">
        <ele>845</ele>
        <time>2019-06-12T14:33:43Z</time>
      </trkpt>
      <trkpt lat="44.43681" lon="5.79399">
        <ele>845</ele>
        <time>2019-06-12T14:33:44Z</time>
      </trkpt>
      <trkpt lat="44.43675" lon="5.794">
        <ele>845</ele>
        <time>2019-06-12T14:33:45Z</time>
      </trkpt>
      <trkpt lat="44.43669" lon="5.79402">
        <ele>845</ele>
        <time>2019-06-12T14:33:46Z</time>
      </trkpt>
      <trkpt lat="44.43663" lon="5.79403">
        <ele>845</ele>
        <time>2019-06-12T14:33:47Z</time>
      </trkpt>
      <trkpt lat="44.43657" lon="5.79404">
        <ele>845</ele>
        <time>2019-06-12T14:33:48Z</time>
      </trkpt>
      <trkpt lat="44.4365" lon="5.79405">
        <ele>845</ele>
        <time>2019-06-12T14:33:49Z</time>
      </trkpt>
      <trkpt lat="44.43644" lon="5.79407">
        <ele>845</ele>
        <time>2019-06-12T14:33:50Z</time>
      </trkpt>
      <trkpt lat="44.43638" lon="5.79409">
        <ele>845</ele>
        <time>2019-06-12T14:33:51Z</time>
      </trkpt>
      <trkpt lat="44.43631" lon="5.7941">
        <ele>845</ele>
        <time>2019-06-12T14:33:52Z</time>
      </trkpt>
      <trkpt lat="44.43625" lon="5.79412">
        <ele>845</ele>
        <time>2019-06-12T14:33:53Z</time>
      </trkpt>
      <trkpt lat="44.43618" lon="5.79413">
        <ele>845</ele>
        <time>2019-06-12T14:33:54Z</time>
      </trkpt>
      <trkpt lat="44.43612" lon="5.79415">
        <ele>845</ele>
        <time>2019-06-12T14:33:55Z</time>
      </trkpt>
      <trkpt lat="44.43605" lon="5.79416">
        <ele>845</ele>
        <time>2019-06-12T14:33:56Z</time>
      </trkpt>
      <trkpt lat="44.43598" lon="5.79418">
        <ele>845</ele>
        <time>2019-06-12T14:33:57Z</time>
      </trkpt>
      <trkpt lat="44.43591" lon="5.7942">
        <ele>845</ele>
        <time>2019-06-12T14:33:58Z</time>
      </trkpt>
      <trkpt lat="44.43584" lon="5.79422">
        <ele>845</ele>
        <time>2019-06-12T14:33:59Z</time>
      </trkpt>
      <trkpt lat="44.43578" lon="5.79424">
        <ele>845</ele>
        <time>2019-06-12T14:34:00Z</time>
      </trkpt>
      <trkpt lat="44.43571" lon="5.79426">
        <ele>845</ele>
        <time>2019-06-12T14:34:01Z</time>
      </trkpt>
      <trkpt lat="44.43564" lon="5.79429">
        <ele>845</ele>
        <time>2019-06-12T14:34:02Z</time>
      </trkpt>
      <trkpt lat="44.43557" lon="5.79433">
        <ele>845</ele>
        <time>2019-06-12T14:34:03Z</time>
      </trkpt>
      <trkpt lat="44.4355" lon="5.79436">
        <ele>844</ele>
        <time>2019-06-12T14:34:04Z</time>
      </trkpt>
      <trkpt lat="44.43543" lon="5.7944">
        <ele>844</ele>
        <time>2019-06-12T14:34:05Z</time>
      </trkpt>
      <trkpt lat="44.43536" lon="5.79443">
        <ele>844</ele>
        <time>2019-06-12T14:34:06Z</time>
      </trkpt>
      <trkpt lat="44.43528" lon="5.79447">
        <ele>844</ele>
        <time>2019-06-12T14:34:07Z</time>
      </trkpt>
      <trkpt lat="44.4352" lon="5.79449">
        <ele>843</ele>
        <time>2019-06-12T14:34:08Z</time>
      </trkpt>
      <trkpt lat="44.43512" lon="5.79449">
        <ele>843</ele>
        <time>2019-06-12T14:34:09Z</time>
      </trkpt>
      <trkpt lat="44.43504" lon="5.79446">
        <ele>843</ele>
        <time>2019-06-12T14:34:10Z</time>
      </trkpt>
      <trkpt lat="44.43496" lon="5.79442">
        <ele>842</ele>
        <time>2019-06-12T14:34:11Z</time>
      </trkpt>
      <trkpt lat="44.43488" lon="5.79437">
        <ele>841</ele>
        <time>2019-06-12T14:34:12Z</time>
      </trkpt>
      <trkpt lat="44.4348" lon="5.79431">
        <ele>841</ele>
        <time>2019-06-12T14:34:13Z</time>
      </trkpt>
      <trkpt lat="44.43472" lon="5.79425">
        <ele>840</ele>
        <time>2019-06-12T14:34:14Z</time>
      </trkpt>
      <trkpt lat="44.43464" lon="5.7942">
        <ele>840</ele>
        <time>2019-06-12T14:34:15Z</time>
      </trkpt>
      <trkpt lat="44.43455" lon="5.79414">
        <ele>839</ele>
        <time>2019-06-12T14:34:16Z</time>
      </trkpt>
      <trkpt lat="44.43446" lon="5.79407">
        <ele>838</ele>
        <time>2019-06-12T14:34:17Z</time>
      </trkpt>
      <trkpt lat="44.43438" lon="5.79401">
        <ele>838</ele>
        <time>2019-06-12T14:34:18Z</time>
      </trkpt>
      <trkpt lat="44.43428" lon="5.79394">
        <ele>837</ele>
        <time>2019-06-12T14:34:19Z</time>
      </trkpt>
      <trkpt lat="44.43419" lon="5.79388">
        <ele>837</ele>
        <time>2019-06-12T14:34:20Z</time>
      </trkpt>
      <trkpt lat="44.4341" lon="5.79382">
        <ele>836</ele>
        <time>2019-06-12T14:34:21Z</time>
      </trkpt>
      <trkpt lat="44.43402" lon="5.79376">
        <ele>835</ele>
        <time>2019-06-12T14:34:22Z</time>
      </trkpt>
      <trkpt lat="44.43394" lon="5.7937">
        <ele>835</ele>
        <time>2019-06-12T14:34:23Z</time>
      </trkpt>
      <trkpt lat="44.43387" lon="5.79365">
        <ele>835</ele>
        <time>2019-06-12T14:34:24Z</time>
      </trkpt>
      <trkpt lat="44.43381" lon="5.79361">
        <ele>835</ele>
        <time>2019-06-12T14:34:25Z</time>
      </trkpt>
      <trkpt lat="44.43375" lon="5.79357">
        <ele>835</ele>
        <time>2019-06-12T14:34:26Z</time>
      </trkpt>
      <trkpt lat="44.43369" lon="5.79353">
        <ele>835</ele>
        <time>2019-06-12T14:34:27Z</time>
      </trkpt>
      <trkpt lat="44.43364" lon="5.79348">
        <ele>835</ele>
        <time>2019-06-12T14:34:28Z</time>
      </trkpt>
      <trkpt lat="44.4336" lon="5.79345">
        <ele>835</ele>
        <time>2019-06-12T14:34:29Z</time>
      </trkpt>
      <trkpt lat="44.43355" lon="5.79342">
        <ele>835</ele>
        <time>2019-06-12T14:34:30Z</time>
      </trkpt>
      <trkpt lat="44.43351" lon="5.79339">
        <ele>835</ele>
        <time>2019-06-12T14:34:31Z</time>
      </trkpt>
      <trkpt lat="44.43347" lon="5.79336">
        <ele>835</ele>
        <time>2019-06-12T14:34:32Z</time>
      </trkpt>
      <trkpt lat="44.43343" lon="5.79334">
        <ele>835</ele>
        <time>2019-06-12T14:34:33Z</time>
      </trkpt>
      <trkpt lat="44.43339" lon="5.79331">
        <ele>835</ele>
        <time>2019-06-12T14:34:34Z</time>
      </trkpt>
      <trkpt lat="44.43335" lon="5.79328">
        <ele>835</ele>
        <time>2019-06-12T14:34:35Z</time>
      </trkpt>
      <trkpt lat="44.43331" lon="5.79326">
        <ele>835</ele>
        <time>2019-06-12T14:34:36Z</time>
      </trkpt>
      <trkpt lat="44.43327" lon="5.79324">
        <ele>835</ele>
        <time>2019-06-12T14:34:37Z</time>
      </trkpt>
      <trkpt lat="44.43323" lon="5.79322">
        <ele>835</ele>
        <time>2019-06-12T14:34:38Z</time>
      </trkpt>
      <trkpt lat="44.43319" lon="5.7932">
        <ele>835</ele>
        <time>2019-06-12T14:34:39Z</time>
      </trkpt>
      <trkpt lat="44.43314" lon="5.79319">
        <ele>835</ele>
        <time>2019-06-12T14:34:40Z</time>
      </trkpt>
      <trkpt lat="44.4331" lon="5.79319">
        <ele>835</ele>
        <time>2019-06-12T14:34:41Z</time>
      </trkpt>
      <trkpt lat="44.43305" lon="5.79319">
        <ele>835</ele>
        <time>2019-06-12T14:34:42Z</time>
      </trkpt>
      <trkpt lat="44.43301" lon="5.79319">
        <ele>835</ele>
        <time>2019-06-12T14:34:43Z</time>
      </trkpt>
      <trkpt lat="44.43296" lon="5.79319">
        <ele>835</ele>
        <time>2019-06-12T14:34:44Z</time>
      </trkpt>
      <trkpt lat="44.43292" lon="5.7932">
        <ele>835</ele>
        <time>2019-06-12T14:34:45Z</time>
      </trkpt>
      <trkpt lat="44.43287" lon="5.79322">
        <ele>835</ele>
        <time>2019-06-12T14:34:46Z</time>
      </trkpt>
      <trkpt lat="44.43282" lon="5.79325">
        <ele>835</ele>
        <time>2019-06-12T14:34:47Z</time>
      </trkpt>
      <trkpt lat="44.43276" lon="5.79329">
        <ele>835</ele>
        <time>2019-06-12T14:34:48Z</time>
      </trkpt>
      <trkpt lat="44.4327" lon="5.79334">
        <ele>835</ele>
        <time>2019-06-12T14:34:49Z</time>
      </trkpt>
      <trkpt lat="44.43265" lon="5.79341">
        <ele>835</ele>
        <time>2019-06-12T14:34:50Z</time>
      </trkpt>
      <trkpt lat="44.4326" lon="5.79348">
        <ele>835</ele>
        <time>2019-06-12T14:34:51Z</time>
      </trkpt>
      <trkpt lat="44.43255" lon="5.79356">
        <ele>835</ele>
        <time>2019-06-12T14:34:52Z</time>
      </trkpt>
      <trkpt lat="44.4325" lon="5.79365">
        <ele>835</ele>
        <time>2019-06-12T14:34:53Z</time>
      </trkpt>
      <trkpt lat="44.43244" lon="5.79373">
        <ele>835</ele>
        <time>2019-06-12T14:34:54Z</time>
      </trkpt>
      <trkpt lat="44.43238" lon="5.79381">
        <ele>835</ele>
        <time>2019-06-12T14:34:55Z</time>
      </trkpt>
      <trkpt lat="44.43232" lon="5.79386">
        <ele>835</ele>
        <time>2019-06-12T14:34:56Z</time>
      </trkpt>
      <trkpt lat="44.43226" lon="5.7939">
        <ele>834</ele>
        <time>2019-06-12T14:34:57Z</time>
      </trkpt>
      <trkpt lat="44.4322" lon="5.79394">
        <ele>833</ele>
        <time>2019-06-12T14:34:58Z</time>
      </trkpt>
      <trkpt lat="44.43214" lon="5.79399">
        <ele>832</ele>
        <time>2019-06-12T14:34:59Z</time>
      </trkpt>
      <trkpt lat="44.4321" lon="5.79406">
        <ele>832</ele>
        <time>2019-06-12T14:35:00Z</time>
      </trkpt>
      <trkpt lat="44.43208" lon="5.79415">
        <ele>831</ele>
        <time>2019-06-12T14:35:01Z</time>
      </trkpt>
      <trkpt lat="44.43206" lon="5.79424">
        <ele>830</ele>
        <time>2019-06-12T14:35:02Z</time>
      </trkpt>
      <trkpt lat="44.43203" lon="5.79432">
        <ele>830</ele>
        <time>2019-06-12T14:35:03Z</time>
      </trkpt>
      <trkpt lat="44.43199" lon="5.7944">
        <ele>829</ele>
        <time>2019-06-12T14:35:04Z</time>
      </trkpt>
      <trkpt lat="44.43194" lon="5.79445">
        <ele>829</ele>
        <time>2019-06-12T14:35:05Z</time>
      </trkpt>
      <trkpt lat="44.43188" lon="5.79447">
        <ele>828</ele>
        <time>2019-06-12T14:35:06Z</time>
      </trkpt>
      <trkpt lat="44.43182" lon="5.79448">
        <ele>828</ele>
        <time>2019-06-12T14:35:07Z</time>
      </trkpt>
      <trkpt lat="44.43176" lon="5.79448">
        <ele>827</ele>
        <time>2019-06-12T14:35:08Z</time>
      </trkpt>
      <trkpt lat="44.4317" lon="5.7945">
        <ele>827</ele>
        <time>2019-06-12T14:35:09Z</time>
      </trkpt>
      <trkpt lat="44.43165" lon="5.79453">
        <ele>827</ele>
        <time>2019-06-12T14:35:10Z</time>
      </trkpt>
      <trkpt lat="44.4316" lon="5.79458">
        <ele>826</ele>
        <time>2019-06-12T14:35:11Z</time>
      </trkpt>
      <trkpt lat="44.43156" lon="5.79465">
        <ele>826</ele>
        <time>2019-06-12T14:35:12Z</time>
      </trkpt>
      <trkpt lat="44.43153" lon="5.79473">
        <ele>825</ele>
        <time>2019-06-12T14:35:13Z</time>
      </trkpt>
      <trkpt lat="44.43152" lon="5.79481">
        <ele>824</ele>
        <time>2019-06-12T14:35:14Z</time>
      </trkpt>
      <trkpt lat="44.43153" lon="5.79488">
        <ele>824</ele>
        <time>2019-06-12T14:35:15Z</time>
      </trkpt>
      <trkpt lat="44.43153" lon="5.79496">
        <ele>823</ele>
        <time>2019-06-12T14:35:16Z</time>
      </trkpt>
      <trkpt lat="44.43154" lon="5.79502">
        <ele>823</ele>
        <time>2019-06-12T14:35:17Z</time>
      </trkpt>
      <trkpt lat="44.43153" lon="5.79508">
        <ele>822</ele>
        <time>2019-06-12T14:35:18Z</time>
      </trkpt>
      <trkpt lat="44.43149" lon="5.79512">
        <ele>821</ele>
        <time>2019-06-12T14:35:19Z</time>
      </trkpt>
      <trkpt lat="44.43145" lon="5.79512">
        <ele>821</ele>
        <time>2019-06-12T14:35:20Z</time>
      </trkpt>
      <trkpt lat="44.4314" lon="5.79508">
        <ele>820</ele>
        <time>2019-06-12T14:35:21Z</time>
      </trkpt>
      <trkpt lat="44.43137" lon="5.79501">
        <ele>819</ele>
        <time>2019-06-12T14:35:22Z</time>
      </trkpt>
      <trkpt lat="44.43136" lon="5.79493">
        <ele>819</ele>
        <time>2019-06-12T14:35:23Z</time>
      </trkpt>
      <trkpt lat="44.43136" lon="5.79484">
        <ele>818</ele>
        <time>2019-06-12T14:35:24Z</time>
      </trkpt>
      <trkpt lat="44.43137" lon="5.79474">
        <ele>817</ele>
        <time>2019-06-12T14:35:25Z</time>
      </trkpt>
      <trkpt lat="44.4314" lon="5.79464">
        <ele>817</ele>
        <time>2019-06-12T14:35:26Z</time>
      </trkpt>
      <trkpt lat="44.43142" lon="5.79454">
        <ele>816</ele>
        <time>2019-06-12T14:35:27Z</time>
      </trkpt>
      <trkpt lat="44.43145" lon="5.79443">
        <ele>816</ele>
        <time>2019-06-12T14:35:28Z</time>
      </trkpt>
      <trkpt lat="44.43147" lon="5.79431">
        <ele>815</ele>
        <time>2019-06-12T14:35:29Z</time>
      </trkpt>
      <trkpt lat="44.43147" lon="5.79419">
        <ele>815</ele>
        <time>2019-06-12T14:35:30Z</time>
      </trkpt>
      <trkpt lat="44.43145" lon="5.79408">
        <ele>814</ele>
        <time>2019-06-12T14:35:31Z</time>
      </trkpt>
      <trkpt lat="44.43142" lon="5.79397">
        <ele>813</ele>
        <time>2019-06-12T14:35:32Z</time>
      </trkpt>
      <trkpt lat="44.43137" lon="5.79389">
        <ele>813</ele>
        <time>2019-06-12T14:35:33Z</time>
      </trkpt>
      <trkpt lat="44.43132" lon="5.79381">
        <ele>812</ele>
        <time>2019-06-12T14:35:34Z</time>
      </trkpt>
      <trkpt lat="44.43126" lon="5.79374">
        <ele>811</ele>
        <time>2019-06-12T14:35:35Z</time>
      </trkpt>
      <trkpt lat="44.4312" lon="5.79367">
        <ele>810</ele>
        <time>2019-06-12T14:35:36Z</time>
      </trkpt>
      <trkpt lat="44.43114" lon="5.7936">
        <ele>810</ele>
        <time>2019-06-12T14:35:37Z</time>
      </trkpt>
      <trkpt lat="44.43108" lon="5.79353">
        <ele>809</ele>
        <time>2019-06-12T14:35:38Z</time>
      </trkpt>
      <trkpt lat="44.43102" lon="5.79346">
        <ele>808</ele>
        <time>2019-06-12T14:35:39Z</time>
      </trkpt>
      <trkpt lat="44.43095" lon="5.79339">
        <ele>807</ele>
        <time>2019-06-12T14:35:40Z</time>
      </trkpt>
      <trkpt lat="44.43087" lon="5.79333">
        <ele>806</ele>
        <time>2019-06-12T14:35:41Z</time>
      </trkpt>
      <trkpt lat="44.43079" lon="5.79327">
        <ele>806</ele>
        <time>2019-06-12T14:35:42Z</time>
      </trkpt>
      <trkpt lat="44.43071" lon="5.79322">
        <ele>805</ele>
        <time>2019-06-12T14:35:43Z</time>
      </trkpt>
      <trkpt lat="44.43062" lon="5.79318">
        <ele>804</ele>
        <time>2019-06-12T14:35:44Z</time>
      </trkpt>
      <trkpt lat="44.43054" lon="5.79315">
        <ele>803</ele>
        <time>2019-06-12T14:35:45Z</time>
      </trkpt>
      <trkpt lat="44.43045" lon="5.79314">
        <ele>802</ele>
        <time>2019-06-12T14:35:46Z</time>
      </trkpt>
      <trkpt lat="44.43038" lon="5.79315">
        <ele>801</ele>
        <time>2019-06-12T14:35:47Z</time>
      </trkpt>
      <trkpt lat="44.43031" lon="5.79318">
        <ele>800</ele>
        <time>2019-06-12T14:35:48Z</time>
      </trkpt>
      <trkpt lat="44.43025" lon="5.79322">
        <ele>800</ele>
        <time>2019-06-12T14:35:49Z</time>
      </trkpt>
      <trkpt lat="44.43022" lon="5.79329">
        <ele>799</ele>
        <time>2019-06-12T14:35:50Z</time>
      </trkpt>
      <trkpt lat="44.4302" lon="5.79337">
        <ele>798</ele>
        <time>2019-06-12T14:35:51Z</time>
      </trkpt>
      <trkpt lat="44.43023" lon="5.79345">
        <ele>797</ele>
        <time>2019-06-12T14:35:52Z</time>
      </trkpt>
      <trkpt lat="44.43027" lon="5.7935">
        <ele>796</ele>
        <time>2019-06-12T14:35:53Z</time>
      </trkpt>
      <trkpt lat="44.43033" lon="5.79354">
        <ele>795</ele>
        <time>2019-06-12T14:35:54Z</time>
      </trkpt>
      <trkpt lat="44.43039" lon="5.79357">
        <ele>794</ele>
        <time>2019-06-12T14:35:55Z</time>
      </trkpt>
      <trkpt lat="44.43044" lon="5.79363">
        <ele>793</ele>
        <time>2019-06-12T14:35:56Z</time>
      </trkpt>
      <trkpt lat="44.43047" lon="5.79372">
        <ele>792</ele>
        <time>2019-06-12T14:35:57Z</time>
      </trkpt>
      <trkpt lat="44.43048" lon="5.79382">
        <ele>791</ele>
        <time>2019-06-12T14:35:58Z</time>
      </trkpt>
      <trkpt lat="44.43046" lon="5.79391">
        <ele>791</ele>
        <time>2019-06-12T14:35:59Z</time>
      </trkpt>
      <trkpt lat="44.43042" lon="5.79398">
        <ele>791</ele>
        <time>2019-06-12T14:36:00Z</time>
      </trkpt>
      <trkpt lat="44.43038" lon="5.79404">
        <ele>790</ele>
        <time>2019-06-12T14:36:01Z</time>
      </trkpt>
      <trkpt lat="44.43032" lon="5.79409">
        <ele>790</ele>
        <time>2019-06-12T14:36:02Z</time>
      </trkpt>
      <trkpt lat="44.43026" lon="5.79414">
        <ele>790</ele>
        <time>2019-06-12T14:36:03Z</time>
      </trkpt>
      <trkpt lat="44.43018" lon="5.79418">
        <ele>789</ele>
        <time>2019-06-12T14:36:04Z</time>
      </trkpt>
      <trkpt lat="44.43012" lon="5.79423">
        <ele>789</ele>
        <time>2019-06-12T14:36:05Z</time>
      </trkpt>
      <trkpt lat="44.43008" lon="5.79432">
        <ele>788</ele>
        <time>2019-06-12T14:36:06Z</time>
      </trkpt>
      <trkpt lat="44.43005" lon="5.79442">
        <ele>788</ele>
        <time>2019-06-12T14:36:07Z</time>
      </trkpt>
      <trkpt lat="44.43004" lon="5.79454">
        <ele>787</ele>
        <time>2019-06-12T14:36:08Z</time>
      </trkpt>
      <trkpt lat="44.43001" lon="5.79466">
        <ele>787</ele>
        <time>2019-06-12T14:36:09Z</time>
      </trkpt>
      <trkpt lat="44.42996" lon="5.79477">
        <ele>786</ele>
        <time>2019-06-12T14:36:10Z</time>
      </trkpt>
      <trkpt lat="44.4299" lon="5.79487">
        <ele>786</ele>
        <time>2019-06-12T14:36:11Z</time>
      </trkpt>
      <trkpt lat="44.42983" lon="5.79497">
        <ele>785</ele>
        <time>2019-06-12T14:36:12Z</time>
      </trkpt>
      <trkpt lat="44.42977" lon="5.79506">
        <ele>784</ele>
        <time>2019-06-12T14:36:13Z</time>
      </trkpt>
      <trkpt lat="44.42971" lon="5.79516">
        <ele>783</ele>
        <time>2019-06-12T14:36:14Z</time>
      </trkpt>
      <trkpt lat="44.42965" lon="5.79523">
        <ele>783</ele>
        <time>2019-06-12T14:36:15Z</time>
      </trkpt>
      <trkpt lat="44.42961" lon="5.79529">
        <ele>782</ele>
        <time>2019-06-12T14:36:16Z</time>
      </trkpt>
      <trkpt lat="44.42956" lon="5.79532">
        <ele>781</ele>
        <time>2019-06-12T14:36:17Z</time>
      </trkpt>
      <trkpt lat="44.4295" lon="5.79532">
        <ele>780</ele>
        <time>2019-06-12T14:36:18Z</time>
      </trkpt>
      <trkpt lat="44.42945" lon="5.79527">
        <ele>779</ele>
        <time>2019-06-12T14:36:19Z</time>
      </trkpt>
      <trkpt lat="44.42942" lon="5.79519">
        <ele>778</ele>
        <time>2019-06-12T14:36:20Z</time>
      </trkpt>
      <trkpt lat="44.42939" lon="5.7951">
        <ele>777</ele>
        <time>2019-06-12T14:36:21Z</time>
      </trkpt>
      <trkpt lat="44.42935" lon="5.79502">
        <ele>777</ele>
        <time>2019-06-12T14:36:22Z</time>
      </trkpt>
      <trkpt lat="44.42929" lon="5.79495">
        <ele>776</ele>
        <time>2019-06-12T14:36:23Z</time>
      </trkpt>
      <trkpt lat="44.42923" lon="5.7949">
        <ele>776</ele>
        <time>2019-06-12T14:36:24Z</time>
      </trkpt>
      <trkpt lat="44.42915" lon="5.79485">
        <ele>775</ele>
        <time>2019-06-12T14:36:25Z</time>
      </trkpt>
      <trkpt lat="44.42907" lon="5.79479">
        <ele>774</ele>
        <time>2019-06-12T14:36:26Z</time>
      </trkpt>
      <trkpt lat="44.42898" lon="5.79474">
        <ele>774</ele>
        <time>2019-06-12T14:36:27Z</time>
      </trkpt>
      <trkpt lat="44.4289" lon="5.79468">
        <ele>773</ele>
        <time>2019-06-12T14:36:28Z</time>
      </trkpt>
      <trkpt lat="44.42881" lon="5.79462">
        <ele>772</ele>
        <time>2019-06-12T14:36:29Z</time>
      </trkpt>
      <trkpt lat="44.42872" lon="5.79459">
        <ele>772</ele>
        <time>2019-06-12T14:36:30Z</time>
      </trkpt>
      <trkpt lat="44.42863" lon="5.79459">
        <ele>771</ele>
        <time>2019-06-12T14:36:31Z</time>
      </trkpt>
      <trkpt lat="44.42854" lon="5.79463">
        <ele>770</ele>
        <time>2019-06-12T14:36:32Z</time>
      </trkpt>
      <trkpt lat="44.42845" lon="5.79469">
        <ele>770</ele>
        <time>2019-06-12T14:36:33Z</time>
      </trkpt>
      <trkpt lat="44.42837" lon="5.79476">
        <ele>769</ele>
        <time>2019-06-12T14:36:34Z</time>
      </trkpt>
      <trkpt lat="44.4283" lon="5.79483">
        <ele>768</ele>
        <time>2019-06-12T14:36:35Z</time>
      </trkpt>
      <trkpt lat="44.42821" lon="5.79489">
        <ele>767</ele>
        <time>2019-06-12T14:36:36Z</time>
      </trkpt>
      <trkpt lat="44.42812" lon="5.79494">
        <ele>767</ele>
        <time>2019-06-12T14:36:37Z</time>
      </trkpt>
      <trkpt lat="44.42802" lon="5.79495">
        <ele>766</ele>
        <time>2019-06-12T14:36:38Z</time>
      </trkpt>
      <trkpt lat="44.42793" lon="5.79495">
        <ele>766</ele>
        <time>2019-06-12T14:36:39Z</time>
      </trkpt>
      <trkpt lat="44.42783" lon="5.79493">
        <ele>765</ele>
        <time>2019-06-12T14:36:40Z</time>
      </trkpt>
      <trkpt lat="44.42774" lon="5.79493">
        <ele>765</ele>
        <time>2019-06-12T14:36:41Z</time>
      </trkpt>
      <trkpt lat="44.42765" lon="5.79493">
        <ele>764</ele>
        <time>2019-06-12T14:36:42Z</time>
      </trkpt>
      <trkpt lat="44.42756" lon="5.79494">
        <ele>764</ele>
        <time>2019-06-12T14:36:43Z</time>
      </trkpt>
      <trkpt lat="44.42746" lon="5.79497">
        <ele>763</ele>
        <time>2019-06-12T14:36:44Z</time>
      </trkpt>
      <trkpt lat="44.42738" lon="5.79503">
        <ele>763</ele>
        <time>2019-06-12T14:36:45Z</time>
      </trkpt>
      <trkpt lat="44.4273" lon="5.79511">
        <ele>762</ele>
        <time>2019-06-12T14:36:46Z</time>
      </trkpt>
      <trkpt lat="44.42724" lon="5.7952">
        <ele>761</ele>
        <time>2019-06-12T14:36:47Z</time>
      </trkpt>
      <trkpt lat="44.4272" lon="5.79531">
        <ele>761</ele>
        <time>2019-06-12T14:36:48Z</time>
      </trkpt>
      <trkpt lat="44.42715" lon="5.79542">
        <ele>760</ele>
        <time>2019-06-12T14:36:49Z</time>
      </trkpt>
      <trkpt lat="44.42711" lon="5.79553">
        <ele>760</ele>
        <time>2019-06-12T14:36:50Z</time>
      </trkpt>
      <trkpt lat="44.42707" lon="5.79564">
        <ele>760</ele>
        <time>2019-06-12T14:36:51Z</time>
      </trkpt>
      <trkpt lat="44.42701" lon="5.79573">
        <ele>759</ele>
        <time>2019-06-12T14:36:52Z</time>
      </trkpt>
      <trkpt lat="44.42695" lon="5.7958">
        <ele>759</ele>
        <time>2019-06-12T14:36:53Z</time>
      </trkpt>
      <trkpt lat="44.42687" lon="5.79587">
        <ele>759</ele>
        <time>2019-06-12T14:36:54Z</time>
      </trkpt>
      <trkpt lat="44.4268" lon="5.79593">
        <ele>759</ele>
        <time>2019-06-12T14:36:55Z</time>
      </trkpt>
      <trkpt lat="44.42672" lon="5.79598">
        <ele>758</ele>
        <time>2019-06-12T14:36:56Z</time>
      </trkpt>
      <trkpt lat="44.42663" lon="5.79602">
        <ele>758</ele>
        <time>2019-06-12T14:36:57Z</time>
      </trkpt>
      <trkpt lat="44.42655" lon="5.79605">
        <ele>758</ele>
        <time>2019-06-12T14:36:58Z</time>
      </trkpt>
      <trkpt lat="44.42646" lon="5.79607">
        <ele>757</ele>
        <time>2019-06-12T14:36:59Z</time>
      </trkpt>
      <trkpt lat="44.42637" lon="5.79608">
        <ele>757</ele>
        <time>2019-06-12T14:37:00Z</time>
      </trkpt>
      <trkpt lat="44.42628" lon="5.79608">
        <ele>757</ele>
        <time>2019-06-12T14:37:01Z</time>
      </trkpt>
      <trkpt lat="44.42619" lon="5.79607">
        <ele>756</ele>
        <time>2019-06-12T14:37:02Z</time>
      </trkpt>
      <trkpt lat="44.4261" lon="5.79606">
        <ele>756</ele>
        <time>2019-06-12T14:37:03Z</time>
      </trkpt>
      <trkpt lat="44.42601" lon="5.79604">
        <ele>756</ele>
        <time>2019-06-12T14:37:04Z</time>
      </trkpt>
      <trkpt lat="44.42592" lon="5.79602">
        <ele>755</ele>
        <time>2019-06-12T14:37:05Z</time>
      </trkpt>
      <trkpt lat="44.42582" lon="5.796">
        <ele>755</ele>
        <time>2019-06-12T14:37:06Z</time>
      </trkpt>
      <trkpt lat="44.42573" lon="5.79598">
        <ele>755</ele>
        <time>2019-06-12T14:37:07Z</time>
      </trkpt>
      <trkpt lat="44.42563" lon="5.79594">
        <ele>754</ele>
        <time>2019-06-12T14:37:08Z</time>
      </trkpt>
      <trkpt lat="44.42554" lon="5.79589">
        <ele>754</ele>
        <time>2019-06-12T14:37:09Z</time>
      </trkpt>
      <trkpt lat="44.42545" lon="5.79584">
        <ele>753</ele>
        <time>2019-06-12T14:37:10Z</time>
      </trkpt>
      <trkpt lat="44.42536" lon="5.79578">
        <ele>753</ele>
        <time>2019-06-12T14:37:11Z</time>
      </trkpt>
      <trkpt lat="44.42527" lon="5.79572">
        <ele>752</ele>
        <time>2019-06-12T14:37:12Z</time>
      </trkpt>
      <trkpt lat="44.42518" lon="5.79567">
        <ele>752</ele>
        <time>2019-06-12T14:37:13Z</time>
      </trkpt>
      <trkpt lat="44.4251" lon="5.79561">
        <ele>752</ele>
        <time>2019-06-12T14:37:14Z</time>
      </trkpt>
      <trkpt lat="44.42502" lon="5.79556">
        <ele>752</ele>
        <time>2019-06-12T14:37:15Z</time>
      </trkpt>
      <trkpt lat="44.42494" lon="5.7955">
        <ele>751</ele>
        <time>2019-06-12T14:37:16Z</time>
      </trkpt>
      <trkpt lat="44.42487" lon="5.79545">
        <ele>751</ele>
        <time>2019-06-12T14:37:17Z</time>
      </trkpt>
      <trkpt lat="44.42479" lon="5.7954">
        <ele>751</ele>
        <time>2019-06-12T14:37:18Z</time>
      </trkpt>
      <trkpt lat="44.42472" lon="5.79536">
        <ele>751</ele>
        <time>2019-06-12T14:37:19Z</time>
      </trkpt>
      <trkpt lat="44.42465" lon="5.79531">
        <ele>751</ele>
        <time>2019-06-12T14:37:20Z</time>
      </trkpt>
      <trkpt lat="44.42458" lon="5.79527">
        <ele>751</ele>
        <time>2019-06-12T14:37:21Z</time>
      </trkpt>
      <trkpt lat="44.42451" lon="5.79523">
        <ele>751</ele>
        <time>2019-06-12T14:37:22Z</time>
      </trkpt>
      <trkpt lat="44.42444" lon="5.7952">
        <ele>751</ele>
        <time>2019-06-12T14:37:23Z</time>
      </trkpt>
      <trkpt lat="44.42437" lon="5.79516">
        <ele>751</ele>
        <time>2019-06-12T14:37:24Z</time>
      </trkpt>
      <trkpt lat="44.42431" lon="5.79513">
        <ele>751</ele>
        <time>2019-06-12T14:37:25Z</time>
      </trkpt>
      <trkpt lat="44.42424" lon="5.79509">
        <ele>750</ele>
        <time>2019-06-12T14:37:26Z</time>
      </trkpt>
      <trkpt lat="44.42418" lon="5.79506">
        <ele>750</ele>
        <time>2019-06-12T14:37:27Z</time>
      </trkpt>
      <trkpt lat="44.42411" lon="5.79503">
        <ele>750</ele>
        <time>2019-06-12T14:37:28Z</time>
      </trkpt>
      <trkpt lat="44.42404" lon="5.795">
        <ele>750</ele>
        <time>2019-06-12T14:37:29Z</time>
      </trkpt>
      <trkpt lat="44.42398" lon="5.79498">
        <ele>750</ele>
        <time>2019-06-12T14:37:30Z</time>
      </trkpt>
      <trkpt lat="44.42391" lon="5.79495">
        <ele>750</ele>
        <time>2019-06-12T14:37:31Z</time>
      </trkpt>
      <trkpt lat="44.42385" lon="5.79493">
        <ele>750</ele>
        <time>2019-06-12T14:37:32Z</time>
      </trkpt>
      <trkpt lat="44.42378" lon="5.79491">
        <ele>750</ele>
        <time>2019-06-12T14:37:33Z</time>
      </trkpt>
      <trkpt lat="44.42371" lon="5.79489">
        <ele>750</ele>
        <time>2019-06-12T14:37:34Z</time>
      </trkpt>
      <trkpt lat="44.42365" lon="5.79487">
        <ele>749</ele>
        <time>2019-06-12T14:37:35Z</time>
      </trkpt>
      <trkpt lat="44.42358" lon="5.79485">
        <ele>749</ele>
        <time>2019-06-12T14:37:36Z</time>
      </trkpt>
      <trkpt lat="44.4235" lon="5.79483">
        <ele>749</ele>
        <time>2019-06-12T14:37:37Z</time>
      </trkpt>
      <trkpt lat="44.42343" lon="5.79481">
        <ele>749</ele>
        <time>2019-06-12T14:37:38Z</time>
      </trkpt>
      <trkpt lat="44.42336" lon="5.79479">
        <ele>748</ele>
        <time>2019-06-12T14:37:39Z</time>
      </trkpt>
      <trkpt lat="44.42328" lon="5.79477">
        <ele>748</ele>
        <time>2019-06-12T14:37:40Z</time>
      </trkpt>
      <trkpt lat="44.42321" lon="5.79475">
        <ele>748</ele>
        <time>2019-06-12T14:37:41Z</time>
      </trkpt>
      <trkpt lat="44.42313" lon="5.79473">
        <ele>747</ele>
        <time>2019-06-12T14:37:42Z</time>
      </trkpt>
      <trkpt lat="44.42305" lon="5.79472">
        <ele>747</ele>
        <time>2019-06-12T14:37:43Z</time>
      </trkpt>
      <trkpt lat="44.42298" lon="5.79471">
        <ele>746</ele>
        <time>2019-06-12T14:37:44Z</time>
      </trkpt>
      <trkpt lat="44.4229" lon="5.7947">
        <ele>746</ele>
        <time>2019-06-12T14:37:45Z</time>
      </trkpt>
      <trkpt lat="44.42282" lon="5.79469">
        <ele>746</ele>
        <time>2019-06-12T14:37:46Z</time>
      </trkpt>
      <trkpt lat="44.42274" lon="5.7947">
        <ele>745</ele>
        <time>2019-06-12T14:37:47Z</time>
      </trkpt>
      <trkpt lat="44.42266" lon="5.7947">
        <ele>745</ele>
        <time>2019-06-12T14:37:48Z</time>
      </trkpt>
      <trkpt lat="44.42259" lon="5.79471">
        <ele>744</ele>
        <time>2019-06-12T14:37:49Z</time>
      </trkpt>
      <trkpt lat="44.42252" lon="5.79472">
        <ele>744</ele>
        <time>2019-06-12T14:37:50Z</time>
      </trkpt>
      <trkpt lat="44.42245" lon="5.79473">
        <ele>743</ele>
        <time>2019-06-12T14:37:51Z</time>
      </trkpt>
      <trkpt lat="44.42239" lon="5.79474">
        <ele>742</ele>
        <time>2019-06-12T14:37:52Z</time>
      </trkpt>
      <trkpt lat="44.42232" lon="5.79474">
        <ele>742</ele>
        <time>2019-06-12T14:37:53Z</time>
      </trkpt>
      <trkpt lat="44.42226" lon="5.79475">
        <ele>741</ele>
        <time>2019-06-12T14:37:54Z</time>
      </trkpt>
      <trkpt lat="44.42219" lon="5.79475">
        <ele>741</ele>
        <time>2019-06-12T14:37:55Z</time>
      </trkpt>
      <trkpt lat="44.42214" lon="5.79474">
        <ele>740</ele>
        <time>2019-06-12T14:37:56Z</time>
      </trkpt>
      <trkpt lat="44.42208" lon="5.79474">
        <ele>740</ele>
        <time>2019-06-12T14:37:57Z</time>
      </trkpt>
      <trkpt lat="44.42204" lon="5.79472">
        <ele>740</ele>
        <time>2019-06-12T14:37:58Z</time>
      </trkpt>
      <trkpt lat="44.422" lon="5.79471">
        <ele>739</ele>
        <time>2019-06-12T14:37:59Z</time>
      </trkpt>
      <trkpt lat="44.42197" lon="5.7947">
        <ele>739</ele>
        <time>2019-06-12T14:38:00Z</time>
      </trkpt>
      <trkpt lat="44.42194" lon="5.7947">
        <ele>739</ele>
        <time>2019-06-12T14:38:01Z</time>
      </trkpt>
      <trkpt lat="44.42191" lon="5.79472">
        <ele>739</ele>
        <time>2019-06-12T14:38:02Z</time>
      </trkpt>
      <trkpt lat="44.42188" lon="5.79477">
        <ele>738</ele>
        <time>2019-06-12T14:38:03Z</time>
      </trkpt>
      <trkpt lat="44.42185" lon="5.79483">
        <ele>738</ele>
        <time>2019-06-12T14:38:04Z</time>
      </trkpt>
      <trkpt lat="44.42181" lon="5.79489">
        <ele>738</ele>
        <time>2019-06-12T14:38:05Z</time>
      </trkpt>
      <trkpt lat="44.42178" lon="5.79495">
        <ele>738</ele>
        <time>2019-06-12T14:38:06Z</time>
      </trkpt>
      <trkpt lat="44.42175" lon="5.79501">
        <ele>738</ele>
        <time>2019-06-12T14:38:07Z</time>
      </trkpt>
      <trkpt lat="44.42172" lon="5.79507">
        <ele>738</ele>
        <time>2019-06-12T14:38:08Z</time>
      </trkpt>
      <trkpt lat="44.42168" lon="5.79514">
        <ele>738</ele>
        <time>2019-06-12T14:38:09Z</time>
      </trkpt>
      <trkpt lat="44.42165" lon="5.7952">
        <ele>738</ele>
        <time>2019-06-12T14:38:10Z</time>
      </trkpt>
      <trkpt lat="44.42161" lon="5.79525">
        <ele>738</ele>
        <time>2019-06-12T14:38:11Z</time>
      </trkpt>
      <trkpt lat="44.42157" lon="5.79531">
        <ele>738</ele>
        <time>2019-06-12T14:38:12Z</time>
      </trkpt>
      <trkpt lat="44.42154" lon="5.79536">
        <ele>738</ele>
        <time>2019-06-12T14:38:13Z</time>
      </trkpt>
      <trkpt lat="44.4215" lon="5.79542">
        <ele>738</ele>
        <time>2019-06-12T14:38:14Z</time>
      </trkpt>
      <trkpt lat="44.42147" lon="5.79547">
        <ele>738</ele>
        <time>2019-06-12T14:38:15Z</time>
      </trkpt>
      <trkpt lat="44.42145" lon="5.79552">
        <ele>738</ele>
        <time>2019-06-12T14:38:16Z</time>
      </trkpt>
      <trkpt lat="44.42143" lon="5.79557">
        <ele>738</ele>
        <time>2019-06-12T14:38:17Z</time>
      </trkpt>
      <trkpt lat="44.42141" lon="5.79562">
        <ele>738</ele>
        <time>2019-06-12T14:38:18Z</time>
      </trkpt>
      <trkpt lat="44.42139" lon="5.79567">
        <ele>738</ele>
        <time>2019-06-12T14:38:19Z</time>
      </trkpt>
      <trkpt lat="44.42136" lon="5.79572">
        <ele>738</ele>
        <time>2019-06-12T14:38:20Z</time>
      </trkpt>
      <trkpt lat="44.42134" lon="5.79576">
        <ele>738</ele>
        <time>2019-06-12T14:38:21Z</time>
      </trkpt>
      <trkpt lat="44.42132" lon="5.79581">
        <ele>738</ele>
        <time>2019-06-12T14:38:22Z</time>
      </trkpt>
      <trkpt lat="44.4213" lon="5.79586">
        <ele>738</ele>
        <time>2019-06-12T14:38:23Z</time>
      </trkpt>
      <trkpt lat="44.42128" lon="5.79591">
        <ele>738</ele>
        <time>2019-06-12T14:38:24Z</time>
      </trkpt>
      <trkpt lat="44.42125" lon="5.79595">
        <ele>738</ele>
        <time>2019-06-12T14:38:25Z</time>
      </trkpt>
      <trkpt lat="44.42123" lon="5.796">
        <ele>738</ele>
        <time>2019-06-12T14:38:26Z</time>
      </trkpt>
      <trkpt lat="44.42122" lon="5.79605">
        <ele>738</ele>
        <time>2019-06-12T14:38:27Z</time>
      </trkpt>
      <trkpt lat="44.4212" lon="5.79609">
        <ele>738</ele>
        <time>2019-06-12T14:38:28Z</time>
      </trkpt>
      <trkpt lat="44.42118" lon="5.79614">
        <ele>738</ele>
        <time>2019-06-12T14:38:29Z</time>
      </trkpt>
      <trkpt lat="44.42116" lon="5.79618">
        <ele>738</ele>
        <time>2019-06-12T14:38:30Z</time>
      </trkpt>
      <trkpt lat="44.42114" lon="5.79623">
        <ele>738</ele>
        <time>2019-06-12T14:38:31Z</time>
      </trkpt>
      <trkpt lat="44.42112" lon="5.79627">
        <ele>738</ele>
        <time>2019-06-12T14:38:32Z</time>
      </trkpt>
      <trkpt lat="44.4211" lon="5.79632">
        <ele>738</ele>
        <time>2019-06-12T14:38:33Z</time>
      </trkpt>
      <trkpt lat="44.42109" lon="5.79636">
        <ele>738</ele>
        <time>2019-06-12T14:38:34Z</time>
      </trkpt>
      <trkpt lat="44.42107" lon="5.7964">
        <ele>738</ele>
        <time>2019-06-12T14:38:35Z</time>
      </trkpt>
      <trkpt lat="44.42105" lon="5.79644">
        <ele>738</ele>
        <time>2019-06-12T14:38:36Z</time>
      </trkpt>
      <trkpt lat="44.42104" lon="5.79649">
        <ele>738</ele>
        <time>2019-06-12T14:38:37Z</time>
      </trkpt>
      <trkpt lat="44.42102" lon="5.79653">
        <ele>738</ele>
        <time>2019-06-12T14:38:38Z</time>
      </trkpt>
      <trkpt lat="44.421" lon="5.79658">
        <ele>738</ele>
        <time>2019-06-12T14:38:39Z</time>
      </trkpt>
      <trkpt lat="44.42099" lon="5.79662">
        <ele>738</ele>
        <time>2019-06-12T14:38:40Z</time>
      </trkpt>
      <trkpt lat="44.42097" lon="5.79667">
        <ele>738</ele>
        <time>2019-06-12T14:38:41Z</time>
      </trkpt>
      <trkpt lat="44.42095" lon="5.79672">
        <ele>738</ele>
        <time>2019-06-12T14:38:42Z</time>
      </trkpt>
      <trkpt lat="44.42093" lon="5.79677">
        <ele>738</ele>
        <time>2019-06-12T14:38:43Z</time>
      </trkpt>
      <trkpt lat="44.42091" lon="5.79682">
        <ele>738</ele>
        <time>2019-06-12T14:38:44Z</time>
      </trkpt>
      <trkpt lat="44.42089" lon="5.79687">
        <ele>738</ele>
        <time>2019-06-12T14:38:45Z</time>
      </trkpt>
      <trkpt lat="44.42087" lon="5.79691">
        <ele>738</ele>
        <time>2019-06-12T14:38:46Z</time>
      </trkpt>
      <trkpt lat="44.42084" lon="5.79696">
        <ele>738</ele>
        <time>2019-06-12T14:38:47Z</time>
      </trkpt>
      <trkpt lat="44.42081" lon="5.79701">
        <ele>738</ele>
        <time>2019-06-12T14:38:48Z</time>
      </trkpt>
      <trkpt lat="44.42078" lon="5.79706">
        <ele>738</ele>
        <time>2019-06-12T14:38:49Z</time>
      </trkpt>
      <trkpt lat="44.42076" lon="5.79711">
        <ele>738</ele>
        <time>2019-06-12T14:38:50Z</time>
      </trkpt>
      <trkpt lat="44.42073" lon="5.79716">
        <ele>738</ele>
        <time>2019-06-12T14:38:51Z</time>
      </trkpt>
      <trkpt lat="44.42069" lon="5.79721">
        <ele>738</ele>
        <time>2019-06-12T14:38:52Z</time>
      </trkpt>
      <trkpt lat="44.42066" lon="5.79726">
        <ele>738</ele>
        <time>2019-06-12T14:38:53Z</time>
      </trkpt>
      <trkpt lat="44.42063" lon="5.79731">
        <ele>738</ele>
        <time>2019-06-12T14:38:54Z</time>
      </trkpt>
      <trkpt lat="44.42059" lon="5.79736">
        <ele>738</ele>
        <time>2019-06-12T14:38:55Z</time>
      </trkpt>
      <trkpt lat="44.42056" lon="5.79742">
        <ele>738</ele>
        <time>2019-06-12T14:38:56Z</time>
      </trkpt>
      <trkpt lat="44.42052" lon="5.79747">
        <ele>738</ele>
        <time>2019-06-12T14:38:57Z</time>
      </trkpt>
      <trkpt lat="44.42049" lon="5.79753">
        <ele>738</ele>
        <time>2019-06-12T14:38:58Z</time>
      </trkpt>
      <trkpt lat="44.42046" lon="5.79758">
        <ele>738</ele>
        <time>2019-06-12T14:38:59Z</time>
      </trkpt>
      <trkpt lat="44.42043" lon="5.79764">
        <ele>738</ele>
        <time>2019-06-12T14:39:00Z</time>
      </trkpt>
      <trkpt lat="44.4204" lon="5.7977">
        <ele>738</ele>
        <time>2019-06-12T14:39:01Z</time>
      </trkpt>
      <trkpt lat="44.42037" lon="5.79776">
        <ele>738</ele>
        <time>2019-06-12T14:39:02Z</time>
      </trkpt>
      <trkpt lat="44.42035" lon="5.79783">
        <ele>738</ele>
        <time>2019-06-12T14:39:03Z</time>
      </trkpt>
      <trkpt lat="44.42033" lon="5.7979">
        <ele>738</ele>
        <time>2019-06-12T14:39:04Z</time>
      </trkpt>
      <trkpt lat="44.42032" lon="5.79798">
        <ele>738</ele>
        <time>2019-06-12T14:39:05Z</time>
      </trkpt>
      <trkpt lat="44.42031" lon="5.79805">
        <ele>738</ele>
        <time>2019-06-12T14:39:06Z</time>
      </trkpt>
      <trkpt lat="44.4203" lon="5.79813">
        <ele>738</ele>
        <time>2019-06-12T14:39:07Z</time>
      </trkpt>
      <trkpt lat="44.4203" lon="5.79821">
        <ele>738</ele>
        <time>2019-06-12T14:39:08Z</time>
      </trkpt>
      <trkpt lat="44.42029" lon="5.79828">
        <ele>738</ele>
        <time>2019-06-12T14:39:09Z</time>
      </trkpt>
      <trkpt lat="44.42028" lon="5.79836">
        <ele>738</ele>
        <time>2019-06-12T14:39:10Z</time>
      </trkpt>
      <trkpt lat="44.42027" lon="5.79843">
        <ele>738</ele>
        <time>2019-06-12T14:39:11Z</time>
      </trkpt>
      <trkpt lat="44.42025" lon="5.7985">
        <ele>738</ele>
        <time>2019-06-12T14:39:12Z</time>
      </trkpt>
      <trkpt lat="44.42023" lon="5.79857">
        <ele>739</ele>
        <time>2019-06-12T14:39:13Z</time>
      </trkpt>
      <trkpt lat="44.42019" lon="5.79862">
        <ele>739</ele>
        <time>2019-06-12T14:39:14Z</time>
      </trkpt>
      <trkpt lat="44.42014" lon="5.79867">
        <ele>739</ele>
        <time>2019-06-12T14:39:15Z</time>
      </trkpt>
      <trkpt lat="44.42008" lon="5.79869">
        <ele>739</ele>
        <time>2019-06-12T14:39:16Z</time>
      </trkpt>
      <trkpt lat="44.42002" lon="5.79871">
        <ele>739</ele>
        <time>2019-06-12T14:39:17Z</time>
      </trkpt>
      <trkpt lat="44.41996" lon="5.79872">
        <ele>739</ele>
        <time>2019-06-12T14:39:18Z</time>
      </trkpt>
      <trkpt lat="44.4199" lon="5.79873">
        <ele>739</ele>
        <time>2019-06-12T14:39:19Z</time>
      </trkpt>
      <trkpt lat="44.41983" lon="5.79873">
        <ele>739</ele>
        <time>2019-06-12T14:39:20Z</time>
      </trkpt>
      <trkpt lat="44.41977" lon="5.79874">
        <ele>739</ele>
        <time>2019-06-12T14:39:21Z</time>
      </trkpt>
      <trkpt lat="44.4197" lon="5.79875">
        <ele>739</ele>
        <time>2019-06-12T14:39:22Z</time>
      </trkpt>
      <trkpt lat="44.41964" lon="5.79876">
        <ele>739</ele>
        <time>2019-06-12T14:39:23Z</time>
      </trkpt>
      <trkpt lat="44.41957" lon="5.79879">
        <ele>739</ele>
        <time>2019-06-12T14:39:24Z</time>
      </trkpt>
      <trkpt lat="44.41951" lon="5.79883">
        <ele>739</ele>
        <time>2019-06-12T14:39:25Z</time>
      </trkpt>
      <trkpt lat="44.41946" lon="5.79888">
        <ele>739</ele>
        <time>2019-06-12T14:39:26Z</time>
      </trkpt>
      <trkpt lat="44.41941" lon="5.79894">
        <ele>739</ele>
        <time>2019-06-12T14:39:27Z</time>
      </trkpt>
      <trkpt lat="44.41935" lon="5.799">
        <ele>739</ele>
        <time>2019-06-12T14:39:28Z</time>
      </trkpt>
      <trkpt lat="44.4193" lon="5.79906">
        <ele>739</ele>
        <time>2019-06-12T14:39:29Z</time>
      </trkpt>
      <trkpt lat="44.41925" lon="5.79913">
        <ele>739</ele>
        <time>2019-06-12T14:39:30Z</time>
      </trkpt>
      <trkpt lat="44.4192" lon="5.79918">
        <ele>739</ele>
        <time>2019-06-12T14:39:31Z</time>
      </trkpt>
      <trkpt lat="44.41915" lon="5.79924">
        <ele>739</ele>
        <time>2019-06-12T14:39:32Z</time>
      </trkpt>
      <trkpt lat="44.4191" lon="5.79929">
        <ele>739</ele>
        <time>2019-06-12T14:39:33Z</time>
      </trkpt>
      <trkpt lat="44.41905" lon="5.79935">
        <ele>739</ele>
        <time>2019-06-12T14:39:34Z</time>
      </trkpt>
      <trkpt lat="44.419" lon="5.7994">
        <ele>739</ele>
        <time>2019-06-12T14:39:35Z</time>
      </trkpt>
      <trkpt lat="44.41895" lon="5.79946">
        <ele>739</ele>
        <time>2019-06-12T14:39:36Z</time>
      </trkpt>
      <trkpt lat="44.4189" lon="5.79951">
        <ele>739</ele>
        <time>2019-06-12T14:39:37Z</time>
      </trkpt>
      <trkpt lat="44.41885" lon="5.79957">
        <ele>739</ele>
        <time>2019-06-12T14:39:38Z</time>
      </trkpt>
      <trkpt lat="44.41881" lon="5.79964">
        <ele>739</ele>
        <time>2019-06-12T14:39:39Z</time>
      </trkpt>
      <trkpt lat="44.41877" lon="5.7997">
        <ele>739</ele>
        <time>2019-06-12T14:39:40Z</time>
      </trkpt>
      <trkpt lat="44.41873" lon="5.79977">
        <ele>739</ele>
        <time>2019-06-12T14:39:41Z</time>
      </trkpt>
      <trkpt lat="44.41869" lon="5.79984">
        <ele>739</ele>
        <time>2019-06-12T14:39:42Z</time>
      </trkpt>
      <trkpt lat="44.41866" lon="5.79991">
        <ele>739</ele>
        <time>2019-06-12T14:39:43Z</time>
      </trkpt>
      <trkpt lat="44.41862" lon="5.79998">
        <ele>739</ele>
        <time>2019-06-12T14:39:44Z</time>
      </trkpt>
      <trkpt lat="44.41859" lon="5.80006">
        <ele>739</ele>
        <time>2019-06-12T14:39:45Z</time>
      </trkpt>
      <trkpt lat="44.41855" lon="5.80013">
        <ele>739</ele>
        <time>2019-06-12T14:39:46Z</time>
      </trkpt>
      <trkpt lat="44.41851" lon="5.8002">
        <ele>739</ele>
        <time>2019-06-12T14:39:47Z</time>
      </trkpt>
      <trkpt lat="44.41848" lon="5.80027">
        <ele>739</ele>
        <time>2019-06-12T14:39:48Z</time>
      </trkpt>
      <trkpt lat="44.41844" lon="5.80034">
        <ele>739</ele>
        <time>2019-06-12T14:39:49Z</time>
      </trkpt>
      <trkpt lat="44.4184" lon="5.8004">
        <ele>739</ele>
        <time>2019-06-12T14:39:50Z</time>
      </trkpt>
      <trkpt lat="44.41836" lon="5.80046">
        <ele>739</ele>
        <time>2019-06-12T14:39:51Z</time>
      </trkpt>
      <trkpt lat="44.41832" lon="5.80052">
        <ele>739</ele>
        <time>2019-06-12T14:39:52Z</time>
      </trkpt>
      <trkpt lat="44.41828" lon="5.80058">
        <ele>739</ele>
        <time>2019-06-12T14:39:53Z</time>
      </trkpt>
      <trkpt lat="44.41824" lon="5.80064">
        <ele>739</ele>
        <time>2019-06-12T14:39:54Z</time>
      </trkpt>
      <trkpt lat="44.4182" lon="5.80069">
        <ele>739</ele>
        <time>2019-06-12T14:39:55Z</time>
      </trkpt>
      <trkpt lat="44.41816" lon="5.80075">
        <ele>739</ele>
        <time>2019-06-12T14:39:56Z</time>
      </trkpt>
      <trkpt lat="44.41812" lon="5.80081">
        <ele>739</ele>
        <time>2019-06-12T14:39:57Z</time>
      </trkpt>
      <trkpt lat="44.41808" lon="5.80087">
        <ele>740</ele>
        <time>2019-06-12T14:39:58Z</time>
      </trkpt>
      <trkpt lat="44.41804" lon="5.80092">
        <ele>740</ele>
        <time>2019-06-12T14:39:59Z</time>
      </trkpt>
      <trkpt lat="44.418" lon="5.80098">
        <ele>740</ele>
        <time>2019-06-12T14:40:00Z</time>
      </trkpt>
      <trkpt lat="44.41796" lon="5.80104">
        <ele>740</ele>
        <time>2019-06-12T14:40:01Z</time>
      </trkpt>
      <trkpt lat="44.41792" lon="5.80109">
        <ele>740</ele>
        <time>2019-06-12T14:40:02Z</time>
      </trkpt>
      <trkpt lat="44.41788" lon="5.80115">
        <ele>740</ele>
        <time>2019-06-12T14:40:03Z</time>
      </trkpt>
      <trkpt lat="44.41784" lon="5.8012">
        <ele>740</ele>
        <time>2019-06-12T14:40:04Z</time>
      </trkpt>
      <trkpt lat="44.41779" lon="5.80125">
        <ele>740</ele>
        <time>2019-06-12T14:40:05Z</time>
      </trkpt>
      <trkpt lat="44.41775" lon="5.8013">
        <ele>740</ele>
        <time>2019-06-12T14:40:06Z</time>
      </trkpt>
      <trkpt lat="44.4177" lon="5.80135">
        <ele>740</ele>
        <time>2019-06-12T14:40:07Z</time>
      </trkpt>
      <trkpt lat="44.41765" lon="5.80139">
        <ele>740</ele>
        <time>2019-06-12T14:40:08Z</time>
      </trkpt>
      <trkpt lat="44.4176" lon="5.80144">
        <ele>740</ele>
        <time>2019-06-12T14:40:09Z</time>
      </trkpt>
      <trkpt lat="44.41755" lon="5.80148">
        <ele>740</ele>
        <time>2019-06-12T14:40:10Z</time>
      </trkpt>
      <trkpt lat="44.41749" lon="5.80153">
        <ele>740</ele>
        <time>2019-06-12T14:40:11Z</time>
      </trkpt>
      <trkpt lat="44.41744" lon="5.80157">
        <ele>740</ele>
        <time>2019-06-12T14:40:12Z</time>
      </trkpt>
      <trkpt lat="44.41738" lon="5.80161">
        <ele>740</ele>
        <time>2019-06-12T14:40:13Z</time>
      </trkpt>
      <trkpt lat="44.41733" lon="5.80166">
        <ele>740</ele>
        <time>2019-06-12T14:40:14Z</time>
      </trkpt>
      <trkpt lat="44.41727" lon="5.8017">
        <ele>740</ele>
        <time>2019-06-12T14:40:15Z</time>
      </trkpt>
      <trkpt lat="44.41722" lon="5.80175">
        <ele>740</ele>
        <time>2019-06-12T14:40:16Z</time>
      </trkpt>
      <trkpt lat="44.41718" lon="5.80181">
        <ele>740</ele>
        <time>2019-06-12T14:40:17Z</time>
      </trkpt>
      <trkpt lat="44.41714" lon="5.80188">
        <ele>740</ele>
        <time>2019-06-12T14:40:18Z</time>
      </trkpt>
      <trkpt lat="44.41711" lon="5.80196">
        <ele>740</ele>
        <time>2019-06-12T14:40:19Z</time>
      </trkpt>
      <trkpt lat="44.41709" lon="5.80203">
        <ele>740</ele>
        <time>2019-06-12T14:40:20Z</time>
      </trkpt>
      <trkpt lat="44.41707" lon="5.80212">
        <ele>740</ele>
        <time>2019-06-12T14:40:21Z</time>
      </trkpt>
      <trkpt lat="44.41706" lon="5.8022">
        <ele>740</ele>
        <time>2019-06-12T14:40:22Z</time>
      </trkpt>
      <trkpt lat="44.41704" lon="5.80228">
        <ele>740</ele>
        <time>2019-06-12T14:40:23Z</time>
      </trkpt>
      <trkpt lat="44.41703" lon="5.80236">
        <ele>740</ele>
        <time>2019-06-12T14:40:24Z</time>
      </trkpt>
      <trkpt lat="44.41701" lon="5.80244">
        <ele>740</ele>
        <time>2019-06-12T14:40:25Z</time>
      </trkpt>
      <trkpt lat="44.41699" lon="5.80252">
        <ele>740</ele>
        <time>2019-06-12T14:40:26Z</time>
      </trkpt>
      <trkpt lat="44.41696" lon="5.8026">
        <ele>740</ele>
        <time>2019-06-12T14:40:27Z</time>
      </trkpt>
      <trkpt lat="44.41693" lon="5.80267">
        <ele>740</ele>
        <time>2019-06-12T14:40:28Z</time>
      </trkpt>
      <trkpt lat="44.41689" lon="5.80273">
        <ele>740</ele>
        <time>2019-06-12T14:40:29Z</time>
      </trkpt>
      <trkpt lat="44.41685" lon="5.80279">
        <ele>740</ele>
        <time>2019-06-12T14:40:30Z</time>
      </trkpt>
      <trkpt lat="44.41681" lon="5.80285">
        <ele>740</ele>
        <time>2019-06-12T14:40:31Z</time>
      </trkpt>
      <trkpt lat="44.41676" lon="5.8029">
        <ele>740</ele>
        <time>2019-06-12T14:40:32Z</time>
      </trkpt>
      <trkpt lat="44.41672" lon="5.80295">
        <ele>740</ele>
        <time>2019-06-12T14:40:33Z</time>
      </trkpt>
      <trkpt lat="44.41667" lon="5.803">
        <ele>740</ele>
        <time>2019-06-12T14:40:34Z</time>
      </trkpt>
      <trkpt lat="44.41663" lon="5.80304">
        <ele>741</ele>
        <time>2019-06-12T14:40:35Z</time>
      </trkpt>
      <trkpt lat="44.41658" lon="5.80309">
        <ele>741</ele>
        <time>2019-06-12T14:40:36Z</time>
      </trkpt>
      <trkpt lat="44.41654" lon="5.80314">
        <ele>741</ele>
        <time>2019-06-12T14:40:37Z</time>
      </trkpt>
      <trkpt lat="44.4165" lon="5.80319">
        <ele>741</ele>
        <time>2019-06-12T14:40:38Z</time>
      </trkpt>
      <trkpt lat="44.41646" lon="5.80323">
        <ele>741</ele>
        <time>2019-06-12T14:40:39Z</time>
      </trkpt>
      <trkpt lat="44.41642" lon="5.80328">
        <ele>741</ele>
        <time>2019-06-12T14:40:40Z</time>
      </trkpt>
      <trkpt lat="44.41637" lon="5.80333">
        <ele>741</ele>
        <time>2019-06-12T14:40:41Z</time>
      </trkpt>
      <trkpt lat="44.41634" lon="5.80338">
        <ele>741</ele>
        <time>2019-06-12T14:40:42Z</time>
      </trkpt>
      <trkpt lat="44.41629" lon="5.80343">
        <ele>741</ele>
        <time>2019-06-12T14:40:43Z</time>
      </trkpt>
      <trkpt lat="44.41625" lon="5.80348">
        <ele>742</ele>
        <time>2019-06-12T14:40:44Z</time>
      </trkpt>
      <trkpt lat="44.41621" lon="5.80354">
        <ele>742</ele>
        <time>2019-06-12T14:40:45Z</time>
      </trkpt>
      <trkpt lat="44.41617" lon="5.8036">
        <ele>742</ele>
        <time>2019-06-12T14:40:46Z</time>
      </trkpt>
      <trkpt lat="44.41613" lon="5.80365">
        <ele>742</ele>
        <time>2019-06-12T14:40:47Z</time>
      </trkpt>
      <trkpt lat="44.41608" lon="5.80371">
        <ele>742</ele>
        <time>2019-06-12T14:40:48Z</time>
      </trkpt>
      <trkpt lat="44.41604" lon="5.80377">
        <ele>742</ele>
        <time>2019-06-12T14:40:49Z</time>
      </trkpt>
      <trkpt lat="44.416" lon="5.80382">
        <ele>742</ele>
        <time>2019-06-12T14:40:50Z</time>
      </trkpt>
      <trkpt lat="44.41595" lon="5.80389">
        <ele>742</ele>
        <time>2019-06-12T14:40:51Z</time>
      </trkpt>
      <trkpt lat="44.41591" lon="5.80395">
        <ele>742</ele>
        <time>2019-06-12T14:40:52Z</time>
      </trkpt>
      <trkpt lat="44.41587" lon="5.80402">
        <ele>742</ele>
        <time>2019-06-12T14:40:53Z</time>
      </trkpt>
      <trkpt lat="44.41583" lon="5.80408">
        <ele>742</ele>
        <time>2019-06-12T14:40:54Z</time>
      </trkpt>
      <trkpt lat="44.41579" lon="5.80414">
        <ele>742</ele>
        <time>2019-06-12T14:40:55Z</time>
      </trkpt>
      <trkpt lat="44.41574" lon="5.80421">
        <ele>742</ele>
        <time>2019-06-12T14:40:56Z</time>
      </trkpt>
      <trkpt lat="44.4157" lon="5.80428">
        <ele>742</ele>
        <time>2019-06-12T14:40:57Z</time>
      </trkpt>
      <trkpt lat="44.41565" lon="5.80435">
        <ele>742</ele>
        <time>2019-06-12T14:40:58Z</time>
      </trkpt>
      <trkpt lat="44.4156" lon="5.80442">
        <ele>742</ele>
        <time>2019-06-12T14:40:59Z</time>
      </trkpt>
      <trkpt lat="44.41555" lon="5.80448">
        <ele>742</ele>
        <time>2019-06-12T14:41:00Z</time>
      </trkpt>
      <trkpt lat="44.41551" lon="5.80455">
        <ele>742</ele>
        <time>2019-06-12T14:41:01Z</time>
      </trkpt>
      <trkpt lat="44.41546" lon="5.80462">
        <ele>742</ele>
        <time>2019-06-12T14:41:02Z</time>
      </trkpt>
      <trkpt lat="44.41541" lon="5.80468">
        <ele>742</ele>
        <time>2019-06-12T14:41:03Z</time>
      </trkpt>
      <trkpt lat="44.41536" lon="5.80474">
        <ele>742</ele>
        <time>2019-06-12T14:41:04Z</time>
      </trkpt>
      <trkpt lat="44.41531" lon="5.8048">
        <ele>742</ele>
        <time>2019-06-12T14:41:05Z</time>
      </trkpt>
      <trkpt lat="44.41527" lon="5.80487">
        <ele>742</ele>
        <time>2019-06-12T14:41:06Z</time>
      </trkpt>
      <trkpt lat="44.41522" lon="5.80493">
        <ele>742</ele>
        <time>2019-06-12T14:41:07Z</time>
      </trkpt>
      <trkpt lat="44.41517" lon="5.80499">
        <ele>742</ele>
        <time>2019-06-12T14:41:08Z</time>
      </trkpt>
      <trkpt lat="44.41512" lon="5.80506">
        <ele>742</ele>
        <time>2019-06-12T14:41:09Z</time>
      </trkpt>
      <trkpt lat="44.41508" lon="5.80512">
        <ele>742</ele>
        <time>2019-06-12T14:41:10Z</time>
      </trkpt>
      <trkpt lat="44.41503" lon="5.80519">
        <ele>742</ele>
        <time>2019-06-12T14:41:11Z</time>
      </trkpt>
      <trkpt lat="44.41498" lon="5.80526">
        <ele>742</ele>
        <time>2019-06-12T14:41:12Z</time>
      </trkpt>
      <trkpt lat="44.41494" lon="5.80533">
        <ele>742</ele>
        <time>2019-06-12T14:41:13Z</time>
      </trkpt>
      <trkpt lat="44.41489" lon="5.8054">
        <ele>742</ele>
        <time>2019-06-12T14:41:14Z</time>
      </trkpt>
      <trkpt lat="44.41486" lon="5.80547">
        <ele>742</ele>
        <time>2019-06-12T14:41:15Z</time>
      </trkpt>
      <trkpt lat="44.41483" lon="5.80555">
        <ele>742</ele>
        <time>2019-06-12T14:41:16Z</time>
      </trkpt>
      <trkpt lat="44.4148" lon="5.80563">
        <ele>742</ele>
        <time>2019-06-12T14:41:17Z</time>
      </trkpt>
      <trkpt lat="44.41478" lon="5.80571">
        <ele>742</ele>
        <time>2019-06-12T14:41:18Z</time>
      </trkpt>
      <trkpt lat="44.41476" lon="5.80579">
        <ele>742</ele>
        <time>2019-06-12T14:41:19Z</time>
      </trkpt>
      <trkpt lat="44.41475" lon="5.80586">
        <ele>742</ele>
        <time>2019-06-12T14:41:20Z</time>
      </trkpt>
      <trkpt lat="44.41475" lon="5.80593">
        <ele>742</ele>
        <time>2019-06-12T14:41:21Z</time>
      </trkpt>
      <trkpt lat="44.41474" lon="5.806">
        <ele>742</ele>
        <time>2019-06-12T14:41:22Z</time>
      </trkpt>
      <trkpt lat="44.41474" lon="5.80607">
        <ele>743</ele>
        <time>2019-06-12T14:41:23Z</time>
      </trkpt>
      <trkpt lat="44.41475" lon="5.80614">
        <ele>743</ele>
        <time>2019-06-12T14:41:24Z</time>
      </trkpt>
      <trkpt lat="44.41476" lon="5.80619">
        <ele>743</ele>
        <time>2019-06-12T14:41:25Z</time>
      </trkpt>
      <trkpt lat="44.41477" lon="5.80625">
        <ele>743</ele>
        <time>2019-06-12T14:41:26Z</time>
      </trkpt>
      <trkpt lat="44.41479" lon="5.80631">
        <ele>743</ele>
        <time>2019-06-12T14:41:27Z</time>
      </trkpt>
      <trkpt lat="44.4148" lon="5.80637">
        <ele>743</ele>
        <time>2019-06-12T14:41:28Z</time>
      </trkpt>
      <trkpt lat="44.41481" lon="5.80643">
        <ele>743</ele>
        <time>2019-06-12T14:41:29Z</time>
      </trkpt>
      <trkpt lat="44.41483" lon="5.80648">
        <ele>743</ele>
        <time>2019-06-12T14:41:30Z</time>
      </trkpt>
      <trkpt lat="44.41485" lon="5.80653">
        <ele>743</ele>
        <time>2019-06-12T14:41:31Z</time>
      </trkpt>
      <trkpt lat="44.41487" lon="5.80659">
        <ele>743</ele>
        <time>2019-06-12T14:41:32Z</time>
      </trkpt>
      <trkpt lat="44.41489" lon="5.80664">
        <ele>743</ele>
        <time>2019-06-12T14:41:33Z</time>
      </trkpt>
      <trkpt lat="44.4149" lon="5.8067">
        <ele>743</ele>
        <time>2019-06-12T14:41:34Z</time>
      </trkpt>
      <trkpt lat="44.41491" lon="5.80676">
        <ele>743</ele>
        <time>2019-06-12T14:41:35Z</time>
      </trkpt>
      <trkpt lat="44.41493" lon="5.80682">
        <ele>743</ele>
        <time>2019-06-12T14:41:36Z</time>
      </trkpt>
      <trkpt lat="44.41494" lon="5.80687">
        <ele>743</ele>
        <time>2019-06-12T14:41:37Z</time>
      </trkpt>
      <trkpt lat="44.41495" lon="5.80693">
        <ele>743</ele>
        <time>2019-06-12T14:41:38Z</time>
      </trkpt>
      <trkpt lat="44.41497" lon="5.80699">
        <ele>743</ele>
        <time>2019-06-12T14:41:39Z</time>
      </trkpt>
      <trkpt lat="44.41499" lon="5.80704">
        <ele>743</ele>
        <time>2019-06-12T14:41:40Z</time>
      </trkpt>
      <trkpt lat="44.415" lon="5.80711">
        <ele>743</ele>
        <time>2019-06-12T14:41:41Z</time>
      </trkpt>
      <trkpt lat="44.41501" lon="5.80717">
        <ele>743</ele>
        <time>2019-06-12T14:41:42Z</time>
      </trkpt>
      <trkpt lat="44.41502" lon="5.80722">
        <ele>743</ele>
        <time>2019-06-12T14:41:43Z</time>
      </trkpt>
      <trkpt lat="44.41503" lon="5.80728">
        <ele>743</ele>
        <time>2019-06-12T14:41:44Z</time>
      </trkpt>
      <trkpt lat="44.41504" lon="5.80734">
        <ele>743</ele>
        <time>2019-06-12T14:41:45Z</time>
      </trkpt>
      <trkpt lat="44.41504" lon="5.8074">
        <ele>743</ele>
        <time>2019-06-12T14:41:46Z</time>
      </trkpt>
      <trkpt lat="44.41504" lon="5.80746">
        <ele>743</ele>
        <time>2019-06-12T14:41:47Z</time>
      </trkpt>
      <trkpt lat="44.41504" lon="5.80752">
        <ele>744</ele>
        <time>2019-06-12T14:41:48Z</time>
      </trkpt>
      <trkpt lat="44.41504" lon="5.80758">
        <ele>744</ele>
        <time>2019-06-12T14:41:49Z</time>
      </trkpt>
      <trkpt lat="44.41503" lon="5.80763">
        <ele>744</ele>
        <time>2019-06-12T14:41:50Z</time>
      </trkpt>
      <trkpt lat="44.41503" lon="5.80769">
        <ele>744</ele>
        <time>2019-06-12T14:41:51Z</time>
      </trkpt>
      <trkpt lat="44.41503" lon="5.80775">
        <ele>744</ele>
        <time>2019-06-12T14:41:52Z</time>
      </trkpt>
      <trkpt lat="44.41502" lon="5.80781">
        <ele>744</ele>
        <time>2019-06-12T14:41:53Z</time>
      </trkpt>
      <trkpt lat="44.41502" lon="5.80786">
        <ele>745</ele>
        <time>2019-06-12T14:41:54Z</time>
      </trkpt>
      <trkpt lat="44.41501" lon="5.80792">
        <ele>745</ele>
        <time>2019-06-12T14:41:55Z</time>
      </trkpt>
      <trkpt lat="44.41501" lon="5.80797">
        <ele>745</ele>
        <time>2019-06-12T14:41:56Z</time>
      </trkpt>
      <trkpt lat="44.41501" lon="5.80803">
        <ele>745</ele>
        <time>2019-06-12T14:41:57Z</time>
      </trkpt>
      <trkpt lat="44.41501" lon="5.80809">
        <ele>746</ele>
        <time>2019-06-12T14:41:58Z</time>
      </trkpt>
      <trkpt lat="44.41501" lon="5.80815">
        <ele>746</ele>
        <time>2019-06-12T14:41:59Z</time>
      </trkpt>
      <trkpt lat="44.41501" lon="5.8082">
        <ele>746</ele>
        <time>2019-06-12T14:42:00Z</time>
      </trkpt>
      <trkpt lat="44.41501" lon="5.80826">
        <ele>746</ele>
        <time>2019-06-12T14:42:01Z</time>
      </trkpt>
      <trkpt lat="44.415" lon="5.80832">
        <ele>747</ele>
        <time>2019-06-12T14:42:02Z</time>
      </trkpt>
      <trkpt lat="44.415" lon="5.80838">
        <ele>747</ele>
        <time>2019-06-12T14:42:03Z</time>
      </trkpt>
      <trkpt lat="44.415" lon="5.80844">
        <ele>747</ele>
        <time>2019-06-12T14:42:04Z</time>
      </trkpt>
      <trkpt lat="44.415" lon="5.8085">
        <ele>747</ele>
        <time>2019-06-12T14:42:05Z</time>
      </trkpt>
      <trkpt lat="44.415" lon="5.80855">
        <ele>748</ele>
        <time>2019-06-12T14:42:06Z</time>
      </trkpt>
      <trkpt lat="44.415" lon="5.80861">
        <ele>748</ele>
        <time>2019-06-12T14:42:07Z</time>
      </trkpt>
      <trkpt lat="44.415" lon="5.80867">
        <ele>748</ele>
        <time>2019-06-12T14:42:08Z</time>
      </trkpt>
      <trkpt lat="44.415" lon="5.80873">
        <ele>748</ele>
        <time>2019-06-12T14:42:09Z</time>
      </trkpt>
      <trkpt lat="44.415" lon="5.80879">
        <ele>748</ele>
        <time>2019-06-12T14:42:10Z</time>
      </trkpt>
      <trkpt lat="44.415" lon="5.80885">
        <ele>748</ele>
        <time>2019-06-12T14:42:11Z</time>
      </trkpt>
      <trkpt lat="44.415" lon="5.80892">
        <ele>749</ele>
        <time>2019-06-12T14:42:12Z</time>
      </trkpt>
      <trkpt lat="44.415" lon="5.80898">
        <ele>749</ele>
        <time>2019-06-12T14:42:13Z</time>
      </trkpt>
      <trkpt lat="44.415" lon="5.80904">
        <ele>749</ele>
        <time>2019-06-12T14:42:14Z</time>
      </trkpt>
      <trkpt lat="44.415" lon="5.8091">
        <ele>749</ele>
        <time>2019-06-12T14:42:15Z</time>
      </trkpt>
      <trkpt lat="44.415" lon="5.80917">
        <ele>749</ele>
        <time>2019-06-12T14:42:16Z</time>
      </trkpt>
      <trkpt lat="44.415" lon="5.80923">
        <ele>749</ele>
        <time>2019-06-12T14:42:17Z</time>
      </trkpt>
      <trkpt lat="44.41499" lon="5.80929">
        <ele>749</ele>
        <time>2019-06-12T14:42:18Z</time>
      </trkpt>
      <trkpt lat="44.41499" lon="5.80935">
        <ele>750</ele>
        <time>2019-06-12T14:42:19Z</time>
      </trkpt>
      <trkpt lat="44.41499" lon="5.80941">
        <ele>750</ele>
        <time>2019-06-12T14:42:20Z</time>
      </trkpt>
      <trkpt lat="44.41499" lon="5.80947">
        <ele>750</ele>
        <time>2019-06-12T14:42:21Z</time>
      </trkpt>
      <trkpt lat="44.41499" lon="5.80954">
        <ele>750</ele>
        <time>2019-06-12T14:42:22Z</time>
      </trkpt>
      <trkpt lat="44.41498" lon="5.8096">
        <ele>750</ele>
        <time>2019-06-12T14:42:23Z</time>
      </trkpt>
      <trkpt lat="44.41498" lon="5.80966">
        <ele>750</ele>
        <time>2019-06-12T14:42:24Z</time>
      </trkpt>
      <trkpt lat="44.41498" lon="5.80972">
        <ele>751</ele>
        <time>2019-06-12T14:42:25Z</time>
      </trkpt>
      <trkpt lat="44.41497" lon="5.80977">
        <ele>751</ele>
        <time>2019-06-12T14:42:26Z</time>
      </trkpt>
      <trkpt lat="44.41497" lon="5.80983">
        <ele>751</ele>
        <time>2019-06-12T14:42:27Z</time>
      </trkpt>
      <trkpt lat="44.41496" lon="5.80989">
        <ele>751</ele>
        <time>2019-06-12T14:42:28Z</time>
      </trkpt>
      <trkpt lat="44.41496" lon="5.80995">
        <ele>752</ele>
        <time>2019-06-12T14:42:29Z</time>
      </trkpt>
      <trkpt lat="44.41495" lon="5.81001">
        <ele>752</ele>
        <time>2019-06-12T14:42:30Z</time>
      </trkpt>
      <trkpt lat="44.41495" lon="5.81006">
        <ele>752</ele>
        <time>2019-06-12T14:42:31Z</time>
      </trkpt>
      <trkpt lat="44.41494" lon="5.81012">
        <ele>752</ele>
        <time>2019-06-12T14:42:32Z</time>
      </trkpt>
      <trkpt lat="44.41494" lon="5.81017">
        <ele>752</ele>
        <time>2019-06-12T14:42:33Z</time>
      </trkpt>
      <trkpt lat="44.41493" lon="5.81023">
        <ele>753</ele>
        <time>2019-06-12T14:42:34Z</time>
      </trkpt>
      <trkpt lat="44.41492" lon="5.81029">
        <ele>753</ele>
        <time>2019-06-12T14:42:35Z</time>
      </trkpt>
      <trkpt lat="44.41491" lon="5.81034">
        <ele>753</ele>
        <time>2019-06-12T14:42:36Z</time>
      </trkpt>
      <trkpt lat="44.41491" lon="5.8104">
        <ele>753</ele>
        <time>2019-06-12T14:42:37Z</time>
      </trkpt>
      <trkpt lat="44.41491" lon="5.81046">
        <ele>753</ele>
        <time>2019-06-12T14:42:38Z</time>
      </trkpt>
      <trkpt lat="44.4149" lon="5.81051">
        <ele>753</ele>
        <time>2019-06-12T14:42:39Z</time>
      </trkpt>
      <trkpt lat="44.41489" lon="5.81057">
        <ele>754</ele>
        <time>2019-06-12T14:42:40Z</time>
      </trkpt>
      <trkpt lat="44.41488" lon="5.81062">
        <ele>754</ele>
        <time>2019-06-12T14:42:41Z</time>
      </trkpt>
      <trkpt lat="44.41488" lon="5.81068">
        <ele>754</ele>
        <time>2019-06-12T14:42:42Z</time>
      </trkpt>
      <trkpt lat="44.41487" lon="5.81074">
        <ele>754</ele>
        <time>2019-06-12T14:42:43Z</time>
      </trkpt>
      <trkpt lat="44.41487" lon="5.81079">
        <ele>754</ele>
        <time>2019-06-12T14:42:44Z</time>
      </trkpt>
      <trkpt lat="44.41486" lon="5.81085">
        <ele>755</ele>
        <time>2019-06-12T14:42:45Z</time>
      </trkpt>
      <trkpt lat="44.41485" lon="5.81091">
        <ele>755</ele>
        <time>2019-06-12T14:42:46Z</time>
      </trkpt>
      <trkpt lat="44.41484" lon="5.81096">
        <ele>755</ele>
        <time>2019-06-12T14:42:47Z</time>
      </trkpt>
      <trkpt lat="44.41483" lon="5.81102">
        <ele>755</ele>
        <time>2019-06-12T14:42:48Z</time>
      </trkpt>
      <trkpt lat="44.41483" lon="5.81107">
        <ele>755</ele>
        <time>2019-06-12T14:42:49Z</time>
      </trkpt>
      <trkpt lat="44.41483" lon="5.81113">
        <ele>755</ele>
        <time>2019-06-12T14:42:50Z</time>
      </trkpt>
      <trkpt lat="44.41482" lon="5.81118">
        <ele>755</ele>
        <time>2019-06-12T14:42:51Z</time>
      </trkpt>
      <trkpt lat="44.41481" lon="5.81123">
        <ele>756</ele>
        <time>2019-06-12T14:42:52Z</time>
      </trkpt>
      <trkpt lat="44.41481" lon="5.81128">
        <ele>756</ele>
        <time>2019-06-12T14:42:53Z</time>
      </trkpt>
      <trkpt lat="44.4148" lon="5.81134">
        <ele>756</ele>
        <time>2019-06-12T14:42:54Z</time>
      </trkpt>
      <trkpt lat="44.4148" lon="5.81139">
        <ele>756</ele>
        <time>2019-06-12T14:42:55Z</time>
      </trkpt>
      <trkpt lat="44.41479" lon="5.81145">
        <ele>756</ele>
        <time>2019-06-12T14:42:56Z</time>
      </trkpt>
      <trkpt lat="44.41479" lon="5.8115">
        <ele>756</ele>
        <time>2019-06-12T14:42:57Z</time>
      </trkpt>
      <trkpt lat="44.41478" lon="5.81156">
        <ele>756</ele>
        <time>2019-06-12T14:42:58Z</time>
      </trkpt>
      <trkpt lat="44.41478" lon="5.81161">
        <ele>757</ele>
        <time>2019-06-12T14:42:59Z</time>
      </trkpt>
      <trkpt lat="44.41477" lon="5.81167">
        <ele>757</ele>
        <time>2019-06-12T14:43:00Z</time>
      </trkpt>
      <trkpt lat="44.41477" lon="5.81173">
        <ele>757</ele>
        <time>2019-06-12T14:43:01Z</time>
      </trkpt>
      <trkpt lat="44.41478" lon="5.81179">
        <ele>757</ele>
        <time>2019-06-12T14:43:02Z</time>
      </trkpt>
      <trkpt lat="44.41478" lon="5.81185">
        <ele>757</ele>
        <time>2019-06-12T14:43:03Z</time>
      </trkpt>
      <trkpt lat="44.41478" lon="5.81191">
        <ele>757</ele>
        <time>2019-06-12T14:43:04Z</time>
      </trkpt>
      <trkpt lat="44.41477" lon="5.81198">
        <ele>757</ele>
        <time>2019-06-12T14:43:05Z</time>
      </trkpt>
      <trkpt lat="44.41476" lon="5.81204">
        <ele>757</ele>
        <time>2019-06-12T14:43:06Z</time>
      </trkpt>
      <trkpt lat="44.41475" lon="5.8121">
        <ele>758</ele>
        <time>2019-06-12T14:43:07Z</time>
      </trkpt>
      <trkpt lat="44.41474" lon="5.81217">
        <ele>758</ele>
        <time>2019-06-12T14:43:08Z</time>
      </trkpt>
      <trkpt lat="44.41473" lon="5.81223">
        <ele>758</ele>
        <time>2019-06-12T14:43:09Z</time>
      </trkpt>
      <trkpt lat="44.41472" lon="5.8123">
        <ele>758</ele>
        <time>2019-06-12T14:43:10Z</time>
      </trkpt>
      <trkpt lat="44.41471" lon="5.81236">
        <ele>758</ele>
        <time>2019-06-12T14:43:11Z</time>
      </trkpt>
      <trkpt lat="44.4147" lon="5.81243">
        <ele>758</ele>
        <time>2019-06-12T14:43:12Z</time>
      </trkpt>
      <trkpt lat="44.41468" lon="5.81249">
        <ele>758</ele>
        <time>2019-06-12T14:43:13Z</time>
      </trkpt>
      <trkpt lat="44.41466" lon="5.81255">
        <ele>759</ele>
        <time>2019-06-12T14:43:14Z</time>
      </trkpt>
      <trkpt lat="44.41465" lon="5.81261">
        <ele>759</ele>
        <time>2019-06-12T14:43:15Z</time>
      </trkpt>
      <trkpt lat="44.41463" lon="5.81268">
        <ele>759</ele>
        <time>2019-06-12T14:43:16Z</time>
      </trkpt>
      <trkpt lat="44.41461" lon="5.81274">
        <ele>759</ele>
        <time>2019-06-12T14:43:17Z</time>
      </trkpt>
      <trkpt lat="44.41459" lon="5.8128">
        <ele>759</ele>
        <time>2019-06-12T14:43:18Z</time>
      </trkpt>
      <trkpt lat="44.41458" lon="5.81286">
        <ele>759</ele>
        <time>2019-06-12T14:43:19Z</time>
      </trkpt>
      <trkpt lat="44.41456" lon="5.81292">
        <ele>759</ele>
        <time>2019-06-12T14:43:20Z</time>
      </trkpt>
      <trkpt lat="44.41455" lon="5.81299">
        <ele>759</ele>
        <time>2019-06-12T14:43:21Z</time>
      </trkpt>
      <trkpt lat="44.41453" lon="5.81305">
        <ele>759</ele>
        <time>2019-06-12T14:43:22Z</time>
      </trkpt>
      <trkpt lat="44.4145" lon="5.8131">
        <ele>760</ele>
        <time>2019-06-12T14:43:23Z</time>
      </trkpt>
      <trkpt lat="44.41448" lon="5.81316">
        <ele>760</ele>
        <time>2019-06-12T14:43:24Z</time>
      </trkpt>
      <trkpt lat="44.41446" lon="5.81322">
        <ele>760</ele>
        <time>2019-06-12T14:43:25Z</time>
      </trkpt>
      <trkpt lat="44.41444" lon="5.81327">
        <ele>760</ele>
        <time>2019-06-12T14:43:26Z</time>
      </trkpt>
      <trkpt lat="44.41443" lon="5.81333">
        <ele>760</ele>
        <time>2019-06-12T14:43:27Z</time>
      </trkpt>
      <trkpt lat="44.41441" lon="5.81338">
        <ele>760</ele>
        <time>2019-06-12T14:43:28Z</time>
      </trkpt>
      <trkpt lat="44.41439" lon="5.81344">
        <ele>761</ele>
        <time>2019-06-12T14:43:29Z</time>
      </trkpt>
      <trkpt lat="44.41436" lon="5.81349">
        <ele>761</ele>
        <time>2019-06-12T14:43:30Z</time>
      </trkpt>
      <trkpt lat="44.41434" lon="5.81353">
        <ele>761</ele>
        <time>2019-06-12T14:43:31Z</time>
      </trkpt>
      <trkpt lat="44.41432" lon="5.81358">
        <ele>761</ele>
        <time>2019-06-12T14:43:32Z</time>
      </trkpt>
      <trkpt lat="44.4143" lon="5.81363">
        <ele>761</ele>
        <time>2019-06-12T14:43:33Z</time>
      </trkpt>
      <trkpt lat="44.41428" lon="5.81368">
        <ele>761</ele>
        <time>2019-06-12T14:43:34Z</time>
      </trkpt>
      <trkpt lat="44.41426" lon="5.81373">
        <ele>762</ele>
        <time>2019-06-12T14:43:35Z</time>
      </trkpt>
      <trkpt lat="44.41424" lon="5.81378">
        <ele>762</ele>
        <time>2019-06-12T14:43:36Z</time>
      </trkpt>
      <trkpt lat="44.41423" lon="5.81383">
        <ele>762</ele>
        <time>2019-06-12T14:43:37Z</time>
      </trkpt>
      <trkpt lat="44.41421" lon="5.81388">
        <ele>762</ele>
        <time>2019-06-12T14:43:38Z</time>
      </trkpt>
      <trkpt lat="44.41419" lon="5.81393">
        <ele>762</ele>
        <time>2019-06-12T14:43:39Z</time>
      </trkpt>
      <trkpt lat="44.41417" lon="5.81398">
        <ele>762</ele>
        <time>2019-06-12T14:43:40Z</time>
      </trkpt>
      <trkpt lat="44.41416" lon="5.81403">
        <ele>763</ele>
        <time>2019-06-12T14:43:41Z</time>
      </trkpt>
      <trkpt lat="44.41414" lon="5.81407">
        <ele>763</ele>
        <time>2019-06-12T14:43:42Z</time>
      </trkpt>
      <trkpt lat="44.41413" lon="5.81412">
        <ele>763</ele>
        <time>2019-06-12T14:43:43Z</time>
      </trkpt>
      <trkpt lat="44.41411" lon="5.81417">
        <ele>763</ele>
        <time>2019-06-12T14:43:44Z</time>
      </trkpt>
      <trkpt lat="44.4141" lon="5.81422">
        <ele>763</ele>
        <time>2019-06-12T14:43:45Z</time>
      </trkpt>
      <trkpt lat="44.41408" lon="5.81427">
        <ele>763</ele>
        <time>2019-06-12T14:43:46Z</time>
      </trkpt>
      <trkpt lat="44.41406" lon="5.81431">
        <ele>763</ele>
        <time>2019-06-12T14:43:47Z</time>
      </trkpt>
      <trkpt lat="44.41404" lon="5.81436">
        <ele>763</ele>
        <time>2019-06-12T14:43:48Z</time>
      </trkpt>
      <trkpt lat="44.41402" lon="5.81441">
        <ele>763</ele>
        <time>2019-06-12T14:43:49Z</time>
      </trkpt>
      <trkpt lat="44.414" lon="5.81446">
        <ele>763</ele>
        <time>2019-06-12T14:43:50Z</time>
      </trkpt>
      <trkpt lat="44.41399" lon="5.81451">
        <ele>764</ele>
        <time>2019-06-12T14:43:51Z</time>
      </trkpt>
      <trkpt lat="44.41397" lon="5.81456">
        <ele>764</ele>
        <time>2019-06-12T14:43:52Z</time>
      </trkpt>
      <trkpt lat="44.41394" lon="5.81461">
        <ele>764</ele>
        <time>2019-06-12T14:43:53Z</time>
      </trkpt>
      <trkpt lat="44.41393" lon="5.81465">
        <ele>764</ele>
        <time>2019-06-12T14:43:54Z</time>
      </trkpt>
      <trkpt lat="44.41391" lon="5.8147">
        <ele>765</ele>
        <time>2019-06-12T14:43:55Z</time>
      </trkpt>
      <trkpt lat="44.41389" lon="5.81475">
        <ele>765</ele>
        <time>2019-06-12T14:43:56Z</time>
      </trkpt>
      <trkpt lat="44.41388" lon="5.8148">
        <ele>765</ele>
        <time>2019-06-12T14:43:57Z</time>
      </trkpt>
      <trkpt lat="44.41386" lon="5.81485">
        <ele>765</ele>
        <time>2019-06-12T14:43:58Z</time>
      </trkpt>
      <trkpt lat="44.41384" lon="5.81489">
        <ele>766</ele>
        <time>2019-06-12T14:43:59Z</time>
      </trkpt>
      <trkpt lat="44.41382" lon="5.81493">
        <ele>766</ele>
        <time>2019-06-12T14:44:00Z</time>
      </trkpt>
      <trkpt lat="44.4138" lon="5.81498">
        <ele>766</ele>
        <time>2019-06-12T14:44:01Z</time>
      </trkpt>
      <trkpt lat="44.41379" lon="5.81502">
        <ele>766</ele>
        <time>2019-06-12T14:44:02Z</time>
      </trkpt>
      <trkpt lat="44.41378" lon="5.81507">
        <ele>766</ele>
        <time>2019-06-12T14:44:03Z</time>
      </trkpt>
      <trkpt lat="44.41376" lon="5.81511">
        <ele>766</ele>
        <time>2019-06-12T14:44:04Z</time>
      </trkpt>
      <trkpt lat="44.41374" lon="5.81516">
        <ele>766</ele>
        <time>2019-06-12T14:44:05Z</time>
      </trkpt>
      <trkpt lat="44.41373" lon="5.8152">
        <ele>766</ele>
        <time>2019-06-12T14:44:06Z</time>
      </trkpt>
      <trkpt lat="44.41371" lon="5.81525">
        <ele>767</ele>
        <time>2019-06-12T14:44:07Z</time>
      </trkpt>
      <trkpt lat="44.41369" lon="5.8153">
        <ele>767</ele>
        <time>2019-06-12T14:44:08Z</time>
      </trkpt>
      <trkpt lat="44.41367" lon="5.81534">
        <ele>767</ele>
        <time>2019-06-12T14:44:09Z</time>
      </trkpt>
      <trkpt lat="44.41366" lon="5.81539">
        <ele>767</ele>
        <time>2019-06-12T14:44:10Z</time>
      </trkpt>
      <trkpt lat="44.41364" lon="5.81544">
        <ele>767</ele>
        <time>2019-06-12T14:44:11Z</time>
      </trkpt>
      <trkpt lat="44.41362" lon="5.81549">
        <ele>767</ele>
        <time>2019-06-12T14:44:12Z</time>
      </trkpt>
      <trkpt lat="44.41361" lon="5.81554">
        <ele>767</ele>
        <time>2019-06-12T14:44:13Z</time>
      </trkpt>
      <trkpt lat="44.41359" lon="5.81559">
        <ele>767</ele>
        <time>2019-06-12T14:44:14Z</time>
      </trkpt>
      <trkpt lat="44.41358" lon="5.81563">
        <ele>767</ele>
        <time>2019-06-12T14:44:15Z</time>
      </trkpt>
      <trkpt lat="44.41356" lon="5.81568">
        <ele>767</ele>
        <time>2019-06-12T14:44:16Z</time>
      </trkpt>
      <trkpt lat="44.41354" lon="5.81573">
        <ele>767</ele>
        <time>2019-06-12T14:44:17Z</time>
      </trkpt>
      <trkpt lat="44.41353" lon="5.81578">
        <ele>767</ele>
        <time>2019-06-12T14:44:18Z</time>
      </trkpt>
      <trkpt lat="44.41351" lon="5.81582">
        <ele>767</ele>
        <time>2019-06-12T14:44:19Z</time>
      </trkpt>
      <trkpt lat="44.4135" lon="5.81587">
        <ele>768</ele>
        <time>2019-06-12T14:44:20Z</time>
      </trkpt>
      <trkpt lat="44.41349" lon="5.81592">
        <ele>768</ele>
        <time>2019-06-12T14:44:21Z</time>
      </trkpt>
      <trkpt lat="44.41347" lon="5.81597">
        <ele>768</ele>
        <time>2019-06-12T14:44:22Z</time>
      </trkpt>
      <trkpt lat="44.41346" lon="5.81602">
        <ele>768</ele>
        <time>2019-06-12T14:44:23Z</time>
      </trkpt>
      <trkpt lat="44.41344" lon="5.81607">
        <ele>768</ele>
        <time>2019-06-12T14:44:24Z</time>
      </trkpt>
      <trkpt lat="44.41343" lon="5.81611">
        <ele>768</ele>
        <time>2019-06-12T14:44:25Z</time>
      </trkpt>
      <trkpt lat="44.41341" lon="5.81616">
        <ele>768</ele>
        <time>2019-06-12T14:44:26Z</time>
      </trkpt>
      <trkpt lat="44.41339" lon="5.81622">
        <ele>769</ele>
        <time>2019-06-12T14:44:27Z</time>
      </trkpt>
      <trkpt lat="44.41338" lon="5.81627">
        <ele>769</ele>
        <time>2019-06-12T14:44:28Z</time>
      </trkpt>
      <trkpt lat="44.41337" lon="5.81632">
        <ele>769</ele>
        <time>2019-06-12T14:44:29Z</time>
      </trkpt>
      <trkpt lat="44.41336" lon="5.81637">
        <ele>769</ele>
        <time>2019-06-12T14:44:30Z</time>
      </trkpt>
      <trkpt lat="44.41335" lon="5.81641">
        <ele>769</ele>
        <time>2019-06-12T14:44:31Z</time>
      </trkpt>
      <trkpt lat="44.41333" lon="5.81646">
        <ele>770</ele>
        <time>2019-06-12T14:44:32Z</time>
      </trkpt>
      <trkpt lat="44.41332" lon="5.8165">
        <ele>770</ele>
        <time>2019-06-12T14:44:33Z</time>
      </trkpt>
      <trkpt lat="44.4133" lon="5.81655">
        <ele>770</ele>
        <time>2019-06-12T14:44:34Z</time>
      </trkpt>
      <trkpt lat="44.41329" lon="5.8166">
        <ele>770</ele>
        <time>2019-06-12T14:44:35Z</time>
      </trkpt>
      <trkpt lat="44.41328" lon="5.81664">
        <ele>770</ele>
        <time>2019-06-12T14:44:36Z</time>
      </trkpt>
      <trkpt lat="44.41327" lon="5.81669">
        <ele>770</ele>
        <time>2019-06-12T14:44:37Z</time>
      </trkpt>
      <trkpt lat="44.41325" lon="5.81673">
        <ele>770</ele>
        <time>2019-06-12T14:44:38Z</time>
      </trkpt>
      <trkpt lat="44.41324" lon="5.81677">
        <ele>771</ele>
        <time>2019-06-12T14:44:39Z</time>
      </trkpt>
      <trkpt lat="44.41322" lon="5.81681">
        <ele>771</ele>
        <time>2019-06-12T14:44:40Z</time>
      </trkpt>
      <trkpt lat="44.41321" lon="5.81685">
        <ele>771</ele>
        <time>2019-06-12T14:44:41Z</time>
      </trkpt>
      <trkpt lat="44.4132" lon="5.81689">
        <ele>771</ele>
        <time>2019-06-12T14:44:42Z</time>
      </trkpt>
      <trkpt lat="44.41318" lon="5.81693">
        <ele>771</ele>
        <time>2019-06-12T14:44:43Z</time>
      </trkpt>
      <trkpt lat="44.41317" lon="5.81697">
        <ele>772</ele>
        <time>2019-06-12T14:44:44Z</time>
      </trkpt>
      <trkpt lat="44.41316" lon="5.81701">
        <ele>772</ele>
        <time>2019-06-12T14:44:45Z</time>
      </trkpt>
      <trkpt lat="44.41315" lon="5.81705">
        <ele>772</ele>
        <time>2019-06-12T14:44:46Z</time>
      </trkpt>
      <trkpt lat="44.41314" lon="5.81708">
        <ele>772</ele>
        <time>2019-06-12T14:44:47Z</time>
      </trkpt>
      <trkpt lat="44.41313" lon="5.81712">
        <ele>773</ele>
        <time>2019-06-12T14:44:48Z</time>
      </trkpt>
      <trkpt lat="44.41312" lon="5.81716">
        <ele>773</ele>
        <time>2019-06-12T14:44:49Z</time>
      </trkpt>
      <trkpt lat="44.41311" lon="5.8172">
        <ele>773</ele>
        <time>2019-06-12T14:44:50Z</time>
      </trkpt>
      <trkpt lat="44.4131" lon="5.81724">
        <ele>773</ele>
        <time>2019-06-12T14:44:51Z</time>
      </trkpt>
      <trkpt lat="44.41309" lon="5.81728">
        <ele>773</ele>
        <time>2019-06-12T14:44:52Z</time>
      </trkpt>
      <trkpt lat="44.41307" lon="5.81732">
        <ele>773</ele>
        <time>2019-06-12T14:44:53Z</time>
      </trkpt>
      <trkpt lat="44.41306" lon="5.81736">
        <ele>774</ele>
        <time>2019-06-12T14:44:54Z</time>
      </trkpt>
      <trkpt lat="44.41305" lon="5.81739">
        <ele>774</ele>
        <time>2019-06-12T14:44:55Z</time>
      </trkpt>
      <trkpt lat="44.41304" lon="5.81743">
        <ele>774</ele>
        <time>2019-06-12T14:44:56Z</time>
      </trkpt>
      <trkpt lat="44.41303" lon="5.81747">
        <ele>774</ele>
        <time>2019-06-12T14:44:57Z</time>
      </trkpt>
      <trkpt lat="44.41301" lon="5.8175">
        <ele>774</ele>
        <time>2019-06-12T14:44:58Z</time>
      </trkpt>
      <trkpt lat="44.413" lon="5.81754">
        <ele>774</ele>
        <time>2019-06-12T14:44:59Z</time>
      </trkpt>
      <trkpt lat="44.41299" lon="5.81757">
        <ele>774</ele>
        <time>2019-06-12T14:45:00Z</time>
      </trkpt>
      <trkpt lat="44.41298" lon="5.81761">
        <ele>775</ele>
        <time>2019-06-12T14:45:01Z</time>
      </trkpt>
      <trkpt lat="44.41297" lon="5.81765">
        <ele>775</ele>
        <time>2019-06-12T14:45:02Z</time>
      </trkpt>
      <trkpt lat="44.41296" lon="5.81769">
        <ele>775</ele>
        <time>2019-06-12T14:45:03Z</time>
      </trkpt>
      <trkpt lat="44.41294" lon="5.81772">
        <ele>775</ele>
        <time>2019-06-12T14:45:04Z</time>
      </trkpt>
      <trkpt lat="44.41293" lon="5.81776">
        <ele>775</ele>
        <time>2019-06-12T14:45:05Z</time>
      </trkpt>
      <trkpt lat="44.41292" lon="5.8178">
        <ele>776</ele>
        <time>2019-06-12T14:45:06Z</time>
      </trkpt>
      <trkpt lat="44.41291" lon="5.81784">
        <ele>776</ele>
        <time>2019-06-12T14:45:07Z</time>
      </trkpt>
      <trkpt lat="44.4129" lon="5.81788">
        <ele>776</ele>
        <time>2019-06-12T14:45:08Z</time>
      </trkpt>
      <trkpt lat="44.41289" lon="5.81792">
        <ele>777</ele>
        <time>2019-06-12T14:45:09Z</time>
      </trkpt>
      <trkpt lat="44.41288" lon="5.81797">
        <ele>777</ele>
        <time>2019-06-12T14:45:10Z</time>
      </trkpt>
      <trkpt lat="44.41288" lon="5.81801">
        <ele>777</ele>
        <time>2019-06-12T14:45:11Z</time>
      </trkpt>
      <trkpt lat="44.41287" lon="5.81805">
        <ele>777</ele>
        <time>2019-06-12T14:45:12Z</time>
      </trkpt>
      <trkpt lat="44.41286" lon="5.81809">
        <ele>778</ele>
        <time>2019-06-12T14:45:13Z</time>
      </trkpt>
      <trkpt lat="44.41286" lon="5.81813">
        <ele>778</ele>
        <time>2019-06-12T14:45:14Z</time>
      </trkpt>
      <trkpt lat="44.41286" lon="5.81817">
        <ele>778</ele>
        <time>2019-06-12T14:45:15Z</time>
      </trkpt>
      <trkpt lat="44.41285" lon="5.81822">
        <ele>778</ele>
        <time>2019-06-12T14:45:16Z</time>
      </trkpt>
      <trkpt lat="44.41284" lon="5.81826">
        <ele>779</ele>
        <time>2019-06-12T14:45:17Z</time>
      </trkpt>
      <trkpt lat="44.41283" lon="5.81831">
        <ele>779</ele>
        <time>2019-06-12T14:45:18Z</time>
      </trkpt>
      <trkpt lat="44.41283" lon="5.81835">
        <ele>779</ele>
        <time>2019-06-12T14:45:19Z</time>
      </trkpt>
      <trkpt lat="44.41283" lon="5.8184">
        <ele>779</ele>
        <time>2019-06-12T14:45:20Z</time>
      </trkpt>
      <trkpt lat="44.41282" lon="5.81844">
        <ele>779</ele>
        <time>2019-06-12T14:45:21Z</time>
      </trkpt>
      <trkpt lat="44.41281" lon="5.81848">
        <ele>779</ele>
        <time>2019-06-12T14:45:22Z</time>
      </trkpt>
      <trkpt lat="44.41281" lon="5.81853">
        <ele>780</ele>
        <time>2019-06-12T14:45:23Z</time>
      </trkpt>
      <trkpt lat="44.4128" lon="5.81857">
        <ele>780</ele>
        <time>2019-06-12T14:45:24Z</time>
      </trkpt>
      <trkpt lat="44.4128" lon="5.81862">
        <ele>780</ele>
        <time>2019-06-12T14:45:25Z</time>
      </trkpt>
      <trkpt lat="44.41279" lon="5.81866">
        <ele>780</ele>
        <time>2019-06-12T14:45:26Z</time>
      </trkpt>
      <trkpt lat="44.41278" lon="5.81871">
        <ele>780</ele>
        <time>2019-06-12T14:45:27Z</time>
      </trkpt>
      <trkpt lat="44.41278" lon="5.81875">
        <ele>780</ele>
        <time>2019-06-12T14:45:28Z</time>
      </trkpt>
      <trkpt lat="44.41277" lon="5.8188">
        <ele>781</ele>
        <time>2019-06-12T14:45:29Z</time>
      </trkpt>
      <trkpt lat="44.41276" lon="5.81884">
        <ele>781</ele>
        <time>2019-06-12T14:45:30Z</time>
      </trkpt>
      <trkpt lat="44.41275" lon="5.81889">
        <ele>781</ele>
        <time>2019-06-12T14:45:31Z</time>
      </trkpt>
      <trkpt lat="44.41275" lon="5.81893">
        <ele>781</ele>
        <time>2019-06-12T14:45:32Z</time>
      </trkpt>
      <trkpt lat="44.41274" lon="5.81897">
        <ele>781</ele>
        <time>2019-06-12T14:45:33Z</time>
      </trkpt>
      <trkpt lat="44.41273" lon="5.81902">
        <ele>781</ele>
        <time>2019-06-12T14:45:34Z</time>
      </trkpt>
      <trkpt lat="44.41273" lon="5.81907">
        <ele>781</ele>
        <time>2019-06-12T14:45:35Z</time>
      </trkpt>
      <trkpt lat="44.41272" lon="5.81911">
        <ele>782</ele>
        <time>2019-06-12T14:45:36Z</time>
      </trkpt>
      <trkpt lat="44.41271" lon="5.81916">
        <ele>782</ele>
        <time>2019-06-12T14:45:37Z</time>
      </trkpt>
      <trkpt lat="44.4127" lon="5.8192">
        <ele>782</ele>
        <time>2019-06-12T14:45:38Z</time>
      </trkpt>
      <trkpt lat="44.4127" lon="5.81924">
        <ele>782</ele>
        <time>2019-06-12T14:45:39Z</time>
      </trkpt>
      <trkpt lat="44.41269" lon="5.81929">
        <ele>782</ele>
        <time>2019-06-12T14:45:40Z</time>
      </trkpt>
      <trkpt lat="44.41269" lon="5.81933">
        <ele>782</ele>
        <time>2019-06-12T14:45:41Z</time>
      </trkpt>
      <trkpt lat="44.41268" lon="5.81938">
        <ele>782</ele>
        <time>2019-06-12T14:45:42Z</time>
      </trkpt>
      <trkpt lat="44.41268" lon="5.81942">
        <ele>783</ele>
        <time>2019-06-12T14:45:43Z</time>
      </trkpt>
      <trkpt lat="44.41268" lon="5.81946">
        <ele>783</ele>
        <time>2019-06-12T14:45:44Z</time>
      </trkpt>
      <trkpt lat="44.41267" lon="5.81951">
        <ele>783</ele>
        <time>2019-06-12T14:45:45Z</time>
      </trkpt>
      <trkpt lat="44.41267" lon="5.81955">
        <ele>783</ele>
        <time>2019-06-12T14:45:46Z</time>
      </trkpt>
      <trkpt lat="44.41267" lon="5.81959">
        <ele>783</ele>
        <time>2019-06-12T14:45:47Z</time>
      </trkpt>
      <trkpt lat="44.41267" lon="5.81964">
        <ele>783</ele>
        <time>2019-06-12T14:45:48Z</time>
      </trkpt>
      <trkpt lat="44.41267" lon="5.81968">
        <ele>784</ele>
        <time>2019-06-12T14:45:49Z</time>
      </trkpt>
      <trkpt lat="44.41267" lon="5.81973">
        <ele>784</ele>
        <time>2019-06-12T14:45:50Z</time>
      </trkpt>
      <trkpt lat="44.41268" lon="5.81977">
        <ele>784</ele>
        <time>2019-06-12T14:45:51Z</time>
      </trkpt>
      <trkpt lat="44.41269" lon="5.8198">
        <ele>784</ele>
        <time>2019-06-12T14:45:52Z</time>
      </trkpt>
      <trkpt lat="44.41271" lon="5.81984">
        <ele>785</ele>
        <time>2019-06-12T14:45:53Z</time>
      </trkpt>
      <trkpt lat="44.41272" lon="5.81988">
        <ele>785</ele>
        <time>2019-06-12T14:45:54Z</time>
      </trkpt>
      <trkpt lat="44.41273" lon="5.81992">
        <ele>785</ele>
        <time>2019-06-12T14:45:55Z</time>
      </trkpt>
      <trkpt lat="44.41275" lon="5.81996">
        <ele>785</ele>
        <time>2019-06-12T14:45:56Z</time>
      </trkpt>
      <trkpt lat="44.41276" lon="5.81999">
        <ele>786</ele>
        <time>2019-06-12T14:45:57Z</time>
      </trkpt>
      <trkpt lat="44.41277" lon="5.82003">
        <ele>786</ele>
        <time>2019-06-12T14:45:58Z</time>
      </trkpt>
      <trkpt lat="44.41279" lon="5.82007">
        <ele>786</ele>
        <time>2019-06-12T14:45:59Z</time>
      </trkpt>
      <trkpt lat="44.41281" lon="5.8201">
        <ele>786</ele>
        <time>2019-06-12T14:46:00Z</time>
      </trkpt>
      <trkpt lat="44.41282" lon="5.82014">
        <ele>787</ele>
        <time>2019-06-12T14:46:01Z</time>
      </trkpt>
      <trkpt lat="44.41284" lon="5.82017">
        <ele>787</ele>
        <time>2019-06-12T14:46:02Z</time>
      </trkpt>
      <trkpt lat="44.41286" lon="5.8202">
        <ele>787</ele>
        <time>2019-06-12T14:46:03Z</time>
      </trkpt>
      <trkpt lat="44.41288" lon="5.82024">
        <ele>787</ele>
        <time>2019-06-12T14:46:04Z</time>
      </trkpt>
      <trkpt lat="44.4129" lon="5.82027">
        <ele>787</ele>
        <time>2019-06-12T14:46:05Z</time>
      </trkpt>
      <trkpt lat="44.41291" lon="5.82031">
        <ele>787</ele>
        <time>2019-06-12T14:46:06Z</time>
      </trkpt>
      <trkpt lat="44.41293" lon="5.82034">
        <ele>788</ele>
        <time>2019-06-12T14:46:07Z</time>
      </trkpt>
      <trkpt lat="44.41295" lon="5.82037">
        <ele>788</ele>
        <time>2019-06-12T14:46:08Z</time>
      </trkpt>
      <trkpt lat="44.41297" lon="5.82041">
        <ele>788</ele>
        <time>2019-06-12T14:46:09Z</time>
      </trkpt>
      <trkpt lat="44.41299" lon="5.82044">
        <ele>788</ele>
        <time>2019-06-12T14:46:10Z</time>
      </trkpt>
      <trkpt lat="44.41301" lon="5.82048">
        <ele>788</ele>
        <time>2019-06-12T14:46:11Z</time>
      </trkpt>
      <trkpt lat="44.41302" lon="5.82051">
        <ele>788</ele>
        <time>2019-06-12T14:46:12Z</time>
      </trkpt>
      <trkpt lat="44.41304" lon="5.82054">
        <ele>789</ele>
        <time>2019-06-12T14:46:13Z</time>
      </trkpt>
      <trkpt lat="44.41306" lon="5.82057">
        <ele>789</ele>
        <time>2019-06-12T14:46:14Z</time>
      </trkpt>
      <trkpt lat="44.41308" lon="5.8206">
        <ele>789</ele>
        <time>2019-06-12T14:46:15Z</time>
      </trkpt>
      <trkpt lat="44.4131" lon="5.82063">
        <ele>789</ele>
        <time>2019-06-12T14:46:16Z</time>
      </trkpt>
      <trkpt lat="44.41312" lon="5.82066">
        <ele>789</ele>
        <time>2019-06-12T14:46:17Z</time>
      </trkpt>
      <trkpt lat="44.41313" lon="5.8207">
        <ele>789</ele>
        <time>2019-06-12T14:46:18Z</time>
      </trkpt>
      <trkpt lat="44.41315" lon="5.82073">
        <ele>790</ele>
        <time>2019-06-12T14:46:19Z</time>
      </trkpt>
      <trkpt lat="44.41317" lon="5.82077">
        <ele>790</ele>
        <time>2019-06-12T14:46:20Z</time>
      </trkpt>
      <trkpt lat="44.41318" lon="5.8208">
        <ele>790</ele>
        <time>2019-06-12T14:46:21Z</time>
      </trkpt>
      <trkpt lat="44.4132" lon="5.82083">
        <ele>790</ele>
        <time>2019-06-12T14:46:22Z</time>
      </trkpt>
      <trkpt lat="44.41322" lon="5.82087">
        <ele>790</ele>
        <time>2019-06-12T14:46:23Z</time>
      </trkpt>
      <trkpt lat="44.41323" lon="5.8209">
        <ele>790</ele>
        <time>2019-06-12T14:46:24Z</time>
      </trkpt>
      <trkpt lat="44.41325" lon="5.82093">
        <ele>791</ele>
        <time>2019-06-12T14:46:25Z</time>
      </trkpt>
      <trkpt lat="44.41327" lon="5.82096">
        <ele>791</ele>
        <time>2019-06-12T14:46:26Z</time>
      </trkpt>
      <trkpt lat="44.41329" lon="5.821">
        <ele>791</ele>
        <time>2019-06-12T14:46:27Z</time>
      </trkpt>
      <trkpt lat="44.4133" lon="5.82103">
        <ele>791</ele>
        <time>2019-06-12T14:46:28Z</time>
      </trkpt>
      <trkpt lat="44.41332" lon="5.82106">
        <ele>791</ele>
        <time>2019-06-12T14:46:29Z</time>
      </trkpt>
      <trkpt lat="44.41334" lon="5.82109">
        <ele>791</ele>
        <time>2019-06-12T14:46:30Z</time>
      </trkpt>
      <trkpt lat="44.41336" lon="5.82112">
        <ele>792</ele>
        <time>2019-06-12T14:46:31Z</time>
      </trkpt>
      <trkpt lat="44.41338" lon="5.82115">
        <ele>792</ele>
        <time>2019-06-12T14:46:32Z</time>
      </trkpt>
      <trkpt lat="44.4134" lon="5.82119">
        <ele>792</ele>
        <time>2019-06-12T14:46:33Z</time>
      </trkpt>
      <trkpt lat="44.41341" lon="5.82122">
        <ele>792</ele>
        <time>2019-06-12T14:46:34Z</time>
      </trkpt>
      <trkpt lat="44.41343" lon="5.82126">
        <ele>792</ele>
        <time>2019-06-12T14:46:35Z</time>
      </trkpt>
      <trkpt lat="44.41345" lon="5.82129">
        <ele>792</ele>
        <time>2019-06-12T14:46:36Z</time>
      </trkpt>
      <trkpt lat="44.41346" lon="5.82133">
        <ele>793</ele>
        <time>2019-06-12T14:46:37Z</time>
      </trkpt>
      <trkpt lat="44.41348" lon="5.82136">
        <ele>793</ele>
        <time>2019-06-12T14:46:38Z</time>
      </trkpt>
      <trkpt lat="44.4135" lon="5.8214">
        <ele>793</ele>
        <time>2019-06-12T14:46:39Z</time>
      </trkpt>
      <trkpt lat="44.41352" lon="5.82143">
        <ele>793</ele>
        <time>2019-06-12T14:46:40Z</time>
      </trkpt>
      <trkpt lat="44.41354" lon="5.82147">
        <ele>793</ele>
        <time>2019-06-12T14:46:41Z</time>
      </trkpt>
      <trkpt lat="44.41356" lon="5.8215">
        <ele>793</ele>
        <time>2019-06-12T14:46:42Z</time>
      </trkpt>
      <trkpt lat="44.41357" lon="5.82153">
        <ele>793</ele>
        <time>2019-06-12T14:46:43Z</time>
      </trkpt>
      <trkpt lat="44.41359" lon="5.82157">
        <ele>794</ele>
        <time>2019-06-12T14:46:44Z</time>
      </trkpt>
      <trkpt lat="44.41361" lon="5.8216">
        <ele>794</ele>
        <time>2019-06-12T14:46:45Z</time>
      </trkpt>
      <trkpt lat="44.41363" lon="5.82164">
        <ele>794</ele>
        <time>2019-06-12T14:46:46Z</time>
      </trkpt>
      <trkpt lat="44.41365" lon="5.82167">
        <ele>794</ele>
        <time>2019-06-12T14:46:47Z</time>
      </trkpt>
      <trkpt lat="44.41367" lon="5.82171">
        <ele>794</ele>
        <time>2019-06-12T14:46:48Z</time>
      </trkpt>
      <trkpt lat="44.41368" lon="5.82174">
        <ele>794</ele>
        <time>2019-06-12T14:46:49Z</time>
      </trkpt>
      <trkpt lat="44.41371" lon="5.82177">
        <ele>794</ele>
        <time>2019-06-12T14:46:50Z</time>
      </trkpt>
      <trkpt lat="44.41373" lon="5.8218">
        <ele>795</ele>
        <time>2019-06-12T14:46:51Z</time>
      </trkpt>
      <trkpt lat="44.41375" lon="5.82184">
        <ele>795</ele>
        <time>2019-06-12T14:46:52Z</time>
      </trkpt>
      <trkpt lat="44.41376" lon="5.82188">
        <ele>795</ele>
        <time>2019-06-12T14:46:53Z</time>
      </trkpt>
      <trkpt lat="44.41377" lon="5.82191">
        <ele>795</ele>
        <time>2019-06-12T14:46:54Z</time>
      </trkpt>
      <trkpt lat="44.41379" lon="5.82195">
        <ele>795</ele>
        <time>2019-06-12T14:46:55Z</time>
      </trkpt>
      <trkpt lat="44.41381" lon="5.82198">
        <ele>795</ele>
        <time>2019-06-12T14:46:56Z</time>
      </trkpt>
      <trkpt lat="44.41383" lon="5.822">
        <ele>795</ele>
        <time>2019-06-12T14:46:57Z</time>
      </trkpt>
      <trkpt lat="44.41384" lon="5.82203">
        <ele>796</ele>
        <time>2019-06-12T14:46:58Z</time>
      </trkpt>
      <trkpt lat="44.41386" lon="5.82207">
        <ele>796</ele>
        <time>2019-06-12T14:46:59Z</time>
      </trkpt>
      <trkpt lat="44.41387" lon="5.8221">
        <ele>796</ele>
        <time>2019-06-12T14:47:00Z</time>
      </trkpt>
      <trkpt lat="44.41389" lon="5.82213">
        <ele>796</ele>
        <time>2019-06-12T14:47:01Z</time>
      </trkpt>
      <trkpt lat="44.41391" lon="5.82216">
        <ele>796</ele>
        <time>2019-06-12T14:47:02Z</time>
      </trkpt>
      <trkpt lat="44.41393" lon="5.82219">
        <ele>796</ele>
        <time>2019-06-12T14:47:03Z</time>
      </trkpt>
      <trkpt lat="44.41394" lon="5.82222">
        <ele>797</ele>
        <time>2019-06-12T14:47:04Z</time>
      </trkpt>
      <trkpt lat="44.41396" lon="5.82226">
        <ele>797</ele>
        <time>2019-06-12T14:47:05Z</time>
      </trkpt>
      <trkpt lat="44.41398" lon="5.82229">
        <ele>797</ele>
        <time>2019-06-12T14:47:06Z</time>
      </trkpt>
      <trkpt lat="44.41399" lon="5.82232">
        <ele>797</ele>
        <time>2019-06-12T14:47:07Z</time>
      </trkpt>
      <trkpt lat="44.41401" lon="5.82235">
        <ele>797</ele>
        <time>2019-06-12T14:47:08Z</time>
      </trkpt>
      <trkpt lat="44.41403" lon="5.82239">
        <ele>797</ele>
        <time>2019-06-12T14:47:09Z</time>
      </trkpt>
      <trkpt lat="44.41405" lon="5.82242">
        <ele>798</ele>
        <time>2019-06-12T14:47:10Z</time>
      </trkpt>
      <trkpt lat="44.41407" lon="5.82246">
        <ele>798</ele>
        <time>2019-06-12T14:47:11Z</time>
      </trkpt>
      <trkpt lat="44.41408" lon="5.82249">
        <ele>798</ele>
        <time>2019-06-12T14:47:12Z</time>
      </trkpt>
      <trkpt lat="44.4141" lon="5.82253">
        <ele>798</ele>
        <time>2019-06-12T14:47:13Z</time>
      </trkpt>
      <trkpt lat="44.41412" lon="5.82256">
        <ele>798</ele>
        <time>2019-06-12T14:47:14Z</time>
      </trkpt>
      <trkpt lat="44.41413" lon="5.8226">
        <ele>798</ele>
        <time>2019-06-12T14:47:15Z</time>
      </trkpt>
      <trkpt lat="44.41415" lon="5.82263">
        <ele>799</ele>
        <time>2019-06-12T14:47:16Z</time>
      </trkpt>
      <trkpt lat="44.41417" lon="5.82267">
        <ele>799</ele>
        <time>2019-06-12T14:47:17Z</time>
      </trkpt>
      <trkpt lat="44.41419" lon="5.82271">
        <ele>799</ele>
        <time>2019-06-12T14:47:18Z</time>
      </trkpt>
      <trkpt lat="44.41421" lon="5.82275">
        <ele>799</ele>
        <time>2019-06-12T14:47:19Z</time>
      </trkpt>
      <trkpt lat="44.41423" lon="5.82279">
        <ele>799</ele>
        <time>2019-06-12T14:47:20Z</time>
      </trkpt>
      <trkpt lat="44.41425" lon="5.82283">
        <ele>799</ele>
        <time>2019-06-12T14:47:21Z</time>
      </trkpt>
      <trkpt lat="44.41427" lon="5.82288">
        <ele>799</ele>
        <time>2019-06-12T14:47:22Z</time>
      </trkpt>
      <trkpt lat="44.41429" lon="5.82293">
        <ele>799</ele>
        <time>2019-06-12T14:47:23Z</time>
      </trkpt>
      <trkpt lat="44.41431" lon="5.82298">
        <ele>799</ele>
        <time>2019-06-12T14:47:24Z</time>
      </trkpt>
      <trkpt lat="44.41433" lon="5.82303">
        <ele>799</ele>
        <time>2019-06-12T14:47:25Z</time>
      </trkpt>
      <trkpt lat="44.41434" lon="5.82308">
        <ele>799</ele>
        <time>2019-06-12T14:47:26Z</time>
      </trkpt>
      <trkpt lat="44.41436" lon="5.82313">
        <ele>799</ele>
        <time>2019-06-12T14:47:27Z</time>
      </trkpt>
      <trkpt lat="44.41439" lon="5.82318">
        <ele>799</ele>
        <time>2019-06-12T14:47:28Z</time>
      </trkpt>
      <trkpt lat="44.41441" lon="5.82324">
        <ele>799</ele>
        <time>2019-06-12T14:47:29Z</time>
      </trkpt>
      <trkpt lat="44.41442" lon="5.82331">
        <ele>799</ele>
        <time>2019-06-12T14:47:30Z</time>
      </trkpt>
      <trkpt lat="44.41444" lon="5.82337">
        <ele>799</ele>
        <time>2019-06-12T14:47:31Z</time>
      </trkpt>
      <trkpt lat="44.41445" lon="5.82344">
        <ele>799</ele>
        <time>2019-06-12T14:47:32Z</time>
      </trkpt>
      <trkpt lat="44.41447" lon="5.8235">
        <ele>799</ele>
        <time>2019-06-12T14:47:33Z</time>
      </trkpt>
      <trkpt lat="44.41448" lon="5.82357">
        <ele>799</ele>
        <time>2019-06-12T14:47:34Z</time>
      </trkpt>
      <trkpt lat="44.41449" lon="5.82364">
        <ele>799</ele>
        <time>2019-06-12T14:47:35Z</time>
      </trkpt>
      <trkpt lat="44.41451" lon="5.8237">
        <ele>799</ele>
        <time>2019-06-12T14:47:36Z</time>
      </trkpt>
      <trkpt lat="44.41451" lon="5.82376">
        <ele>799</ele>
        <time>2019-06-12T14:47:37Z</time>
      </trkpt>
      <trkpt lat="44.41452" lon="5.82382">
        <ele>799</ele>
        <time>2019-06-12T14:47:38Z</time>
      </trkpt>
      <trkpt lat="44.41453" lon="5.82389">
        <ele>799</ele>
        <time>2019-06-12T14:47:39Z</time>
      </trkpt>
      <trkpt lat="44.41454" lon="5.82395">
        <ele>799</ele>
        <time>2019-06-12T14:47:40Z</time>
      </trkpt>
      <trkpt lat="44.41455" lon="5.824">
        <ele>799</ele>
        <time>2019-06-12T14:47:41Z</time>
      </trkpt>
      <trkpt lat="44.41455" lon="5.82406">
        <ele>799</ele>
        <time>2019-06-12T14:47:42Z</time>
      </trkpt>
      <trkpt lat="44.41457" lon="5.82411">
        <ele>799</ele>
        <time>2019-06-12T14:47:43Z</time>
      </trkpt>
      <trkpt lat="44.41458" lon="5.82417">
        <ele>799</ele>
        <time>2019-06-12T14:47:44Z</time>
      </trkpt>
      <trkpt lat="44.41459" lon="5.82423">
        <ele>799</ele>
        <time>2019-06-12T14:47:45Z</time>
      </trkpt>
      <trkpt lat="44.4146" lon="5.82429">
        <ele>799</ele>
        <time>2019-06-12T14:47:46Z</time>
      </trkpt>
      <trkpt lat="44.41461" lon="5.82434">
        <ele>799</ele>
        <time>2019-06-12T14:47:47Z</time>
      </trkpt>
      <trkpt lat="44.41462" lon="5.8244">
        <ele>799</ele>
        <time>2019-06-12T14:47:48Z</time>
      </trkpt>
      <trkpt lat="44.41463" lon="5.82445">
        <ele>799</ele>
        <time>2019-06-12T14:47:49Z</time>
      </trkpt>
      <trkpt lat="44.41464" lon="5.82451">
        <ele>799</ele>
        <time>2019-06-12T14:47:50Z</time>
      </trkpt>
      <trkpt lat="44.41465" lon="5.82457">
        <ele>799</ele>
        <time>2019-06-12T14:47:51Z</time>
      </trkpt>
      <trkpt lat="44.41465" lon="5.82463">
        <ele>799</ele>
        <time>2019-06-12T14:47:52Z</time>
      </trkpt>
      <trkpt lat="44.41467" lon="5.82468">
        <ele>799</ele>
        <time>2019-06-12T14:47:53Z</time>
      </trkpt>
      <trkpt lat="44.41468" lon="5.82473">
        <ele>799</ele>
        <time>2019-06-12T14:47:54Z</time>
      </trkpt>
      <trkpt lat="44.41469" lon="5.82478">
        <ele>799</ele>
        <time>2019-06-12T14:47:55Z</time>
      </trkpt>
      <trkpt lat="44.4147" lon="5.82483">
        <ele>799</ele>
        <time>2019-06-12T14:47:56Z</time>
      </trkpt>
      <trkpt lat="44.41471" lon="5.82488">
        <ele>799</ele>
        <time>2019-06-12T14:47:57Z</time>
      </trkpt>
      <trkpt lat="44.41472" lon="5.82492">
        <ele>799</ele>
        <time>2019-06-12T14:47:58Z</time>
      </trkpt>
      <trkpt lat="44.41473" lon="5.82497">
        <ele>799</ele>
        <time>2019-06-12T14:47:59Z</time>
      </trkpt>
      <trkpt lat="44.41473" lon="5.82502">
        <ele>799</ele>
        <time>2019-06-12T14:48:00Z</time>
      </trkpt>
      <trkpt lat="44.41474" lon="5.82506">
        <ele>799</ele>
        <time>2019-06-12T14:48:01Z</time>
      </trkpt>
      <trkpt lat="44.41475" lon="5.8251">
        <ele>799</ele>
        <time>2019-06-12T14:48:02Z</time>
      </trkpt>
      <trkpt lat="44.41476" lon="5.82514">
        <ele>799</ele>
        <time>2019-06-12T14:48:03Z</time>
      </trkpt>
      <trkpt lat="44.41476" lon="5.82518">
        <ele>799</ele>
        <time>2019-06-12T14:48:04Z</time>
      </trkpt>
      <trkpt lat="44.41477" lon="5.82522">
        <ele>800</ele>
        <time>2019-06-12T14:48:05Z</time>
      </trkpt>
      <trkpt lat="44.41478" lon="5.82526">
        <ele>800</ele>
        <time>2019-06-12T14:48:06Z</time>
      </trkpt>
      <trkpt lat="44.41478" lon="5.82531">
        <ele>800</ele>
        <time>2019-06-12T14:48:07Z</time>
      </trkpt>
      <trkpt lat="44.41479" lon="5.82535">
        <ele>800</ele>
        <time>2019-06-12T14:48:08Z</time>
      </trkpt>
      <trkpt lat="44.4148" lon="5.82539">
        <ele>800</ele>
        <time>2019-06-12T14:48:09Z</time>
      </trkpt>
      <trkpt lat="44.41481" lon="5.82543">
        <ele>800</ele>
        <time>2019-06-12T14:48:10Z</time>
      </trkpt>
      <trkpt lat="44.41482" lon="5.82547">
        <ele>800</ele>
        <time>2019-06-12T14:48:11Z</time>
      </trkpt>
      <trkpt lat="44.41483" lon="5.8255">
        <ele>800</ele>
        <time>2019-06-12T14:48:12Z</time>
      </trkpt>
      <trkpt lat="44.41483" lon="5.82554">
        <ele>801</ele>
        <time>2019-06-12T14:48:13Z</time>
      </trkpt>
      <trkpt lat="44.41484" lon="5.82559">
        <ele>801</ele>
        <time>2019-06-12T14:48:14Z</time>
      </trkpt>
      <trkpt lat="44.41485" lon="5.82562">
        <ele>801</ele>
        <time>2019-06-12T14:48:15Z</time>
      </trkpt>
      <trkpt lat="44.41486" lon="5.82566">
        <ele>802</ele>
        <time>2019-06-12T14:48:16Z</time>
      </trkpt>
      <trkpt lat="44.41486" lon="5.82571">
        <ele>802</ele>
        <time>2019-06-12T14:48:17Z</time>
      </trkpt>
      <trkpt lat="44.41486" lon="5.82575">
        <ele>802</ele>
        <time>2019-06-12T14:48:18Z</time>
      </trkpt>
      <trkpt lat="44.41487" lon="5.82579">
        <ele>803</ele>
        <time>2019-06-12T14:48:19Z</time>
      </trkpt>
      <trkpt lat="44.41488" lon="5.82582">
        <ele>803</ele>
        <time>2019-06-12T14:48:20Z</time>
      </trkpt>
      <trkpt lat="44.41488" lon="5.82586">
        <ele>803</ele>
        <time>2019-06-12T14:48:21Z</time>
      </trkpt>
      <trkpt lat="44.41489" lon="5.8259">
        <ele>803</ele>
        <time>2019-06-12T14:48:22Z</time>
      </trkpt>
      <trkpt lat="44.4149" lon="5.82594">
        <ele>804</ele>
        <time>2019-06-12T14:48:23Z</time>
      </trkpt>
      <trkpt lat="44.41491" lon="5.82598">
        <ele>804</ele>
        <time>2019-06-12T14:48:24Z</time>
      </trkpt>
      <trkpt lat="44.41492" lon="5.82602">
        <ele>804</ele>
        <time>2019-06-12T14:48:25Z</time>
      </trkpt>
      <trkpt lat="44.41492" lon="5.82606">
        <ele>805</ele>
        <time>2019-06-12T14:48:26Z</time>
      </trkpt>
      <trkpt lat="44.41493" lon="5.8261">
        <ele>805</ele>
        <time>2019-06-12T14:48:27Z</time>
      </trkpt>
      <trkpt lat="44.41494" lon="5.82614">
        <ele>805</ele>
        <time>2019-06-12T14:48:28Z</time>
      </trkpt>
      <trkpt lat="44.41495" lon="5.82618">
        <ele>805</ele>
        <time>2019-06-12T14:48:29Z</time>
      </trkpt>
      <trkpt lat="44.41495" lon="5.82621">
        <ele>806</ele>
        <time>2019-06-12T14:48:30Z</time>
      </trkpt>
      <trkpt lat="44.41495" lon="5.82625">
        <ele>806</ele>
        <time>2019-06-12T14:48:31Z</time>
      </trkpt>
      <trkpt lat="44.41496" lon="5.82629">
        <ele>806</ele>
        <time>2019-06-12T14:48:32Z</time>
      </trkpt>
      <trkpt lat="44.41496" lon="5.82633">
        <ele>806</ele>
        <time>2019-06-12T14:48:33Z</time>
      </trkpt>
      <trkpt lat="44.41497" lon="5.82637">
        <ele>807</ele>
        <time>2019-06-12T14:48:34Z</time>
      </trkpt>
      <trkpt lat="44.41498" lon="5.82641">
        <ele>807</ele>
        <time>2019-06-12T14:48:35Z</time>
      </trkpt>
      <trkpt lat="44.41499" lon="5.82644">
        <ele>807</ele>
        <time>2019-06-12T14:48:36Z</time>
      </trkpt>
      <trkpt lat="44.41499" lon="5.82648">
        <ele>807</ele>
        <time>2019-06-12T14:48:37Z</time>
      </trkpt>
      <trkpt lat="44.415" lon="5.82652">
        <ele>808</ele>
        <time>2019-06-12T14:48:38Z</time>
      </trkpt>
      <trkpt lat="44.415" lon="5.82655">
        <ele>808</ele>
        <time>2019-06-12T14:48:39Z</time>
      </trkpt>
      <trkpt lat="44.41501" lon="5.82659">
        <ele>808</ele>
        <time>2019-06-12T14:48:40Z</time>
      </trkpt>
      <trkpt lat="44.41502" lon="5.82662">
        <ele>808</ele>
        <time>2019-06-12T14:48:41Z</time>
      </trkpt>
      <trkpt lat="44.41503" lon="5.82666">
        <ele>809</ele>
        <time>2019-06-12T14:48:42Z</time>
      </trkpt>
      <trkpt lat="44.41504" lon="5.8267">
        <ele>809</ele>
        <time>2019-06-12T14:48:43Z</time>
      </trkpt>
      <trkpt lat="44.41504" lon="5.82674">
        <ele>809</ele>
        <time>2019-06-12T14:48:44Z</time>
      </trkpt>
      <trkpt lat="44.41505" lon="5.82678">
        <ele>809</ele>
        <time>2019-06-12T14:48:45Z</time>
      </trkpt>
      <trkpt lat="44.41505" lon="5.82682">
        <ele>809</ele>
        <time>2019-06-12T14:48:46Z</time>
      </trkpt>
      <trkpt lat="44.41506" lon="5.82686">
        <ele>809</ele>
        <time>2019-06-12T14:48:47Z</time>
      </trkpt>
      <trkpt lat="44.41507" lon="5.8269">
        <ele>809</ele>
        <time>2019-06-12T14:48:48Z</time>
      </trkpt>
      <trkpt lat="44.41507" lon="5.82694">
        <ele>809</ele>
        <time>2019-06-12T14:48:49Z</time>
      </trkpt>
      <trkpt lat="44.41508" lon="5.82698">
        <ele>809</ele>
        <time>2019-06-12T14:48:50Z</time>
      </trkpt>
      <trkpt lat="44.41509" lon="5.82702">
        <ele>809</ele>
        <time>2019-06-12T14:48:51Z</time>
      </trkpt>
      <trkpt lat="44.4151" lon="5.82706">
        <ele>809</ele>
        <time>2019-06-12T14:48:52Z</time>
      </trkpt>
      <trkpt lat="44.41511" lon="5.82711">
        <ele>810</ele>
        <time>2019-06-12T14:48:53Z</time>
      </trkpt>
      <trkpt lat="44.41512" lon="5.82715">
        <ele>810</ele>
        <time>2019-06-12T14:48:54Z</time>
      </trkpt>
      <trkpt lat="44.41513" lon="5.82719">
        <ele>810</ele>
        <time>2019-06-12T14:48:55Z</time>
      </trkpt>
      <trkpt lat="44.41513" lon="5.82723">
        <ele>810</ele>
        <time>2019-06-12T14:48:56Z</time>
      </trkpt>
      <trkpt lat="44.41515" lon="5.82726">
        <ele>810</ele>
        <time>2019-06-12T14:48:57Z</time>
      </trkpt>
      <trkpt lat="44.41515" lon="5.8273">
        <ele>810</ele>
        <time>2019-06-12T14:48:58Z</time>
      </trkpt>
      <trkpt lat="44.41516" lon="5.82734">
        <ele>810</ele>
        <time>2019-06-12T14:48:59Z</time>
      </trkpt>
      <trkpt lat="44.41516" lon="5.82738">
        <ele>811</ele>
        <time>2019-06-12T14:49:00Z</time>
      </trkpt>
      <trkpt lat="44.41517" lon="5.82742">
        <ele>811</ele>
        <time>2019-06-12T14:49:01Z</time>
      </trkpt>
      <trkpt lat="44.41518" lon="5.82746">
        <ele>811</ele>
        <time>2019-06-12T14:49:02Z</time>
      </trkpt>
      <trkpt lat="44.41518" lon="5.8275">
        <ele>811</ele>
        <time>2019-06-12T14:49:03Z</time>
      </trkpt>
      <trkpt lat="44.41519" lon="5.82753">
        <ele>811</ele>
        <time>2019-06-12T14:49:04Z</time>
      </trkpt>
      <trkpt lat="44.41519" lon="5.82757">
        <ele>812</ele>
        <time>2019-06-12T14:49:05Z</time>
      </trkpt>
      <trkpt lat="44.4152" lon="5.82761">
        <ele>812</ele>
        <time>2019-06-12T14:49:06Z</time>
      </trkpt>
      <trkpt lat="44.41521" lon="5.82764">
        <ele>812</ele>
        <time>2019-06-12T14:49:07Z</time>
      </trkpt>
      <trkpt lat="44.41521" lon="5.82768">
        <ele>812</ele>
        <time>2019-06-12T14:49:08Z</time>
      </trkpt>
      <trkpt lat="44.41522" lon="5.82772">
        <ele>812</ele>
        <time>2019-06-12T14:49:09Z</time>
      </trkpt>
      <trkpt lat="44.41523" lon="5.82776">
        <ele>812</ele>
        <time>2019-06-12T14:49:10Z</time>
      </trkpt>
      <trkpt lat="44.41524" lon="5.8278">
        <ele>813</ele>
        <time>2019-06-12T14:49:11Z</time>
      </trkpt>
      <trkpt lat="44.41525" lon="5.82783">
        <ele>813</ele>
        <time>2019-06-12T14:49:12Z</time>
      </trkpt>
      <trkpt lat="44.41526" lon="5.82787">
        <ele>813</ele>
        <time>2019-06-12T14:49:13Z</time>
      </trkpt>
      <trkpt lat="44.41526" lon="5.82792">
        <ele>813</ele>
        <time>2019-06-12T14:49:14Z</time>
      </trkpt>
      <trkpt lat="44.41527" lon="5.82796">
        <ele>813</ele>
        <time>2019-06-12T14:49:15Z</time>
      </trkpt>
      <trkpt lat="44.41528" lon="5.828">
        <ele>813</ele>
        <time>2019-06-12T14:49:16Z</time>
      </trkpt>
      <trkpt lat="44.41528" lon="5.82804">
        <ele>814</ele>
        <time>2019-06-12T14:49:17Z</time>
      </trkpt>
      <trkpt lat="44.41529" lon="5.82809">
        <ele>814</ele>
        <time>2019-06-12T14:49:18Z</time>
      </trkpt>
      <trkpt lat="44.4153" lon="5.82813">
        <ele>814</ele>
        <time>2019-06-12T14:49:19Z</time>
      </trkpt>
      <trkpt lat="44.41531" lon="5.82817">
        <ele>814</ele>
        <time>2019-06-12T14:49:20Z</time>
      </trkpt>
      <trkpt lat="44.41532" lon="5.82821">
        <ele>814</ele>
        <time>2019-06-12T14:49:21Z</time>
      </trkpt>
      <trkpt lat="44.41533" lon="5.82826">
        <ele>814</ele>
        <time>2019-06-12T14:49:22Z</time>
      </trkpt>
      <trkpt lat="44.41534" lon="5.8283">
        <ele>814</ele>
        <time>2019-06-12T14:49:23Z</time>
      </trkpt>
      <trkpt lat="44.41534" lon="5.82835">
        <ele>815</ele>
        <time>2019-06-12T14:49:24Z</time>
      </trkpt>
      <trkpt lat="44.41535" lon="5.8284">
        <ele>815</ele>
        <time>2019-06-12T14:49:25Z</time>
      </trkpt>
      <trkpt lat="44.41536" lon="5.82844">
        <ele>815</ele>
        <time>2019-06-12T14:49:26Z</time>
      </trkpt>
      <trkpt lat="44.41537" lon="5.82849">
        <ele>815</ele>
        <time>2019-06-12T14:49:27Z</time>
      </trkpt>
      <trkpt lat="44.41538" lon="5.82854">
        <ele>815</ele>
        <time>2019-06-12T14:49:28Z</time>
      </trkpt>
      <trkpt lat="44.41539" lon="5.82858">
        <ele>815</ele>
        <time>2019-06-12T14:49:29Z</time>
      </trkpt>
      <trkpt lat="44.41539" lon="5.82863">
        <ele>816</ele>
        <time>2019-06-12T14:49:30Z</time>
      </trkpt>
      <trkpt lat="44.4154" lon="5.82868">
        <ele>816</ele>
        <time>2019-06-12T14:49:31Z</time>
      </trkpt>
      <trkpt lat="44.41541" lon="5.82873">
        <ele>816</ele>
        <time>2019-06-12T14:49:32Z</time>
      </trkpt>
      <trkpt lat="44.41542" lon="5.82877">
        <ele>816</ele>
        <time>2019-06-12T14:49:33Z</time>
      </trkpt>
      <trkpt lat="44.41543" lon="5.82882">
        <ele>816</ele>
        <time>2019-06-12T14:49:34Z</time>
      </trkpt>
      <trkpt lat="44.41544" lon="5.82887">
        <ele>816</ele>
        <time>2019-06-12T14:49:35Z</time>
      </trkpt>
      <trkpt lat="44.41545" lon="5.82891">
        <ele>817</ele>
        <time>2019-06-12T14:49:36Z</time>
      </trkpt>
      <trkpt lat="44.41546" lon="5.82896">
        <ele>817</ele>
        <time>2019-06-12T14:49:37Z</time>
      </trkpt>
      <trkpt lat="44.41547" lon="5.82901">
        <ele>817</ele>
        <time>2019-06-12T14:49:38Z</time>
      </trkpt>
      <trkpt lat="44.41548" lon="5.82906">
        <ele>817</ele>
        <time>2019-06-12T14:49:39Z</time>
      </trkpt>
      <trkpt lat="44.41549" lon="5.82911">
        <ele>817</ele>
        <time>2019-06-12T14:49:40Z</time>
      </trkpt>
      <trkpt lat="44.41549" lon="5.82916">
        <ele>817</ele>
        <time>2019-06-12T14:49:41Z</time>
      </trkpt>
      <trkpt lat="44.4155" lon="5.82921">
        <ele>818</ele>
        <time>2019-06-12T14:49:42Z</time>
      </trkpt>
      <trkpt lat="44.41551" lon="5.82925">
        <ele>818</ele>
        <time>2019-06-12T14:49:43Z</time>
      </trkpt>
      <trkpt lat="44.41552" lon="5.8293">
        <ele>818</ele>
        <time>2019-06-12T14:49:44Z</time>
      </trkpt>
      <trkpt lat="44.41552" lon="5.82935">
        <ele>818</ele>
        <time>2019-06-12T14:49:45Z</time>
      </trkpt>
      <trkpt lat="44.41553" lon="5.82939">
        <ele>818</ele>
        <time>2019-06-12T14:49:46Z</time>
      </trkpt>
      <trkpt lat="44.41554" lon="5.82944">
        <ele>819</ele>
        <time>2019-06-12T14:49:47Z</time>
      </trkpt>
      <trkpt lat="44.41555" lon="5.82949">
        <ele>819</ele>
        <time>2019-06-12T14:49:48Z</time>
      </trkpt>
      <trkpt lat="44.41556" lon="5.82954">
        <ele>819</ele>
        <time>2019-06-12T14:49:49Z</time>
      </trkpt>
      <trkpt lat="44.41557" lon="5.82959">
        <ele>819</ele>
        <time>2019-06-12T14:49:50Z</time>
      </trkpt>
      <trkpt lat="44.41558" lon="5.82964">
        <ele>819</ele>
        <time>2019-06-12T14:49:51Z</time>
      </trkpt>
      <trkpt lat="44.41559" lon="5.8297">
        <ele>819</ele>
        <time>2019-06-12T14:49:52Z</time>
      </trkpt>
      <trkpt lat="44.4156" lon="5.82975">
        <ele>820</ele>
        <time>2019-06-12T14:49:53Z</time>
      </trkpt>
      <trkpt lat="44.41561" lon="5.8298">
        <ele>820</ele>
        <time>2019-06-12T14:49:54Z</time>
      </trkpt>
      <trkpt lat="44.41562" lon="5.82986">
        <ele>820</ele>
        <time>2019-06-12T14:49:55Z</time>
      </trkpt>
      <trkpt lat="44.41563" lon="5.82991">
        <ele>820</ele>
        <time>2019-06-12T14:49:56Z</time>
      </trkpt>
      <trkpt lat="44.41564" lon="5.82996">
        <ele>820</ele>
        <time>2019-06-12T14:49:57Z</time>
      </trkpt>
      <trkpt lat="44.41565" lon="5.83002">
        <ele>820</ele>
        <time>2019-06-12T14:49:58Z</time>
      </trkpt>
      <trkpt lat="44.41566" lon="5.83007">
        <ele>820</ele>
        <time>2019-06-12T14:49:59Z</time>
      </trkpt>
      <trkpt lat="44.41567" lon="5.83012">
        <ele>820</ele>
        <time>2019-06-12T14:50:00Z</time>
      </trkpt>
      <trkpt lat="44.41568" lon="5.83018">
        <ele>821</ele>
        <time>2019-06-12T14:50:01Z</time>
      </trkpt>
      <trkpt lat="44.4157" lon="5.83023">
        <ele>821</ele>
        <time>2019-06-12T14:50:02Z</time>
      </trkpt>
      <trkpt lat="44.41571" lon="5.83029">
        <ele>821</ele>
        <time>2019-06-12T14:50:03Z</time>
      </trkpt>
      <trkpt lat="44.41572" lon="5.83034">
        <ele>821</ele>
        <time>2019-06-12T14:50:04Z</time>
      </trkpt>
      <trkpt lat="44.41573" lon="5.8304">
        <ele>821</ele>
        <time>2019-06-12T14:50:05Z</time>
      </trkpt>
      <trkpt lat="44.41574" lon="5.83045">
        <ele>821</ele>
        <time>2019-06-12T14:50:06Z</time>
      </trkpt>
      <trkpt lat="44.41575" lon="5.83051">
        <ele>821</ele>
        <time>2019-06-12T14:50:07Z</time>
      </trkpt>
      <trkpt lat="44.41576" lon="5.83057">
        <ele>821</ele>
        <time>2019-06-12T14:50:08Z</time>
      </trkpt>
      <trkpt lat="44.41576" lon="5.83064">
        <ele>821</ele>
        <time>2019-06-12T14:50:09Z</time>
      </trkpt>
      <trkpt lat="44.41576" lon="5.83069">
        <ele>821</ele>
        <time>2019-06-12T14:50:10Z</time>
      </trkpt>
      <trkpt lat="44.41576" lon="5.83075">
        <ele>821</ele>
        <time>2019-06-12T14:50:11Z</time>
      </trkpt>
      <trkpt lat="44.41575" lon="5.83081">
        <ele>822</ele>
        <time>2019-06-12T14:50:12Z</time>
      </trkpt>
      <trkpt lat="44.41574" lon="5.83086">
        <ele>822</ele>
        <time>2019-06-12T14:50:13Z</time>
      </trkpt>
      <trkpt lat="44.41573" lon="5.8309">
        <ele>822</ele>
        <time>2019-06-12T14:50:14Z</time>
      </trkpt>
      <trkpt lat="44.41571" lon="5.83095">
        <ele>822</ele>
        <time>2019-06-12T14:50:15Z</time>
      </trkpt>
      <trkpt lat="44.41569" lon="5.83099">
        <ele>822</ele>
        <time>2019-06-12T14:50:16Z</time>
      </trkpt>
      <trkpt lat="44.41567" lon="5.83102">
        <ele>823</ele>
        <time>2019-06-12T14:50:17Z</time>
      </trkpt>
      <trkpt lat="44.41565" lon="5.83105">
        <ele>823</ele>
        <time>2019-06-12T14:50:18Z</time>
      </trkpt>
      <trkpt lat="44.41562" lon="5.83108">
        <ele>823</ele>
        <time>2019-06-12T14:50:19Z</time>
      </trkpt>
      <trkpt lat="44.4156" lon="5.83111">
        <ele>823</ele>
        <time>2019-06-12T14:50:20Z</time>
      </trkpt>
      <trkpt lat="44.41557" lon="5.83113">
        <ele>823</ele>
        <time>2019-06-12T14:50:21Z</time>
      </trkpt>
      <trkpt lat="44.41555" lon="5.83115">
        <ele>823</ele>
        <time>2019-06-12T14:50:22Z</time>
      </trkpt>
      <trkpt lat="44.41552" lon="5.83117">
        <ele>823</ele>
        <time>2019-06-12T14:50:23Z</time>
      </trkpt>
      <trkpt lat="44.41549" lon="5.83119">
        <ele>824</ele>
        <time>2019-06-12T14:50:24Z</time>
      </trkpt>
      <trkpt lat="44.41547" lon="5.83121">
        <ele>824</ele>
        <time>2019-06-12T14:50:25Z</time>
      </trkpt>
      <trkpt lat="44.41544" lon="5.83123">
        <ele>824</ele>
        <time>2019-06-12T14:50:26Z</time>
      </trkpt>
      <trkpt lat="44.41542" lon="5.83125">
        <ele>825</ele>
        <time>2019-06-12T14:50:27Z</time>
      </trkpt>
      <trkpt lat="44.4154" lon="5.83127">
        <ele>825</ele>
        <time>2019-06-12T14:50:28Z</time>
      </trkpt>
      <trkpt lat="44.41538" lon="5.8313">
        <ele>825</ele>
        <time>2019-06-12T14:50:29Z</time>
      </trkpt>
      <trkpt lat="44.41536" lon="5.83132">
        <ele>825</ele>
        <time>2019-06-12T14:50:30Z</time>
      </trkpt>
      <trkpt lat="44.41534" lon="5.83134">
        <ele>826</ele>
        <time>2019-06-12T14:50:31Z</time>
      </trkpt>
      <trkpt lat="44.41531" lon="5.83137">
        <ele>826</ele>
        <time>2019-06-12T14:50:32Z</time>
      </trkpt>
      <trkpt lat="44.41529" lon="5.83139">
        <ele>826</ele>
        <time>2019-06-12T14:50:33Z</time>
      </trkpt>
      <trkpt lat="44.41527" lon="5.83142">
        <ele>826</ele>
        <time>2019-06-12T14:50:34Z</time>
      </trkpt>
      <trkpt lat="44.41524" lon="5.83144">
        <ele>827</ele>
        <time>2019-06-12T14:50:35Z</time>
      </trkpt>
      <trkpt lat="44.41522" lon="5.83147">
        <ele>827</ele>
        <time>2019-06-12T14:50:36Z</time>
      </trkpt>
      <trkpt lat="44.4152" lon="5.83149">
        <ele>828</ele>
        <time>2019-06-12T14:50:37Z</time>
      </trkpt>
      <trkpt lat="44.41518" lon="5.83152">
        <ele>828</ele>
        <time>2019-06-12T14:50:38Z</time>
      </trkpt>
      <trkpt lat="44.41516" lon="5.83155">
        <ele>828</ele>
        <time>2019-06-12T14:50:39Z</time>
      </trkpt>
      <trkpt lat="44.41514" lon="5.83158">
        <ele>829</ele>
        <time>2019-06-12T14:50:40Z</time>
      </trkpt>
      <trkpt lat="44.41512" lon="5.83161">
        <ele>829</ele>
        <time>2019-06-12T14:50:41Z</time>
      </trkpt>
      <trkpt lat="44.4151" lon="5.83164">
        <ele>829</ele>
        <time>2019-06-12T14:50:42Z</time>
      </trkpt>
      <trkpt lat="44.41508" lon="5.83167">
        <ele>829</ele>
        <time>2019-06-12T14:50:43Z</time>
      </trkpt>
      <trkpt lat="44.41506" lon="5.8317">
        <ele>829</ele>
        <time>2019-06-12T14:50:44Z</time>
      </trkpt>
      <trkpt lat="44.41505" lon="5.83173">
        <ele>829</ele>
        <time>2019-06-12T14:50:45Z</time>
      </trkpt>
      <trkpt lat="44.41503" lon="5.83176">
        <ele>829</ele>
        <time>2019-06-12T14:50:46Z</time>
      </trkpt>
      <trkpt lat="44.41502" lon="5.83179">
        <ele>829</ele>
        <time>2019-06-12T14:50:47Z</time>
      </trkpt>
      <trkpt lat="44.415" lon="5.83181">
        <ele>829</ele>
        <time>2019-06-12T14:50:48Z</time>
      </trkpt>
      <trkpt lat="44.41498" lon="5.83183">
        <ele>829</ele>
        <time>2019-06-12T14:50:49Z</time>
      </trkpt>
      <trkpt lat="44.41497" lon="5.83186">
        <ele>829</ele>
        <time>2019-06-12T14:50:50Z</time>
      </trkpt>
      <trkpt lat="44.41496" lon="5.83188">
        <ele>830</ele>
        <time>2019-06-12T14:50:51Z</time>
      </trkpt>
      <trkpt lat="44.41494" lon="5.8319">
        <ele>830</ele>
        <time>2019-06-12T14:50:52Z</time>
      </trkpt>
      <trkpt lat="44.41493" lon="5.83193">
        <ele>830</ele>
        <time>2019-06-12T14:50:53Z</time>
      </trkpt>
      <trkpt lat="44.41491" lon="5.83196">
        <ele>830</ele>
        <time>2019-06-12T14:50:54Z</time>
      </trkpt>
      <trkpt lat="44.4149" lon="5.83199">
        <ele>830</ele>
        <time>2019-06-12T14:50:55Z</time>
      </trkpt>
      <trkpt lat="44.41488" lon="5.83203">
        <ele>830</ele>
        <time>2019-06-12T14:50:56Z</time>
      </trkpt>
      <trkpt lat="44.41486" lon="5.83206">
        <ele>830</ele>
        <time>2019-06-12T14:50:57Z</time>
      </trkpt>
      <trkpt lat="44.41485" lon="5.8321">
        <ele>830</ele>
        <time>2019-06-12T14:50:58Z</time>
      </trkpt>
      <trkpt lat="44.41484" lon="5.83213">
        <ele>830</ele>
        <time>2019-06-12T14:50:59Z</time>
      </trkpt>
      <trkpt lat="44.41483" lon="5.83216">
        <ele>830</ele>
        <time>2019-06-12T14:51:00Z</time>
      </trkpt>
      <trkpt lat="44.41482" lon="5.83219">
        <ele>830</ele>
        <time>2019-06-12T14:51:01Z</time>
      </trkpt>
      <trkpt lat="44.41481" lon="5.83222">
        <ele>831</ele>
        <time>2019-06-12T14:51:02Z</time>
      </trkpt>
      <trkpt lat="44.41481" lon="5.83225">
        <ele>831</ele>
        <time>2019-06-12T14:51:03Z</time>
      </trkpt>
      <trkpt lat="44.41481" lon="5.83228">
        <ele>831</ele>
        <time>2019-06-12T14:51:04Z</time>
      </trkpt>
      <trkpt lat="44.41481" lon="5.83231">
        <ele>831</ele>
        <time>2019-06-12T14:51:05Z</time>
      </trkpt>
      <trkpt lat="44.41481" lon="5.83234">
        <ele>832</ele>
        <time>2019-06-12T14:51:06Z</time>
      </trkpt>
      <trkpt lat="44.4148" lon="5.83237">
        <ele>832</ele>
        <time>2019-06-12T14:51:07Z</time>
      </trkpt>
      <trkpt lat="44.41479" lon="5.8324">
        <ele>832</ele>
        <time>2019-06-12T14:51:08Z</time>
      </trkpt>
      <trkpt lat="44.41479" lon="5.83243">
        <ele>832</ele>
        <time>2019-06-12T14:51:09Z</time>
      </trkpt>
      <trkpt lat="44.41479" lon="5.83247">
        <ele>832</ele>
        <time>2019-06-12T14:51:10Z</time>
      </trkpt>
      <trkpt lat="44.41479" lon="5.8325">
        <ele>832</ele>
        <time>2019-06-12T14:51:11Z</time>
      </trkpt>
      <trkpt lat="44.41478" lon="5.83253">
        <ele>832</ele>
        <time>2019-06-12T14:51:12Z</time>
      </trkpt>
      <trkpt lat="44.41478" lon="5.83257">
        <ele>833</ele>
        <time>2019-06-12T14:51:13Z</time>
      </trkpt>
      <trkpt lat="44.41478" lon="5.8326">
        <ele>833</ele>
        <time>2019-06-12T14:51:14Z</time>
      </trkpt>
      <trkpt lat="44.41478" lon="5.83264">
        <ele>833</ele>
        <time>2019-06-12T14:51:15Z</time>
      </trkpt>
      <trkpt lat="44.41478" lon="5.83267">
        <ele>833</ele>
        <time>2019-06-12T14:51:16Z</time>
      </trkpt>
      <trkpt lat="44.41478" lon="5.83271">
        <ele>833</ele>
        <time>2019-06-12T14:51:17Z</time>
      </trkpt>
      <trkpt lat="44.41477" lon="5.83274">
        <ele>834</ele>
        <time>2019-06-12T14:51:18Z</time>
      </trkpt>
      <trkpt lat="44.41477" lon="5.83277">
        <ele>834</ele>
        <time>2019-06-12T14:51:19Z</time>
      </trkpt>
      <trkpt lat="44.41476" lon="5.8328">
        <ele>834</ele>
        <time>2019-06-12T14:51:20Z</time>
      </trkpt>
      <trkpt lat="44.41476" lon="5.83284">
        <ele>834</ele>
        <time>2019-06-12T14:51:21Z</time>
      </trkpt>
      <trkpt lat="44.41476" lon="5.83287">
        <ele>835</ele>
        <time>2019-06-12T14:51:22Z</time>
      </trkpt>
      <trkpt lat="44.41476" lon="5.83291">
        <ele>835</ele>
        <time>2019-06-12T14:51:23Z</time>
      </trkpt>
      <trkpt lat="44.41476" lon="5.83295">
        <ele>835</ele>
        <time>2019-06-12T14:51:24Z</time>
      </trkpt>
      <trkpt lat="44.41476" lon="5.83298">
        <ele>836</ele>
        <time>2019-06-12T14:51:25Z</time>
      </trkpt>
      <trkpt lat="44.41476" lon="5.83302">
        <ele>836</ele>
        <time>2019-06-12T14:51:26Z</time>
      </trkpt>
      <trkpt lat="44.41476" lon="5.83305">
        <ele>837</ele>
        <time>2019-06-12T14:51:27Z</time>
      </trkpt>
      <trkpt lat="44.41477" lon="5.83309">
        <ele>837</ele>
        <time>2019-06-12T14:51:28Z</time>
      </trkpt>
      <trkpt lat="44.41477" lon="5.83312">
        <ele>837</ele>
        <time>2019-06-12T14:51:29Z</time>
      </trkpt>
      <trkpt lat="44.41477" lon="5.83315">
        <ele>837</ele>
        <time>2019-06-12T14:51:30Z</time>
      </trkpt>
      <trkpt lat="44.41478" lon="5.83319">
        <ele>838</ele>
        <time>2019-06-12T14:51:31Z</time>
      </trkpt>
      <trkpt lat="44.41479" lon="5.83322">
        <ele>838</ele>
        <time>2019-06-12T14:51:32Z</time>
      </trkpt>
      <trkpt lat="44.4148" lon="5.83325">
        <ele>838</ele>
        <time>2019-06-12T14:51:33Z</time>
      </trkpt>
      <trkpt lat="44.41481" lon="5.83327">
        <ele>838</ele>
        <time>2019-06-12T14:51:34Z</time>
      </trkpt>
      <trkpt lat="44.41483" lon="5.8333">
        <ele>839</ele>
        <time>2019-06-12T14:51:35Z</time>
      </trkpt>
      <trkpt lat="44.41484" lon="5.83333">
        <ele>839</ele>
        <time>2019-06-12T14:51:36Z</time>
      </trkpt>
      <trkpt lat="44.41486" lon="5.83336">
        <ele>839</ele>
        <time>2019-06-12T14:51:37Z</time>
      </trkpt>
      <trkpt lat="44.41488" lon="5.83339">
        <ele>839</ele>
        <time>2019-06-12T14:51:38Z</time>
      </trkpt>
      <trkpt lat="44.41489" lon="5.83341">
        <ele>840</ele>
        <time>2019-06-12T14:51:39Z</time>
      </trkpt>
      <trkpt lat="44.41491" lon="5.83344">
        <ele>840</ele>
        <time>2019-06-12T14:51:40Z</time>
      </trkpt>
      <trkpt lat="44.41493" lon="5.83346">
        <ele>840</ele>
        <time>2019-06-12T14:51:41Z</time>
      </trkpt>
      <trkpt lat="44.41495" lon="5.83349">
        <ele>840</ele>
        <time>2019-06-12T14:51:42Z</time>
      </trkpt>
      <trkpt lat="44.41497" lon="5.83352">
        <ele>840</ele>
        <time>2019-06-12T14:51:43Z</time>
      </trkpt>
      <trkpt lat="44.41499" lon="5.83355">
        <ele>840</ele>
        <time>2019-06-12T14:51:44Z</time>
      </trkpt>
      <trkpt lat="44.415" lon="5.83358">
        <ele>841</ele>
        <time>2019-06-12T14:51:45Z</time>
      </trkpt>
      <trkpt lat="44.41502" lon="5.83361">
        <ele>841</ele>
        <time>2019-06-12T14:51:46Z</time>
      </trkpt>
      <trkpt lat="44.41504" lon="5.83363">
        <ele>841</ele>
        <time>2019-06-12T14:51:47Z</time>
      </trkpt>
      <trkpt lat="44.41505" lon="5.83365">
        <ele>841</ele>
        <time>2019-06-12T14:51:48Z</time>
      </trkpt>
      <trkpt lat="44.41507" lon="5.83368">
        <ele>842</ele>
        <time>2019-06-12T14:51:49Z</time>
      </trkpt>
      <trkpt lat="44.41508" lon="5.83371">
        <ele>842</ele>
        <time>2019-06-12T14:51:50Z</time>
      </trkpt>
      <trkpt lat="44.4151" lon="5.83373">
        <ele>842</ele>
        <time>2019-06-12T14:51:51Z</time>
      </trkpt>
      <trkpt lat="44.41511" lon="5.83376">
        <ele>842</ele>
        <time>2019-06-12T14:51:52Z</time>
      </trkpt>
      <trkpt lat="44.41513" lon="5.83379">
        <ele>842</ele>
        <time>2019-06-12T14:51:53Z</time>
      </trkpt>
      <trkpt lat="44.41515" lon="5.83381">
        <ele>843</ele>
        <time>2019-06-12T14:51:54Z</time>
      </trkpt>
      <trkpt lat="44.41516" lon="5.83384">
        <ele>843</ele>
        <time>2019-06-12T14:51:55Z</time>
      </trkpt>
      <trkpt lat="44.41518" lon="5.83387">
        <ele>843</ele>
        <time>2019-06-12T14:51:56Z</time>
      </trkpt>
      <trkpt lat="44.4152" lon="5.8339">
        <ele>843</ele>
        <time>2019-06-12T14:51:57Z</time>
      </trkpt>
      <trkpt lat="44.41521" lon="5.83394">
        <ele>843</ele>
        <time>2019-06-12T14:51:58Z</time>
      </trkpt>
      <trkpt lat="44.41523" lon="5.83397">
        <ele>843</ele>
        <time>2019-06-12T14:51:59Z</time>
      </trkpt>
      <trkpt lat="44.41524" lon="5.83402">
        <ele>843</ele>
        <time>2019-06-12T14:52:00Z</time>
      </trkpt>
      <trkpt lat="44.41526" lon="5.83406">
        <ele>844</ele>
        <time>2019-06-12T14:52:01Z</time>
      </trkpt>
      <trkpt lat="44.41526" lon="5.83411">
        <ele>844</ele>
        <time>2019-06-12T14:52:02Z</time>
      </trkpt>
      <trkpt lat="44.41527" lon="5.83415">
        <ele>844</ele>
        <time>2019-06-12T14:52:03Z</time>
      </trkpt>
      <trkpt lat="44.41528" lon="5.8342">
        <ele>844</ele>
        <time>2019-06-12T14:52:04Z</time>
      </trkpt>
      <trkpt lat="44.41527" lon="5.83424">
        <ele>844</ele>
        <time>2019-06-12T14:52:05Z</time>
      </trkpt>
      <trkpt lat="44.41527" lon="5.83428">
        <ele>844</ele>
        <time>2019-06-12T14:52:06Z</time>
      </trkpt>
      <trkpt lat="44.41527" lon="5.83432">
        <ele>844</ele>
        <time>2019-06-12T14:52:07Z</time>
      </trkpt>
      <trkpt lat="44.41527" lon="5.83436">
        <ele>845</ele>
        <time>2019-06-12T14:52:08Z</time>
      </trkpt>
      <trkpt lat="44.41528" lon="5.8344">
        <ele>845</ele>
        <time>2019-06-12T14:52:09Z</time>
      </trkpt>
      <trkpt lat="44.41529" lon="5.83444">
        <ele>845</ele>
        <time>2019-06-12T14:52:10Z</time>
      </trkpt>
      <trkpt lat="44.4153" lon="5.83448">
        <ele>845</ele>
        <time>2019-06-12T14:52:11Z</time>
      </trkpt>
      <trkpt lat="44.41531" lon="5.83452">
        <ele>845</ele>
        <time>2019-06-12T14:52:12Z</time>
      </trkpt>
      <trkpt lat="44.41532" lon="5.83455">
        <ele>845</ele>
        <time>2019-06-12T14:52:13Z</time>
      </trkpt>
      <trkpt lat="44.41533" lon="5.83459">
        <ele>846</ele>
        <time>2019-06-12T14:52:14Z</time>
      </trkpt>
      <trkpt lat="44.41534" lon="5.83462">
        <ele>846</ele>
        <time>2019-06-12T14:52:15Z</time>
      </trkpt>
      <trkpt lat="44.41536" lon="5.83466">
        <ele>846</ele>
        <time>2019-06-12T14:52:16Z</time>
      </trkpt>
      <trkpt lat="44.41538" lon="5.83469">
        <ele>846</ele>
        <time>2019-06-12T14:52:17Z</time>
      </trkpt>
      <trkpt lat="44.41539" lon="5.83473">
        <ele>846</ele>
        <time>2019-06-12T14:52:18Z</time>
      </trkpt>
      <trkpt lat="44.41541" lon="5.83477">
        <ele>846</ele>
        <time>2019-06-12T14:52:19Z</time>
      </trkpt>
      <trkpt lat="44.41542" lon="5.83481">
        <ele>846</ele>
        <time>2019-06-12T14:52:20Z</time>
      </trkpt>
      <trkpt lat="44.41544" lon="5.83485">
        <ele>847</ele>
        <time>2019-06-12T14:52:21Z</time>
      </trkpt>
      <trkpt lat="44.41545" lon="5.83489">
        <ele>847</ele>
        <time>2019-06-12T14:52:22Z</time>
      </trkpt>
      <trkpt lat="44.41547" lon="5.83493">
        <ele>847</ele>
        <time>2019-06-12T14:52:23Z</time>
      </trkpt>
      <trkpt lat="44.41548" lon="5.83497">
        <ele>847</ele>
        <time>2019-06-12T14:52:24Z</time>
      </trkpt>
      <trkpt lat="44.41549" lon="5.83502">
        <ele>847</ele>
        <time>2019-06-12T14:52:25Z</time>
      </trkpt>
      <trkpt lat="44.4155" lon="5.83506">
        <ele>847</ele>
        <time>2019-06-12T14:52:26Z</time>
      </trkpt>
      <trkpt lat="44.41552" lon="5.8351">
        <ele>847</ele>
        <time>2019-06-12T14:52:27Z</time>
      </trkpt>
      <trkpt lat="44.41552" lon="5.83515">
        <ele>847</ele>
        <time>2019-06-12T14:52:28Z</time>
      </trkpt>
      <trkpt lat="44.41552" lon="5.83521">
        <ele>847</ele>
        <time>2019-06-12T14:52:29Z</time>
      </trkpt>
      <trkpt lat="44.4155" lon="5.83526">
        <ele>847</ele>
        <time>2019-06-12T14:52:30Z</time>
      </trkpt>
      <trkpt lat="44.41546" lon="5.8353">
        <ele>847</ele>
        <time>2019-06-12T14:52:31Z</time>
      </trkpt>
      <trkpt lat="44.41542" lon="5.83532">
        <ele>847</ele>
        <time>2019-06-12T14:52:32Z</time>
      </trkpt>
      <trkpt lat="44.41538" lon="5.83532">
        <ele>847</ele>
        <time>2019-06-12T14:52:33Z</time>
      </trkpt>
      <trkpt lat="44.41534" lon="5.83531">
        <ele>847</ele>
        <time>2019-06-12T14:52:34Z</time>
      </trkpt>
      <trkpt lat="44.41531" lon="5.8353">
        <ele>847</ele>
        <time>2019-06-12T14:52:35Z</time>
      </trkpt>
      <trkpt lat="44.41528" lon="5.83528">
        <ele>847</ele>
        <time>2019-06-12T14:52:36Z</time>
      </trkpt>
      <trkpt lat="44.41525" lon="5.83525">
        <ele>847</ele>
        <time>2019-06-12T14:52:37Z</time>
      </trkpt>
      <trkpt lat="44.41522" lon="5.83523">
        <ele>847</ele>
        <time>2019-06-12T14:52:38Z</time>
      </trkpt>
      <trkpt lat="44.41519" lon="5.83521">
        <ele>847</ele>
        <time>2019-06-12T14:52:39Z</time>
      </trkpt>
      <trkpt lat="44.41516" lon="5.83518">
        <ele>847</ele>
        <time>2019-06-12T14:52:40Z</time>
      </trkpt>
      <trkpt lat="44.41513" lon="5.83517">
        <ele>847</ele>
        <time>2019-06-12T14:52:41Z</time>
      </trkpt>
      <trkpt lat="44.4151" lon="5.83515">
        <ele>847</ele>
        <time>2019-06-12T14:52:42Z</time>
      </trkpt>
      <trkpt lat="44.41507" lon="5.83514">
        <ele>847</ele>
        <time>2019-06-12T14:52:43Z</time>
      </trkpt>
      <trkpt lat="44.41504" lon="5.83513">
        <ele>847</ele>
        <time>2019-06-12T14:52:44Z</time>
      </trkpt>
      <trkpt lat="44.41501" lon="5.83513">
        <ele>847</ele>
        <time>2019-06-12T14:52:45Z</time>
      </trkpt>
      <trkpt lat="44.41499" lon="5.83512">
        <ele>847</ele>
        <time>2019-06-12T14:52:46Z</time>
      </trkpt>
      <trkpt lat="44.41496" lon="5.83513">
        <ele>847</ele>
        <time>2019-06-12T14:52:47Z</time>
      </trkpt>
      <trkpt lat="44.41494" lon="5.83513">
        <ele>847</ele>
        <time>2019-06-12T14:52:48Z</time>
      </trkpt>
      <trkpt lat="44.41492" lon="5.83513">
        <ele>847</ele>
        <time>2019-06-12T14:52:49Z</time>
      </trkpt>
      <trkpt lat="44.4149" lon="5.83513">
        <ele>848</ele>
        <time>2019-06-12T14:52:50Z</time>
      </trkpt>
      <trkpt lat="44.41487" lon="5.83513">
        <ele>848</ele>
        <time>2019-06-12T14:52:51Z</time>
      </trkpt>
      <trkpt lat="44.41485" lon="5.83513">
        <ele>849</ele>
        <time>2019-06-12T14:52:52Z</time>
      </trkpt>
      <trkpt lat="44.41483" lon="5.83513">
        <ele>849</ele>
        <time>2019-06-12T14:52:53Z</time>
      </trkpt>
      <trkpt lat="44.4148" lon="5.83513">
        <ele>849</ele>
        <time>2019-06-12T14:52:54Z</time>
      </trkpt>
      <trkpt lat="44.41478" lon="5.83514">
        <ele>849</ele>
        <time>2019-06-12T14:52:55Z</time>
      </trkpt>
      <trkpt lat="44.41476" lon="5.83515">
        <ele>850</ele>
        <time>2019-06-12T14:52:56Z</time>
      </trkpt>
      <trkpt lat="44.41475" lon="5.83517">
        <ele>850</ele>
        <time>2019-06-12T14:52:57Z</time>
      </trkpt>
      <trkpt lat="44.41473" lon="5.83518">
        <ele>850</ele>
        <time>2019-06-12T14:52:58Z</time>
      </trkpt>
      <trkpt lat="44.41471" lon="5.83519">
        <ele>851</ele>
        <time>2019-06-12T14:52:59Z</time>
      </trkpt>
      <trkpt lat="44.41468" lon="5.8352">
        <ele>851</ele>
        <time>2019-06-12T14:53:00Z</time>
      </trkpt>
      <trkpt lat="44.41466" lon="5.83521">
        <ele>851</ele>
        <time>2019-06-12T14:53:01Z</time>
      </trkpt>
      <trkpt lat="44.41464" lon="5.83521">
        <ele>851</ele>
        <time>2019-06-12T14:53:02Z</time>
      </trkpt>
      <trkpt lat="44.41462" lon="5.83522">
        <ele>852</ele>
        <time>2019-06-12T14:53:03Z</time>
      </trkpt>
      <trkpt lat="44.4146" lon="5.83523">
        <ele>852</ele>
        <time>2019-06-12T14:53:04Z</time>
      </trkpt>
      <trkpt lat="44.41457" lon="5.83524">
        <ele>852</ele>
        <time>2019-06-12T14:53:05Z</time>
      </trkpt>
      <trkpt lat="44.41455" lon="5.83525">
        <ele>852</ele>
        <time>2019-06-12T14:53:06Z</time>
      </trkpt>
      <trkpt lat="44.41453" lon="5.83526">
        <ele>853</ele>
        <time>2019-06-12T14:53:07Z</time>
      </trkpt>
      <trkpt lat="44.41451" lon="5.83527">
        <ele>853</ele>
        <time>2019-06-12T14:53:08Z</time>
      </trkpt>
      <trkpt lat="44.41449" lon="5.83528">
        <ele>853</ele>
        <time>2019-06-12T14:53:09Z</time>
      </trkpt>
      <trkpt lat="44.41447" lon="5.83528">
        <ele>854</ele>
        <time>2019-06-12T14:53:10Z</time>
      </trkpt>
      <trkpt lat="44.41444" lon="5.83529">
        <ele>854</ele>
        <time>2019-06-12T14:53:11Z</time>
      </trkpt>
      <trkpt lat="44.41442" lon="5.8353">
        <ele>854</ele>
        <time>2019-06-12T14:53:12Z</time>
      </trkpt>
      <trkpt lat="44.4144" lon="5.8353">
        <ele>854</ele>
        <time>2019-06-12T14:53:13Z</time>
      </trkpt>
      <trkpt lat="44.41438" lon="5.8353">
        <ele>854</ele>
        <time>2019-06-12T14:53:14Z</time>
      </trkpt>
      <trkpt lat="44.41436" lon="5.8353">
        <ele>855</ele>
        <time>2019-06-12T14:53:15Z</time>
      </trkpt>
      <trkpt lat="44.41433" lon="5.8353">
        <ele>855</ele>
        <time>2019-06-12T14:53:16Z</time>
      </trkpt>
      <trkpt lat="44.41431" lon="5.83529">
        <ele>855</ele>
        <time>2019-06-12T14:53:17Z</time>
      </trkpt>
      <trkpt lat="44.41429" lon="5.83528">
        <ele>856</ele>
        <time>2019-06-12T14:53:18Z</time>
      </trkpt>
      <trkpt lat="44.41427" lon="5.83528">
        <ele>856</ele>
        <time>2019-06-12T14:53:19Z</time>
      </trkpt>
      <trkpt lat="44.41425" lon="5.83527">
        <ele>856</ele>
        <time>2019-06-12T14:53:20Z</time>
      </trkpt>
      <trkpt lat="44.41423" lon="5.83526">
        <ele>856</ele>
        <time>2019-06-12T14:53:21Z</time>
      </trkpt>
      <trkpt lat="44.41421" lon="5.83526">
        <ele>856</ele>
        <time>2019-06-12T14:53:22Z</time>
      </trkpt>
      <trkpt lat="44.41418" lon="5.83525">
        <ele>856</ele>
        <time>2019-06-12T14:53:23Z</time>
      </trkpt>
      <trkpt lat="44.41416" lon="5.83524">
        <ele>857</ele>
        <time>2019-06-12T14:53:24Z</time>
      </trkpt>
      <trkpt lat="44.41414" lon="5.83524">
        <ele>857</ele>
        <time>2019-06-12T14:53:25Z</time>
      </trkpt>
      <trkpt lat="44.41412" lon="5.83523">
        <ele>857</ele>
        <time>2019-06-12T14:53:26Z</time>
      </trkpt>
      <trkpt lat="44.4141" lon="5.83522">
        <ele>858</ele>
        <time>2019-06-12T14:53:27Z</time>
      </trkpt>
      <trkpt lat="44.41407" lon="5.83521">
        <ele>858</ele>
        <time>2019-06-12T14:53:28Z</time>
      </trkpt>
      <trkpt lat="44.41405" lon="5.8352">
        <ele>858</ele>
        <time>2019-06-12T14:53:29Z</time>
      </trkpt>
      <trkpt lat="44.41403" lon="5.83519">
        <ele>858</ele>
        <time>2019-06-12T14:53:30Z</time>
      </trkpt>
      <trkpt lat="44.414" lon="5.83518">
        <ele>859</ele>
        <time>2019-06-12T14:53:31Z</time>
      </trkpt>
      <trkpt lat="44.41398" lon="5.83518">
        <ele>859</ele>
        <time>2019-06-12T14:53:32Z</time>
      </trkpt>
      <trkpt lat="44.41396" lon="5.83517">
        <ele>859</ele>
        <time>2019-06-12T14:53:33Z</time>
      </trkpt>
      <trkpt lat="44.41393" lon="5.83517">
        <ele>860</ele>
        <time>2019-06-12T14:53:34Z</time>
      </trkpt>
      <trkpt lat="44.41391" lon="5.83517">
        <ele>860</ele>
        <time>2019-06-12T14:53:35Z</time>
      </trkpt>
      <trkpt lat="44.41389" lon="5.83518">
        <ele>861</ele>
        <time>2019-06-12T14:53:36Z</time>
      </trkpt>
      <trkpt lat="44.41387" lon="5.83519">
        <ele>861</ele>
        <time>2019-06-12T14:53:37Z</time>
      </trkpt>
      <trkpt lat="44.41385" lon="5.8352">
        <ele>861</ele>
        <time>2019-06-12T14:53:38Z</time>
      </trkpt>
      <trkpt lat="44.41383" lon="5.83521">
        <ele>862</ele>
        <time>2019-06-12T14:53:39Z</time>
      </trkpt>
      <trkpt lat="44.41381" lon="5.83522">
        <ele>862</ele>
        <time>2019-06-12T14:53:40Z</time>
      </trkpt>
      <trkpt lat="44.4138" lon="5.83524">
        <ele>862</ele>
        <time>2019-06-12T14:53:41Z</time>
      </trkpt>
      <trkpt lat="44.41378" lon="5.83526">
        <ele>862</ele>
        <time>2019-06-12T14:53:42Z</time>
      </trkpt>
      <trkpt lat="44.41377" lon="5.83529">
        <ele>863</ele>
        <time>2019-06-12T14:53:43Z</time>
      </trkpt>
      <trkpt lat="44.41377" lon="5.83531">
        <ele>863</ele>
        <time>2019-06-12T14:53:44Z</time>
      </trkpt>
      <trkpt lat="44.41376" lon="5.83534">
        <ele>863</ele>
        <time>2019-06-12T14:53:45Z</time>
      </trkpt>
      <trkpt lat="44.41376" lon="5.83537">
        <ele>863</ele>
        <time>2019-06-12T14:53:46Z</time>
      </trkpt>
      <trkpt lat="44.41376" lon="5.8354">
        <ele>864</ele>
        <time>2019-06-12T14:53:47Z</time>
      </trkpt>
      <trkpt lat="44.41375" lon="5.83542">
        <ele>864</ele>
        <time>2019-06-12T14:53:48Z</time>
      </trkpt>
      <trkpt lat="44.41375" lon="5.83545">
        <ele>864</ele>
        <time>2019-06-12T14:53:49Z</time>
      </trkpt>
      <trkpt lat="44.41375" lon="5.83548">
        <ele>864</ele>
        <time>2019-06-12T14:53:50Z</time>
      </trkpt>
      <trkpt lat="44.41374" lon="5.83551">
        <ele>864</ele>
        <time>2019-06-12T14:53:51Z</time>
      </trkpt>
      <trkpt lat="44.41374" lon="5.83554">
        <ele>864</ele>
        <time>2019-06-12T14:53:52Z</time>
      </trkpt>
      <trkpt lat="44.41374" lon="5.83557">
        <ele>864</ele>
        <time>2019-06-12T14:53:53Z</time>
      </trkpt>
      <trkpt lat="44.41374" lon="5.83559">
        <ele>865</ele>
        <time>2019-06-12T14:53:54Z</time>
      </trkpt>
      <trkpt lat="44.41373" lon="5.83562">
        <ele>865</ele>
        <time>2019-06-12T14:53:55Z</time>
      </trkpt>
      <trkpt lat="44.41373" lon="5.83565">
        <ele>865</ele>
        <time>2019-06-12T14:53:56Z</time>
      </trkpt>
      <trkpt lat="44.41373" lon="5.83567">
        <ele>865</ele>
        <time>2019-06-12T14:53:57Z</time>
      </trkpt>
      <trkpt lat="44.41373" lon="5.8357">
        <ele>866</ele>
        <time>2019-06-12T14:53:58Z</time>
      </trkpt>
      <trkpt lat="44.41372" lon="5.83572">
        <ele>866</ele>
        <time>2019-06-12T14:53:59Z</time>
      </trkpt>
      <trkpt lat="44.41371" lon="5.83574">
        <ele>866</ele>
        <time>2019-06-12T14:54:00Z</time>
      </trkpt>
      <trkpt lat="44.4137" lon="5.83577">
        <ele>867</ele>
        <time>2019-06-12T14:54:01Z</time>
      </trkpt>
      <trkpt lat="44.4137" lon="5.83579">
        <ele>867</ele>
        <time>2019-06-12T14:54:02Z</time>
      </trkpt>
      <trkpt lat="44.41369" lon="5.83582">
        <ele>868</ele>
        <time>2019-06-12T14:54:03Z</time>
      </trkpt>
      <trkpt lat="44.41369" lon="5.83584">
        <ele>868</ele>
        <time>2019-06-12T14:54:04Z</time>
      </trkpt>
      <trkpt lat="44.41368" lon="5.83587">
        <ele>868</ele>
        <time>2019-06-12T14:54:05Z</time>
      </trkpt>
      <trkpt lat="44.41368" lon="5.8359">
        <ele>868</ele>
        <time>2019-06-12T14:54:06Z</time>
      </trkpt>
      <trkpt lat="44.41367" lon="5.83592">
        <ele>869</ele>
        <time>2019-06-12T14:54:07Z</time>
      </trkpt>
      <trkpt lat="44.41367" lon="5.83595">
        <ele>869</ele>
        <time>2019-06-12T14:54:08Z</time>
      </trkpt>
      <trkpt lat="44.41366" lon="5.83597">
        <ele>869</ele>
        <time>2019-06-12T14:54:09Z</time>
      </trkpt>
      <trkpt lat="44.41366" lon="5.836">
        <ele>869</ele>
        <time>2019-06-12T14:54:10Z</time>
      </trkpt>
      <trkpt lat="44.41366" lon="5.83603">
        <ele>870</ele>
        <time>2019-06-12T14:54:11Z</time>
      </trkpt>
      <trkpt lat="44.41365" lon="5.83605">
        <ele>870</ele>
        <time>2019-06-12T14:54:12Z</time>
      </trkpt>
      <trkpt lat="44.41365" lon="5.83608">
        <ele>870</ele>
        <time>2019-06-12T14:54:13Z</time>
      </trkpt>
      <trkpt lat="44.41365" lon="5.8361">
        <ele>870</ele>
        <time>2019-06-12T14:54:14Z</time>
      </trkpt>
      <trkpt lat="44.41364" lon="5.83613">
        <ele>870</ele>
        <time>2019-06-12T14:54:15Z</time>
      </trkpt>
      <trkpt lat="44.41364" lon="5.83615">
        <ele>870</ele>
        <time>2019-06-12T14:54:16Z</time>
      </trkpt>
      <trkpt lat="44.41363" lon="5.83618">
        <ele>870</ele>
        <time>2019-06-12T14:54:17Z</time>
      </trkpt>
      <trkpt lat="44.41363" lon="5.83621">
        <ele>870</ele>
        <time>2019-06-12T14:54:18Z</time>
      </trkpt>
      <trkpt lat="44.41363" lon="5.83624">
        <ele>870</ele>
        <time>2019-06-12T14:54:19Z</time>
      </trkpt>
      <trkpt lat="44.41362" lon="5.83626">
        <ele>870</ele>
        <time>2019-06-12T14:54:20Z</time>
      </trkpt>
      <trkpt lat="44.41362" lon="5.83629">
        <ele>870</ele>
        <time>2019-06-12T14:54:21Z</time>
      </trkpt>
      <trkpt lat="44.41362" lon="5.83632">
        <ele>870</ele>
        <time>2019-06-12T14:54:22Z</time>
      </trkpt>
      <trkpt lat="44.41361" lon="5.83635">
        <ele>870</ele>
        <time>2019-06-12T14:54:23Z</time>
      </trkpt>
      <trkpt lat="44.4136" lon="5.83638">
        <ele>870</ele>
        <time>2019-06-12T14:54:24Z</time>
      </trkpt>
      <trkpt lat="44.4136" lon="5.8364">
        <ele>870</ele>
        <time>2019-06-12T14:54:25Z</time>
      </trkpt>
      <trkpt lat="44.41359" lon="5.83644">
        <ele>871</ele>
        <time>2019-06-12T14:54:26Z</time>
      </trkpt>
      <trkpt lat="44.41358" lon="5.83646">
        <ele>871</ele>
        <time>2019-06-12T14:54:27Z</time>
      </trkpt>
      <trkpt lat="44.41356" lon="5.83649">
        <ele>871</ele>
        <time>2019-06-12T14:54:28Z</time>
      </trkpt>
      <trkpt lat="44.41355" lon="5.83651">
        <ele>871</ele>
        <time>2019-06-12T14:54:29Z</time>
      </trkpt>
      <trkpt lat="44.41353" lon="5.83653">
        <ele>871</ele>
        <time>2019-06-12T14:54:30Z</time>
      </trkpt>
      <trkpt lat="44.41351" lon="5.83655">
        <ele>871</ele>
        <time>2019-06-12T14:54:31Z</time>
      </trkpt>
      <trkpt lat="44.41349" lon="5.83656">
        <ele>872</ele>
        <time>2019-06-12T14:54:32Z</time>
      </trkpt>
      <trkpt lat="44.41348" lon="5.83658">
        <ele>872</ele>
        <time>2019-06-12T14:54:33Z</time>
      </trkpt>
      <trkpt lat="44.41346" lon="5.83659">
        <ele>872</ele>
        <time>2019-06-12T14:54:34Z</time>
      </trkpt>
      <trkpt lat="44.41344" lon="5.8366">
        <ele>872</ele>
        <time>2019-06-12T14:54:35Z</time>
      </trkpt>
      <trkpt lat="44.41342" lon="5.83662">
        <ele>872</ele>
        <time>2019-06-12T14:54:36Z</time>
      </trkpt>
      <trkpt lat="44.4134" lon="5.83663">
        <ele>872</ele>
        <time>2019-06-12T14:54:37Z</time>
      </trkpt>
      <trkpt lat="44.41338" lon="5.83665">
        <ele>872</ele>
        <time>2019-06-12T14:54:38Z</time>
      </trkpt>
      <trkpt lat="44.41336" lon="5.83666">
        <ele>872</ele>
        <time>2019-06-12T14:54:39Z</time>
      </trkpt>
      <trkpt lat="44.41335" lon="5.83668">
        <ele>872</ele>
        <time>2019-06-12T14:54:40Z</time>
      </trkpt>
      <trkpt lat="44.41333" lon="5.8367">
        <ele>872</ele>
        <time>2019-06-12T14:54:41Z</time>
      </trkpt>
      <trkpt lat="44.41332" lon="5.83672">
        <ele>872</ele>
        <time>2019-06-12T14:54:42Z</time>
      </trkpt>
      <trkpt lat="44.41331" lon="5.83674">
        <ele>872</ele>
        <time>2019-06-12T14:54:43Z</time>
      </trkpt>
      <trkpt lat="44.4133" lon="5.83677">
        <ele>872</ele>
        <time>2019-06-12T14:54:44Z</time>
      </trkpt>
      <trkpt lat="44.41329" lon="5.83679">
        <ele>872</ele>
        <time>2019-06-12T14:54:45Z</time>
      </trkpt>
      <trkpt lat="44.41328" lon="5.83682">
        <ele>872</ele>
        <time>2019-06-12T14:54:46Z</time>
      </trkpt>
      <trkpt lat="44.41327" lon="5.83684">
        <ele>873</ele>
        <time>2019-06-12T14:54:47Z</time>
      </trkpt>
      <trkpt lat="44.41327" lon="5.83687">
        <ele>873</ele>
        <time>2019-06-12T14:54:48Z</time>
      </trkpt>
      <trkpt lat="44.41327" lon="5.8369">
        <ele>873</ele>
        <time>2019-06-12T14:54:49Z</time>
      </trkpt>
      <trkpt lat="44.41327" lon="5.83693">
        <ele>873</ele>
        <time>2019-06-12T14:54:50Z</time>
      </trkpt>
      <trkpt lat="44.41327" lon="5.83696">
        <ele>873</ele>
        <time>2019-06-12T14:54:51Z</time>
      </trkpt>
      <trkpt lat="44.41327" lon="5.83699">
        <ele>874</ele>
        <time>2019-06-12T14:54:52Z</time>
      </trkpt>
      <trkpt lat="44.41327" lon="5.83702">
        <ele>874</ele>
        <time>2019-06-12T14:54:53Z</time>
      </trkpt>
      <trkpt lat="44.41328" lon="5.83705">
        <ele>874</ele>
        <time>2019-06-12T14:54:54Z</time>
      </trkpt>
      <trkpt lat="44.41328" lon="5.83707">
        <ele>874</ele>
        <time>2019-06-12T14:54:55Z</time>
      </trkpt>
      <trkpt lat="44.41329" lon="5.83709">
        <ele>874</ele>
        <time>2019-06-12T14:54:56Z</time>
      </trkpt>
      <trkpt lat="44.4133" lon="5.83712">
        <ele>874</ele>
        <time>2019-06-12T14:54:57Z</time>
      </trkpt>
      <trkpt lat="44.41331" lon="5.83714">
        <ele>874</ele>
        <time>2019-06-12T14:54:58Z</time>
      </trkpt>
      <trkpt lat="44.41331" lon="5.83717">
        <ele>875</ele>
        <time>2019-06-12T14:54:59Z</time>
      </trkpt>
      <trkpt lat="44.41333" lon="5.83719">
        <ele>875</ele>
        <time>2019-06-12T14:55:00Z</time>
      </trkpt>
      <trkpt lat="44.41334" lon="5.83721">
        <ele>875</ele>
        <time>2019-06-12T14:55:01Z</time>
      </trkpt>
      <trkpt lat="44.41335" lon="5.83723">
        <ele>875</ele>
        <time>2019-06-12T14:55:02Z</time>
      </trkpt>
      <trkpt lat="44.41336" lon="5.83726">
        <ele>876</ele>
        <time>2019-06-12T14:55:03Z</time>
      </trkpt>
      <trkpt lat="44.41337" lon="5.83728">
        <ele>876</ele>
        <time>2019-06-12T14:55:04Z</time>
      </trkpt>
      <trkpt lat="44.41338" lon="5.83731">
        <ele>876</ele>
        <time>2019-06-12T14:55:05Z</time>
      </trkpt>
      <trkpt lat="44.41339" lon="5.83734">
        <ele>876</ele>
        <time>2019-06-12T14:55:06Z</time>
      </trkpt>
      <trkpt lat="44.4134" lon="5.83737">
        <ele>876</ele>
        <time>2019-06-12T14:55:07Z</time>
      </trkpt>
      <trkpt lat="44.4134" lon="5.83741">
        <ele>876</ele>
        <time>2019-06-12T14:55:08Z</time>
      </trkpt>
      <trkpt lat="44.41341" lon="5.83744">
        <ele>876</ele>
        <time>2019-06-12T14:55:09Z</time>
      </trkpt>
      <trkpt lat="44.41341" lon="5.83747">
        <ele>877</ele>
        <time>2019-06-12T14:55:10Z</time>
      </trkpt>
      <trkpt lat="44.41341" lon="5.8375">
        <ele>877</ele>
        <time>2019-06-12T14:55:11Z</time>
      </trkpt>
      <trkpt lat="44.4134" lon="5.83753">
        <ele>877</ele>
        <time>2019-06-12T14:55:12Z</time>
      </trkpt>
      <trkpt lat="44.4134" lon="5.83756">
        <ele>877</ele>
        <time>2019-06-12T14:55:13Z</time>
      </trkpt>
      <trkpt lat="44.41339" lon="5.83759">
        <ele>877</ele>
        <time>2019-06-12T14:55:14Z</time>
      </trkpt>
      <trkpt lat="44.41338" lon="5.83762">
        <ele>877</ele>
        <time>2019-06-12T14:55:15Z</time>
      </trkpt>
      <trkpt lat="44.41337" lon="5.83765">
        <ele>877</ele>
        <time>2019-06-12T14:55:16Z</time>
      </trkpt>
      <trkpt lat="44.41336" lon="5.83767">
        <ele>877</ele>
        <time>2019-06-12T14:55:17Z</time>
      </trkpt>
      <trkpt lat="44.41335" lon="5.8377">
        <ele>877</ele>
        <time>2019-06-12T14:55:18Z</time>
      </trkpt>
      <trkpt lat="44.41334" lon="5.83772">
        <ele>878</ele>
        <time>2019-06-12T14:55:19Z</time>
      </trkpt>
      <trkpt lat="44.41332" lon="5.83775">
        <ele>878</ele>
        <time>2019-06-12T14:55:20Z</time>
      </trkpt>
      <trkpt lat="44.41331" lon="5.83777">
        <ele>878</ele>
        <time>2019-06-12T14:55:21Z</time>
      </trkpt>
      <trkpt lat="44.4133" lon="5.83779">
        <ele>878</ele>
        <time>2019-06-12T14:55:22Z</time>
      </trkpt>
      <trkpt lat="44.41328" lon="5.83782">
        <ele>879</ele>
        <time>2019-06-12T14:55:23Z</time>
      </trkpt>
      <trkpt lat="44.41327" lon="5.83784">
        <ele>879</ele>
        <time>2019-06-12T14:55:24Z</time>
      </trkpt>
      <trkpt lat="44.41325" lon="5.83787">
        <ele>879</ele>
        <time>2019-06-12T14:55:25Z</time>
      </trkpt>
      <trkpt lat="44.41324" lon="5.83789">
        <ele>880</ele>
        <time>2019-06-12T14:55:26Z</time>
      </trkpt>
      <trkpt lat="44.41323" lon="5.83792">
        <ele>880</ele>
        <time>2019-06-12T14:55:27Z</time>
      </trkpt>
      <trkpt lat="44.41322" lon="5.83794">
        <ele>880</ele>
        <time>2019-06-12T14:55:28Z</time>
      </trkpt>
      <trkpt lat="44.4132" lon="5.83796">
        <ele>880</ele>
        <time>2019-06-12T14:55:29Z</time>
      </trkpt>
      <trkpt lat="44.41319" lon="5.83798">
        <ele>881</ele>
        <time>2019-06-12T14:55:30Z</time>
      </trkpt>
      <trkpt lat="44.41318" lon="5.838">
        <ele>881</ele>
        <time>2019-06-12T14:55:31Z</time>
      </trkpt>
      <trkpt lat="44.41316" lon="5.83802">
        <ele>881</ele>
        <time>2019-06-12T14:55:32Z</time>
      </trkpt>
      <trkpt lat="44.41315" lon="5.83804">
        <ele>881</ele>
        <time>2019-06-12T14:55:33Z</time>
      </trkpt>
      <trkpt lat="44.41314" lon="5.83806">
        <ele>882</ele>
        <time>2019-06-12T14:55:34Z</time>
      </trkpt>
      <trkpt lat="44.41312" lon="5.83808">
        <ele>882</ele>
        <time>2019-06-12T14:55:35Z</time>
      </trkpt>
      <trkpt lat="44.41311" lon="5.8381">
        <ele>882</ele>
        <time>2019-06-12T14:55:36Z</time>
      </trkpt>
      <trkpt lat="44.4131" lon="5.83812">
        <ele>882</ele>
        <time>2019-06-12T14:55:37Z</time>
      </trkpt>
      <trkpt lat="44.41309" lon="5.83814">
        <ele>883</ele>
        <time>2019-06-12T14:55:38Z</time>
      </trkpt>
      <trkpt lat="44.41308" lon="5.83817">
        <ele>883</ele>
        <time>2019-06-12T14:55:39Z</time>
      </trkpt>
      <trkpt lat="44.41307" lon="5.83819">
        <ele>883</ele>
        <time>2019-06-12T14:55:40Z</time>
      </trkpt>
      <trkpt lat="44.41306" lon="5.8382">
        <ele>883</ele>
        <time>2019-06-12T14:55:41Z</time>
      </trkpt>
      <trkpt lat="44.41305" lon="5.83822">
        <ele>883</ele>
        <time>2019-06-12T14:55:42Z</time>
      </trkpt>
      <trkpt lat="44.41304" lon="5.83825">
        <ele>884</ele>
        <time>2019-06-12T14:55:43Z</time>
      </trkpt>
      <trkpt lat="44.41303" lon="5.83827">
        <ele>884</ele>
        <time>2019-06-12T14:55:44Z</time>
      </trkpt>
      <trkpt lat="44.41302" lon="5.83829">
        <ele>884</ele>
        <time>2019-06-12T14:55:45Z</time>
      </trkpt>
      <trkpt lat="44.41301" lon="5.83832">
        <ele>885</ele>
        <time>2019-06-12T14:55:46Z</time>
      </trkpt>
      <trkpt lat="44.413" lon="5.83834">
        <ele>885</ele>
        <time>2019-06-12T14:55:47Z</time>
      </trkpt>
      <trkpt lat="44.41299" lon="5.83837">
        <ele>885</ele>
        <time>2019-06-12T14:55:48Z</time>
      </trkpt>
      <trkpt lat="44.41298" lon="5.83839">
        <ele>885</ele>
        <time>2019-06-12T14:55:49Z</time>
      </trkpt>
      <trkpt lat="44.41296" lon="5.83842">
        <ele>886</ele>
        <time>2019-06-12T14:55:50Z</time>
      </trkpt>
      <trkpt lat="44.41295" lon="5.83844">
        <ele>886</ele>
        <time>2019-06-12T14:55:51Z</time>
      </trkpt>
      <trkpt lat="44.41294" lon="5.83847">
        <ele>886</ele>
        <time>2019-06-12T14:55:52Z</time>
      </trkpt>
      <trkpt lat="44.41292" lon="5.83848">
        <ele>886</ele>
        <time>2019-06-12T14:55:53Z</time>
      </trkpt>
      <trkpt lat="44.41291" lon="5.8385">
        <ele>886</ele>
        <time>2019-06-12T14:55:54Z</time>
      </trkpt>
      <trkpt lat="44.41289" lon="5.83852">
        <ele>886</ele>
        <time>2019-06-12T14:55:55Z</time>
      </trkpt>
      <trkpt lat="44.41288" lon="5.83854">
        <ele>887</ele>
        <time>2019-06-12T14:55:56Z</time>
      </trkpt>
      <trkpt lat="44.41287" lon="5.83856">
        <ele>887</ele>
        <time>2019-06-12T14:55:57Z</time>
      </trkpt>
      <trkpt lat="44.41285" lon="5.83859">
        <ele>887</ele>
        <time>2019-06-12T14:55:58Z</time>
      </trkpt>
      <trkpt lat="44.41284" lon="5.83861">
        <ele>887</ele>
        <time>2019-06-12T14:55:59Z</time>
      </trkpt>
      <trkpt lat="44.41283" lon="5.83863">
        <ele>887</ele>
        <time>2019-06-12T14:56:00Z</time>
      </trkpt>
      <trkpt lat="44.41282" lon="5.83866">
        <ele>887</ele>
        <time>2019-06-12T14:56:01Z</time>
      </trkpt>
      <trkpt lat="44.41281" lon="5.83869">
        <ele>888</ele>
        <time>2019-06-12T14:56:02Z</time>
      </trkpt>
      <trkpt lat="44.4128" lon="5.83871">
        <ele>888</ele>
        <time>2019-06-12T14:56:03Z</time>
      </trkpt>
      <trkpt lat="44.41279" lon="5.83874">
        <ele>888</ele>
        <time>2019-06-12T14:56:04Z</time>
      </trkpt>
      <trkpt lat="44.41279" lon="5.83876">
        <ele>888</ele>
        <time>2019-06-12T14:56:05Z</time>
      </trkpt>
      <trkpt lat="44.41278" lon="5.83879">
        <ele>888</ele>
        <time>2019-06-12T14:56:06Z</time>
      </trkpt>
      <trkpt lat="44.41278" lon="5.83882">
        <ele>889</ele>
        <time>2019-06-12T14:56:07Z</time>
      </trkpt>
      <trkpt lat="44.41277" lon="5.83884">
        <ele>889</ele>
        <time>2019-06-12T14:56:08Z</time>
      </trkpt>
      <trkpt lat="44.41277" lon="5.83886">
        <ele>889</ele>
        <time>2019-06-12T14:56:09Z</time>
      </trkpt>
      <trkpt lat="44.41276" lon="5.83889">
        <ele>889</ele>
        <time>2019-06-12T14:56:10Z</time>
      </trkpt>
      <trkpt lat="44.41275" lon="5.83892">
        <ele>889</ele>
        <time>2019-06-12T14:56:11Z</time>
      </trkpt>
      <trkpt lat="44.41275" lon="5.83894">
        <ele>889</ele>
        <time>2019-06-12T14:56:12Z</time>
      </trkpt>
      <trkpt lat="44.41274" lon="5.83897">
        <ele>889</ele>
        <time>2019-06-12T14:56:13Z</time>
      </trkpt>
      <trkpt lat="44.41273" lon="5.83899">
        <ele>889</ele>
        <time>2019-06-12T14:56:14Z</time>
      </trkpt>
      <trkpt lat="44.41272" lon="5.83901">
        <ele>890</ele>
        <time>2019-06-12T14:56:15Z</time>
      </trkpt>
      <trkpt lat="44.41271" lon="5.83904">
        <ele>890</ele>
        <time>2019-06-12T14:56:16Z</time>
      </trkpt>
      <trkpt lat="44.4127" lon="5.83906">
        <ele>890</ele>
        <time>2019-06-12T14:56:17Z</time>
      </trkpt>
      <trkpt lat="44.41268" lon="5.83907">
        <ele>890</ele>
        <time>2019-06-12T14:56:18Z</time>
      </trkpt>
      <trkpt lat="44.41266" lon="5.83909">
        <ele>890</ele>
        <time>2019-06-12T14:56:19Z</time>
      </trkpt>
      <trkpt lat="44.41264" lon="5.83911">
        <ele>891</ele>
        <time>2019-06-12T14:56:20Z</time>
      </trkpt>
      <trkpt lat="44.41262" lon="5.83912">
        <ele>891</ele>
        <time>2019-06-12T14:56:21Z</time>
      </trkpt>
      <trkpt lat="44.41261" lon="5.83913">
        <ele>891</ele>
        <time>2019-06-12T14:56:22Z</time>
      </trkpt>
      <trkpt lat="44.41258" lon="5.83914">
        <ele>891</ele>
        <time>2019-06-12T14:56:23Z</time>
      </trkpt>
      <trkpt lat="44.41256" lon="5.83915">
        <ele>892</ele>
        <time>2019-06-12T14:56:24Z</time>
      </trkpt>
      <trkpt lat="44.41254" lon="5.83916">
        <ele>892</ele>
        <time>2019-06-12T14:56:25Z</time>
      </trkpt>
      <trkpt lat="44.41253" lon="5.83917">
        <ele>892</ele>
        <time>2019-06-12T14:56:26Z</time>
      </trkpt>
      <trkpt lat="44.41251" lon="5.83918">
        <ele>892</ele>
        <time>2019-06-12T14:56:27Z</time>
      </trkpt>
      <trkpt lat="44.41249" lon="5.83918">
        <ele>892</ele>
        <time>2019-06-12T14:56:28Z</time>
      </trkpt>
      <trkpt lat="44.41247" lon="5.83919">
        <ele>892</ele>
        <time>2019-06-12T14:56:29Z</time>
      </trkpt>
      <trkpt lat="44.41245" lon="5.8392">
        <ele>892</ele>
        <time>2019-06-12T14:56:30Z</time>
      </trkpt>
      <trkpt lat="44.41243" lon="5.8392">
        <ele>892</ele>
        <time>2019-06-12T14:56:31Z</time>
      </trkpt>
      <trkpt lat="44.41241" lon="5.83921">
        <ele>893</ele>
        <time>2019-06-12T14:56:32Z</time>
      </trkpt>
      <trkpt lat="44.41239" lon="5.83922">
        <ele>893</ele>
        <time>2019-06-12T14:56:33Z</time>
      </trkpt>
      <trkpt lat="44.41237" lon="5.83923">
        <ele>893</ele>
        <time>2019-06-12T14:56:34Z</time>
      </trkpt>
      <trkpt lat="44.41235" lon="5.83923">
        <ele>893</ele>
        <time>2019-06-12T14:56:35Z</time>
      </trkpt>
      <trkpt lat="44.41233" lon="5.83924">
        <ele>893</ele>
        <time>2019-06-12T14:56:36Z</time>
      </trkpt>
      <trkpt lat="44.41232" lon="5.83924">
        <ele>893</ele>
        <time>2019-06-12T14:56:37Z</time>
      </trkpt>
      <trkpt lat="44.41229" lon="5.83924">
        <ele>893</ele>
        <time>2019-06-12T14:56:38Z</time>
      </trkpt>
      <trkpt lat="44.41227" lon="5.83924">
        <ele>894</ele>
        <time>2019-06-12T14:56:39Z</time>
      </trkpt>
      <trkpt lat="44.41225" lon="5.83924">
        <ele>894</ele>
        <time>2019-06-12T14:56:40Z</time>
      </trkpt>
      <trkpt lat="44.41223" lon="5.83923">
        <ele>894</ele>
        <time>2019-06-12T14:56:41Z</time>
      </trkpt>
      <trkpt lat="44.41221" lon="5.83923">
        <ele>894</ele>
        <time>2019-06-12T14:56:42Z</time>
      </trkpt>
      <trkpt lat="44.41218" lon="5.83922">
        <ele>895</ele>
        <time>2019-06-12T14:56:43Z</time>
      </trkpt>
      <trkpt lat="44.41215" lon="5.83921">
        <ele>895</ele>
        <time>2019-06-12T14:56:44Z</time>
      </trkpt>
      <trkpt lat="44.41212" lon="5.8392">
        <ele>896</ele>
        <time>2019-06-12T14:56:45Z</time>
      </trkpt>
      <trkpt lat="44.4121" lon="5.8392">
        <ele>896</ele>
        <time>2019-06-12T14:56:46Z</time>
      </trkpt>
      <trkpt lat="44.41208" lon="5.83921">
        <ele>897</ele>
        <time>2019-06-12T14:56:47Z</time>
      </trkpt>
      <trkpt lat="44.41206" lon="5.83922">
        <ele>897</ele>
        <time>2019-06-12T14:56:48Z</time>
      </trkpt>
      <trkpt lat="44.41204" lon="5.83923">
        <ele>898</ele>
        <time>2019-06-12T14:56:49Z</time>
      </trkpt>
      <trkpt lat="44.41202" lon="5.83925">
        <ele>898</ele>
        <time>2019-06-12T14:56:50Z</time>
      </trkpt>
      <trkpt lat="44.41201" lon="5.83926">
        <ele>898</ele>
        <time>2019-06-12T14:56:51Z</time>
      </trkpt>
      <trkpt lat="44.41199" lon="5.83927">
        <ele>898</ele>
        <time>2019-06-12T14:56:52Z</time>
      </trkpt>
      <trkpt lat="44.41197" lon="5.83929">
        <ele>899</ele>
        <time>2019-06-12T14:56:53Z</time>
      </trkpt>
      <trkpt lat="44.41196" lon="5.8393">
        <ele>899</ele>
        <time>2019-06-12T14:56:54Z</time>
      </trkpt>
      <trkpt lat="44.41194" lon="5.83931">
        <ele>899</ele>
        <time>2019-06-12T14:56:55Z</time>
      </trkpt>
      <trkpt lat="44.41192" lon="5.83932">
        <ele>899</ele>
        <time>2019-06-12T14:56:56Z</time>
      </trkpt>
      <trkpt lat="44.4119" lon="5.83933">
        <ele>899</ele>
        <time>2019-06-12T14:56:57Z</time>
      </trkpt>
      <trkpt lat="44.41188" lon="5.83934">
        <ele>899</ele>
        <time>2019-06-12T14:56:58Z</time>
      </trkpt>
      <trkpt lat="44.41186" lon="5.83934">
        <ele>899</ele>
        <time>2019-06-12T14:56:59Z</time>
      </trkpt>
      <trkpt lat="44.41184" lon="5.83934">
        <ele>900</ele>
        <time>2019-06-12T14:57:00Z</time>
      </trkpt>
      <trkpt lat="44.41182" lon="5.83933">
        <ele>900</ele>
        <time>2019-06-12T14:57:01Z</time>
      </trkpt>
      <trkpt lat="44.4118" lon="5.83932">
        <ele>900</ele>
        <time>2019-06-12T14:57:02Z</time>
      </trkpt>
      <trkpt lat="44.41177" lon="5.83931">
        <ele>901</ele>
        <time>2019-06-12T14:57:03Z</time>
      </trkpt>
      <trkpt lat="44.41175" lon="5.83929">
        <ele>901</ele>
        <time>2019-06-12T14:57:04Z</time>
      </trkpt>
      <trkpt lat="44.41174" lon="5.83928">
        <ele>901</ele>
        <time>2019-06-12T14:57:05Z</time>
      </trkpt>
      <trkpt lat="44.41172" lon="5.83926">
        <ele>901</ele>
        <time>2019-06-12T14:57:06Z</time>
      </trkpt>
      <trkpt lat="44.4117" lon="5.83926">
        <ele>901</ele>
        <time>2019-06-12T14:57:07Z</time>
      </trkpt>
      <trkpt lat="44.41167" lon="5.83925">
        <ele>902</ele>
        <time>2019-06-12T14:57:08Z</time>
      </trkpt>
      <trkpt lat="44.41165" lon="5.83925">
        <ele>902</ele>
        <time>2019-06-12T14:57:09Z</time>
      </trkpt>
      <trkpt lat="44.41163" lon="5.83925">
        <ele>902</ele>
        <time>2019-06-12T14:57:10Z</time>
      </trkpt>
      <trkpt lat="44.41161" lon="5.83926">
        <ele>902</ele>
        <time>2019-06-12T14:57:11Z</time>
      </trkpt>
      <trkpt lat="44.41159" lon="5.83927">
        <ele>902</ele>
        <time>2019-06-12T14:57:12Z</time>
      </trkpt>
      <trkpt lat="44.41157" lon="5.83928">
        <ele>903</ele>
        <time>2019-06-12T14:57:13Z</time>
      </trkpt>
      <trkpt lat="44.41155" lon="5.83928">
        <ele>903</ele>
        <time>2019-06-12T14:57:14Z</time>
      </trkpt>
      <trkpt lat="44.41153" lon="5.83928">
        <ele>903</ele>
        <time>2019-06-12T14:57:15Z</time>
      </trkpt>
      <trkpt lat="44.41151" lon="5.83928">
        <ele>903</ele>
        <time>2019-06-12T14:57:16Z</time>
      </trkpt>
      <trkpt lat="44.41149" lon="5.83927">
        <ele>904</ele>
        <time>2019-06-12T14:57:17Z</time>
      </trkpt>
      <trkpt lat="44.41146" lon="5.83926">
        <ele>904</ele>
        <time>2019-06-12T14:57:18Z</time>
      </trkpt>
      <trkpt lat="44.41145" lon="5.83925">
        <ele>904</ele>
        <time>2019-06-12T14:57:19Z</time>
      </trkpt>
      <trkpt lat="44.41143" lon="5.83924">
        <ele>904</ele>
        <time>2019-06-12T14:57:20Z</time>
      </trkpt>
      <trkpt lat="44.4114" lon="5.83922">
        <ele>905</ele>
        <time>2019-06-12T14:57:21Z</time>
      </trkpt>
      <trkpt lat="44.41138" lon="5.83921">
        <ele>905</ele>
        <time>2019-06-12T14:57:22Z</time>
      </trkpt>
      <trkpt lat="44.41136" lon="5.8392">
        <ele>905</ele>
        <time>2019-06-12T14:57:23Z</time>
      </trkpt>
      <trkpt lat="44.41134" lon="5.8392">
        <ele>905</ele>
        <time>2019-06-12T14:57:24Z</time>
      </trkpt>
      <trkpt lat="44.41132" lon="5.83919">
        <ele>905</ele>
        <time>2019-06-12T14:57:25Z</time>
      </trkpt>
      <trkpt lat="44.4113" lon="5.83919">
        <ele>906</ele>
        <time>2019-06-12T14:57:26Z</time>
      </trkpt>
      <trkpt lat="44.41128" lon="5.83919">
        <ele>906</ele>
        <time>2019-06-12T14:57:27Z</time>
      </trkpt>
      <trkpt lat="44.41126" lon="5.83919">
        <ele>906</ele>
        <time>2019-06-12T14:57:28Z</time>
      </trkpt>
      <trkpt lat="44.41124" lon="5.8392">
        <ele>906</ele>
        <time>2019-06-12T14:57:29Z</time>
      </trkpt>
      <trkpt lat="44.41122" lon="5.83921">
        <ele>907</ele>
        <time>2019-06-12T14:57:30Z</time>
      </trkpt>
      <trkpt lat="44.4112" lon="5.83922">
        <ele>907</ele>
        <time>2019-06-12T14:57:31Z</time>
      </trkpt>
      <trkpt lat="44.41118" lon="5.83923">
        <ele>907</ele>
        <time>2019-06-12T14:57:32Z</time>
      </trkpt>
      <trkpt lat="44.41116" lon="5.83925">
        <ele>907</ele>
        <time>2019-06-12T14:57:33Z</time>
      </trkpt>
      <trkpt lat="44.41115" lon="5.83926">
        <ele>907</ele>
        <time>2019-06-12T14:57:34Z</time>
      </trkpt>
      <trkpt lat="44.41113" lon="5.83928">
        <ele>907</ele>
        <time>2019-06-12T14:57:35Z</time>
      </trkpt>
      <trkpt lat="44.41112" lon="5.83929">
        <ele>908</ele>
        <time>2019-06-12T14:57:36Z</time>
      </trkpt>
      <trkpt lat="44.4111" lon="5.83931">
        <ele>908</ele>
        <time>2019-06-12T14:57:37Z</time>
      </trkpt>
      <trkpt lat="44.41108" lon="5.83933">
        <ele>908</ele>
        <time>2019-06-12T14:57:38Z</time>
      </trkpt>
      <trkpt lat="44.41107" lon="5.83935">
        <ele>908</ele>
        <time>2019-06-12T14:57:39Z</time>
      </trkpt>
      <trkpt lat="44.41106" lon="5.83937">
        <ele>908</ele>
        <time>2019-06-12T14:57:40Z</time>
      </trkpt>
      <trkpt lat="44.41105" lon="5.83938">
        <ele>908</ele>
        <time>2019-06-12T14:57:41Z</time>
      </trkpt>
      <trkpt lat="44.41103" lon="5.8394">
        <ele>908</ele>
        <time>2019-06-12T14:57:42Z</time>
      </trkpt>
      <trkpt lat="44.41102" lon="5.83942">
        <ele>909</ele>
        <time>2019-06-12T14:57:43Z</time>
      </trkpt>
      <trkpt lat="44.411" lon="5.83944">
        <ele>909</ele>
        <time>2019-06-12T14:57:44Z</time>
      </trkpt>
      <trkpt lat="44.41098" lon="5.83945">
        <ele>909</ele>
        <time>2019-06-12T14:57:45Z</time>
      </trkpt>
      <trkpt lat="44.41097" lon="5.83947">
        <ele>910</ele>
        <time>2019-06-12T14:57:46Z</time>
      </trkpt>
      <trkpt lat="44.41095" lon="5.83949">
        <ele>910</ele>
        <time>2019-06-12T14:57:47Z</time>
      </trkpt>
      <trkpt lat="44.41094" lon="5.83951">
        <ele>910</ele>
        <time>2019-06-12T14:57:48Z</time>
      </trkpt>
      <trkpt lat="44.41092" lon="5.83952">
        <ele>911</ele>
        <time>2019-06-12T14:57:49Z</time>
      </trkpt>
      <trkpt lat="44.4109" lon="5.83953">
        <ele>911</ele>
        <time>2019-06-12T14:57:50Z</time>
      </trkpt>
      <trkpt lat="44.41088" lon="5.83953">
        <ele>912</ele>
        <time>2019-06-12T14:57:51Z</time>
      </trkpt>
      <trkpt lat="44.41086" lon="5.83953">
        <ele>912</ele>
        <time>2019-06-12T14:57:52Z</time>
      </trkpt>
      <trkpt lat="44.41084" lon="5.83952">
        <ele>912</ele>
        <time>2019-06-12T14:57:53Z</time>
      </trkpt>
      <trkpt lat="44.41082" lon="5.83952">
        <ele>912</ele>
        <time>2019-06-12T14:57:54Z</time>
      </trkpt>
      <trkpt lat="44.4108" lon="5.83951">
        <ele>913</ele>
        <time>2019-06-12T14:57:55Z</time>
      </trkpt>
      <trkpt lat="44.41078" lon="5.83951">
        <ele>913</ele>
        <time>2019-06-12T14:57:56Z</time>
      </trkpt>
      <trkpt lat="44.41076" lon="5.83951">
        <ele>913</ele>
        <time>2019-06-12T14:57:57Z</time>
      </trkpt>
      <trkpt lat="44.41073" lon="5.83952">
        <ele>913</ele>
        <time>2019-06-12T14:57:58Z</time>
      </trkpt>
      <trkpt lat="44.41071" lon="5.83953">
        <ele>913</ele>
        <time>2019-06-12T14:57:59Z</time>
      </trkpt>
      <trkpt lat="44.41069" lon="5.83953">
        <ele>913</ele>
        <time>2019-06-12T14:58:00Z</time>
      </trkpt>
      <trkpt lat="44.41067" lon="5.83954">
        <ele>914</ele>
        <time>2019-06-12T14:58:01Z</time>
      </trkpt>
      <trkpt lat="44.41065" lon="5.83954">
        <ele>914</ele>
        <time>2019-06-12T14:58:02Z</time>
      </trkpt>
      <trkpt lat="44.41063" lon="5.83955">
        <ele>914</ele>
        <time>2019-06-12T14:58:03Z</time>
      </trkpt>
      <trkpt lat="44.41061" lon="5.83956">
        <ele>914</ele>
        <time>2019-06-12T14:58:04Z</time>
      </trkpt>
      <trkpt lat="44.41059" lon="5.83957">
        <ele>914</ele>
        <time>2019-06-12T14:58:05Z</time>
      </trkpt>
      <trkpt lat="44.41058" lon="5.83958">
        <ele>914</ele>
        <time>2019-06-12T14:58:06Z</time>
      </trkpt>
      <trkpt lat="44.41056" lon="5.83959">
        <ele>915</ele>
        <time>2019-06-12T14:58:07Z</time>
      </trkpt>
      <trkpt lat="44.41054" lon="5.8396">
        <ele>915</ele>
        <time>2019-06-12T14:58:08Z</time>
      </trkpt>
      <trkpt lat="44.41053" lon="5.83962">
        <ele>915</ele>
        <time>2019-06-12T14:58:09Z</time>
      </trkpt>
      <trkpt lat="44.4105" lon="5.83963">
        <ele>915</ele>
        <time>2019-06-12T14:58:10Z</time>
      </trkpt>
      <trkpt lat="44.41048" lon="5.83964">
        <ele>915</ele>
        <time>2019-06-12T14:58:11Z</time>
      </trkpt>
      <trkpt lat="44.41047" lon="5.83966">
        <ele>915</ele>
        <time>2019-06-12T14:58:12Z</time>
      </trkpt>
      <trkpt lat="44.41045" lon="5.83968">
        <ele>915</ele>
        <time>2019-06-12T14:58:13Z</time>
      </trkpt>
      <trkpt lat="44.41043" lon="5.83969">
        <ele>915</ele>
        <time>2019-06-12T14:58:14Z</time>
      </trkpt>
      <trkpt lat="44.41041" lon="5.83971">
        <ele>915</ele>
        <time>2019-06-12T14:58:15Z</time>
      </trkpt>
      <trkpt lat="44.41039" lon="5.83973">
        <ele>915</ele>
        <time>2019-06-12T14:58:16Z</time>
      </trkpt>
      <trkpt lat="44.41036" lon="5.83974">
        <ele>915</ele>
        <time>2019-06-12T14:58:17Z</time>
      </trkpt>
      <trkpt lat="44.41034" lon="5.83976">
        <ele>915</ele>
        <time>2019-06-12T14:58:18Z</time>
      </trkpt>
      <trkpt lat="44.41032" lon="5.83978">
        <ele>915</ele>
        <time>2019-06-12T14:58:19Z</time>
      </trkpt>
      <trkpt lat="44.41029" lon="5.83979">
        <ele>915</ele>
        <time>2019-06-12T14:58:20Z</time>
      </trkpt>
      <trkpt lat="44.41027" lon="5.8398">
        <ele>915</ele>
        <time>2019-06-12T14:58:21Z</time>
      </trkpt>
      <trkpt lat="44.41024" lon="5.83982">
        <ele>915</ele>
        <time>2019-06-12T14:58:22Z</time>
      </trkpt>
      <trkpt lat="44.41021" lon="5.83983">
        <ele>915</ele>
        <time>2019-06-12T14:58:23Z</time>
      </trkpt>
      <trkpt lat="44.41019" lon="5.83984">
        <ele>915</ele>
        <time>2019-06-12T14:58:24Z</time>
      </trkpt>
      <trkpt lat="44.41016" lon="5.83985">
        <ele>915</ele>
        <time>2019-06-12T14:58:25Z</time>
      </trkpt>
      <trkpt lat="44.41014" lon="5.83985">
        <ele>915</ele>
        <time>2019-06-12T14:58:26Z</time>
      </trkpt>
      <trkpt lat="44.41011" lon="5.83986">
        <ele>915</ele>
        <time>2019-06-12T14:58:27Z</time>
      </trkpt>
      <trkpt lat="44.41009" lon="5.83986">
        <ele>915</ele>
        <time>2019-06-12T14:58:28Z</time>
      </trkpt>
      <trkpt lat="44.41007" lon="5.83987">
        <ele>915</ele>
        <time>2019-06-12T14:58:29Z</time>
      </trkpt>
      <trkpt lat="44.41004" lon="5.83987">
        <ele>915</ele>
        <time>2019-06-12T14:58:30Z</time>
      </trkpt>
      <trkpt lat="44.41002" lon="5.83987">
        <ele>915</ele>
        <time>2019-06-12T14:58:31Z</time>
      </trkpt>
      <trkpt lat="44.40999" lon="5.83988">
        <ele>915</ele>
        <time>2019-06-12T14:58:32Z</time>
      </trkpt>
      <trkpt lat="44.40996" lon="5.83989">
        <ele>916</ele>
        <time>2019-06-12T14:58:33Z</time>
      </trkpt>
      <trkpt lat="44.40993" lon="5.8399">
        <ele>916</ele>
        <time>2019-06-12T14:58:34Z</time>
      </trkpt>
      <trkpt lat="44.4099" lon="5.83992">
        <ele>916</ele>
        <time>2019-06-12T14:58:35Z</time>
      </trkpt>
      <trkpt lat="44.40987" lon="5.83993">
        <ele>916</ele>
        <time>2019-06-12T14:58:36Z</time>
      </trkpt>
      <trkpt lat="44.40984" lon="5.83995">
        <ele>916</ele>
        <time>2019-06-12T14:58:37Z</time>
      </trkpt>
      <trkpt lat="44.40981" lon="5.83997">
        <ele>917</ele>
        <time>2019-06-12T14:58:38Z</time>
      </trkpt>
      <trkpt lat="44.40977" lon="5.83999">
        <ele>917</ele>
        <time>2019-06-12T14:58:39Z</time>
      </trkpt>
      <trkpt lat="44.40974" lon="5.84">
        <ele>918</ele>
        <time>2019-06-12T14:58:40Z</time>
      </trkpt>
      <trkpt lat="44.40971" lon="5.84001">
        <ele>918</ele>
        <time>2019-06-12T14:58:41Z</time>
      </trkpt>
      <trkpt lat="44.40968" lon="5.84003">
        <ele>919</ele>
        <time>2019-06-12T14:58:42Z</time>
      </trkpt>
      <trkpt lat="44.40966" lon="5.84005">
        <ele>919</ele>
        <time>2019-06-12T14:58:43Z</time>
      </trkpt>
      <trkpt lat="44.40964" lon="5.84006">
        <ele>920</ele>
        <time>2019-06-12T14:58:44Z</time>
      </trkpt>
      <trkpt lat="44.40962" lon="5.84008">
        <ele>921</ele>
        <time>2019-06-12T14:58:45Z</time>
      </trkpt>
      <trkpt lat="44.4096" lon="5.84009">
        <ele>921</ele>
        <time>2019-06-12T14:58:46Z</time>
      </trkpt>
      <trkpt lat="44.40958" lon="5.84011">
        <ele>922</ele>
        <time>2019-06-12T14:58:47Z</time>
      </trkpt>
      <trkpt lat="44.40957" lon="5.84013">
        <ele>922</ele>
        <time>2019-06-12T14:58:48Z</time>
      </trkpt>
      <trkpt lat="44.40955" lon="5.84016">
        <ele>922</ele>
        <time>2019-06-12T14:58:49Z</time>
      </trkpt>
      <trkpt lat="44.40953" lon="5.84017">
        <ele>923</ele>
        <time>2019-06-12T14:58:50Z</time>
      </trkpt>
      <trkpt lat="44.40951" lon="5.84019">
        <ele>924</ele>
        <time>2019-06-12T14:58:51Z</time>
      </trkpt>
      <trkpt lat="44.4095" lon="5.8402">
        <ele>924</ele>
        <time>2019-06-12T14:58:52Z</time>
      </trkpt>
      <trkpt lat="44.40948" lon="5.84022">
        <ele>925</ele>
        <time>2019-06-12T14:58:53Z</time>
      </trkpt>
      <trkpt lat="44.40947" lon="5.84023">
        <ele>926</ele>
        <time>2019-06-12T14:58:54Z</time>
      </trkpt>
      <trkpt lat="44.40946" lon="5.84024">
        <ele>926</ele>
        <time>2019-06-12T14:58:55Z</time>
      </trkpt>
      <trkpt lat="44.40944" lon="5.84025">
        <ele>927</ele>
        <time>2019-06-12T14:58:56Z</time>
      </trkpt>
      <trkpt lat="44.40943" lon="5.84026">
        <ele>927</ele>
        <time>2019-06-12T14:58:57Z</time>
      </trkpt>
      <trkpt lat="44.40942" lon="5.84026">
        <ele>927</ele>
        <time>2019-06-12T14:58:58Z</time>
      </trkpt>
      <trkpt lat="44.4094" lon="5.84027">
        <ele>927</ele>
        <time>2019-06-12T14:58:59Z</time>
      </trkpt>
      <trkpt lat="44.40939" lon="5.84027">
        <ele>928</ele>
        <time>2019-06-12T14:59:00Z</time>
      </trkpt>
      <trkpt lat="44.40938" lon="5.84028">
        <ele>928</ele>
        <time>2019-06-12T14:59:02Z</time>
      </trkpt>
      <trkpt lat="44.40937" lon="5.84029">
        <ele>928</ele>
        <time>2019-06-12T14:59:06Z</time>
      </trkpt>
      <trkpt lat="44.40937" lon="5.84027">
        <ele>934</ele>
        <time>2019-06-12T15:00:04Z</time>
      </trkpt>
      <trkpt lat="44.40937" lon="5.84026">
        <ele>934</ele>
        <time>2019-06-12T15:00:08Z</time>
      </trkpt>
      <trkpt lat="44.40936" lon="5.84026">
        <ele>934</ele>
        <time>2019-06-12T15:00:27Z</time>
      </trkpt>
      <trkpt lat="44.40935" lon="5.84025">
        <ele>934</ele>
        <time>2019-06-12T15:00:47Z</time>
      </trkpt>
      <trkpt lat="44.40936" lon="5.84026">
        <ele>934</ele>
        <time>2019-06-12T15:01:02Z</time>
      </trkpt>
      <trkpt lat="44.40937" lon="5.84027">
        <ele>934</ele>
        <time>2019-06-12T15:01:09Z</time>
      </trkpt>
      <trkpt lat="44.40938" lon="5.84027">
        <ele>934</ele>
        <time>2019-06-12T15:01:24Z</time>
      </trkpt>
      <trkpt lat="44.40939" lon="5.84026">
        <ele>934</ele>
        <time>2019-06-12T15:01:30Z</time>
      </trkpt>
      <trkpt lat="44.40937" lon="5.84028">
        <ele>934</ele>
        <time>2019-06-12T15:01:44Z</time>
      </trkpt>
      <trkpt lat="44.40936" lon="5.84029">
        <ele>934</ele>
        <time>2019-06-12T15:01:48Z</time>
      </trkpt>
      <trkpt lat="44.40937" lon="5.84028">
        <ele>938</ele>
        <time>2019-06-12T15:02:07Z</time>
      </trkpt>
      <trkpt lat="44.40938" lon="5.84027">
        <ele>940</ele>
        <time>2019-06-12T15:02:16Z</time>
      </trkpt>
      <trkpt lat="44.40938" lon="5.84025">
        <ele>940</ele>
        <time>2019-06-12T15:02:20Z</time>
      </trkpt>
      <trkpt lat="44.40938" lon="5.84027">
        <ele>940</ele>
        <time>2019-06-12T15:02:31Z</time>
      </trkpt>
      <trkpt lat="44.40937" lon="5.84028">
        <ele>940</ele>
        <time>2019-06-12T15:02:39Z</time>
      </trkpt>
      <trkpt lat="44.40936" lon="5.8403">
        <ele>937</ele>
        <time>2019-06-12T15:02:52Z</time>
      </trkpt>
      <trkpt lat="44.40936" lon="5.84031">
        <ele>934</ele>
        <time>2019-06-12T15:03:56Z</time>
      </trkpt>
      <trkpt lat="44.40934" lon="5.8403">
        <ele>934</ele>
        <time>2019-06-12T15:04:09Z</time>
      </trkpt>
      <trkpt lat="44.40932" lon="5.84029">
        <ele>934</ele>
        <time>2019-06-12T15:04:11Z</time>
      </trkpt>
      <trkpt lat="44.40931" lon="5.84029">
        <ele>934</ele>
        <time>2019-06-12T15:04:12Z</time>
      </trkpt>
      <trkpt lat="44.40929" lon="5.84028">
        <ele>934</ele>
        <time>2019-06-12T15:04:14Z</time>
      </trkpt>
      <trkpt lat="44.40928" lon="5.84028">
        <ele>934</ele>
        <time>2019-06-12T15:04:15Z</time>
      </trkpt>
      <trkpt lat="44.40926" lon="5.84029">
        <ele>934</ele>
        <time>2019-06-12T15:04:16Z</time>
      </trkpt>
      <trkpt lat="44.40925" lon="5.84029">
        <ele>934</ele>
        <time>2019-06-12T15:04:17Z</time>
      </trkpt>
      <trkpt lat="44.40923" lon="5.84029">
        <ele>934</ele>
        <time>2019-06-12T15:04:18Z</time>
      </trkpt>
      <trkpt lat="44.40921" lon="5.84029">
        <ele>934</ele>
        <time>2019-06-12T15:04:19Z</time>
      </trkpt>
      <trkpt lat="44.40918" lon="5.8403">
        <ele>934</ele>
        <time>2019-06-12T15:04:20Z</time>
      </trkpt>
      <trkpt lat="44.40916" lon="5.8403">
        <ele>934</ele>
        <time>2019-06-12T15:04:21Z</time>
      </trkpt>
      <trkpt lat="44.40913" lon="5.84031">
        <ele>934</ele>
        <time>2019-06-12T15:04:22Z</time>
      </trkpt>
      <trkpt lat="44.4091" lon="5.84032">
        <ele>934</ele>
        <time>2019-06-12T15:04:23Z</time>
      </trkpt>
      <trkpt lat="44.40907" lon="5.84032">
        <ele>934</ele>
        <time>2019-06-12T15:04:24Z</time>
      </trkpt>
      <trkpt lat="44.40903" lon="5.84033">
        <ele>934</ele>
        <time>2019-06-12T15:04:25Z</time>
      </trkpt>
      <trkpt lat="44.40899" lon="5.84034">
        <ele>934</ele>
        <time>2019-06-12T15:04:26Z</time>
      </trkpt>
      <trkpt lat="44.40895" lon="5.84035">
        <ele>934</ele>
        <time>2019-06-12T15:04:27Z</time>
      </trkpt>
      <trkpt lat="44.40891" lon="5.84036">
        <ele>934</ele>
        <time>2019-06-12T15:04:28Z</time>
      </trkpt>
      <trkpt lat="44.40887" lon="5.84037">
        <ele>934</ele>
        <time>2019-06-12T15:04:29Z</time>
      </trkpt>
      <trkpt lat="44.40882" lon="5.84038">
        <ele>934</ele>
        <time>2019-06-12T15:04:30Z</time>
      </trkpt>
      <trkpt lat="44.40878" lon="5.84039">
        <ele>934</ele>
        <time>2019-06-12T15:04:31Z</time>
      </trkpt>
      <trkpt lat="44.40874" lon="5.8404">
        <ele>934</ele>
        <time>2019-06-12T15:04:32Z</time>
      </trkpt>
      <trkpt lat="44.4087" lon="5.84041">
        <ele>934</ele>
        <time>2019-06-12T15:04:33Z</time>
      </trkpt>
      <trkpt lat="44.40865" lon="5.84042">
        <ele>934</ele>
        <time>2019-06-12T15:04:34Z</time>
      </trkpt>
      <trkpt lat="44.40861" lon="5.84043">
        <ele>934</ele>
        <time>2019-06-12T15:04:35Z</time>
      </trkpt>
      <trkpt lat="44.40857" lon="5.84044">
        <ele>934</ele>
        <time>2019-06-12T15:04:36Z</time>
      </trkpt>
      <trkpt lat="44.40852" lon="5.84046">
        <ele>934</ele>
        <time>2019-06-12T15:04:37Z</time>
      </trkpt>
      <trkpt lat="44.40848" lon="5.84047">
        <ele>933</ele>
        <time>2019-06-12T15:04:38Z</time>
      </trkpt>
      <trkpt lat="44.40843" lon="5.84048">
        <ele>933</ele>
        <time>2019-06-12T15:04:39Z</time>
      </trkpt>
      <trkpt lat="44.40839" lon="5.84049">
        <ele>933</ele>
        <time>2019-06-12T15:04:40Z</time>
      </trkpt>
      <trkpt lat="44.40834" lon="5.8405">
        <ele>933</ele>
        <time>2019-06-12T15:04:41Z</time>
      </trkpt>
      <trkpt lat="44.40829" lon="5.84051">
        <ele>933</ele>
        <time>2019-06-12T15:04:42Z</time>
      </trkpt>
      <trkpt lat="44.40824" lon="5.84052">
        <ele>932</ele>
        <time>2019-06-12T15:04:43Z</time>
      </trkpt>
      <trkpt lat="44.40819" lon="5.84053">
        <ele>932</ele>
        <time>2019-06-12T15:04:44Z</time>
      </trkpt>
      <trkpt lat="44.40814" lon="5.84053">
        <ele>932</ele>
        <time>2019-06-12T15:04:45Z</time>
      </trkpt>
      <trkpt lat="44.40809" lon="5.84055">
        <ele>932</ele>
        <time>2019-06-12T15:04:46Z</time>
      </trkpt>
      <trkpt lat="44.40804" lon="5.84056">
        <ele>932</ele>
        <time>2019-06-12T15:04:47Z</time>
      </trkpt>
      <trkpt lat="44.40799" lon="5.84057">
        <ele>932</ele>
        <time>2019-06-12T15:04:48Z</time>
      </trkpt>
      <trkpt lat="44.40793" lon="5.84059">
        <ele>932</ele>
        <time>2019-06-12T15:04:49Z</time>
      </trkpt>
      <trkpt lat="44.40788" lon="5.8406">
        <ele>932</ele>
        <time>2019-06-12T15:04:50Z</time>
      </trkpt>
      <trkpt lat="44.40783" lon="5.84061">
        <ele>932</ele>
        <time>2019-06-12T15:04:51Z</time>
      </trkpt>
      <trkpt lat="44.40778" lon="5.84062">
        <ele>932</ele>
        <time>2019-06-12T15:04:52Z</time>
      </trkpt>
      <trkpt lat="44.40773" lon="5.84063">
        <ele>931</ele>
        <time>2019-06-12T15:04:53Z</time>
      </trkpt>
      <trkpt lat="44.40767" lon="5.84063">
        <ele>931</ele>
        <time>2019-06-12T15:04:54Z</time>
      </trkpt>
      <trkpt lat="44.40762" lon="5.84065">
        <ele>931</ele>
        <time>2019-06-12T15:04:55Z</time>
      </trkpt>
      <trkpt lat="44.40757" lon="5.84066">
        <ele>931</ele>
        <time>2019-06-12T15:04:56Z</time>
      </trkpt>
      <trkpt lat="44.40752" lon="5.84067">
        <ele>931</ele>
        <time>2019-06-12T15:04:57Z</time>
      </trkpt>
      <trkpt lat="44.40747" lon="5.84068">
        <ele>931</ele>
        <time>2019-06-12T15:04:58Z</time>
      </trkpt>
      <trkpt lat="44.40743" lon="5.84069">
        <ele>931</ele>
        <time>2019-06-12T15:04:59Z</time>
      </trkpt>
      <trkpt lat="44.40738" lon="5.8407">
        <ele>931</ele>
        <time>2019-06-12T15:05:00Z</time>
      </trkpt>
      <trkpt lat="44.40734" lon="5.84071">
        <ele>931</ele>
        <time>2019-06-12T15:05:01Z</time>
      </trkpt>
      <trkpt lat="44.4073" lon="5.84073">
        <ele>931</ele>
        <time>2019-06-12T15:05:02Z</time>
      </trkpt>
      <trkpt lat="44.40726" lon="5.84074">
        <ele>931</ele>
        <time>2019-06-12T15:05:03Z</time>
      </trkpt>
      <trkpt lat="44.40722" lon="5.84076">
        <ele>931</ele>
        <time>2019-06-12T15:05:04Z</time>
      </trkpt>
      <trkpt lat="44.40718" lon="5.84078">
        <ele>931</ele>
        <time>2019-06-12T15:05:05Z</time>
      </trkpt>
      <trkpt lat="44.40715" lon="5.8408">
        <ele>931</ele>
        <time>2019-06-12T15:05:06Z</time>
      </trkpt>
      <trkpt lat="44.40711" lon="5.84082">
        <ele>931</ele>
        <time>2019-06-12T15:05:07Z</time>
      </trkpt>
      <trkpt lat="44.40708" lon="5.84084">
        <ele>931</ele>
        <time>2019-06-12T15:05:08Z</time>
      </trkpt>
      <trkpt lat="44.40704" lon="5.84086">
        <ele>931</ele>
        <time>2019-06-12T15:05:09Z</time>
      </trkpt>
      <trkpt lat="44.40702" lon="5.84089">
        <ele>931</ele>
        <time>2019-06-12T15:05:10Z</time>
      </trkpt>
      <trkpt lat="44.40699" lon="5.84093">
        <ele>931</ele>
        <time>2019-06-12T15:05:11Z</time>
      </trkpt>
      <trkpt lat="44.40696" lon="5.84096">
        <ele>931</ele>
        <time>2019-06-12T15:05:12Z</time>
      </trkpt>
      <trkpt lat="44.40693" lon="5.84099">
        <ele>931</ele>
        <time>2019-06-12T15:05:13Z</time>
      </trkpt>
      <trkpt lat="44.4069" lon="5.84103">
        <ele>931</ele>
        <time>2019-06-12T15:05:14Z</time>
      </trkpt>
      <trkpt lat="44.40686" lon="5.84107">
        <ele>931</ele>
        <time>2019-06-12T15:05:15Z</time>
      </trkpt>
      <trkpt lat="44.40683" lon="5.84111">
        <ele>931</ele>
        <time>2019-06-12T15:05:16Z</time>
      </trkpt>
      <trkpt lat="44.4068" lon="5.84115">
        <ele>931</ele>
        <time>2019-06-12T15:05:17Z</time>
      </trkpt>
      <trkpt lat="44.40676" lon="5.8412">
        <ele>931</ele>
        <time>2019-06-12T15:05:18Z</time>
      </trkpt>
      <trkpt lat="44.40673" lon="5.84125">
        <ele>931</ele>
        <time>2019-06-12T15:05:19Z</time>
      </trkpt>
      <trkpt lat="44.4067" lon="5.84129">
        <ele>931</ele>
        <time>2019-06-12T15:05:20Z</time>
      </trkpt>
      <trkpt lat="44.40667" lon="5.84134">
        <ele>931</ele>
        <time>2019-06-12T15:05:21Z</time>
      </trkpt>
      <trkpt lat="44.40663" lon="5.84139">
        <ele>931</ele>
        <time>2019-06-12T15:05:22Z</time>
      </trkpt>
      <trkpt lat="44.4066" lon="5.84144">
        <ele>931</ele>
        <time>2019-06-12T15:05:23Z</time>
      </trkpt>
      <trkpt lat="44.40657" lon="5.84148">
        <ele>931</ele>
        <time>2019-06-12T15:05:24Z</time>
      </trkpt>
      <trkpt lat="44.40654" lon="5.84153">
        <ele>931</ele>
        <time>2019-06-12T15:05:25Z</time>
      </trkpt>
      <trkpt lat="44.4065" lon="5.84157">
        <ele>931</ele>
        <time>2019-06-12T15:05:26Z</time>
      </trkpt>
      <trkpt lat="44.40647" lon="5.84162">
        <ele>931</ele>
        <time>2019-06-12T15:05:27Z</time>
      </trkpt>
      <trkpt lat="44.40644" lon="5.84166">
        <ele>931</ele>
        <time>2019-06-12T15:05:28Z</time>
      </trkpt>
      <trkpt lat="44.40641" lon="5.8417">
        <ele>931</ele>
        <time>2019-06-12T15:05:29Z</time>
      </trkpt>
      <trkpt lat="44.40638" lon="5.84174">
        <ele>931</ele>
        <time>2019-06-12T15:05:30Z</time>
      </trkpt>
      <trkpt lat="44.40636" lon="5.84178">
        <ele>931</ele>
        <time>2019-06-12T15:05:31Z</time>
      </trkpt>
      <trkpt lat="44.40633" lon="5.84182">
        <ele>931</ele>
        <time>2019-06-12T15:05:32Z</time>
      </trkpt>
      <trkpt lat="44.4063" lon="5.84185">
        <ele>931</ele>
        <time>2019-06-12T15:05:33Z</time>
      </trkpt>
      <trkpt lat="44.40628" lon="5.84189">
        <ele>931</ele>
        <time>2019-06-12T15:05:34Z</time>
      </trkpt>
      <trkpt lat="44.40625" lon="5.84192">
        <ele>931</ele>
        <time>2019-06-12T15:05:35Z</time>
      </trkpt>
      <trkpt lat="44.40622" lon="5.84196">
        <ele>931</ele>
        <time>2019-06-12T15:05:36Z</time>
      </trkpt>
      <trkpt lat="44.4062" lon="5.84199">
        <ele>931</ele>
        <time>2019-06-12T15:05:37Z</time>
      </trkpt>
      <trkpt lat="44.40617" lon="5.84203">
        <ele>931</ele>
        <time>2019-06-12T15:05:38Z</time>
      </trkpt>
      <trkpt lat="44.40615" lon="5.84206">
        <ele>931</ele>
        <time>2019-06-12T15:05:39Z</time>
      </trkpt>
      <trkpt lat="44.40612" lon="5.84209">
        <ele>932</ele>
        <time>2019-06-12T15:05:40Z</time>
      </trkpt>
      <trkpt lat="44.40609" lon="5.84212">
        <ele>932</ele>
        <time>2019-06-12T15:05:41Z</time>
      </trkpt>
      <trkpt lat="44.40606" lon="5.84214">
        <ele>932</ele>
        <time>2019-06-12T15:05:42Z</time>
      </trkpt>
      <trkpt lat="44.40603" lon="5.84217">
        <ele>933</ele>
        <time>2019-06-12T15:05:43Z</time>
      </trkpt>
      <trkpt lat="44.406" lon="5.84219">
        <ele>933</ele>
        <time>2019-06-12T15:05:44Z</time>
      </trkpt>
      <trkpt lat="44.40597" lon="5.84221">
        <ele>933</ele>
        <time>2019-06-12T15:05:45Z</time>
      </trkpt>
      <trkpt lat="44.40593" lon="5.84223">
        <ele>933</ele>
        <time>2019-06-12T15:05:46Z</time>
      </trkpt>
      <trkpt lat="44.4059" lon="5.84225">
        <ele>933</ele>
        <time>2019-06-12T15:05:47Z</time>
      </trkpt>
      <trkpt lat="44.40586" lon="5.84226">
        <ele>933</ele>
        <time>2019-06-12T15:05:48Z</time>
      </trkpt>
      <trkpt lat="44.40582" lon="5.84226">
        <ele>933</ele>
        <time>2019-06-12T15:05:49Z</time>
      </trkpt>
      <trkpt lat="44.40578" lon="5.84226">
        <ele>933</ele>
        <time>2019-06-12T15:05:50Z</time>
      </trkpt>
      <trkpt lat="44.40575" lon="5.84226">
        <ele>933</ele>
        <time>2019-06-12T15:05:51Z</time>
      </trkpt>
      <trkpt lat="44.40571" lon="5.84225">
        <ele>933</ele>
        <time>2019-06-12T15:05:52Z</time>
      </trkpt>
      <trkpt lat="44.40568" lon="5.84225">
        <ele>933</ele>
        <time>2019-06-12T15:05:53Z</time>
      </trkpt>
      <trkpt lat="44.40564" lon="5.84224">
        <ele>933</ele>
        <time>2019-06-12T15:05:54Z</time>
      </trkpt>
      <trkpt lat="44.40561" lon="5.84223">
        <ele>933</ele>
        <time>2019-06-12T15:05:55Z</time>
      </trkpt>
      <trkpt lat="44.40558" lon="5.84222">
        <ele>933</ele>
        <time>2019-06-12T15:05:56Z</time>
      </trkpt>
      <trkpt lat="44.40555" lon="5.84221">
        <ele>933</ele>
        <time>2019-06-12T15:05:57Z</time>
      </trkpt>
      <trkpt lat="44.40552" lon="5.84219">
        <ele>933</ele>
        <time>2019-06-12T15:05:58Z</time>
      </trkpt>
      <trkpt lat="44.40548" lon="5.84217">
        <ele>933</ele>
        <time>2019-06-12T15:05:59Z</time>
      </trkpt>
      <trkpt lat="44.40545" lon="5.84215">
        <ele>933</ele>
        <time>2019-06-12T15:06:00Z</time>
      </trkpt>
      <trkpt lat="44.40541" lon="5.84212">
        <ele>933</ele>
        <time>2019-06-12T15:06:01Z</time>
      </trkpt>
      <trkpt lat="44.40537" lon="5.84209">
        <ele>933</ele>
        <time>2019-06-12T15:06:02Z</time>
      </trkpt>
      <trkpt lat="44.40533" lon="5.84206">
        <ele>934</ele>
        <time>2019-06-12T15:06:03Z</time>
      </trkpt>
      <trkpt lat="44.40529" lon="5.84203">
        <ele>934</ele>
        <time>2019-06-12T15:06:04Z</time>
      </trkpt>
      <trkpt lat="44.40525" lon="5.842">
        <ele>934</ele>
        <time>2019-06-12T15:06:05Z</time>
      </trkpt>
      <trkpt lat="44.40521" lon="5.84196">
        <ele>934</ele>
        <time>2019-06-12T15:06:06Z</time>
      </trkpt>
      <trkpt lat="44.40517" lon="5.84192">
        <ele>934</ele>
        <time>2019-06-12T15:06:07Z</time>
      </trkpt>
      <trkpt lat="44.40513" lon="5.84188">
        <ele>934</ele>
        <time>2019-06-12T15:06:08Z</time>
      </trkpt>
      <trkpt lat="44.40508" lon="5.84184">
        <ele>934</ele>
        <time>2019-06-12T15:06:09Z</time>
      </trkpt>
      <trkpt lat="44.40504" lon="5.84179">
        <ele>934</ele>
        <time>2019-06-12T15:06:10Z</time>
      </trkpt>
      <trkpt lat="44.40499" lon="5.84174">
        <ele>934</ele>
        <time>2019-06-12T15:06:11Z</time>
      </trkpt>
      <trkpt lat="44.40494" lon="5.8417">
        <ele>934</ele>
        <time>2019-06-12T15:06:12Z</time>
      </trkpt>
      <trkpt lat="44.40488" lon="5.84165">
        <ele>934</ele>
        <time>2019-06-12T15:06:13Z</time>
      </trkpt>
      <trkpt lat="44.40483" lon="5.8416">
        <ele>934</ele>
        <time>2019-06-12T15:06:14Z</time>
      </trkpt>
      <trkpt lat="44.40477" lon="5.84155">
        <ele>934</ele>
        <time>2019-06-12T15:06:15Z</time>
      </trkpt>
      <trkpt lat="44.40472" lon="5.84151">
        <ele>934</ele>
        <time>2019-06-12T15:06:16Z</time>
      </trkpt>
      <trkpt lat="44.40466" lon="5.84147">
        <ele>934</ele>
        <time>2019-06-12T15:06:17Z</time>
      </trkpt>
      <trkpt lat="44.40459" lon="5.84144">
        <ele>934</ele>
        <time>2019-06-12T15:06:18Z</time>
      </trkpt>
      <trkpt lat="44.40453" lon="5.84141">
        <ele>934</ele>
        <time>2019-06-12T15:06:19Z</time>
      </trkpt>
      <trkpt lat="44.40446" lon="5.84138">
        <ele>934</ele>
        <time>2019-06-12T15:06:20Z</time>
      </trkpt>
      <trkpt lat="44.4044" lon="5.84135">
        <ele>934</ele>
        <time>2019-06-12T15:06:21Z</time>
      </trkpt>
      <trkpt lat="44.40433" lon="5.84132">
        <ele>934</ele>
        <time>2019-06-12T15:06:22Z</time>
      </trkpt>
      <trkpt lat="44.40426" lon="5.8413">
        <ele>934</ele>
        <time>2019-06-12T15:06:23Z</time>
      </trkpt>
      <trkpt lat="44.40419" lon="5.84128">
        <ele>934</ele>
        <time>2019-06-12T15:06:24Z</time>
      </trkpt>
      <trkpt lat="44.40412" lon="5.84125">
        <ele>934</ele>
        <time>2019-06-12T15:06:25Z</time>
      </trkpt>
      <trkpt lat="44.40405" lon="5.84122">
        <ele>934</ele>
        <time>2019-06-12T15:06:26Z</time>
      </trkpt>
      <trkpt lat="44.40397" lon="5.84119">
        <ele>934</ele>
        <time>2019-06-12T15:06:27Z</time>
      </trkpt>
      <trkpt lat="44.4039" lon="5.84116">
        <ele>934</ele>
        <time>2019-06-12T15:06:28Z</time>
      </trkpt>
      <trkpt lat="44.40382" lon="5.84112">
        <ele>934</ele>
        <time>2019-06-12T15:06:29Z</time>
      </trkpt>
      <trkpt lat="44.40374" lon="5.84109">
        <ele>934</ele>
        <time>2019-06-12T15:06:30Z</time>
      </trkpt>
      <trkpt lat="44.40365" lon="5.84108">
        <ele>934</ele>
        <time>2019-06-12T15:06:31Z</time>
      </trkpt>
      <trkpt lat="44.40357" lon="5.84108">
        <ele>934</ele>
        <time>2019-06-12T15:06:32Z</time>
      </trkpt>
      <trkpt lat="44.40349" lon="5.8411">
        <ele>934</ele>
        <time>2019-06-12T15:06:33Z</time>
      </trkpt>
      <trkpt lat="44.40341" lon="5.84113">
        <ele>933</ele>
        <time>2019-06-12T15:06:34Z</time>
      </trkpt>
      <trkpt lat="44.40332" lon="5.84116">
        <ele>933</ele>
        <time>2019-06-12T15:06:35Z</time>
      </trkpt>
      <trkpt lat="44.40324" lon="5.84118">
        <ele>933</ele>
        <time>2019-06-12T15:06:36Z</time>
      </trkpt>
      <trkpt lat="44.40316" lon="5.84121">
        <ele>932</ele>
        <time>2019-06-12T15:06:37Z</time>
      </trkpt>
      <trkpt lat="44.40308" lon="5.84124">
        <ele>932</ele>
        <time>2019-06-12T15:06:38Z</time>
      </trkpt>
      <trkpt lat="44.403" lon="5.84128">
        <ele>932</ele>
        <time>2019-06-12T15:06:39Z</time>
      </trkpt>
      <trkpt lat="44.40293" lon="5.84134">
        <ele>932</ele>
        <time>2019-06-12T15:06:40Z</time>
      </trkpt>
      <trkpt lat="44.40287" lon="5.84142">
        <ele>931</ele>
        <time>2019-06-12T15:06:41Z</time>
      </trkpt>
      <trkpt lat="44.40284" lon="5.84152">
        <ele>931</ele>
        <time>2019-06-12T15:06:42Z</time>
      </trkpt>
      <trkpt lat="44.40282" lon="5.84162">
        <ele>931</ele>
        <time>2019-06-12T15:06:43Z</time>
      </trkpt>
      <trkpt lat="44.4028" lon="5.84173">
        <ele>930</ele>
        <time>2019-06-12T15:06:44Z</time>
      </trkpt>
      <trkpt lat="44.40279" lon="5.84184">
        <ele>930</ele>
        <time>2019-06-12T15:06:45Z</time>
      </trkpt>
      <trkpt lat="44.40279" lon="5.84194">
        <ele>929</ele>
        <time>2019-06-12T15:06:46Z</time>
      </trkpt>
      <trkpt lat="44.40279" lon="5.84205">
        <ele>929</ele>
        <time>2019-06-12T15:06:47Z</time>
      </trkpt>
      <trkpt lat="44.40279" lon="5.84215">
        <ele>929</ele>
        <time>2019-06-12T15:06:48Z</time>
      </trkpt>
      <trkpt lat="44.40279" lon="5.84225">
        <ele>928</ele>
        <time>2019-06-12T15:06:49Z</time>
      </trkpt>
      <trkpt lat="44.40279" lon="5.84236">
        <ele>928</ele>
        <time>2019-06-12T15:06:50Z</time>
      </trkpt>
      <trkpt lat="44.40278" lon="5.84246">
        <ele>928</ele>
        <time>2019-06-12T15:06:51Z</time>
      </trkpt>
      <trkpt lat="44.40278" lon="5.84257">
        <ele>928</ele>
        <time>2019-06-12T15:06:52Z</time>
      </trkpt>
      <trkpt lat="44.40278" lon="5.84268">
        <ele>928</ele>
        <time>2019-06-12T15:06:53Z</time>
      </trkpt>
      <trkpt lat="44.40277" lon="5.84279">
        <ele>927</ele>
        <time>2019-06-12T15:06:54Z</time>
      </trkpt>
      <trkpt lat="44.40277" lon="5.8429">
        <ele>927</ele>
        <time>2019-06-12T15:06:55Z</time>
      </trkpt>
      <trkpt lat="44.40276" lon="5.84301">
        <ele>927</ele>
        <time>2019-06-12T15:06:56Z</time>
      </trkpt>
      <trkpt lat="44.40276" lon="5.84312">
        <ele>927</ele>
        <time>2019-06-12T15:06:57Z</time>
      </trkpt>
      <trkpt lat="44.40275" lon="5.84324">
        <ele>927</ele>
        <time>2019-06-12T15:06:58Z</time>
      </trkpt>
      <trkpt lat="44.40273" lon="5.84334">
        <ele>926</ele>
        <time>2019-06-12T15:06:59Z</time>
      </trkpt>
      <trkpt lat="44.4027" lon="5.84345">
        <ele>926</ele>
        <time>2019-06-12T15:07:00Z</time>
      </trkpt>
      <trkpt lat="44.40267" lon="5.84355">
        <ele>926</ele>
        <time>2019-06-12T15:07:01Z</time>
      </trkpt>
      <trkpt lat="44.40263" lon="5.84366">
        <ele>926</ele>
        <time>2019-06-12T15:07:02Z</time>
      </trkpt>
      <trkpt lat="44.40258" lon="5.84376">
        <ele>925</ele>
        <time>2019-06-12T15:07:03Z</time>
      </trkpt>
      <trkpt lat="44.40253" lon="5.84386">
        <ele>925</ele>
        <time>2019-06-12T15:07:04Z</time>
      </trkpt>
      <trkpt lat="44.40248" lon="5.84396">
        <ele>925</ele>
        <time>2019-06-12T15:07:05Z</time>
      </trkpt>
      <trkpt lat="44.40244" lon="5.84406">
        <ele>924</ele>
        <time>2019-06-12T15:07:06Z</time>
      </trkpt>
      <trkpt lat="44.40239" lon="5.84416">
        <ele>924</ele>
        <time>2019-06-12T15:07:07Z</time>
      </trkpt>
      <trkpt lat="44.40233" lon="5.84425">
        <ele>924</ele>
        <time>2019-06-12T15:07:08Z</time>
      </trkpt>
      <trkpt lat="44.40228" lon="5.84436">
        <ele>924</ele>
        <time>2019-06-12T15:07:09Z</time>
      </trkpt>
      <trkpt lat="44.40223" lon="5.84446">
        <ele>923</ele>
        <time>2019-06-12T15:07:10Z</time>
      </trkpt>
      <trkpt lat="44.40218" lon="5.84457">
        <ele>923</ele>
        <time>2019-06-12T15:07:11Z</time>
      </trkpt>
      <trkpt lat="44.40214" lon="5.84468">
        <ele>923</ele>
        <time>2019-06-12T15:07:12Z</time>
      </trkpt>
      <trkpt lat="44.4021" lon="5.84479">
        <ele>922</ele>
        <time>2019-06-12T15:07:13Z</time>
      </trkpt>
      <trkpt lat="44.40205" lon="5.8449">
        <ele>922</ele>
        <time>2019-06-12T15:07:14Z</time>
      </trkpt>
      <trkpt lat="44.40202" lon="5.84501">
        <ele>922</ele>
        <time>2019-06-12T15:07:15Z</time>
      </trkpt>
      <trkpt lat="44.40198" lon="5.84512">
        <ele>922</ele>
        <time>2019-06-12T15:07:16Z</time>
      </trkpt>
      <trkpt lat="44.40195" lon="5.84523">
        <ele>922</ele>
        <time>2019-06-12T15:07:17Z</time>
      </trkpt>
      <trkpt lat="44.40192" lon="5.84534">
        <ele>922</ele>
        <time>2019-06-12T15:07:18Z</time>
      </trkpt>
      <trkpt lat="44.40189" lon="5.84544">
        <ele>922</ele>
        <time>2019-06-12T15:07:19Z</time>
      </trkpt>
      <trkpt lat="44.40186" lon="5.84555">
        <ele>922</ele>
        <time>2019-06-12T15:07:20Z</time>
      </trkpt>
      <trkpt lat="44.40183" lon="5.84566">
        <ele>922</ele>
        <time>2019-06-12T15:07:21Z</time>
      </trkpt>
      <trkpt lat="44.4018" lon="5.84577">
        <ele>921</ele>
        <time>2019-06-12T15:07:22Z</time>
      </trkpt>
      <trkpt lat="44.40178" lon="5.84587">
        <ele>921</ele>
        <time>2019-06-12T15:07:23Z</time>
      </trkpt>
      <trkpt lat="44.40175" lon="5.84598">
        <ele>921</ele>
        <time>2019-06-12T15:07:24Z</time>
      </trkpt>
      <trkpt lat="44.40171" lon="5.84607">
        <ele>921</ele>
        <time>2019-06-12T15:07:25Z</time>
      </trkpt>
      <trkpt lat="44.40165" lon="5.84616">
        <ele>920</ele>
        <time>2019-06-12T15:07:26Z</time>
      </trkpt>
      <trkpt lat="44.40158" lon="5.84624">
        <ele>920</ele>
        <time>2019-06-12T15:07:27Z</time>
      </trkpt>
      <trkpt lat="44.40152" lon="5.84631">
        <ele>920</ele>
        <time>2019-06-12T15:07:28Z</time>
      </trkpt>
      <trkpt lat="44.40144" lon="5.84637">
        <ele>919</ele>
        <time>2019-06-12T15:07:29Z</time>
      </trkpt>
      <trkpt lat="44.40136" lon="5.84641">
        <ele>919</ele>
        <time>2019-06-12T15:07:30Z</time>
      </trkpt>
      <trkpt lat="44.40127" lon="5.84644">
        <ele>918</ele>
        <time>2019-06-12T15:07:31Z</time>
      </trkpt>
      <trkpt lat="44.40117" lon="5.84646">
        <ele>918</ele>
        <time>2019-06-12T15:07:32Z</time>
      </trkpt>
      <trkpt lat="44.40108" lon="5.84648">
        <ele>917</ele>
        <time>2019-06-12T15:07:33Z</time>
      </trkpt>
      <trkpt lat="44.40099" lon="5.8465">
        <ele>917</ele>
        <time>2019-06-12T15:07:34Z</time>
      </trkpt>
      <trkpt lat="44.4009" lon="5.84653">
        <ele>917</ele>
        <time>2019-06-12T15:07:35Z</time>
      </trkpt>
      <trkpt lat="44.40081" lon="5.84656">
        <ele>917</ele>
        <time>2019-06-12T15:07:36Z</time>
      </trkpt>
      <trkpt lat="44.40073" lon="5.84661">
        <ele>916</ele>
        <time>2019-06-12T15:07:37Z</time>
      </trkpt>
      <trkpt lat="44.40067" lon="5.84667">
        <ele>916</ele>
        <time>2019-06-12T15:07:38Z</time>
      </trkpt>
      <trkpt lat="44.4006" lon="5.84674">
        <ele>916</ele>
        <time>2019-06-12T15:07:39Z</time>
      </trkpt>
      <trkpt lat="44.40054" lon="5.84682">
        <ele>916</ele>
        <time>2019-06-12T15:07:40Z</time>
      </trkpt>
      <trkpt lat="44.4005" lon="5.84691">
        <ele>916</ele>
        <time>2019-06-12T15:07:41Z</time>
      </trkpt>
      <trkpt lat="44.40046" lon="5.84698">
        <ele>916</ele>
        <time>2019-06-12T15:07:42Z</time>
      </trkpt>
      <trkpt lat="44.40042" lon="5.84707">
        <ele>916</ele>
        <time>2019-06-12T15:07:43Z</time>
      </trkpt>
      <trkpt lat="44.40038" lon="5.84716">
        <ele>916</ele>
        <time>2019-06-12T15:07:44Z</time>
      </trkpt>
      <trkpt lat="44.40034" lon="5.84724">
        <ele>916</ele>
        <time>2019-06-12T15:07:45Z</time>
      </trkpt>
      <trkpt lat="44.40031" lon="5.84733">
        <ele>916</ele>
        <time>2019-06-12T15:07:46Z</time>
      </trkpt>
      <trkpt lat="44.40029" lon="5.84742">
        <ele>916</ele>
        <time>2019-06-12T15:07:47Z</time>
      </trkpt>
      <trkpt lat="44.40028" lon="5.84751">
        <ele>916</ele>
        <time>2019-06-12T15:07:48Z</time>
      </trkpt>
      <trkpt lat="44.40027" lon="5.84759">
        <ele>916</ele>
        <time>2019-06-12T15:07:49Z</time>
      </trkpt>
      <trkpt lat="44.40026" lon="5.84766">
        <ele>916</ele>
        <time>2019-06-12T15:07:50Z</time>
      </trkpt>
      <trkpt lat="44.40027" lon="5.84774">
        <ele>916</ele>
        <time>2019-06-12T15:07:51Z</time>
      </trkpt>
      <trkpt lat="44.40028" lon="5.84782">
        <ele>916</ele>
        <time>2019-06-12T15:07:52Z</time>
      </trkpt>
      <trkpt lat="44.40029" lon="5.8479">
        <ele>916</ele>
        <time>2019-06-12T15:07:53Z</time>
      </trkpt>
      <trkpt lat="44.40031" lon="5.84798">
        <ele>916</ele>
        <time>2019-06-12T15:07:54Z</time>
      </trkpt>
      <trkpt lat="44.40033" lon="5.84805">
        <ele>916</ele>
        <time>2019-06-12T15:07:55Z</time>
      </trkpt>
      <trkpt lat="44.40035" lon="5.84812">
        <ele>916</ele>
        <time>2019-06-12T15:07:56Z</time>
      </trkpt>
      <trkpt lat="44.40037" lon="5.84819">
        <ele>916</ele>
        <time>2019-06-12T15:07:57Z</time>
      </trkpt>
      <trkpt lat="44.40039" lon="5.84826">
        <ele>916</ele>
        <time>2019-06-12T15:07:58Z</time>
      </trkpt>
      <trkpt lat="44.4004" lon="5.84833">
        <ele>916</ele>
        <time>2019-06-12T15:07:59Z</time>
      </trkpt>
      <trkpt lat="44.40041" lon="5.8484">
        <ele>916</ele>
        <time>2019-06-12T15:08:00Z</time>
      </trkpt>
      <trkpt lat="44.40043" lon="5.84846">
        <ele>916</ele>
        <time>2019-06-12T15:08:01Z</time>
      </trkpt>
      <trkpt lat="44.40043" lon="5.84853">
        <ele>916</ele>
        <time>2019-06-12T15:08:02Z</time>
      </trkpt>
      <trkpt lat="44.40044" lon="5.84859">
        <ele>916</ele>
        <time>2019-06-12T15:08:03Z</time>
      </trkpt>
      <trkpt lat="44.40043" lon="5.84865">
        <ele>916</ele>
        <time>2019-06-12T15:08:04Z</time>
      </trkpt>
      <trkpt lat="44.40043" lon="5.84871">
        <ele>916</ele>
        <time>2019-06-12T15:08:05Z</time>
      </trkpt>
      <trkpt lat="44.40042" lon="5.84878">
        <ele>916</ele>
        <time>2019-06-12T15:08:06Z</time>
      </trkpt>
      <trkpt lat="44.40041" lon="5.84884">
        <ele>916</ele>
        <time>2019-06-12T15:08:07Z</time>
      </trkpt>
      <trkpt lat="44.4004" lon="5.8489">
        <ele>916</ele>
        <time>2019-06-12T15:08:08Z</time>
      </trkpt>
      <trkpt lat="44.40039" lon="5.84896">
        <ele>916</ele>
        <time>2019-06-12T15:08:09Z</time>
      </trkpt>
      <trkpt lat="44.40037" lon="5.84902">
        <ele>916</ele>
        <time>2019-06-12T15:08:10Z</time>
      </trkpt>
      <trkpt lat="44.40036" lon="5.84908">
        <ele>916</ele>
        <time>2019-06-12T15:08:11Z</time>
      </trkpt>
      <trkpt lat="44.40034" lon="5.84914">
        <ele>916</ele>
        <time>2019-06-12T15:08:12Z</time>
      </trkpt>
      <trkpt lat="44.40033" lon="5.84919">
        <ele>916</ele>
        <time>2019-06-12T15:08:13Z</time>
      </trkpt>
      <trkpt lat="44.40031" lon="5.84925">
        <ele>916</ele>
        <time>2019-06-12T15:08:14Z</time>
      </trkpt>
      <trkpt lat="44.4003" lon="5.8493">
        <ele>916</ele>
        <time>2019-06-12T15:08:15Z</time>
      </trkpt>
      <trkpt lat="44.40028" lon="5.84936">
        <ele>916</ele>
        <time>2019-06-12T15:08:16Z</time>
      </trkpt>
      <trkpt lat="44.40026" lon="5.84942">
        <ele>916</ele>
        <time>2019-06-12T15:08:17Z</time>
      </trkpt>
      <trkpt lat="44.40024" lon="5.84948">
        <ele>916</ele>
        <time>2019-06-12T15:08:18Z</time>
      </trkpt>
      <trkpt lat="44.40021" lon="5.84954">
        <ele>916</ele>
        <time>2019-06-12T15:08:19Z</time>
      </trkpt>
      <trkpt lat="44.40019" lon="5.8496">
        <ele>916</ele>
        <time>2019-06-12T15:08:20Z</time>
      </trkpt>
      <trkpt lat="44.40016" lon="5.84966">
        <ele>916</ele>
        <time>2019-06-12T15:08:21Z</time>
      </trkpt>
      <trkpt lat="44.40012" lon="5.84972">
        <ele>916</ele>
        <time>2019-06-12T15:08:22Z</time>
      </trkpt>
      <trkpt lat="44.40009" lon="5.84978">
        <ele>916</ele>
        <time>2019-06-12T15:08:23Z</time>
      </trkpt>
      <trkpt lat="44.40005" lon="5.84984">
        <ele>916</ele>
        <time>2019-06-12T15:08:24Z</time>
      </trkpt>
      <trkpt lat="44.40001" lon="5.84991">
        <ele>916</ele>
        <time>2019-06-12T15:08:25Z</time>
      </trkpt>
      <trkpt lat="44.39997" lon="5.84997">
        <ele>916</ele>
        <time>2019-06-12T15:08:26Z</time>
      </trkpt>
      <trkpt lat="44.39993" lon="5.85002">
        <ele>916</ele>
        <time>2019-06-12T15:08:27Z</time>
      </trkpt>
      <trkpt lat="44.39988" lon="5.85006">
        <ele>916</ele>
        <time>2019-06-12T15:08:28Z</time>
      </trkpt>
      <trkpt lat="44.39983" lon="5.8501">
        <ele>916</ele>
        <time>2019-06-12T15:08:29Z</time>
      </trkpt>
      <trkpt lat="44.39978" lon="5.85013">
        <ele>916</ele>
        <time>2019-06-12T15:08:30Z</time>
      </trkpt>
      <trkpt lat="44.39973" lon="5.85017">
        <ele>916</ele>
        <time>2019-06-12T15:08:31Z</time>
      </trkpt>
      <trkpt lat="44.39968" lon="5.8502">
        <ele>916</ele>
        <time>2019-06-12T15:08:32Z</time>
      </trkpt>
      <trkpt lat="44.39963" lon="5.85024">
        <ele>916</ele>
        <time>2019-06-12T15:08:33Z</time>
      </trkpt>
      <trkpt lat="44.39957" lon="5.85028">
        <ele>916</ele>
        <time>2019-06-12T15:08:34Z</time>
      </trkpt>
      <trkpt lat="44.39952" lon="5.85032">
        <ele>916</ele>
        <time>2019-06-12T15:08:35Z</time>
      </trkpt>
      <trkpt lat="44.39948" lon="5.85035">
        <ele>916</ele>
        <time>2019-06-12T15:08:36Z</time>
      </trkpt>
      <trkpt lat="44.39943" lon="5.85038">
        <ele>916</ele>
        <time>2019-06-12T15:08:37Z</time>
      </trkpt>
      <trkpt lat="44.39938" lon="5.85041">
        <ele>916</ele>
        <time>2019-06-12T15:08:38Z</time>
      </trkpt>
      <trkpt lat="44.39933" lon="5.85044">
        <ele>916</ele>
        <time>2019-06-12T15:08:39Z</time>
      </trkpt>
      <trkpt lat="44.39929" lon="5.85047">
        <ele>916</ele>
        <time>2019-06-12T15:08:40Z</time>
      </trkpt>
      <trkpt lat="44.39923" lon="5.85049">
        <ele>916</ele>
        <time>2019-06-12T15:08:41Z</time>
      </trkpt>
      <trkpt lat="44.39918" lon="5.85052">
        <ele>916</ele>
        <time>2019-06-12T15:08:42Z</time>
      </trkpt>
      <trkpt lat="44.39913" lon="5.85054">
        <ele>916</ele>
        <time>2019-06-12T15:08:43Z</time>
      </trkpt>
      <trkpt lat="44.39907" lon="5.85055">
        <ele>916</ele>
        <time>2019-06-12T15:08:44Z</time>
      </trkpt>
      <trkpt lat="44.39902" lon="5.85055">
        <ele>916</ele>
        <time>2019-06-12T15:08:45Z</time>
      </trkpt>
      <trkpt lat="44.39896" lon="5.85055">
        <ele>916</ele>
        <time>2019-06-12T15:08:46Z</time>
      </trkpt>
      <trkpt lat="44.3989" lon="5.85055">
        <ele>916</ele>
        <time>2019-06-12T15:08:47Z</time>
      </trkpt>
      <trkpt lat="44.39884" lon="5.85055">
        <ele>916</ele>
        <time>2019-06-12T15:08:48Z</time>
      </trkpt>
      <trkpt lat="44.39877" lon="5.85055">
        <ele>916</ele>
        <time>2019-06-12T15:08:49Z</time>
      </trkpt>
      <trkpt lat="44.39871" lon="5.85055">
        <ele>916</ele>
        <time>2019-06-12T15:08:50Z</time>
      </trkpt>
      <trkpt lat="44.39865" lon="5.85054">
        <ele>916</ele>
        <time>2019-06-12T15:08:51Z</time>
      </trkpt>
      <trkpt lat="44.39858" lon="5.85054">
        <ele>916</ele>
        <time>2019-06-12T15:08:52Z</time>
      </trkpt>
      <trkpt lat="44.39852" lon="5.85055">
        <ele>916</ele>
        <time>2019-06-12T15:08:53Z</time>
      </trkpt>
      <trkpt lat="44.39846" lon="5.85056">
        <ele>916</ele>
        <time>2019-06-12T15:08:54Z</time>
      </trkpt>
      <trkpt lat="44.3984" lon="5.85057">
        <ele>916</ele>
        <time>2019-06-12T15:08:55Z</time>
      </trkpt>
      <trkpt lat="44.39835" lon="5.85059">
        <ele>916</ele>
        <time>2019-06-12T15:08:56Z</time>
      </trkpt>
      <trkpt lat="44.39829" lon="5.85063">
        <ele>916</ele>
        <time>2019-06-12T15:08:57Z</time>
      </trkpt>
      <trkpt lat="44.39824" lon="5.85066">
        <ele>916</ele>
        <time>2019-06-12T15:08:58Z</time>
      </trkpt>
      <trkpt lat="44.39819" lon="5.8507">
        <ele>916</ele>
        <time>2019-06-12T15:08:59Z</time>
      </trkpt>
      <trkpt lat="44.39814" lon="5.85075">
        <ele>916</ele>
        <time>2019-06-12T15:09:00Z</time>
      </trkpt>
      <trkpt lat="44.39809" lon="5.85079">
        <ele>916</ele>
        <time>2019-06-12T15:09:01Z</time>
      </trkpt>
      <trkpt lat="44.39804" lon="5.85083">
        <ele>916</ele>
        <time>2019-06-12T15:09:02Z</time>
      </trkpt>
      <trkpt lat="44.39798" lon="5.85086">
        <ele>916</ele>
        <time>2019-06-12T15:09:03Z</time>
      </trkpt>
      <trkpt lat="44.39793" lon="5.85088">
        <ele>916</ele>
        <time>2019-06-12T15:09:04Z</time>
      </trkpt>
      <trkpt lat="44.39787" lon="5.85091">
        <ele>916</ele>
        <time>2019-06-12T15:09:05Z</time>
      </trkpt>
      <trkpt lat="44.39782" lon="5.85095">
        <ele>916</ele>
        <time>2019-06-12T15:09:06Z</time>
      </trkpt>
      <trkpt lat="44.39778" lon="5.85101">
        <ele>916</ele>
        <time>2019-06-12T15:09:07Z</time>
      </trkpt>
      <trkpt lat="44.39777" lon="5.85108">
        <ele>916</ele>
        <time>2019-06-12T15:09:08Z</time>
      </trkpt>
      <trkpt lat="44.39777" lon="5.85116">
        <ele>916</ele>
        <time>2019-06-12T15:09:09Z</time>
      </trkpt>
      <trkpt lat="44.39777" lon="5.85123">
        <ele>916</ele>
        <time>2019-06-12T15:09:10Z</time>
      </trkpt>
      <trkpt lat="44.39778" lon="5.85129">
        <ele>916</ele>
        <time>2019-06-12T15:09:11Z</time>
      </trkpt>
      <trkpt lat="44.39778" lon="5.85136">
        <ele>916</ele>
        <time>2019-06-12T15:09:12Z</time>
      </trkpt>
      <trkpt lat="44.39779" lon="5.85143">
        <ele>916</ele>
        <time>2019-06-12T15:09:13Z</time>
      </trkpt>
      <trkpt lat="44.3978" lon="5.85149">
        <ele>916</ele>
        <time>2019-06-12T15:09:14Z</time>
      </trkpt>
      <trkpt lat="44.39781" lon="5.85155">
        <ele>916</ele>
        <time>2019-06-12T15:09:15Z</time>
      </trkpt>
      <trkpt lat="44.39783" lon="5.85161">
        <ele>916</ele>
        <time>2019-06-12T15:09:16Z</time>
      </trkpt>
      <trkpt lat="44.39785" lon="5.85167">
        <ele>916</ele>
        <time>2019-06-12T15:09:17Z</time>
      </trkpt>
      <trkpt lat="44.39786" lon="5.85173">
        <ele>916</ele>
        <time>2019-06-12T15:09:18Z</time>
      </trkpt>
      <trkpt lat="44.39788" lon="5.85178">
        <ele>916</ele>
        <time>2019-06-12T15:09:19Z</time>
      </trkpt>
      <trkpt lat="44.3979" lon="5.85184">
        <ele>917</ele>
        <time>2019-06-12T15:09:20Z</time>
      </trkpt>
      <trkpt lat="44.39792" lon="5.85189">
        <ele>917</ele>
        <time>2019-06-12T15:09:21Z</time>
      </trkpt>
      <trkpt lat="44.39794" lon="5.85195">
        <ele>917</ele>
        <time>2019-06-12T15:09:22Z</time>
      </trkpt>
      <trkpt lat="44.39795" lon="5.852">
        <ele>918</ele>
        <time>2019-06-12T15:09:23Z</time>
      </trkpt>
      <trkpt lat="44.39797" lon="5.85206">
        <ele>918</ele>
        <time>2019-06-12T15:09:24Z</time>
      </trkpt>
      <trkpt lat="44.39799" lon="5.85211">
        <ele>918</ele>
        <time>2019-06-12T15:09:25Z</time>
      </trkpt>
      <trkpt lat="44.39801" lon="5.85217">
        <ele>919</ele>
        <time>2019-06-12T15:09:26Z</time>
      </trkpt>
      <trkpt lat="44.39802" lon="5.85222">
        <ele>919</ele>
        <time>2019-06-12T15:09:27Z</time>
      </trkpt>
      <trkpt lat="44.39803" lon="5.85227">
        <ele>919</ele>
        <time>2019-06-12T15:09:28Z</time>
      </trkpt>
      <trkpt lat="44.39804" lon="5.85232">
        <ele>919</ele>
        <time>2019-06-12T15:09:29Z</time>
      </trkpt>
      <trkpt lat="44.39805" lon="5.85238">
        <ele>919</ele>
        <time>2019-06-12T15:09:30Z</time>
      </trkpt>
      <trkpt lat="44.39805" lon="5.85243">
        <ele>919</ele>
        <time>2019-06-12T15:09:31Z</time>
      </trkpt>
      <trkpt lat="44.39806" lon="5.85248">
        <ele>920</ele>
        <time>2019-06-12T15:09:32Z</time>
      </trkpt>
      <trkpt lat="44.39807" lon="5.85254">
        <ele>920</ele>
        <time>2019-06-12T15:09:33Z</time>
      </trkpt>
      <trkpt lat="44.39808" lon="5.85259">
        <ele>920</ele>
        <time>2019-06-12T15:09:34Z</time>
      </trkpt>
      <trkpt lat="44.39808" lon="5.85265">
        <ele>920</ele>
        <time>2019-06-12T15:09:35Z</time>
      </trkpt>
      <trkpt lat="44.39809" lon="5.85271">
        <ele>920</ele>
        <time>2019-06-12T15:09:36Z</time>
      </trkpt>
      <trkpt lat="44.3981" lon="5.85276">
        <ele>920</ele>
        <time>2019-06-12T15:09:37Z</time>
      </trkpt>
      <trkpt lat="44.39811" lon="5.85282">
        <ele>920</ele>
        <time>2019-06-12T15:09:38Z</time>
      </trkpt>
      <trkpt lat="44.39811" lon="5.85288">
        <ele>921</ele>
        <time>2019-06-12T15:09:39Z</time>
      </trkpt>
      <trkpt lat="44.39812" lon="5.85293">
        <ele>921</ele>
        <time>2019-06-12T15:09:40Z</time>
      </trkpt>
      <trkpt lat="44.39812" lon="5.85299">
        <ele>921</ele>
        <time>2019-06-12T15:09:41Z</time>
      </trkpt>
      <trkpt lat="44.39813" lon="5.85304">
        <ele>921</ele>
        <time>2019-06-12T15:09:42Z</time>
      </trkpt>
      <trkpt lat="44.39814" lon="5.8531">
        <ele>922</ele>
        <time>2019-06-12T15:09:43Z</time>
      </trkpt>
      <trkpt lat="44.39815" lon="5.85315">
        <ele>922</ele>
        <time>2019-06-12T15:09:44Z</time>
      </trkpt>
      <trkpt lat="44.39816" lon="5.8532">
        <ele>922</ele>
        <time>2019-06-12T15:09:45Z</time>
      </trkpt>
      <trkpt lat="44.39817" lon="5.85325">
        <ele>923</ele>
        <time>2019-06-12T15:09:46Z</time>
      </trkpt>
      <trkpt lat="44.39818" lon="5.8533">
        <ele>923</ele>
        <time>2019-06-12T15:09:47Z</time>
      </trkpt>
      <trkpt lat="44.39819" lon="5.85335">
        <ele>923</ele>
        <time>2019-06-12T15:09:48Z</time>
      </trkpt>
      <trkpt lat="44.3982" lon="5.85339">
        <ele>923</ele>
        <time>2019-06-12T15:09:49Z</time>
      </trkpt>
      <trkpt lat="44.3982" lon="5.85345">
        <ele>924</ele>
        <time>2019-06-12T15:09:50Z</time>
      </trkpt>
      <trkpt lat="44.39821" lon="5.85349">
        <ele>924</ele>
        <time>2019-06-12T15:09:51Z</time>
      </trkpt>
      <trkpt lat="44.39821" lon="5.85354">
        <ele>924</ele>
        <time>2019-06-12T15:09:52Z</time>
      </trkpt>
      <trkpt lat="44.39821" lon="5.85359">
        <ele>924</ele>
        <time>2019-06-12T15:09:53Z</time>
      </trkpt>
      <trkpt lat="44.39822" lon="5.85364">
        <ele>925</ele>
        <time>2019-06-12T15:09:54Z</time>
      </trkpt>
      <trkpt lat="44.39822" lon="5.85369">
        <ele>925</ele>
        <time>2019-06-12T15:09:55Z</time>
      </trkpt>
      <trkpt lat="44.39822" lon="5.85374">
        <ele>925</ele>
        <time>2019-06-12T15:09:56Z</time>
      </trkpt>
      <trkpt lat="44.39822" lon="5.8538">
        <ele>925</ele>
        <time>2019-06-12T15:09:57Z</time>
      </trkpt>
      <trkpt lat="44.39822" lon="5.85385">
        <ele>925</ele>
        <time>2019-06-12T15:09:58Z</time>
      </trkpt>
      <trkpt lat="44.39823" lon="5.8539">
        <ele>925</ele>
        <time>2019-06-12T15:09:59Z</time>
      </trkpt>
      <trkpt lat="44.39823" lon="5.85395">
        <ele>925</ele>
        <time>2019-06-12T15:10:00Z</time>
      </trkpt>
      <trkpt lat="44.39824" lon="5.85401">
        <ele>925</ele>
        <time>2019-06-12T15:10:01Z</time>
      </trkpt>
      <trkpt lat="44.39824" lon="5.85406">
        <ele>925</ele>
        <time>2019-06-12T15:10:02Z</time>
      </trkpt>
      <trkpt lat="44.39824" lon="5.85412">
        <ele>925</ele>
        <time>2019-06-12T15:10:03Z</time>
      </trkpt>
      <trkpt lat="44.39824" lon="5.85417">
        <ele>925</ele>
        <time>2019-06-12T15:10:04Z</time>
      </trkpt>
      <trkpt lat="44.39823" lon="5.85422">
        <ele>926</ele>
        <time>2019-06-12T15:10:05Z</time>
      </trkpt>
      <trkpt lat="44.39823" lon="5.85427">
        <ele>926</ele>
        <time>2019-06-12T15:10:06Z</time>
      </trkpt>
      <trkpt lat="44.39822" lon="5.85432">
        <ele>926</ele>
        <time>2019-06-12T15:10:07Z</time>
      </trkpt>
      <trkpt lat="44.39821" lon="5.85437">
        <ele>926</ele>
        <time>2019-06-12T15:10:08Z</time>
      </trkpt>
      <trkpt lat="44.3982" lon="5.85442">
        <ele>926</ele>
        <time>2019-06-12T15:10:09Z</time>
      </trkpt>
      <trkpt lat="44.39819" lon="5.85447">
        <ele>927</ele>
        <time>2019-06-12T15:10:10Z</time>
      </trkpt>
      <trkpt lat="44.39817" lon="5.85452">
        <ele>927</ele>
        <time>2019-06-12T15:10:11Z</time>
      </trkpt>
      <trkpt lat="44.39816" lon="5.85457">
        <ele>927</ele>
        <time>2019-06-12T15:10:12Z</time>
      </trkpt>
      <trkpt lat="44.39814" lon="5.85461">
        <ele>927</ele>
        <time>2019-06-12T15:10:13Z</time>
      </trkpt>
      <trkpt lat="44.39811" lon="5.85465">
        <ele>927</ele>
        <time>2019-06-12T15:10:14Z</time>
      </trkpt>
      <trkpt lat="44.39809" lon="5.85468">
        <ele>927</ele>
        <time>2019-06-12T15:10:15Z</time>
      </trkpt>
      <trkpt lat="44.39807" lon="5.85471">
        <ele>928</ele>
        <time>2019-06-12T15:10:16Z</time>
      </trkpt>
      <trkpt lat="44.39805" lon="5.85474">
        <ele>928</ele>
        <time>2019-06-12T15:10:17Z</time>
      </trkpt>
      <trkpt lat="44.39802" lon="5.85477">
        <ele>928</ele>
        <time>2019-06-12T15:10:18Z</time>
      </trkpt>
      <trkpt lat="44.39799" lon="5.85479">
        <ele>928</ele>
        <time>2019-06-12T15:10:19Z</time>
      </trkpt>
      <trkpt lat="44.39795" lon="5.85481">
        <ele>928</ele>
        <time>2019-06-12T15:10:20Z</time>
      </trkpt>
      <trkpt lat="44.39791" lon="5.85482">
        <ele>928</ele>
        <time>2019-06-12T15:10:21Z</time>
      </trkpt>
      <trkpt lat="44.39787" lon="5.85484">
        <ele>928</ele>
        <time>2019-06-12T15:10:22Z</time>
      </trkpt>
      <trkpt lat="44.39782" lon="5.85486">
        <ele>928</ele>
        <time>2019-06-12T15:10:23Z</time>
      </trkpt>
      <trkpt lat="44.39776" lon="5.85487">
        <ele>928</ele>
        <time>2019-06-12T15:10:24Z</time>
      </trkpt>
      <trkpt lat="44.3977" lon="5.85487">
        <ele>928</ele>
        <time>2019-06-12T15:10:25Z</time>
      </trkpt>
      <trkpt lat="44.39763" lon="5.85486">
        <ele>928</ele>
        <time>2019-06-12T15:10:26Z</time>
      </trkpt>
      <trkpt lat="44.39756" lon="5.85484">
        <ele>928</ele>
        <time>2019-06-12T15:10:27Z</time>
      </trkpt>
      <trkpt lat="44.39748" lon="5.85483">
        <ele>928</ele>
        <time>2019-06-12T15:10:28Z</time>
      </trkpt>
      <trkpt lat="44.3974" lon="5.8548">
        <ele>928</ele>
        <time>2019-06-12T15:10:29Z</time>
      </trkpt>
      <trkpt lat="44.39731" lon="5.85478">
        <ele>928</ele>
        <time>2019-06-12T15:10:30Z</time>
      </trkpt>
      <trkpt lat="44.39722" lon="5.85476">
        <ele>927</ele>
        <time>2019-06-12T15:10:31Z</time>
      </trkpt>
      <trkpt lat="44.39712" lon="5.85473">
        <ele>926</ele>
        <time>2019-06-12T15:10:32Z</time>
      </trkpt>
      <trkpt lat="44.39701" lon="5.85469">
        <ele>925</ele>
        <time>2019-06-12T15:10:33Z</time>
      </trkpt>
      <trkpt lat="44.39691" lon="5.85466">
        <ele>924</ele>
        <time>2019-06-12T15:10:34Z</time>
      </trkpt>
      <trkpt lat="44.39679" lon="5.85463">
        <ele>923</ele>
        <time>2019-06-12T15:10:35Z</time>
      </trkpt>
      <trkpt lat="44.39667" lon="5.85462">
        <ele>922</ele>
        <time>2019-06-12T15:10:36Z</time>
      </trkpt>
      <trkpt lat="44.39655" lon="5.8546">
        <ele>921</ele>
        <time>2019-06-12T15:10:37Z</time>
      </trkpt>
      <trkpt lat="44.39642" lon="5.85457">
        <ele>920</ele>
        <time>2019-06-12T15:10:38Z</time>
      </trkpt>
      <trkpt lat="44.3963" lon="5.85454">
        <ele>920</ele>
        <time>2019-06-12T15:10:39Z</time>
      </trkpt>
      <trkpt lat="44.39618" lon="5.8545">
        <ele>919</ele>
        <time>2019-06-12T15:10:40Z</time>
      </trkpt>
      <trkpt lat="44.39606" lon="5.85446">
        <ele>918</ele>
        <time>2019-06-12T15:10:41Z</time>
      </trkpt>
      <trkpt lat="44.39594" lon="5.85443">
        <ele>917</ele>
        <time>2019-06-12T15:10:42Z</time>
      </trkpt>
      <trkpt lat="44.39582" lon="5.85441">
        <ele>916</ele>
        <time>2019-06-12T15:10:43Z</time>
      </trkpt>
      <trkpt lat="44.39571" lon="5.85441">
        <ele>916</ele>
        <time>2019-06-12T15:10:44Z</time>
      </trkpt>
      <trkpt lat="44.3956" lon="5.8544">
        <ele>916</ele>
        <time>2019-06-12T15:10:45Z</time>
      </trkpt>
      <trkpt lat="44.3955" lon="5.85441">
        <ele>915</ele>
        <time>2019-06-12T15:10:46Z</time>
      </trkpt>
      <trkpt lat="44.39539" lon="5.85443">
        <ele>915</ele>
        <time>2019-06-12T15:10:47Z</time>
      </trkpt>
      <trkpt lat="44.39529" lon="5.85447">
        <ele>915</ele>
        <time>2019-06-12T15:10:48Z</time>
      </trkpt>
      <trkpt lat="44.3952" lon="5.85452">
        <ele>915</ele>
        <time>2019-06-12T15:10:49Z</time>
      </trkpt>
      <trkpt lat="44.39511" lon="5.8546">
        <ele>915</ele>
        <time>2019-06-12T15:10:50Z</time>
      </trkpt>
      <trkpt lat="44.39504" lon="5.85468">
        <ele>915</ele>
        <time>2019-06-12T15:10:51Z</time>
      </trkpt>
      <trkpt lat="44.39497" lon="5.85477">
        <ele>915</ele>
        <time>2019-06-12T15:10:52Z</time>
      </trkpt>
      <trkpt lat="44.3949" lon="5.85486">
        <ele>915</ele>
        <time>2019-06-12T15:10:53Z</time>
      </trkpt>
      <trkpt lat="44.39484" lon="5.85494">
        <ele>915</ele>
        <time>2019-06-12T15:10:54Z</time>
      </trkpt>
      <trkpt lat="44.39478" lon="5.85502">
        <ele>915</ele>
        <time>2019-06-12T15:10:55Z</time>
      </trkpt>
      <trkpt lat="44.39473" lon="5.85509">
        <ele>915</ele>
        <time>2019-06-12T15:10:56Z</time>
      </trkpt>
      <trkpt lat="44.39468" lon="5.85517">
        <ele>915</ele>
        <time>2019-06-12T15:10:57Z</time>
      </trkpt>
      <trkpt lat="44.39463" lon="5.85523">
        <ele>915</ele>
        <time>2019-06-12T15:10:58Z</time>
      </trkpt>
      <trkpt lat="44.3946" lon="5.85529">
        <ele>915</ele>
        <time>2019-06-12T15:10:59Z</time>
      </trkpt>
      <trkpt lat="44.39456" lon="5.85536">
        <ele>915</ele>
        <time>2019-06-12T15:11:00Z</time>
      </trkpt>
      <trkpt lat="44.39452" lon="5.85543">
        <ele>915</ele>
        <time>2019-06-12T15:11:01Z</time>
      </trkpt>
      <trkpt lat="44.39448" lon="5.8555">
        <ele>915</ele>
        <time>2019-06-12T15:11:02Z</time>
      </trkpt>
      <trkpt lat="44.39444" lon="5.85557">
        <ele>915</ele>
        <time>2019-06-12T15:11:03Z</time>
      </trkpt>
      <trkpt lat="44.39439" lon="5.85563">
        <ele>915</ele>
        <time>2019-06-12T15:11:04Z</time>
      </trkpt>
      <trkpt lat="44.39434" lon="5.85568">
        <ele>915</ele>
        <time>2019-06-12T15:11:05Z</time>
      </trkpt>
      <trkpt lat="44.39428" lon="5.85573">
        <ele>915</ele>
        <time>2019-06-12T15:11:06Z</time>
      </trkpt>
      <trkpt lat="44.39422" lon="5.85578">
        <ele>915</ele>
        <time>2019-06-12T15:11:07Z</time>
      </trkpt>
      <trkpt lat="44.39417" lon="5.85582">
        <ele>915</ele>
        <time>2019-06-12T15:11:08Z</time>
      </trkpt>
      <trkpt lat="44.39411" lon="5.85588">
        <ele>915</ele>
        <time>2019-06-12T15:11:09Z</time>
      </trkpt>
      <trkpt lat="44.39406" lon="5.85593">
        <ele>915</ele>
        <time>2019-06-12T15:11:10Z</time>
      </trkpt>
      <trkpt lat="44.39401" lon="5.85598">
        <ele>915</ele>
        <time>2019-06-12T15:11:11Z</time>
      </trkpt>
      <trkpt lat="44.39397" lon="5.85604">
        <ele>915</ele>
        <time>2019-06-12T15:11:12Z</time>
      </trkpt>
      <trkpt lat="44.39393" lon="5.85609">
        <ele>915</ele>
        <time>2019-06-12T15:11:13Z</time>
      </trkpt>
      <trkpt lat="44.39389" lon="5.85616">
        <ele>915</ele>
        <time>2019-06-12T15:11:14Z</time>
      </trkpt>
      <trkpt lat="44.39386" lon="5.85622">
        <ele>915</ele>
        <time>2019-06-12T15:11:15Z</time>
      </trkpt>
      <trkpt lat="44.39383" lon="5.85628">
        <ele>915</ele>
        <time>2019-06-12T15:11:16Z</time>
      </trkpt>
      <trkpt lat="44.3938" lon="5.85634">
        <ele>915</ele>
        <time>2019-06-12T15:11:17Z</time>
      </trkpt>
      <trkpt lat="44.39377" lon="5.8564">
        <ele>915</ele>
        <time>2019-06-12T15:11:18Z</time>
      </trkpt>
      <trkpt lat="44.39374" lon="5.85647">
        <ele>915</ele>
        <time>2019-06-12T15:11:19Z</time>
      </trkpt>
      <trkpt lat="44.3937" lon="5.85655">
        <ele>915</ele>
        <time>2019-06-12T15:11:20Z</time>
      </trkpt>
      <trkpt lat="44.39367" lon="5.85663">
        <ele>915</ele>
        <time>2019-06-12T15:11:21Z</time>
      </trkpt>
      <trkpt lat="44.39363" lon="5.85672">
        <ele>915</ele>
        <time>2019-06-12T15:11:22Z</time>
      </trkpt>
      <trkpt lat="44.3936" lon="5.8568">
        <ele>915</ele>
        <time>2019-06-12T15:11:23Z</time>
      </trkpt>
      <trkpt lat="44.39357" lon="5.85689">
        <ele>915</ele>
        <time>2019-06-12T15:11:24Z</time>
      </trkpt>
      <trkpt lat="44.39354" lon="5.85699">
        <ele>915</ele>
        <time>2019-06-12T15:11:25Z</time>
      </trkpt>
      <trkpt lat="44.39351" lon="5.85708">
        <ele>915</ele>
        <time>2019-06-12T15:11:26Z</time>
      </trkpt>
      <trkpt lat="44.39348" lon="5.85717">
        <ele>915</ele>
        <time>2019-06-12T15:11:27Z</time>
      </trkpt>
      <trkpt lat="44.39346" lon="5.85726">
        <ele>915</ele>
        <time>2019-06-12T15:11:28Z</time>
      </trkpt>
      <trkpt lat="44.39343" lon="5.85736">
        <ele>915</ele>
        <time>2019-06-12T15:11:29Z</time>
      </trkpt>
      <trkpt lat="44.3934" lon="5.85744">
        <ele>915</ele>
        <time>2019-06-12T15:11:30Z</time>
      </trkpt>
      <trkpt lat="44.39338" lon="5.85752">
        <ele>915</ele>
        <time>2019-06-12T15:11:31Z</time>
      </trkpt>
      <trkpt lat="44.39335" lon="5.8576">
        <ele>915</ele>
        <time>2019-06-12T15:11:32Z</time>
      </trkpt>
      <trkpt lat="44.39332" lon="5.85768">
        <ele>915</ele>
        <time>2019-06-12T15:11:33Z</time>
      </trkpt>
      <trkpt lat="44.39329" lon="5.85775">
        <ele>915</ele>
        <time>2019-06-12T15:11:34Z</time>
      </trkpt>
      <trkpt lat="44.39325" lon="5.85782">
        <ele>915</ele>
        <time>2019-06-12T15:11:35Z</time>
      </trkpt>
      <trkpt lat="44.39323" lon="5.85789">
        <ele>915</ele>
        <time>2019-06-12T15:11:36Z</time>
      </trkpt>
      <trkpt lat="44.39319" lon="5.85795">
        <ele>915</ele>
        <time>2019-06-12T15:11:37Z</time>
      </trkpt>
      <trkpt lat="44.39316" lon="5.85802">
        <ele>915</ele>
        <time>2019-06-12T15:11:38Z</time>
      </trkpt>
      <trkpt lat="44.39312" lon="5.85809">
        <ele>915</ele>
        <time>2019-06-12T15:11:39Z</time>
      </trkpt>
      <trkpt lat="44.39308" lon="5.85815">
        <ele>915</ele>
        <time>2019-06-12T15:11:40Z</time>
      </trkpt>
      <trkpt lat="44.39304" lon="5.85823">
        <ele>915</ele>
        <time>2019-06-12T15:11:41Z</time>
      </trkpt>
      <trkpt lat="44.393" lon="5.8583">
        <ele>915</ele>
        <time>2019-06-12T15:11:42Z</time>
      </trkpt>
      <trkpt lat="44.39297" lon="5.85837">
        <ele>915</ele>
        <time>2019-06-12T15:11:43Z</time>
      </trkpt>
      <trkpt lat="44.39293" lon="5.85844">
        <ele>915</ele>
        <time>2019-06-12T15:11:44Z</time>
      </trkpt>
      <trkpt lat="44.3929" lon="5.85852">
        <ele>915</ele>
        <time>2019-06-12T15:11:45Z</time>
      </trkpt>
      <trkpt lat="44.39287" lon="5.85859">
        <ele>915</ele>
        <time>2019-06-12T15:11:46Z</time>
      </trkpt>
      <trkpt lat="44.39284" lon="5.85867">
        <ele>915</ele>
        <time>2019-06-12T15:11:47Z</time>
      </trkpt>
      <trkpt lat="44.39281" lon="5.85875">
        <ele>915</ele>
        <time>2019-06-12T15:11:48Z</time>
      </trkpt>
      <trkpt lat="44.39279" lon="5.85883">
        <ele>915</ele>
        <time>2019-06-12T15:11:49Z</time>
      </trkpt>
      <trkpt lat="44.39277" lon="5.85891">
        <ele>915</ele>
        <time>2019-06-12T15:11:50Z</time>
      </trkpt>
      <trkpt lat="44.39275" lon="5.85899">
        <ele>915</ele>
        <time>2019-06-12T15:11:51Z</time>
      </trkpt>
      <trkpt lat="44.39273" lon="5.85906">
        <ele>915</ele>
        <time>2019-06-12T15:11:52Z</time>
      </trkpt>
      <trkpt lat="44.39272" lon="5.85913">
        <ele>915</ele>
        <time>2019-06-12T15:11:53Z</time>
      </trkpt>
      <trkpt lat="44.3927" lon="5.8592">
        <ele>916</ele>
        <time>2019-06-12T15:11:54Z</time>
      </trkpt>
      <trkpt lat="44.39267" lon="5.85927">
        <ele>916</ele>
        <time>2019-06-12T15:11:55Z</time>
      </trkpt>
      <trkpt lat="44.39265" lon="5.85934">
        <ele>916</ele>
        <time>2019-06-12T15:11:56Z</time>
      </trkpt>
      <trkpt lat="44.39263" lon="5.85941">
        <ele>916</ele>
        <time>2019-06-12T15:11:57Z</time>
      </trkpt>
      <trkpt lat="44.3926" lon="5.85948">
        <ele>916</ele>
        <time>2019-06-12T15:11:58Z</time>
      </trkpt>
      <trkpt lat="44.39257" lon="5.85955">
        <ele>916</ele>
        <time>2019-06-12T15:11:59Z</time>
      </trkpt>
      <trkpt lat="44.39254" lon="5.85963">
        <ele>916</ele>
        <time>2019-06-12T15:12:00Z</time>
      </trkpt>
      <trkpt lat="44.39251" lon="5.85971">
        <ele>916</ele>
        <time>2019-06-12T15:12:01Z</time>
      </trkpt>
      <trkpt lat="44.39247" lon="5.8598">
        <ele>916</ele>
        <time>2019-06-12T15:12:02Z</time>
      </trkpt>
      <trkpt lat="44.39244" lon="5.85988">
        <ele>916</ele>
        <time>2019-06-12T15:12:03Z</time>
      </trkpt>
      <trkpt lat="44.39241" lon="5.85996">
        <ele>916</ele>
        <time>2019-06-12T15:12:04Z</time>
      </trkpt>
      <trkpt lat="44.39237" lon="5.86004">
        <ele>916</ele>
        <time>2019-06-12T15:12:05Z</time>
      </trkpt>
      <trkpt lat="44.39233" lon="5.86013">
        <ele>916</ele>
        <time>2019-06-12T15:12:06Z</time>
      </trkpt>
      <trkpt lat="44.3923" lon="5.86021">
        <ele>916</ele>
        <time>2019-06-12T15:12:07Z</time>
      </trkpt>
      <trkpt lat="44.39226" lon="5.86029">
        <ele>916</ele>
        <time>2019-06-12T15:12:08Z</time>
      </trkpt>
      <trkpt lat="44.39222" lon="5.86038">
        <ele>916</ele>
        <time>2019-06-12T15:12:09Z</time>
      </trkpt>
      <trkpt lat="44.39219" lon="5.86048">
        <ele>916</ele>
        <time>2019-06-12T15:12:10Z</time>
      </trkpt>
      <trkpt lat="44.39216" lon="5.86057">
        <ele>916</ele>
        <time>2019-06-12T15:12:11Z</time>
      </trkpt>
      <trkpt lat="44.39214" lon="5.86067">
        <ele>916</ele>
        <time>2019-06-12T15:12:12Z</time>
      </trkpt>
      <trkpt lat="44.39212" lon="5.86077">
        <ele>916</ele>
        <time>2019-06-12T15:12:13Z</time>
      </trkpt>
      <trkpt lat="44.39209" lon="5.86086">
        <ele>916</ele>
        <time>2019-06-12T15:12:14Z</time>
      </trkpt>
      <trkpt lat="44.39207" lon="5.86095">
        <ele>916</ele>
        <time>2019-06-12T15:12:15Z</time>
      </trkpt>
      <trkpt lat="44.39204" lon="5.86104">
        <ele>916</ele>
        <time>2019-06-12T15:12:16Z</time>
      </trkpt>
      <trkpt lat="44.39201" lon="5.86114">
        <ele>916</ele>
        <time>2019-06-12T15:12:17Z</time>
      </trkpt>
      <trkpt lat="44.39198" lon="5.86123">
        <ele>916</ele>
        <time>2019-06-12T15:12:18Z</time>
      </trkpt>
      <trkpt lat="44.39194" lon="5.86132">
        <ele>916</ele>
        <time>2019-06-12T15:12:19Z</time>
      </trkpt>
      <trkpt lat="44.3919" lon="5.8614">
        <ele>916</ele>
        <time>2019-06-12T15:12:20Z</time>
      </trkpt>
      <trkpt lat="44.39185" lon="5.86149">
        <ele>916</ele>
        <time>2019-06-12T15:12:21Z</time>
      </trkpt>
      <trkpt lat="44.3918" lon="5.86157">
        <ele>916</ele>
        <time>2019-06-12T15:12:22Z</time>
      </trkpt>
      <trkpt lat="44.39175" lon="5.86165">
        <ele>915</ele>
        <time>2019-06-12T15:12:23Z</time>
      </trkpt>
      <trkpt lat="44.39169" lon="5.86173">
        <ele>915</ele>
        <time>2019-06-12T15:12:24Z</time>
      </trkpt>
      <trkpt lat="44.39162" lon="5.86182">
        <ele>915</ele>
        <time>2019-06-12T15:12:25Z</time>
      </trkpt>
      <trkpt lat="44.39155" lon="5.8619">
        <ele>915</ele>
        <time>2019-06-12T15:12:26Z</time>
      </trkpt>
      <trkpt lat="44.39148" lon="5.86199">
        <ele>914</ele>
        <time>2019-06-12T15:12:27Z</time>
      </trkpt>
      <trkpt lat="44.39141" lon="5.86206">
        <ele>914</ele>
        <time>2019-06-12T15:12:28Z</time>
      </trkpt>
      <trkpt lat="44.39134" lon="5.86215">
        <ele>913</ele>
        <time>2019-06-12T15:12:29Z</time>
      </trkpt>
      <trkpt lat="44.39127" lon="5.86223">
        <ele>912</ele>
        <time>2019-06-12T15:12:30Z</time>
      </trkpt>
      <trkpt lat="44.39119" lon="5.86232">
        <ele>912</ele>
        <time>2019-06-12T15:12:31Z</time>
      </trkpt>
      <trkpt lat="44.39111" lon="5.86241">
        <ele>911</ele>
        <time>2019-06-12T15:12:32Z</time>
      </trkpt>
      <trkpt lat="44.39104" lon="5.8625">
        <ele>911</ele>
        <time>2019-06-12T15:12:33Z</time>
      </trkpt>
      <trkpt lat="44.39096" lon="5.86259">
        <ele>910</ele>
        <time>2019-06-12T15:12:34Z</time>
      </trkpt>
      <trkpt lat="44.39088" lon="5.86269">
        <ele>910</ele>
        <time>2019-06-12T15:12:35Z</time>
      </trkpt>
      <trkpt lat="44.3908" lon="5.86278">
        <ele>910</ele>
        <time>2019-06-12T15:12:36Z</time>
      </trkpt>
      <trkpt lat="44.39072" lon="5.86287">
        <ele>910</ele>
        <time>2019-06-12T15:12:37Z</time>
      </trkpt>
      <trkpt lat="44.39064" lon="5.86297">
        <ele>910</ele>
        <time>2019-06-12T15:12:38Z</time>
      </trkpt>
      <trkpt lat="44.39056" lon="5.86306">
        <ele>909</ele>
        <time>2019-06-12T15:12:39Z</time>
      </trkpt>
      <trkpt lat="44.39049" lon="5.86314">
        <ele>909</ele>
        <time>2019-06-12T15:12:40Z</time>
      </trkpt>
      <trkpt lat="44.39042" lon="5.86323">
        <ele>909</ele>
        <time>2019-06-12T15:12:41Z</time>
      </trkpt>
      <trkpt lat="44.39035" lon="5.86332">
        <ele>908</ele>
        <time>2019-06-12T15:12:42Z</time>
      </trkpt>
      <trkpt lat="44.39029" lon="5.86341">
        <ele>907</ele>
        <time>2019-06-12T15:12:43Z</time>
      </trkpt>
      <trkpt lat="44.39023" lon="5.86351">
        <ele>907</ele>
        <time>2019-06-12T15:12:44Z</time>
      </trkpt>
      <trkpt lat="44.39017" lon="5.86362">
        <ele>906</ele>
        <time>2019-06-12T15:12:45Z</time>
      </trkpt>
      <trkpt lat="44.39011" lon="5.86371">
        <ele>905</ele>
        <time>2019-06-12T15:12:46Z</time>
      </trkpt>
      <trkpt lat="44.39005" lon="5.86379">
        <ele>905</ele>
        <time>2019-06-12T15:12:47Z</time>
      </trkpt>
      <trkpt lat="44.38999" lon="5.86387">
        <ele>904</ele>
        <time>2019-06-12T15:12:48Z</time>
      </trkpt>
      <trkpt lat="44.38992" lon="5.86393">
        <ele>904</ele>
        <time>2019-06-12T15:12:49Z</time>
      </trkpt>
      <trkpt lat="44.38985" lon="5.86398">
        <ele>903</ele>
        <time>2019-06-12T15:12:50Z</time>
      </trkpt>
      <trkpt lat="44.38977" lon="5.86402">
        <ele>903</ele>
        <time>2019-06-12T15:12:51Z</time>
      </trkpt>
      <trkpt lat="44.38968" lon="5.86405">
        <ele>902</ele>
        <time>2019-06-12T15:12:52Z</time>
      </trkpt>
      <trkpt lat="44.38958" lon="5.86408">
        <ele>902</ele>
        <time>2019-06-12T15:12:53Z</time>
      </trkpt>
      <trkpt lat="44.38949" lon="5.86413">
        <ele>901</ele>
        <time>2019-06-12T15:12:54Z</time>
      </trkpt>
      <trkpt lat="44.3894" lon="5.86418">
        <ele>901</ele>
        <time>2019-06-12T15:12:55Z</time>
      </trkpt>
      <trkpt lat="44.38931" lon="5.86423">
        <ele>900</ele>
        <time>2019-06-12T15:12:56Z</time>
      </trkpt>
      <trkpt lat="44.38922" lon="5.86429">
        <ele>900</ele>
        <time>2019-06-12T15:12:57Z</time>
      </trkpt>
      <trkpt lat="44.38913" lon="5.86436">
        <ele>899</ele>
        <time>2019-06-12T15:12:58Z</time>
      </trkpt>
      <trkpt lat="44.38904" lon="5.86443">
        <ele>898</ele>
        <time>2019-06-12T15:12:59Z</time>
      </trkpt>
      <trkpt lat="44.38896" lon="5.86451">
        <ele>898</ele>
        <time>2019-06-12T15:13:00Z</time>
      </trkpt>
      <trkpt lat="44.38888" lon="5.86459">
        <ele>898</ele>
        <time>2019-06-12T15:13:01Z</time>
      </trkpt>
      <trkpt lat="44.38881" lon="5.86467">
        <ele>898</ele>
        <time>2019-06-12T15:13:02Z</time>
      </trkpt>
      <trkpt lat="44.38874" lon="5.86476">
        <ele>898</ele>
        <time>2019-06-12T15:13:03Z</time>
      </trkpt>
      <trkpt lat="44.38868" lon="5.86484">
        <ele>898</ele>
        <time>2019-06-12T15:13:04Z</time>
      </trkpt>
      <trkpt lat="44.38862" lon="5.86491">
        <ele>897</ele>
        <time>2019-06-12T15:13:05Z</time>
      </trkpt>
      <trkpt lat="44.38856" lon="5.86499">
        <ele>897</ele>
        <time>2019-06-12T15:13:06Z</time>
      </trkpt>
      <trkpt lat="44.3885" lon="5.86506">
        <ele>897</ele>
        <time>2019-06-12T15:13:07Z</time>
      </trkpt>
      <trkpt lat="44.38845" lon="5.86513">
        <ele>897</ele>
        <time>2019-06-12T15:13:08Z</time>
      </trkpt>
      <trkpt lat="44.38839" lon="5.86519">
        <ele>897</ele>
        <time>2019-06-12T15:13:09Z</time>
      </trkpt>
      <trkpt lat="44.38833" lon="5.86526">
        <ele>897</ele>
        <time>2019-06-12T15:13:10Z</time>
      </trkpt>
      <trkpt lat="44.38827" lon="5.86531">
        <ele>897</ele>
        <time>2019-06-12T15:13:11Z</time>
      </trkpt>
      <trkpt lat="44.3882" lon="5.86538">
        <ele>897</ele>
        <time>2019-06-12T15:13:12Z</time>
      </trkpt>
      <trkpt lat="44.38812" lon="5.86544">
        <ele>896</ele>
        <time>2019-06-12T15:13:13Z</time>
      </trkpt>
      <trkpt lat="44.38804" lon="5.8655">
        <ele>895</ele>
        <time>2019-06-12T15:13:14Z</time>
      </trkpt>
      <trkpt lat="44.38795" lon="5.86556">
        <ele>895</ele>
        <time>2019-06-12T15:13:15Z</time>
      </trkpt>
      <trkpt lat="44.38787" lon="5.86562">
        <ele>894</ele>
        <time>2019-06-12T15:13:16Z</time>
      </trkpt>
      <trkpt lat="44.38779" lon="5.86568">
        <ele>893</ele>
        <time>2019-06-12T15:13:17Z</time>
      </trkpt>
      <trkpt lat="44.3877" lon="5.86574">
        <ele>892</ele>
        <time>2019-06-12T15:13:18Z</time>
      </trkpt>
      <trkpt lat="44.38761" lon="5.86579">
        <ele>891</ele>
        <time>2019-06-12T15:13:19Z</time>
      </trkpt>
      <trkpt lat="44.38753" lon="5.86585">
        <ele>890</ele>
        <time>2019-06-12T15:13:20Z</time>
      </trkpt>
      <trkpt lat="44.38744" lon="5.86591">
        <ele>889</ele>
        <time>2019-06-12T15:13:21Z</time>
      </trkpt>
      <trkpt lat="44.38736" lon="5.86596">
        <ele>889</ele>
        <time>2019-06-12T15:13:22Z</time>
      </trkpt>
      <trkpt lat="44.38727" lon="5.86602">
        <ele>888</ele>
        <time>2019-06-12T15:13:23Z</time>
      </trkpt>
      <trkpt lat="44.38718" lon="5.86608">
        <ele>887</ele>
        <time>2019-06-12T15:13:24Z</time>
      </trkpt>
      <trkpt lat="44.38709" lon="5.86613">
        <ele>886</ele>
        <time>2019-06-12T15:13:25Z</time>
      </trkpt>
      <trkpt lat="44.38699" lon="5.86618">
        <ele>885</ele>
        <time>2019-06-12T15:13:26Z</time>
      </trkpt>
      <trkpt lat="44.38689" lon="5.86623">
        <ele>884</ele>
        <time>2019-06-12T15:13:27Z</time>
      </trkpt>
      <trkpt lat="44.38678" lon="5.86627">
        <ele>883</ele>
        <time>2019-06-12T15:13:28Z</time>
      </trkpt>
      <trkpt lat="44.38668" lon="5.86631">
        <ele>882</ele>
        <time>2019-06-12T15:13:29Z</time>
      </trkpt>
      <trkpt lat="44.38658" lon="5.86635">
        <ele>881</ele>
        <time>2019-06-12T15:13:30Z</time>
      </trkpt>
      <trkpt lat="44.38648" lon="5.8664">
        <ele>881</ele>
        <time>2019-06-12T15:13:31Z</time>
      </trkpt>
      <trkpt lat="44.38638" lon="5.86644">
        <ele>880</ele>
        <time>2019-06-12T15:13:32Z</time>
      </trkpt>
      <trkpt lat="44.38628" lon="5.86648">
        <ele>879</ele>
        <time>2019-06-12T15:13:33Z</time>
      </trkpt>
      <trkpt lat="44.38617" lon="5.86653">
        <ele>878</ele>
        <time>2019-06-12T15:13:34Z</time>
      </trkpt>
      <trkpt lat="44.38607" lon="5.86658">
        <ele>878</ele>
        <time>2019-06-12T15:13:35Z</time>
      </trkpt>
      <trkpt lat="44.38596" lon="5.86663">
        <ele>877</ele>
        <time>2019-06-12T15:13:36Z</time>
      </trkpt>
      <trkpt lat="44.38586" lon="5.86668">
        <ele>876</ele>
        <time>2019-06-12T15:13:37Z</time>
      </trkpt>
      <trkpt lat="44.38575" lon="5.86673">
        <ele>875</ele>
        <time>2019-06-12T15:13:38Z</time>
      </trkpt>
      <trkpt lat="44.38564" lon="5.86678">
        <ele>875</ele>
        <time>2019-06-12T15:13:39Z</time>
      </trkpt>
      <trkpt lat="44.38554" lon="5.86683">
        <ele>874</ele>
        <time>2019-06-12T15:13:40Z</time>
      </trkpt>
      <trkpt lat="44.38544" lon="5.86688">
        <ele>873</ele>
        <time>2019-06-12T15:13:41Z</time>
      </trkpt>
      <trkpt lat="44.38534" lon="5.86693">
        <ele>872</ele>
        <time>2019-06-12T15:13:42Z</time>
      </trkpt>
      <trkpt lat="44.38524" lon="5.86698">
        <ele>872</ele>
        <time>2019-06-12T15:13:43Z</time>
      </trkpt>
      <trkpt lat="44.38515" lon="5.86702">
        <ele>872</ele>
        <time>2019-06-12T15:13:44Z</time>
      </trkpt>
      <trkpt lat="44.38506" lon="5.86706">
        <ele>872</ele>
        <time>2019-06-12T15:13:45Z</time>
      </trkpt>
      <trkpt lat="44.38498" lon="5.86711">
        <ele>871</ele>
        <time>2019-06-12T15:13:46Z</time>
      </trkpt>
      <trkpt lat="44.3849" lon="5.86717">
        <ele>871</ele>
        <time>2019-06-12T15:13:47Z</time>
      </trkpt>
      <trkpt lat="44.38482" lon="5.86723">
        <ele>871</ele>
        <time>2019-06-12T15:13:48Z</time>
      </trkpt>
      <trkpt lat="44.38474" lon="5.86729">
        <ele>870</ele>
        <time>2019-06-12T15:13:49Z</time>
      </trkpt>
      <trkpt lat="44.38466" lon="5.86736">
        <ele>870</ele>
        <time>2019-06-12T15:13:50Z</time>
      </trkpt>
      <trkpt lat="44.38458" lon="5.86742">
        <ele>870</ele>
        <time>2019-06-12T15:13:51Z</time>
      </trkpt>
      <trkpt lat="44.3845" lon="5.86749">
        <ele>869</ele>
        <time>2019-06-12T15:13:52Z</time>
      </trkpt>
      <trkpt lat="44.38442" lon="5.86755">
        <ele>869</ele>
        <time>2019-06-12T15:13:53Z</time>
      </trkpt>
      <trkpt lat="44.38435" lon="5.86761">
        <ele>869</ele>
        <time>2019-06-12T15:13:54Z</time>
      </trkpt>
      <trkpt lat="44.38427" lon="5.86767">
        <ele>868</ele>
        <time>2019-06-12T15:13:55Z</time>
      </trkpt>
      <trkpt lat="44.3842" lon="5.86773">
        <ele>868</ele>
        <time>2019-06-12T15:13:56Z</time>
      </trkpt>
      <trkpt lat="44.38412" lon="5.86779">
        <ele>867</ele>
        <time>2019-06-12T15:13:57Z</time>
      </trkpt>
      <trkpt lat="44.38405" lon="5.86785">
        <ele>867</ele>
        <time>2019-06-12T15:13:58Z</time>
      </trkpt>
      <trkpt lat="44.38398" lon="5.86791">
        <ele>867</ele>
        <time>2019-06-12T15:13:59Z</time>
      </trkpt>
      <trkpt lat="44.38392" lon="5.86797">
        <ele>867</ele>
        <time>2019-06-12T15:14:00Z</time>
      </trkpt>
      <trkpt lat="44.38386" lon="5.86802">
        <ele>867</ele>
        <time>2019-06-12T15:14:01Z</time>
      </trkpt>
      <trkpt lat="44.3838" lon="5.86808">
        <ele>867</ele>
        <time>2019-06-12T15:14:02Z</time>
      </trkpt>
      <trkpt lat="44.38374" lon="5.86812">
        <ele>867</ele>
        <time>2019-06-12T15:14:03Z</time>
      </trkpt>
      <trkpt lat="44.38368" lon="5.86816">
        <ele>867</ele>
        <time>2019-06-12T15:14:04Z</time>
      </trkpt>
      <trkpt lat="44.38362" lon="5.86821">
        <ele>867</ele>
        <time>2019-06-12T15:14:05Z</time>
      </trkpt>
      <trkpt lat="44.38356" lon="5.86825">
        <ele>867</ele>
        <time>2019-06-12T15:14:06Z</time>
      </trkpt>
      <trkpt lat="44.38351" lon="5.86828">
        <ele>866</ele>
        <time>2019-06-12T15:14:07Z</time>
      </trkpt>
      <trkpt lat="44.38345" lon="5.86831">
        <ele>866</ele>
        <time>2019-06-12T15:14:08Z</time>
      </trkpt>
      <trkpt lat="44.38339" lon="5.86834">
        <ele>866</ele>
        <time>2019-06-12T15:14:09Z</time>
      </trkpt>
      <trkpt lat="44.38332" lon="5.86837">
        <ele>865</ele>
        <time>2019-06-12T15:14:10Z</time>
      </trkpt>
      <trkpt lat="44.38326" lon="5.86841">
        <ele>865</ele>
        <time>2019-06-12T15:14:11Z</time>
      </trkpt>
      <trkpt lat="44.38319" lon="5.86845">
        <ele>865</ele>
        <time>2019-06-12T15:14:12Z</time>
      </trkpt>
      <trkpt lat="44.38311" lon="5.86849">
        <ele>864</ele>
        <time>2019-06-12T15:14:13Z</time>
      </trkpt>
      <trkpt lat="44.38303" lon="5.86853">
        <ele>864</ele>
        <time>2019-06-12T15:14:14Z</time>
      </trkpt>
      <trkpt lat="44.38295" lon="5.86857">
        <ele>864</ele>
        <time>2019-06-12T15:14:15Z</time>
      </trkpt>
      <trkpt lat="44.38287" lon="5.86862">
        <ele>863</ele>
        <time>2019-06-12T15:14:16Z</time>
      </trkpt>
      <trkpt lat="44.38278" lon="5.86866">
        <ele>862</ele>
        <time>2019-06-12T15:14:17Z</time>
      </trkpt>
      <trkpt lat="44.38269" lon="5.8687">
        <ele>862</ele>
        <time>2019-06-12T15:14:18Z</time>
      </trkpt>
      <trkpt lat="44.3826" lon="5.86874">
        <ele>861</ele>
        <time>2019-06-12T15:14:19Z</time>
      </trkpt>
      <trkpt lat="44.3825" lon="5.86878">
        <ele>860</ele>
        <time>2019-06-12T15:14:20Z</time>
      </trkpt>
      <trkpt lat="44.38241" lon="5.86882">
        <ele>859</ele>
        <time>2019-06-12T15:14:21Z</time>
      </trkpt>
      <trkpt lat="44.38231" lon="5.86885">
        <ele>858</ele>
        <time>2019-06-12T15:14:22Z</time>
      </trkpt>
      <trkpt lat="44.38222" lon="5.86888">
        <ele>857</ele>
        <time>2019-06-12T15:14:23Z</time>
      </trkpt>
      <trkpt lat="44.38213" lon="5.8689">
        <ele>856</ele>
        <time>2019-06-12T15:14:24Z</time>
      </trkpt>
      <trkpt lat="44.38203" lon="5.86892">
        <ele>855</ele>
        <time>2019-06-12T15:14:25Z</time>
      </trkpt>
      <trkpt lat="44.38193" lon="5.86894">
        <ele>854</ele>
        <time>2019-06-12T15:14:26Z</time>
      </trkpt>
      <trkpt lat="44.38184" lon="5.86896">
        <ele>853</ele>
        <time>2019-06-12T15:14:27Z</time>
      </trkpt>
      <trkpt lat="44.38174" lon="5.86898">
        <ele>852</ele>
        <time>2019-06-12T15:14:28Z</time>
      </trkpt>
      <trkpt lat="44.38165" lon="5.86899">
        <ele>851</ele>
        <time>2019-06-12T15:14:29Z</time>
      </trkpt>
      <trkpt lat="44.38156" lon="5.86899">
        <ele>850</ele>
        <time>2019-06-12T15:14:30Z</time>
      </trkpt>
      <trkpt lat="44.38147" lon="5.86899">
        <ele>849</ele>
        <time>2019-06-12T15:14:31Z</time>
      </trkpt>
      <trkpt lat="44.38138" lon="5.86898">
        <ele>848</ele>
        <time>2019-06-12T15:14:32Z</time>
      </trkpt>
      <trkpt lat="44.38129" lon="5.86897">
        <ele>847</ele>
        <time>2019-06-12T15:14:33Z</time>
      </trkpt>
      <trkpt lat="44.38121" lon="5.86894">
        <ele>846</ele>
        <time>2019-06-12T15:14:34Z</time>
      </trkpt>
      <trkpt lat="44.38112" lon="5.86893">
        <ele>846</ele>
        <time>2019-06-12T15:14:35Z</time>
      </trkpt>
      <trkpt lat="44.38102" lon="5.86892">
        <ele>845</ele>
        <time>2019-06-12T15:14:36Z</time>
      </trkpt>
      <trkpt lat="44.38094" lon="5.86892">
        <ele>844</ele>
        <time>2019-06-12T15:14:37Z</time>
      </trkpt>
      <trkpt lat="44.38085" lon="5.86895">
        <ele>843</ele>
        <time>2019-06-12T15:14:38Z</time>
      </trkpt>
      <trkpt lat="44.38077" lon="5.86898">
        <ele>842</ele>
        <time>2019-06-12T15:14:39Z</time>
      </trkpt>
      <trkpt lat="44.38069" lon="5.86903">
        <ele>841</ele>
        <time>2019-06-12T15:14:40Z</time>
      </trkpt>
      <trkpt lat="44.38061" lon="5.86908">
        <ele>840</ele>
        <time>2019-06-12T15:14:41Z</time>
      </trkpt>
      <trkpt lat="44.38054" lon="5.86916">
        <ele>839</ele>
        <time>2019-06-12T15:14:42Z</time>
      </trkpt>
      <trkpt lat="44.38046" lon="5.86924">
        <ele>839</ele>
        <time>2019-06-12T15:14:43Z</time>
      </trkpt>
      <trkpt lat="44.38039" lon="5.86931">
        <ele>838</ele>
        <time>2019-06-12T15:14:44Z</time>
      </trkpt>
      <trkpt lat="44.38032" lon="5.86938">
        <ele>837</ele>
        <time>2019-06-12T15:14:45Z</time>
      </trkpt>
      <trkpt lat="44.38025" lon="5.86945">
        <ele>836</ele>
        <time>2019-06-12T15:14:46Z</time>
      </trkpt>
      <trkpt lat="44.38018" lon="5.86952">
        <ele>835</ele>
        <time>2019-06-12T15:14:47Z</time>
      </trkpt>
      <trkpt lat="44.38011" lon="5.86957">
        <ele>835</ele>
        <time>2019-06-12T15:14:48Z</time>
      </trkpt>
      <trkpt lat="44.38004" lon="5.86961">
        <ele>834</ele>
        <time>2019-06-12T15:14:49Z</time>
      </trkpt>
      <trkpt lat="44.37996" lon="5.86963">
        <ele>833</ele>
        <time>2019-06-12T15:14:50Z</time>
      </trkpt>
      <trkpt lat="44.37988" lon="5.86963">
        <ele>833</ele>
        <time>2019-06-12T15:14:51Z</time>
      </trkpt>
      <trkpt lat="44.3798" lon="5.86962">
        <ele>832</ele>
        <time>2019-06-12T15:14:52Z</time>
      </trkpt>
      <trkpt lat="44.37972" lon="5.8696">
        <ele>831</ele>
        <time>2019-06-12T15:14:53Z</time>
      </trkpt>
      <trkpt lat="44.37963" lon="5.86958">
        <ele>830</ele>
        <time>2019-06-12T15:14:54Z</time>
      </trkpt>
      <trkpt lat="44.37954" lon="5.86955">
        <ele>830</ele>
        <time>2019-06-12T15:14:55Z</time>
      </trkpt>
      <trkpt lat="44.37945" lon="5.86952">
        <ele>829</ele>
        <time>2019-06-12T15:14:56Z</time>
      </trkpt>
      <trkpt lat="44.37936" lon="5.86948">
        <ele>828</ele>
        <time>2019-06-12T15:14:57Z</time>
      </trkpt>
      <trkpt lat="44.37927" lon="5.86944">
        <ele>827</ele>
        <time>2019-06-12T15:14:58Z</time>
      </trkpt>
      <trkpt lat="44.37918" lon="5.8694">
        <ele>826</ele>
        <time>2019-06-12T15:14:59Z</time>
      </trkpt>
      <trkpt lat="44.37909" lon="5.86936">
        <ele>826</ele>
        <time>2019-06-12T15:15:00Z</time>
      </trkpt>
      <trkpt lat="44.379" lon="5.86933">
        <ele>825</ele>
        <time>2019-06-12T15:15:01Z</time>
      </trkpt>
      <trkpt lat="44.37891" lon="5.86931">
        <ele>824</ele>
        <time>2019-06-12T15:15:02Z</time>
      </trkpt>
      <trkpt lat="44.37881" lon="5.86929">
        <ele>823</ele>
        <time>2019-06-12T15:15:03Z</time>
      </trkpt>
      <trkpt lat="44.37872" lon="5.86926">
        <ele>822</ele>
        <time>2019-06-12T15:15:04Z</time>
      </trkpt>
      <trkpt lat="44.37862" lon="5.86921">
        <ele>822</ele>
        <time>2019-06-12T15:15:05Z</time>
      </trkpt>
      <trkpt lat="44.37853" lon="5.86915">
        <ele>821</ele>
        <time>2019-06-12T15:15:06Z</time>
      </trkpt>
      <trkpt lat="44.37845" lon="5.86908">
        <ele>820</ele>
        <time>2019-06-12T15:15:07Z</time>
      </trkpt>
      <trkpt lat="44.37837" lon="5.86902">
        <ele>819</ele>
        <time>2019-06-12T15:15:08Z</time>
      </trkpt>
      <trkpt lat="44.3783" lon="5.86897">
        <ele>818</ele>
        <time>2019-06-12T15:15:09Z</time>
      </trkpt>
      <trkpt lat="44.37823" lon="5.86895">
        <ele>817</ele>
        <time>2019-06-12T15:15:10Z</time>
      </trkpt>
      <trkpt lat="44.37817" lon="5.86894">
        <ele>816</ele>
        <time>2019-06-12T15:15:11Z</time>
      </trkpt>
      <trkpt lat="44.3781" lon="5.86894">
        <ele>816</ele>
        <time>2019-06-12T15:15:12Z</time>
      </trkpt>
      <trkpt lat="44.37804" lon="5.86893">
        <ele>816</ele>
        <time>2019-06-12T15:15:13Z</time>
      </trkpt>
      <trkpt lat="44.37796" lon="5.86892">
        <ele>815</ele>
        <time>2019-06-12T15:15:14Z</time>
      </trkpt>
      <trkpt lat="44.37789" lon="5.86889">
        <ele>815</ele>
        <time>2019-06-12T15:15:15Z</time>
      </trkpt>
      <trkpt lat="44.37782" lon="5.86886">
        <ele>814</ele>
        <time>2019-06-12T15:15:16Z</time>
      </trkpt>
      <trkpt lat="44.37774" lon="5.86882">
        <ele>814</ele>
        <time>2019-06-12T15:15:17Z</time>
      </trkpt>
      <trkpt lat="44.37765" lon="5.86879">
        <ele>813</ele>
        <time>2019-06-12T15:15:18Z</time>
      </trkpt>
      <trkpt lat="44.37756" lon="5.86876">
        <ele>812</ele>
        <time>2019-06-12T15:15:19Z</time>
      </trkpt>
      <trkpt lat="44.37747" lon="5.86874">
        <ele>812</ele>
        <time>2019-06-12T15:15:20Z</time>
      </trkpt>
      <trkpt lat="44.37738" lon="5.86874">
        <ele>811</ele>
        <time>2019-06-12T15:15:21Z</time>
      </trkpt>
      <trkpt lat="44.37728" lon="5.86878">
        <ele>810</ele>
        <time>2019-06-12T15:15:22Z</time>
      </trkpt>
      <trkpt lat="44.37719" lon="5.86883">
        <ele>810</ele>
        <time>2019-06-12T15:15:23Z</time>
      </trkpt>
      <trkpt lat="44.37712" lon="5.8689">
        <ele>809</ele>
        <time>2019-06-12T15:15:24Z</time>
      </trkpt>
      <trkpt lat="44.37704" lon="5.86898">
        <ele>808</ele>
        <time>2019-06-12T15:15:25Z</time>
      </trkpt>
      <trkpt lat="44.37698" lon="5.86907">
        <ele>807</ele>
        <time>2019-06-12T15:15:26Z</time>
      </trkpt>
      <trkpt lat="44.37691" lon="5.86914">
        <ele>807</ele>
        <time>2019-06-12T15:15:27Z</time>
      </trkpt>
      <trkpt lat="44.37685" lon="5.86921">
        <ele>806</ele>
        <time>2019-06-12T15:15:28Z</time>
      </trkpt>
      <trkpt lat="44.37678" lon="5.86927">
        <ele>805</ele>
        <time>2019-06-12T15:15:29Z</time>
      </trkpt>
      <trkpt lat="44.37671" lon="5.86932">
        <ele>805</ele>
        <time>2019-06-12T15:15:30Z</time>
      </trkpt>
      <trkpt lat="44.37663" lon="5.86936">
        <ele>804</ele>
        <time>2019-06-12T15:15:31Z</time>
      </trkpt>
      <trkpt lat="44.37656" lon="5.86939">
        <ele>803</ele>
        <time>2019-06-12T15:15:32Z</time>
      </trkpt>
      <trkpt lat="44.37648" lon="5.86942">
        <ele>803</ele>
        <time>2019-06-12T15:15:33Z</time>
      </trkpt>
      <trkpt lat="44.3764" lon="5.86944">
        <ele>802</ele>
        <time>2019-06-12T15:15:34Z</time>
      </trkpt>
      <trkpt lat="44.37632" lon="5.86945">
        <ele>801</ele>
        <time>2019-06-12T15:15:35Z</time>
      </trkpt>
      <trkpt lat="44.37624" lon="5.86946">
        <ele>801</ele>
        <time>2019-06-12T15:15:36Z</time>
      </trkpt>
      <trkpt lat="44.37618" lon="5.86946">
        <ele>800</ele>
        <time>2019-06-12T15:15:37Z</time>
      </trkpt>
      <trkpt lat="44.37612" lon="5.86946">
        <ele>799</ele>
        <time>2019-06-12T15:15:38Z</time>
      </trkpt>
      <trkpt lat="44.37607" lon="5.86946">
        <ele>798</ele>
        <time>2019-06-12T15:15:39Z</time>
      </trkpt>
      <trkpt lat="44.37603" lon="5.86948">
        <ele>797</ele>
        <time>2019-06-12T15:15:40Z</time>
      </trkpt>
      <trkpt lat="44.376" lon="5.86952">
        <ele>797</ele>
        <time>2019-06-12T15:15:41Z</time>
      </trkpt>
      <trkpt lat="44.37598" lon="5.8696">
        <ele>796</ele>
        <time>2019-06-12T15:15:42Z</time>
      </trkpt>
      <trkpt lat="44.37602" lon="5.86965">
        <ele>795</ele>
        <time>2019-06-12T15:15:43Z</time>
      </trkpt>
      <trkpt lat="44.37606" lon="5.86967">
        <ele>794</ele>
        <time>2019-06-12T15:15:44Z</time>
      </trkpt>
      <trkpt lat="44.37611" lon="5.86969">
        <ele>793</ele>
        <time>2019-06-12T15:15:45Z</time>
      </trkpt>
      <trkpt lat="44.37617" lon="5.8697">
        <ele>793</ele>
        <time>2019-06-12T15:15:46Z</time>
      </trkpt>
      <trkpt lat="44.37623" lon="5.86972">
        <ele>792</ele>
        <time>2019-06-12T15:15:47Z</time>
      </trkpt>
      <trkpt lat="44.37629" lon="5.86973">
        <ele>791</ele>
        <time>2019-06-12T15:15:48Z</time>
      </trkpt>
      <trkpt lat="44.37635" lon="5.86977">
        <ele>790</ele>
        <time>2019-06-12T15:15:49Z</time>
      </trkpt>
      <trkpt lat="44.37641" lon="5.86981">
        <ele>790</ele>
        <time>2019-06-12T15:15:50Z</time>
      </trkpt>
      <trkpt lat="44.37647" lon="5.86987">
        <ele>789</ele>
        <time>2019-06-12T15:15:51Z</time>
      </trkpt>
      <trkpt lat="44.37652" lon="5.86995">
        <ele>789</ele>
        <time>2019-06-12T15:15:52Z</time>
      </trkpt>
      <trkpt lat="44.37656" lon="5.87005">
        <ele>788</ele>
        <time>2019-06-12T15:15:53Z</time>
      </trkpt>
      <trkpt lat="44.37661" lon="5.87016">
        <ele>788</ele>
        <time>2019-06-12T15:15:54Z</time>
      </trkpt>
      <trkpt lat="44.37665" lon="5.87028">
        <ele>787</ele>
        <time>2019-06-12T15:15:55Z</time>
      </trkpt>
      <trkpt lat="44.37669" lon="5.87039">
        <ele>786</ele>
        <time>2019-06-12T15:15:56Z</time>
      </trkpt>
      <trkpt lat="44.37672" lon="5.8705">
        <ele>786</ele>
        <time>2019-06-12T15:15:57Z</time>
      </trkpt>
      <trkpt lat="44.37677" lon="5.87061">
        <ele>785</ele>
        <time>2019-06-12T15:15:58Z</time>
      </trkpt>
      <trkpt lat="44.37681" lon="5.87072">
        <ele>785</ele>
        <time>2019-06-12T15:15:59Z</time>
      </trkpt>
      <trkpt lat="44.37686" lon="5.87083">
        <ele>784</ele>
        <time>2019-06-12T15:16:00Z</time>
      </trkpt>
      <trkpt lat="44.37691" lon="5.87093">
        <ele>784</ele>
        <time>2019-06-12T15:16:01Z</time>
      </trkpt>
      <trkpt lat="44.37695" lon="5.87102">
        <ele>783</ele>
        <time>2019-06-12T15:16:02Z</time>
      </trkpt>
      <trkpt lat="44.377" lon="5.87112">
        <ele>782</ele>
        <time>2019-06-12T15:16:03Z</time>
      </trkpt>
      <trkpt lat="44.37704" lon="5.87121">
        <ele>782</ele>
        <time>2019-06-12T15:16:04Z</time>
      </trkpt>
      <trkpt lat="44.37708" lon="5.8713">
        <ele>781</ele>
        <time>2019-06-12T15:16:05Z</time>
      </trkpt>
      <trkpt lat="44.37709" lon="5.8714">
        <ele>780</ele>
        <time>2019-06-12T15:16:06Z</time>
      </trkpt>
      <trkpt lat="44.3771" lon="5.87149">
        <ele>779</ele>
        <time>2019-06-12T15:16:07Z</time>
      </trkpt>
      <trkpt lat="44.3771" lon="5.87159">
        <ele>778</ele>
        <time>2019-06-12T15:16:08Z</time>
      </trkpt>
      <trkpt lat="44.3771" lon="5.8717">
        <ele>777</ele>
        <time>2019-06-12T15:16:09Z</time>
      </trkpt>
      <trkpt lat="44.37712" lon="5.87181">
        <ele>776</ele>
        <time>2019-06-12T15:16:10Z</time>
      </trkpt>
      <trkpt lat="44.37714" lon="5.8719">
        <ele>776</ele>
        <time>2019-06-12T15:16:11Z</time>
      </trkpt>
      <trkpt lat="44.37718" lon="5.872">
        <ele>775</ele>
        <time>2019-06-12T15:16:12Z</time>
      </trkpt>
      <trkpt lat="44.37723" lon="5.8721">
        <ele>774</ele>
        <time>2019-06-12T15:16:13Z</time>
      </trkpt>
      <trkpt lat="44.37727" lon="5.8722">
        <ele>773</ele>
        <time>2019-06-12T15:16:14Z</time>
      </trkpt>
      <trkpt lat="44.37732" lon="5.8723">
        <ele>772</ele>
        <time>2019-06-12T15:16:15Z</time>
      </trkpt>
      <trkpt lat="44.37736" lon="5.87239">
        <ele>771</ele>
        <time>2019-06-12T15:16:16Z</time>
      </trkpt>
      <trkpt lat="44.3774" lon="5.87247">
        <ele>770</ele>
        <time>2019-06-12T15:16:17Z</time>
      </trkpt>
      <trkpt lat="44.37745" lon="5.87254">
        <ele>769</ele>
        <time>2019-06-12T15:16:18Z</time>
      </trkpt>
      <trkpt lat="44.3775" lon="5.87258">
        <ele>768</ele>
        <time>2019-06-12T15:16:19Z</time>
      </trkpt>
      <trkpt lat="44.37756" lon="5.87261">
        <ele>767</ele>
        <time>2019-06-12T15:16:20Z</time>
      </trkpt>
      <trkpt lat="44.37763" lon="5.87263">
        <ele>766</ele>
        <time>2019-06-12T15:16:21Z</time>
      </trkpt>
      <trkpt lat="44.37769" lon="5.87263">
        <ele>765</ele>
        <time>2019-06-12T15:16:22Z</time>
      </trkpt>
      <trkpt lat="44.37774" lon="5.87265">
        <ele>764</ele>
        <time>2019-06-12T15:16:23Z</time>
      </trkpt>
      <trkpt lat="44.37778" lon="5.87269">
        <ele>763</ele>
        <time>2019-06-12T15:16:24Z</time>
      </trkpt>
      <trkpt lat="44.37781" lon="5.87275">
        <ele>763</ele>
        <time>2019-06-12T15:16:25Z</time>
      </trkpt>
      <trkpt lat="44.3778" lon="5.87282">
        <ele>762</ele>
        <time>2019-06-12T15:16:26Z</time>
      </trkpt>
      <trkpt lat="44.37777" lon="5.87287">
        <ele>761</ele>
        <time>2019-06-12T15:16:27Z</time>
      </trkpt>
      <trkpt lat="44.37773" lon="5.87292">
        <ele>761</ele>
        <time>2019-06-12T15:16:28Z</time>
      </trkpt>
      <trkpt lat="44.37767" lon="5.87297">
        <ele>760</ele>
        <time>2019-06-12T15:16:29Z</time>
      </trkpt>
      <trkpt lat="44.37761" lon="5.87302">
        <ele>760</ele>
        <time>2019-06-12T15:16:30Z</time>
      </trkpt>
      <trkpt lat="44.37754" lon="5.87308">
        <ele>759</ele>
        <time>2019-06-12T15:16:31Z</time>
      </trkpt>
      <trkpt lat="44.37746" lon="5.87313">
        <ele>759</ele>
        <time>2019-06-12T15:16:32Z</time>
      </trkpt>
      <trkpt lat="44.37738" lon="5.87317">
        <ele>758</ele>
        <time>2019-06-12T15:16:33Z</time>
      </trkpt>
      <trkpt lat="44.37729" lon="5.87321">
        <ele>757</ele>
        <time>2019-06-12T15:16:34Z</time>
      </trkpt>
      <trkpt lat="44.3772" lon="5.87325">
        <ele>757</ele>
        <time>2019-06-12T15:16:35Z</time>
      </trkpt>
      <trkpt lat="44.37711" lon="5.87332">
        <ele>756</ele>
        <time>2019-06-12T15:16:36Z</time>
      </trkpt>
      <trkpt lat="44.37703" lon="5.87341">
        <ele>755</ele>
        <time>2019-06-12T15:16:37Z</time>
      </trkpt>
      <trkpt lat="44.37694" lon="5.87351">
        <ele>754</ele>
        <time>2019-06-12T15:16:38Z</time>
      </trkpt>
      <trkpt lat="44.37686" lon="5.87361">
        <ele>753</ele>
        <time>2019-06-12T15:16:39Z</time>
      </trkpt>
      <trkpt lat="44.37677" lon="5.87371">
        <ele>752</ele>
        <time>2019-06-12T15:16:40Z</time>
      </trkpt>
      <trkpt lat="44.37668" lon="5.87381">
        <ele>751</ele>
        <time>2019-06-12T15:16:41Z</time>
      </trkpt>
      <trkpt lat="44.37659" lon="5.8739">
        <ele>750</ele>
        <time>2019-06-12T15:16:42Z</time>
      </trkpt>
      <trkpt lat="44.3765" lon="5.87399">
        <ele>749</ele>
        <time>2019-06-12T15:16:43Z</time>
      </trkpt>
      <trkpt lat="44.37642" lon="5.87407">
        <ele>748</ele>
        <time>2019-06-12T15:16:44Z</time>
      </trkpt>
      <trkpt lat="44.37633" lon="5.87416">
        <ele>748</ele>
        <time>2019-06-12T15:16:45Z</time>
      </trkpt>
      <trkpt lat="44.37624" lon="5.87424">
        <ele>747</ele>
        <time>2019-06-12T15:16:46Z</time>
      </trkpt>
      <trkpt lat="44.37616" lon="5.87433">
        <ele>746</ele>
        <time>2019-06-12T15:16:47Z</time>
      </trkpt>
      <trkpt lat="44.3761" lon="5.87443">
        <ele>746</ele>
        <time>2019-06-12T15:16:48Z</time>
      </trkpt>
      <trkpt lat="44.37605" lon="5.87454">
        <ele>745</ele>
        <time>2019-06-12T15:16:49Z</time>
      </trkpt>
      <trkpt lat="44.37602" lon="5.87466">
        <ele>744</ele>
        <time>2019-06-12T15:16:50Z</time>
      </trkpt>
      <trkpt lat="44.37601" lon="5.8748">
        <ele>744</ele>
        <time>2019-06-12T15:16:51Z</time>
      </trkpt>
      <trkpt lat="44.37601" lon="5.87495">
        <ele>743</ele>
        <time>2019-06-12T15:16:52Z</time>
      </trkpt>
      <trkpt lat="44.37602" lon="5.8751">
        <ele>742</ele>
        <time>2019-06-12T15:16:53Z</time>
      </trkpt>
      <trkpt lat="44.37601" lon="5.87526">
        <ele>741</ele>
        <time>2019-06-12T15:16:54Z</time>
      </trkpt>
      <trkpt lat="44.376" lon="5.87541">
        <ele>740</ele>
        <time>2019-06-12T15:16:55Z</time>
      </trkpt>
      <trkpt lat="44.37598" lon="5.87557">
        <ele>740</ele>
        <time>2019-06-12T15:16:56Z</time>
      </trkpt>
      <trkpt lat="44.37598" lon="5.87572">
        <ele>739</ele>
        <time>2019-06-12T15:16:57Z</time>
      </trkpt>
      <trkpt lat="44.376" lon="5.87587">
        <ele>738</ele>
        <time>2019-06-12T15:16:58Z</time>
      </trkpt>
      <trkpt lat="44.37603" lon="5.87601">
        <ele>738</ele>
        <time>2019-06-12T15:16:59Z</time>
      </trkpt>
      <trkpt lat="44.37607" lon="5.87614">
        <ele>737</ele>
        <time>2019-06-12T15:17:00Z</time>
      </trkpt>
      <trkpt lat="44.37612" lon="5.87628">
        <ele>737</ele>
        <time>2019-06-12T15:17:01Z</time>
      </trkpt>
      <trkpt lat="44.37617" lon="5.87642">
        <ele>736</ele>
        <time>2019-06-12T15:17:02Z</time>
      </trkpt>
      <trkpt lat="44.3762" lon="5.87658">
        <ele>735</ele>
        <time>2019-06-12T15:17:03Z</time>
      </trkpt>
      <trkpt lat="44.37623" lon="5.87674">
        <ele>735</ele>
        <time>2019-06-12T15:17:04Z</time>
      </trkpt>
      <trkpt lat="44.37624" lon="5.87691">
        <ele>734</ele>
        <time>2019-06-12T15:17:05Z</time>
      </trkpt>
      <trkpt lat="44.37624" lon="5.87708">
        <ele>733</ele>
        <time>2019-06-12T15:17:06Z</time>
      </trkpt>
      <trkpt lat="44.37625" lon="5.87724">
        <ele>732</ele>
        <time>2019-06-12T15:17:07Z</time>
      </trkpt>
      <trkpt lat="44.37624" lon="5.87741">
        <ele>731</ele>
        <time>2019-06-12T15:17:08Z</time>
      </trkpt>
      <trkpt lat="44.37625" lon="5.87756">
        <ele>730</ele>
        <time>2019-06-12T15:17:09Z</time>
      </trkpt>
      <trkpt lat="44.37626" lon="5.87772">
        <ele>729</ele>
        <time>2019-06-12T15:17:10Z</time>
      </trkpt>
      <trkpt lat="44.37627" lon="5.87786">
        <ele>728</ele>
        <time>2019-06-12T15:17:11Z</time>
      </trkpt>
      <trkpt lat="44.37629" lon="5.878">
        <ele>727</ele>
        <time>2019-06-12T15:17:12Z</time>
      </trkpt>
      <trkpt lat="44.37632" lon="5.87814">
        <ele>726</ele>
        <time>2019-06-12T15:17:13Z</time>
      </trkpt>
      <trkpt lat="44.37636" lon="5.87827">
        <ele>725</ele>
        <time>2019-06-12T15:17:14Z</time>
      </trkpt>
      <trkpt lat="44.3764" lon="5.87841">
        <ele>724</ele>
        <time>2019-06-12T15:17:15Z</time>
      </trkpt>
      <trkpt lat="44.37644" lon="5.87856">
        <ele>723</ele>
        <time>2019-06-12T15:17:16Z</time>
      </trkpt>
      <trkpt lat="44.37648" lon="5.87871">
        <ele>722</ele>
        <time>2019-06-12T15:17:17Z</time>
      </trkpt>
      <trkpt lat="44.37651" lon="5.87886">
        <ele>721</ele>
        <time>2019-06-12T15:17:18Z</time>
      </trkpt>
      <trkpt lat="44.37654" lon="5.87902">
        <ele>720</ele>
        <time>2019-06-12T15:17:19Z</time>
      </trkpt>
      <trkpt lat="44.37657" lon="5.87919">
        <ele>719</ele>
        <time>2019-06-12T15:17:20Z</time>
      </trkpt>
      <trkpt lat="44.37659" lon="5.87935">
        <ele>718</ele>
        <time>2019-06-12T15:17:21Z</time>
      </trkpt>
      <trkpt lat="44.3766" lon="5.87952">
        <ele>717</ele>
        <time>2019-06-12T15:17:22Z</time>
      </trkpt>
      <trkpt lat="44.37661" lon="5.87968">
        <ele>716</ele>
        <time>2019-06-12T15:17:23Z</time>
      </trkpt>
      <trkpt lat="44.3766" lon="5.87985">
        <ele>715</ele>
        <time>2019-06-12T15:17:24Z</time>
      </trkpt>
      <trkpt lat="44.37659" lon="5.88001">
        <ele>714</ele>
        <time>2019-06-12T15:17:25Z</time>
      </trkpt>
      <trkpt lat="44.37658" lon="5.88017">
        <ele>713</ele>
        <time>2019-06-12T15:17:26Z</time>
      </trkpt>
      <trkpt lat="44.37657" lon="5.88032">
        <ele>712</ele>
        <time>2019-06-12T15:17:27Z</time>
      </trkpt>
      <trkpt lat="44.37656" lon="5.88048">
        <ele>711</ele>
        <time>2019-06-12T15:17:28Z</time>
      </trkpt>
      <trkpt lat="44.37654" lon="5.88063">
        <ele>710</ele>
        <time>2019-06-12T15:17:29Z</time>
      </trkpt>
      <trkpt lat="44.37653" lon="5.8808">
        <ele>709</ele>
        <time>2019-06-12T15:17:30Z</time>
      </trkpt>
      <trkpt lat="44.37651" lon="5.88096">
        <ele>708</ele>
        <time>2019-06-12T15:17:31Z</time>
      </trkpt>
      <trkpt lat="44.3765" lon="5.88112">
        <ele>707</ele>
        <time>2019-06-12T15:17:32Z</time>
      </trkpt>
      <trkpt lat="44.37649" lon="5.88129">
        <ele>706</ele>
        <time>2019-06-12T15:17:33Z</time>
      </trkpt>
      <trkpt lat="44.37647" lon="5.88146">
        <ele>705</ele>
        <time>2019-06-12T15:17:34Z</time>
      </trkpt>
      <trkpt lat="44.37646" lon="5.88162">
        <ele>704</ele>
        <time>2019-06-12T15:17:35Z</time>
      </trkpt>
      <trkpt lat="44.37645" lon="5.88178">
        <ele>702</ele>
        <time>2019-06-12T15:17:36Z</time>
      </trkpt>
      <trkpt lat="44.37643" lon="5.88195">
        <ele>701</ele>
        <time>2019-06-12T15:17:37Z</time>
      </trkpt>
      <trkpt lat="44.37642" lon="5.88211">
        <ele>700</ele>
        <time>2019-06-12T15:17:38Z</time>
      </trkpt>
      <trkpt lat="44.37642" lon="5.88228">
        <ele>699</ele>
        <time>2019-06-12T15:17:39Z</time>
      </trkpt>
      <trkpt lat="44.37643" lon="5.88243">
        <ele>698</ele>
        <time>2019-06-12T15:17:40Z</time>
      </trkpt>
      <trkpt lat="44.37645" lon="5.88259">
        <ele>697</ele>
        <time>2019-06-12T15:17:41Z</time>
      </trkpt>
      <trkpt lat="44.37647" lon="5.88273">
        <ele>696</ele>
        <time>2019-06-12T15:17:42Z</time>
      </trkpt>
      <trkpt lat="44.3765" lon="5.88288">
        <ele>695</ele>
        <time>2019-06-12T15:17:43Z</time>
      </trkpt>
      <trkpt lat="44.37653" lon="5.88304">
        <ele>694</ele>
        <time>2019-06-12T15:17:44Z</time>
      </trkpt>
      <trkpt lat="44.37656" lon="5.88319">
        <ele>693</ele>
        <time>2019-06-12T15:17:45Z</time>
      </trkpt>
      <trkpt lat="44.37659" lon="5.88334">
        <ele>692</ele>
        <time>2019-06-12T15:17:46Z</time>
      </trkpt>
      <trkpt lat="44.37661" lon="5.88348">
        <ele>691</ele>
        <time>2019-06-12T15:17:47Z</time>
      </trkpt>
      <trkpt lat="44.37664" lon="5.88364">
        <ele>690</ele>
        <time>2019-06-12T15:17:48Z</time>
      </trkpt>
      <trkpt lat="44.37667" lon="5.88378">
        <ele>689</ele>
        <time>2019-06-12T15:17:49Z</time>
      </trkpt>
      <trkpt lat="44.37672" lon="5.88393">
        <ele>688</ele>
        <time>2019-06-12T15:17:50Z</time>
      </trkpt>
      <trkpt lat="44.37677" lon="5.88407">
        <ele>687</ele>
        <time>2019-06-12T15:17:51Z</time>
      </trkpt>
      <trkpt lat="44.37682" lon="5.88421">
        <ele>686</ele>
        <time>2019-06-12T15:17:52Z</time>
      </trkpt>
      <trkpt lat="44.37688" lon="5.88435">
        <ele>685</ele>
        <time>2019-06-12T15:17:53Z</time>
      </trkpt>
      <trkpt lat="44.37693" lon="5.88448">
        <ele>684</ele>
        <time>2019-06-12T15:17:54Z</time>
      </trkpt>
      <trkpt lat="44.37698" lon="5.88461">
        <ele>683</ele>
        <time>2019-06-12T15:17:55Z</time>
      </trkpt>
      <trkpt lat="44.37702" lon="5.88472">
        <ele>682</ele>
        <time>2019-06-12T15:17:56Z</time>
      </trkpt>
      <trkpt lat="44.37705" lon="5.88483">
        <ele>681</ele>
        <time>2019-06-12T15:17:57Z</time>
      </trkpt>
      <trkpt lat="44.37706" lon="5.88494">
        <ele>680</ele>
        <time>2019-06-12T15:17:58Z</time>
      </trkpt>
      <trkpt lat="44.37706" lon="5.88504">
        <ele>679</ele>
        <time>2019-06-12T15:17:59Z</time>
      </trkpt>
      <trkpt lat="44.37703" lon="5.88514">
        <ele>678</ele>
        <time>2019-06-12T15:18:00Z</time>
      </trkpt>
      <trkpt lat="44.37699" lon="5.88523">
        <ele>678</ele>
        <time>2019-06-12T15:18:01Z</time>
      </trkpt>
      <trkpt lat="44.37695" lon="5.88532">
        <ele>677</ele>
        <time>2019-06-12T15:18:02Z</time>
      </trkpt>
      <trkpt lat="44.3769" lon="5.88541">
        <ele>677</ele>
        <time>2019-06-12T15:18:03Z</time>
      </trkpt>
      <trkpt lat="44.37685" lon="5.8855">
        <ele>677</ele>
        <time>2019-06-12T15:18:04Z</time>
      </trkpt>
      <trkpt lat="44.37681" lon="5.8856">
        <ele>676</ele>
        <time>2019-06-12T15:18:05Z</time>
      </trkpt>
      <trkpt lat="44.37677" lon="5.8857">
        <ele>676</ele>
        <time>2019-06-12T15:18:06Z</time>
      </trkpt>
      <trkpt lat="44.37672" lon="5.8858">
        <ele>676</ele>
        <time>2019-06-12T15:18:07Z</time>
      </trkpt>
      <trkpt lat="44.37667" lon="5.88591">
        <ele>675</ele>
        <time>2019-06-12T15:18:08Z</time>
      </trkpt>
      <trkpt lat="44.37663" lon="5.88601">
        <ele>675</ele>
        <time>2019-06-12T15:18:09Z</time>
      </trkpt>
      <trkpt lat="44.37658" lon="5.88612">
        <ele>674</ele>
        <time>2019-06-12T15:18:10Z</time>
      </trkpt>
      <trkpt lat="44.37653" lon="5.88624">
        <ele>674</ele>
        <time>2019-06-12T15:18:11Z</time>
      </trkpt>
      <trkpt lat="44.37648" lon="5.88635">
        <ele>674</ele>
        <time>2019-06-12T15:18:12Z</time>
      </trkpt>
      <trkpt lat="44.37643" lon="5.88646">
        <ele>673</ele>
        <time>2019-06-12T15:18:13Z</time>
      </trkpt>
      <trkpt lat="44.37638" lon="5.88658">
        <ele>673</ele>
        <time>2019-06-12T15:18:14Z</time>
      </trkpt>
      <trkpt lat="44.37634" lon="5.88669">
        <ele>672</ele>
        <time>2019-06-12T15:18:15Z</time>
      </trkpt>
      <trkpt lat="44.37629" lon="5.88681">
        <ele>672</ele>
        <time>2019-06-12T15:18:16Z</time>
      </trkpt>
      <trkpt lat="44.37624" lon="5.88693">
        <ele>671</ele>
        <time>2019-06-12T15:18:17Z</time>
      </trkpt>
      <trkpt lat="44.37619" lon="5.88705">
        <ele>671</ele>
        <time>2019-06-12T15:18:18Z</time>
      </trkpt>
      <trkpt lat="44.37614" lon="5.88717">
        <ele>670</ele>
        <time>2019-06-12T15:18:19Z</time>
      </trkpt>
      <trkpt lat="44.37609" lon="5.8873">
        <ele>670</ele>
        <time>2019-06-12T15:18:20Z</time>
      </trkpt>
      <trkpt lat="44.37603" lon="5.88742">
        <ele>669</ele>
        <time>2019-06-12T15:18:21Z</time>
      </trkpt>
      <trkpt lat="44.37598" lon="5.88754">
        <ele>669</ele>
        <time>2019-06-12T15:18:22Z</time>
      </trkpt>
      <trkpt lat="44.37593" lon="5.88766">
        <ele>669</ele>
        <time>2019-06-12T15:18:23Z</time>
      </trkpt>
      <trkpt lat="44.37588" lon="5.88778">
        <ele>668</ele>
        <time>2019-06-12T15:18:24Z</time>
      </trkpt>
      <trkpt lat="44.37582" lon="5.88789">
        <ele>668</ele>
        <time>2019-06-12T15:18:25Z</time>
      </trkpt>
      <trkpt lat="44.37576" lon="5.88799">
        <ele>668</ele>
        <time>2019-06-12T15:18:26Z</time>
      </trkpt>
      <trkpt lat="44.37569" lon="5.88807">
        <ele>668</ele>
        <time>2019-06-12T15:18:27Z</time>
      </trkpt>
      <trkpt lat="44.37562" lon="5.88815">
        <ele>667</ele>
        <time>2019-06-12T15:18:28Z</time>
      </trkpt>
      <trkpt lat="44.37555" lon="5.88823">
        <ele>667</ele>
        <time>2019-06-12T15:18:29Z</time>
      </trkpt>
      <trkpt lat="44.37547" lon="5.8883">
        <ele>667</ele>
        <time>2019-06-12T15:18:30Z</time>
      </trkpt>
      <trkpt lat="44.3754" lon="5.88838">
        <ele>667</ele>
        <time>2019-06-12T15:18:31Z</time>
      </trkpt>
      <trkpt lat="44.37533" lon="5.88845">
        <ele>667</ele>
        <time>2019-06-12T15:18:32Z</time>
      </trkpt>
      <trkpt lat="44.37526" lon="5.88852">
        <ele>667</ele>
        <time>2019-06-12T15:18:33Z</time>
      </trkpt>
      <trkpt lat="44.37519" lon="5.88859">
        <ele>667</ele>
        <time>2019-06-12T15:18:34Z</time>
      </trkpt>
      <trkpt lat="44.37512" lon="5.88866">
        <ele>666</ele>
        <time>2019-06-12T15:18:35Z</time>
      </trkpt>
      <trkpt lat="44.37505" lon="5.88873">
        <ele>666</ele>
        <time>2019-06-12T15:18:36Z</time>
      </trkpt>
      <trkpt lat="44.37498" lon="5.8888">
        <ele>666</ele>
        <time>2019-06-12T15:18:37Z</time>
      </trkpt>
      <trkpt lat="44.37491" lon="5.88887">
        <ele>666</ele>
        <time>2019-06-12T15:18:38Z</time>
      </trkpt>
      <trkpt lat="44.37484" lon="5.88894">
        <ele>666</ele>
        <time>2019-06-12T15:18:39Z</time>
      </trkpt>
      <trkpt lat="44.37478" lon="5.889">
        <ele>666</ele>
        <time>2019-06-12T15:18:40Z</time>
      </trkpt>
      <trkpt lat="44.37471" lon="5.88906">
        <ele>665</ele>
        <time>2019-06-12T15:18:41Z</time>
      </trkpt>
      <trkpt lat="44.37464" lon="5.88913">
        <ele>665</ele>
        <time>2019-06-12T15:18:42Z</time>
      </trkpt>
      <trkpt lat="44.37457" lon="5.8892">
        <ele>665</ele>
        <time>2019-06-12T15:18:43Z</time>
      </trkpt>
      <trkpt lat="44.3745" lon="5.88928">
        <ele>665</ele>
        <time>2019-06-12T15:18:44Z</time>
      </trkpt>
      <trkpt lat="44.37444" lon="5.88937">
        <ele>664</ele>
        <time>2019-06-12T15:18:45Z</time>
      </trkpt>
      <trkpt lat="44.37438" lon="5.88947">
        <ele>664</ele>
        <time>2019-06-12T15:18:46Z</time>
      </trkpt>
      <trkpt lat="44.37432" lon="5.88958">
        <ele>663</ele>
        <time>2019-06-12T15:18:47Z</time>
      </trkpt>
      <trkpt lat="44.37428" lon="5.88971">
        <ele>662</ele>
        <time>2019-06-12T15:18:48Z</time>
      </trkpt>
      <trkpt lat="44.37425" lon="5.88983">
        <ele>661</ele>
        <time>2019-06-12T15:18:49Z</time>
      </trkpt>
      <trkpt lat="44.37422" lon="5.88997">
        <ele>661</ele>
        <time>2019-06-12T15:18:50Z</time>
      </trkpt>
      <trkpt lat="44.3742" lon="5.8901">
        <ele>660</ele>
        <time>2019-06-12T15:18:51Z</time>
      </trkpt>
      <trkpt lat="44.37417" lon="5.89023">
        <ele>659</ele>
        <time>2019-06-12T15:18:52Z</time>
      </trkpt>
      <trkpt lat="44.37415" lon="5.89037">
        <ele>658</ele>
        <time>2019-06-12T15:18:53Z</time>
      </trkpt>
      <trkpt lat="44.37415" lon="5.8905">
        <ele>658</ele>
        <time>2019-06-12T15:18:54Z</time>
      </trkpt>
      <trkpt lat="44.37415" lon="5.89064">
        <ele>657</ele>
        <time>2019-06-12T15:18:55Z</time>
      </trkpt>
      <trkpt lat="44.37418" lon="5.89077">
        <ele>656</ele>
        <time>2019-06-12T15:18:56Z</time>
      </trkpt>
      <trkpt lat="44.37421" lon="5.89089">
        <ele>655</ele>
        <time>2019-06-12T15:18:57Z</time>
      </trkpt>
      <trkpt lat="44.37425" lon="5.89101">
        <ele>654</ele>
        <time>2019-06-12T15:18:58Z</time>
      </trkpt>
      <trkpt lat="44.3743" lon="5.89113">
        <ele>653</ele>
        <time>2019-06-12T15:18:59Z</time>
      </trkpt>
      <trkpt lat="44.37436" lon="5.89124">
        <ele>652</ele>
        <time>2019-06-12T15:19:00Z</time>
      </trkpt>
      <trkpt lat="44.37442" lon="5.89136">
        <ele>651</ele>
        <time>2019-06-12T15:19:01Z</time>
      </trkpt>
      <trkpt lat="44.37448" lon="5.89147">
        <ele>650</ele>
        <time>2019-06-12T15:19:02Z</time>
      </trkpt>
      <trkpt lat="44.37453" lon="5.89159">
        <ele>649</ele>
        <time>2019-06-12T15:19:03Z</time>
      </trkpt>
      <trkpt lat="44.37457" lon="5.89172">
        <ele>649</ele>
        <time>2019-06-12T15:19:04Z</time>
      </trkpt>
      <trkpt lat="44.3746" lon="5.89186">
        <ele>648</ele>
        <time>2019-06-12T15:19:05Z</time>
      </trkpt>
      <trkpt lat="44.37462" lon="5.89201">
        <ele>647</ele>
        <time>2019-06-12T15:19:06Z</time>
      </trkpt>
      <trkpt lat="44.37463" lon="5.89217">
        <ele>646</ele>
        <time>2019-06-12T15:19:07Z</time>
      </trkpt>
      <trkpt lat="44.37464" lon="5.89232">
        <ele>646</ele>
        <time>2019-06-12T15:19:08Z</time>
      </trkpt>
      <trkpt lat="44.37464" lon="5.89248">
        <ele>645</ele>
        <time>2019-06-12T15:19:09Z</time>
      </trkpt>
      <trkpt lat="44.37461" lon="5.89262">
        <ele>644</ele>
        <time>2019-06-12T15:19:10Z</time>
      </trkpt>
      <trkpt lat="44.37458" lon="5.89277">
        <ele>643</ele>
        <time>2019-06-12T15:19:11Z</time>
      </trkpt>
      <trkpt lat="44.37456" lon="5.89291">
        <ele>642</ele>
        <time>2019-06-12T15:19:12Z</time>
      </trkpt>
      <trkpt lat="44.37452" lon="5.89306">
        <ele>641</ele>
        <time>2019-06-12T15:19:13Z</time>
      </trkpt>
      <trkpt lat="44.3745" lon="5.89321">
        <ele>640</ele>
        <time>2019-06-12T15:19:14Z</time>
      </trkpt>
      <trkpt lat="44.37448" lon="5.89336">
        <ele>639</ele>
        <time>2019-06-12T15:19:15Z</time>
      </trkpt>
      <trkpt lat="44.37447" lon="5.89352">
        <ele>638</ele>
        <time>2019-06-12T15:19:16Z</time>
      </trkpt>
      <trkpt lat="44.37446" lon="5.89367">
        <ele>637</ele>
        <time>2019-06-12T15:19:17Z</time>
      </trkpt>
      <trkpt lat="44.37445" lon="5.89382">
        <ele>636</ele>
        <time>2019-06-12T15:19:18Z</time>
      </trkpt>
      <trkpt lat="44.37444" lon="5.89397">
        <ele>635</ele>
        <time>2019-06-12T15:19:19Z</time>
      </trkpt>
      <trkpt lat="44.37443" lon="5.89412">
        <ele>634</ele>
        <time>2019-06-12T15:19:20Z</time>
      </trkpt>
      <trkpt lat="44.37442" lon="5.89427">
        <ele>633</ele>
        <time>2019-06-12T15:19:21Z</time>
      </trkpt>
      <trkpt lat="44.3744" lon="5.89441">
        <ele>632</ele>
        <time>2019-06-12T15:19:22Z</time>
      </trkpt>
      <trkpt lat="44.37437" lon="5.89454">
        <ele>631</ele>
        <time>2019-06-12T15:19:23Z</time>
      </trkpt>
      <trkpt lat="44.37433" lon="5.89467">
        <ele>630</ele>
        <time>2019-06-12T15:19:24Z</time>
      </trkpt>
      <trkpt lat="44.37427" lon="5.89479">
        <ele>629</ele>
        <time>2019-06-12T15:19:25Z</time>
      </trkpt>
      <trkpt lat="44.3742" lon="5.8949">
        <ele>628</ele>
        <time>2019-06-12T15:19:26Z</time>
      </trkpt>
      <trkpt lat="44.37413" lon="5.895">
        <ele>627</ele>
        <time>2019-06-12T15:19:27Z</time>
      </trkpt>
      <trkpt lat="44.37407" lon="5.89512">
        <ele>626</ele>
        <time>2019-06-12T15:19:28Z</time>
      </trkpt>
      <trkpt lat="44.37402" lon="5.89526">
        <ele>625</ele>
        <time>2019-06-12T15:19:29Z</time>
      </trkpt>
      <trkpt lat="44.37399" lon="5.8954">
        <ele>624</ele>
        <time>2019-06-12T15:19:30Z</time>
      </trkpt>
      <trkpt lat="44.37396" lon="5.89554">
        <ele>623</ele>
        <time>2019-06-12T15:19:31Z</time>
      </trkpt>
      <trkpt lat="44.37392" lon="5.89568">
        <ele>622</ele>
        <time>2019-06-12T15:19:32Z</time>
      </trkpt>
      <trkpt lat="44.37386" lon="5.89581">
        <ele>621</ele>
        <time>2019-06-12T15:19:33Z</time>
      </trkpt>
      <trkpt lat="44.37379" lon="5.89594">
        <ele>620</ele>
        <time>2019-06-12T15:19:34Z</time>
      </trkpt>
      <trkpt lat="44.37372" lon="5.89608">
        <ele>619</ele>
        <time>2019-06-12T15:19:35Z</time>
      </trkpt>
      <trkpt lat="44.37366" lon="5.89621">
        <ele>618</ele>
        <time>2019-06-12T15:19:36Z</time>
      </trkpt>
      <trkpt lat="44.37359" lon="5.89635">
        <ele>617</ele>
        <time>2019-06-12T15:19:37Z</time>
      </trkpt>
      <trkpt lat="44.37352" lon="5.8965">
        <ele>616</ele>
        <time>2019-06-12T15:19:38Z</time>
      </trkpt>
      <trkpt lat="44.37346" lon="5.89664">
        <ele>615</ele>
        <time>2019-06-12T15:19:39Z</time>
      </trkpt>
      <trkpt lat="44.3734" lon="5.89679">
        <ele>614</ele>
        <time>2019-06-12T15:19:40Z</time>
      </trkpt>
      <trkpt lat="44.37333" lon="5.89693">
        <ele>613</ele>
        <time>2019-06-12T15:19:41Z</time>
      </trkpt>
      <trkpt lat="44.37326" lon="5.89707">
        <ele>612</ele>
        <time>2019-06-12T15:19:42Z</time>
      </trkpt>
      <trkpt lat="44.3732" lon="5.89721">
        <ele>611</ele>
        <time>2019-06-12T15:19:43Z</time>
      </trkpt>
      <trkpt lat="44.37313" lon="5.89734">
        <ele>610</ele>
        <time>2019-06-12T15:19:44Z</time>
      </trkpt>
      <trkpt lat="44.37305" lon="5.89745">
        <ele>609</ele>
        <time>2019-06-12T15:19:45Z</time>
      </trkpt>
      <trkpt lat="44.37297" lon="5.89755">
        <ele>609</ele>
        <time>2019-06-12T15:19:46Z</time>
      </trkpt>
      <trkpt lat="44.37287" lon="5.89764">
        <ele>608</ele>
        <time>2019-06-12T15:19:47Z</time>
      </trkpt>
      <trkpt lat="44.37277" lon="5.89773">
        <ele>608</ele>
        <time>2019-06-12T15:19:48Z</time>
      </trkpt>
      <trkpt lat="44.37268" lon="5.89781">
        <ele>608</ele>
        <time>2019-06-12T15:19:49Z</time>
      </trkpt>
      <trkpt lat="44.37259" lon="5.8979">
        <ele>608</ele>
        <time>2019-06-12T15:19:50Z</time>
      </trkpt>
      <trkpt lat="44.3725" lon="5.89801">
        <ele>608</ele>
        <time>2019-06-12T15:19:51Z</time>
      </trkpt>
      <trkpt lat="44.37243" lon="5.89812">
        <ele>607</ele>
        <time>2019-06-12T15:19:52Z</time>
      </trkpt>
      <trkpt lat="44.37236" lon="5.89825">
        <ele>606</ele>
        <time>2019-06-12T15:19:53Z</time>
      </trkpt>
      <trkpt lat="44.37231" lon="5.8984">
        <ele>606</ele>
        <time>2019-06-12T15:19:54Z</time>
      </trkpt>
      <trkpt lat="44.37226" lon="5.89855">
        <ele>605</ele>
        <time>2019-06-12T15:19:55Z</time>
      </trkpt>
      <trkpt lat="44.37222" lon="5.89871">
        <ele>605</ele>
        <time>2019-06-12T15:19:56Z</time>
      </trkpt>
      <trkpt lat="44.37218" lon="5.89886">
        <ele>605</ele>
        <time>2019-06-12T15:19:57Z</time>
      </trkpt>
      <trkpt lat="44.37214" lon="5.89899">
        <ele>605</ele>
        <time>2019-06-12T15:19:58Z</time>
      </trkpt>
      <trkpt lat="44.37211" lon="5.89912">
        <ele>605</ele>
        <time>2019-06-12T15:19:59Z</time>
      </trkpt>
      <trkpt lat="44.37207" lon="5.89923">
        <ele>605</ele>
        <time>2019-06-12T15:20:00Z</time>
      </trkpt>
      <trkpt lat="44.37205" lon="5.89933">
        <ele>605</ele>
        <time>2019-06-12T15:20:01Z</time>
      </trkpt>
      <trkpt lat="44.37202" lon="5.89943">
        <ele>605</ele>
        <time>2019-06-12T15:20:02Z</time>
      </trkpt>
      <trkpt lat="44.37199" lon="5.89951">
        <ele>605</ele>
        <time>2019-06-12T15:20:03Z</time>
      </trkpt>
      <trkpt lat="44.37196" lon="5.89959">
        <ele>605</ele>
        <time>2019-06-12T15:20:04Z</time>
      </trkpt>
      <trkpt lat="44.37194" lon="5.89964">
        <ele>605</ele>
        <time>2019-06-12T15:20:05Z</time>
      </trkpt>
      <trkpt lat="44.37192" lon="5.89967">
        <ele>605</ele>
        <time>2019-06-12T15:20:06Z</time>
      </trkpt>
      <trkpt lat="44.3719" lon="5.8997">
        <ele>605</ele>
        <time>2019-06-12T15:20:07Z</time>
      </trkpt>
      <trkpt lat="44.37188" lon="5.8997">
        <ele>605</ele>
        <time>2019-06-12T15:20:08Z</time>
      </trkpt>
      <trkpt lat="44.37186" lon="5.89968">
        <ele>604</ele>
        <time>2019-06-12T15:20:09Z</time>
      </trkpt>
      <trkpt lat="44.37183" lon="5.89966">
        <ele>604</ele>
        <time>2019-06-12T15:20:10Z</time>
      </trkpt>
      <trkpt lat="44.3718" lon="5.89964">
        <ele>604</ele>
        <time>2019-06-12T15:20:11Z</time>
      </trkpt>
      <trkpt lat="44.37176" lon="5.89962">
        <ele>603</ele>
        <time>2019-06-12T15:20:12Z</time>
      </trkpt>
      <trkpt lat="44.37172" lon="5.89959">
        <ele>603</ele>
        <time>2019-06-12T15:20:13Z</time>
      </trkpt>
      <trkpt lat="44.37169" lon="5.89956">
        <ele>602</ele>
        <time>2019-06-12T15:20:14Z</time>
      </trkpt>
      <trkpt lat="44.37164" lon="5.89954">
        <ele>602</ele>
        <time>2019-06-12T15:20:15Z</time>
      </trkpt>
      <trkpt lat="44.3716" lon="5.89952">
        <ele>602</ele>
        <time>2019-06-12T15:20:16Z</time>
      </trkpt>
      <trkpt lat="44.37155" lon="5.8995">
        <ele>602</ele>
        <time>2019-06-12T15:20:17Z</time>
      </trkpt>
      <trkpt lat="44.3715" lon="5.89949">
        <ele>602</ele>
        <time>2019-06-12T15:20:18Z</time>
      </trkpt>
      <trkpt lat="44.37144" lon="5.89949">
        <ele>602</ele>
        <time>2019-06-12T15:20:19Z</time>
      </trkpt>
      <trkpt lat="44.37139" lon="5.89949">
        <ele>602</ele>
        <time>2019-06-12T15:20:20Z</time>
      </trkpt>
      <trkpt lat="44.37134" lon="5.89951">
        <ele>602</ele>
        <time>2019-06-12T15:20:21Z</time>
      </trkpt>
      <trkpt lat="44.37129" lon="5.89952">
        <ele>602</ele>
        <time>2019-06-12T15:20:22Z</time>
      </trkpt>
      <trkpt lat="44.37124" lon="5.89954">
        <ele>602</ele>
        <time>2019-06-12T15:20:23Z</time>
      </trkpt>
      <trkpt lat="44.37119" lon="5.89957">
        <ele>602</ele>
        <time>2019-06-12T15:20:24Z</time>
      </trkpt>
      <trkpt lat="44.37115" lon="5.8996">
        <ele>602</ele>
        <time>2019-06-12T15:20:25Z</time>
      </trkpt>
      <trkpt lat="44.37111" lon="5.89965">
        <ele>602</ele>
        <time>2019-06-12T15:20:26Z</time>
      </trkpt>
      <trkpt lat="44.37107" lon="5.89969">
        <ele>602</ele>
        <time>2019-06-12T15:20:27Z</time>
      </trkpt>
      <trkpt lat="44.37103" lon="5.89973">
        <ele>602</ele>
        <time>2019-06-12T15:20:28Z</time>
      </trkpt>
      <trkpt lat="44.37099" lon="5.89978">
        <ele>602</ele>
        <time>2019-06-12T15:20:29Z</time>
      </trkpt>
      <trkpt lat="44.37096" lon="5.89982">
        <ele>602</ele>
        <time>2019-06-12T15:20:30Z</time>
      </trkpt>
      <trkpt lat="44.37092" lon="5.89986">
        <ele>602</ele>
        <time>2019-06-12T15:20:31Z</time>
      </trkpt>
      <trkpt lat="44.37088" lon="5.8999">
        <ele>602</ele>
        <time>2019-06-12T15:20:32Z</time>
      </trkpt>
      <trkpt lat="44.37085" lon="5.89994">
        <ele>602</ele>
        <time>2019-06-12T15:20:33Z</time>
      </trkpt>
      <trkpt lat="44.37081" lon="5.89997">
        <ele>602</ele>
        <time>2019-06-12T15:20:34Z</time>
      </trkpt>
      <trkpt lat="44.37077" lon="5.9">
        <ele>602</ele>
        <time>2019-06-12T15:20:35Z</time>
      </trkpt>
      <trkpt lat="44.37074" lon="5.90002">
        <ele>602</ele>
        <time>2019-06-12T15:20:36Z</time>
      </trkpt>
      <trkpt lat="44.3707" lon="5.90004">
        <ele>602</ele>
        <time>2019-06-12T15:20:37Z</time>
      </trkpt>
      <trkpt lat="44.37067" lon="5.90006">
        <ele>602</ele>
        <time>2019-06-12T15:20:38Z</time>
      </trkpt>
      <trkpt lat="44.37063" lon="5.90008">
        <ele>602</ele>
        <time>2019-06-12T15:20:39Z</time>
      </trkpt>
      <trkpt lat="44.37059" lon="5.90009">
        <ele>602</ele>
        <time>2019-06-12T15:20:40Z</time>
      </trkpt>
      <trkpt lat="44.37055" lon="5.9001">
        <ele>602</ele>
        <time>2019-06-12T15:20:41Z</time>
      </trkpt>
      <trkpt lat="44.37051" lon="5.9001">
        <ele>602</ele>
        <time>2019-06-12T15:20:42Z</time>
      </trkpt>
      <trkpt lat="44.37048" lon="5.90011">
        <ele>602</ele>
        <time>2019-06-12T15:20:43Z</time>
      </trkpt>
      <trkpt lat="44.37044" lon="5.9001">
        <ele>603</ele>
        <time>2019-06-12T15:20:44Z</time>
      </trkpt>
      <trkpt lat="44.3704" lon="5.9001">
        <ele>603</ele>
        <time>2019-06-12T15:20:45Z</time>
      </trkpt>
      <trkpt lat="44.37037" lon="5.9001">
        <ele>603</ele>
        <time>2019-06-12T15:20:46Z</time>
      </trkpt>
      <trkpt lat="44.37033" lon="5.90009">
        <ele>603</ele>
        <time>2019-06-12T15:20:47Z</time>
      </trkpt>
      <trkpt lat="44.37029" lon="5.90008">
        <ele>604</ele>
        <time>2019-06-12T15:20:48Z</time>
      </trkpt>
      <trkpt lat="44.37025" lon="5.90007">
        <ele>604</ele>
        <time>2019-06-12T15:20:49Z</time>
      </trkpt>
      <trkpt lat="44.37021" lon="5.90005">
        <ele>604</ele>
        <time>2019-06-12T15:20:50Z</time>
      </trkpt>
      <trkpt lat="44.37017" lon="5.90004">
        <ele>604</ele>
        <time>2019-06-12T15:20:51Z</time>
      </trkpt>
      <trkpt lat="44.37013" lon="5.90003">
        <ele>604</ele>
        <time>2019-06-12T15:20:52Z</time>
      </trkpt>
      <trkpt lat="44.37009" lon="5.90001">
        <ele>604</ele>
        <time>2019-06-12T15:20:53Z</time>
      </trkpt>
      <trkpt lat="44.37004" lon="5.89999">
        <ele>604</ele>
        <time>2019-06-12T15:20:54Z</time>
      </trkpt>
      <trkpt lat="44.36999" lon="5.89997">
        <ele>604</ele>
        <time>2019-06-12T15:20:55Z</time>
      </trkpt>
      <trkpt lat="44.36994" lon="5.89994">
        <ele>604</ele>
        <time>2019-06-12T15:20:56Z</time>
      </trkpt>
      <trkpt lat="44.36989" lon="5.89992">
        <ele>604</ele>
        <time>2019-06-12T15:20:57Z</time>
      </trkpt>
      <trkpt lat="44.36984" lon="5.8999">
        <ele>604</ele>
        <time>2019-06-12T15:20:58Z</time>
      </trkpt>
      <trkpt lat="44.36978" lon="5.89987">
        <ele>604</ele>
        <time>2019-06-12T15:20:59Z</time>
      </trkpt>
      <trkpt lat="44.36972" lon="5.89984">
        <ele>604</ele>
        <time>2019-06-12T15:21:00Z</time>
      </trkpt>
      <trkpt lat="44.36966" lon="5.89981">
        <ele>604</ele>
        <time>2019-06-12T15:21:01Z</time>
      </trkpt>
      <trkpt lat="44.36959" lon="5.89978">
        <ele>604</ele>
        <time>2019-06-12T15:21:02Z</time>
      </trkpt>
      <trkpt lat="44.36953" lon="5.89974">
        <ele>604</ele>
        <time>2019-06-12T15:21:03Z</time>
      </trkpt>
      <trkpt lat="44.36946" lon="5.89971">
        <ele>604</ele>
        <time>2019-06-12T15:21:04Z</time>
      </trkpt>
      <trkpt lat="44.36939" lon="5.89967">
        <ele>604</ele>
        <time>2019-06-12T15:21:05Z</time>
      </trkpt>
      <trkpt lat="44.36932" lon="5.89962">
        <ele>604</ele>
        <time>2019-06-12T15:21:06Z</time>
      </trkpt>
      <trkpt lat="44.36924" lon="5.89958">
        <ele>604</ele>
        <time>2019-06-12T15:21:07Z</time>
      </trkpt>
      <trkpt lat="44.36917" lon="5.89953">
        <ele>604</ele>
        <time>2019-06-12T15:21:08Z</time>
      </trkpt>
      <trkpt lat="44.36909" lon="5.89949">
        <ele>604</ele>
        <time>2019-06-12T15:21:09Z</time>
      </trkpt>
      <trkpt lat="44.36901" lon="5.89944">
        <ele>604</ele>
        <time>2019-06-12T15:21:10Z</time>
      </trkpt>
      <trkpt lat="44.36893" lon="5.89939">
        <ele>603</ele>
        <time>2019-06-12T15:21:11Z</time>
      </trkpt>
      <trkpt lat="44.36885" lon="5.89934">
        <ele>603</ele>
        <time>2019-06-12T15:21:12Z</time>
      </trkpt>
      <trkpt lat="44.36877" lon="5.89929">
        <ele>603</ele>
        <time>2019-06-12T15:21:13Z</time>
      </trkpt>
      <trkpt lat="44.36869" lon="5.89923">
        <ele>602</ele>
        <time>2019-06-12T15:21:14Z</time>
      </trkpt>
      <trkpt lat="44.36861" lon="5.89917">
        <ele>602</ele>
        <time>2019-06-12T15:21:15Z</time>
      </trkpt>
      <trkpt lat="44.36852" lon="5.8991">
        <ele>601</ele>
        <time>2019-06-12T15:21:16Z</time>
      </trkpt>
      <trkpt lat="44.36844" lon="5.89902">
        <ele>601</ele>
        <time>2019-06-12T15:21:17Z</time>
      </trkpt>
      <trkpt lat="44.36837" lon="5.89894">
        <ele>600</ele>
        <time>2019-06-12T15:21:18Z</time>
      </trkpt>
      <trkpt lat="44.3683" lon="5.89886">
        <ele>599</ele>
        <time>2019-06-12T15:21:19Z</time>
      </trkpt>
      <trkpt lat="44.36823" lon="5.89877">
        <ele>599</ele>
        <time>2019-06-12T15:21:20Z</time>
      </trkpt>
      <trkpt lat="44.36816" lon="5.89869">
        <ele>599</ele>
        <time>2019-06-12T15:21:21Z</time>
      </trkpt>
      <trkpt lat="44.36811" lon="5.8986">
        <ele>599</ele>
        <time>2019-06-12T15:21:22Z</time>
      </trkpt>
      <trkpt lat="44.36805" lon="5.89853">
        <ele>599</ele>
        <time>2019-06-12T15:21:23Z</time>
      </trkpt>
      <trkpt lat="44.368" lon="5.89845">
        <ele>599</ele>
        <time>2019-06-12T15:21:24Z</time>
      </trkpt>
      <trkpt lat="44.36797" lon="5.89836">
        <ele>599</ele>
        <time>2019-06-12T15:21:25Z</time>
      </trkpt>
      <trkpt lat="44.36794" lon="5.89828">
        <ele>599</ele>
        <time>2019-06-12T15:21:26Z</time>
      </trkpt>
      <trkpt lat="44.36791" lon="5.8982">
        <ele>599</ele>
        <time>2019-06-12T15:21:27Z</time>
      </trkpt>
      <trkpt lat="44.36789" lon="5.89813">
        <ele>599</ele>
        <time>2019-06-12T15:21:28Z</time>
      </trkpt>
      <trkpt lat="44.36786" lon="5.89806">
        <ele>599</ele>
        <time>2019-06-12T15:21:29Z</time>
      </trkpt>
      <trkpt lat="44.36784" lon="5.89799">
        <ele>599</ele>
        <time>2019-06-12T15:21:30Z</time>
      </trkpt>
      <trkpt lat="44.36781" lon="5.89792">
        <ele>599</ele>
        <time>2019-06-12T15:21:31Z</time>
      </trkpt>
      <trkpt lat="44.36779" lon="5.89786">
        <ele>599</ele>
        <time>2019-06-12T15:21:32Z</time>
      </trkpt>
      <trkpt lat="44.36776" lon="5.8978">
        <ele>599</ele>
        <time>2019-06-12T15:21:33Z</time>
      </trkpt>
      <trkpt lat="44.36773" lon="5.89774">
        <ele>599</ele>
        <time>2019-06-12T15:21:34Z</time>
      </trkpt>
      <trkpt lat="44.3677" lon="5.89768">
        <ele>599</ele>
        <time>2019-06-12T15:21:35Z</time>
      </trkpt>
      <trkpt lat="44.36767" lon="5.89762">
        <ele>599</ele>
        <time>2019-06-12T15:21:36Z</time>
      </trkpt>
      <trkpt lat="44.36764" lon="5.89757">
        <ele>599</ele>
        <time>2019-06-12T15:21:37Z</time>
      </trkpt>
      <trkpt lat="44.3676" lon="5.89751">
        <ele>599</ele>
        <time>2019-06-12T15:21:38Z</time>
      </trkpt>
      <trkpt lat="44.36757" lon="5.89745">
        <ele>599</ele>
        <time>2019-06-12T15:21:39Z</time>
      </trkpt>
      <trkpt lat="44.36753" lon="5.89739">
        <ele>599</ele>
        <time>2019-06-12T15:21:40Z</time>
      </trkpt>
      <trkpt lat="44.3675" lon="5.89733">
        <ele>599</ele>
        <time>2019-06-12T15:21:41Z</time>
      </trkpt>
      <trkpt lat="44.36746" lon="5.89727">
        <ele>599</ele>
        <time>2019-06-12T15:21:42Z</time>
      </trkpt>
      <trkpt lat="44.36742" lon="5.8972">
        <ele>599</ele>
        <time>2019-06-12T15:21:43Z</time>
      </trkpt>
      <trkpt lat="44.36738" lon="5.89714">
        <ele>599</ele>
        <time>2019-06-12T15:21:44Z</time>
      </trkpt>
      <trkpt lat="44.36734" lon="5.89708">
        <ele>599</ele>
        <time>2019-06-12T15:21:45Z</time>
      </trkpt>
      <trkpt lat="44.36731" lon="5.89702">
        <ele>599</ele>
        <time>2019-06-12T15:21:46Z</time>
      </trkpt>
      <trkpt lat="44.36726" lon="5.89696">
        <ele>599</ele>
        <time>2019-06-12T15:21:47Z</time>
      </trkpt>
      <trkpt lat="44.36723" lon="5.8969">
        <ele>599</ele>
        <time>2019-06-12T15:21:48Z</time>
      </trkpt>
      <trkpt lat="44.36719" lon="5.89684">
        <ele>599</ele>
        <time>2019-06-12T15:21:49Z</time>
      </trkpt>
      <trkpt lat="44.36715" lon="5.89678">
        <ele>599</ele>
        <time>2019-06-12T15:21:50Z</time>
      </trkpt>
      <trkpt lat="44.36711" lon="5.89672">
        <ele>599</ele>
        <time>2019-06-12T15:21:51Z</time>
      </trkpt>
      <trkpt lat="44.36707" lon="5.89666">
        <ele>599</ele>
        <time>2019-06-12T15:21:52Z</time>
      </trkpt>
      <trkpt lat="44.36703" lon="5.89659">
        <ele>599</ele>
        <time>2019-06-12T15:21:53Z</time>
      </trkpt>
      <trkpt lat="44.36699" lon="5.89653">
        <ele>599</ele>
        <time>2019-06-12T15:21:54Z</time>
      </trkpt>
      <trkpt lat="44.36695" lon="5.89646">
        <ele>599</ele>
        <time>2019-06-12T15:21:55Z</time>
      </trkpt>
      <trkpt lat="44.36691" lon="5.8964">
        <ele>599</ele>
        <time>2019-06-12T15:21:56Z</time>
      </trkpt>
      <trkpt lat="44.36686" lon="5.89634">
        <ele>599</ele>
        <time>2019-06-12T15:21:57Z</time>
      </trkpt>
      <trkpt lat="44.36682" lon="5.89627">
        <ele>599</ele>
        <time>2019-06-12T15:21:58Z</time>
      </trkpt>
      <trkpt lat="44.36678" lon="5.89621">
        <ele>599</ele>
        <time>2019-06-12T15:21:59Z</time>
      </trkpt>
      <trkpt lat="44.36673" lon="5.89614">
        <ele>599</ele>
        <time>2019-06-12T15:22:00Z</time>
      </trkpt>
      <trkpt lat="44.36669" lon="5.89608">
        <ele>599</ele>
        <time>2019-06-12T15:22:01Z</time>
      </trkpt>
      <trkpt lat="44.36664" lon="5.896">
        <ele>599</ele>
        <time>2019-06-12T15:22:02Z</time>
      </trkpt>
      <trkpt lat="44.3666" lon="5.89593">
        <ele>599</ele>
        <time>2019-06-12T15:22:03Z</time>
      </trkpt>
      <trkpt lat="44.36655" lon="5.89585">
        <ele>599</ele>
        <time>2019-06-12T15:22:04Z</time>
      </trkpt>
      <trkpt lat="44.3665" lon="5.89578">
        <ele>599</ele>
        <time>2019-06-12T15:22:05Z</time>
      </trkpt>
      <trkpt lat="44.36645" lon="5.89571">
        <ele>599</ele>
        <time>2019-06-12T15:22:06Z</time>
      </trkpt>
      <trkpt lat="44.36641" lon="5.89563">
        <ele>598</ele>
        <time>2019-06-12T15:22:07Z</time>
      </trkpt>
      <trkpt lat="44.36636" lon="5.89556">
        <ele>598</ele>
        <time>2019-06-12T15:22:08Z</time>
      </trkpt>
      <trkpt lat="44.36631" lon="5.89549">
        <ele>598</ele>
        <time>2019-06-12T15:22:09Z</time>
      </trkpt>
      <trkpt lat="44.36626" lon="5.89542">
        <ele>598</ele>
        <time>2019-06-12T15:22:10Z</time>
      </trkpt>
      <trkpt lat="44.36622" lon="5.89535">
        <ele>598</ele>
        <time>2019-06-12T15:22:11Z</time>
      </trkpt>
      <trkpt lat="44.36618" lon="5.89529">
        <ele>598</ele>
        <time>2019-06-12T15:22:12Z</time>
      </trkpt>
      <trkpt lat="44.36613" lon="5.89521">
        <ele>598</ele>
        <time>2019-06-12T15:22:13Z</time>
      </trkpt>
      <trkpt lat="44.3661" lon="5.89515">
        <ele>598</ele>
        <time>2019-06-12T15:22:14Z</time>
      </trkpt>
      <trkpt lat="44.36606" lon="5.89509">
        <ele>598</ele>
        <time>2019-06-12T15:22:15Z</time>
      </trkpt>
      <trkpt lat="44.36602" lon="5.89503">
        <ele>598</ele>
        <time>2019-06-12T15:22:16Z</time>
      </trkpt>
      <trkpt lat="44.36599" lon="5.89498">
        <ele>598</ele>
        <time>2019-06-12T15:22:17Z</time>
      </trkpt>
      <trkpt lat="44.36595" lon="5.89492">
        <ele>598</ele>
        <time>2019-06-12T15:22:18Z</time>
      </trkpt>
      <trkpt lat="44.36591" lon="5.89487">
        <ele>598</ele>
        <time>2019-06-12T15:22:19Z</time>
      </trkpt>
      <trkpt lat="44.36588" lon="5.89481">
        <ele>598</ele>
        <time>2019-06-12T15:22:20Z</time>
      </trkpt>
      <trkpt lat="44.36584" lon="5.89476">
        <ele>598</ele>
        <time>2019-06-12T15:22:21Z</time>
      </trkpt>
      <trkpt lat="44.36581" lon="5.89471">
        <ele>598</ele>
        <time>2019-06-12T15:22:22Z</time>
      </trkpt>
      <trkpt lat="44.36577" lon="5.89465">
        <ele>598</ele>
        <time>2019-06-12T15:22:23Z</time>
      </trkpt>
      <trkpt lat="44.36573" lon="5.8946">
        <ele>598</ele>
        <time>2019-06-12T15:22:24Z</time>
      </trkpt>
      <trkpt lat="44.3657" lon="5.89453">
        <ele>598</ele>
        <time>2019-06-12T15:22:25Z</time>
      </trkpt>
      <trkpt lat="44.36567" lon="5.89446">
        <ele>598</ele>
        <time>2019-06-12T15:22:26Z</time>
      </trkpt>
      <trkpt lat="44.36563" lon="5.89439">
        <ele>598</ele>
        <time>2019-06-12T15:22:27Z</time>
      </trkpt>
      <trkpt lat="44.3656" lon="5.89431">
        <ele>598</ele>
        <time>2019-06-12T15:22:28Z</time>
      </trkpt>
      <trkpt lat="44.36558" lon="5.89424">
        <ele>598</ele>
        <time>2019-06-12T15:22:29Z</time>
      </trkpt>
      <trkpt lat="44.36556" lon="5.89416">
        <ele>598</ele>
        <time>2019-06-12T15:22:30Z</time>
      </trkpt>
      <trkpt lat="44.36554" lon="5.89407">
        <ele>598</ele>
        <time>2019-06-12T15:22:31Z</time>
      </trkpt>
      <trkpt lat="44.36553" lon="5.89399">
        <ele>598</ele>
        <time>2019-06-12T15:22:32Z</time>
      </trkpt>
      <trkpt lat="44.36552" lon="5.89391">
        <ele>598</ele>
        <time>2019-06-12T15:22:33Z</time>
      </trkpt>
      <trkpt lat="44.36551" lon="5.89382">
        <ele>598</ele>
        <time>2019-06-12T15:22:34Z</time>
      </trkpt>
      <trkpt lat="44.3655" lon="5.89373">
        <ele>598</ele>
        <time>2019-06-12T15:22:35Z</time>
      </trkpt>
      <trkpt lat="44.36549" lon="5.89365">
        <ele>598</ele>
        <time>2019-06-12T15:22:36Z</time>
      </trkpt>
      <trkpt lat="44.36548" lon="5.89356">
        <ele>597</ele>
        <time>2019-06-12T15:22:37Z</time>
      </trkpt>
      <trkpt lat="44.36547" lon="5.89348">
        <ele>597</ele>
        <time>2019-06-12T15:22:38Z</time>
      </trkpt>
      <trkpt lat="44.36546" lon="5.89339">
        <ele>597</ele>
        <time>2019-06-12T15:22:39Z</time>
      </trkpt>
      <trkpt lat="44.36544" lon="5.89331">
        <ele>596</ele>
        <time>2019-06-12T15:22:40Z</time>
      </trkpt>
      <trkpt lat="44.36542" lon="5.89324">
        <ele>596</ele>
        <time>2019-06-12T15:22:41Z</time>
      </trkpt>
      <trkpt lat="44.3654" lon="5.89316">
        <ele>596</ele>
        <time>2019-06-12T15:22:42Z</time>
      </trkpt>
      <trkpt lat="44.36539" lon="5.89309">
        <ele>596</ele>
        <time>2019-06-12T15:22:43Z</time>
      </trkpt>
      <trkpt lat="44.36537" lon="5.89301">
        <ele>596</ele>
        <time>2019-06-12T15:22:44Z</time>
      </trkpt>
      <trkpt lat="44.36535" lon="5.89295">
        <ele>596</ele>
        <time>2019-06-12T15:22:45Z</time>
      </trkpt>
      <trkpt lat="44.36533" lon="5.89288">
        <ele>596</ele>
        <time>2019-06-12T15:22:46Z</time>
      </trkpt>
      <trkpt lat="44.3653" lon="5.89282">
        <ele>596</ele>
        <time>2019-06-12T15:22:47Z</time>
      </trkpt>
      <trkpt lat="44.36528" lon="5.89276">
        <ele>596</ele>
        <time>2019-06-12T15:22:48Z</time>
      </trkpt>
      <trkpt lat="44.36526" lon="5.8927">
        <ele>596</ele>
        <time>2019-06-12T15:22:49Z</time>
      </trkpt>
      <trkpt lat="44.36524" lon="5.89265">
        <ele>596</ele>
        <time>2019-06-12T15:22:50Z</time>
      </trkpt>
      <trkpt lat="44.36522" lon="5.89259">
        <ele>596</ele>
        <time>2019-06-12T15:22:51Z</time>
      </trkpt>
      <trkpt lat="44.3652" lon="5.89253">
        <ele>596</ele>
        <time>2019-06-12T15:22:52Z</time>
      </trkpt>
      <trkpt lat="44.36518" lon="5.89247">
        <ele>596</ele>
        <time>2019-06-12T15:22:53Z</time>
      </trkpt>
      <trkpt lat="44.36516" lon="5.89242">
        <ele>596</ele>
        <time>2019-06-12T15:22:54Z</time>
      </trkpt>
      <trkpt lat="44.36514" lon="5.89236">
        <ele>596</ele>
        <time>2019-06-12T15:22:55Z</time>
      </trkpt>
      <trkpt lat="44.36512" lon="5.89231">
        <ele>596</ele>
        <time>2019-06-12T15:22:56Z</time>
      </trkpt>
      <trkpt lat="44.3651" lon="5.89225">
        <ele>596</ele>
        <time>2019-06-12T15:22:57Z</time>
      </trkpt>
      <trkpt lat="44.36508" lon="5.8922">
        <ele>596</ele>
        <time>2019-06-12T15:22:58Z</time>
      </trkpt>
      <trkpt lat="44.36506" lon="5.89215">
        <ele>596</ele>
        <time>2019-06-12T15:22:59Z</time>
      </trkpt>
      <trkpt lat="44.36504" lon="5.8921">
        <ele>596</ele>
        <time>2019-06-12T15:23:00Z</time>
      </trkpt>
      <trkpt lat="44.36502" lon="5.89205">
        <ele>596</ele>
        <time>2019-06-12T15:23:01Z</time>
      </trkpt>
      <trkpt lat="44.365" lon="5.892">
        <ele>596</ele>
        <time>2019-06-12T15:23:02Z</time>
      </trkpt>
      <trkpt lat="44.36498" lon="5.89195">
        <ele>596</ele>
        <time>2019-06-12T15:23:03Z</time>
      </trkpt>
      <trkpt lat="44.36496" lon="5.89189">
        <ele>596</ele>
        <time>2019-06-12T15:23:04Z</time>
      </trkpt>
      <trkpt lat="44.36494" lon="5.89184">
        <ele>596</ele>
        <time>2019-06-12T15:23:05Z</time>
      </trkpt>
      <trkpt lat="44.36492" lon="5.89178">
        <ele>596</ele>
        <time>2019-06-12T15:23:06Z</time>
      </trkpt>
      <trkpt lat="44.3649" lon="5.89172">
        <ele>596</ele>
        <time>2019-06-12T15:23:07Z</time>
      </trkpt>
      <trkpt lat="44.36488" lon="5.89166">
        <ele>596</ele>
        <time>2019-06-12T15:23:08Z</time>
      </trkpt>
      <trkpt lat="44.36485" lon="5.8916">
        <ele>596</ele>
        <time>2019-06-12T15:23:09Z</time>
      </trkpt>
      <trkpt lat="44.36483" lon="5.89154">
        <ele>596</ele>
        <time>2019-06-12T15:23:10Z</time>
      </trkpt>
      <trkpt lat="44.36481" lon="5.89148">
        <ele>596</ele>
        <time>2019-06-12T15:23:11Z</time>
      </trkpt>
      <trkpt lat="44.36478" lon="5.89143">
        <ele>596</ele>
        <time>2019-06-12T15:23:12Z</time>
      </trkpt>
      <trkpt lat="44.36476" lon="5.89137">
        <ele>596</ele>
        <time>2019-06-12T15:23:13Z</time>
      </trkpt>
      <trkpt lat="44.36473" lon="5.8913">
        <ele>596</ele>
        <time>2019-06-12T15:23:14Z</time>
      </trkpt>
      <trkpt lat="44.36471" lon="5.89124">
        <ele>596</ele>
        <time>2019-06-12T15:23:15Z</time>
      </trkpt>
      <trkpt lat="44.36469" lon="5.89118">
        <ele>597</ele>
        <time>2019-06-12T15:23:16Z</time>
      </trkpt>
      <trkpt lat="44.36467" lon="5.89112">
        <ele>597</ele>
        <time>2019-06-12T15:23:17Z</time>
      </trkpt>
      <trkpt lat="44.36464" lon="5.89106">
        <ele>597</ele>
        <time>2019-06-12T15:23:18Z</time>
      </trkpt>
      <trkpt lat="44.36462" lon="5.89101">
        <ele>598</ele>
        <time>2019-06-12T15:23:19Z</time>
      </trkpt>
      <trkpt lat="44.3646" lon="5.89095">
        <ele>598</ele>
        <time>2019-06-12T15:23:20Z</time>
      </trkpt>
      <trkpt lat="44.36457" lon="5.89089">
        <ele>598</ele>
        <time>2019-06-12T15:23:21Z</time>
      </trkpt>
      <trkpt lat="44.36456" lon="5.89084">
        <ele>599</ele>
        <time>2019-06-12T15:23:22Z</time>
      </trkpt>
      <trkpt lat="44.36454" lon="5.89079">
        <ele>599</ele>
        <time>2019-06-12T15:23:23Z</time>
      </trkpt>
      <trkpt lat="44.36452" lon="5.89074">
        <ele>599</ele>
        <time>2019-06-12T15:23:24Z</time>
      </trkpt>
      <trkpt lat="44.3645" lon="5.89069">
        <ele>600</ele>
        <time>2019-06-12T15:23:25Z</time>
      </trkpt>
      <trkpt lat="44.36448" lon="5.89064">
        <ele>600</ele>
        <time>2019-06-12T15:23:26Z</time>
      </trkpt>
      <trkpt lat="44.36446" lon="5.89059">
        <ele>600</ele>
        <time>2019-06-12T15:23:27Z</time>
      </trkpt>
      <trkpt lat="44.36445" lon="5.89054">
        <ele>600</ele>
        <time>2019-06-12T15:23:28Z</time>
      </trkpt>
      <trkpt lat="44.36443" lon="5.89049">
        <ele>600</ele>
        <time>2019-06-12T15:23:29Z</time>
      </trkpt>
      <trkpt lat="44.36441" lon="5.89044">
        <ele>601</ele>
        <time>2019-06-12T15:23:30Z</time>
      </trkpt>
      <trkpt lat="44.36439" lon="5.89039">
        <ele>601</ele>
        <time>2019-06-12T15:23:31Z</time>
      </trkpt>
      <trkpt lat="44.36437" lon="5.89034">
        <ele>601</ele>
        <time>2019-06-12T15:23:32Z</time>
      </trkpt>
      <trkpt lat="44.36435" lon="5.89029">
        <ele>601</ele>
        <time>2019-06-12T15:23:33Z</time>
      </trkpt>
      <trkpt lat="44.36433" lon="5.89023">
        <ele>601</ele>
        <time>2019-06-12T15:23:34Z</time>
      </trkpt>
      <trkpt lat="44.36431" lon="5.89018">
        <ele>601</ele>
        <time>2019-06-12T15:23:35Z</time>
      </trkpt>
      <trkpt lat="44.36429" lon="5.89013">
        <ele>601</ele>
        <time>2019-06-12T15:23:36Z</time>
      </trkpt>
      <trkpt lat="44.36427" lon="5.89007">
        <ele>601</ele>
        <time>2019-06-12T15:23:37Z</time>
      </trkpt>
      <trkpt lat="44.36425" lon="5.89002">
        <ele>601</ele>
        <time>2019-06-12T15:23:38Z</time>
      </trkpt>
      <trkpt lat="44.36423" lon="5.88996">
        <ele>602</ele>
        <time>2019-06-12T15:23:39Z</time>
      </trkpt>
      <trkpt lat="44.3642" lon="5.8899">
        <ele>602</ele>
        <time>2019-06-12T15:23:40Z</time>
      </trkpt>
      <trkpt lat="44.36417" lon="5.88983">
        <ele>602</ele>
        <time>2019-06-12T15:23:41Z</time>
      </trkpt>
      <trkpt lat="44.36414" lon="5.88976">
        <ele>602</ele>
        <time>2019-06-12T15:23:42Z</time>
      </trkpt>
      <trkpt lat="44.36412" lon="5.88969">
        <ele>602</ele>
        <time>2019-06-12T15:23:43Z</time>
      </trkpt>
      <trkpt lat="44.36409" lon="5.88961">
        <ele>602</ele>
        <time>2019-06-12T15:23:44Z</time>
      </trkpt>
      <trkpt lat="44.36406" lon="5.88953">
        <ele>602</ele>
        <time>2019-06-12T15:23:45Z</time>
      </trkpt>
      <trkpt lat="44.36403" lon="5.88945">
        <ele>602</ele>
        <time>2019-06-12T15:23:46Z</time>
      </trkpt>
      <trkpt lat="44.364" lon="5.88937">
        <ele>602</ele>
        <time>2019-06-12T15:23:47Z</time>
      </trkpt>
      <trkpt lat="44.36397" lon="5.8893">
        <ele>602</ele>
        <time>2019-06-12T15:23:48Z</time>
      </trkpt>
      <trkpt lat="44.36394" lon="5.88923">
        <ele>602</ele>
        <time>2019-06-12T15:23:49Z</time>
      </trkpt>
      <trkpt lat="44.36392" lon="5.88916">
        <ele>602</ele>
        <time>2019-06-12T15:23:50Z</time>
      </trkpt>
      <trkpt lat="44.36389" lon="5.8891">
        <ele>602</ele>
        <time>2019-06-12T15:23:51Z</time>
      </trkpt>
      <trkpt lat="44.36386" lon="5.88904">
        <ele>602</ele>
        <time>2019-06-12T15:23:52Z</time>
      </trkpt>
      <trkpt lat="44.36384" lon="5.88899">
        <ele>602</ele>
        <time>2019-06-12T15:23:53Z</time>
      </trkpt>
      <trkpt lat="44.36382" lon="5.88893">
        <ele>603</ele>
        <time>2019-06-12T15:23:54Z</time>
      </trkpt>
      <trkpt lat="44.3638" lon="5.88888">
        <ele>603</ele>
        <time>2019-06-12T15:23:55Z</time>
      </trkpt>
      <trkpt lat="44.36378" lon="5.88883">
        <ele>603</ele>
        <time>2019-06-12T15:23:56Z</time>
      </trkpt>
      <trkpt lat="44.36376" lon="5.88878">
        <ele>603</ele>
        <time>2019-06-12T15:23:57Z</time>
      </trkpt>
      <trkpt lat="44.36374" lon="5.88873">
        <ele>604</ele>
        <time>2019-06-12T15:23:58Z</time>
      </trkpt>
      <trkpt lat="44.36372" lon="5.88868">
        <ele>604</ele>
        <time>2019-06-12T15:23:59Z</time>
      </trkpt>
      <trkpt lat="44.3637" lon="5.88863">
        <ele>604</ele>
        <time>2019-06-12T15:24:00Z</time>
      </trkpt>
      <trkpt lat="44.36368" lon="5.88857">
        <ele>604</ele>
        <time>2019-06-12T15:24:01Z</time>
      </trkpt>
      <trkpt lat="44.36366" lon="5.88852">
        <ele>604</ele>
        <time>2019-06-12T15:24:02Z</time>
      </trkpt>
      <trkpt lat="44.36364" lon="5.88847">
        <ele>604</ele>
        <time>2019-06-12T15:24:03Z</time>
      </trkpt>
      <trkpt lat="44.36361" lon="5.88842">
        <ele>605</ele>
        <time>2019-06-12T15:24:04Z</time>
      </trkpt>
      <trkpt lat="44.3636" lon="5.88836">
        <ele>605</ele>
        <time>2019-06-12T15:24:05Z</time>
      </trkpt>
      <trkpt lat="44.36358" lon="5.88831">
        <ele>605</ele>
        <time>2019-06-12T15:24:06Z</time>
      </trkpt>
      <trkpt lat="44.36356" lon="5.88825">
        <ele>605</ele>
        <time>2019-06-12T15:24:07Z</time>
      </trkpt>
      <trkpt lat="44.36354" lon="5.8882">
        <ele>605</ele>
        <time>2019-06-12T15:24:08Z</time>
      </trkpt>
      <trkpt lat="44.36352" lon="5.88815">
        <ele>605</ele>
        <time>2019-06-12T15:24:09Z</time>
      </trkpt>
      <trkpt lat="44.3635" lon="5.88809">
        <ele>605</ele>
        <time>2019-06-12T15:24:10Z</time>
      </trkpt>
      <trkpt lat="44.36348" lon="5.88804">
        <ele>605</ele>
        <time>2019-06-12T15:24:11Z</time>
      </trkpt>
      <trkpt lat="44.36346" lon="5.88799">
        <ele>605</ele>
        <time>2019-06-12T15:24:12Z</time>
      </trkpt>
      <trkpt lat="44.36345" lon="5.88794">
        <ele>605</ele>
        <time>2019-06-12T15:24:13Z</time>
      </trkpt>
      <trkpt lat="44.36343" lon="5.88789">
        <ele>605</ele>
        <time>2019-06-12T15:24:14Z</time>
      </trkpt>
      <trkpt lat="44.36342" lon="5.88783">
        <ele>605</ele>
        <time>2019-06-12T15:24:15Z</time>
      </trkpt>
      <trkpt lat="44.36341" lon="5.88778">
        <ele>606</ele>
        <time>2019-06-12T15:24:16Z</time>
      </trkpt>
      <trkpt lat="44.36341" lon="5.88773">
        <ele>606</ele>
        <time>2019-06-12T15:24:17Z</time>
      </trkpt>
      <trkpt lat="44.3634" lon="5.88767">
        <ele>606</ele>
        <time>2019-06-12T15:24:18Z</time>
      </trkpt>
      <trkpt lat="44.36339" lon="5.88761">
        <ele>606</ele>
        <time>2019-06-12T15:24:19Z</time>
      </trkpt>
      <trkpt lat="44.36339" lon="5.88755">
        <ele>606</ele>
        <time>2019-06-12T15:24:20Z</time>
      </trkpt>
      <trkpt lat="44.36339" lon="5.88749">
        <ele>607</ele>
        <time>2019-06-12T15:24:21Z</time>
      </trkpt>
      <trkpt lat="44.36339" lon="5.88743">
        <ele>607</ele>
        <time>2019-06-12T15:24:22Z</time>
      </trkpt>
      <trkpt lat="44.3634" lon="5.88736">
        <ele>607</ele>
        <time>2019-06-12T15:24:23Z</time>
      </trkpt>
      <trkpt lat="44.3634" lon="5.88729">
        <ele>608</ele>
        <time>2019-06-12T15:24:24Z</time>
      </trkpt>
      <trkpt lat="44.36342" lon="5.88723">
        <ele>608</ele>
        <time>2019-06-12T15:24:25Z</time>
      </trkpt>
      <trkpt lat="44.36344" lon="5.88717">
        <ele>608</ele>
        <time>2019-06-12T15:24:26Z</time>
      </trkpt>
      <trkpt lat="44.36346" lon="5.8871">
        <ele>609</ele>
        <time>2019-06-12T15:24:27Z</time>
      </trkpt>
      <trkpt lat="44.36348" lon="5.88703">
        <ele>609</ele>
        <time>2019-06-12T15:24:28Z</time>
      </trkpt>
      <trkpt lat="44.3635" lon="5.88696">
        <ele>610</ele>
        <time>2019-06-12T15:24:29Z</time>
      </trkpt>
      <trkpt lat="44.36353" lon="5.88689">
        <ele>610</ele>
        <time>2019-06-12T15:24:30Z</time>
      </trkpt>
      <trkpt lat="44.36356" lon="5.88682">
        <ele>610</ele>
        <time>2019-06-12T15:24:31Z</time>
      </trkpt>
      <trkpt lat="44.36359" lon="5.88674">
        <ele>610</ele>
        <time>2019-06-12T15:24:32Z</time>
      </trkpt>
      <trkpt lat="44.36361" lon="5.88666">
        <ele>611</ele>
        <time>2019-06-12T15:24:33Z</time>
      </trkpt>
      <trkpt lat="44.36364" lon="5.88658">
        <ele>611</ele>
        <time>2019-06-12T15:24:34Z</time>
      </trkpt>
      <trkpt lat="44.36366" lon="5.8865">
        <ele>611</ele>
        <time>2019-06-12T15:24:35Z</time>
      </trkpt>
      <trkpt lat="44.36367" lon="5.88642">
        <ele>611</ele>
        <time>2019-06-12T15:24:36Z</time>
      </trkpt>
      <trkpt lat="44.36369" lon="5.88633">
        <ele>611</ele>
        <time>2019-06-12T15:24:37Z</time>
      </trkpt>
      <trkpt lat="44.36369" lon="5.88625">
        <ele>611</ele>
        <time>2019-06-12T15:24:38Z</time>
      </trkpt>
      <trkpt lat="44.3637" lon="5.88617">
        <ele>611</ele>
        <time>2019-06-12T15:24:39Z</time>
      </trkpt>
      <trkpt lat="44.3637" lon="5.88608">
        <ele>611</ele>
        <time>2019-06-12T15:24:40Z</time>
      </trkpt>
      <trkpt lat="44.3637" lon="5.886">
        <ele>611</ele>
        <time>2019-06-12T15:24:41Z</time>
      </trkpt>
      <trkpt lat="44.3637" lon="5.88591">
        <ele>611</ele>
        <time>2019-06-12T15:24:42Z</time>
      </trkpt>
      <trkpt lat="44.3637" lon="5.88582">
        <ele>611</ele>
        <time>2019-06-12T15:24:43Z</time>
      </trkpt>
      <trkpt lat="44.3637" lon="5.88574">
        <ele>611</ele>
        <time>2019-06-12T15:24:44Z</time>
      </trkpt>
      <trkpt lat="44.36371" lon="5.88565">
        <ele>612</ele>
        <time>2019-06-12T15:24:45Z</time>
      </trkpt>
      <trkpt lat="44.36371" lon="5.88557">
        <ele>612</ele>
        <time>2019-06-12T15:24:46Z</time>
      </trkpt>
      <trkpt lat="44.36371" lon="5.88548">
        <ele>612</ele>
        <time>2019-06-12T15:24:47Z</time>
      </trkpt>
      <trkpt lat="44.36371" lon="5.8854">
        <ele>612</ele>
        <time>2019-06-12T15:24:48Z</time>
      </trkpt>
      <trkpt lat="44.36371" lon="5.88532">
        <ele>612</ele>
        <time>2019-06-12T15:24:49Z</time>
      </trkpt>
      <trkpt lat="44.36371" lon="5.88524">
        <ele>612</ele>
        <time>2019-06-12T15:24:50Z</time>
      </trkpt>
      <trkpt lat="44.36372" lon="5.88516">
        <ele>612</ele>
        <time>2019-06-12T15:24:51Z</time>
      </trkpt>
      <trkpt lat="44.36372" lon="5.88507">
        <ele>612</ele>
        <time>2019-06-12T15:24:52Z</time>
      </trkpt>
      <trkpt lat="44.36372" lon="5.88499">
        <ele>612</ele>
        <time>2019-06-12T15:24:53Z</time>
      </trkpt>
      <trkpt lat="44.36372" lon="5.8849">
        <ele>612</ele>
        <time>2019-06-12T15:24:54Z</time>
      </trkpt>
      <trkpt lat="44.36372" lon="5.88481">
        <ele>612</ele>
        <time>2019-06-12T15:24:55Z</time>
      </trkpt>
      <trkpt lat="44.36372" lon="5.88471">
        <ele>612</ele>
        <time>2019-06-12T15:24:56Z</time>
      </trkpt>
      <trkpt lat="44.36371" lon="5.8846">
        <ele>612</ele>
        <time>2019-06-12T15:24:57Z</time>
      </trkpt>
      <trkpt lat="44.3637" lon="5.88449">
        <ele>612</ele>
        <time>2019-06-12T15:24:58Z</time>
      </trkpt>
      <trkpt lat="44.36368" lon="5.88437">
        <ele>612</ele>
        <time>2019-06-12T15:24:59Z</time>
      </trkpt>
      <trkpt lat="44.36366" lon="5.88426">
        <ele>612</ele>
        <time>2019-06-12T15:25:00Z</time>
      </trkpt>
      <trkpt lat="44.36364" lon="5.88415">
        <ele>612</ele>
        <time>2019-06-12T15:25:01Z</time>
      </trkpt>
      <trkpt lat="44.36361" lon="5.88404">
        <ele>612</ele>
        <time>2019-06-12T15:25:02Z</time>
      </trkpt>
      <trkpt lat="44.36358" lon="5.88393">
        <ele>613</ele>
        <time>2019-06-12T15:25:03Z</time>
      </trkpt>
      <trkpt lat="44.36355" lon="5.88383">
        <ele>613</ele>
        <time>2019-06-12T15:25:04Z</time>
      </trkpt>
      <trkpt lat="44.36351" lon="5.88373">
        <ele>613</ele>
        <time>2019-06-12T15:25:05Z</time>
      </trkpt>
      <trkpt lat="44.36347" lon="5.88363">
        <ele>613</ele>
        <time>2019-06-12T15:25:06Z</time>
      </trkpt>
      <trkpt lat="44.36344" lon="5.88354">
        <ele>613</ele>
        <time>2019-06-12T15:25:07Z</time>
      </trkpt>
      <trkpt lat="44.3634" lon="5.88345">
        <ele>613</ele>
        <time>2019-06-12T15:25:08Z</time>
      </trkpt>
      <trkpt lat="44.36337" lon="5.88337">
        <ele>613</ele>
        <time>2019-06-12T15:25:09Z</time>
      </trkpt>
      <trkpt lat="44.36334" lon="5.88329">
        <ele>613</ele>
        <time>2019-06-12T15:25:10Z</time>
      </trkpt>
      <trkpt lat="44.36331" lon="5.88321">
        <ele>613</ele>
        <time>2019-06-12T15:25:11Z</time>
      </trkpt>
      <trkpt lat="44.36328" lon="5.88313">
        <ele>613</ele>
        <time>2019-06-12T15:25:12Z</time>
      </trkpt>
      <trkpt lat="44.36326" lon="5.88305">
        <ele>613</ele>
        <time>2019-06-12T15:25:13Z</time>
      </trkpt>
      <trkpt lat="44.36324" lon="5.88298">
        <ele>613</ele>
        <time>2019-06-12T15:25:14Z</time>
      </trkpt>
      <trkpt lat="44.36322" lon="5.8829">
        <ele>613</ele>
        <time>2019-06-12T15:25:15Z</time>
      </trkpt>
      <trkpt lat="44.3632" lon="5.88283">
        <ele>613</ele>
        <time>2019-06-12T15:25:16Z</time>
      </trkpt>
      <trkpt lat="44.36319" lon="5.88276">
        <ele>613</ele>
        <time>2019-06-12T15:25:17Z</time>
      </trkpt>
      <trkpt lat="44.36318" lon="5.8827">
        <ele>613</ele>
        <time>2019-06-12T15:25:18Z</time>
      </trkpt>
      <trkpt lat="44.36317" lon="5.88263">
        <ele>613</ele>
        <time>2019-06-12T15:25:19Z</time>
      </trkpt>
      <trkpt lat="44.36316" lon="5.88257">
        <ele>613</ele>
        <time>2019-06-12T15:25:20Z</time>
      </trkpt>
      <trkpt lat="44.36315" lon="5.8825">
        <ele>613</ele>
        <time>2019-06-12T15:25:21Z</time>
      </trkpt>
      <trkpt lat="44.36314" lon="5.88244">
        <ele>613</ele>
        <time>2019-06-12T15:25:22Z</time>
      </trkpt>
      <trkpt lat="44.36314" lon="5.88237">
        <ele>613</ele>
        <time>2019-06-12T15:25:23Z</time>
      </trkpt>
      <trkpt lat="44.36312" lon="5.88231">
        <ele>613</ele>
        <time>2019-06-12T15:25:24Z</time>
      </trkpt>
      <trkpt lat="44.36311" lon="5.88224">
        <ele>613</ele>
        <time>2019-06-12T15:25:25Z</time>
      </trkpt>
      <trkpt lat="44.3631" lon="5.88218">
        <ele>613</ele>
        <time>2019-06-12T15:25:26Z</time>
      </trkpt>
      <trkpt lat="44.36309" lon="5.88211">
        <ele>613</ele>
        <time>2019-06-12T15:25:27Z</time>
      </trkpt>
      <trkpt lat="44.36307" lon="5.88205">
        <ele>613</ele>
        <time>2019-06-12T15:25:28Z</time>
      </trkpt>
      <trkpt lat="44.36306" lon="5.88198">
        <ele>613</ele>
        <time>2019-06-12T15:25:29Z</time>
      </trkpt>
      <trkpt lat="44.36304" lon="5.88192">
        <ele>613</ele>
        <time>2019-06-12T15:25:30Z</time>
      </trkpt>
      <trkpt lat="44.36303" lon="5.88185">
        <ele>613</ele>
        <time>2019-06-12T15:25:31Z</time>
      </trkpt>
      <trkpt lat="44.36301" lon="5.88179">
        <ele>613</ele>
        <time>2019-06-12T15:25:32Z</time>
      </trkpt>
      <trkpt lat="44.36299" lon="5.88173">
        <ele>613</ele>
        <time>2019-06-12T15:25:33Z</time>
      </trkpt>
      <trkpt lat="44.36298" lon="5.88167">
        <ele>613</ele>
        <time>2019-06-12T15:25:34Z</time>
      </trkpt>
      <trkpt lat="44.36296" lon="5.88159">
        <ele>613</ele>
        <time>2019-06-12T15:25:35Z</time>
      </trkpt>
      <trkpt lat="44.36294" lon="5.88153">
        <ele>613</ele>
        <time>2019-06-12T15:25:36Z</time>
      </trkpt>
      <trkpt lat="44.36293" lon="5.88146">
        <ele>613</ele>
        <time>2019-06-12T15:25:37Z</time>
      </trkpt>
      <trkpt lat="44.36291" lon="5.88139">
        <ele>613</ele>
        <time>2019-06-12T15:25:38Z</time>
      </trkpt>
      <trkpt lat="44.36289" lon="5.88133">
        <ele>613</ele>
        <time>2019-06-12T15:25:39Z</time>
      </trkpt>
      <trkpt lat="44.36287" lon="5.88126">
        <ele>613</ele>
        <time>2019-06-12T15:25:40Z</time>
      </trkpt>
      <trkpt lat="44.36285" lon="5.88119">
        <ele>613</ele>
        <time>2019-06-12T15:25:41Z</time>
      </trkpt>
      <trkpt lat="44.36283" lon="5.88111">
        <ele>613</ele>
        <time>2019-06-12T15:25:42Z</time>
      </trkpt>
      <trkpt lat="44.36281" lon="5.88104">
        <ele>613</ele>
        <time>2019-06-12T15:25:43Z</time>
      </trkpt>
      <trkpt lat="44.36279" lon="5.88097">
        <ele>613</ele>
        <time>2019-06-12T15:25:44Z</time>
      </trkpt>
      <trkpt lat="44.36277" lon="5.88088">
        <ele>613</ele>
        <time>2019-06-12T15:25:45Z</time>
      </trkpt>
      <trkpt lat="44.36275" lon="5.8808">
        <ele>613</ele>
        <time>2019-06-12T15:25:46Z</time>
      </trkpt>
      <trkpt lat="44.36272" lon="5.88071">
        <ele>613</ele>
        <time>2019-06-12T15:25:47Z</time>
      </trkpt>
      <trkpt lat="44.3627" lon="5.88063">
        <ele>613</ele>
        <time>2019-06-12T15:25:48Z</time>
      </trkpt>
      <trkpt lat="44.36268" lon="5.88055">
        <ele>613</ele>
        <time>2019-06-12T15:25:49Z</time>
      </trkpt>
      <trkpt lat="44.36265" lon="5.88047">
        <ele>613</ele>
        <time>2019-06-12T15:25:50Z</time>
      </trkpt>
      <trkpt lat="44.36262" lon="5.8804">
        <ele>613</ele>
        <time>2019-06-12T15:25:51Z</time>
      </trkpt>
      <trkpt lat="44.3626" lon="5.88033">
        <ele>613</ele>
        <time>2019-06-12T15:25:52Z</time>
      </trkpt>
      <trkpt lat="44.36257" lon="5.88027">
        <ele>613</ele>
        <time>2019-06-12T15:25:53Z</time>
      </trkpt>
      <trkpt lat="44.36255" lon="5.8802">
        <ele>613</ele>
        <time>2019-06-12T15:25:54Z</time>
      </trkpt>
      <trkpt lat="44.36253" lon="5.88013">
        <ele>613</ele>
        <time>2019-06-12T15:25:55Z</time>
      </trkpt>
      <trkpt lat="44.36251" lon="5.88007">
        <ele>613</ele>
        <time>2019-06-12T15:25:56Z</time>
      </trkpt>
      <trkpt lat="44.36249" lon="5.88001">
        <ele>613</ele>
        <time>2019-06-12T15:25:57Z</time>
      </trkpt>
      <trkpt lat="44.36247" lon="5.87996">
        <ele>613</ele>
        <time>2019-06-12T15:25:58Z</time>
      </trkpt>
      <trkpt lat="44.36246" lon="5.8799">
        <ele>613</ele>
        <time>2019-06-12T15:25:59Z</time>
      </trkpt>
      <trkpt lat="44.36245" lon="5.87984">
        <ele>613</ele>
        <time>2019-06-12T15:26:00Z</time>
      </trkpt>
      <trkpt lat="44.36244" lon="5.87978">
        <ele>613</ele>
        <time>2019-06-12T15:26:01Z</time>
      </trkpt>
      <trkpt lat="44.36243" lon="5.87972">
        <ele>613</ele>
        <time>2019-06-12T15:26:02Z</time>
      </trkpt>
      <trkpt lat="44.36243" lon="5.87966">
        <ele>613</ele>
        <time>2019-06-12T15:26:03Z</time>
      </trkpt>
      <trkpt lat="44.36242" lon="5.87961">
        <ele>613</ele>
        <time>2019-06-12T15:26:04Z</time>
      </trkpt>
      <trkpt lat="44.36242" lon="5.87955">
        <ele>613</ele>
        <time>2019-06-12T15:26:05Z</time>
      </trkpt>
      <trkpt lat="44.36242" lon="5.87949">
        <ele>613</ele>
        <time>2019-06-12T15:26:06Z</time>
      </trkpt>
      <trkpt lat="44.36243" lon="5.87943">
        <ele>613</ele>
        <time>2019-06-12T15:26:07Z</time>
      </trkpt>
      <trkpt lat="44.36243" lon="5.87936">
        <ele>613</ele>
        <time>2019-06-12T15:26:08Z</time>
      </trkpt>
      <trkpt lat="44.36243" lon="5.8793">
        <ele>613</ele>
        <time>2019-06-12T15:26:09Z</time>
      </trkpt>
      <trkpt lat="44.36244" lon="5.87923">
        <ele>613</ele>
        <time>2019-06-12T15:26:10Z</time>
      </trkpt>
      <trkpt lat="44.36244" lon="5.87917">
        <ele>613</ele>
        <time>2019-06-12T15:26:11Z</time>
      </trkpt>
      <trkpt lat="44.36245" lon="5.87911">
        <ele>613</ele>
        <time>2019-06-12T15:26:12Z</time>
      </trkpt>
      <trkpt lat="44.36245" lon="5.87904">
        <ele>614</ele>
        <time>2019-06-12T15:26:13Z</time>
      </trkpt>
      <trkpt lat="44.36245" lon="5.87897">
        <ele>614</ele>
        <time>2019-06-12T15:26:14Z</time>
      </trkpt>
      <trkpt lat="44.36245" lon="5.87891">
        <ele>615</ele>
        <time>2019-06-12T15:26:15Z</time>
      </trkpt>
      <trkpt lat="44.36245" lon="5.87884">
        <ele>616</ele>
        <time>2019-06-12T15:26:16Z</time>
      </trkpt>
      <trkpt lat="44.36244" lon="5.87877">
        <ele>616</ele>
        <time>2019-06-12T15:26:17Z</time>
      </trkpt>
      <trkpt lat="44.36244" lon="5.8787">
        <ele>617</ele>
        <time>2019-06-12T15:26:18Z</time>
      </trkpt>
      <trkpt lat="44.36243" lon="5.87862">
        <ele>618</ele>
        <time>2019-06-12T15:26:19Z</time>
      </trkpt>
      <trkpt lat="44.36241" lon="5.87855">
        <ele>618</ele>
        <time>2019-06-12T15:26:20Z</time>
      </trkpt>
      <trkpt lat="44.3624" lon="5.87848">
        <ele>619</ele>
        <time>2019-06-12T15:26:21Z</time>
      </trkpt>
      <trkpt lat="44.36239" lon="5.87841">
        <ele>620</ele>
        <time>2019-06-12T15:26:22Z</time>
      </trkpt>
      <trkpt lat="44.36237" lon="5.87833">
        <ele>621</ele>
        <time>2019-06-12T15:26:23Z</time>
      </trkpt>
      <trkpt lat="44.36236" lon="5.87826">
        <ele>621</ele>
        <time>2019-06-12T15:26:24Z</time>
      </trkpt>
      <trkpt lat="44.36235" lon="5.8782">
        <ele>621</ele>
        <time>2019-06-12T15:26:25Z</time>
      </trkpt>
      <trkpt lat="44.36233" lon="5.87814">
        <ele>621</ele>
        <time>2019-06-12T15:26:26Z</time>
      </trkpt>
      <trkpt lat="44.36231" lon="5.87807">
        <ele>621</ele>
        <time>2019-06-12T15:26:27Z</time>
      </trkpt>
      <trkpt lat="44.3623" lon="5.87801">
        <ele>621</ele>
        <time>2019-06-12T15:26:28Z</time>
      </trkpt>
      <trkpt lat="44.36229" lon="5.87795">
        <ele>621</ele>
        <time>2019-06-12T15:26:29Z</time>
      </trkpt>
      <trkpt lat="44.36227" lon="5.87789">
        <ele>621</ele>
        <time>2019-06-12T15:26:30Z</time>
      </trkpt>
      <trkpt lat="44.36226" lon="5.87783">
        <ele>621</ele>
        <time>2019-06-12T15:26:31Z</time>
      </trkpt>
      <trkpt lat="44.36225" lon="5.87777">
        <ele>621</ele>
        <time>2019-06-12T15:26:32Z</time>
      </trkpt>
      <trkpt lat="44.36223" lon="5.87772">
        <ele>621</ele>
        <time>2019-06-12T15:26:33Z</time>
      </trkpt>
      <trkpt lat="44.36222" lon="5.87766">
        <ele>621</ele>
        <time>2019-06-12T15:26:34Z</time>
      </trkpt>
      <trkpt lat="44.3622" lon="5.8776">
        <ele>621</ele>
        <time>2019-06-12T15:26:35Z</time>
      </trkpt>
      <trkpt lat="44.36219" lon="5.87754">
        <ele>621</ele>
        <time>2019-06-12T15:26:36Z</time>
      </trkpt>
      <trkpt lat="44.36219" lon="5.87748">
        <ele>621</ele>
        <time>2019-06-12T15:26:37Z</time>
      </trkpt>
      <trkpt lat="44.36218" lon="5.87743">
        <ele>621</ele>
        <time>2019-06-12T15:26:38Z</time>
      </trkpt>
      <trkpt lat="44.36218" lon="5.87737">
        <ele>621</ele>
        <time>2019-06-12T15:26:39Z</time>
      </trkpt>
      <trkpt lat="44.36217" lon="5.87731">
        <ele>621</ele>
        <time>2019-06-12T15:26:40Z</time>
      </trkpt>
      <trkpt lat="44.36217" lon="5.87725">
        <ele>621</ele>
        <time>2019-06-12T15:26:41Z</time>
      </trkpt>
      <trkpt lat="44.36217" lon="5.8772">
        <ele>621</ele>
        <time>2019-06-12T15:26:42Z</time>
      </trkpt>
      <trkpt lat="44.36217" lon="5.87714">
        <ele>621</ele>
        <time>2019-06-12T15:26:43Z</time>
      </trkpt>
      <trkpt lat="44.36217" lon="5.87709">
        <ele>621</ele>
        <time>2019-06-12T15:26:44Z</time>
      </trkpt>
      <trkpt lat="44.36217" lon="5.87704">
        <ele>621</ele>
        <time>2019-06-12T15:26:45Z</time>
      </trkpt>
      <trkpt lat="44.36216" lon="5.87699">
        <ele>621</ele>
        <time>2019-06-12T15:26:46Z</time>
      </trkpt>
      <trkpt lat="44.36216" lon="5.87693">
        <ele>621</ele>
        <time>2019-06-12T15:26:47Z</time>
      </trkpt>
      <trkpt lat="44.36217" lon="5.87688">
        <ele>621</ele>
        <time>2019-06-12T15:26:48Z</time>
      </trkpt>
      <trkpt lat="44.36217" lon="5.87683">
        <ele>621</ele>
        <time>2019-06-12T15:26:49Z</time>
      </trkpt>
      <trkpt lat="44.36217" lon="5.87678">
        <ele>621</ele>
        <time>2019-06-12T15:26:50Z</time>
      </trkpt>
      <trkpt lat="44.36217" lon="5.87674">
        <ele>621</ele>
        <time>2019-06-12T15:26:51Z</time>
      </trkpt>
      <trkpt lat="44.36217" lon="5.87669">
        <ele>621</ele>
        <time>2019-06-12T15:26:52Z</time>
      </trkpt>
      <trkpt lat="44.36217" lon="5.87664">
        <ele>621</ele>
        <time>2019-06-12T15:26:53Z</time>
      </trkpt>
      <trkpt lat="44.36216" lon="5.87659">
        <ele>621</ele>
        <time>2019-06-12T15:26:54Z</time>
      </trkpt>
      <trkpt lat="44.36216" lon="5.87654">
        <ele>621</ele>
        <time>2019-06-12T15:26:55Z</time>
      </trkpt>
      <trkpt lat="44.36216" lon="5.87649">
        <ele>621</ele>
        <time>2019-06-12T15:26:56Z</time>
      </trkpt>
      <trkpt lat="44.36215" lon="5.87644">
        <ele>621</ele>
        <time>2019-06-12T15:26:57Z</time>
      </trkpt>
      <trkpt lat="44.36214" lon="5.87639">
        <ele>621</ele>
        <time>2019-06-12T15:26:58Z</time>
      </trkpt>
      <trkpt lat="44.36214" lon="5.87634">
        <ele>621</ele>
        <time>2019-06-12T15:26:59Z</time>
      </trkpt>
      <trkpt lat="44.36213" lon="5.87628">
        <ele>621</ele>
        <time>2019-06-12T15:27:00Z</time>
      </trkpt>
      <trkpt lat="44.36212" lon="5.87624">
        <ele>621</ele>
        <time>2019-06-12T15:27:01Z</time>
      </trkpt>
      <trkpt lat="44.3621" lon="5.87618">
        <ele>621</ele>
        <time>2019-06-12T15:27:02Z</time>
      </trkpt>
      <trkpt lat="44.36209" lon="5.87614">
        <ele>621</ele>
        <time>2019-06-12T15:27:03Z</time>
      </trkpt>
      <trkpt lat="44.36208" lon="5.87609">
        <ele>621</ele>
        <time>2019-06-12T15:27:04Z</time>
      </trkpt>
      <trkpt lat="44.36206" lon="5.87605">
        <ele>621</ele>
        <time>2019-06-12T15:27:05Z</time>
      </trkpt>
      <trkpt lat="44.36205" lon="5.876">
        <ele>621</ele>
        <time>2019-06-12T15:27:06Z</time>
      </trkpt>
      <trkpt lat="44.36204" lon="5.87595">
        <ele>621</ele>
        <time>2019-06-12T15:27:07Z</time>
      </trkpt>
      <trkpt lat="44.36203" lon="5.8759">
        <ele>621</ele>
        <time>2019-06-12T15:27:08Z</time>
      </trkpt>
      <trkpt lat="44.36201" lon="5.87585">
        <ele>621</ele>
        <time>2019-06-12T15:27:09Z</time>
      </trkpt>
      <trkpt lat="44.362" lon="5.8758">
        <ele>621</ele>
        <time>2019-06-12T15:27:10Z</time>
      </trkpt>
      <trkpt lat="44.36199" lon="5.87574">
        <ele>622</ele>
        <time>2019-06-12T15:27:11Z</time>
      </trkpt>
      <trkpt lat="44.36198" lon="5.87569">
        <ele>622</ele>
        <time>2019-06-12T15:27:12Z</time>
      </trkpt>
      <trkpt lat="44.36197" lon="5.87564">
        <ele>623</ele>
        <time>2019-06-12T15:27:13Z</time>
      </trkpt>
      <trkpt lat="44.36197" lon="5.87559">
        <ele>624</ele>
        <time>2019-06-12T15:27:14Z</time>
      </trkpt>
      <trkpt lat="44.36196" lon="5.87554">
        <ele>624</ele>
        <time>2019-06-12T15:27:15Z</time>
      </trkpt>
      <trkpt lat="44.36195" lon="5.87549">
        <ele>624</ele>
        <time>2019-06-12T15:27:16Z</time>
      </trkpt>
      <trkpt lat="44.36195" lon="5.87544">
        <ele>625</ele>
        <time>2019-06-12T15:27:17Z</time>
      </trkpt>
      <trkpt lat="44.36194" lon="5.87538">
        <ele>625</ele>
        <time>2019-06-12T15:27:18Z</time>
      </trkpt>
      <trkpt lat="44.36193" lon="5.87533">
        <ele>625</ele>
        <time>2019-06-12T15:27:19Z</time>
      </trkpt>
      <trkpt lat="44.36193" lon="5.87528">
        <ele>625</ele>
        <time>2019-06-12T15:27:20Z</time>
      </trkpt>
      <trkpt lat="44.36192" lon="5.87523">
        <ele>626</ele>
        <time>2019-06-12T15:27:21Z</time>
      </trkpt>
      <trkpt lat="44.36192" lon="5.87517">
        <ele>626</ele>
        <time>2019-06-12T15:27:22Z</time>
      </trkpt>
      <trkpt lat="44.36191" lon="5.87512">
        <ele>626</ele>
        <time>2019-06-12T15:27:23Z</time>
      </trkpt>
      <trkpt lat="44.36191" lon="5.87506">
        <ele>627</ele>
        <time>2019-06-12T15:27:24Z</time>
      </trkpt>
      <trkpt lat="44.3619" lon="5.87501">
        <ele>627</ele>
        <time>2019-06-12T15:27:25Z</time>
      </trkpt>
      <trkpt lat="44.3619" lon="5.87496">
        <ele>627</ele>
        <time>2019-06-12T15:27:26Z</time>
      </trkpt>
      <trkpt lat="44.3619" lon="5.87491">
        <ele>628</ele>
        <time>2019-06-12T15:27:27Z</time>
      </trkpt>
      <trkpt lat="44.36189" lon="5.87486">
        <ele>628</ele>
        <time>2019-06-12T15:27:28Z</time>
      </trkpt>
      <trkpt lat="44.36189" lon="5.87481">
        <ele>628</ele>
        <time>2019-06-12T15:27:29Z</time>
      </trkpt>
      <trkpt lat="44.36189" lon="5.87475">
        <ele>628</ele>
        <time>2019-06-12T15:27:30Z</time>
      </trkpt>
      <trkpt lat="44.36189" lon="5.8747">
        <ele>628</ele>
        <time>2019-06-12T15:27:31Z</time>
      </trkpt>
      <trkpt lat="44.36189" lon="5.87465">
        <ele>629</ele>
        <time>2019-06-12T15:27:32Z</time>
      </trkpt>
      <trkpt lat="44.3619" lon="5.8746">
        <ele>629</ele>
        <time>2019-06-12T15:27:33Z</time>
      </trkpt>
      <trkpt lat="44.3619" lon="5.87455">
        <ele>629</ele>
        <time>2019-06-12T15:27:34Z</time>
      </trkpt>
      <trkpt lat="44.36191" lon="5.87451">
        <ele>629</ele>
        <time>2019-06-12T15:27:35Z</time>
      </trkpt>
      <trkpt lat="44.36192" lon="5.87446">
        <ele>630</ele>
        <time>2019-06-12T15:27:36Z</time>
      </trkpt>
      <trkpt lat="44.36193" lon="5.87441">
        <ele>630</ele>
        <time>2019-06-12T15:27:37Z</time>
      </trkpt>
      <trkpt lat="44.36194" lon="5.87436">
        <ele>630</ele>
        <time>2019-06-12T15:27:38Z</time>
      </trkpt>
      <trkpt lat="44.36195" lon="5.87432">
        <ele>630</ele>
        <time>2019-06-12T15:27:39Z</time>
      </trkpt>
      <trkpt lat="44.36197" lon="5.87427">
        <ele>630</ele>
        <time>2019-06-12T15:27:40Z</time>
      </trkpt>
      <trkpt lat="44.36198" lon="5.87423">
        <ele>630</ele>
        <time>2019-06-12T15:27:41Z</time>
      </trkpt>
      <trkpt lat="44.36199" lon="5.87418">
        <ele>630</ele>
        <time>2019-06-12T15:27:42Z</time>
      </trkpt>
      <trkpt lat="44.36201" lon="5.87413">
        <ele>631</ele>
        <time>2019-06-12T15:27:43Z</time>
      </trkpt>
      <trkpt lat="44.36202" lon="5.87408">
        <ele>631</ele>
        <time>2019-06-12T15:27:44Z</time>
      </trkpt>
      <trkpt lat="44.36203" lon="5.87403">
        <ele>631</ele>
        <time>2019-06-12T15:27:45Z</time>
      </trkpt>
      <trkpt lat="44.36203" lon="5.87397">
        <ele>631</ele>
        <time>2019-06-12T15:27:46Z</time>
      </trkpt>
      <trkpt lat="44.36203" lon="5.87392">
        <ele>631</ele>
        <time>2019-06-12T15:27:47Z</time>
      </trkpt>
      <trkpt lat="44.36203" lon="5.87387">
        <ele>631</ele>
        <time>2019-06-12T15:27:48Z</time>
      </trkpt>
      <trkpt lat="44.36204" lon="5.87382">
        <ele>632</ele>
        <time>2019-06-12T15:27:49Z</time>
      </trkpt>
      <trkpt lat="44.36203" lon="5.87376">
        <ele>632</ele>
        <time>2019-06-12T15:27:50Z</time>
      </trkpt>
      <trkpt lat="44.36203" lon="5.87371">
        <ele>632</ele>
        <time>2019-06-12T15:27:51Z</time>
      </trkpt>
      <trkpt lat="44.36202" lon="5.87366">
        <ele>632</ele>
        <time>2019-06-12T15:27:52Z</time>
      </trkpt>
      <trkpt lat="44.36201" lon="5.87361">
        <ele>632</ele>
        <time>2019-06-12T15:27:53Z</time>
      </trkpt>
      <trkpt lat="44.362" lon="5.87357">
        <ele>632</ele>
        <time>2019-06-12T15:27:54Z</time>
      </trkpt>
      <trkpt lat="44.36198" lon="5.87352">
        <ele>632</ele>
        <time>2019-06-12T15:27:55Z</time>
      </trkpt>
      <trkpt lat="44.36196" lon="5.87348">
        <ele>632</ele>
        <time>2019-06-12T15:27:56Z</time>
      </trkpt>
      <trkpt lat="44.36194" lon="5.87343">
        <ele>632</ele>
        <time>2019-06-12T15:27:57Z</time>
      </trkpt>
      <trkpt lat="44.36192" lon="5.8734">
        <ele>632</ele>
        <time>2019-06-12T15:27:58Z</time>
      </trkpt>
      <trkpt lat="44.3619" lon="5.87336">
        <ele>632</ele>
        <time>2019-06-12T15:27:59Z</time>
      </trkpt>
      <trkpt lat="44.36188" lon="5.87332">
        <ele>632</ele>
        <time>2019-06-12T15:28:00Z</time>
      </trkpt>
      <trkpt lat="44.36185" lon="5.87328">
        <ele>632</ele>
        <time>2019-06-12T15:28:01Z</time>
      </trkpt>
      <trkpt lat="44.36183" lon="5.87325">
        <ele>632</ele>
        <time>2019-06-12T15:28:02Z</time>
      </trkpt>
      <trkpt lat="44.36181" lon="5.87321">
        <ele>632</ele>
        <time>2019-06-12T15:28:03Z</time>
      </trkpt>
      <trkpt lat="44.36179" lon="5.87317">
        <ele>632</ele>
        <time>2019-06-12T15:28:04Z</time>
      </trkpt>
      <trkpt lat="44.36177" lon="5.87314">
        <ele>632</ele>
        <time>2019-06-12T15:28:05Z</time>
      </trkpt>
      <trkpt lat="44.36175" lon="5.87311">
        <ele>632</ele>
        <time>2019-06-12T15:28:06Z</time>
      </trkpt>
      <trkpt lat="44.36173" lon="5.87307">
        <ele>632</ele>
        <time>2019-06-12T15:28:07Z</time>
      </trkpt>
      <trkpt lat="44.36171" lon="5.87304">
        <ele>632</ele>
        <time>2019-06-12T15:28:08Z</time>
      </trkpt>
      <trkpt lat="44.36169" lon="5.87301">
        <ele>632</ele>
        <time>2019-06-12T15:28:09Z</time>
      </trkpt>
      <trkpt lat="44.36168" lon="5.87299">
        <ele>632</ele>
        <time>2019-06-12T15:28:10Z</time>
      </trkpt>
      <trkpt lat="44.36166" lon="5.87296">
        <ele>632</ele>
        <time>2019-06-12T15:28:11Z</time>
      </trkpt>
      <trkpt lat="44.36164" lon="5.87293">
        <ele>632</ele>
        <time>2019-06-12T15:28:12Z</time>
      </trkpt>
      <trkpt lat="44.36162" lon="5.8729">
        <ele>632</ele>
        <time>2019-06-12T15:28:13Z</time>
      </trkpt>
      <trkpt lat="44.36161" lon="5.87287">
        <ele>632</ele>
        <time>2019-06-12T15:28:14Z</time>
      </trkpt>
      <trkpt lat="44.36159" lon="5.87284">
        <ele>632</ele>
        <time>2019-06-12T15:28:15Z</time>
      </trkpt>
      <trkpt lat="44.36158" lon="5.87281">
        <ele>633</ele>
        <time>2019-06-12T15:28:16Z</time>
      </trkpt>
      <trkpt lat="44.36156" lon="5.87278">
        <ele>633</ele>
        <time>2019-06-12T15:28:17Z</time>
      </trkpt>
      <trkpt lat="44.36154" lon="5.87275">
        <ele>634</ele>
        <time>2019-06-12T15:28:18Z</time>
      </trkpt>
      <trkpt lat="44.36153" lon="5.87271">
        <ele>634</ele>
        <time>2019-06-12T15:28:19Z</time>
      </trkpt>
      <trkpt lat="44.36151" lon="5.87269">
        <ele>634</ele>
        <time>2019-06-12T15:28:20Z</time>
      </trkpt>
      <trkpt lat="44.3615" lon="5.87266">
        <ele>635</ele>
        <time>2019-06-12T15:28:21Z</time>
      </trkpt>
      <trkpt lat="44.36148" lon="5.87263">
        <ele>635</ele>
        <time>2019-06-12T15:28:22Z</time>
      </trkpt>
      <trkpt lat="44.36147" lon="5.8726">
        <ele>635</ele>
        <time>2019-06-12T15:28:23Z</time>
      </trkpt>
      <trkpt lat="44.36146" lon="5.87257">
        <ele>636</ele>
        <time>2019-06-12T15:28:24Z</time>
      </trkpt>
      <trkpt lat="44.36145" lon="5.87254">
        <ele>636</ele>
        <time>2019-06-12T15:28:25Z</time>
      </trkpt>
      <trkpt lat="44.36143" lon="5.87251">
        <ele>636</ele>
        <time>2019-06-12T15:28:26Z</time>
      </trkpt>
      <trkpt lat="44.36142" lon="5.87247">
        <ele>637</ele>
        <time>2019-06-12T15:28:27Z</time>
      </trkpt>
      <trkpt lat="44.36141" lon="5.87244">
        <ele>638</ele>
        <time>2019-06-12T15:28:28Z</time>
      </trkpt>
      <trkpt lat="44.3614" lon="5.87241">
        <ele>638</ele>
        <time>2019-06-12T15:28:29Z</time>
      </trkpt>
      <trkpt lat="44.36139" lon="5.87237">
        <ele>639</ele>
        <time>2019-06-12T15:28:30Z</time>
      </trkpt>
      <trkpt lat="44.36138" lon="5.87233">
        <ele>639</ele>
        <time>2019-06-12T15:28:31Z</time>
      </trkpt>
      <trkpt lat="44.36137" lon="5.8723">
        <ele>639</ele>
        <time>2019-06-12T15:28:32Z</time>
      </trkpt>
      <trkpt lat="44.36137" lon="5.87226">
        <ele>640</ele>
        <time>2019-06-12T15:28:33Z</time>
      </trkpt>
      <trkpt lat="44.36136" lon="5.87222">
        <ele>640</ele>
        <time>2019-06-12T15:28:34Z</time>
      </trkpt>
      <trkpt lat="44.36136" lon="5.87219">
        <ele>640</ele>
        <time>2019-06-12T15:28:35Z</time>
      </trkpt>
      <trkpt lat="44.36135" lon="5.87216">
        <ele>640</ele>
        <time>2019-06-12T15:28:36Z</time>
      </trkpt>
      <trkpt lat="44.36135" lon="5.87212">
        <ele>641</ele>
        <time>2019-06-12T15:28:37Z</time>
      </trkpt>
      <trkpt lat="44.36134" lon="5.87208">
        <ele>641</ele>
        <time>2019-06-12T15:28:38Z</time>
      </trkpt>
      <trkpt lat="44.36134" lon="5.87205">
        <ele>641</ele>
        <time>2019-06-12T15:28:39Z</time>
      </trkpt>
      <trkpt lat="44.36133" lon="5.87201">
        <ele>641</ele>
        <time>2019-06-12T15:28:40Z</time>
      </trkpt>
      <trkpt lat="44.36132" lon="5.87197">
        <ele>641</ele>
        <time>2019-06-12T15:28:41Z</time>
      </trkpt>
      <trkpt lat="44.36132" lon="5.87193">
        <ele>641</ele>
        <time>2019-06-12T15:28:42Z</time>
      </trkpt>
      <trkpt lat="44.36131" lon="5.8719">
        <ele>641</ele>
        <time>2019-06-12T15:28:43Z</time>
      </trkpt>
      <trkpt lat="44.36131" lon="5.87186">
        <ele>641</ele>
        <time>2019-06-12T15:28:44Z</time>
      </trkpt>
      <trkpt lat="44.3613" lon="5.87182">
        <ele>641</ele>
        <time>2019-06-12T15:28:45Z</time>
      </trkpt>
      <trkpt lat="44.36129" lon="5.87178">
        <ele>642</ele>
        <time>2019-06-12T15:28:46Z</time>
      </trkpt>
      <trkpt lat="44.36129" lon="5.87175">
        <ele>642</ele>
        <time>2019-06-12T15:28:47Z</time>
      </trkpt>
      <trkpt lat="44.36128" lon="5.87171">
        <ele>642</ele>
        <time>2019-06-12T15:28:48Z</time>
      </trkpt>
      <trkpt lat="44.36127" lon="5.87167">
        <ele>642</ele>
        <time>2019-06-12T15:28:49Z</time>
      </trkpt>
      <trkpt lat="44.36127" lon="5.87163">
        <ele>642</ele>
        <time>2019-06-12T15:28:50Z</time>
      </trkpt>
      <trkpt lat="44.36126" lon="5.87159">
        <ele>642</ele>
        <time>2019-06-12T15:28:51Z</time>
      </trkpt>
      <trkpt lat="44.36126" lon="5.87155">
        <ele>642</ele>
        <time>2019-06-12T15:28:52Z</time>
      </trkpt>
      <trkpt lat="44.36125" lon="5.87151">
        <ele>642</ele>
        <time>2019-06-12T15:28:53Z</time>
      </trkpt>
      <trkpt lat="44.36125" lon="5.87148">
        <ele>642</ele>
        <time>2019-06-12T15:28:54Z</time>
      </trkpt>
      <trkpt lat="44.36125" lon="5.87144">
        <ele>642</ele>
        <time>2019-06-12T15:28:55Z</time>
      </trkpt>
      <trkpt lat="44.36124" lon="5.87141">
        <ele>642</ele>
        <time>2019-06-12T15:28:56Z</time>
      </trkpt>
      <trkpt lat="44.36123" lon="5.87137">
        <ele>642</ele>
        <time>2019-06-12T15:28:57Z</time>
      </trkpt>
      <trkpt lat="44.36123" lon="5.87134">
        <ele>642</ele>
        <time>2019-06-12T15:28:58Z</time>
      </trkpt>
      <trkpt lat="44.36123" lon="5.8713">
        <ele>642</ele>
        <time>2019-06-12T15:28:59Z</time>
      </trkpt>
      <trkpt lat="44.36122" lon="5.87127">
        <ele>642</ele>
        <time>2019-06-12T15:29:00Z</time>
      </trkpt>
      <trkpt lat="44.36121" lon="5.87123">
        <ele>642</ele>
        <time>2019-06-12T15:29:01Z</time>
      </trkpt>
      <trkpt lat="44.36121" lon="5.87119">
        <ele>642</ele>
        <time>2019-06-12T15:29:02Z</time>
      </trkpt>
      <trkpt lat="44.3612" lon="5.87116">
        <ele>642</ele>
        <time>2019-06-12T15:29:03Z</time>
      </trkpt>
      <trkpt lat="44.36119" lon="5.87113">
        <ele>642</ele>
        <time>2019-06-12T15:29:04Z</time>
      </trkpt>
      <trkpt lat="44.36119" lon="5.87109">
        <ele>642</ele>
        <time>2019-06-12T15:29:05Z</time>
      </trkpt>
      <trkpt lat="44.36118" lon="5.87105">
        <ele>642</ele>
        <time>2019-06-12T15:29:06Z</time>
      </trkpt>
      <trkpt lat="44.36118" lon="5.87102">
        <ele>642</ele>
        <time>2019-06-12T15:29:07Z</time>
      </trkpt>
      <trkpt lat="44.36118" lon="5.87098">
        <ele>642</ele>
        <time>2019-06-12T15:29:08Z</time>
      </trkpt>
      <trkpt lat="44.36117" lon="5.87095">
        <ele>642</ele>
        <time>2019-06-12T15:29:09Z</time>
      </trkpt>
      <trkpt lat="44.36116" lon="5.87091">
        <ele>643</ele>
        <time>2019-06-12T15:29:10Z</time>
      </trkpt>
      <trkpt lat="44.36116" lon="5.87088">
        <ele>643</ele>
        <time>2019-06-12T15:29:11Z</time>
      </trkpt>
      <trkpt lat="44.36115" lon="5.87085">
        <ele>643</ele>
        <time>2019-06-12T15:29:12Z</time>
      </trkpt>
      <trkpt lat="44.36115" lon="5.87081">
        <ele>643</ele>
        <time>2019-06-12T15:29:13Z</time>
      </trkpt>
      <trkpt lat="44.36114" lon="5.87078">
        <ele>643</ele>
        <time>2019-06-12T15:29:14Z</time>
      </trkpt>
      <trkpt lat="44.36113" lon="5.87075">
        <ele>643</ele>
        <time>2019-06-12T15:29:15Z</time>
      </trkpt>
      <trkpt lat="44.36113" lon="5.87072">
        <ele>643</ele>
        <time>2019-06-12T15:29:16Z</time>
      </trkpt>
      <trkpt lat="44.36112" lon="5.87068">
        <ele>643</ele>
        <time>2019-06-12T15:29:17Z</time>
      </trkpt>
      <trkpt lat="44.36112" lon="5.87065">
        <ele>643</ele>
        <time>2019-06-12T15:29:18Z</time>
      </trkpt>
      <trkpt lat="44.36111" lon="5.87062">
        <ele>644</ele>
        <time>2019-06-12T15:29:19Z</time>
      </trkpt>
      <trkpt lat="44.36111" lon="5.87058">
        <ele>644</ele>
        <time>2019-06-12T15:29:20Z</time>
      </trkpt>
      <trkpt lat="44.3611" lon="5.87055">
        <ele>644</ele>
        <time>2019-06-12T15:29:21Z</time>
      </trkpt>
      <trkpt lat="44.3611" lon="5.87052">
        <ele>644</ele>
        <time>2019-06-12T15:29:22Z</time>
      </trkpt>
      <trkpt lat="44.36109" lon="5.87048">
        <ele>644</ele>
        <time>2019-06-12T15:29:23Z</time>
      </trkpt>
      <trkpt lat="44.36108" lon="5.87045">
        <ele>644</ele>
        <time>2019-06-12T15:29:24Z</time>
      </trkpt>
      <trkpt lat="44.36108" lon="5.87042">
        <ele>645</ele>
        <time>2019-06-12T15:29:25Z</time>
      </trkpt>
      <trkpt lat="44.36107" lon="5.87039">
        <ele>645</ele>
        <time>2019-06-12T15:29:26Z</time>
      </trkpt>
      <trkpt lat="44.36106" lon="5.87035">
        <ele>645</ele>
        <time>2019-06-12T15:29:27Z</time>
      </trkpt>
      <trkpt lat="44.36105" lon="5.87032">
        <ele>645</ele>
        <time>2019-06-12T15:29:28Z</time>
      </trkpt>
      <trkpt lat="44.36104" lon="5.87028">
        <ele>645</ele>
        <time>2019-06-12T15:29:29Z</time>
      </trkpt>
      <trkpt lat="44.36103" lon="5.87025">
        <ele>645</ele>
        <time>2019-06-12T15:29:30Z</time>
      </trkpt>
      <trkpt lat="44.36102" lon="5.87021">
        <ele>646</ele>
        <time>2019-06-12T15:29:31Z</time>
      </trkpt>
      <trkpt lat="44.36101" lon="5.87018">
        <ele>646</ele>
        <time>2019-06-12T15:29:32Z</time>
      </trkpt>
      <trkpt lat="44.361" lon="5.87015">
        <ele>646</ele>
        <time>2019-06-12T15:29:33Z</time>
      </trkpt>
      <trkpt lat="44.36098" lon="5.87011">
        <ele>647</ele>
        <time>2019-06-12T15:29:34Z</time>
      </trkpt>
      <trkpt lat="44.36097" lon="5.87008">
        <ele>647</ele>
        <time>2019-06-12T15:29:35Z</time>
      </trkpt>
      <trkpt lat="44.36096" lon="5.87005">
        <ele>647</ele>
        <time>2019-06-12T15:29:36Z</time>
      </trkpt>
      <trkpt lat="44.36095" lon="5.87001">
        <ele>647</ele>
        <time>2019-06-12T15:29:37Z</time>
      </trkpt>
      <trkpt lat="44.36094" lon="5.86998">
        <ele>648</ele>
        <time>2019-06-12T15:29:38Z</time>
      </trkpt>
      <trkpt lat="44.36092" lon="5.86994">
        <ele>648</ele>
        <time>2019-06-12T15:29:39Z</time>
      </trkpt>
      <trkpt lat="44.36091" lon="5.86991">
        <ele>648</ele>
        <time>2019-06-12T15:29:40Z</time>
      </trkpt>
      <trkpt lat="44.3609" lon="5.86987">
        <ele>649</ele>
        <time>2019-06-12T15:29:41Z</time>
      </trkpt>
      <trkpt lat="44.36088" lon="5.86984">
        <ele>649</ele>
        <time>2019-06-12T15:29:42Z</time>
      </trkpt>
      <trkpt lat="44.36087" lon="5.86981">
        <ele>649</ele>
        <time>2019-06-12T15:29:43Z</time>
      </trkpt>
      <trkpt lat="44.36086" lon="5.86978">
        <ele>650</ele>
        <time>2019-06-12T15:29:44Z</time>
      </trkpt>
      <trkpt lat="44.36084" lon="5.86974">
        <ele>650</ele>
        <time>2019-06-12T15:29:45Z</time>
      </trkpt>
      <trkpt lat="44.36082" lon="5.86971">
        <ele>650</ele>
        <time>2019-06-12T15:29:46Z</time>
      </trkpt>
      <trkpt lat="44.36081" lon="5.86968">
        <ele>650</ele>
        <time>2019-06-12T15:29:47Z</time>
      </trkpt>
      <trkpt lat="44.36079" lon="5.86965">
        <ele>651</ele>
        <time>2019-06-12T15:29:48Z</time>
      </trkpt>
      <trkpt lat="44.36078" lon="5.86962">
        <ele>651</ele>
        <time>2019-06-12T15:29:49Z</time>
      </trkpt>
      <trkpt lat="44.36076" lon="5.86958">
        <ele>651</ele>
        <time>2019-06-12T15:29:50Z</time>
      </trkpt>
      <trkpt lat="44.36074" lon="5.86955">
        <ele>651</ele>
        <time>2019-06-12T15:29:51Z</time>
      </trkpt>
      <trkpt lat="44.36073" lon="5.86951">
        <ele>652</ele>
        <time>2019-06-12T15:29:52Z</time>
      </trkpt>
      <trkpt lat="44.36071" lon="5.86948">
        <ele>652</ele>
        <time>2019-06-12T15:29:53Z</time>
      </trkpt>
      <trkpt lat="44.3607" lon="5.86944">
        <ele>652</ele>
        <time>2019-06-12T15:29:54Z</time>
      </trkpt>
      <trkpt lat="44.36068" lon="5.86941">
        <ele>652</ele>
        <time>2019-06-12T15:29:55Z</time>
      </trkpt>
      <trkpt lat="44.36067" lon="5.86938">
        <ele>653</ele>
        <time>2019-06-12T15:29:56Z</time>
      </trkpt>
      <trkpt lat="44.36065" lon="5.86934">
        <ele>653</ele>
        <time>2019-06-12T15:29:57Z</time>
      </trkpt>
      <trkpt lat="44.36063" lon="5.8693">
        <ele>653</ele>
        <time>2019-06-12T15:29:58Z</time>
      </trkpt>
      <trkpt lat="44.36062" lon="5.86927">
        <ele>653</ele>
        <time>2019-06-12T15:29:59Z</time>
      </trkpt>
      <trkpt lat="44.3606" lon="5.86923">
        <ele>654</ele>
        <time>2019-06-12T15:30:00Z</time>
      </trkpt>
      <trkpt lat="44.36058" lon="5.8692">
        <ele>654</ele>
        <time>2019-06-12T15:30:01Z</time>
      </trkpt>
      <trkpt lat="44.36057" lon="5.86916">
        <ele>654</ele>
        <time>2019-06-12T15:30:02Z</time>
      </trkpt>
      <trkpt lat="44.36055" lon="5.86912">
        <ele>654</ele>
        <time>2019-06-12T15:30:03Z</time>
      </trkpt>
      <trkpt lat="44.36053" lon="5.86909">
        <ele>654</ele>
        <time>2019-06-12T15:30:04Z</time>
      </trkpt>
      <trkpt lat="44.36051" lon="5.86905">
        <ele>655</ele>
        <time>2019-06-12T15:30:05Z</time>
      </trkpt>
      <trkpt lat="44.3605" lon="5.86902">
        <ele>655</ele>
        <time>2019-06-12T15:30:06Z</time>
      </trkpt>
      <trkpt lat="44.36048" lon="5.86898">
        <ele>655</ele>
        <time>2019-06-12T15:30:07Z</time>
      </trkpt>
      <trkpt lat="44.36046" lon="5.86894">
        <ele>655</ele>
        <time>2019-06-12T15:30:08Z</time>
      </trkpt>
      <trkpt lat="44.36044" lon="5.8689">
        <ele>656</ele>
        <time>2019-06-12T15:30:09Z</time>
      </trkpt>
      <trkpt lat="44.36042" lon="5.86886">
        <ele>656</ele>
        <time>2019-06-12T15:30:10Z</time>
      </trkpt>
      <trkpt lat="44.3604" lon="5.86882">
        <ele>656</ele>
        <time>2019-06-12T15:30:11Z</time>
      </trkpt>
      <trkpt lat="44.36039" lon="5.86879">
        <ele>656</ele>
        <time>2019-06-12T15:30:12Z</time>
      </trkpt>
      <trkpt lat="44.36037" lon="5.86875">
        <ele>656</ele>
        <time>2019-06-12T15:30:13Z</time>
      </trkpt>
      <trkpt lat="44.36035" lon="5.86871">
        <ele>656</ele>
        <time>2019-06-12T15:30:14Z</time>
      </trkpt>
      <trkpt lat="44.36033" lon="5.86867">
        <ele>657</ele>
        <time>2019-06-12T15:30:15Z</time>
      </trkpt>
      <trkpt lat="44.36031" lon="5.86863">
        <ele>657</ele>
        <time>2019-06-12T15:30:16Z</time>
      </trkpt>
      <trkpt lat="44.36029" lon="5.86859">
        <ele>657</ele>
        <time>2019-06-12T15:30:17Z</time>
      </trkpt>
      <trkpt lat="44.36028" lon="5.86855">
        <ele>657</ele>
        <time>2019-06-12T15:30:18Z</time>
      </trkpt>
      <trkpt lat="44.36026" lon="5.86851">
        <ele>657</ele>
        <time>2019-06-12T15:30:19Z</time>
      </trkpt>
      <trkpt lat="44.36024" lon="5.86847">
        <ele>657</ele>
        <time>2019-06-12T15:30:20Z</time>
      </trkpt>
      <trkpt lat="44.36022" lon="5.86843">
        <ele>657</ele>
        <time>2019-06-12T15:30:21Z</time>
      </trkpt>
      <trkpt lat="44.3602" lon="5.86839">
        <ele>657</ele>
        <time>2019-06-12T15:30:22Z</time>
      </trkpt>
      <trkpt lat="44.36018" lon="5.86835">
        <ele>658</ele>
        <time>2019-06-12T15:30:23Z</time>
      </trkpt>
      <trkpt lat="44.36016" lon="5.86831">
        <ele>658</ele>
        <time>2019-06-12T15:30:24Z</time>
      </trkpt>
      <trkpt lat="44.36014" lon="5.86827">
        <ele>658</ele>
        <time>2019-06-12T15:30:25Z</time>
      </trkpt>
      <trkpt lat="44.36012" lon="5.86823">
        <ele>658</ele>
        <time>2019-06-12T15:30:26Z</time>
      </trkpt>
      <trkpt lat="44.3601" lon="5.86819">
        <ele>658</ele>
        <time>2019-06-12T15:30:27Z</time>
      </trkpt>
      <trkpt lat="44.36008" lon="5.86814">
        <ele>658</ele>
        <time>2019-06-12T15:30:28Z</time>
      </trkpt>
      <trkpt lat="44.36006" lon="5.8681">
        <ele>659</ele>
        <time>2019-06-12T15:30:29Z</time>
      </trkpt>
      <trkpt lat="44.36004" lon="5.86806">
        <ele>659</ele>
        <time>2019-06-12T15:30:30Z</time>
      </trkpt>
      <trkpt lat="44.36002" lon="5.86802">
        <ele>659</ele>
        <time>2019-06-12T15:30:31Z</time>
      </trkpt>
      <trkpt lat="44.36" lon="5.86798">
        <ele>659</ele>
        <time>2019-06-12T15:30:32Z</time>
      </trkpt>
      <trkpt lat="44.35998" lon="5.86794">
        <ele>659</ele>
        <time>2019-06-12T15:30:33Z</time>
      </trkpt>
      <trkpt lat="44.35996" lon="5.8679">
        <ele>659</ele>
        <time>2019-06-12T15:30:34Z</time>
      </trkpt>
      <trkpt lat="44.35994" lon="5.86786">
        <ele>659</ele>
        <time>2019-06-12T15:30:35Z</time>
      </trkpt>
      <trkpt lat="44.35992" lon="5.86782">
        <ele>659</ele>
        <time>2019-06-12T15:30:36Z</time>
      </trkpt>
      <trkpt lat="44.35991" lon="5.86778">
        <ele>659</ele>
        <time>2019-06-12T15:30:37Z</time>
      </trkpt>
      <trkpt lat="44.35989" lon="5.86774">
        <ele>660</ele>
        <time>2019-06-12T15:30:38Z</time>
      </trkpt>
      <trkpt lat="44.35987" lon="5.8677">
        <ele>660</ele>
        <time>2019-06-12T15:30:39Z</time>
      </trkpt>
      <trkpt lat="44.35986" lon="5.86767">
        <ele>660</ele>
        <time>2019-06-12T15:30:40Z</time>
      </trkpt>
      <trkpt lat="44.35984" lon="5.86763">
        <ele>660</ele>
        <time>2019-06-12T15:30:41Z</time>
      </trkpt>
      <trkpt lat="44.35982" lon="5.8676">
        <ele>660</ele>
        <time>2019-06-12T15:30:42Z</time>
      </trkpt>
      <trkpt lat="44.35981" lon="5.86756">
        <ele>660</ele>
        <time>2019-06-12T15:30:43Z</time>
      </trkpt>
      <trkpt lat="44.35979" lon="5.86753">
        <ele>660</ele>
        <time>2019-06-12T15:30:44Z</time>
      </trkpt>
      <trkpt lat="44.35977" lon="5.86749">
        <ele>661</ele>
        <time>2019-06-12T15:30:45Z</time>
      </trkpt>
      <trkpt lat="44.35975" lon="5.86746">
        <ele>661</ele>
        <time>2019-06-12T15:30:46Z</time>
      </trkpt>
      <trkpt lat="44.35973" lon="5.86742">
        <ele>661</ele>
        <time>2019-06-12T15:30:47Z</time>
      </trkpt>
      <trkpt lat="44.35972" lon="5.86738">
        <ele>661</ele>
        <time>2019-06-12T15:30:48Z</time>
      </trkpt>
      <trkpt lat="44.3597" lon="5.86734">
        <ele>661</ele>
        <time>2019-06-12T15:30:49Z</time>
      </trkpt>
      <trkpt lat="44.35968" lon="5.8673">
        <ele>661</ele>
        <time>2019-06-12T15:30:50Z</time>
      </trkpt>
      <trkpt lat="44.35966" lon="5.86727">
        <ele>662</ele>
        <time>2019-06-12T15:30:51Z</time>
      </trkpt>
      <trkpt lat="44.35964" lon="5.86723">
        <ele>662</ele>
        <time>2019-06-12T15:30:52Z</time>
      </trkpt>
      <trkpt lat="44.35963" lon="5.8672">
        <ele>662</ele>
        <time>2019-06-12T15:30:53Z</time>
      </trkpt>
      <trkpt lat="44.35961" lon="5.86716">
        <ele>662</ele>
        <time>2019-06-12T15:30:54Z</time>
      </trkpt>
      <trkpt lat="44.35959" lon="5.86711">
        <ele>662</ele>
        <time>2019-06-12T15:30:55Z</time>
      </trkpt>
      <trkpt lat="44.35958" lon="5.86707">
        <ele>662</ele>
        <time>2019-06-12T15:30:56Z</time>
      </trkpt>
      <trkpt lat="44.35956" lon="5.86703">
        <ele>662</ele>
        <time>2019-06-12T15:30:57Z</time>
      </trkpt>
      <trkpt lat="44.35954" lon="5.86699">
        <ele>663</ele>
        <time>2019-06-12T15:30:58Z</time>
      </trkpt>
      <trkpt lat="44.35953" lon="5.86695">
        <ele>663</ele>
        <time>2019-06-12T15:30:59Z</time>
      </trkpt>
      <trkpt lat="44.35951" lon="5.86691">
        <ele>663</ele>
        <time>2019-06-12T15:31:00Z</time>
      </trkpt>
      <trkpt lat="44.35949" lon="5.86686">
        <ele>663</ele>
        <time>2019-06-12T15:31:01Z</time>
      </trkpt>
      <trkpt lat="44.35948" lon="5.86682">
        <ele>663</ele>
        <time>2019-06-12T15:31:02Z</time>
      </trkpt>
      <trkpt lat="44.35946" lon="5.86678">
        <ele>663</ele>
        <time>2019-06-12T15:31:03Z</time>
      </trkpt>
      <trkpt lat="44.35945" lon="5.86673">
        <ele>663</ele>
        <time>2019-06-12T15:31:04Z</time>
      </trkpt>
      <trkpt lat="44.35944" lon="5.86668">
        <ele>663</ele>
        <time>2019-06-12T15:31:05Z</time>
      </trkpt>
      <trkpt lat="44.35943" lon="5.86663">
        <ele>663</ele>
        <time>2019-06-12T15:31:06Z</time>
      </trkpt>
      <trkpt lat="44.35942" lon="5.86659">
        <ele>663</ele>
        <time>2019-06-12T15:31:07Z</time>
      </trkpt>
      <trkpt lat="44.3594" lon="5.86654">
        <ele>663</ele>
        <time>2019-06-12T15:31:08Z</time>
      </trkpt>
      <trkpt lat="44.35939" lon="5.86649">
        <ele>663</ele>
        <time>2019-06-12T15:31:09Z</time>
      </trkpt>
      <trkpt lat="44.35938" lon="5.86644">
        <ele>663</ele>
        <time>2019-06-12T15:31:10Z</time>
      </trkpt>
      <trkpt lat="44.35937" lon="5.86639">
        <ele>663</ele>
        <time>2019-06-12T15:31:11Z</time>
      </trkpt>
      <trkpt lat="44.35936" lon="5.86634">
        <ele>663</ele>
        <time>2019-06-12T15:31:12Z</time>
      </trkpt>
      <trkpt lat="44.35935" lon="5.86629">
        <ele>663</ele>
        <time>2019-06-12T15:31:13Z</time>
      </trkpt>
      <trkpt lat="44.35934" lon="5.86624">
        <ele>663</ele>
        <time>2019-06-12T15:31:14Z</time>
      </trkpt>
      <trkpt lat="44.35933" lon="5.86619">
        <ele>663</ele>
        <time>2019-06-12T15:31:15Z</time>
      </trkpt>
      <trkpt lat="44.35932" lon="5.86614">
        <ele>663</ele>
        <time>2019-06-12T15:31:16Z</time>
      </trkpt>
      <trkpt lat="44.35931" lon="5.86608">
        <ele>663</ele>
        <time>2019-06-12T15:31:17Z</time>
      </trkpt>
      <trkpt lat="44.3593" lon="5.86603">
        <ele>663</ele>
        <time>2019-06-12T15:31:18Z</time>
      </trkpt>
      <trkpt lat="44.35928" lon="5.86598">
        <ele>663</ele>
        <time>2019-06-12T15:31:19Z</time>
      </trkpt>
      <trkpt lat="44.35927" lon="5.86592">
        <ele>663</ele>
        <time>2019-06-12T15:31:20Z</time>
      </trkpt>
      <trkpt lat="44.35926" lon="5.86587">
        <ele>663</ele>
        <time>2019-06-12T15:31:21Z</time>
      </trkpt>
      <trkpt lat="44.35925" lon="5.86581">
        <ele>663</ele>
        <time>2019-06-12T15:31:22Z</time>
      </trkpt>
      <trkpt lat="44.35924" lon="5.86576">
        <ele>663</ele>
        <time>2019-06-12T15:31:23Z</time>
      </trkpt>
      <trkpt lat="44.35923" lon="5.8657">
        <ele>663</ele>
        <time>2019-06-12T15:31:24Z</time>
      </trkpt>
      <trkpt lat="44.35921" lon="5.86564">
        <ele>663</ele>
        <time>2019-06-12T15:31:25Z</time>
      </trkpt>
      <trkpt lat="44.3592" lon="5.86558">
        <ele>663</ele>
        <time>2019-06-12T15:31:26Z</time>
      </trkpt>
      <trkpt lat="44.35919" lon="5.86552">
        <ele>663</ele>
        <time>2019-06-12T15:31:27Z</time>
      </trkpt>
      <trkpt lat="44.35917" lon="5.86546">
        <ele>663</ele>
        <time>2019-06-12T15:31:28Z</time>
      </trkpt>
      <trkpt lat="44.35916" lon="5.8654">
        <ele>663</ele>
        <time>2019-06-12T15:31:29Z</time>
      </trkpt>
      <trkpt lat="44.35915" lon="5.86534">
        <ele>663</ele>
        <time>2019-06-12T15:31:30Z</time>
      </trkpt>
      <trkpt lat="44.35914" lon="5.86528">
        <ele>663</ele>
        <time>2019-06-12T15:31:31Z</time>
      </trkpt>
      <trkpt lat="44.35912" lon="5.86522">
        <ele>663</ele>
        <time>2019-06-12T15:31:32Z</time>
      </trkpt>
      <trkpt lat="44.35911" lon="5.86517">
        <ele>663</ele>
        <time>2019-06-12T15:31:33Z</time>
      </trkpt>
      <trkpt lat="44.3591" lon="5.86511">
        <ele>663</ele>
        <time>2019-06-12T15:31:34Z</time>
      </trkpt>
      <trkpt lat="44.35909" lon="5.86505">
        <ele>663</ele>
        <time>2019-06-12T15:31:35Z</time>
      </trkpt>
      <trkpt lat="44.35907" lon="5.865">
        <ele>663</ele>
        <time>2019-06-12T15:31:36Z</time>
      </trkpt>
      <trkpt lat="44.35906" lon="5.86494">
        <ele>663</ele>
        <time>2019-06-12T15:31:37Z</time>
      </trkpt>
      <trkpt lat="44.35905" lon="5.86488">
        <ele>663</ele>
        <time>2019-06-12T15:31:38Z</time>
      </trkpt>
      <trkpt lat="44.35904" lon="5.86483">
        <ele>663</ele>
        <time>2019-06-12T15:31:39Z</time>
      </trkpt>
      <trkpt lat="44.35902" lon="5.86477">
        <ele>663</ele>
        <time>2019-06-12T15:31:40Z</time>
      </trkpt>
      <trkpt lat="44.35901" lon="5.86472">
        <ele>663</ele>
        <time>2019-06-12T15:31:41Z</time>
      </trkpt>
      <trkpt lat="44.359" lon="5.86466">
        <ele>663</ele>
        <time>2019-06-12T15:31:42Z</time>
      </trkpt>
      <trkpt lat="44.35899" lon="5.8646">
        <ele>663</ele>
        <time>2019-06-12T15:31:43Z</time>
      </trkpt>
      <trkpt lat="44.35897" lon="5.86454">
        <ele>663</ele>
        <time>2019-06-12T15:31:44Z</time>
      </trkpt>
      <trkpt lat="44.35896" lon="5.86448">
        <ele>663</ele>
        <time>2019-06-12T15:31:45Z</time>
      </trkpt>
      <trkpt lat="44.35895" lon="5.86442">
        <ele>663</ele>
        <time>2019-06-12T15:31:46Z</time>
      </trkpt>
      <trkpt lat="44.35894" lon="5.86436">
        <ele>663</ele>
        <time>2019-06-12T15:31:47Z</time>
      </trkpt>
      <trkpt lat="44.35892" lon="5.8643">
        <ele>663</ele>
        <time>2019-06-12T15:31:48Z</time>
      </trkpt>
      <trkpt lat="44.35891" lon="5.86424">
        <ele>663</ele>
        <time>2019-06-12T15:31:49Z</time>
      </trkpt>
      <trkpt lat="44.3589" lon="5.86417">
        <ele>663</ele>
        <time>2019-06-12T15:31:50Z</time>
      </trkpt>
      <trkpt lat="44.35889" lon="5.86411">
        <ele>663</ele>
        <time>2019-06-12T15:31:51Z</time>
      </trkpt>
      <trkpt lat="44.35888" lon="5.86405">
        <ele>663</ele>
        <time>2019-06-12T15:31:52Z</time>
      </trkpt>
      <trkpt lat="44.35886" lon="5.86399">
        <ele>663</ele>
        <time>2019-06-12T15:31:53Z</time>
      </trkpt>
      <trkpt lat="44.35885" lon="5.86393">
        <ele>663</ele>
        <time>2019-06-12T15:31:54Z</time>
      </trkpt>
      <trkpt lat="44.35883" lon="5.86387">
        <ele>663</ele>
        <time>2019-06-12T15:31:55Z</time>
      </trkpt>
      <trkpt lat="44.35882" lon="5.86381">
        <ele>663</ele>
        <time>2019-06-12T15:31:56Z</time>
      </trkpt>
      <trkpt lat="44.35881" lon="5.86375">
        <ele>663</ele>
        <time>2019-06-12T15:31:57Z</time>
      </trkpt>
      <trkpt lat="44.35879" lon="5.86368">
        <ele>663</ele>
        <time>2019-06-12T15:31:58Z</time>
      </trkpt>
      <trkpt lat="44.35878" lon="5.86362">
        <ele>663</ele>
        <time>2019-06-12T15:31:59Z</time>
      </trkpt>
      <trkpt lat="44.35876" lon="5.86356">
        <ele>663</ele>
        <time>2019-06-12T15:32:00Z</time>
      </trkpt>
      <trkpt lat="44.35874" lon="5.8635">
        <ele>663</ele>
        <time>2019-06-12T15:32:01Z</time>
      </trkpt>
      <trkpt lat="44.35873" lon="5.86343">
        <ele>663</ele>
        <time>2019-06-12T15:32:02Z</time>
      </trkpt>
      <trkpt lat="44.35871" lon="5.86337">
        <ele>663</ele>
        <time>2019-06-12T15:32:03Z</time>
      </trkpt>
      <trkpt lat="44.35869" lon="5.86331">
        <ele>663</ele>
        <time>2019-06-12T15:32:04Z</time>
      </trkpt>
      <trkpt lat="44.35867" lon="5.86325">
        <ele>663</ele>
        <time>2019-06-12T15:32:05Z</time>
      </trkpt>
      <trkpt lat="44.35864" lon="5.86319">
        <ele>663</ele>
        <time>2019-06-12T15:32:06Z</time>
      </trkpt>
      <trkpt lat="44.35862" lon="5.86313">
        <ele>663</ele>
        <time>2019-06-12T15:32:07Z</time>
      </trkpt>
      <trkpt lat="44.35859" lon="5.86307">
        <ele>663</ele>
        <time>2019-06-12T15:32:08Z</time>
      </trkpt>
      <trkpt lat="44.35856" lon="5.86301">
        <ele>663</ele>
        <time>2019-06-12T15:32:09Z</time>
      </trkpt>
      <trkpt lat="44.35853" lon="5.86295">
        <ele>663</ele>
        <time>2019-06-12T15:32:10Z</time>
      </trkpt>
      <trkpt lat="44.3585" lon="5.86288">
        <ele>663</ele>
        <time>2019-06-12T15:32:11Z</time>
      </trkpt>
      <trkpt lat="44.35846" lon="5.86282">
        <ele>663</ele>
        <time>2019-06-12T15:32:12Z</time>
      </trkpt>
      <trkpt lat="44.35843" lon="5.86275">
        <ele>663</ele>
        <time>2019-06-12T15:32:13Z</time>
      </trkpt>
      <trkpt lat="44.3584" lon="5.86269">
        <ele>663</ele>
        <time>2019-06-12T15:32:14Z</time>
      </trkpt>
      <trkpt lat="44.35837" lon="5.86262">
        <ele>663</ele>
        <time>2019-06-12T15:32:15Z</time>
      </trkpt>
      <trkpt lat="44.35833" lon="5.86255">
        <ele>663</ele>
        <time>2019-06-12T15:32:16Z</time>
      </trkpt>
      <trkpt lat="44.35831" lon="5.86247">
        <ele>663</ele>
        <time>2019-06-12T15:32:17Z</time>
      </trkpt>
      <trkpt lat="44.35828" lon="5.86239">
        <ele>663</ele>
        <time>2019-06-12T15:32:18Z</time>
      </trkpt>
      <trkpt lat="44.35825" lon="5.86232">
        <ele>663</ele>
        <time>2019-06-12T15:32:19Z</time>
      </trkpt>
      <trkpt lat="44.35822" lon="5.86224">
        <ele>663</ele>
        <time>2019-06-12T15:32:20Z</time>
      </trkpt>
      <trkpt lat="44.35819" lon="5.86216">
        <ele>663</ele>
        <time>2019-06-12T15:32:21Z</time>
      </trkpt>
      <trkpt lat="44.35817" lon="5.86209">
        <ele>663</ele>
        <time>2019-06-12T15:32:22Z</time>
      </trkpt>
      <trkpt lat="44.35815" lon="5.86201">
        <ele>663</ele>
        <time>2019-06-12T15:32:23Z</time>
      </trkpt>
      <trkpt lat="44.35813" lon="5.86193">
        <ele>663</ele>
        <time>2019-06-12T15:32:24Z</time>
      </trkpt>
      <trkpt lat="44.35811" lon="5.86185">
        <ele>663</ele>
        <time>2019-06-12T15:32:25Z</time>
      </trkpt>
      <trkpt lat="44.35809" lon="5.86177">
        <ele>663</ele>
        <time>2019-06-12T15:32:26Z</time>
      </trkpt>
      <trkpt lat="44.35807" lon="5.86169">
        <ele>663</ele>
        <time>2019-06-12T15:32:27Z</time>
      </trkpt>
      <trkpt lat="44.35806" lon="5.86161">
        <ele>663</ele>
        <time>2019-06-12T15:32:28Z</time>
      </trkpt>
      <trkpt lat="44.35804" lon="5.86153">
        <ele>663</ele>
        <time>2019-06-12T15:32:29Z</time>
      </trkpt>
      <trkpt lat="44.35803" lon="5.86144">
        <ele>663</ele>
        <time>2019-06-12T15:32:30Z</time>
      </trkpt>
      <trkpt lat="44.35801" lon="5.86136">
        <ele>663</ele>
        <time>2019-06-12T15:32:31Z</time>
      </trkpt>
      <trkpt lat="44.35799" lon="5.86127">
        <ele>663</ele>
        <time>2019-06-12T15:32:32Z</time>
      </trkpt>
      <trkpt lat="44.35798" lon="5.86119">
        <ele>663</ele>
        <time>2019-06-12T15:32:33Z</time>
      </trkpt>
      <trkpt lat="44.35796" lon="5.8611">
        <ele>663</ele>
        <time>2019-06-12T15:32:34Z</time>
      </trkpt>
      <trkpt lat="44.35794" lon="5.86101">
        <ele>663</ele>
        <time>2019-06-12T15:32:35Z</time>
      </trkpt>
      <trkpt lat="44.35793" lon="5.86093">
        <ele>663</ele>
        <time>2019-06-12T15:32:36Z</time>
      </trkpt>
      <trkpt lat="44.35791" lon="5.86085">
        <ele>663</ele>
        <time>2019-06-12T15:32:37Z</time>
      </trkpt>
      <trkpt lat="44.35789" lon="5.86077">
        <ele>663</ele>
        <time>2019-06-12T15:32:38Z</time>
      </trkpt>
      <trkpt lat="44.35787" lon="5.86069">
        <ele>663</ele>
        <time>2019-06-12T15:32:39Z</time>
      </trkpt>
      <trkpt lat="44.35785" lon="5.86061">
        <ele>663</ele>
        <time>2019-06-12T15:32:40Z</time>
      </trkpt>
      <trkpt lat="44.35783" lon="5.86053">
        <ele>663</ele>
        <time>2019-06-12T15:32:41Z</time>
      </trkpt>
      <trkpt lat="44.3578" lon="5.86045">
        <ele>663</ele>
        <time>2019-06-12T15:32:42Z</time>
      </trkpt>
      <trkpt lat="44.35777" lon="5.86037">
        <ele>663</ele>
        <time>2019-06-12T15:32:43Z</time>
      </trkpt>
      <trkpt lat="44.35773" lon="5.86029">
        <ele>663</ele>
        <time>2019-06-12T15:32:44Z</time>
      </trkpt>
      <trkpt lat="44.35769" lon="5.86022">
        <ele>663</ele>
        <time>2019-06-12T15:32:45Z</time>
      </trkpt>
      <trkpt lat="44.35765" lon="5.86015">
        <ele>663</ele>
        <time>2019-06-12T15:32:46Z</time>
      </trkpt>
      <trkpt lat="44.35762" lon="5.86007">
        <ele>663</ele>
        <time>2019-06-12T15:32:47Z</time>
      </trkpt>
      <trkpt lat="44.35757" lon="5.86">
        <ele>663</ele>
        <time>2019-06-12T15:32:48Z</time>
      </trkpt>
      <trkpt lat="44.35753" lon="5.85992">
        <ele>663</ele>
        <time>2019-06-12T15:32:49Z</time>
      </trkpt>
      <trkpt lat="44.35748" lon="5.85985">
        <ele>663</ele>
        <time>2019-06-12T15:32:50Z</time>
      </trkpt>
      <trkpt lat="44.35744" lon="5.85977">
        <ele>663</ele>
        <time>2019-06-12T15:32:51Z</time>
      </trkpt>
      <trkpt lat="44.35739" lon="5.8597">
        <ele>663</ele>
        <time>2019-06-12T15:32:52Z</time>
      </trkpt>
      <trkpt lat="44.35734" lon="5.85962">
        <ele>663</ele>
        <time>2019-06-12T15:32:53Z</time>
      </trkpt>
      <trkpt lat="44.3573" lon="5.85955">
        <ele>663</ele>
        <time>2019-06-12T15:32:54Z</time>
      </trkpt>
      <trkpt lat="44.35725" lon="5.85947">
        <ele>663</ele>
        <time>2019-06-12T15:32:55Z</time>
      </trkpt>
      <trkpt lat="44.3572" lon="5.85939">
        <ele>663</ele>
        <time>2019-06-12T15:32:56Z</time>
      </trkpt>
      <trkpt lat="44.35715" lon="5.85931">
        <ele>663</ele>
        <time>2019-06-12T15:32:57Z</time>
      </trkpt>
      <trkpt lat="44.3571" lon="5.85923">
        <ele>663</ele>
        <time>2019-06-12T15:32:58Z</time>
      </trkpt>
      <trkpt lat="44.35705" lon="5.85915">
        <ele>663</ele>
        <time>2019-06-12T15:32:59Z</time>
      </trkpt>
      <trkpt lat="44.35699" lon="5.85906">
        <ele>663</ele>
        <time>2019-06-12T15:33:00Z</time>
      </trkpt>
      <trkpt lat="44.35694" lon="5.85897">
        <ele>663</ele>
        <time>2019-06-12T15:33:01Z</time>
      </trkpt>
      <trkpt lat="44.35689" lon="5.85889">
        <ele>663</ele>
        <time>2019-06-12T15:33:02Z</time>
      </trkpt>
      <trkpt lat="44.35683" lon="5.8588">
        <ele>663</ele>
        <time>2019-06-12T15:33:03Z</time>
      </trkpt>
      <trkpt lat="44.35678" lon="5.85872">
        <ele>663</ele>
        <time>2019-06-12T15:33:04Z</time>
      </trkpt>
      <trkpt lat="44.35672" lon="5.85863">
        <ele>663</ele>
        <time>2019-06-12T15:33:05Z</time>
      </trkpt>
      <trkpt lat="44.35667" lon="5.85854">
        <ele>663</ele>
        <time>2019-06-12T15:33:06Z</time>
      </trkpt>
      <trkpt lat="44.35661" lon="5.85845">
        <ele>663</ele>
        <time>2019-06-12T15:33:07Z</time>
      </trkpt>
      <trkpt lat="44.35656" lon="5.85837">
        <ele>663</ele>
        <time>2019-06-12T15:33:08Z</time>
      </trkpt>
      <trkpt lat="44.3565" lon="5.85828">
        <ele>663</ele>
        <time>2019-06-12T15:33:09Z</time>
      </trkpt>
      <trkpt lat="44.35645" lon="5.85819">
        <ele>663</ele>
        <time>2019-06-12T15:33:10Z</time>
      </trkpt>
      <trkpt lat="44.35639" lon="5.8581">
        <ele>663</ele>
        <time>2019-06-12T15:33:11Z</time>
      </trkpt>
      <trkpt lat="44.35634" lon="5.85801">
        <ele>663</ele>
        <time>2019-06-12T15:33:12Z</time>
      </trkpt>
      <trkpt lat="44.35628" lon="5.85792">
        <ele>663</ele>
        <time>2019-06-12T15:33:13Z</time>
      </trkpt>
      <trkpt lat="44.35622" lon="5.85784">
        <ele>663</ele>
        <time>2019-06-12T15:33:14Z</time>
      </trkpt>
      <trkpt lat="44.35616" lon="5.85775">
        <ele>663</ele>
        <time>2019-06-12T15:33:15Z</time>
      </trkpt>
      <trkpt lat="44.3561" lon="5.85767">
        <ele>663</ele>
        <time>2019-06-12T15:33:16Z</time>
      </trkpt>
      <trkpt lat="44.35604" lon="5.8576">
        <ele>663</ele>
        <time>2019-06-12T15:33:17Z</time>
      </trkpt>
      <trkpt lat="44.35598" lon="5.85752">
        <ele>663</ele>
        <time>2019-06-12T15:33:18Z</time>
      </trkpt>
      <trkpt lat="44.35592" lon="5.85744">
        <ele>663</ele>
        <time>2019-06-12T15:33:19Z</time>
      </trkpt>
      <trkpt lat="44.35585" lon="5.85736">
        <ele>663</ele>
        <time>2019-06-12T15:33:20Z</time>
      </trkpt>
      <trkpt lat="44.35578" lon="5.85729">
        <ele>663</ele>
        <time>2019-06-12T15:33:21Z</time>
      </trkpt>
      <trkpt lat="44.35571" lon="5.85721">
        <ele>663</ele>
        <time>2019-06-12T15:33:22Z</time>
      </trkpt>
      <trkpt lat="44.35564" lon="5.85713">
        <ele>663</ele>
        <time>2019-06-12T15:33:23Z</time>
      </trkpt>
      <trkpt lat="44.35558" lon="5.85706">
        <ele>663</ele>
        <time>2019-06-12T15:33:24Z</time>
      </trkpt>
      <trkpt lat="44.35551" lon="5.85698">
        <ele>663</ele>
        <time>2019-06-12T15:33:25Z</time>
      </trkpt>
      <trkpt lat="44.35544" lon="5.85691">
        <ele>663</ele>
        <time>2019-06-12T15:33:26Z</time>
      </trkpt>
      <trkpt lat="44.35537" lon="5.85683">
        <ele>663</ele>
        <time>2019-06-12T15:33:27Z</time>
      </trkpt>
      <trkpt lat="44.3553" lon="5.85676">
        <ele>663</ele>
        <time>2019-06-12T15:33:28Z</time>
      </trkpt>
      <trkpt lat="44.35524" lon="5.85669">
        <ele>663</ele>
        <time>2019-06-12T15:33:29Z</time>
      </trkpt>
      <trkpt lat="44.35517" lon="5.85662">
        <ele>663</ele>
        <time>2019-06-12T15:33:30Z</time>
      </trkpt>
      <trkpt lat="44.35511" lon="5.85655">
        <ele>663</ele>
        <time>2019-06-12T15:33:31Z</time>
      </trkpt>
      <trkpt lat="44.35504" lon="5.85647">
        <ele>663</ele>
        <time>2019-06-12T15:33:32Z</time>
      </trkpt>
      <trkpt lat="44.35498" lon="5.8564">
        <ele>662</ele>
        <time>2019-06-12T15:33:33Z</time>
      </trkpt>
      <trkpt lat="44.35491" lon="5.85633">
        <ele>662</ele>
        <time>2019-06-12T15:33:34Z</time>
      </trkpt>
      <trkpt lat="44.35484" lon="5.85626">
        <ele>662</ele>
        <time>2019-06-12T15:33:35Z</time>
      </trkpt>
      <trkpt lat="44.35478" lon="5.85619">
        <ele>662</ele>
        <time>2019-06-12T15:33:36Z</time>
      </trkpt>
      <trkpt lat="44.35471" lon="5.85612">
        <ele>662</ele>
        <time>2019-06-12T15:33:37Z</time>
      </trkpt>
      <trkpt lat="44.35464" lon="5.85604">
        <ele>662</ele>
        <time>2019-06-12T15:33:38Z</time>
      </trkpt>
      <trkpt lat="44.35458" lon="5.85597">
        <ele>662</ele>
        <time>2019-06-12T15:33:39Z</time>
      </trkpt>
      <trkpt lat="44.35451" lon="5.85589">
        <ele>662</ele>
        <time>2019-06-12T15:33:40Z</time>
      </trkpt>
      <trkpt lat="44.35444" lon="5.85581">
        <ele>661</ele>
        <time>2019-06-12T15:33:41Z</time>
      </trkpt>
      <trkpt lat="44.35437" lon="5.85574">
        <ele>661</ele>
        <time>2019-06-12T15:33:42Z</time>
      </trkpt>
      <trkpt lat="44.35431" lon="5.85567">
        <ele>661</ele>
        <time>2019-06-12T15:33:43Z</time>
      </trkpt>
      <trkpt lat="44.35424" lon="5.85559">
        <ele>661</ele>
        <time>2019-06-12T15:33:44Z</time>
      </trkpt>
      <trkpt lat="44.35417" lon="5.85552">
        <ele>661</ele>
        <time>2019-06-12T15:33:45Z</time>
      </trkpt>
      <trkpt lat="44.3541" lon="5.85545">
        <ele>660</ele>
        <time>2019-06-12T15:33:46Z</time>
      </trkpt>
      <trkpt lat="44.35403" lon="5.85537">
        <ele>660</ele>
        <time>2019-06-12T15:33:47Z</time>
      </trkpt>
      <trkpt lat="44.35397" lon="5.8553">
        <ele>660</ele>
        <time>2019-06-12T15:33:48Z</time>
      </trkpt>
      <trkpt lat="44.3539" lon="5.85523">
        <ele>660</ele>
        <time>2019-06-12T15:33:49Z</time>
      </trkpt>
      <trkpt lat="44.35383" lon="5.85514">
        <ele>659</ele>
        <time>2019-06-12T15:33:50Z</time>
      </trkpt>
      <trkpt lat="44.35376" lon="5.85507">
        <ele>659</ele>
        <time>2019-06-12T15:33:51Z</time>
      </trkpt>
      <trkpt lat="44.3537" lon="5.85499">
        <ele>659</ele>
        <time>2019-06-12T15:33:52Z</time>
      </trkpt>
      <trkpt lat="44.35363" lon="5.85492">
        <ele>658</ele>
        <time>2019-06-12T15:33:53Z</time>
      </trkpt>
      <trkpt lat="44.35356" lon="5.85485">
        <ele>658</ele>
        <time>2019-06-12T15:33:54Z</time>
      </trkpt>
      <trkpt lat="44.3535" lon="5.85477">
        <ele>658</ele>
        <time>2019-06-12T15:33:55Z</time>
      </trkpt>
      <trkpt lat="44.35343" lon="5.85469">
        <ele>658</ele>
        <time>2019-06-12T15:33:56Z</time>
      </trkpt>
      <trkpt lat="44.35336" lon="5.85462">
        <ele>658</ele>
        <time>2019-06-12T15:33:57Z</time>
      </trkpt>
      <trkpt lat="44.3533" lon="5.85454">
        <ele>657</ele>
        <time>2019-06-12T15:33:58Z</time>
      </trkpt>
      <trkpt lat="44.35324" lon="5.85446">
        <ele>657</ele>
        <time>2019-06-12T15:33:59Z</time>
      </trkpt>
      <trkpt lat="44.35318" lon="5.85438">
        <ele>657</ele>
        <time>2019-06-12T15:34:00Z</time>
      </trkpt>
      <trkpt lat="44.35313" lon="5.85428">
        <ele>656</ele>
        <time>2019-06-12T15:34:01Z</time>
      </trkpt>
      <trkpt lat="44.35309" lon="5.85419">
        <ele>656</ele>
        <time>2019-06-12T15:34:02Z</time>
      </trkpt>
      <trkpt lat="44.35305" lon="5.85408">
        <ele>656</ele>
        <time>2019-06-12T15:34:03Z</time>
      </trkpt>
      <trkpt lat="44.35301" lon="5.85398">
        <ele>655</ele>
        <time>2019-06-12T15:34:04Z</time>
      </trkpt>
      <trkpt lat="44.35297" lon="5.85388">
        <ele>655</ele>
        <time>2019-06-12T15:34:05Z</time>
      </trkpt>
      <trkpt lat="44.35294" lon="5.85378">
        <ele>655</ele>
        <time>2019-06-12T15:34:06Z</time>
      </trkpt>
      <trkpt lat="44.3529" lon="5.85367">
        <ele>655</ele>
        <time>2019-06-12T15:34:07Z</time>
      </trkpt>
      <trkpt lat="44.35287" lon="5.85357">
        <ele>654</ele>
        <time>2019-06-12T15:34:08Z</time>
      </trkpt>
      <trkpt lat="44.35284" lon="5.85347">
        <ele>654</ele>
        <time>2019-06-12T15:34:09Z</time>
      </trkpt>
      <trkpt lat="44.3528" lon="5.85336">
        <ele>654</ele>
        <time>2019-06-12T15:34:10Z</time>
      </trkpt>
      <trkpt lat="44.35277" lon="5.85325">
        <ele>653</ele>
        <time>2019-06-12T15:34:11Z</time>
      </trkpt>
      <trkpt lat="44.35273" lon="5.85314">
        <ele>653</ele>
        <time>2019-06-12T15:34:12Z</time>
      </trkpt>
      <trkpt lat="44.3527" lon="5.85303">
        <ele>652</ele>
        <time>2019-06-12T15:34:13Z</time>
      </trkpt>
      <trkpt lat="44.35266" lon="5.85292">
        <ele>652</ele>
        <time>2019-06-12T15:34:14Z</time>
      </trkpt>
      <trkpt lat="44.35263" lon="5.85281">
        <ele>652</ele>
        <time>2019-06-12T15:34:15Z</time>
      </trkpt>
      <trkpt lat="44.35259" lon="5.8527">
        <ele>652</ele>
        <time>2019-06-12T15:34:16Z</time>
      </trkpt>
      <trkpt lat="44.35256" lon="5.85259">
        <ele>652</ele>
        <time>2019-06-12T15:34:17Z</time>
      </trkpt>
      <trkpt lat="44.35252" lon="5.85248">
        <ele>651</ele>
        <time>2019-06-12T15:34:18Z</time>
      </trkpt>
      <trkpt lat="44.35249" lon="5.85236">
        <ele>651</ele>
        <time>2019-06-12T15:34:19Z</time>
      </trkpt>
      <trkpt lat="44.35245" lon="5.85224">
        <ele>651</ele>
        <time>2019-06-12T15:34:20Z</time>
      </trkpt>
      <trkpt lat="44.35241" lon="5.85213">
        <ele>651</ele>
        <time>2019-06-12T15:34:21Z</time>
      </trkpt>
      <trkpt lat="44.35238" lon="5.85201">
        <ele>651</ele>
        <time>2019-06-12T15:34:22Z</time>
      </trkpt>
      <trkpt lat="44.35234" lon="5.8519">
        <ele>651</ele>
        <time>2019-06-12T15:34:23Z</time>
      </trkpt>
      <trkpt lat="44.3523" lon="5.85178">
        <ele>651</ele>
        <time>2019-06-12T15:34:24Z</time>
      </trkpt>
      <trkpt lat="44.35226" lon="5.85167">
        <ele>650</ele>
        <time>2019-06-12T15:34:25Z</time>
      </trkpt>
      <trkpt lat="44.35222" lon="5.85156">
        <ele>650</ele>
        <time>2019-06-12T15:34:26Z</time>
      </trkpt>
      <trkpt lat="44.35217" lon="5.85146">
        <ele>650</ele>
        <time>2019-06-12T15:34:27Z</time>
      </trkpt>
      <trkpt lat="44.35211" lon="5.85137">
        <ele>650</ele>
        <time>2019-06-12T15:34:28Z</time>
      </trkpt>
      <trkpt lat="44.35205" lon="5.85128">
        <ele>650</ele>
        <time>2019-06-12T15:34:29Z</time>
      </trkpt>
      <trkpt lat="44.35199" lon="5.85119">
        <ele>650</ele>
        <time>2019-06-12T15:34:30Z</time>
      </trkpt>
      <trkpt lat="44.35192" lon="5.85111">
        <ele>650</ele>
        <time>2019-06-12T15:34:31Z</time>
      </trkpt>
      <trkpt lat="44.35186" lon="5.85104">
        <ele>650</ele>
        <time>2019-06-12T15:34:32Z</time>
      </trkpt>
      <trkpt lat="44.35179" lon="5.85096">
        <ele>650</ele>
        <time>2019-06-12T15:34:33Z</time>
      </trkpt>
      <trkpt lat="44.35173" lon="5.85088">
        <ele>650</ele>
        <time>2019-06-12T15:34:34Z</time>
      </trkpt>
      <trkpt lat="44.35166" lon="5.85081">
        <ele>650</ele>
        <time>2019-06-12T15:34:35Z</time>
      </trkpt>
      <trkpt lat="44.3516" lon="5.85074">
        <ele>649</ele>
        <time>2019-06-12T15:34:36Z</time>
      </trkpt>
      <trkpt lat="44.35154" lon="5.85066">
        <ele>649</ele>
        <time>2019-06-12T15:34:37Z</time>
      </trkpt>
      <trkpt lat="44.35147" lon="5.85058">
        <ele>649</ele>
        <time>2019-06-12T15:34:38Z</time>
      </trkpt>
      <trkpt lat="44.35142" lon="5.85051">
        <ele>649</ele>
        <time>2019-06-12T15:34:39Z</time>
      </trkpt>
      <trkpt lat="44.35136" lon="5.85043">
        <ele>649</ele>
        <time>2019-06-12T15:34:40Z</time>
      </trkpt>
      <trkpt lat="44.35131" lon="5.85034">
        <ele>649</ele>
        <time>2019-06-12T15:34:41Z</time>
      </trkpt>
      <trkpt lat="44.35126" lon="5.85025">
        <ele>649</ele>
        <time>2019-06-12T15:34:42Z</time>
      </trkpt>
      <trkpt lat="44.35122" lon="5.85016">
        <ele>649</ele>
        <time>2019-06-12T15:34:43Z</time>
      </trkpt>
      <trkpt lat="44.35118" lon="5.85007">
        <ele>649</ele>
        <time>2019-06-12T15:34:44Z</time>
      </trkpt>
      <trkpt lat="44.35114" lon="5.84997">
        <ele>648</ele>
        <time>2019-06-12T15:34:45Z</time>
      </trkpt>
      <trkpt lat="44.3511" lon="5.84987">
        <ele>648</ele>
        <time>2019-06-12T15:34:46Z</time>
      </trkpt>
      <trkpt lat="44.35106" lon="5.84977">
        <ele>648</ele>
        <time>2019-06-12T15:34:47Z</time>
      </trkpt>
      <trkpt lat="44.35101" lon="5.84967">
        <ele>648</ele>
        <time>2019-06-12T15:34:48Z</time>
      </trkpt>
      <trkpt lat="44.35096" lon="5.84957">
        <ele>648</ele>
        <time>2019-06-12T15:34:49Z</time>
      </trkpt>
      <trkpt lat="44.35092" lon="5.84947">
        <ele>648</ele>
        <time>2019-06-12T15:34:50Z</time>
      </trkpt>
      <trkpt lat="44.35087" lon="5.84937">
        <ele>648</ele>
        <time>2019-06-12T15:34:51Z</time>
      </trkpt>
      <trkpt lat="44.35081" lon="5.84927">
        <ele>648</ele>
        <time>2019-06-12T15:34:52Z</time>
      </trkpt>
      <trkpt lat="44.35076" lon="5.84917">
        <ele>648</ele>
        <time>2019-06-12T15:34:53Z</time>
      </trkpt>
      <trkpt lat="44.35071" lon="5.84907">
        <ele>648</ele>
        <time>2019-06-12T15:34:54Z</time>
      </trkpt>
      <trkpt lat="44.35065" lon="5.84898">
        <ele>648</ele>
        <time>2019-06-12T15:34:55Z</time>
      </trkpt>
      <trkpt lat="44.3506" lon="5.84889">
        <ele>647</ele>
        <time>2019-06-12T15:34:56Z</time>
      </trkpt>
      <trkpt lat="44.35054" lon="5.8488">
        <ele>647</ele>
        <time>2019-06-12T15:34:57Z</time>
      </trkpt>
      <trkpt lat="44.35048" lon="5.84872">
        <ele>647</ele>
        <time>2019-06-12T15:34:58Z</time>
      </trkpt>
      <trkpt lat="44.35042" lon="5.84863">
        <ele>647</ele>
        <time>2019-06-12T15:34:59Z</time>
      </trkpt>
      <trkpt lat="44.35036" lon="5.84855">
        <ele>646</ele>
        <time>2019-06-12T15:35:00Z</time>
      </trkpt>
      <trkpt lat="44.35029" lon="5.84847">
        <ele>646</ele>
        <time>2019-06-12T15:35:01Z</time>
      </trkpt>
      <trkpt lat="44.35023" lon="5.84839">
        <ele>646</ele>
        <time>2019-06-12T15:35:02Z</time>
      </trkpt>
      <trkpt lat="44.35016" lon="5.84831">
        <ele>646</ele>
        <time>2019-06-12T15:35:03Z</time>
      </trkpt>
      <trkpt lat="44.35009" lon="5.84823">
        <ele>645</ele>
        <time>2019-06-12T15:35:04Z</time>
      </trkpt>
      <trkpt lat="44.35002" lon="5.84816">
        <ele>645</ele>
        <time>2019-06-12T15:35:05Z</time>
      </trkpt>
      <trkpt lat="44.34995" lon="5.84809">
        <ele>645</ele>
        <time>2019-06-12T15:35:06Z</time>
      </trkpt>
      <trkpt lat="44.34987" lon="5.84802">
        <ele>645</ele>
        <time>2019-06-12T15:35:07Z</time>
      </trkpt>
      <trkpt lat="44.3498" lon="5.84795">
        <ele>644</ele>
        <time>2019-06-12T15:35:08Z</time>
      </trkpt>
      <trkpt lat="44.34972" lon="5.84788">
        <ele>644</ele>
        <time>2019-06-12T15:35:09Z</time>
      </trkpt>
      <trkpt lat="44.34965" lon="5.84782">
        <ele>643</ele>
        <time>2019-06-12T15:35:10Z</time>
      </trkpt>
      <trkpt lat="44.34957" lon="5.84775">
        <ele>643</ele>
        <time>2019-06-12T15:35:11Z</time>
      </trkpt>
      <trkpt lat="44.3495" lon="5.84768">
        <ele>643</ele>
        <time>2019-06-12T15:35:12Z</time>
      </trkpt>
      <trkpt lat="44.34943" lon="5.84762">
        <ele>643</ele>
        <time>2019-06-12T15:35:13Z</time>
      </trkpt>
      <trkpt lat="44.34935" lon="5.84755">
        <ele>643</ele>
        <time>2019-06-12T15:35:14Z</time>
      </trkpt>
      <trkpt lat="44.34928" lon="5.84749">
        <ele>643</ele>
        <time>2019-06-12T15:35:15Z</time>
      </trkpt>
      <trkpt lat="44.34921" lon="5.84743">
        <ele>642</ele>
        <time>2019-06-12T15:35:16Z</time>
      </trkpt>
      <trkpt lat="44.34914" lon="5.84736">
        <ele>642</ele>
        <time>2019-06-12T15:35:17Z</time>
      </trkpt>
      <trkpt lat="44.34907" lon="5.84728">
        <ele>642</ele>
        <time>2019-06-12T15:35:18Z</time>
      </trkpt>
      <trkpt lat="44.349" lon="5.84721">
        <ele>642</ele>
        <time>2019-06-12T15:35:19Z</time>
      </trkpt>
      <trkpt lat="44.34893" lon="5.84713">
        <ele>642</ele>
        <time>2019-06-12T15:35:20Z</time>
      </trkpt>
      <trkpt lat="44.34887" lon="5.84704">
        <ele>642</ele>
        <time>2019-06-12T15:35:21Z</time>
      </trkpt>
      <trkpt lat="44.34882" lon="5.84695">
        <ele>642</ele>
        <time>2019-06-12T15:35:22Z</time>
      </trkpt>
      <trkpt lat="44.34876" lon="5.84686">
        <ele>641</ele>
        <time>2019-06-12T15:35:23Z</time>
      </trkpt>
      <trkpt lat="44.34871" lon="5.84676">
        <ele>641</ele>
        <time>2019-06-12T15:35:24Z</time>
      </trkpt>
      <trkpt lat="44.34865" lon="5.84667">
        <ele>641</ele>
        <time>2019-06-12T15:35:25Z</time>
      </trkpt>
      <trkpt lat="44.3486" lon="5.84658">
        <ele>641</ele>
        <time>2019-06-12T15:35:26Z</time>
      </trkpt>
      <trkpt lat="44.34855" lon="5.84649">
        <ele>641</ele>
        <time>2019-06-12T15:35:27Z</time>
      </trkpt>
      <trkpt lat="44.3485" lon="5.8464">
        <ele>641</ele>
        <time>2019-06-12T15:35:28Z</time>
      </trkpt>
      <trkpt lat="44.34845" lon="5.84631">
        <ele>641</ele>
        <time>2019-06-12T15:35:29Z</time>
      </trkpt>
      <trkpt lat="44.3484" lon="5.84623">
        <ele>641</ele>
        <time>2019-06-12T15:35:30Z</time>
      </trkpt>
      <trkpt lat="44.34834" lon="5.84615">
        <ele>641</ele>
        <time>2019-06-12T15:35:31Z</time>
      </trkpt>
      <trkpt lat="44.34829" lon="5.84607">
        <ele>641</ele>
        <time>2019-06-12T15:35:32Z</time>
      </trkpt>
      <trkpt lat="44.34823" lon="5.84599">
        <ele>641</ele>
        <time>2019-06-12T15:35:33Z</time>
      </trkpt>
      <trkpt lat="44.34817" lon="5.84591">
        <ele>640</ele>
        <time>2019-06-12T15:35:34Z</time>
      </trkpt>
      <trkpt lat="44.34811" lon="5.84583">
        <ele>640</ele>
        <time>2019-06-12T15:35:35Z</time>
      </trkpt>
      <trkpt lat="44.34805" lon="5.84576">
        <ele>640</ele>
        <time>2019-06-12T15:35:36Z</time>
      </trkpt>
      <trkpt lat="44.34799" lon="5.84568">
        <ele>640</ele>
        <time>2019-06-12T15:35:37Z</time>
      </trkpt>
      <trkpt lat="44.34792" lon="5.84561">
        <ele>640</ele>
        <time>2019-06-12T15:35:38Z</time>
      </trkpt>
      <trkpt lat="44.34786" lon="5.84553">
        <ele>640</ele>
        <time>2019-06-12T15:35:39Z</time>
      </trkpt>
      <trkpt lat="44.3478" lon="5.84546">
        <ele>640</ele>
        <time>2019-06-12T15:35:40Z</time>
      </trkpt>
      <trkpt lat="44.34774" lon="5.84539">
        <ele>640</ele>
        <time>2019-06-12T15:35:41Z</time>
      </trkpt>
      <trkpt lat="44.34767" lon="5.84532">
        <ele>640</ele>
        <time>2019-06-12T15:35:42Z</time>
      </trkpt>
      <trkpt lat="44.34761" lon="5.84524">
        <ele>640</ele>
        <time>2019-06-12T15:35:43Z</time>
      </trkpt>
      <trkpt lat="44.34755" lon="5.84517">
        <ele>640</ele>
        <time>2019-06-12T15:35:44Z</time>
      </trkpt>
      <trkpt lat="44.34748" lon="5.84509">
        <ele>640</ele>
        <time>2019-06-12T15:35:45Z</time>
      </trkpt>
      <trkpt lat="44.34742" lon="5.84502">
        <ele>639</ele>
        <time>2019-06-12T15:35:46Z</time>
      </trkpt>
      <trkpt lat="44.34736" lon="5.84494">
        <ele>639</ele>
        <time>2019-06-12T15:35:47Z</time>
      </trkpt>
      <trkpt lat="44.3473" lon="5.84487">
        <ele>639</ele>
        <time>2019-06-12T15:35:48Z</time>
      </trkpt>
      <trkpt lat="44.34724" lon="5.8448">
        <ele>639</ele>
        <time>2019-06-12T15:35:49Z</time>
      </trkpt>
      <trkpt lat="44.34718" lon="5.84473">
        <ele>639</ele>
        <time>2019-06-12T15:35:50Z</time>
      </trkpt>
      <trkpt lat="44.34711" lon="5.84466">
        <ele>638</ele>
        <time>2019-06-12T15:35:51Z</time>
      </trkpt>
      <trkpt lat="44.34705" lon="5.84458">
        <ele>638</ele>
        <time>2019-06-12T15:35:52Z</time>
      </trkpt>
      <trkpt lat="44.34699" lon="5.84451">
        <ele>638</ele>
        <time>2019-06-12T15:35:53Z</time>
      </trkpt>
      <trkpt lat="44.34693" lon="5.84444">
        <ele>638</ele>
        <time>2019-06-12T15:35:54Z</time>
      </trkpt>
      <trkpt lat="44.34687" lon="5.84437">
        <ele>637</ele>
        <time>2019-06-12T15:35:55Z</time>
      </trkpt>
      <trkpt lat="44.34681" lon="5.8443">
        <ele>637</ele>
        <time>2019-06-12T15:35:56Z</time>
      </trkpt>
      <trkpt lat="44.34675" lon="5.84422">
        <ele>637</ele>
        <time>2019-06-12T15:35:57Z</time>
      </trkpt>
      <trkpt lat="44.34669" lon="5.84414">
        <ele>636</ele>
        <time>2019-06-12T15:35:58Z</time>
      </trkpt>
      <trkpt lat="44.34664" lon="5.84405">
        <ele>636</ele>
        <time>2019-06-12T15:35:59Z</time>
      </trkpt>
      <trkpt lat="44.34659" lon="5.84396">
        <ele>635</ele>
        <time>2019-06-12T15:36:00Z</time>
      </trkpt>
      <trkpt lat="44.34655" lon="5.84386">
        <ele>635</ele>
        <time>2019-06-12T15:36:01Z</time>
      </trkpt>
      <trkpt lat="44.3465" lon="5.84376">
        <ele>634</ele>
        <time>2019-06-12T15:36:02Z</time>
      </trkpt>
      <trkpt lat="44.34646" lon="5.84366">
        <ele>634</ele>
        <time>2019-06-12T15:36:03Z</time>
      </trkpt>
      <trkpt lat="44.34642" lon="5.84356">
        <ele>633</ele>
        <time>2019-06-12T15:36:04Z</time>
      </trkpt>
      <trkpt lat="44.34638" lon="5.84345">
        <ele>633</ele>
        <time>2019-06-12T15:36:05Z</time>
      </trkpt>
      <trkpt lat="44.34635" lon="5.84334">
        <ele>632</ele>
        <time>2019-06-12T15:36:06Z</time>
      </trkpt>
      <trkpt lat="44.34633" lon="5.84323">
        <ele>632</ele>
        <time>2019-06-12T15:36:07Z</time>
      </trkpt>
      <trkpt lat="44.3463" lon="5.84311">
        <ele>631</ele>
        <time>2019-06-12T15:36:08Z</time>
      </trkpt>
      <trkpt lat="44.34628" lon="5.84299">
        <ele>631</ele>
        <time>2019-06-12T15:36:09Z</time>
      </trkpt>
      <trkpt lat="44.34626" lon="5.84288">
        <ele>630</ele>
        <time>2019-06-12T15:36:10Z</time>
      </trkpt>
      <trkpt lat="44.34624" lon="5.84276">
        <ele>630</ele>
        <time>2019-06-12T15:36:11Z</time>
      </trkpt>
      <trkpt lat="44.34621" lon="5.84265">
        <ele>630</ele>
        <time>2019-06-12T15:36:12Z</time>
      </trkpt>
      <trkpt lat="44.34619" lon="5.84253">
        <ele>629</ele>
        <time>2019-06-12T15:36:13Z</time>
      </trkpt>
      <trkpt lat="44.34616" lon="5.84242">
        <ele>629</ele>
        <time>2019-06-12T15:36:14Z</time>
      </trkpt>
      <trkpt lat="44.34613" lon="5.84231">
        <ele>628</ele>
        <time>2019-06-12T15:36:15Z</time>
      </trkpt>
      <trkpt lat="44.3461" lon="5.84221">
        <ele>628</ele>
        <time>2019-06-12T15:36:16Z</time>
      </trkpt>
      <trkpt lat="44.34606" lon="5.8421">
        <ele>627</ele>
        <time>2019-06-12T15:36:17Z</time>
      </trkpt>
      <trkpt lat="44.34602" lon="5.84199">
        <ele>627</ele>
        <time>2019-06-12T15:36:18Z</time>
      </trkpt>
      <trkpt lat="44.34598" lon="5.84189">
        <ele>626</ele>
        <time>2019-06-12T15:36:19Z</time>
      </trkpt>
      <trkpt lat="44.34593" lon="5.84179">
        <ele>626</ele>
        <time>2019-06-12T15:36:20Z</time>
      </trkpt>
      <trkpt lat="44.34587" lon="5.84169">
        <ele>625</ele>
        <time>2019-06-12T15:36:21Z</time>
      </trkpt>
      <trkpt lat="44.34582" lon="5.8416">
        <ele>625</ele>
        <time>2019-06-12T15:36:22Z</time>
      </trkpt>
      <trkpt lat="44.34576" lon="5.84152">
        <ele>625</ele>
        <time>2019-06-12T15:36:23Z</time>
      </trkpt>
      <trkpt lat="44.3457" lon="5.84143">
        <ele>624</ele>
        <time>2019-06-12T15:36:24Z</time>
      </trkpt>
      <trkpt lat="44.34563" lon="5.84134">
        <ele>624</ele>
        <time>2019-06-12T15:36:25Z</time>
      </trkpt>
      <trkpt lat="44.34557" lon="5.84126">
        <ele>624</ele>
        <time>2019-06-12T15:36:26Z</time>
      </trkpt>
      <trkpt lat="44.34551" lon="5.84118">
        <ele>624</ele>
        <time>2019-06-12T15:36:27Z</time>
      </trkpt>
      <trkpt lat="44.34545" lon="5.8411">
        <ele>624</ele>
        <time>2019-06-12T15:36:28Z</time>
      </trkpt>
      <trkpt lat="44.34539" lon="5.84102">
        <ele>624</ele>
        <time>2019-06-12T15:36:29Z</time>
      </trkpt>
      <trkpt lat="44.34533" lon="5.84094">
        <ele>624</ele>
        <time>2019-06-12T15:36:30Z</time>
      </trkpt>
      <trkpt lat="44.34527" lon="5.84087">
        <ele>624</ele>
        <time>2019-06-12T15:36:31Z</time>
      </trkpt>
      <trkpt lat="44.34521" lon="5.84079">
        <ele>624</ele>
        <time>2019-06-12T15:36:32Z</time>
      </trkpt>
      <trkpt lat="44.34515" lon="5.84072">
        <ele>624</ele>
        <time>2019-06-12T15:36:33Z</time>
      </trkpt>
      <trkpt lat="44.34509" lon="5.84065">
        <ele>624</ele>
        <time>2019-06-12T15:36:34Z</time>
      </trkpt>
      <trkpt lat="44.34503" lon="5.84057">
        <ele>624</ele>
        <time>2019-06-12T15:36:35Z</time>
      </trkpt>
      <trkpt lat="44.34497" lon="5.8405">
        <ele>624</ele>
        <time>2019-06-12T15:36:36Z</time>
      </trkpt>
      <trkpt lat="44.34492" lon="5.84043">
        <ele>624</ele>
        <time>2019-06-12T15:36:37Z</time>
      </trkpt>
      <trkpt lat="44.34486" lon="5.84036">
        <ele>624</ele>
        <time>2019-06-12T15:36:38Z</time>
      </trkpt>
      <trkpt lat="44.34481" lon="5.84029">
        <ele>624</ele>
        <time>2019-06-12T15:36:39Z</time>
      </trkpt>
      <trkpt lat="44.34475" lon="5.84021">
        <ele>624</ele>
        <time>2019-06-12T15:36:40Z</time>
      </trkpt>
      <trkpt lat="44.3447" lon="5.84014">
        <ele>624</ele>
        <time>2019-06-12T15:36:41Z</time>
      </trkpt>
      <trkpt lat="44.34464" lon="5.84007">
        <ele>624</ele>
        <time>2019-06-12T15:36:42Z</time>
      </trkpt>
      <trkpt lat="44.34459" lon="5.84">
        <ele>624</ele>
        <time>2019-06-12T15:36:43Z</time>
      </trkpt>
      <trkpt lat="44.34453" lon="5.83993">
        <ele>624</ele>
        <time>2019-06-12T15:36:44Z</time>
      </trkpt>
      <trkpt lat="44.34447" lon="5.83986">
        <ele>624</ele>
        <time>2019-06-12T15:36:45Z</time>
      </trkpt>
      <trkpt lat="44.34442" lon="5.83979">
        <ele>624</ele>
        <time>2019-06-12T15:36:46Z</time>
      </trkpt>
      <trkpt lat="44.34437" lon="5.83972">
        <ele>624</ele>
        <time>2019-06-12T15:36:47Z</time>
      </trkpt>
      <trkpt lat="44.34431" lon="5.83965">
        <ele>624</ele>
        <time>2019-06-12T15:36:48Z</time>
      </trkpt>
      <trkpt lat="44.34426" lon="5.83958">
        <ele>624</ele>
        <time>2019-06-12T15:36:49Z</time>
      </trkpt>
      <trkpt lat="44.34421" lon="5.83951">
        <ele>624</ele>
        <time>2019-06-12T15:36:50Z</time>
      </trkpt>
      <trkpt lat="44.34415" lon="5.83944">
        <ele>624</ele>
        <time>2019-06-12T15:36:51Z</time>
      </trkpt>
      <trkpt lat="44.3441" lon="5.83938">
        <ele>624</ele>
        <time>2019-06-12T15:36:52Z</time>
      </trkpt>
      <trkpt lat="44.34405" lon="5.83931">
        <ele>624</ele>
        <time>2019-06-12T15:36:53Z</time>
      </trkpt>
      <trkpt lat="44.34399" lon="5.83924">
        <ele>624</ele>
        <time>2019-06-12T15:36:54Z</time>
      </trkpt>
      <trkpt lat="44.34394" lon="5.83917">
        <ele>624</ele>
        <time>2019-06-12T15:36:55Z</time>
      </trkpt>
      <trkpt lat="44.34388" lon="5.83909">
        <ele>624</ele>
        <time>2019-06-12T15:36:56Z</time>
      </trkpt>
      <trkpt lat="44.34383" lon="5.83902">
        <ele>624</ele>
        <time>2019-06-12T15:36:57Z</time>
      </trkpt>
      <trkpt lat="44.34377" lon="5.83895">
        <ele>624</ele>
        <time>2019-06-12T15:36:58Z</time>
      </trkpt>
      <trkpt lat="44.34372" lon="5.83888">
        <ele>624</ele>
        <time>2019-06-12T15:36:59Z</time>
      </trkpt>
      <trkpt lat="44.34366" lon="5.83881">
        <ele>624</ele>
        <time>2019-06-12T15:37:00Z</time>
      </trkpt>
      <trkpt lat="44.34361" lon="5.83874">
        <ele>624</ele>
        <time>2019-06-12T15:37:01Z</time>
      </trkpt>
      <trkpt lat="44.34355" lon="5.83867">
        <ele>624</ele>
        <time>2019-06-12T15:37:02Z</time>
      </trkpt>
      <trkpt lat="44.3435" lon="5.8386">
        <ele>624</ele>
        <time>2019-06-12T15:37:03Z</time>
      </trkpt>
      <trkpt lat="44.34344" lon="5.83853">
        <ele>624</ele>
        <time>2019-06-12T15:37:04Z</time>
      </trkpt>
      <trkpt lat="44.34339" lon="5.83846">
        <ele>624</ele>
        <time>2019-06-12T15:37:05Z</time>
      </trkpt>
      <trkpt lat="44.34333" lon="5.83839">
        <ele>624</ele>
        <time>2019-06-12T15:37:06Z</time>
      </trkpt>
      <trkpt lat="44.34328" lon="5.83832">
        <ele>623</ele>
        <time>2019-06-12T15:37:07Z</time>
      </trkpt>
      <trkpt lat="44.34322" lon="5.83824">
        <ele>623</ele>
        <time>2019-06-12T15:37:08Z</time>
      </trkpt>
      <trkpt lat="44.34317" lon="5.83817">
        <ele>623</ele>
        <time>2019-06-12T15:37:09Z</time>
      </trkpt>
      <trkpt lat="44.34311" lon="5.8381">
        <ele>623</ele>
        <time>2019-06-12T15:37:10Z</time>
      </trkpt>
      <trkpt lat="44.34306" lon="5.83803">
        <ele>623</ele>
        <time>2019-06-12T15:37:11Z</time>
      </trkpt>
      <trkpt lat="44.34299" lon="5.83795">
        <ele>623</ele>
        <time>2019-06-12T15:37:12Z</time>
      </trkpt>
      <trkpt lat="44.34294" lon="5.83788">
        <ele>622</ele>
        <time>2019-06-12T15:37:13Z</time>
      </trkpt>
      <trkpt lat="44.34288" lon="5.83781">
        <ele>622</ele>
        <time>2019-06-12T15:37:14Z</time>
      </trkpt>
      <trkpt lat="44.34283" lon="5.83774">
        <ele>622</ele>
        <time>2019-06-12T15:37:15Z</time>
      </trkpt>
      <trkpt lat="44.34277" lon="5.83767">
        <ele>621</ele>
        <time>2019-06-12T15:37:16Z</time>
      </trkpt>
      <trkpt lat="44.34272" lon="5.8376">
        <ele>621</ele>
        <time>2019-06-12T15:37:17Z</time>
      </trkpt>
      <trkpt lat="44.34266" lon="5.83752">
        <ele>620</ele>
        <time>2019-06-12T15:37:18Z</time>
      </trkpt>
      <trkpt lat="44.3426" lon="5.83745">
        <ele>620</ele>
        <time>2019-06-12T15:37:19Z</time>
      </trkpt>
      <trkpt lat="44.34254" lon="5.83737">
        <ele>620</ele>
        <time>2019-06-12T15:37:20Z</time>
      </trkpt>
      <trkpt lat="44.34248" lon="5.8373">
        <ele>620</ele>
        <time>2019-06-12T15:37:21Z</time>
      </trkpt>
      <trkpt lat="44.34243" lon="5.83722">
        <ele>620</ele>
        <time>2019-06-12T15:37:22Z</time>
      </trkpt>
      <trkpt lat="44.34237" lon="5.83715">
        <ele>619</ele>
        <time>2019-06-12T15:37:23Z</time>
      </trkpt>
      <trkpt lat="44.34231" lon="5.83707">
        <ele>619</ele>
        <time>2019-06-12T15:37:24Z</time>
      </trkpt>
      <trkpt lat="44.34225" lon="5.837">
        <ele>619</ele>
        <time>2019-06-12T15:37:25Z</time>
      </trkpt>
      <trkpt lat="44.34219" lon="5.83692">
        <ele>619</ele>
        <time>2019-06-12T15:37:26Z</time>
      </trkpt>
      <trkpt lat="44.34213" lon="5.83684">
        <ele>619</ele>
        <time>2019-06-12T15:37:27Z</time>
      </trkpt>
      <trkpt lat="44.34207" lon="5.83677">
        <ele>619</ele>
        <time>2019-06-12T15:37:28Z</time>
      </trkpt>
      <trkpt lat="44.34201" lon="5.83669">
        <ele>619</ele>
        <time>2019-06-12T15:37:29Z</time>
      </trkpt>
      <trkpt lat="44.34195" lon="5.83662">
        <ele>619</ele>
        <time>2019-06-12T15:37:30Z</time>
      </trkpt>
      <trkpt lat="44.34189" lon="5.83655">
        <ele>619</ele>
        <time>2019-06-12T15:37:31Z</time>
      </trkpt>
      <trkpt lat="44.34183" lon="5.83648">
        <ele>618</ele>
        <time>2019-06-12T15:37:32Z</time>
      </trkpt>
      <trkpt lat="44.34177" lon="5.83641">
        <ele>618</ele>
        <time>2019-06-12T15:37:33Z</time>
      </trkpt>
      <trkpt lat="44.3417" lon="5.83635">
        <ele>618</ele>
        <time>2019-06-12T15:37:34Z</time>
      </trkpt>
      <trkpt lat="44.34164" lon="5.83628">
        <ele>618</ele>
        <time>2019-06-12T15:37:35Z</time>
      </trkpt>
      <trkpt lat="44.34158" lon="5.83622">
        <ele>618</ele>
        <time>2019-06-12T15:37:36Z</time>
      </trkpt>
      <trkpt lat="44.34151" lon="5.83615">
        <ele>618</ele>
        <time>2019-06-12T15:37:37Z</time>
      </trkpt>
      <trkpt lat="44.34145" lon="5.83609">
        <ele>618</ele>
        <time>2019-06-12T15:37:38Z</time>
      </trkpt>
      <trkpt lat="44.34139" lon="5.83603">
        <ele>618</ele>
        <time>2019-06-12T15:37:39Z</time>
      </trkpt>
      <trkpt lat="44.34133" lon="5.83598">
        <ele>618</ele>
        <time>2019-06-12T15:37:40Z</time>
      </trkpt>
      <trkpt lat="44.34127" lon="5.83592">
        <ele>618</ele>
        <time>2019-06-12T15:37:41Z</time>
      </trkpt>
      <trkpt lat="44.34121" lon="5.83586">
        <ele>618</ele>
        <time>2019-06-12T15:37:42Z</time>
      </trkpt>
      <trkpt lat="44.34116" lon="5.83581">
        <ele>618</ele>
        <time>2019-06-12T15:37:43Z</time>
      </trkpt>
      <trkpt lat="44.3411" lon="5.83575">
        <ele>618</ele>
        <time>2019-06-12T15:37:44Z</time>
      </trkpt>
      <trkpt lat="44.34105" lon="5.83569">
        <ele>618</ele>
        <time>2019-06-12T15:37:45Z</time>
      </trkpt>
      <trkpt lat="44.34099" lon="5.83563">
        <ele>618</ele>
        <time>2019-06-12T15:37:46Z</time>
      </trkpt>
      <trkpt lat="44.34093" lon="5.83558">
        <ele>618</ele>
        <time>2019-06-12T15:37:47Z</time>
      </trkpt>
      <trkpt lat="44.34087" lon="5.83552">
        <ele>618</ele>
        <time>2019-06-12T15:37:48Z</time>
      </trkpt>
      <trkpt lat="44.34082" lon="5.83546">
        <ele>618</ele>
        <time>2019-06-12T15:37:49Z</time>
      </trkpt>
      <trkpt lat="44.34076" lon="5.8354">
        <ele>618</ele>
        <time>2019-06-12T15:37:50Z</time>
      </trkpt>
      <trkpt lat="44.3407" lon="5.83534">
        <ele>618</ele>
        <time>2019-06-12T15:37:51Z</time>
      </trkpt>
      <trkpt lat="44.34064" lon="5.83529">
        <ele>618</ele>
        <time>2019-06-12T15:37:52Z</time>
      </trkpt>
      <trkpt lat="44.34058" lon="5.83523">
        <ele>618</ele>
        <time>2019-06-12T15:37:53Z</time>
      </trkpt>
      <trkpt lat="44.34052" lon="5.83516">
        <ele>618</ele>
        <time>2019-06-12T15:37:54Z</time>
      </trkpt>
      <trkpt lat="44.34045" lon="5.8351">
        <ele>618</ele>
        <time>2019-06-12T15:37:55Z</time>
      </trkpt>
      <trkpt lat="44.34039" lon="5.83504">
        <ele>618</ele>
        <time>2019-06-12T15:37:56Z</time>
      </trkpt>
      <trkpt lat="44.34032" lon="5.83497">
        <ele>618</ele>
        <time>2019-06-12T15:37:57Z</time>
      </trkpt>
      <trkpt lat="44.34026" lon="5.83491">
        <ele>617</ele>
        <time>2019-06-12T15:37:58Z</time>
      </trkpt>
      <trkpt lat="44.34019" lon="5.83484">
        <ele>617</ele>
        <time>2019-06-12T15:37:59Z</time>
      </trkpt>
      <trkpt lat="44.34013" lon="5.83477">
        <ele>617</ele>
        <time>2019-06-12T15:38:00Z</time>
      </trkpt>
      <trkpt lat="44.34006" lon="5.83471">
        <ele>616</ele>
        <time>2019-06-12T15:38:01Z</time>
      </trkpt>
      <trkpt lat="44.34" lon="5.83464">
        <ele>616</ele>
        <time>2019-06-12T15:38:02Z</time>
      </trkpt>
      <trkpt lat="44.33993" lon="5.83458">
        <ele>616</ele>
        <time>2019-06-12T15:38:03Z</time>
      </trkpt>
      <trkpt lat="44.33986" lon="5.83452">
        <ele>616</ele>
        <time>2019-06-12T15:38:04Z</time>
      </trkpt>
      <trkpt lat="44.3398" lon="5.83445">
        <ele>615</ele>
        <time>2019-06-12T15:38:05Z</time>
      </trkpt>
      <trkpt lat="44.33973" lon="5.83439">
        <ele>615</ele>
        <time>2019-06-12T15:38:06Z</time>
      </trkpt>
      <trkpt lat="44.33966" lon="5.83432">
        <ele>615</ele>
        <time>2019-06-12T15:38:07Z</time>
      </trkpt>
      <trkpt lat="44.33959" lon="5.83427">
        <ele>615</ele>
        <time>2019-06-12T15:38:08Z</time>
      </trkpt>
      <trkpt lat="44.33951" lon="5.83422">
        <ele>615</ele>
        <time>2019-06-12T15:38:09Z</time>
      </trkpt>
      <trkpt lat="44.33943" lon="5.83418">
        <ele>615</ele>
        <time>2019-06-12T15:38:10Z</time>
      </trkpt>
      <trkpt lat="44.33935" lon="5.83414">
        <ele>614</ele>
        <time>2019-06-12T15:38:11Z</time>
      </trkpt>
      <trkpt lat="44.33926" lon="5.83411">
        <ele>614</ele>
        <time>2019-06-12T15:38:12Z</time>
      </trkpt>
      <trkpt lat="44.33918" lon="5.83409">
        <ele>614</ele>
        <time>2019-06-12T15:38:13Z</time>
      </trkpt>
      <trkpt lat="44.33909" lon="5.83407">
        <ele>614</ele>
        <time>2019-06-12T15:38:14Z</time>
      </trkpt>
      <trkpt lat="44.339" lon="5.83405">
        <ele>614</ele>
        <time>2019-06-12T15:38:15Z</time>
      </trkpt>
      <trkpt lat="44.33891" lon="5.83403">
        <ele>614</ele>
        <time>2019-06-12T15:38:16Z</time>
      </trkpt>
      <trkpt lat="44.33882" lon="5.83401">
        <ele>613</ele>
        <time>2019-06-12T15:38:17Z</time>
      </trkpt>
      <trkpt lat="44.33873" lon="5.83399">
        <ele>613</ele>
        <time>2019-06-12T15:38:18Z</time>
      </trkpt>
      <trkpt lat="44.33865" lon="5.83397">
        <ele>613</ele>
        <time>2019-06-12T15:38:19Z</time>
      </trkpt>
      <trkpt lat="44.33856" lon="5.83395">
        <ele>613</ele>
        <time>2019-06-12T15:38:20Z</time>
      </trkpt>
      <trkpt lat="44.33847" lon="5.83393">
        <ele>613</ele>
        <time>2019-06-12T15:38:21Z</time>
      </trkpt>
      <trkpt lat="44.33838" lon="5.83392">
        <ele>613</ele>
        <time>2019-06-12T15:38:22Z</time>
      </trkpt>
      <trkpt lat="44.33829" lon="5.8339">
        <ele>613</ele>
        <time>2019-06-12T15:38:23Z</time>
      </trkpt>
      <trkpt lat="44.3382" lon="5.83388">
        <ele>613</ele>
        <time>2019-06-12T15:38:24Z</time>
      </trkpt>
      <trkpt lat="44.33811" lon="5.83386">
        <ele>613</ele>
        <time>2019-06-12T15:38:25Z</time>
      </trkpt>
      <trkpt lat="44.33802" lon="5.83385">
        <ele>613</ele>
        <time>2019-06-12T15:38:26Z</time>
      </trkpt>
      <trkpt lat="44.33793" lon="5.83383">
        <ele>612</ele>
        <time>2019-06-12T15:38:27Z</time>
      </trkpt>
      <trkpt lat="44.33784" lon="5.83381">
        <ele>612</ele>
        <time>2019-06-12T15:38:28Z</time>
      </trkpt>
      <trkpt lat="44.33775" lon="5.83379">
        <ele>612</ele>
        <time>2019-06-12T15:38:29Z</time>
      </trkpt>
      <trkpt lat="44.33765" lon="5.83377">
        <ele>612</ele>
        <time>2019-06-12T15:38:30Z</time>
      </trkpt>
      <trkpt lat="44.33756" lon="5.83376">
        <ele>612</ele>
        <time>2019-06-12T15:38:31Z</time>
      </trkpt>
      <trkpt lat="44.33747" lon="5.83375">
        <ele>612</ele>
        <time>2019-06-12T15:38:32Z</time>
      </trkpt>
      <trkpt lat="44.33738" lon="5.83374">
        <ele>612</ele>
        <time>2019-06-12T15:38:33Z</time>
      </trkpt>
      <trkpt lat="44.33728" lon="5.83373">
        <ele>611</ele>
        <time>2019-06-12T15:38:34Z</time>
      </trkpt>
      <trkpt lat="44.33719" lon="5.83372">
        <ele>611</ele>
        <time>2019-06-12T15:38:35Z</time>
      </trkpt>
      <trkpt lat="44.33709" lon="5.83371">
        <ele>611</ele>
        <time>2019-06-12T15:38:36Z</time>
      </trkpt>
      <trkpt lat="44.337" lon="5.8337">
        <ele>611</ele>
        <time>2019-06-12T15:38:37Z</time>
      </trkpt>
      <trkpt lat="44.33691" lon="5.83369">
        <ele>611</ele>
        <time>2019-06-12T15:38:38Z</time>
      </trkpt>
      <trkpt lat="44.33681" lon="5.83368">
        <ele>610</ele>
        <time>2019-06-12T15:38:39Z</time>
      </trkpt>
      <trkpt lat="44.33671" lon="5.83367">
        <ele>610</ele>
        <time>2019-06-12T15:38:40Z</time>
      </trkpt>
      <trkpt lat="44.33662" lon="5.83366">
        <ele>610</ele>
        <time>2019-06-12T15:38:41Z</time>
      </trkpt>
      <trkpt lat="44.33652" lon="5.83365">
        <ele>610</ele>
        <time>2019-06-12T15:38:42Z</time>
      </trkpt>
      <trkpt lat="44.33642" lon="5.83364">
        <ele>609</ele>
        <time>2019-06-12T15:38:43Z</time>
      </trkpt>
      <trkpt lat="44.33632" lon="5.83363">
        <ele>609</ele>
        <time>2019-06-12T15:38:44Z</time>
      </trkpt>
      <trkpt lat="44.33622" lon="5.83362">
        <ele>609</ele>
        <time>2019-06-12T15:38:45Z</time>
      </trkpt>
      <trkpt lat="44.33612" lon="5.83361">
        <ele>608</ele>
        <time>2019-06-12T15:38:46Z</time>
      </trkpt>
      <trkpt lat="44.33602" lon="5.8336">
        <ele>608</ele>
        <time>2019-06-12T15:38:47Z</time>
      </trkpt>
      <trkpt lat="44.33592" lon="5.83359">
        <ele>608</ele>
        <time>2019-06-12T15:38:48Z</time>
      </trkpt>
      <trkpt lat="44.33582" lon="5.83358">
        <ele>608</ele>
        <time>2019-06-12T15:38:49Z</time>
      </trkpt>
      <trkpt lat="44.33572" lon="5.83357">
        <ele>607</ele>
        <time>2019-06-12T15:38:50Z</time>
      </trkpt>
      <trkpt lat="44.33561" lon="5.83356">
        <ele>607</ele>
        <time>2019-06-12T15:38:51Z</time>
      </trkpt>
      <trkpt lat="44.33551" lon="5.83355">
        <ele>606</ele>
        <time>2019-06-12T15:38:52Z</time>
      </trkpt>
      <trkpt lat="44.3354" lon="5.83353">
        <ele>606</ele>
        <time>2019-06-12T15:38:53Z</time>
      </trkpt>
      <trkpt lat="44.3353" lon="5.83352">
        <ele>605</ele>
        <time>2019-06-12T15:38:54Z</time>
      </trkpt>
      <trkpt lat="44.33519" lon="5.83351">
        <ele>604</ele>
        <time>2019-06-12T15:38:55Z</time>
      </trkpt>
      <trkpt lat="44.33508" lon="5.8335">
        <ele>604</ele>
        <time>2019-06-12T15:38:56Z</time>
      </trkpt>
      <trkpt lat="44.33498" lon="5.83349">
        <ele>604</ele>
        <time>2019-06-12T15:38:57Z</time>
      </trkpt>
      <trkpt lat="44.33487" lon="5.83348">
        <ele>603</ele>
        <time>2019-06-12T15:38:58Z</time>
      </trkpt>
      <trkpt lat="44.33475" lon="5.83347">
        <ele>603</ele>
        <time>2019-06-12T15:38:59Z</time>
      </trkpt>
      <trkpt lat="44.33464" lon="5.83347">
        <ele>603</ele>
        <time>2019-06-12T15:39:00Z</time>
      </trkpt>
      <trkpt lat="44.33453" lon="5.83347">
        <ele>602</ele>
        <time>2019-06-12T15:39:01Z</time>
      </trkpt>
      <trkpt lat="44.33443" lon="5.83348">
        <ele>602</ele>
        <time>2019-06-12T15:39:02Z</time>
      </trkpt>
      <trkpt lat="44.33432" lon="5.83349">
        <ele>602</ele>
        <time>2019-06-12T15:39:03Z</time>
      </trkpt>
      <trkpt lat="44.3342" lon="5.83351">
        <ele>602</ele>
        <time>2019-06-12T15:39:04Z</time>
      </trkpt>
      <trkpt lat="44.33409" lon="5.83352">
        <ele>601</ele>
        <time>2019-06-12T15:39:05Z</time>
      </trkpt>
      <trkpt lat="44.33398" lon="5.83354">
        <ele>601</ele>
        <time>2019-06-12T15:39:06Z</time>
      </trkpt>
      <trkpt lat="44.33388" lon="5.83355">
        <ele>601</ele>
        <time>2019-06-12T15:39:07Z</time>
      </trkpt>
      <trkpt lat="44.33377" lon="5.83357">
        <ele>601</ele>
        <time>2019-06-12T15:39:08Z</time>
      </trkpt>
      <trkpt lat="44.33367" lon="5.83358">
        <ele>601</ele>
        <time>2019-06-12T15:39:09Z</time>
      </trkpt>
      <trkpt lat="44.33356" lon="5.8336">
        <ele>601</ele>
        <time>2019-06-12T15:39:10Z</time>
      </trkpt>
      <trkpt lat="44.33346" lon="5.83361">
        <ele>601</ele>
        <time>2019-06-12T15:39:11Z</time>
      </trkpt>
      <trkpt lat="44.33336" lon="5.83363">
        <ele>601</ele>
        <time>2019-06-12T15:39:12Z</time>
      </trkpt>
      <trkpt lat="44.33326" lon="5.83364">
        <ele>600</ele>
        <time>2019-06-12T15:39:13Z</time>
      </trkpt>
      <trkpt lat="44.33316" lon="5.83366">
        <ele>600</ele>
        <time>2019-06-12T15:39:14Z</time>
      </trkpt>
      <trkpt lat="44.33306" lon="5.83368">
        <ele>600</ele>
        <time>2019-06-12T15:39:15Z</time>
      </trkpt>
      <trkpt lat="44.33296" lon="5.83369">
        <ele>600</ele>
        <time>2019-06-12T15:39:16Z</time>
      </trkpt>
      <trkpt lat="44.33286" lon="5.8337">
        <ele>600</ele>
        <time>2019-06-12T15:39:17Z</time>
      </trkpt>
      <trkpt lat="44.33276" lon="5.83372">
        <ele>600</ele>
        <time>2019-06-12T15:39:18Z</time>
      </trkpt>
      <trkpt lat="44.33266" lon="5.83373">
        <ele>600</ele>
        <time>2019-06-12T15:39:19Z</time>
      </trkpt>
      <trkpt lat="44.33257" lon="5.83375">
        <ele>600</ele>
        <time>2019-06-12T15:39:20Z</time>
      </trkpt>
      <trkpt lat="44.33247" lon="5.83376">
        <ele>600</ele>
        <time>2019-06-12T15:39:21Z</time>
      </trkpt>
      <trkpt lat="44.33238" lon="5.83378">
        <ele>599</ele>
        <time>2019-06-12T15:39:22Z</time>
      </trkpt>
      <trkpt lat="44.33229" lon="5.8338">
        <ele>599</ele>
        <time>2019-06-12T15:39:23Z</time>
      </trkpt>
      <trkpt lat="44.33219" lon="5.83381">
        <ele>599</ele>
        <time>2019-06-12T15:39:24Z</time>
      </trkpt>
      <trkpt lat="44.3321" lon="5.83383">
        <ele>599</ele>
        <time>2019-06-12T15:39:25Z</time>
      </trkpt>
      <trkpt lat="44.33201" lon="5.83384">
        <ele>599</ele>
        <time>2019-06-12T15:39:26Z</time>
      </trkpt>
      <trkpt lat="44.33192" lon="5.83385">
        <ele>598</ele>
        <time>2019-06-12T15:39:27Z</time>
      </trkpt>
      <trkpt lat="44.33183" lon="5.83386">
        <ele>598</ele>
        <time>2019-06-12T15:39:28Z</time>
      </trkpt>
      <trkpt lat="44.33174" lon="5.83387">
        <ele>598</ele>
        <time>2019-06-12T15:39:29Z</time>
      </trkpt>
      <trkpt lat="44.33165" lon="5.83389">
        <ele>598</ele>
        <time>2019-06-12T15:39:30Z</time>
      </trkpt>
      <trkpt lat="44.33156" lon="5.8339">
        <ele>598</ele>
        <time>2019-06-12T15:39:31Z</time>
      </trkpt>
      <trkpt lat="44.33147" lon="5.83392">
        <ele>597</ele>
        <time>2019-06-12T15:39:32Z</time>
      </trkpt>
      <trkpt lat="44.33139" lon="5.83393">
        <ele>597</ele>
        <time>2019-06-12T15:39:33Z</time>
      </trkpt>
      <trkpt lat="44.3313" lon="5.83394">
        <ele>597</ele>
        <time>2019-06-12T15:39:34Z</time>
      </trkpt>
      <trkpt lat="44.33121" lon="5.83395">
        <ele>597</ele>
        <time>2019-06-12T15:39:35Z</time>
      </trkpt>
      <trkpt lat="44.33112" lon="5.83396">
        <ele>597</ele>
        <time>2019-06-12T15:39:36Z</time>
      </trkpt>
      <trkpt lat="44.33104" lon="5.83397">
        <ele>597</ele>
        <time>2019-06-12T15:39:37Z</time>
      </trkpt>
      <trkpt lat="44.33096" lon="5.83398">
        <ele>597</ele>
        <time>2019-06-12T15:39:38Z</time>
      </trkpt>
      <trkpt lat="44.33087" lon="5.83399">
        <ele>597</ele>
        <time>2019-06-12T15:39:39Z</time>
      </trkpt>
      <trkpt lat="44.33079" lon="5.83399">
        <ele>597</ele>
        <time>2019-06-12T15:39:40Z</time>
      </trkpt>
      <trkpt lat="44.3307" lon="5.834">
        <ele>597</ele>
        <time>2019-06-12T15:39:41Z</time>
      </trkpt>
      <trkpt lat="44.33062" lon="5.834">
        <ele>597</ele>
        <time>2019-06-12T15:39:42Z</time>
      </trkpt>
      <trkpt lat="44.33054" lon="5.834">
        <ele>597</ele>
        <time>2019-06-12T15:39:43Z</time>
      </trkpt>
      <trkpt lat="44.33046" lon="5.834">
        <ele>597</ele>
        <time>2019-06-12T15:39:44Z</time>
      </trkpt>
      <trkpt lat="44.33039" lon="5.83399">
        <ele>597</ele>
        <time>2019-06-12T15:39:45Z</time>
      </trkpt>
      <trkpt lat="44.33031" lon="5.83399">
        <ele>597</ele>
        <time>2019-06-12T15:39:46Z</time>
      </trkpt>
      <trkpt lat="44.33023" lon="5.83399">
        <ele>597</ele>
        <time>2019-06-12T15:39:47Z</time>
      </trkpt>
      <trkpt lat="44.33016" lon="5.83398">
        <ele>597</ele>
        <time>2019-06-12T15:39:48Z</time>
      </trkpt>
      <trkpt lat="44.33008" lon="5.83398">
        <ele>597</ele>
        <time>2019-06-12T15:39:49Z</time>
      </trkpt>
      <trkpt lat="44.33001" lon="5.83397">
        <ele>597</ele>
        <time>2019-06-12T15:39:50Z</time>
      </trkpt>
      <trkpt lat="44.32993" lon="5.83397">
        <ele>597</ele>
        <time>2019-06-12T15:39:51Z</time>
      </trkpt>
      <trkpt lat="44.32986" lon="5.83396">
        <ele>597</ele>
        <time>2019-06-12T15:39:52Z</time>
      </trkpt>
      <trkpt lat="44.32979" lon="5.83396">
        <ele>597</ele>
        <time>2019-06-12T15:39:53Z</time>
      </trkpt>
      <trkpt lat="44.32972" lon="5.83396">
        <ele>597</ele>
        <time>2019-06-12T15:39:54Z</time>
      </trkpt>
      <trkpt lat="44.32964" lon="5.83395">
        <ele>597</ele>
        <time>2019-06-12T15:39:55Z</time>
      </trkpt>
      <trkpt lat="44.32957" lon="5.83395">
        <ele>597</ele>
        <time>2019-06-12T15:39:56Z</time>
      </trkpt>
      <trkpt lat="44.32949" lon="5.83394">
        <ele>597</ele>
        <time>2019-06-12T15:39:57Z</time>
      </trkpt>
      <trkpt lat="44.32942" lon="5.83394">
        <ele>597</ele>
        <time>2019-06-12T15:39:58Z</time>
      </trkpt>
      <trkpt lat="44.32935" lon="5.83393">
        <ele>597</ele>
        <time>2019-06-12T15:39:59Z</time>
      </trkpt>
      <trkpt lat="44.32927" lon="5.83393">
        <ele>597</ele>
        <time>2019-06-12T15:40:00Z</time>
      </trkpt>
      <trkpt lat="44.32919" lon="5.83392">
        <ele>596</ele>
        <time>2019-06-12T15:40:01Z</time>
      </trkpt>
      <trkpt lat="44.32912" lon="5.83392">
        <ele>596</ele>
        <time>2019-06-12T15:40:02Z</time>
      </trkpt>
      <trkpt lat="44.32904" lon="5.83392">
        <ele>596</ele>
        <time>2019-06-12T15:40:03Z</time>
      </trkpt>
      <trkpt lat="44.32896" lon="5.83391">
        <ele>595</ele>
        <time>2019-06-12T15:40:04Z</time>
      </trkpt>
      <trkpt lat="44.32888" lon="5.8339">
        <ele>595</ele>
        <time>2019-06-12T15:40:05Z</time>
      </trkpt>
      <trkpt lat="44.3288" lon="5.8339">
        <ele>595</ele>
        <time>2019-06-12T15:40:06Z</time>
      </trkpt>
      <trkpt lat="44.32872" lon="5.83389">
        <ele>595</ele>
        <time>2019-06-12T15:40:07Z</time>
      </trkpt>
      <trkpt lat="44.32864" lon="5.83389">
        <ele>594</ele>
        <time>2019-06-12T15:40:08Z</time>
      </trkpt>
      <trkpt lat="44.32855" lon="5.83388">
        <ele>594</ele>
        <time>2019-06-12T15:40:09Z</time>
      </trkpt>
      <trkpt lat="44.32847" lon="5.83387">
        <ele>594</ele>
        <time>2019-06-12T15:40:10Z</time>
      </trkpt>
      <trkpt lat="44.32838" lon="5.83387">
        <ele>594</ele>
        <time>2019-06-12T15:40:11Z</time>
      </trkpt>
      <trkpt lat="44.3283" lon="5.83385">
        <ele>593</ele>
        <time>2019-06-12T15:40:12Z</time>
      </trkpt>
      <trkpt lat="44.32822" lon="5.83384">
        <ele>593</ele>
        <time>2019-06-12T15:40:13Z</time>
      </trkpt>
      <trkpt lat="44.32814" lon="5.83382">
        <ele>593</ele>
        <time>2019-06-12T15:40:14Z</time>
      </trkpt>
      <trkpt lat="44.32806" lon="5.83379">
        <ele>592</ele>
        <time>2019-06-12T15:40:15Z</time>
      </trkpt>
      <trkpt lat="44.32798" lon="5.83374">
        <ele>592</ele>
        <time>2019-06-12T15:40:16Z</time>
      </trkpt>
      <trkpt lat="44.3279" lon="5.8337">
        <ele>592</ele>
        <time>2019-06-12T15:40:17Z</time>
      </trkpt>
      <trkpt lat="44.32782" lon="5.83364">
        <ele>591</ele>
        <time>2019-06-12T15:40:18Z</time>
      </trkpt>
      <trkpt lat="44.32775" lon="5.83359">
        <ele>591</ele>
        <time>2019-06-12T15:40:19Z</time>
      </trkpt>
      <trkpt lat="44.32768" lon="5.83354">
        <ele>591</ele>
        <time>2019-06-12T15:40:20Z</time>
      </trkpt>
      <trkpt lat="44.3276" lon="5.83349">
        <ele>591</ele>
        <time>2019-06-12T15:40:21Z</time>
      </trkpt>
      <trkpt lat="44.32753" lon="5.83344">
        <ele>591</ele>
        <time>2019-06-12T15:40:22Z</time>
      </trkpt>
      <trkpt lat="44.32746" lon="5.83338">
        <ele>591</ele>
        <time>2019-06-12T15:40:23Z</time>
      </trkpt>
      <trkpt lat="44.32739" lon="5.83333">
        <ele>591</ele>
        <time>2019-06-12T15:40:24Z</time>
      </trkpt>
      <trkpt lat="44.32732" lon="5.83328">
        <ele>591</ele>
        <time>2019-06-12T15:40:25Z</time>
      </trkpt>
      <trkpt lat="44.32725" lon="5.83323">
        <ele>590</ele>
        <time>2019-06-12T15:40:26Z</time>
      </trkpt>
      <trkpt lat="44.32718" lon="5.83318">
        <ele>590</ele>
        <time>2019-06-12T15:40:27Z</time>
      </trkpt>
      <trkpt lat="44.32711" lon="5.83314">
        <ele>590</ele>
        <time>2019-06-12T15:40:28Z</time>
      </trkpt>
      <trkpt lat="44.32704" lon="5.83309">
        <ele>590</ele>
        <time>2019-06-12T15:40:29Z</time>
      </trkpt>
      <trkpt lat="44.32698" lon="5.83304">
        <ele>590</ele>
        <time>2019-06-12T15:40:30Z</time>
      </trkpt>
      <trkpt lat="44.32691" lon="5.833">
        <ele>590</ele>
        <time>2019-06-12T15:40:31Z</time>
      </trkpt>
      <trkpt lat="44.32684" lon="5.83295">
        <ele>590</ele>
        <time>2019-06-12T15:40:32Z</time>
      </trkpt>
      <trkpt lat="44.32678" lon="5.83291">
        <ele>590</ele>
        <time>2019-06-12T15:40:33Z</time>
      </trkpt>
      <trkpt lat="44.32671" lon="5.83286">
        <ele>590</ele>
        <time>2019-06-12T15:40:34Z</time>
      </trkpt>
      <trkpt lat="44.32666" lon="5.83282">
        <ele>590</ele>
        <time>2019-06-12T15:40:35Z</time>
      </trkpt>
      <trkpt lat="44.32661" lon="5.83279">
        <ele>590</ele>
        <time>2019-06-12T15:40:36Z</time>
      </trkpt>
      <trkpt lat="44.32657" lon="5.83276">
        <ele>590</ele>
        <time>2019-06-12T15:40:37Z</time>
      </trkpt>
      <trkpt lat="44.32653" lon="5.83273">
        <ele>590</ele>
        <time>2019-06-12T15:40:38Z</time>
      </trkpt>
      <trkpt lat="44.32648" lon="5.83269">
        <ele>590</ele>
        <time>2019-06-12T15:40:39Z</time>
      </trkpt>
      <trkpt lat="44.32644" lon="5.83265">
        <ele>590</ele>
        <time>2019-06-12T15:40:40Z</time>
      </trkpt>
      <trkpt lat="44.32639" lon="5.83262">
        <ele>590</ele>
        <time>2019-06-12T15:40:41Z</time>
      </trkpt>
      <trkpt lat="44.32634" lon="5.83258">
        <ele>590</ele>
        <time>2019-06-12T15:40:42Z</time>
      </trkpt>
      <trkpt lat="44.32629" lon="5.83254">
        <ele>590</ele>
        <time>2019-06-12T15:40:43Z</time>
      </trkpt>
      <trkpt lat="44.32624" lon="5.8325">
        <ele>590</ele>
        <time>2019-06-12T15:40:44Z</time>
      </trkpt>
      <trkpt lat="44.32618" lon="5.83246">
        <ele>590</ele>
        <time>2019-06-12T15:40:45Z</time>
      </trkpt>
      <trkpt lat="44.32613" lon="5.83242">
        <ele>590</ele>
        <time>2019-06-12T15:40:46Z</time>
      </trkpt>
      <trkpt lat="44.32607" lon="5.83239">
        <ele>589</ele>
        <time>2019-06-12T15:40:47Z</time>
      </trkpt>
      <trkpt lat="44.32601" lon="5.83235">
        <ele>589</ele>
        <time>2019-06-12T15:40:48Z</time>
      </trkpt>
      <trkpt lat="44.32595" lon="5.83232">
        <ele>589</ele>
        <time>2019-06-12T15:40:49Z</time>
      </trkpt>
      <trkpt lat="44.32589" lon="5.83228">
        <ele>589</ele>
        <time>2019-06-12T15:40:50Z</time>
      </trkpt>
      <trkpt lat="44.32582" lon="5.83225">
        <ele>589</ele>
        <time>2019-06-12T15:40:51Z</time>
      </trkpt>
      <trkpt lat="44.32576" lon="5.83222">
        <ele>589</ele>
        <time>2019-06-12T15:40:52Z</time>
      </trkpt>
      <trkpt lat="44.3257" lon="5.83219">
        <ele>589</ele>
        <time>2019-06-12T15:40:53Z</time>
      </trkpt>
      <trkpt lat="44.32564" lon="5.83216">
        <ele>589</ele>
        <time>2019-06-12T15:40:54Z</time>
      </trkpt>
      <trkpt lat="44.32557" lon="5.83213">
        <ele>589</ele>
        <time>2019-06-12T15:40:55Z</time>
      </trkpt>
      <trkpt lat="44.32551" lon="5.83211">
        <ele>589</ele>
        <time>2019-06-12T15:40:56Z</time>
      </trkpt>
      <trkpt lat="44.32544" lon="5.83208">
        <ele>589</ele>
        <time>2019-06-12T15:40:57Z</time>
      </trkpt>
      <trkpt lat="44.32538" lon="5.83205">
        <ele>589</ele>
        <time>2019-06-12T15:40:58Z</time>
      </trkpt>
      <trkpt lat="44.32532" lon="5.83202">
        <ele>589</ele>
        <time>2019-06-12T15:40:59Z</time>
      </trkpt>
      <trkpt lat="44.32526" lon="5.83199">
        <ele>589</ele>
        <time>2019-06-12T15:41:00Z</time>
      </trkpt>
      <trkpt lat="44.32519" lon="5.83196">
        <ele>589</ele>
        <time>2019-06-12T15:41:01Z</time>
      </trkpt>
      <trkpt lat="44.32513" lon="5.83193">
        <ele>588</ele>
        <time>2019-06-12T15:41:02Z</time>
      </trkpt>
      <trkpt lat="44.32506" lon="5.8319">
        <ele>588</ele>
        <time>2019-06-12T15:41:03Z</time>
      </trkpt>
      <trkpt lat="44.325" lon="5.83187">
        <ele>588</ele>
        <time>2019-06-12T15:41:04Z</time>
      </trkpt>
      <trkpt lat="44.32493" lon="5.83184">
        <ele>588</ele>
        <time>2019-06-12T15:41:05Z</time>
      </trkpt>
      <trkpt lat="44.32487" lon="5.83181">
        <ele>588</ele>
        <time>2019-06-12T15:41:06Z</time>
      </trkpt>
      <trkpt lat="44.32481" lon="5.83177">
        <ele>588</ele>
        <time>2019-06-12T15:41:07Z</time>
      </trkpt>
      <trkpt lat="44.32475" lon="5.83173">
        <ele>588</ele>
        <time>2019-06-12T15:41:08Z</time>
      </trkpt>
      <trkpt lat="44.32469" lon="5.83169">
        <ele>588</ele>
        <time>2019-06-12T15:41:09Z</time>
      </trkpt>
      <trkpt lat="44.32463" lon="5.83165">
        <ele>588</ele>
        <time>2019-06-12T15:41:10Z</time>
      </trkpt>
      <trkpt lat="44.32458" lon="5.8316">
        <ele>588</ele>
        <time>2019-06-12T15:41:11Z</time>
      </trkpt>
      <trkpt lat="44.32453" lon="5.83155">
        <ele>588</ele>
        <time>2019-06-12T15:41:12Z</time>
      </trkpt>
      <trkpt lat="44.32447" lon="5.83151">
        <ele>588</ele>
        <time>2019-06-12T15:41:13Z</time>
      </trkpt>
      <trkpt lat="44.32442" lon="5.83146">
        <ele>588</ele>
        <time>2019-06-12T15:41:14Z</time>
      </trkpt>
      <trkpt lat="44.32437" lon="5.83141">
        <ele>588</ele>
        <time>2019-06-12T15:41:15Z</time>
      </trkpt>
      <trkpt lat="44.32432" lon="5.83136">
        <ele>588</ele>
        <time>2019-06-12T15:41:16Z</time>
      </trkpt>
      <trkpt lat="44.32427" lon="5.83131">
        <ele>588</ele>
        <time>2019-06-12T15:41:17Z</time>
      </trkpt>
      <trkpt lat="44.32421" lon="5.83126">
        <ele>588</ele>
        <time>2019-06-12T15:41:18Z</time>
      </trkpt>
      <trkpt lat="44.32416" lon="5.83121">
        <ele>588</ele>
        <time>2019-06-12T15:41:19Z</time>
      </trkpt>
      <trkpt lat="44.32411" lon="5.83115">
        <ele>588</ele>
        <time>2019-06-12T15:41:20Z</time>
      </trkpt>
      <trkpt lat="44.32406" lon="5.83109">
        <ele>588</ele>
        <time>2019-06-12T15:41:21Z</time>
      </trkpt>
      <trkpt lat="44.32401" lon="5.83102">
        <ele>588</ele>
        <time>2019-06-12T15:41:22Z</time>
      </trkpt>
      <trkpt lat="44.32397" lon="5.83095">
        <ele>588</ele>
        <time>2019-06-12T15:41:23Z</time>
      </trkpt>
      <trkpt lat="44.32393" lon="5.83088">
        <ele>588</ele>
        <time>2019-06-12T15:41:24Z</time>
      </trkpt>
      <trkpt lat="44.32389" lon="5.8308">
        <ele>588</ele>
        <time>2019-06-12T15:41:25Z</time>
      </trkpt>
      <trkpt lat="44.32385" lon="5.83073">
        <ele>588</ele>
        <time>2019-06-12T15:41:26Z</time>
      </trkpt>
      <trkpt lat="44.32382" lon="5.83065">
        <ele>588</ele>
        <time>2019-06-12T15:41:27Z</time>
      </trkpt>
      <trkpt lat="44.32379" lon="5.83058">
        <ele>588</ele>
        <time>2019-06-12T15:41:28Z</time>
      </trkpt>
      <trkpt lat="44.32377" lon="5.8305">
        <ele>588</ele>
        <time>2019-06-12T15:41:29Z</time>
      </trkpt>
      <trkpt lat="44.32375" lon="5.83042">
        <ele>588</ele>
        <time>2019-06-12T15:41:30Z</time>
      </trkpt>
      <trkpt lat="44.32373" lon="5.83035">
        <ele>588</ele>
        <time>2019-06-12T15:41:31Z</time>
      </trkpt>
      <trkpt lat="44.3237" lon="5.83027">
        <ele>588</ele>
        <time>2019-06-12T15:41:32Z</time>
      </trkpt>
      <trkpt lat="44.32368" lon="5.8302">
        <ele>588</ele>
        <time>2019-06-12T15:41:33Z</time>
      </trkpt>
      <trkpt lat="44.32366" lon="5.83012">
        <ele>588</ele>
        <time>2019-06-12T15:41:34Z</time>
      </trkpt>
      <trkpt lat="44.32364" lon="5.83006">
        <ele>588</ele>
        <time>2019-06-12T15:41:35Z</time>
      </trkpt>
      <trkpt lat="44.3236" lon="5.82999">
        <ele>588</ele>
        <time>2019-06-12T15:41:36Z</time>
      </trkpt>
      <trkpt lat="44.32357" lon="5.82993">
        <ele>588</ele>
        <time>2019-06-12T15:41:37Z</time>
      </trkpt>
      <trkpt lat="44.32352" lon="5.82986">
        <ele>588</ele>
        <time>2019-06-12T15:41:38Z</time>
      </trkpt>
      <trkpt lat="44.32348" lon="5.82981">
        <ele>588</ele>
        <time>2019-06-12T15:41:39Z</time>
      </trkpt>
      <trkpt lat="44.32343" lon="5.82976">
        <ele>588</ele>
        <time>2019-06-12T15:41:40Z</time>
      </trkpt>
      <trkpt lat="44.32338" lon="5.82972">
        <ele>588</ele>
        <time>2019-06-12T15:41:41Z</time>
      </trkpt>
      <trkpt lat="44.32332" lon="5.82967">
        <ele>588</ele>
        <time>2019-06-12T15:41:42Z</time>
      </trkpt>
      <trkpt lat="44.32326" lon="5.82963">
        <ele>588</ele>
        <time>2019-06-12T15:41:43Z</time>
      </trkpt>
      <trkpt lat="44.3232" lon="5.8296">
        <ele>588</ele>
        <time>2019-06-12T15:41:44Z</time>
      </trkpt>
      <trkpt lat="44.32313" lon="5.82956">
        <ele>588</ele>
        <time>2019-06-12T15:41:45Z</time>
      </trkpt>
      <trkpt lat="44.32306" lon="5.82952">
        <ele>588</ele>
        <time>2019-06-12T15:41:46Z</time>
      </trkpt>
      <trkpt lat="44.32299" lon="5.82949">
        <ele>587</ele>
        <time>2019-06-12T15:41:47Z</time>
      </trkpt>
      <trkpt lat="44.32292" lon="5.82946">
        <ele>587</ele>
        <time>2019-06-12T15:41:48Z</time>
      </trkpt>
      <trkpt lat="44.32285" lon="5.82942">
        <ele>587</ele>
        <time>2019-06-12T15:41:49Z</time>
      </trkpt>
      <trkpt lat="44.32278" lon="5.82939">
        <ele>587</ele>
        <time>2019-06-12T15:41:50Z</time>
      </trkpt>
      <trkpt lat="44.32271" lon="5.82935">
        <ele>587</ele>
        <time>2019-06-12T15:41:51Z</time>
      </trkpt>
      <trkpt lat="44.32264" lon="5.82932">
        <ele>587</ele>
        <time>2019-06-12T15:41:52Z</time>
      </trkpt>
      <trkpt lat="44.32256" lon="5.82928">
        <ele>587</ele>
        <time>2019-06-12T15:41:53Z</time>
      </trkpt>
      <trkpt lat="44.32249" lon="5.82925">
        <ele>586</ele>
        <time>2019-06-12T15:41:54Z</time>
      </trkpt>
      <trkpt lat="44.32242" lon="5.82921">
        <ele>586</ele>
        <time>2019-06-12T15:41:55Z</time>
      </trkpt>
      <trkpt lat="44.32235" lon="5.82917">
        <ele>586</ele>
        <time>2019-06-12T15:41:56Z</time>
      </trkpt>
      <trkpt lat="44.32227" lon="5.82913">
        <ele>586</ele>
        <time>2019-06-12T15:41:57Z</time>
      </trkpt>
      <trkpt lat="44.3222" lon="5.8291">
        <ele>586</ele>
        <time>2019-06-12T15:41:58Z</time>
      </trkpt>
      <trkpt lat="44.32213" lon="5.82906">
        <ele>586</ele>
        <time>2019-06-12T15:41:59Z</time>
      </trkpt>
      <trkpt lat="44.32205" lon="5.82902">
        <ele>585</ele>
        <time>2019-06-12T15:42:00Z</time>
      </trkpt>
      <trkpt lat="44.32198" lon="5.82899">
        <ele>585</ele>
        <time>2019-06-12T15:42:01Z</time>
      </trkpt>
      <trkpt lat="44.32191" lon="5.82895">
        <ele>585</ele>
        <time>2019-06-12T15:42:02Z</time>
      </trkpt>
      <trkpt lat="44.32183" lon="5.82891">
        <ele>585</ele>
        <time>2019-06-12T15:42:03Z</time>
      </trkpt>
      <trkpt lat="44.32176" lon="5.82888">
        <ele>585</ele>
        <time>2019-06-12T15:42:04Z</time>
      </trkpt>
      <trkpt lat="44.32169" lon="5.82884">
        <ele>585</ele>
        <time>2019-06-12T15:42:05Z</time>
      </trkpt>
      <trkpt lat="44.32162" lon="5.8288">
        <ele>585</ele>
        <time>2019-06-12T15:42:06Z</time>
      </trkpt>
      <trkpt lat="44.32155" lon="5.82877">
        <ele>585</ele>
        <time>2019-06-12T15:42:07Z</time>
      </trkpt>
      <trkpt lat="44.32148" lon="5.82874">
        <ele>585</ele>
        <time>2019-06-12T15:42:08Z</time>
      </trkpt>
      <trkpt lat="44.3214" lon="5.8287">
        <ele>585</ele>
        <time>2019-06-12T15:42:09Z</time>
      </trkpt>
      <trkpt lat="44.32133" lon="5.82868">
        <ele>585</ele>
        <time>2019-06-12T15:42:10Z</time>
      </trkpt>
      <trkpt lat="44.32126" lon="5.82866">
        <ele>585</ele>
        <time>2019-06-12T15:42:11Z</time>
      </trkpt>
      <trkpt lat="44.32118" lon="5.82863">
        <ele>585</ele>
        <time>2019-06-12T15:42:12Z</time>
      </trkpt>
      <trkpt lat="44.32111" lon="5.82862">
        <ele>584</ele>
        <time>2019-06-12T15:42:13Z</time>
      </trkpt>
      <trkpt lat="44.32104" lon="5.8286">
        <ele>584</ele>
        <time>2019-06-12T15:42:14Z</time>
      </trkpt>
      <trkpt lat="44.32096" lon="5.82857">
        <ele>584</ele>
        <time>2019-06-12T15:42:15Z</time>
      </trkpt>
      <trkpt lat="44.32089" lon="5.82855">
        <ele>584</ele>
        <time>2019-06-12T15:42:16Z</time>
      </trkpt>
      <trkpt lat="44.32082" lon="5.82852">
        <ele>584</ele>
        <time>2019-06-12T15:42:17Z</time>
      </trkpt>
      <trkpt lat="44.32075" lon="5.82849">
        <ele>583</ele>
        <time>2019-06-12T15:42:18Z</time>
      </trkpt>
      <trkpt lat="44.32067" lon="5.82845">
        <ele>583</ele>
        <time>2019-06-12T15:42:19Z</time>
      </trkpt>
      <trkpt lat="44.3206" lon="5.82841">
        <ele>583</ele>
        <time>2019-06-12T15:42:20Z</time>
      </trkpt>
      <trkpt lat="44.32053" lon="5.82836">
        <ele>583</ele>
        <time>2019-06-12T15:42:21Z</time>
      </trkpt>
      <trkpt lat="44.32045" lon="5.82831">
        <ele>582</ele>
        <time>2019-06-12T15:42:22Z</time>
      </trkpt>
      <trkpt lat="44.32037" lon="5.82825">
        <ele>582</ele>
        <time>2019-06-12T15:42:23Z</time>
      </trkpt>
      <trkpt lat="44.32029" lon="5.8282">
        <ele>582</ele>
        <time>2019-06-12T15:42:24Z</time>
      </trkpt>
      <trkpt lat="44.32021" lon="5.82814">
        <ele>581</ele>
        <time>2019-06-12T15:42:25Z</time>
      </trkpt>
      <trkpt lat="44.32013" lon="5.82809">
        <ele>581</ele>
        <time>2019-06-12T15:42:26Z</time>
      </trkpt>
      <trkpt lat="44.32005" lon="5.82804">
        <ele>581</ele>
        <time>2019-06-12T15:42:27Z</time>
      </trkpt>
      <trkpt lat="44.31996" lon="5.828">
        <ele>580</ele>
        <time>2019-06-12T15:42:28Z</time>
      </trkpt>
      <trkpt lat="44.31987" lon="5.82797">
        <ele>580</ele>
        <time>2019-06-12T15:42:29Z</time>
      </trkpt>
      <trkpt lat="44.31978" lon="5.82793">
        <ele>580</ele>
        <time>2019-06-12T15:42:30Z</time>
      </trkpt>
      <trkpt lat="44.31969" lon="5.82789">
        <ele>580</ele>
        <time>2019-06-12T15:42:31Z</time>
      </trkpt>
      <trkpt lat="44.3196" lon="5.82786">
        <ele>579</ele>
        <time>2019-06-12T15:42:32Z</time>
      </trkpt>
      <trkpt lat="44.31951" lon="5.82783">
        <ele>579</ele>
        <time>2019-06-12T15:42:33Z</time>
      </trkpt>
      <trkpt lat="44.31943" lon="5.8278">
        <ele>579</ele>
        <time>2019-06-12T15:42:34Z</time>
      </trkpt>
      <trkpt lat="44.31934" lon="5.82777">
        <ele>579</ele>
        <time>2019-06-12T15:42:35Z</time>
      </trkpt>
      <trkpt lat="44.31925" lon="5.82775">
        <ele>578</ele>
        <time>2019-06-12T15:42:36Z</time>
      </trkpt>
      <trkpt lat="44.31917" lon="5.82774">
        <ele>578</ele>
        <time>2019-06-12T15:42:37Z</time>
      </trkpt>
      <trkpt lat="44.31908" lon="5.82773">
        <ele>578</ele>
        <time>2019-06-12T15:42:38Z</time>
      </trkpt>
      <trkpt lat="44.319" lon="5.82772">
        <ele>577</ele>
        <time>2019-06-12T15:42:39Z</time>
      </trkpt>
      <trkpt lat="44.31891" lon="5.82771">
        <ele>577</ele>
        <time>2019-06-12T15:42:40Z</time>
      </trkpt>
      <trkpt lat="44.31882" lon="5.82771">
        <ele>577</ele>
        <time>2019-06-12T15:42:41Z</time>
      </trkpt>
      <trkpt lat="44.31874" lon="5.8277">
        <ele>576</ele>
        <time>2019-06-12T15:42:42Z</time>
      </trkpt>
      <trkpt lat="44.31865" lon="5.82768">
        <ele>576</ele>
        <time>2019-06-12T15:42:43Z</time>
      </trkpt>
      <trkpt lat="44.31857" lon="5.82766">
        <ele>576</ele>
        <time>2019-06-12T15:42:44Z</time>
      </trkpt>
      <trkpt lat="44.31848" lon="5.82763">
        <ele>575</ele>
        <time>2019-06-12T15:42:45Z</time>
      </trkpt>
      <trkpt lat="44.3184" lon="5.8276">
        <ele>575</ele>
        <time>2019-06-12T15:42:46Z</time>
      </trkpt>
      <trkpt lat="44.31832" lon="5.82755">
        <ele>575</ele>
        <time>2019-06-12T15:42:47Z</time>
      </trkpt>
      <trkpt lat="44.31824" lon="5.82751">
        <ele>575</ele>
        <time>2019-06-12T15:42:48Z</time>
      </trkpt>
      <trkpt lat="44.31816" lon="5.82745">
        <ele>575</ele>
        <time>2019-06-12T15:42:49Z</time>
      </trkpt>
      <trkpt lat="44.31809" lon="5.82738">
        <ele>575</ele>
        <time>2019-06-12T15:42:50Z</time>
      </trkpt>
      <trkpt lat="44.31802" lon="5.82732">
        <ele>575</ele>
        <time>2019-06-12T15:42:51Z</time>
      </trkpt>
      <trkpt lat="44.31795" lon="5.82725">
        <ele>575</ele>
        <time>2019-06-12T15:42:52Z</time>
      </trkpt>
      <trkpt lat="44.31789" lon="5.82719">
        <ele>575</ele>
        <time>2019-06-12T15:42:53Z</time>
      </trkpt>
      <trkpt lat="44.31782" lon="5.82712">
        <ele>574</ele>
        <time>2019-06-12T15:42:54Z</time>
      </trkpt>
      <trkpt lat="44.31775" lon="5.82705">
        <ele>574</ele>
        <time>2019-06-12T15:42:55Z</time>
      </trkpt>
      <trkpt lat="44.31768" lon="5.82698">
        <ele>574</ele>
        <time>2019-06-12T15:42:56Z</time>
      </trkpt>
      <trkpt lat="44.31762" lon="5.82691">
        <ele>574</ele>
        <time>2019-06-12T15:42:57Z</time>
      </trkpt>
      <trkpt lat="44.31755" lon="5.82685">
        <ele>574</ele>
        <time>2019-06-12T15:42:58Z</time>
      </trkpt>
      <trkpt lat="44.31748" lon="5.82678">
        <ele>574</ele>
        <time>2019-06-12T15:42:59Z</time>
      </trkpt>
      <trkpt lat="44.31742" lon="5.82672">
        <ele>574</ele>
        <time>2019-06-12T15:43:00Z</time>
      </trkpt>
      <trkpt lat="44.31736" lon="5.82665">
        <ele>573</ele>
        <time>2019-06-12T15:43:01Z</time>
      </trkpt>
      <trkpt lat="44.31729" lon="5.82659">
        <ele>573</ele>
        <time>2019-06-12T15:43:02Z</time>
      </trkpt>
      <trkpt lat="44.31723" lon="5.82652">
        <ele>573</ele>
        <time>2019-06-12T15:43:03Z</time>
      </trkpt>
      <trkpt lat="44.31716" lon="5.82646">
        <ele>573</ele>
        <time>2019-06-12T15:43:04Z</time>
      </trkpt>
      <trkpt lat="44.3171" lon="5.8264">
        <ele>573</ele>
        <time>2019-06-12T15:43:05Z</time>
      </trkpt>
      <trkpt lat="44.31704" lon="5.82633">
        <ele>573</ele>
        <time>2019-06-12T15:43:06Z</time>
      </trkpt>
      <trkpt lat="44.31697" lon="5.82626">
        <ele>572</ele>
        <time>2019-06-12T15:43:07Z</time>
      </trkpt>
      <trkpt lat="44.31691" lon="5.8262">
        <ele>572</ele>
        <time>2019-06-12T15:43:08Z</time>
      </trkpt>
      <trkpt lat="44.31685" lon="5.82615">
        <ele>572</ele>
        <time>2019-06-12T15:43:09Z</time>
      </trkpt>
      <trkpt lat="44.31679" lon="5.82609">
        <ele>572</ele>
        <time>2019-06-12T15:43:10Z</time>
      </trkpt>
      <trkpt lat="44.31673" lon="5.82603">
        <ele>572</ele>
        <time>2019-06-12T15:43:11Z</time>
      </trkpt>
      <trkpt lat="44.31667" lon="5.82597">
        <ele>572</ele>
        <time>2019-06-12T15:43:12Z</time>
      </trkpt>
      <trkpt lat="44.31662" lon="5.82591">
        <ele>571</ele>
        <time>2019-06-12T15:43:13Z</time>
      </trkpt>
      <trkpt lat="44.31656" lon="5.82585">
        <ele>571</ele>
        <time>2019-06-12T15:43:14Z</time>
      </trkpt>
      <trkpt lat="44.3165" lon="5.82579">
        <ele>571</ele>
        <time>2019-06-12T15:43:15Z</time>
      </trkpt>
      <trkpt lat="44.31644" lon="5.82573">
        <ele>571</ele>
        <time>2019-06-12T15:43:16Z</time>
      </trkpt>
      <trkpt lat="44.31638" lon="5.82567">
        <ele>571</ele>
        <time>2019-06-12T15:43:17Z</time>
      </trkpt>
      <trkpt lat="44.31632" lon="5.82561">
        <ele>571</ele>
        <time>2019-06-12T15:43:18Z</time>
      </trkpt>
      <trkpt lat="44.31626" lon="5.82556">
        <ele>571</ele>
        <time>2019-06-12T15:43:19Z</time>
      </trkpt>
      <trkpt lat="44.31621" lon="5.8255">
        <ele>571</ele>
        <time>2019-06-12T15:43:20Z</time>
      </trkpt>
      <trkpt lat="44.31615" lon="5.82544">
        <ele>571</ele>
        <time>2019-06-12T15:43:21Z</time>
      </trkpt>
      <trkpt lat="44.31609" lon="5.82538">
        <ele>571</ele>
        <time>2019-06-12T15:43:22Z</time>
      </trkpt>
      <trkpt lat="44.31603" lon="5.82532">
        <ele>571</ele>
        <time>2019-06-12T15:43:23Z</time>
      </trkpt>
      <trkpt lat="44.31597" lon="5.82526">
        <ele>570</ele>
        <time>2019-06-12T15:43:24Z</time>
      </trkpt>
      <trkpt lat="44.31591" lon="5.8252">
        <ele>570</ele>
        <time>2019-06-12T15:43:25Z</time>
      </trkpt>
      <trkpt lat="44.31585" lon="5.82514">
        <ele>570</ele>
        <time>2019-06-12T15:43:26Z</time>
      </trkpt>
      <trkpt lat="44.31579" lon="5.82508">
        <ele>570</ele>
        <time>2019-06-12T15:43:27Z</time>
      </trkpt>
      <trkpt lat="44.31574" lon="5.82502">
        <ele>570</ele>
        <time>2019-06-12T15:43:28Z</time>
      </trkpt>
      <trkpt lat="44.31568" lon="5.82495">
        <ele>570</ele>
        <time>2019-06-12T15:43:29Z</time>
      </trkpt>
      <trkpt lat="44.31562" lon="5.8249">
        <ele>570</ele>
        <time>2019-06-12T15:43:30Z</time>
      </trkpt>
      <trkpt lat="44.31557" lon="5.82484">
        <ele>570</ele>
        <time>2019-06-12T15:43:31Z</time>
      </trkpt>
      <trkpt lat="44.31551" lon="5.82479">
        <ele>570</ele>
        <time>2019-06-12T15:43:32Z</time>
      </trkpt>
      <trkpt lat="44.31545" lon="5.82473">
        <ele>570</ele>
        <time>2019-06-12T15:43:33Z</time>
      </trkpt>
      <trkpt lat="44.3154" lon="5.82467">
        <ele>570</ele>
        <time>2019-06-12T15:43:34Z</time>
      </trkpt>
      <trkpt lat="44.31534" lon="5.82462">
        <ele>569</ele>
        <time>2019-06-12T15:43:35Z</time>
      </trkpt>
      <trkpt lat="44.31528" lon="5.82457">
        <ele>569</ele>
        <time>2019-06-12T15:43:36Z</time>
      </trkpt>
      <trkpt lat="44.31523" lon="5.82452">
        <ele>569</ele>
        <time>2019-06-12T15:43:37Z</time>
      </trkpt>
      <trkpt lat="44.31517" lon="5.82447">
        <ele>569</ele>
        <time>2019-06-12T15:43:38Z</time>
      </trkpt>
      <trkpt lat="44.31512" lon="5.82443">
        <ele>569</ele>
        <time>2019-06-12T15:43:39Z</time>
      </trkpt>
      <trkpt lat="44.31507" lon="5.82438">
        <ele>569</ele>
        <time>2019-06-12T15:43:40Z</time>
      </trkpt>
      <trkpt lat="44.31502" lon="5.82433">
        <ele>569</ele>
        <time>2019-06-12T15:43:41Z</time>
      </trkpt>
      <trkpt lat="44.31498" lon="5.82428">
        <ele>569</ele>
        <time>2019-06-12T15:43:42Z</time>
      </trkpt>
      <trkpt lat="44.31493" lon="5.82423">
        <ele>569</ele>
        <time>2019-06-12T15:43:43Z</time>
      </trkpt>
      <trkpt lat="44.3149" lon="5.82419">
        <ele>568</ele>
        <time>2019-06-12T15:43:44Z</time>
      </trkpt>
      <trkpt lat="44.31486" lon="5.82415">
        <ele>568</ele>
        <time>2019-06-12T15:43:45Z</time>
      </trkpt>
      <trkpt lat="44.31483" lon="5.8241">
        <ele>568</ele>
        <time>2019-06-12T15:43:46Z</time>
      </trkpt>
      <trkpt lat="44.31479" lon="5.82406">
        <ele>568</ele>
        <time>2019-06-12T15:43:47Z</time>
      </trkpt>
      <trkpt lat="44.31476" lon="5.82403">
        <ele>568</ele>
        <time>2019-06-12T15:43:48Z</time>
      </trkpt>
      <trkpt lat="44.31472" lon="5.82398">
        <ele>568</ele>
        <time>2019-06-12T15:43:49Z</time>
      </trkpt>
      <trkpt lat="44.31467" lon="5.82395">
        <ele>568</ele>
        <time>2019-06-12T15:43:50Z</time>
      </trkpt>
      <trkpt lat="44.31464" lon="5.82392">
        <ele>568</ele>
        <time>2019-06-12T15:43:51Z</time>
      </trkpt>
      <trkpt lat="44.31461" lon="5.82388">
        <ele>568</ele>
        <time>2019-06-12T15:43:52Z</time>
      </trkpt>
      <trkpt lat="44.31458" lon="5.82385">
        <ele>568</ele>
        <time>2019-06-12T15:43:53Z</time>
      </trkpt>
      <trkpt lat="44.31455" lon="5.82381">
        <ele>568</ele>
        <time>2019-06-12T15:43:54Z</time>
      </trkpt>
      <trkpt lat="44.31453" lon="5.82377">
        <ele>568</ele>
        <time>2019-06-12T15:43:55Z</time>
      </trkpt>
      <trkpt lat="44.3145" lon="5.82374">
        <ele>568</ele>
        <time>2019-06-12T15:43:56Z</time>
      </trkpt>
      <trkpt lat="44.31448" lon="5.82371">
        <ele>568</ele>
        <time>2019-06-12T15:43:57Z</time>
      </trkpt>
      <trkpt lat="44.31445" lon="5.82368">
        <ele>568</ele>
        <time>2019-06-12T15:43:58Z</time>
      </trkpt>
      <trkpt lat="44.31443" lon="5.82366">
        <ele>568</ele>
        <time>2019-06-12T15:43:59Z</time>
      </trkpt>
      <trkpt lat="44.31441" lon="5.82365">
        <ele>568</ele>
        <time>2019-06-12T15:44:00Z</time>
      </trkpt>
      <trkpt lat="44.31441" lon="5.82366">
        <ele>571</ele>
        <time>2019-06-12T15:44:04Z</time>
      </trkpt>
      <trkpt lat="44.31443" lon="5.82366">
        <ele>575</ele>
        <time>2019-06-12T15:44:08Z</time>
      </trkpt>
      <trkpt lat="44.31445" lon="5.82366">
        <ele>577</ele>
        <time>2019-06-12T15:44:10Z</time>
      </trkpt>
      <trkpt lat="44.31444" lon="5.82368">
        <ele>579</ele>
        <time>2019-06-12T15:44:13Z</time>
      </trkpt>
      <trkpt lat="44.31444" lon="5.8237">
        <ele>580</ele>
        <time>2019-06-12T15:44:14Z</time>
      </trkpt>
      <trkpt lat="44.31444" lon="5.82373">
        <ele>580</ele>
        <time>2019-06-12T15:44:15Z</time>
      </trkpt>
      <trkpt lat="44.31444" lon="5.82376">
        <ele>580</ele>
        <time>2019-06-12T15:44:16Z</time>
      </trkpt>
      <trkpt lat="44.31443" lon="5.8238">
        <ele>580</ele>
        <time>2019-06-12T15:44:17Z</time>
      </trkpt>
      <trkpt lat="44.31443" lon="5.82385">
        <ele>580</ele>
        <time>2019-06-12T15:44:18Z</time>
      </trkpt>
      <trkpt lat="44.31444" lon="5.8239">
        <ele>580</ele>
        <time>2019-06-12T15:44:19Z</time>
      </trkpt>
      <trkpt lat="44.31445" lon="5.82395">
        <ele>580</ele>
        <time>2019-06-12T15:44:20Z</time>
      </trkpt>
      <trkpt lat="44.31445" lon="5.82401">
        <ele>580</ele>
        <time>2019-06-12T15:44:21Z</time>
      </trkpt>
      <trkpt lat="44.31445" lon="5.82407">
        <ele>580</ele>
        <time>2019-06-12T15:44:22Z</time>
      </trkpt>
      <trkpt lat="44.31445" lon="5.82413">
        <ele>580</ele>
        <time>2019-06-12T15:44:23Z</time>
      </trkpt>
      <trkpt lat="44.31445" lon="5.8242">
        <ele>580</ele>
        <time>2019-06-12T15:44:24Z</time>
      </trkpt>
      <trkpt lat="44.31444" lon="5.82427">
        <ele>580</ele>
        <time>2019-06-12T15:44:25Z</time>
      </trkpt>
      <trkpt lat="44.31443" lon="5.82435">
        <ele>580</ele>
        <time>2019-06-12T15:44:26Z</time>
      </trkpt>
      <trkpt lat="44.31443" lon="5.82442">
        <ele>580</ele>
        <time>2019-06-12T15:44:27Z</time>
      </trkpt>
      <trkpt lat="44.31442" lon="5.82449">
        <ele>580</ele>
        <time>2019-06-12T15:44:28Z</time>
      </trkpt>
      <trkpt lat="44.3144" lon="5.82455">
        <ele>580</ele>
        <time>2019-06-12T15:44:29Z</time>
      </trkpt>
      <trkpt lat="44.31439" lon="5.82462">
        <ele>580</ele>
        <time>2019-06-12T15:44:30Z</time>
      </trkpt>
      <trkpt lat="44.31438" lon="5.82469">
        <ele>580</ele>
        <time>2019-06-12T15:44:31Z</time>
      </trkpt>
      <trkpt lat="44.31436" lon="5.82476">
        <ele>580</ele>
        <time>2019-06-12T15:44:32Z</time>
      </trkpt>
      <trkpt lat="44.31435" lon="5.82483">
        <ele>580</ele>
        <time>2019-06-12T15:44:33Z</time>
      </trkpt>
      <trkpt lat="44.31433" lon="5.82491">
        <ele>580</ele>
        <time>2019-06-12T15:44:34Z</time>
      </trkpt>
      <trkpt lat="44.31431" lon="5.82498">
        <ele>580</ele>
        <time>2019-06-12T15:44:35Z</time>
      </trkpt>
      <trkpt lat="44.31429" lon="5.82505">
        <ele>580</ele>
        <time>2019-06-12T15:44:36Z</time>
      </trkpt>
      <trkpt lat="44.31428" lon="5.82513">
        <ele>580</ele>
        <time>2019-06-12T15:44:37Z</time>
      </trkpt>
      <trkpt lat="44.31426" lon="5.8252">
        <ele>580</ele>
        <time>2019-06-12T15:44:38Z</time>
      </trkpt>
      <trkpt lat="44.31424" lon="5.82527">
        <ele>580</ele>
        <time>2019-06-12T15:44:39Z</time>
      </trkpt>
      <trkpt lat="44.31423" lon="5.82535">
        <ele>580</ele>
        <time>2019-06-12T15:44:40Z</time>
      </trkpt>
      <trkpt lat="44.31421" lon="5.82542">
        <ele>580</ele>
        <time>2019-06-12T15:44:41Z</time>
      </trkpt>
      <trkpt lat="44.3142" lon="5.82549">
        <ele>579</ele>
        <time>2019-06-12T15:44:42Z</time>
      </trkpt>
      <trkpt lat="44.31418" lon="5.82556">
        <ele>579</ele>
        <time>2019-06-12T15:44:43Z</time>
      </trkpt>
      <trkpt lat="44.31416" lon="5.82563">
        <ele>579</ele>
        <time>2019-06-12T15:44:44Z</time>
      </trkpt>
      <trkpt lat="44.31415" lon="5.8257">
        <ele>579</ele>
        <time>2019-06-12T15:44:45Z</time>
      </trkpt>
      <trkpt lat="44.31413" lon="5.82578">
        <ele>578</ele>
        <time>2019-06-12T15:44:46Z</time>
      </trkpt>
      <trkpt lat="44.31411" lon="5.82585">
        <ele>578</ele>
        <time>2019-06-12T15:44:47Z</time>
      </trkpt>
      <trkpt lat="44.3141" lon="5.82592">
        <ele>578</ele>
        <time>2019-06-12T15:44:48Z</time>
      </trkpt>
      <trkpt lat="44.31409" lon="5.82598">
        <ele>578</ele>
        <time>2019-06-12T15:44:49Z</time>
      </trkpt>
      <trkpt lat="44.31407" lon="5.82606">
        <ele>578</ele>
        <time>2019-06-12T15:44:50Z</time>
      </trkpt>
      <trkpt lat="44.31406" lon="5.82613">
        <ele>577</ele>
        <time>2019-06-12T15:44:51Z</time>
      </trkpt>
      <trkpt lat="44.31404" lon="5.8262">
        <ele>577</ele>
        <time>2019-06-12T15:44:52Z</time>
      </trkpt>
      <trkpt lat="44.31403" lon="5.82627">
        <ele>577</ele>
        <time>2019-06-12T15:44:53Z</time>
      </trkpt>
      <trkpt lat="44.314" lon="5.82634">
        <ele>577</ele>
        <time>2019-06-12T15:44:54Z</time>
      </trkpt>
      <trkpt lat="44.31397" lon="5.8264">
        <ele>576</ele>
        <time>2019-06-12T15:44:55Z</time>
      </trkpt>
      <trkpt lat="44.31394" lon="5.82647">
        <ele>576</ele>
        <time>2019-06-12T15:44:56Z</time>
      </trkpt>
      <trkpt lat="44.31391" lon="5.82653">
        <ele>576</ele>
        <time>2019-06-12T15:44:57Z</time>
      </trkpt>
      <trkpt lat="44.31387" lon="5.82659">
        <ele>575</ele>
        <time>2019-06-12T15:44:58Z</time>
      </trkpt>
      <trkpt lat="44.31384" lon="5.82665">
        <ele>575</ele>
        <time>2019-06-12T15:44:59Z</time>
      </trkpt>
      <trkpt lat="44.3138" lon="5.82671">
        <ele>575</ele>
        <time>2019-06-12T15:45:00Z</time>
      </trkpt>
      <trkpt lat="44.31377" lon="5.82677">
        <ele>575</ele>
        <time>2019-06-12T15:45:01Z</time>
      </trkpt>
      <trkpt lat="44.31373" lon="5.82682">
        <ele>575</ele>
        <time>2019-06-12T15:45:02Z</time>
      </trkpt>
      <trkpt lat="44.31369" lon="5.82686">
        <ele>575</ele>
        <time>2019-06-12T15:45:03Z</time>
      </trkpt>
      <trkpt lat="44.31366" lon="5.82692">
        <ele>575</ele>
        <time>2019-06-12T15:45:04Z</time>
      </trkpt>
      <trkpt lat="44.31365" lon="5.82699">
        <ele>575</ele>
        <time>2019-06-12T15:45:05Z</time>
      </trkpt>
      <trkpt lat="44.31367" lon="5.82705">
        <ele>575</ele>
        <time>2019-06-12T15:45:06Z</time>
      </trkpt>
      <trkpt lat="44.31371" lon="5.8271">
        <ele>575</ele>
        <time>2019-06-12T15:45:07Z</time>
      </trkpt>
      <trkpt lat="44.31374" lon="5.82716">
        <ele>575</ele>
        <time>2019-06-12T15:45:08Z</time>
      </trkpt>
      <trkpt lat="44.31377" lon="5.82723">
        <ele>575</ele>
        <time>2019-06-12T15:45:09Z</time>
      </trkpt>
      <trkpt lat="44.31378" lon="5.8273">
        <ele>575</ele>
        <time>2019-06-12T15:45:10Z</time>
      </trkpt>
      <trkpt lat="44.31378" lon="5.82738">
        <ele>575</ele>
        <time>2019-06-12T15:45:11Z</time>
      </trkpt>
      <trkpt lat="44.31378" lon="5.82746">
        <ele>574</ele>
        <time>2019-06-12T15:45:12Z</time>
      </trkpt>
      <trkpt lat="44.31378" lon="5.82754">
        <ele>574</ele>
        <time>2019-06-12T15:45:13Z</time>
      </trkpt>
      <trkpt lat="44.31379" lon="5.82762">
        <ele>574</ele>
        <time>2019-06-12T15:45:14Z</time>
      </trkpt>
      <trkpt lat="44.3138" lon="5.8277">
        <ele>574</ele>
        <time>2019-06-12T15:45:15Z</time>
      </trkpt>
      <trkpt lat="44.3138" lon="5.82779">
        <ele>574</ele>
        <time>2019-06-12T15:45:16Z</time>
      </trkpt>
      <trkpt lat="44.3138" lon="5.82787">
        <ele>574</ele>
        <time>2019-06-12T15:45:17Z</time>
      </trkpt>
      <trkpt lat="44.31379" lon="5.82795">
        <ele>574</ele>
        <time>2019-06-12T15:45:18Z</time>
      </trkpt>
      <trkpt lat="44.31379" lon="5.82803">
        <ele>574</ele>
        <time>2019-06-12T15:45:19Z</time>
      </trkpt>
      <trkpt lat="44.31378" lon="5.8281">
        <ele>574</ele>
        <time>2019-06-12T15:45:20Z</time>
      </trkpt>
      <trkpt lat="44.31377" lon="5.82818">
        <ele>574</ele>
        <time>2019-06-12T15:45:21Z</time>
      </trkpt>
      <trkpt lat="44.31376" lon="5.82826">
        <ele>574</ele>
        <time>2019-06-12T15:45:22Z</time>
      </trkpt>
      <trkpt lat="44.31376" lon="5.82834">
        <ele>574</ele>
        <time>2019-06-12T15:45:23Z</time>
      </trkpt>
      <trkpt lat="44.31375" lon="5.82841">
        <ele>574</ele>
        <time>2019-06-12T15:45:24Z</time>
      </trkpt>
      <trkpt lat="44.31374" lon="5.82849">
        <ele>574</ele>
        <time>2019-06-12T15:45:25Z</time>
      </trkpt>
      <trkpt lat="44.31374" lon="5.82857">
        <ele>574</ele>
        <time>2019-06-12T15:45:26Z</time>
      </trkpt>
      <trkpt lat="44.31373" lon="5.82865">
        <ele>574</ele>
        <time>2019-06-12T15:45:27Z</time>
      </trkpt>
      <trkpt lat="44.31372" lon="5.82872">
        <ele>574</ele>
        <time>2019-06-12T15:45:28Z</time>
      </trkpt>
      <trkpt lat="44.31371" lon="5.82879">
        <ele>574</ele>
        <time>2019-06-12T15:45:29Z</time>
      </trkpt>
      <trkpt lat="44.3137" lon="5.82887">
        <ele>574</ele>
        <time>2019-06-12T15:45:30Z</time>
      </trkpt>
      <trkpt lat="44.3137" lon="5.82894">
        <ele>574</ele>
        <time>2019-06-12T15:45:31Z</time>
      </trkpt>
      <trkpt lat="44.31369" lon="5.82902">
        <ele>574</ele>
        <time>2019-06-12T15:45:32Z</time>
      </trkpt>
      <trkpt lat="44.31369" lon="5.82909">
        <ele>574</ele>
        <time>2019-06-12T15:45:33Z</time>
      </trkpt>
      <trkpt lat="44.31368" lon="5.82916">
        <ele>574</ele>
        <time>2019-06-12T15:45:34Z</time>
      </trkpt>
      <trkpt lat="44.31367" lon="5.82924">
        <ele>574</ele>
        <time>2019-06-12T15:45:35Z</time>
      </trkpt>
      <trkpt lat="44.31367" lon="5.82931">
        <ele>574</ele>
        <time>2019-06-12T15:45:36Z</time>
      </trkpt>
      <trkpt lat="44.31366" lon="5.82938">
        <ele>574</ele>
        <time>2019-06-12T15:45:37Z</time>
      </trkpt>
      <trkpt lat="44.31365" lon="5.82945">
        <ele>574</ele>
        <time>2019-06-12T15:45:38Z</time>
      </trkpt>
      <trkpt lat="44.31364" lon="5.82953">
        <ele>574</ele>
        <time>2019-06-12T15:45:39Z</time>
      </trkpt>
      <trkpt lat="44.31363" lon="5.8296">
        <ele>574</ele>
        <time>2019-06-12T15:45:40Z</time>
      </trkpt>
      <trkpt lat="44.31362" lon="5.82967">
        <ele>574</ele>
        <time>2019-06-12T15:45:41Z</time>
      </trkpt>
      <trkpt lat="44.31361" lon="5.82974">
        <ele>574</ele>
        <time>2019-06-12T15:45:42Z</time>
      </trkpt>
      <trkpt lat="44.3136" lon="5.82981">
        <ele>574</ele>
        <time>2019-06-12T15:45:43Z</time>
      </trkpt>
      <trkpt lat="44.31359" lon="5.82988">
        <ele>574</ele>
        <time>2019-06-12T15:45:44Z</time>
      </trkpt>
      <trkpt lat="44.31358" lon="5.82994">
        <ele>574</ele>
        <time>2019-06-12T15:45:45Z</time>
      </trkpt>
      <trkpt lat="44.31357" lon="5.83001">
        <ele>574</ele>
        <time>2019-06-12T15:45:46Z</time>
      </trkpt>
      <trkpt lat="44.31356" lon="5.83007">
        <ele>574</ele>
        <time>2019-06-12T15:45:47Z</time>
      </trkpt>
      <trkpt lat="44.31356" lon="5.83013">
        <ele>574</ele>
        <time>2019-06-12T15:45:48Z</time>
      </trkpt>
      <trkpt lat="44.31355" lon="5.83019">
        <ele>574</ele>
        <time>2019-06-12T15:45:49Z</time>
      </trkpt>
      <trkpt lat="44.31354" lon="5.83025">
        <ele>574</ele>
        <time>2019-06-12T15:45:50Z</time>
      </trkpt>
      <trkpt lat="44.31354" lon="5.8303">
        <ele>574</ele>
        <time>2019-06-12T15:45:51Z</time>
      </trkpt>
      <trkpt lat="44.31353" lon="5.83036">
        <ele>574</ele>
        <time>2019-06-12T15:45:52Z</time>
      </trkpt>
      <trkpt lat="44.31353" lon="5.83042">
        <ele>574</ele>
        <time>2019-06-12T15:45:53Z</time>
      </trkpt>
      <trkpt lat="44.31352" lon="5.83047">
        <ele>575</ele>
        <time>2019-06-12T15:45:54Z</time>
      </trkpt>
      <trkpt lat="44.3135" lon="5.83053">
        <ele>575</ele>
        <time>2019-06-12T15:45:55Z</time>
      </trkpt>
      <trkpt lat="44.31349" lon="5.83059">
        <ele>575</ele>
        <time>2019-06-12T15:45:56Z</time>
      </trkpt>
      <trkpt lat="44.31348" lon="5.83065">
        <ele>575</ele>
        <time>2019-06-12T15:45:57Z</time>
      </trkpt>
      <trkpt lat="44.31347" lon="5.83071">
        <ele>575</ele>
        <time>2019-06-12T15:45:58Z</time>
      </trkpt>
      <trkpt lat="44.31346" lon="5.83077">
        <ele>575</ele>
        <time>2019-06-12T15:45:59Z</time>
      </trkpt>
      <trkpt lat="44.31347" lon="5.83083">
        <ele>575</ele>
        <time>2019-06-12T15:46:00Z</time>
      </trkpt>
      <trkpt lat="44.31347" lon="5.83089">
        <ele>575</ele>
        <time>2019-06-12T15:46:01Z</time>
      </trkpt>
      <trkpt lat="44.31347" lon="5.83094">
        <ele>575</ele>
        <time>2019-06-12T15:46:02Z</time>
      </trkpt>
      <trkpt lat="44.31346" lon="5.83099">
        <ele>575</ele>
        <time>2019-06-12T15:46:03Z</time>
      </trkpt>
      <trkpt lat="44.31347" lon="5.83103">
        <ele>575</ele>
        <time>2019-06-12T15:46:04Z</time>
      </trkpt>
      <trkpt lat="44.31347" lon="5.83106">
        <ele>575</ele>
        <time>2019-06-12T15:46:05Z</time>
      </trkpt>
      <trkpt lat="44.31348" lon="5.83108">
        <ele>575</ele>
        <time>2019-06-12T15:46:06Z</time>
      </trkpt>
      <trkpt lat="44.31351" lon="5.83109">
        <ele>575</ele>
        <time>2019-06-12T15:46:07Z</time>
      </trkpt>
      <trkpt lat="44.31354" lon="5.83108">
        <ele>575</ele>
        <time>2019-06-12T15:46:08Z</time>
      </trkpt>
      <trkpt lat="44.31357" lon="5.83105">
        <ele>575</ele>
        <time>2019-06-12T15:46:09Z</time>
      </trkpt>
      <trkpt lat="44.31359" lon="5.83101">
        <ele>575</ele>
        <time>2019-06-12T15:46:10Z</time>
      </trkpt>
      <trkpt lat="44.31361" lon="5.83096">
        <ele>575</ele>
        <time>2019-06-12T15:46:11Z</time>
      </trkpt>
      <trkpt lat="44.31363" lon="5.83091">
        <ele>575</ele>
        <time>2019-06-12T15:46:12Z</time>
      </trkpt>
      <trkpt lat="44.31365" lon="5.83085">
        <ele>575</ele>
        <time>2019-06-12T15:46:13Z</time>
      </trkpt>
      <trkpt lat="44.31366" lon="5.8308">
        <ele>575</ele>
        <time>2019-06-12T15:46:14Z</time>
      </trkpt>
      <trkpt lat="44.31367" lon="5.83075">
        <ele>575</ele>
        <time>2019-06-12T15:46:15Z</time>
      </trkpt>
      <trkpt lat="44.31369" lon="5.83071">
        <ele>575</ele>
        <time>2019-06-12T15:46:16Z</time>
      </trkpt>
      <trkpt lat="44.31371" lon="5.83067">
        <ele>575</ele>
        <time>2019-06-12T15:46:17Z</time>
      </trkpt>
      <trkpt lat="44.31374" lon="5.83062">
        <ele>575</ele>
        <time>2019-06-12T15:46:18Z</time>
      </trkpt>
      <trkpt lat="44.31376" lon="5.83058">
        <ele>575</ele>
        <time>2019-06-12T15:46:19Z</time>
      </trkpt>
      <trkpt lat="44.31379" lon="5.83054">
        <ele>575</ele>
        <time>2019-06-12T15:46:20Z</time>
      </trkpt>
      <trkpt lat="44.31381" lon="5.8305">
        <ele>575</ele>
        <time>2019-06-12T15:46:21Z</time>
      </trkpt>
      <trkpt lat="44.31384" lon="5.83046">
        <ele>575</ele>
        <time>2019-06-12T15:46:22Z</time>
      </trkpt>
      <trkpt lat="44.31387" lon="5.83041">
        <ele>574</ele>
        <time>2019-06-12T15:46:23Z</time>
      </trkpt>
      <trkpt lat="44.31391" lon="5.83037">
        <ele>574</ele>
        <time>2019-06-12T15:46:24Z</time>
      </trkpt>
      <trkpt lat="44.31394" lon="5.83032">
        <ele>573</ele>
        <time>2019-06-12T15:46:25Z</time>
      </trkpt>
      <trkpt lat="44.31397" lon="5.83027">
        <ele>573</ele>
        <time>2019-06-12T15:46:26Z</time>
      </trkpt>
      <trkpt lat="44.31401" lon="5.83021">
        <ele>572</ele>
        <time>2019-06-12T15:46:27Z</time>
      </trkpt>
      <trkpt lat="44.31404" lon="5.83016">
        <ele>572</ele>
        <time>2019-06-12T15:46:28Z</time>
      </trkpt>
      <trkpt lat="44.31408" lon="5.83011">
        <ele>572</ele>
        <time>2019-06-12T15:46:29Z</time>
      </trkpt>
      <trkpt lat="44.31411" lon="5.83005">
        <ele>572</ele>
        <time>2019-06-12T15:46:30Z</time>
      </trkpt>
      <trkpt lat="44.31415" lon="5.83">
        <ele>572</ele>
        <time>2019-06-12T15:46:31Z</time>
      </trkpt>
      <trkpt lat="44.31419" lon="5.82995">
        <ele>571</ele>
        <time>2019-06-12T15:46:32Z</time>
      </trkpt>
      <trkpt lat="44.31422" lon="5.82989">
        <ele>571</ele>
        <time>2019-06-12T15:46:33Z</time>
      </trkpt>
      <trkpt lat="44.31426" lon="5.82984">
        <ele>571</ele>
        <time>2019-06-12T15:46:34Z</time>
      </trkpt>
      <trkpt lat="44.3143" lon="5.82979">
        <ele>571</ele>
        <time>2019-06-12T15:46:35Z</time>
      </trkpt>
      <trkpt lat="44.31433" lon="5.82973">
        <ele>571</ele>
        <time>2019-06-12T15:46:36Z</time>
      </trkpt>
      <trkpt lat="44.31437" lon="5.82968">
        <ele>571</ele>
        <time>2019-06-12T15:46:37Z</time>
      </trkpt>
      <trkpt lat="44.3144" lon="5.82962">
        <ele>571</ele>
        <time>2019-06-12T15:46:38Z</time>
      </trkpt>
      <trkpt lat="44.31443" lon="5.82956">
        <ele>571</ele>
        <time>2019-06-12T15:46:39Z</time>
      </trkpt>
      <trkpt lat="44.31447" lon="5.82951">
        <ele>571</ele>
        <time>2019-06-12T15:46:40Z</time>
      </trkpt>
      <trkpt lat="44.31451" lon="5.82945">
        <ele>571</ele>
        <time>2019-06-12T15:46:41Z</time>
      </trkpt>
      <trkpt lat="44.31454" lon="5.8294">
        <ele>571</ele>
        <time>2019-06-12T15:46:42Z</time>
      </trkpt>
      <trkpt lat="44.31458" lon="5.82935">
        <ele>571</ele>
        <time>2019-06-12T15:46:43Z</time>
      </trkpt>
      <trkpt lat="44.31461" lon="5.82929">
        <ele>571</ele>
        <time>2019-06-12T15:46:44Z</time>
      </trkpt>
      <trkpt lat="44.31464" lon="5.82924">
        <ele>571</ele>
        <time>2019-06-12T15:46:45Z</time>
      </trkpt>
      <trkpt lat="44.31467" lon="5.82919">
        <ele>571</ele>
        <time>2019-06-12T15:46:46Z</time>
      </trkpt>
      <trkpt lat="44.3147" lon="5.82915">
        <ele>571</ele>
        <time>2019-06-12T15:46:47Z</time>
      </trkpt>
      <trkpt lat="44.31474" lon="5.8291">
        <ele>571</ele>
        <time>2019-06-12T15:46:48Z</time>
      </trkpt>
      <trkpt lat="44.31477" lon="5.82906">
        <ele>571</ele>
        <time>2019-06-12T15:46:49Z</time>
      </trkpt>
      <trkpt lat="44.3148" lon="5.82901">
        <ele>571</ele>
        <time>2019-06-12T15:46:50Z</time>
      </trkpt>
      <trkpt lat="44.31483" lon="5.82896">
        <ele>571</ele>
        <time>2019-06-12T15:46:51Z</time>
      </trkpt>
      <trkpt lat="44.31485" lon="5.82891">
        <ele>571</ele>
        <time>2019-06-12T15:46:52Z</time>
      </trkpt>
      <trkpt lat="44.31488" lon="5.82886">
        <ele>571</ele>
        <time>2019-06-12T15:46:53Z</time>
      </trkpt>
      <trkpt lat="44.31491" lon="5.82881">
        <ele>571</ele>
        <time>2019-06-12T15:46:54Z</time>
      </trkpt>
      <trkpt lat="44.31495" lon="5.82877">
        <ele>571</ele>
        <time>2019-06-12T15:46:55Z</time>
      </trkpt>
      <trkpt lat="44.31498" lon="5.82873">
        <ele>571</ele>
        <time>2019-06-12T15:46:56Z</time>
      </trkpt>
      <trkpt lat="44.31502" lon="5.82871">
        <ele>571</ele>
        <time>2019-06-12T15:46:57Z</time>
      </trkpt>
      <trkpt lat="44.31506" lon="5.82869">
        <ele>571</ele>
        <time>2019-06-12T15:46:58Z</time>
      </trkpt>
      <trkpt lat="44.3151" lon="5.8287">
        <ele>571</ele>
        <time>2019-06-12T15:46:59Z</time>
      </trkpt>
      <trkpt lat="44.31514" lon="5.82872">
        <ele>571</ele>
        <time>2019-06-12T15:47:00Z</time>
      </trkpt>
      <trkpt lat="44.31516" lon="5.82875">
        <ele>571</ele>
        <time>2019-06-12T15:47:01Z</time>
      </trkpt>
      <trkpt lat="44.31519" lon="5.82878">
        <ele>571</ele>
        <time>2019-06-12T15:47:02Z</time>
      </trkpt>
      <trkpt lat="44.31521" lon="5.82881">
        <ele>571</ele>
        <time>2019-06-12T15:47:03Z</time>
      </trkpt>
      <trkpt lat="44.31524" lon="5.82884">
        <ele>571</ele>
        <time>2019-06-12T15:47:04Z</time>
      </trkpt>
      <trkpt lat="44.31527" lon="5.82885">
        <ele>571</ele>
        <time>2019-06-12T15:47:05Z</time>
      </trkpt>
      <trkpt lat="44.3153" lon="5.82887">
        <ele>571</ele>
        <time>2019-06-12T15:47:06Z</time>
      </trkpt>
      <trkpt lat="44.31532" lon="5.82889">
        <ele>572</ele>
        <time>2019-06-12T15:47:07Z</time>
      </trkpt>
      <trkpt lat="44.31535" lon="5.82892">
        <ele>572</ele>
        <time>2019-06-12T15:47:08Z</time>
      </trkpt>
      <trkpt lat="44.31538" lon="5.82895">
        <ele>572</ele>
        <time>2019-06-12T15:47:09Z</time>
      </trkpt>
      <trkpt lat="44.31541" lon="5.82898">
        <ele>572</ele>
        <time>2019-06-12T15:47:10Z</time>
      </trkpt>
      <trkpt lat="44.31543" lon="5.82901">
        <ele>572</ele>
        <time>2019-06-12T15:47:11Z</time>
      </trkpt>
      <trkpt lat="44.31546" lon="5.82903">
        <ele>572</ele>
        <time>2019-06-12T15:47:12Z</time>
      </trkpt>
      <trkpt lat="44.31549" lon="5.82906">
        <ele>572</ele>
        <time>2019-06-12T15:47:13Z</time>
      </trkpt>
      <trkpt lat="44.31553" lon="5.82908">
        <ele>572</ele>
        <time>2019-06-12T15:47:14Z</time>
      </trkpt>
      <trkpt lat="44.31556" lon="5.8291">
        <ele>572</ele>
        <time>2019-06-12T15:47:15Z</time>
      </trkpt>
      <trkpt lat="44.31558" lon="5.82911">
        <ele>572</ele>
        <time>2019-06-12T15:47:16Z</time>
      </trkpt>
      <trkpt lat="44.31561" lon="5.82913">
        <ele>572</ele>
        <time>2019-06-12T15:47:17Z</time>
      </trkpt>
      <trkpt lat="44.31564" lon="5.82915">
        <ele>572</ele>
        <time>2019-06-12T15:47:18Z</time>
      </trkpt>
      <trkpt lat="44.31567" lon="5.82918">
        <ele>572</ele>
        <time>2019-06-12T15:47:19Z</time>
      </trkpt>
      <trkpt lat="44.3157" lon="5.82921">
        <ele>572</ele>
        <time>2019-06-12T15:47:20Z</time>
      </trkpt>
      <trkpt lat="44.31572" lon="5.82924">
        <ele>572</ele>
        <time>2019-06-12T15:47:21Z</time>
      </trkpt>
      <trkpt lat="44.31576" lon="5.82926">
        <ele>572</ele>
        <time>2019-06-12T15:47:22Z</time>
      </trkpt>
      <trkpt lat="44.31579" lon="5.82928">
        <ele>573</ele>
        <time>2019-06-12T15:47:23Z</time>
      </trkpt>
      <trkpt lat="44.31582" lon="5.8293">
        <ele>573</ele>
        <time>2019-06-12T15:47:24Z</time>
      </trkpt>
      <trkpt lat="44.31585" lon="5.82931">
        <ele>573</ele>
        <time>2019-06-12T15:47:25Z</time>
      </trkpt>
      <trkpt lat="44.31587" lon="5.82932">
        <ele>573</ele>
        <time>2019-06-12T15:47:26Z</time>
      </trkpt>
      <trkpt lat="44.3159" lon="5.82934">
        <ele>573</ele>
        <time>2019-06-12T15:47:27Z</time>
      </trkpt>
      <trkpt lat="44.31592" lon="5.82936">
        <ele>573</ele>
        <time>2019-06-12T15:47:28Z</time>
      </trkpt>
      <trkpt lat="44.31594" lon="5.82938">
        <ele>573</ele>
        <time>2019-06-12T15:47:29Z</time>
      </trkpt>
      <trkpt lat="44.31596" lon="5.8294">
        <ele>573</ele>
        <time>2019-06-12T15:47:30Z</time>
      </trkpt>
      <trkpt lat="44.31598" lon="5.82942">
        <ele>573</ele>
        <time>2019-06-12T15:47:31Z</time>
      </trkpt>
      <trkpt lat="44.316" lon="5.82944">
        <ele>573</ele>
        <time>2019-06-12T15:47:32Z</time>
      </trkpt>
      <trkpt lat="44.31601" lon="5.82946">
        <ele>573</ele>
        <time>2019-06-12T15:47:33Z</time>
      </trkpt>
      <trkpt lat="44.31603" lon="5.82949">
        <ele>573</ele>
        <time>2019-06-12T15:47:34Z</time>
      </trkpt>
      <trkpt lat="44.31604" lon="5.82952">
        <ele>573</ele>
        <time>2019-06-12T15:47:35Z</time>
      </trkpt>
      <trkpt lat="44.31604" lon="5.82956">
        <ele>573</ele>
        <time>2019-06-12T15:47:36Z</time>
      </trkpt>
      <trkpt lat="44.31604" lon="5.82958">
        <ele>573</ele>
        <time>2019-06-12T15:47:37Z</time>
      </trkpt>
      <trkpt lat="44.31604" lon="5.8296">
        <ele>573</ele>
        <time>2019-06-12T15:47:38Z</time>
      </trkpt>
      <trkpt lat="44.31604" lon="5.82962">
        <ele>573</ele>
        <time>2019-06-12T15:47:39Z</time>
      </trkpt>
      <trkpt lat="44.31604" lon="5.82964">
        <ele>573</ele>
        <time>2019-06-12T15:47:40Z</time>
      </trkpt>
      <trkpt lat="44.31605" lon="5.82965">
        <ele>573</ele>
        <time>2019-06-12T15:47:47Z</time>
      </trkpt>
      <trkpt lat="44.31606" lon="5.82967">
        <ele>573</ele>
        <time>2019-06-12T15:47:49Z</time>
      </trkpt>
      <trkpt lat="44.31605" lon="5.82965">
        <ele>574</ele>
        <time>2019-06-12T15:47:59Z</time>
      </trkpt>
      <trkpt lat="44.31604" lon="5.82965">
        <ele>575</ele>
        <time>2019-06-12T15:48:04Z</time>
      </trkpt>
      <trkpt lat="44.31605" lon="5.82964">
        <ele>576</ele>
        <time>2019-06-12T15:48:08Z</time>
      </trkpt>
      <trkpt lat="44.31605" lon="5.82966">
        <ele>577</ele>
        <time>2019-06-12T15:48:16Z</time>
      </trkpt>
      <trkpt lat="44.31604" lon="5.82966">
        <ele>578</ele>
        <time>2019-06-12T15:48:22Z</time>
      </trkpt>
      <trkpt lat="44.31604" lon="5.82966">
        <ele>579</ele>
        <time>2019-06-12T15:48:28Z</time>
      </trkpt>
    </trkseg>
  </trk>
</gpx>